<?xml version="1.0" encoding="UTF-8" standalone="no" ?>
<gpx xmlns="http://www.topografix.com/GPX/1/1" xmlns:xsi="http://www.w3.org/2001/XMLSchema-instance" xsi:schemaLocation="http://www.topografix.com/GPX/1/1 http://www.topografix.com/GPX/1/1/gpx.xsd" version="1.1" creator="VisuGPX - https://www.visugpx.com">
  <metadata>
    <name>Vtt avec Thierry du 17 08 2011</name>
    <desc><![CDATA[Mérigou Cahuzac Mas de Combes]]></desc>
  </metadata>
  <trk>
    <name><![CDATA[Vtt avec Thierry]]></name>
    <trkseg>
      <trkpt lat="43.95328" lon="1.8683">
        <ele>264</ele>
        <time>2011-08-17T06:48:14Z</time>
      </trkpt>
      <trkpt lat="43.95317" lon="1.86865">
        <ele>278</ele>
        <time>2011-08-17T06:48:52Z</time>
      </trkpt>
      <trkpt lat="43.95316" lon="1.86866">
        <ele>277</ele>
        <time>2011-08-17T06:48:54Z</time>
      </trkpt>
      <trkpt lat="43.95315" lon="1.86869">
        <ele>276</ele>
        <time>2011-08-17T06:48:56Z</time>
      </trkpt>
      <trkpt lat="43.95316" lon="1.86871">
        <ele>275</ele>
        <time>2011-08-17T06:48:58Z</time>
      </trkpt>
      <trkpt lat="43.95315" lon="1.86872">
        <ele>275</ele>
        <time>2011-08-17T06:49:00Z</time>
      </trkpt>
      <trkpt lat="43.95314" lon="1.86874">
        <ele>275</ele>
        <time>2011-08-17T06:49:02Z</time>
      </trkpt>
      <trkpt lat="43.95314" lon="1.86875">
        <ele>275</ele>
        <time>2011-08-17T06:49:04Z</time>
      </trkpt>
      <trkpt lat="43.95314" lon="1.86877">
        <ele>275</ele>
        <time>2011-08-17T06:49:06Z</time>
      </trkpt>
      <trkpt lat="43.95312" lon="1.86879">
        <ele>275</ele>
        <time>2011-08-17T06:49:10Z</time>
      </trkpt>
      <trkpt lat="43.95311" lon="1.86881">
        <ele>275</ele>
        <time>2011-08-17T06:49:11Z</time>
      </trkpt>
      <trkpt lat="43.95311" lon="1.86882">
        <ele>275</ele>
        <time>2011-08-17T06:49:12Z</time>
      </trkpt>
      <trkpt lat="43.9531" lon="1.86884">
        <ele>276</ele>
        <time>2011-08-17T06:49:14Z</time>
      </trkpt>
      <trkpt lat="43.9531" lon="1.86886">
        <ele>277</ele>
        <time>2011-08-17T06:49:15Z</time>
      </trkpt>
      <trkpt lat="43.9531" lon="1.86888">
        <ele>278</ele>
        <time>2011-08-17T06:49:16Z</time>
      </trkpt>
      <trkpt lat="43.9531" lon="1.8689">
        <ele>279</ele>
        <time>2011-08-17T06:49:17Z</time>
      </trkpt>
      <trkpt lat="43.95313" lon="1.86892">
        <ele>279</ele>
        <time>2011-08-17T06:49:19Z</time>
      </trkpt>
      <trkpt lat="43.95314" lon="1.86893">
        <ele>279</ele>
        <time>2011-08-17T06:49:20Z</time>
      </trkpt>
      <trkpt lat="43.95316" lon="1.86896">
        <ele>279</ele>
        <time>2011-08-17T06:49:22Z</time>
      </trkpt>
      <trkpt lat="43.95316" lon="1.86899">
        <ele>279</ele>
        <time>2011-08-17T06:49:23Z</time>
      </trkpt>
      <trkpt lat="43.95317" lon="1.86902">
        <ele>279</ele>
        <time>2011-08-17T06:49:24Z</time>
      </trkpt>
      <trkpt lat="43.95317" lon="1.86905">
        <ele>279</ele>
        <time>2011-08-17T06:49:25Z</time>
      </trkpt>
      <trkpt lat="43.95317" lon="1.86907">
        <ele>279</ele>
        <time>2011-08-17T06:49:26Z</time>
      </trkpt>
      <trkpt lat="43.95317" lon="1.86909">
        <ele>279</ele>
        <time>2011-08-17T06:49:27Z</time>
      </trkpt>
      <trkpt lat="43.95318" lon="1.86911">
        <ele>279</ele>
        <time>2011-08-17T06:49:28Z</time>
      </trkpt>
      <trkpt lat="43.9532" lon="1.86912">
        <ele>279</ele>
        <time>2011-08-17T06:49:29Z</time>
      </trkpt>
      <trkpt lat="43.95321" lon="1.86913">
        <ele>279</ele>
        <time>2011-08-17T06:49:30Z</time>
      </trkpt>
      <trkpt lat="43.95322" lon="1.86915">
        <ele>279</ele>
        <time>2011-08-17T06:49:31Z</time>
      </trkpt>
      <trkpt lat="43.95323" lon="1.86916">
        <ele>278</ele>
        <time>2011-08-17T06:49:32Z</time>
      </trkpt>
      <trkpt lat="43.95325" lon="1.86918">
        <ele>278</ele>
        <time>2011-08-17T06:49:33Z</time>
      </trkpt>
      <trkpt lat="43.95327" lon="1.8692">
        <ele>277</ele>
        <time>2011-08-17T06:49:34Z</time>
      </trkpt>
      <trkpt lat="43.95329" lon="1.86922">
        <ele>277</ele>
        <time>2011-08-17T06:49:35Z</time>
      </trkpt>
      <trkpt lat="43.9533" lon="1.86923">
        <ele>277</ele>
        <time>2011-08-17T06:49:36Z</time>
      </trkpt>
      <trkpt lat="43.95332" lon="1.86924">
        <ele>277</ele>
        <time>2011-08-17T06:49:37Z</time>
      </trkpt>
      <trkpt lat="43.95334" lon="1.86925">
        <ele>277</ele>
        <time>2011-08-17T06:49:38Z</time>
      </trkpt>
      <trkpt lat="43.95335" lon="1.86925">
        <ele>277</ele>
        <time>2011-08-17T06:49:39Z</time>
      </trkpt>
      <trkpt lat="43.95337" lon="1.86926">
        <ele>277</ele>
        <time>2011-08-17T06:49:40Z</time>
      </trkpt>
      <trkpt lat="43.95339" lon="1.86927">
        <ele>277</ele>
        <time>2011-08-17T06:49:41Z</time>
      </trkpt>
      <trkpt lat="43.9534" lon="1.86928">
        <ele>277</ele>
        <time>2011-08-17T06:49:42Z</time>
      </trkpt>
      <trkpt lat="43.95342" lon="1.86928">
        <ele>277</ele>
        <time>2011-08-17T06:49:43Z</time>
      </trkpt>
      <trkpt lat="43.95343" lon="1.8693">
        <ele>277</ele>
        <time>2011-08-17T06:49:44Z</time>
      </trkpt>
      <trkpt lat="43.95344" lon="1.86932">
        <ele>277</ele>
        <time>2011-08-17T06:49:45Z</time>
      </trkpt>
      <trkpt lat="43.95343" lon="1.86935">
        <ele>277</ele>
        <time>2011-08-17T06:49:46Z</time>
      </trkpt>
      <trkpt lat="43.95343" lon="1.86937">
        <ele>276</ele>
        <time>2011-08-17T06:49:47Z</time>
      </trkpt>
      <trkpt lat="43.95342" lon="1.8694">
        <ele>276</ele>
        <time>2011-08-17T06:49:48Z</time>
      </trkpt>
      <trkpt lat="43.95341" lon="1.86942">
        <ele>275</ele>
        <time>2011-08-17T06:49:49Z</time>
      </trkpt>
      <trkpt lat="43.95341" lon="1.86945">
        <ele>275</ele>
        <time>2011-08-17T06:49:50Z</time>
      </trkpt>
      <trkpt lat="43.95343" lon="1.86946">
        <ele>275</ele>
        <time>2011-08-17T06:49:51Z</time>
      </trkpt>
      <trkpt lat="43.95344" lon="1.86948">
        <ele>275</ele>
        <time>2011-08-17T06:49:52Z</time>
      </trkpt>
      <trkpt lat="43.95346" lon="1.86949">
        <ele>275</ele>
        <time>2011-08-17T06:49:53Z</time>
      </trkpt>
      <trkpt lat="43.95348" lon="1.86951">
        <ele>275</ele>
        <time>2011-08-17T06:49:54Z</time>
      </trkpt>
      <trkpt lat="43.9535" lon="1.86953">
        <ele>275</ele>
        <time>2011-08-17T06:49:55Z</time>
      </trkpt>
      <trkpt lat="43.95353" lon="1.86955">
        <ele>275</ele>
        <time>2011-08-17T06:49:56Z</time>
      </trkpt>
      <trkpt lat="43.95355" lon="1.86957">
        <ele>275</ele>
        <time>2011-08-17T06:49:57Z</time>
      </trkpt>
      <trkpt lat="43.95357" lon="1.86959">
        <ele>275</ele>
        <time>2011-08-17T06:49:58Z</time>
      </trkpt>
      <trkpt lat="43.95359" lon="1.86961">
        <ele>275</ele>
        <time>2011-08-17T06:49:59Z</time>
      </trkpt>
      <trkpt lat="43.95361" lon="1.86963">
        <ele>275</ele>
        <time>2011-08-17T06:50:00Z</time>
      </trkpt>
      <trkpt lat="43.95364" lon="1.86965">
        <ele>275</ele>
        <time>2011-08-17T06:50:01Z</time>
      </trkpt>
      <trkpt lat="43.95366" lon="1.86967">
        <ele>275</ele>
        <time>2011-08-17T06:50:02Z</time>
      </trkpt>
      <trkpt lat="43.95368" lon="1.86969">
        <ele>275</ele>
        <time>2011-08-17T06:50:03Z</time>
      </trkpt>
      <trkpt lat="43.9537" lon="1.86971">
        <ele>275</ele>
        <time>2011-08-17T06:50:04Z</time>
      </trkpt>
      <trkpt lat="43.95373" lon="1.86973">
        <ele>275</ele>
        <time>2011-08-17T06:50:05Z</time>
      </trkpt>
      <trkpt lat="43.95375" lon="1.86975">
        <ele>275</ele>
        <time>2011-08-17T06:50:06Z</time>
      </trkpt>
      <trkpt lat="43.95377" lon="1.86978">
        <ele>275</ele>
        <time>2011-08-17T06:50:07Z</time>
      </trkpt>
      <trkpt lat="43.9538" lon="1.8698">
        <ele>275</ele>
        <time>2011-08-17T06:50:08Z</time>
      </trkpt>
      <trkpt lat="43.95382" lon="1.86982">
        <ele>275</ele>
        <time>2011-08-17T06:50:09Z</time>
      </trkpt>
      <trkpt lat="43.95385" lon="1.86984">
        <ele>275</ele>
        <time>2011-08-17T06:50:10Z</time>
      </trkpt>
      <trkpt lat="43.95387" lon="1.86987">
        <ele>275</ele>
        <time>2011-08-17T06:50:11Z</time>
      </trkpt>
      <trkpt lat="43.95389" lon="1.86989">
        <ele>275</ele>
        <time>2011-08-17T06:50:12Z</time>
      </trkpt>
      <trkpt lat="43.95392" lon="1.86992">
        <ele>275</ele>
        <time>2011-08-17T06:50:13Z</time>
      </trkpt>
      <trkpt lat="43.95394" lon="1.86994">
        <ele>275</ele>
        <time>2011-08-17T06:50:14Z</time>
      </trkpt>
      <trkpt lat="43.95397" lon="1.86996">
        <ele>275</ele>
        <time>2011-08-17T06:50:15Z</time>
      </trkpt>
      <trkpt lat="43.95399" lon="1.86998">
        <ele>275</ele>
        <time>2011-08-17T06:50:16Z</time>
      </trkpt>
      <trkpt lat="43.95401" lon="1.87001">
        <ele>275</ele>
        <time>2011-08-17T06:50:17Z</time>
      </trkpt>
      <trkpt lat="43.95404" lon="1.87003">
        <ele>276</ele>
        <time>2011-08-17T06:50:18Z</time>
      </trkpt>
      <trkpt lat="43.95406" lon="1.87005">
        <ele>276</ele>
        <time>2011-08-17T06:50:19Z</time>
      </trkpt>
      <trkpt lat="43.95409" lon="1.87007">
        <ele>276</ele>
        <time>2011-08-17T06:50:20Z</time>
      </trkpt>
      <trkpt lat="43.95411" lon="1.8701">
        <ele>277</ele>
        <time>2011-08-17T06:50:21Z</time>
      </trkpt>
      <trkpt lat="43.95413" lon="1.87013">
        <ele>277</ele>
        <time>2011-08-17T06:50:22Z</time>
      </trkpt>
      <trkpt lat="43.95416" lon="1.87015">
        <ele>277</ele>
        <time>2011-08-17T06:50:23Z</time>
      </trkpt>
      <trkpt lat="43.95418" lon="1.87018">
        <ele>278</ele>
        <time>2011-08-17T06:50:24Z</time>
      </trkpt>
      <trkpt lat="43.9542" lon="1.8702">
        <ele>278</ele>
        <time>2011-08-17T06:50:25Z</time>
      </trkpt>
      <trkpt lat="43.95423" lon="1.8702">
        <ele>278</ele>
        <time>2011-08-17T06:50:26Z</time>
      </trkpt>
      <trkpt lat="43.95425" lon="1.8702">
        <ele>279</ele>
        <time>2011-08-17T06:50:27Z</time>
      </trkpt>
      <trkpt lat="43.95427" lon="1.87018">
        <ele>279</ele>
        <time>2011-08-17T06:50:28Z</time>
      </trkpt>
      <trkpt lat="43.95429" lon="1.87016">
        <ele>279</ele>
        <time>2011-08-17T06:50:29Z</time>
      </trkpt>
      <trkpt lat="43.9543" lon="1.87013">
        <ele>279</ele>
        <time>2011-08-17T06:50:30Z</time>
      </trkpt>
      <trkpt lat="43.95433" lon="1.87012">
        <ele>279</ele>
        <time>2011-08-17T06:50:31Z</time>
      </trkpt>
      <trkpt lat="43.95435" lon="1.8701">
        <ele>279</ele>
        <time>2011-08-17T06:50:32Z</time>
      </trkpt>
      <trkpt lat="43.95437" lon="1.87008">
        <ele>279</ele>
        <time>2011-08-17T06:50:33Z</time>
      </trkpt>
      <trkpt lat="43.95439" lon="1.87006">
        <ele>279</ele>
        <time>2011-08-17T06:50:34Z</time>
      </trkpt>
      <trkpt lat="43.95442" lon="1.87004">
        <ele>279</ele>
        <time>2011-08-17T06:50:35Z</time>
      </trkpt>
      <trkpt lat="43.95444" lon="1.87003">
        <ele>279</ele>
        <time>2011-08-17T06:50:36Z</time>
      </trkpt>
      <trkpt lat="43.95446" lon="1.87">
        <ele>279</ele>
        <time>2011-08-17T06:50:37Z</time>
      </trkpt>
      <trkpt lat="43.95448" lon="1.86998">
        <ele>279</ele>
        <time>2011-08-17T06:50:38Z</time>
      </trkpt>
      <trkpt lat="43.95451" lon="1.86996">
        <ele>279</ele>
        <time>2011-08-17T06:50:39Z</time>
      </trkpt>
      <trkpt lat="43.95452" lon="1.86994">
        <ele>279</ele>
        <time>2011-08-17T06:50:40Z</time>
      </trkpt>
      <trkpt lat="43.95455" lon="1.86992">
        <ele>279</ele>
        <time>2011-08-17T06:50:41Z</time>
      </trkpt>
      <trkpt lat="43.95457" lon="1.8699">
        <ele>278</ele>
        <time>2011-08-17T06:50:42Z</time>
      </trkpt>
      <trkpt lat="43.95459" lon="1.86987">
        <ele>277</ele>
        <time>2011-08-17T06:50:43Z</time>
      </trkpt>
      <trkpt lat="43.95461" lon="1.86985">
        <ele>277</ele>
        <time>2011-08-17T06:50:44Z</time>
      </trkpt>
      <trkpt lat="43.95462" lon="1.86983">
        <ele>277</ele>
        <time>2011-08-17T06:50:45Z</time>
      </trkpt>
      <trkpt lat="43.95465" lon="1.86982">
        <ele>277</ele>
        <time>2011-08-17T06:50:46Z</time>
      </trkpt>
      <trkpt lat="43.95467" lon="1.86982">
        <ele>277</ele>
        <time>2011-08-17T06:50:47Z</time>
      </trkpt>
      <trkpt lat="43.95468" lon="1.86984">
        <ele>277</ele>
        <time>2011-08-17T06:50:48Z</time>
      </trkpt>
      <trkpt lat="43.9547" lon="1.86986">
        <ele>277</ele>
        <time>2011-08-17T06:50:49Z</time>
      </trkpt>
      <trkpt lat="43.95472" lon="1.86988">
        <ele>276</ele>
        <time>2011-08-17T06:50:50Z</time>
      </trkpt>
      <trkpt lat="43.95473" lon="1.8699">
        <ele>276</ele>
        <time>2011-08-17T06:50:51Z</time>
      </trkpt>
      <trkpt lat="43.95475" lon="1.86992">
        <ele>276</ele>
        <time>2011-08-17T06:50:52Z</time>
      </trkpt>
      <trkpt lat="43.95476" lon="1.86994">
        <ele>276</ele>
        <time>2011-08-17T06:50:53Z</time>
      </trkpt>
      <trkpt lat="43.95478" lon="1.86996">
        <ele>276</ele>
        <time>2011-08-17T06:50:54Z</time>
      </trkpt>
      <trkpt lat="43.9548" lon="1.86999">
        <ele>276</ele>
        <time>2011-08-17T06:50:55Z</time>
      </trkpt>
      <trkpt lat="43.95481" lon="1.87001">
        <ele>276</ele>
        <time>2011-08-17T06:50:56Z</time>
      </trkpt>
      <trkpt lat="43.95483" lon="1.87003">
        <ele>276</ele>
        <time>2011-08-17T06:50:57Z</time>
      </trkpt>
      <trkpt lat="43.95484" lon="1.87005">
        <ele>276</ele>
        <time>2011-08-17T06:50:58Z</time>
      </trkpt>
      <trkpt lat="43.95486" lon="1.87008">
        <ele>276</ele>
        <time>2011-08-17T06:50:59Z</time>
      </trkpt>
      <trkpt lat="43.95487" lon="1.8701">
        <ele>276</ele>
        <time>2011-08-17T06:51:00Z</time>
      </trkpt>
      <trkpt lat="43.95489" lon="1.87013">
        <ele>276</ele>
        <time>2011-08-17T06:51:01Z</time>
      </trkpt>
      <trkpt lat="43.95491" lon="1.87015">
        <ele>276</ele>
        <time>2011-08-17T06:51:02Z</time>
      </trkpt>
      <trkpt lat="43.95492" lon="1.87017">
        <ele>276</ele>
        <time>2011-08-17T06:51:03Z</time>
      </trkpt>
      <trkpt lat="43.95494" lon="1.8702">
        <ele>276</ele>
        <time>2011-08-17T06:51:04Z</time>
      </trkpt>
      <trkpt lat="43.95495" lon="1.87022">
        <ele>276</ele>
        <time>2011-08-17T06:51:05Z</time>
      </trkpt>
      <trkpt lat="43.95496" lon="1.87024">
        <ele>276</ele>
        <time>2011-08-17T06:51:06Z</time>
      </trkpt>
      <trkpt lat="43.95498" lon="1.87027">
        <ele>276</ele>
        <time>2011-08-17T06:51:07Z</time>
      </trkpt>
      <trkpt lat="43.95499" lon="1.87029">
        <ele>276</ele>
        <time>2011-08-17T06:51:08Z</time>
      </trkpt>
      <trkpt lat="43.95501" lon="1.87031">
        <ele>276</ele>
        <time>2011-08-17T06:51:09Z</time>
      </trkpt>
      <trkpt lat="43.95502" lon="1.87033">
        <ele>276</ele>
        <time>2011-08-17T06:51:10Z</time>
      </trkpt>
      <trkpt lat="43.95503" lon="1.87035">
        <ele>276</ele>
        <time>2011-08-17T06:51:11Z</time>
      </trkpt>
      <trkpt lat="43.95505" lon="1.87037">
        <ele>276</ele>
        <time>2011-08-17T06:51:12Z</time>
      </trkpt>
      <trkpt lat="43.95506" lon="1.87039">
        <ele>276</ele>
        <time>2011-08-17T06:51:13Z</time>
      </trkpt>
      <trkpt lat="43.95508" lon="1.87041">
        <ele>276</ele>
        <time>2011-08-17T06:51:14Z</time>
      </trkpt>
      <trkpt lat="43.95509" lon="1.87043">
        <ele>276</ele>
        <time>2011-08-17T06:51:15Z</time>
      </trkpt>
      <trkpt lat="43.95511" lon="1.87045">
        <ele>276</ele>
        <time>2011-08-17T06:51:16Z</time>
      </trkpt>
      <trkpt lat="43.95512" lon="1.87048">
        <ele>276</ele>
        <time>2011-08-17T06:51:17Z</time>
      </trkpt>
      <trkpt lat="43.95514" lon="1.8705">
        <ele>276</ele>
        <time>2011-08-17T06:51:18Z</time>
      </trkpt>
      <trkpt lat="43.95515" lon="1.87052">
        <ele>276</ele>
        <time>2011-08-17T06:51:19Z</time>
      </trkpt>
      <trkpt lat="43.95517" lon="1.87054">
        <ele>276</ele>
        <time>2011-08-17T06:51:20Z</time>
      </trkpt>
      <trkpt lat="43.95518" lon="1.87057">
        <ele>276</ele>
        <time>2011-08-17T06:51:21Z</time>
      </trkpt>
      <trkpt lat="43.95519" lon="1.87059">
        <ele>276</ele>
        <time>2011-08-17T06:51:22Z</time>
      </trkpt>
      <trkpt lat="43.95521" lon="1.87062">
        <ele>276</ele>
        <time>2011-08-17T06:51:23Z</time>
      </trkpt>
      <trkpt lat="43.95522" lon="1.87064">
        <ele>276</ele>
        <time>2011-08-17T06:51:24Z</time>
      </trkpt>
      <trkpt lat="43.95523" lon="1.87066">
        <ele>276</ele>
        <time>2011-08-17T06:51:25Z</time>
      </trkpt>
      <trkpt lat="43.95525" lon="1.87068">
        <ele>276</ele>
        <time>2011-08-17T06:51:26Z</time>
      </trkpt>
      <trkpt lat="43.95527" lon="1.8707">
        <ele>276</ele>
        <time>2011-08-17T06:51:27Z</time>
      </trkpt>
      <trkpt lat="43.95528" lon="1.87072">
        <ele>276</ele>
        <time>2011-08-17T06:51:28Z</time>
      </trkpt>
      <trkpt lat="43.9553" lon="1.87074">
        <ele>276</ele>
        <time>2011-08-17T06:51:29Z</time>
      </trkpt>
      <trkpt lat="43.95531" lon="1.87076">
        <ele>276</ele>
        <time>2011-08-17T06:51:30Z</time>
      </trkpt>
      <trkpt lat="43.95533" lon="1.87078">
        <ele>276</ele>
        <time>2011-08-17T06:51:31Z</time>
      </trkpt>
      <trkpt lat="43.95534" lon="1.8708">
        <ele>276</ele>
        <time>2011-08-17T06:51:32Z</time>
      </trkpt>
      <trkpt lat="43.95535" lon="1.87082">
        <ele>276</ele>
        <time>2011-08-17T06:51:33Z</time>
      </trkpt>
      <trkpt lat="43.95537" lon="1.87084">
        <ele>276</ele>
        <time>2011-08-17T06:51:34Z</time>
      </trkpt>
      <trkpt lat="43.95538" lon="1.87086">
        <ele>276</ele>
        <time>2011-08-17T06:51:35Z</time>
      </trkpt>
      <trkpt lat="43.95539" lon="1.87089">
        <ele>276</ele>
        <time>2011-08-17T06:51:36Z</time>
      </trkpt>
      <trkpt lat="43.95541" lon="1.87091">
        <ele>276</ele>
        <time>2011-08-17T06:51:37Z</time>
      </trkpt>
      <trkpt lat="43.95542" lon="1.87093">
        <ele>276</ele>
        <time>2011-08-17T06:51:38Z</time>
      </trkpt>
      <trkpt lat="43.95544" lon="1.87095">
        <ele>276</ele>
        <time>2011-08-17T06:51:39Z</time>
      </trkpt>
      <trkpt lat="43.95545" lon="1.87098">
        <ele>276</ele>
        <time>2011-08-17T06:51:40Z</time>
      </trkpt>
      <trkpt lat="43.95547" lon="1.871">
        <ele>277</ele>
        <time>2011-08-17T06:51:41Z</time>
      </trkpt>
      <trkpt lat="43.95548" lon="1.87102">
        <ele>277</ele>
        <time>2011-08-17T06:51:42Z</time>
      </trkpt>
      <trkpt lat="43.95549" lon="1.87104">
        <ele>277</ele>
        <time>2011-08-17T06:51:43Z</time>
      </trkpt>
      <trkpt lat="43.95551" lon="1.87106">
        <ele>277</ele>
        <time>2011-08-17T06:51:44Z</time>
      </trkpt>
      <trkpt lat="43.95552" lon="1.87108">
        <ele>278</ele>
        <time>2011-08-17T06:51:45Z</time>
      </trkpt>
      <trkpt lat="43.95554" lon="1.8711">
        <ele>278</ele>
        <time>2011-08-17T06:51:46Z</time>
      </trkpt>
      <trkpt lat="43.95555" lon="1.87112">
        <ele>278</ele>
        <time>2011-08-17T06:51:47Z</time>
      </trkpt>
      <trkpt lat="43.95557" lon="1.87115">
        <ele>278</ele>
        <time>2011-08-17T06:51:48Z</time>
      </trkpt>
      <trkpt lat="43.95558" lon="1.87117">
        <ele>279</ele>
        <time>2011-08-17T06:51:49Z</time>
      </trkpt>
      <trkpt lat="43.95559" lon="1.87119">
        <ele>279</ele>
        <time>2011-08-17T06:51:50Z</time>
      </trkpt>
      <trkpt lat="43.95561" lon="1.87121">
        <ele>279</ele>
        <time>2011-08-17T06:51:51Z</time>
      </trkpt>
      <trkpt lat="43.95562" lon="1.87123">
        <ele>279</ele>
        <time>2011-08-17T06:51:52Z</time>
      </trkpt>
      <trkpt lat="43.95564" lon="1.87125">
        <ele>280</ele>
        <time>2011-08-17T06:51:53Z</time>
      </trkpt>
      <trkpt lat="43.95565" lon="1.87128">
        <ele>280</ele>
        <time>2011-08-17T06:51:54Z</time>
      </trkpt>
      <trkpt lat="43.95567" lon="1.8713">
        <ele>280</ele>
        <time>2011-08-17T06:51:55Z</time>
      </trkpt>
      <trkpt lat="43.95568" lon="1.87132">
        <ele>280</ele>
        <time>2011-08-17T06:51:56Z</time>
      </trkpt>
      <trkpt lat="43.9557" lon="1.87135">
        <ele>281</ele>
        <time>2011-08-17T06:51:57Z</time>
      </trkpt>
      <trkpt lat="43.95571" lon="1.87137">
        <ele>281</ele>
        <time>2011-08-17T06:51:58Z</time>
      </trkpt>
      <trkpt lat="43.95573" lon="1.87139">
        <ele>281</ele>
        <time>2011-08-17T06:51:59Z</time>
      </trkpt>
      <trkpt lat="43.95574" lon="1.87141">
        <ele>282</ele>
        <time>2011-08-17T06:52:00Z</time>
      </trkpt>
      <trkpt lat="43.95576" lon="1.87144">
        <ele>282</ele>
        <time>2011-08-17T06:52:01Z</time>
      </trkpt>
      <trkpt lat="43.95577" lon="1.87146">
        <ele>282</ele>
        <time>2011-08-17T06:52:02Z</time>
      </trkpt>
      <trkpt lat="43.95579" lon="1.87148">
        <ele>283</ele>
        <time>2011-08-17T06:52:03Z</time>
      </trkpt>
      <trkpt lat="43.9558" lon="1.87151">
        <ele>283</ele>
        <time>2011-08-17T06:52:04Z</time>
      </trkpt>
      <trkpt lat="43.95582" lon="1.87153">
        <ele>283</ele>
        <time>2011-08-17T06:52:05Z</time>
      </trkpt>
      <trkpt lat="43.95583" lon="1.87155">
        <ele>284</ele>
        <time>2011-08-17T06:52:06Z</time>
      </trkpt>
      <trkpt lat="43.95585" lon="1.87158">
        <ele>284</ele>
        <time>2011-08-17T06:52:07Z</time>
      </trkpt>
      <trkpt lat="43.95586" lon="1.8716">
        <ele>284</ele>
        <time>2011-08-17T06:52:08Z</time>
      </trkpt>
      <trkpt lat="43.95588" lon="1.87162">
        <ele>285</ele>
        <time>2011-08-17T06:52:09Z</time>
      </trkpt>
      <trkpt lat="43.9559" lon="1.87163">
        <ele>285</ele>
        <time>2011-08-17T06:52:10Z</time>
      </trkpt>
      <trkpt lat="43.95592" lon="1.87164">
        <ele>285</ele>
        <time>2011-08-17T06:52:11Z</time>
      </trkpt>
      <trkpt lat="43.95594" lon="1.87163">
        <ele>286</ele>
        <time>2011-08-17T06:52:12Z</time>
      </trkpt>
      <trkpt lat="43.95596" lon="1.87162">
        <ele>287</ele>
        <time>2011-08-17T06:52:13Z</time>
      </trkpt>
      <trkpt lat="43.95596" lon="1.8716">
        <ele>287</ele>
        <time>2011-08-17T06:52:14Z</time>
      </trkpt>
      <trkpt lat="43.95597" lon="1.87158">
        <ele>287</ele>
        <time>2011-08-17T06:52:15Z</time>
      </trkpt>
      <trkpt lat="43.95597" lon="1.87155">
        <ele>288</ele>
        <time>2011-08-17T06:52:16Z</time>
      </trkpt>
      <trkpt lat="43.95597" lon="1.87153">
        <ele>288</ele>
        <time>2011-08-17T06:52:17Z</time>
      </trkpt>
      <trkpt lat="43.95597" lon="1.8715">
        <ele>288</ele>
        <time>2011-08-17T06:52:18Z</time>
      </trkpt>
      <trkpt lat="43.95597" lon="1.87147">
        <ele>288</ele>
        <time>2011-08-17T06:52:19Z</time>
      </trkpt>
      <trkpt lat="43.95597" lon="1.87145">
        <ele>288</ele>
        <time>2011-08-17T06:52:20Z</time>
      </trkpt>
      <trkpt lat="43.95597" lon="1.87142">
        <ele>288</ele>
        <time>2011-08-17T06:52:21Z</time>
      </trkpt>
      <trkpt lat="43.95598" lon="1.8714">
        <ele>289</ele>
        <time>2011-08-17T06:52:22Z</time>
      </trkpt>
      <trkpt lat="43.95599" lon="1.87141">
        <ele>289</ele>
        <time>2011-08-17T06:52:23Z</time>
      </trkpt>
      <trkpt lat="43.95599" lon="1.87142">
        <ele>289</ele>
        <time>2011-08-17T06:52:27Z</time>
      </trkpt>
      <trkpt lat="43.956" lon="1.87144">
        <ele>289</ele>
        <time>2011-08-17T06:52:29Z</time>
      </trkpt>
      <trkpt lat="43.956" lon="1.87146">
        <ele>289</ele>
        <time>2011-08-17T06:52:31Z</time>
      </trkpt>
      <trkpt lat="43.95601" lon="1.87147">
        <ele>289</ele>
        <time>2011-08-17T06:52:34Z</time>
      </trkpt>
      <trkpt lat="43.95601" lon="1.8715">
        <ele>289</ele>
        <time>2011-08-17T06:52:38Z</time>
      </trkpt>
      <trkpt lat="43.95602" lon="1.87151">
        <ele>289</ele>
        <time>2011-08-17T06:52:40Z</time>
      </trkpt>
      <trkpt lat="43.95602" lon="1.87153">
        <ele>289</ele>
        <time>2011-08-17T06:52:42Z</time>
      </trkpt>
      <trkpt lat="43.95602" lon="1.87154">
        <ele>289</ele>
        <time>2011-08-17T06:52:44Z</time>
      </trkpt>
      <trkpt lat="43.95601" lon="1.87155">
        <ele>289</ele>
        <time>2011-08-17T06:52:48Z</time>
      </trkpt>
      <trkpt lat="43.956" lon="1.87156">
        <ele>289</ele>
        <time>2011-08-17T06:52:51Z</time>
      </trkpt>
      <trkpt lat="43.95599" lon="1.87158">
        <ele>289</ele>
        <time>2011-08-17T06:52:55Z</time>
      </trkpt>
      <trkpt lat="43.95597" lon="1.87158">
        <ele>289</ele>
        <time>2011-08-17T06:52:58Z</time>
      </trkpt>
      <trkpt lat="43.95599" lon="1.87159">
        <ele>289</ele>
        <time>2011-08-17T06:53:01Z</time>
      </trkpt>
      <trkpt lat="43.956" lon="1.87161">
        <ele>292</ele>
        <time>2011-08-17T06:53:04Z</time>
      </trkpt>
      <trkpt lat="43.95602" lon="1.87162">
        <ele>294</ele>
        <time>2011-08-17T06:53:06Z</time>
      </trkpt>
      <trkpt lat="43.95602" lon="1.87165">
        <ele>296</ele>
        <time>2011-08-17T06:53:08Z</time>
      </trkpt>
      <trkpt lat="43.95602" lon="1.87167">
        <ele>297</ele>
        <time>2011-08-17T06:53:09Z</time>
      </trkpt>
      <trkpt lat="43.95604" lon="1.87168">
        <ele>299</ele>
        <time>2011-08-17T06:53:12Z</time>
      </trkpt>
      <trkpt lat="43.95604" lon="1.8717">
        <ele>299</ele>
        <time>2011-08-17T06:53:14Z</time>
      </trkpt>
      <trkpt lat="43.95604" lon="1.87172">
        <ele>299</ele>
        <time>2011-08-17T06:53:16Z</time>
      </trkpt>
      <trkpt lat="43.95603" lon="1.87174">
        <ele>299</ele>
        <time>2011-08-17T06:53:17Z</time>
      </trkpt>
      <trkpt lat="43.95602" lon="1.87177">
        <ele>299</ele>
        <time>2011-08-17T06:53:19Z</time>
      </trkpt>
      <trkpt lat="43.95602" lon="1.87179">
        <ele>299</ele>
        <time>2011-08-17T06:53:21Z</time>
      </trkpt>
      <trkpt lat="43.95601" lon="1.87181">
        <ele>299</ele>
        <time>2011-08-17T06:53:22Z</time>
      </trkpt>
      <trkpt lat="43.95602" lon="1.87185">
        <ele>299</ele>
        <time>2011-08-17T06:53:24Z</time>
      </trkpt>
      <trkpt lat="43.95602" lon="1.87187">
        <ele>299</ele>
        <time>2011-08-17T06:53:25Z</time>
      </trkpt>
      <trkpt lat="43.95602" lon="1.8719">
        <ele>299</ele>
        <time>2011-08-17T06:53:26Z</time>
      </trkpt>
      <trkpt lat="43.95602" lon="1.87192">
        <ele>299</ele>
        <time>2011-08-17T06:53:27Z</time>
      </trkpt>
      <trkpt lat="43.95601" lon="1.87195">
        <ele>299</ele>
        <time>2011-08-17T06:53:28Z</time>
      </trkpt>
      <trkpt lat="43.95601" lon="1.87197">
        <ele>299</ele>
        <time>2011-08-17T06:53:29Z</time>
      </trkpt>
      <trkpt lat="43.95602" lon="1.87198">
        <ele>299</ele>
        <time>2011-08-17T06:53:31Z</time>
      </trkpt>
      <trkpt lat="43.95604" lon="1.87197">
        <ele>299</ele>
        <time>2011-08-17T06:53:33Z</time>
      </trkpt>
      <trkpt lat="43.95606" lon="1.87196">
        <ele>298</ele>
        <time>2011-08-17T06:53:35Z</time>
      </trkpt>
      <trkpt lat="43.95607" lon="1.87195">
        <ele>298</ele>
        <time>2011-08-17T06:53:36Z</time>
      </trkpt>
      <trkpt lat="43.95608" lon="1.87194">
        <ele>298</ele>
        <time>2011-08-17T06:53:37Z</time>
      </trkpt>
      <trkpt lat="43.9561" lon="1.87193">
        <ele>298</ele>
        <time>2011-08-17T06:53:38Z</time>
      </trkpt>
      <trkpt lat="43.95611" lon="1.87192">
        <ele>298</ele>
        <time>2011-08-17T06:53:39Z</time>
      </trkpt>
      <trkpt lat="43.95613" lon="1.8719">
        <ele>298</ele>
        <time>2011-08-17T06:53:41Z</time>
      </trkpt>
      <trkpt lat="43.95614" lon="1.8719">
        <ele>298</ele>
        <time>2011-08-17T06:53:42Z</time>
      </trkpt>
      <trkpt lat="43.95616" lon="1.87189">
        <ele>298</ele>
        <time>2011-08-17T06:53:43Z</time>
      </trkpt>
      <trkpt lat="43.95617" lon="1.87188">
        <ele>298</ele>
        <time>2011-08-17T06:53:44Z</time>
      </trkpt>
      <trkpt lat="43.95618" lon="1.87187">
        <ele>298</ele>
        <time>2011-08-17T06:53:45Z</time>
      </trkpt>
      <trkpt lat="43.9562" lon="1.87185">
        <ele>298</ele>
        <time>2011-08-17T06:53:46Z</time>
      </trkpt>
      <trkpt lat="43.95621" lon="1.87183">
        <ele>298</ele>
        <time>2011-08-17T06:53:47Z</time>
      </trkpt>
      <trkpt lat="43.95621" lon="1.87182">
        <ele>298</ele>
        <time>2011-08-17T06:53:48Z</time>
      </trkpt>
      <trkpt lat="43.95623" lon="1.8718">
        <ele>298</ele>
        <time>2011-08-17T06:53:49Z</time>
      </trkpt>
      <trkpt lat="43.95624" lon="1.87179">
        <ele>298</ele>
        <time>2011-08-17T06:53:50Z</time>
      </trkpt>
      <trkpt lat="43.95625" lon="1.87178">
        <ele>298</ele>
        <time>2011-08-17T06:53:51Z</time>
      </trkpt>
      <trkpt lat="43.95626" lon="1.87177">
        <ele>298</ele>
        <time>2011-08-17T06:53:52Z</time>
      </trkpt>
      <trkpt lat="43.95627" lon="1.87175">
        <ele>298</ele>
        <time>2011-08-17T06:53:53Z</time>
      </trkpt>
      <trkpt lat="43.95628" lon="1.87174">
        <ele>298</ele>
        <time>2011-08-17T06:53:54Z</time>
      </trkpt>
      <trkpt lat="43.95629" lon="1.87172">
        <ele>298</ele>
        <time>2011-08-17T06:53:55Z</time>
      </trkpt>
      <trkpt lat="43.9563" lon="1.8717">
        <ele>298</ele>
        <time>2011-08-17T06:53:56Z</time>
      </trkpt>
      <trkpt lat="43.95631" lon="1.87169">
        <ele>298</ele>
        <time>2011-08-17T06:53:57Z</time>
      </trkpt>
      <trkpt lat="43.95631" lon="1.87167">
        <ele>298</ele>
        <time>2011-08-17T06:53:59Z</time>
      </trkpt>
      <trkpt lat="43.95633" lon="1.87165">
        <ele>298</ele>
        <time>2011-08-17T06:54:03Z</time>
      </trkpt>
      <trkpt lat="43.95634" lon="1.87165">
        <ele>298</ele>
        <time>2011-08-17T06:54:04Z</time>
      </trkpt>
      <trkpt lat="43.95635" lon="1.87165">
        <ele>298</ele>
        <time>2011-08-17T06:54:05Z</time>
      </trkpt>
      <trkpt lat="43.95636" lon="1.87164">
        <ele>297</ele>
        <time>2011-08-17T06:54:06Z</time>
      </trkpt>
      <trkpt lat="43.95638" lon="1.87163">
        <ele>296</ele>
        <time>2011-08-17T06:54:07Z</time>
      </trkpt>
      <trkpt lat="43.95639" lon="1.87163">
        <ele>296</ele>
        <time>2011-08-17T06:54:08Z</time>
      </trkpt>
      <trkpt lat="43.9564" lon="1.87161">
        <ele>296</ele>
        <time>2011-08-17T06:54:10Z</time>
      </trkpt>
      <trkpt lat="43.95642" lon="1.87158">
        <ele>296</ele>
        <time>2011-08-17T06:54:12Z</time>
      </trkpt>
      <trkpt lat="43.95644" lon="1.87156">
        <ele>296</ele>
        <time>2011-08-17T06:54:13Z</time>
      </trkpt>
      <trkpt lat="43.95646" lon="1.87156">
        <ele>296</ele>
        <time>2011-08-17T06:54:14Z</time>
      </trkpt>
      <trkpt lat="43.95648" lon="1.87154">
        <ele>296</ele>
        <time>2011-08-17T06:54:15Z</time>
      </trkpt>
      <trkpt lat="43.9565" lon="1.87153">
        <ele>296</ele>
        <time>2011-08-17T06:54:16Z</time>
      </trkpt>
      <trkpt lat="43.95652" lon="1.87151">
        <ele>296</ele>
        <time>2011-08-17T06:54:17Z</time>
      </trkpt>
      <trkpt lat="43.95655" lon="1.8715">
        <ele>296</ele>
        <time>2011-08-17T06:54:18Z</time>
      </trkpt>
      <trkpt lat="43.95657" lon="1.87148">
        <ele>296</ele>
        <time>2011-08-17T06:54:19Z</time>
      </trkpt>
      <trkpt lat="43.95659" lon="1.87147">
        <ele>296</ele>
        <time>2011-08-17T06:54:20Z</time>
      </trkpt>
      <trkpt lat="43.95662" lon="1.87145">
        <ele>296</ele>
        <time>2011-08-17T06:54:21Z</time>
      </trkpt>
      <trkpt lat="43.95664" lon="1.87142">
        <ele>296</ele>
        <time>2011-08-17T06:54:22Z</time>
      </trkpt>
      <trkpt lat="43.95666" lon="1.8714">
        <ele>296</ele>
        <time>2011-08-17T06:54:23Z</time>
      </trkpt>
      <trkpt lat="43.95668" lon="1.87138">
        <ele>296</ele>
        <time>2011-08-17T06:54:24Z</time>
      </trkpt>
      <trkpt lat="43.95671" lon="1.87136">
        <ele>296</ele>
        <time>2011-08-17T06:54:25Z</time>
      </trkpt>
      <trkpt lat="43.95673" lon="1.87134">
        <ele>296</ele>
        <time>2011-08-17T06:54:26Z</time>
      </trkpt>
      <trkpt lat="43.95675" lon="1.87131">
        <ele>296</ele>
        <time>2011-08-17T06:54:27Z</time>
      </trkpt>
      <trkpt lat="43.95677" lon="1.87128">
        <ele>296</ele>
        <time>2011-08-17T06:54:28Z</time>
      </trkpt>
      <trkpt lat="43.95679" lon="1.87126">
        <ele>296</ele>
        <time>2011-08-17T06:54:29Z</time>
      </trkpt>
      <trkpt lat="43.95682" lon="1.87124">
        <ele>296</ele>
        <time>2011-08-17T06:54:30Z</time>
      </trkpt>
      <trkpt lat="43.95684" lon="1.87121">
        <ele>296</ele>
        <time>2011-08-17T06:54:31Z</time>
      </trkpt>
      <trkpt lat="43.95687" lon="1.87119">
        <ele>295</ele>
        <time>2011-08-17T06:54:32Z</time>
      </trkpt>
      <trkpt lat="43.9569" lon="1.87116">
        <ele>294</ele>
        <time>2011-08-17T06:54:33Z</time>
      </trkpt>
      <trkpt lat="43.95693" lon="1.87113">
        <ele>293</ele>
        <time>2011-08-17T06:54:34Z</time>
      </trkpt>
      <trkpt lat="43.95696" lon="1.8711">
        <ele>292</ele>
        <time>2011-08-17T06:54:35Z</time>
      </trkpt>
      <trkpt lat="43.95699" lon="1.87106">
        <ele>292</ele>
        <time>2011-08-17T06:54:36Z</time>
      </trkpt>
      <trkpt lat="43.95702" lon="1.87103">
        <ele>291</ele>
        <time>2011-08-17T06:54:37Z</time>
      </trkpt>
      <trkpt lat="43.95706" lon="1.871">
        <ele>291</ele>
        <time>2011-08-17T06:54:38Z</time>
      </trkpt>
      <trkpt lat="43.9571" lon="1.87097">
        <ele>290</ele>
        <time>2011-08-17T06:54:39Z</time>
      </trkpt>
      <trkpt lat="43.95713" lon="1.87094">
        <ele>290</ele>
        <time>2011-08-17T06:54:40Z</time>
      </trkpt>
      <trkpt lat="43.95716" lon="1.87092">
        <ele>289</ele>
        <time>2011-08-17T06:54:41Z</time>
      </trkpt>
      <trkpt lat="43.9572" lon="1.87089">
        <ele>288</ele>
        <time>2011-08-17T06:54:42Z</time>
      </trkpt>
      <trkpt lat="43.95722" lon="1.87086">
        <ele>287</ele>
        <time>2011-08-17T06:54:43Z</time>
      </trkpt>
      <trkpt lat="43.95724" lon="1.87083">
        <ele>286</ele>
        <time>2011-08-17T06:54:44Z</time>
      </trkpt>
      <trkpt lat="43.95726" lon="1.87081">
        <ele>285</ele>
        <time>2011-08-17T06:54:45Z</time>
      </trkpt>
      <trkpt lat="43.95728" lon="1.87079">
        <ele>284</ele>
        <time>2011-08-17T06:54:46Z</time>
      </trkpt>
      <trkpt lat="43.95729" lon="1.87076">
        <ele>284</ele>
        <time>2011-08-17T06:54:47Z</time>
      </trkpt>
      <trkpt lat="43.95731" lon="1.87074">
        <ele>283</ele>
        <time>2011-08-17T06:54:48Z</time>
      </trkpt>
      <trkpt lat="43.95733" lon="1.87072">
        <ele>282</ele>
        <time>2011-08-17T06:54:49Z</time>
      </trkpt>
      <trkpt lat="43.95735" lon="1.87071">
        <ele>281</ele>
        <time>2011-08-17T06:54:50Z</time>
      </trkpt>
      <trkpt lat="43.95737" lon="1.87071">
        <ele>281</ele>
        <time>2011-08-17T06:54:51Z</time>
      </trkpt>
      <trkpt lat="43.95739" lon="1.87073">
        <ele>280</ele>
        <time>2011-08-17T06:54:52Z</time>
      </trkpt>
      <trkpt lat="43.95741" lon="1.87075">
        <ele>280</ele>
        <time>2011-08-17T06:54:53Z</time>
      </trkpt>
      <trkpt lat="43.95742" lon="1.87077">
        <ele>279</ele>
        <time>2011-08-17T06:54:54Z</time>
      </trkpt>
      <trkpt lat="43.95742" lon="1.87081">
        <ele>279</ele>
        <time>2011-08-17T06:54:55Z</time>
      </trkpt>
      <trkpt lat="43.95742" lon="1.87084">
        <ele>279</ele>
        <time>2011-08-17T06:54:56Z</time>
      </trkpt>
      <trkpt lat="43.95741" lon="1.87088">
        <ele>279</ele>
        <time>2011-08-17T06:54:57Z</time>
      </trkpt>
      <trkpt lat="43.9574" lon="1.87092">
        <ele>279</ele>
        <time>2011-08-17T06:54:58Z</time>
      </trkpt>
      <trkpt lat="43.95739" lon="1.87095">
        <ele>279</ele>
        <time>2011-08-17T06:54:59Z</time>
      </trkpt>
      <trkpt lat="43.95738" lon="1.87099">
        <ele>279</ele>
        <time>2011-08-17T06:55:00Z</time>
      </trkpt>
      <trkpt lat="43.95737" lon="1.87103">
        <ele>279</ele>
        <time>2011-08-17T06:55:01Z</time>
      </trkpt>
      <trkpt lat="43.95736" lon="1.87107">
        <ele>279</ele>
        <time>2011-08-17T06:55:02Z</time>
      </trkpt>
      <trkpt lat="43.95734" lon="1.87111">
        <ele>279</ele>
        <time>2011-08-17T06:55:03Z</time>
      </trkpt>
      <trkpt lat="43.95734" lon="1.87116">
        <ele>279</ele>
        <time>2011-08-17T06:55:04Z</time>
      </trkpt>
      <trkpt lat="43.95733" lon="1.8712">
        <ele>279</ele>
        <time>2011-08-17T06:55:05Z</time>
      </trkpt>
      <trkpt lat="43.95733" lon="1.87124">
        <ele>279</ele>
        <time>2011-08-17T06:55:06Z</time>
      </trkpt>
      <trkpt lat="43.95734" lon="1.87127">
        <ele>279</ele>
        <time>2011-08-17T06:55:07Z</time>
      </trkpt>
      <trkpt lat="43.95734" lon="1.8713">
        <ele>279</ele>
        <time>2011-08-17T06:55:08Z</time>
      </trkpt>
      <trkpt lat="43.95736" lon="1.87132">
        <ele>279</ele>
        <time>2011-08-17T06:55:09Z</time>
      </trkpt>
      <trkpt lat="43.95738" lon="1.87134">
        <ele>279</ele>
        <time>2011-08-17T06:55:10Z</time>
      </trkpt>
      <trkpt lat="43.9574" lon="1.87136">
        <ele>279</ele>
        <time>2011-08-17T06:55:11Z</time>
      </trkpt>
      <trkpt lat="43.95743" lon="1.87137">
        <ele>279</ele>
        <time>2011-08-17T06:55:12Z</time>
      </trkpt>
      <trkpt lat="43.95745" lon="1.87137">
        <ele>279</ele>
        <time>2011-08-17T06:55:13Z</time>
      </trkpt>
      <trkpt lat="43.95748" lon="1.87137">
        <ele>279</ele>
        <time>2011-08-17T06:55:14Z</time>
      </trkpt>
      <trkpt lat="43.95751" lon="1.87137">
        <ele>279</ele>
        <time>2011-08-17T06:55:15Z</time>
      </trkpt>
      <trkpt lat="43.95754" lon="1.87136">
        <ele>279</ele>
        <time>2011-08-17T06:55:16Z</time>
      </trkpt>
      <trkpt lat="43.95757" lon="1.87134">
        <ele>279</ele>
        <time>2011-08-17T06:55:17Z</time>
      </trkpt>
      <trkpt lat="43.9576" lon="1.87134">
        <ele>279</ele>
        <time>2011-08-17T06:55:18Z</time>
      </trkpt>
      <trkpt lat="43.95763" lon="1.87133">
        <ele>279</ele>
        <time>2011-08-17T06:55:19Z</time>
      </trkpt>
      <trkpt lat="43.95766" lon="1.87131">
        <ele>279</ele>
        <time>2011-08-17T06:55:20Z</time>
      </trkpt>
      <trkpt lat="43.95769" lon="1.8713">
        <ele>280</ele>
        <time>2011-08-17T06:55:21Z</time>
      </trkpt>
      <trkpt lat="43.95772" lon="1.87128">
        <ele>280</ele>
        <time>2011-08-17T06:55:22Z</time>
      </trkpt>
      <trkpt lat="43.95775" lon="1.87127">
        <ele>280</ele>
        <time>2011-08-17T06:55:23Z</time>
      </trkpt>
      <trkpt lat="43.95778" lon="1.87127">
        <ele>280</ele>
        <time>2011-08-17T06:55:24Z</time>
      </trkpt>
      <trkpt lat="43.95781" lon="1.87127">
        <ele>280</ele>
        <time>2011-08-17T06:55:25Z</time>
      </trkpt>
      <trkpt lat="43.95784" lon="1.87127">
        <ele>280</ele>
        <time>2011-08-17T06:55:26Z</time>
      </trkpt>
      <trkpt lat="43.95787" lon="1.87127">
        <ele>280</ele>
        <time>2011-08-17T06:55:27Z</time>
      </trkpt>
      <trkpt lat="43.9579" lon="1.87128">
        <ele>280</ele>
        <time>2011-08-17T06:55:28Z</time>
      </trkpt>
      <trkpt lat="43.95794" lon="1.87128">
        <ele>280</ele>
        <time>2011-08-17T06:55:29Z</time>
      </trkpt>
      <trkpt lat="43.95797" lon="1.87129">
        <ele>280</ele>
        <time>2011-08-17T06:55:30Z</time>
      </trkpt>
      <trkpt lat="43.95801" lon="1.87129">
        <ele>280</ele>
        <time>2011-08-17T06:55:31Z</time>
      </trkpt>
      <trkpt lat="43.95805" lon="1.8713">
        <ele>280</ele>
        <time>2011-08-17T06:55:32Z</time>
      </trkpt>
      <trkpt lat="43.95808" lon="1.87131">
        <ele>280</ele>
        <time>2011-08-17T06:55:33Z</time>
      </trkpt>
      <trkpt lat="43.95812" lon="1.87132">
        <ele>280</ele>
        <time>2011-08-17T06:55:34Z</time>
      </trkpt>
      <trkpt lat="43.95816" lon="1.87134">
        <ele>280</ele>
        <time>2011-08-17T06:55:35Z</time>
      </trkpt>
      <trkpt lat="43.9582" lon="1.87136">
        <ele>280</ele>
        <time>2011-08-17T06:55:36Z</time>
      </trkpt>
      <trkpt lat="43.95824" lon="1.87137">
        <ele>280</ele>
        <time>2011-08-17T06:55:37Z</time>
      </trkpt>
      <trkpt lat="43.95828" lon="1.87139">
        <ele>280</ele>
        <time>2011-08-17T06:55:38Z</time>
      </trkpt>
      <trkpt lat="43.95832" lon="1.8714">
        <ele>280</ele>
        <time>2011-08-17T06:55:39Z</time>
      </trkpt>
      <trkpt lat="43.95836" lon="1.87142">
        <ele>280</ele>
        <time>2011-08-17T06:55:40Z</time>
      </trkpt>
      <trkpt lat="43.9584" lon="1.87144">
        <ele>280</ele>
        <time>2011-08-17T06:55:41Z</time>
      </trkpt>
      <trkpt lat="43.95845" lon="1.87146">
        <ele>280</ele>
        <time>2011-08-17T06:55:42Z</time>
      </trkpt>
      <trkpt lat="43.95849" lon="1.87149">
        <ele>280</ele>
        <time>2011-08-17T06:55:43Z</time>
      </trkpt>
      <trkpt lat="43.95854" lon="1.87151">
        <ele>280</ele>
        <time>2011-08-17T06:55:44Z</time>
      </trkpt>
      <trkpt lat="43.95858" lon="1.87153">
        <ele>280</ele>
        <time>2011-08-17T06:55:45Z</time>
      </trkpt>
      <trkpt lat="43.95863" lon="1.87156">
        <ele>280</ele>
        <time>2011-08-17T06:55:46Z</time>
      </trkpt>
      <trkpt lat="43.95868" lon="1.87158">
        <ele>280</ele>
        <time>2011-08-17T06:55:47Z</time>
      </trkpt>
      <trkpt lat="43.95872" lon="1.87161">
        <ele>280</ele>
        <time>2011-08-17T06:55:48Z</time>
      </trkpt>
      <trkpt lat="43.95877" lon="1.87164">
        <ele>280</ele>
        <time>2011-08-17T06:55:49Z</time>
      </trkpt>
      <trkpt lat="43.95882" lon="1.87168">
        <ele>280</ele>
        <time>2011-08-17T06:55:50Z</time>
      </trkpt>
      <trkpt lat="43.95887" lon="1.87171">
        <ele>280</ele>
        <time>2011-08-17T06:55:51Z</time>
      </trkpt>
      <trkpt lat="43.95892" lon="1.87175">
        <ele>280</ele>
        <time>2011-08-17T06:55:52Z</time>
      </trkpt>
      <trkpt lat="43.95896" lon="1.87179">
        <ele>280</ele>
        <time>2011-08-17T06:55:53Z</time>
      </trkpt>
      <trkpt lat="43.959" lon="1.87183">
        <ele>280</ele>
        <time>2011-08-17T06:55:54Z</time>
      </trkpt>
      <trkpt lat="43.95904" lon="1.87188">
        <ele>280</ele>
        <time>2011-08-17T06:55:55Z</time>
      </trkpt>
      <trkpt lat="43.95908" lon="1.87193">
        <ele>280</ele>
        <time>2011-08-17T06:55:56Z</time>
      </trkpt>
      <trkpt lat="43.95911" lon="1.87198">
        <ele>280</ele>
        <time>2011-08-17T06:55:57Z</time>
      </trkpt>
      <trkpt lat="43.95914" lon="1.87204">
        <ele>280</ele>
        <time>2011-08-17T06:55:58Z</time>
      </trkpt>
      <trkpt lat="43.95918" lon="1.8721">
        <ele>280</ele>
        <time>2011-08-17T06:55:59Z</time>
      </trkpt>
      <trkpt lat="43.95921" lon="1.87216">
        <ele>280</ele>
        <time>2011-08-17T06:56:00Z</time>
      </trkpt>
      <trkpt lat="43.95924" lon="1.87223">
        <ele>280</ele>
        <time>2011-08-17T06:56:01Z</time>
      </trkpt>
      <trkpt lat="43.95926" lon="1.87229">
        <ele>280</ele>
        <time>2011-08-17T06:56:02Z</time>
      </trkpt>
      <trkpt lat="43.95928" lon="1.87236">
        <ele>280</ele>
        <time>2011-08-17T06:56:03Z</time>
      </trkpt>
      <trkpt lat="43.9593" lon="1.87242">
        <ele>280</ele>
        <time>2011-08-17T06:56:04Z</time>
      </trkpt>
      <trkpt lat="43.95932" lon="1.87248">
        <ele>280</ele>
        <time>2011-08-17T06:56:05Z</time>
      </trkpt>
      <trkpt lat="43.95933" lon="1.87254">
        <ele>280</ele>
        <time>2011-08-17T06:56:06Z</time>
      </trkpt>
      <trkpt lat="43.95934" lon="1.8726">
        <ele>280</ele>
        <time>2011-08-17T06:56:07Z</time>
      </trkpt>
      <trkpt lat="43.95935" lon="1.87266">
        <ele>280</ele>
        <time>2011-08-17T06:56:08Z</time>
      </trkpt>
      <trkpt lat="43.95936" lon="1.87272">
        <ele>280</ele>
        <time>2011-08-17T06:56:09Z</time>
      </trkpt>
      <trkpt lat="43.95937" lon="1.87278">
        <ele>280</ele>
        <time>2011-08-17T06:56:10Z</time>
      </trkpt>
      <trkpt lat="43.95938" lon="1.87284">
        <ele>280</ele>
        <time>2011-08-17T06:56:11Z</time>
      </trkpt>
      <trkpt lat="43.9594" lon="1.8729">
        <ele>280</ele>
        <time>2011-08-17T06:56:12Z</time>
      </trkpt>
      <trkpt lat="43.95941" lon="1.87296">
        <ele>280</ele>
        <time>2011-08-17T06:56:13Z</time>
      </trkpt>
      <trkpt lat="43.95942" lon="1.87302">
        <ele>280</ele>
        <time>2011-08-17T06:56:14Z</time>
      </trkpt>
      <trkpt lat="43.95943" lon="1.87308">
        <ele>280</ele>
        <time>2011-08-17T06:56:15Z</time>
      </trkpt>
      <trkpt lat="43.95945" lon="1.87314">
        <ele>280</ele>
        <time>2011-08-17T06:56:16Z</time>
      </trkpt>
      <trkpt lat="43.95947" lon="1.87319">
        <ele>280</ele>
        <time>2011-08-17T06:56:17Z</time>
      </trkpt>
      <trkpt lat="43.95948" lon="1.87325">
        <ele>280</ele>
        <time>2011-08-17T06:56:18Z</time>
      </trkpt>
      <trkpt lat="43.95949" lon="1.87331">
        <ele>280</ele>
        <time>2011-08-17T06:56:19Z</time>
      </trkpt>
      <trkpt lat="43.9595" lon="1.87337">
        <ele>280</ele>
        <time>2011-08-17T06:56:20Z</time>
      </trkpt>
      <trkpt lat="43.95951" lon="1.87343">
        <ele>280</ele>
        <time>2011-08-17T06:56:21Z</time>
      </trkpt>
      <trkpt lat="43.95953" lon="1.87348">
        <ele>280</ele>
        <time>2011-08-17T06:56:22Z</time>
      </trkpt>
      <trkpt lat="43.95954" lon="1.87353">
        <ele>280</ele>
        <time>2011-08-17T06:56:23Z</time>
      </trkpt>
      <trkpt lat="43.95956" lon="1.87358">
        <ele>280</ele>
        <time>2011-08-17T06:56:24Z</time>
      </trkpt>
      <trkpt lat="43.95958" lon="1.87364">
        <ele>280</ele>
        <time>2011-08-17T06:56:25Z</time>
      </trkpt>
      <trkpt lat="43.95959" lon="1.8737">
        <ele>280</ele>
        <time>2011-08-17T06:56:26Z</time>
      </trkpt>
      <trkpt lat="43.9596" lon="1.87375">
        <ele>280</ele>
        <time>2011-08-17T06:56:27Z</time>
      </trkpt>
      <trkpt lat="43.95961" lon="1.87381">
        <ele>280</ele>
        <time>2011-08-17T06:56:28Z</time>
      </trkpt>
      <trkpt lat="43.95962" lon="1.87387">
        <ele>280</ele>
        <time>2011-08-17T06:56:29Z</time>
      </trkpt>
      <trkpt lat="43.95963" lon="1.87392">
        <ele>280</ele>
        <time>2011-08-17T06:56:30Z</time>
      </trkpt>
      <trkpt lat="43.95964" lon="1.87398">
        <ele>280</ele>
        <time>2011-08-17T06:56:31Z</time>
      </trkpt>
      <trkpt lat="43.95965" lon="1.87403">
        <ele>280</ele>
        <time>2011-08-17T06:56:32Z</time>
      </trkpt>
      <trkpt lat="43.95966" lon="1.87408">
        <ele>280</ele>
        <time>2011-08-17T06:56:33Z</time>
      </trkpt>
      <trkpt lat="43.95968" lon="1.87414">
        <ele>280</ele>
        <time>2011-08-17T06:56:34Z</time>
      </trkpt>
      <trkpt lat="43.95969" lon="1.87419">
        <ele>280</ele>
        <time>2011-08-17T06:56:35Z</time>
      </trkpt>
      <trkpt lat="43.9597" lon="1.87425">
        <ele>280</ele>
        <time>2011-08-17T06:56:36Z</time>
      </trkpt>
      <trkpt lat="43.95972" lon="1.8743">
        <ele>280</ele>
        <time>2011-08-17T06:56:37Z</time>
      </trkpt>
      <trkpt lat="43.95973" lon="1.87435">
        <ele>280</ele>
        <time>2011-08-17T06:56:38Z</time>
      </trkpt>
      <trkpt lat="43.95974" lon="1.87441">
        <ele>280</ele>
        <time>2011-08-17T06:56:39Z</time>
      </trkpt>
      <trkpt lat="43.95975" lon="1.87447">
        <ele>280</ele>
        <time>2011-08-17T06:56:40Z</time>
      </trkpt>
      <trkpt lat="43.95976" lon="1.87452">
        <ele>280</ele>
        <time>2011-08-17T06:56:41Z</time>
      </trkpt>
      <trkpt lat="43.95977" lon="1.87458">
        <ele>280</ele>
        <time>2011-08-17T06:56:42Z</time>
      </trkpt>
      <trkpt lat="43.95977" lon="1.87464">
        <ele>280</ele>
        <time>2011-08-17T06:56:43Z</time>
      </trkpt>
      <trkpt lat="43.95977" lon="1.8747">
        <ele>280</ele>
        <time>2011-08-17T06:56:44Z</time>
      </trkpt>
      <trkpt lat="43.95978" lon="1.87477">
        <ele>280</ele>
        <time>2011-08-17T06:56:45Z</time>
      </trkpt>
      <trkpt lat="43.95979" lon="1.87483">
        <ele>280</ele>
        <time>2011-08-17T06:56:46Z</time>
      </trkpt>
      <trkpt lat="43.9598" lon="1.8749">
        <ele>280</ele>
        <time>2011-08-17T06:56:47Z</time>
      </trkpt>
      <trkpt lat="43.9598" lon="1.87496">
        <ele>280</ele>
        <time>2011-08-17T06:56:48Z</time>
      </trkpt>
      <trkpt lat="43.9598" lon="1.87503">
        <ele>280</ele>
        <time>2011-08-17T06:56:49Z</time>
      </trkpt>
      <trkpt lat="43.95981" lon="1.8751">
        <ele>280</ele>
        <time>2011-08-17T06:56:50Z</time>
      </trkpt>
      <trkpt lat="43.95981" lon="1.87517">
        <ele>280</ele>
        <time>2011-08-17T06:56:51Z</time>
      </trkpt>
      <trkpt lat="43.95982" lon="1.87524">
        <ele>280</ele>
        <time>2011-08-17T06:56:52Z</time>
      </trkpt>
      <trkpt lat="43.95982" lon="1.87531">
        <ele>280</ele>
        <time>2011-08-17T06:56:53Z</time>
      </trkpt>
      <trkpt lat="43.95982" lon="1.87538">
        <ele>280</ele>
        <time>2011-08-17T06:56:54Z</time>
      </trkpt>
      <trkpt lat="43.95983" lon="1.87545">
        <ele>281</ele>
        <time>2011-08-17T06:56:55Z</time>
      </trkpt>
      <trkpt lat="43.95984" lon="1.87552">
        <ele>281</ele>
        <time>2011-08-17T06:56:56Z</time>
      </trkpt>
      <trkpt lat="43.95984" lon="1.87559">
        <ele>281</ele>
        <time>2011-08-17T06:56:57Z</time>
      </trkpt>
      <trkpt lat="43.95985" lon="1.87566">
        <ele>282</ele>
        <time>2011-08-17T06:56:58Z</time>
      </trkpt>
      <trkpt lat="43.95986" lon="1.87573">
        <ele>282</ele>
        <time>2011-08-17T06:56:59Z</time>
      </trkpt>
      <trkpt lat="43.95986" lon="1.8758">
        <ele>282</ele>
        <time>2011-08-17T06:57:00Z</time>
      </trkpt>
      <trkpt lat="43.95987" lon="1.87587">
        <ele>283</ele>
        <time>2011-08-17T06:57:01Z</time>
      </trkpt>
      <trkpt lat="43.95987" lon="1.87594">
        <ele>283</ele>
        <time>2011-08-17T06:57:02Z</time>
      </trkpt>
      <trkpt lat="43.95988" lon="1.876">
        <ele>283</ele>
        <time>2011-08-17T06:57:03Z</time>
      </trkpt>
      <trkpt lat="43.95988" lon="1.87606">
        <ele>284</ele>
        <time>2011-08-17T06:57:04Z</time>
      </trkpt>
      <trkpt lat="43.95989" lon="1.87612">
        <ele>284</ele>
        <time>2011-08-17T06:57:05Z</time>
      </trkpt>
      <trkpt lat="43.95989" lon="1.87619">
        <ele>284</ele>
        <time>2011-08-17T06:57:06Z</time>
      </trkpt>
      <trkpt lat="43.9599" lon="1.87626">
        <ele>284</ele>
        <time>2011-08-17T06:57:07Z</time>
      </trkpt>
      <trkpt lat="43.9599" lon="1.87632">
        <ele>284</ele>
        <time>2011-08-17T06:57:08Z</time>
      </trkpt>
      <trkpt lat="43.95991" lon="1.87638">
        <ele>284</ele>
        <time>2011-08-17T06:57:09Z</time>
      </trkpt>
      <trkpt lat="43.95992" lon="1.87645">
        <ele>284</ele>
        <time>2011-08-17T06:57:10Z</time>
      </trkpt>
      <trkpt lat="43.95993" lon="1.87651">
        <ele>284</ele>
        <time>2011-08-17T06:57:11Z</time>
      </trkpt>
      <trkpt lat="43.95993" lon="1.87657">
        <ele>284</ele>
        <time>2011-08-17T06:57:12Z</time>
      </trkpt>
      <trkpt lat="43.95993" lon="1.87664">
        <ele>284</ele>
        <time>2011-08-17T06:57:13Z</time>
      </trkpt>
      <trkpt lat="43.95994" lon="1.8767">
        <ele>284</ele>
        <time>2011-08-17T06:57:14Z</time>
      </trkpt>
      <trkpt lat="43.95994" lon="1.87676">
        <ele>285</ele>
        <time>2011-08-17T06:57:15Z</time>
      </trkpt>
      <trkpt lat="43.95995" lon="1.87682">
        <ele>285</ele>
        <time>2011-08-17T06:57:16Z</time>
      </trkpt>
      <trkpt lat="43.95996" lon="1.87688">
        <ele>285</ele>
        <time>2011-08-17T06:57:17Z</time>
      </trkpt>
      <trkpt lat="43.95996" lon="1.87695">
        <ele>286</ele>
        <time>2011-08-17T06:57:18Z</time>
      </trkpt>
      <trkpt lat="43.95996" lon="1.87702">
        <ele>286</ele>
        <time>2011-08-17T06:57:19Z</time>
      </trkpt>
      <trkpt lat="43.95997" lon="1.87708">
        <ele>287</ele>
        <time>2011-08-17T06:57:20Z</time>
      </trkpt>
      <trkpt lat="43.95997" lon="1.87715">
        <ele>287</ele>
        <time>2011-08-17T06:57:21Z</time>
      </trkpt>
      <trkpt lat="43.95998" lon="1.87722">
        <ele>287</ele>
        <time>2011-08-17T06:57:22Z</time>
      </trkpt>
      <trkpt lat="43.95999" lon="1.87729">
        <ele>288</ele>
        <time>2011-08-17T06:57:23Z</time>
      </trkpt>
      <trkpt lat="43.95999" lon="1.87736">
        <ele>288</ele>
        <time>2011-08-17T06:57:24Z</time>
      </trkpt>
      <trkpt lat="43.96" lon="1.87744">
        <ele>288</ele>
        <time>2011-08-17T06:57:25Z</time>
      </trkpt>
      <trkpt lat="43.96" lon="1.87752">
        <ele>288</ele>
        <time>2011-08-17T06:57:26Z</time>
      </trkpt>
      <trkpt lat="43.96" lon="1.8776">
        <ele>288</ele>
        <time>2011-08-17T06:57:27Z</time>
      </trkpt>
      <trkpt lat="43.96001" lon="1.87768">
        <ele>288</ele>
        <time>2011-08-17T06:57:28Z</time>
      </trkpt>
      <trkpt lat="43.96001" lon="1.87776">
        <ele>288</ele>
        <time>2011-08-17T06:57:29Z</time>
      </trkpt>
      <trkpt lat="43.96002" lon="1.87784">
        <ele>288</ele>
        <time>2011-08-17T06:57:30Z</time>
      </trkpt>
      <trkpt lat="43.96003" lon="1.87793">
        <ele>288</ele>
        <time>2011-08-17T06:57:31Z</time>
      </trkpt>
      <trkpt lat="43.96003" lon="1.87803">
        <ele>288</ele>
        <time>2011-08-17T06:57:32Z</time>
      </trkpt>
      <trkpt lat="43.96004" lon="1.87812">
        <ele>288</ele>
        <time>2011-08-17T06:57:33Z</time>
      </trkpt>
      <trkpt lat="43.96004" lon="1.87821">
        <ele>288</ele>
        <time>2011-08-17T06:57:34Z</time>
      </trkpt>
      <trkpt lat="43.96004" lon="1.8783">
        <ele>288</ele>
        <time>2011-08-17T06:57:35Z</time>
      </trkpt>
      <trkpt lat="43.96004" lon="1.8784">
        <ele>288</ele>
        <time>2011-08-17T06:57:36Z</time>
      </trkpt>
      <trkpt lat="43.96003" lon="1.87851">
        <ele>288</ele>
        <time>2011-08-17T06:57:37Z</time>
      </trkpt>
      <trkpt lat="43.96003" lon="1.87863">
        <ele>288</ele>
        <time>2011-08-17T06:57:38Z</time>
      </trkpt>
      <trkpt lat="43.96003" lon="1.87874">
        <ele>288</ele>
        <time>2011-08-17T06:57:39Z</time>
      </trkpt>
      <trkpt lat="43.96002" lon="1.87887">
        <ele>288</ele>
        <time>2011-08-17T06:57:40Z</time>
      </trkpt>
      <trkpt lat="43.96001" lon="1.879">
        <ele>288</ele>
        <time>2011-08-17T06:57:41Z</time>
      </trkpt>
      <trkpt lat="43.95999" lon="1.87913">
        <ele>287</ele>
        <time>2011-08-17T06:57:42Z</time>
      </trkpt>
      <trkpt lat="43.95998" lon="1.87927">
        <ele>286</ele>
        <time>2011-08-17T06:57:43Z</time>
      </trkpt>
      <trkpt lat="43.95996" lon="1.87941">
        <ele>285</ele>
        <time>2011-08-17T06:57:43Z</time>
      </trkpt>
      <trkpt lat="43.95995" lon="1.87955">
        <ele>284</ele>
        <time>2011-08-17T06:57:44Z</time>
      </trkpt>
      <trkpt lat="43.95993" lon="1.8797">
        <ele>283</ele>
        <time>2011-08-17T06:57:46Z</time>
      </trkpt>
      <trkpt lat="43.95992" lon="1.87985">
        <ele>282</ele>
        <time>2011-08-17T06:57:46Z</time>
      </trkpt>
      <trkpt lat="43.9599" lon="1.88001">
        <ele>281</ele>
        <time>2011-08-17T06:57:47Z</time>
      </trkpt>
      <trkpt lat="43.95988" lon="1.88016">
        <ele>280</ele>
        <time>2011-08-17T06:57:48Z</time>
      </trkpt>
      <trkpt lat="43.95988" lon="1.88032">
        <ele>279</ele>
        <time>2011-08-17T06:57:50Z</time>
      </trkpt>
      <trkpt lat="43.95987" lon="1.88048">
        <ele>278</ele>
        <time>2011-08-17T06:57:51Z</time>
      </trkpt>
      <trkpt lat="43.95987" lon="1.88064">
        <ele>277</ele>
        <time>2011-08-17T06:57:51Z</time>
      </trkpt>
      <trkpt lat="43.95986" lon="1.88081">
        <ele>276</ele>
        <time>2011-08-17T06:57:52Z</time>
      </trkpt>
      <trkpt lat="43.95985" lon="1.88098">
        <ele>275</ele>
        <time>2011-08-17T06:57:53Z</time>
      </trkpt>
      <trkpt lat="43.95985" lon="1.88114">
        <ele>274</ele>
        <time>2011-08-17T06:57:54Z</time>
      </trkpt>
      <trkpt lat="43.95985" lon="1.88131">
        <ele>273</ele>
        <time>2011-08-17T06:57:56Z</time>
      </trkpt>
      <trkpt lat="43.95986" lon="1.88148">
        <ele>272</ele>
        <time>2011-08-17T06:57:57Z</time>
      </trkpt>
      <trkpt lat="43.95987" lon="1.88166">
        <ele>270</ele>
        <time>2011-08-17T06:57:57Z</time>
      </trkpt>
      <trkpt lat="43.95987" lon="1.88184">
        <ele>269</ele>
        <time>2011-08-17T06:57:58Z</time>
      </trkpt>
      <trkpt lat="43.95989" lon="1.88202">
        <ele>268</ele>
        <time>2011-08-17T06:57:59Z</time>
      </trkpt>
      <trkpt lat="43.9599" lon="1.88219">
        <ele>266</ele>
        <time>2011-08-17T06:58:01Z</time>
      </trkpt>
      <trkpt lat="43.95992" lon="1.88237">
        <ele>265</ele>
        <time>2011-08-17T06:58:02Z</time>
      </trkpt>
      <trkpt lat="43.95994" lon="1.88254">
        <ele>264</ele>
        <time>2011-08-17T06:58:02Z</time>
      </trkpt>
      <trkpt lat="43.95996" lon="1.8827">
        <ele>263</ele>
        <time>2011-08-17T06:58:03Z</time>
      </trkpt>
      <trkpt lat="43.95998" lon="1.88286">
        <ele>262</ele>
        <time>2011-08-17T06:58:04Z</time>
      </trkpt>
      <trkpt lat="43.96" lon="1.88301">
        <ele>261</ele>
        <time>2011-08-17T06:58:06Z</time>
      </trkpt>
      <trkpt lat="43.96002" lon="1.88315">
        <ele>260</ele>
        <time>2011-08-17T06:58:06Z</time>
      </trkpt>
      <trkpt lat="43.96004" lon="1.88328">
        <ele>259</ele>
        <time>2011-08-17T06:58:08Z</time>
      </trkpt>
      <trkpt lat="43.96006" lon="1.8834">
        <ele>258</ele>
        <time>2011-08-17T06:58:09Z</time>
      </trkpt>
      <trkpt lat="43.96009" lon="1.88352">
        <ele>257</ele>
        <time>2011-08-17T06:58:10Z</time>
      </trkpt>
      <trkpt lat="43.96012" lon="1.88362">
        <ele>256</ele>
        <time>2011-08-17T06:58:11Z</time>
      </trkpt>
      <trkpt lat="43.96016" lon="1.88372">
        <ele>255</ele>
        <time>2011-08-17T06:58:12Z</time>
      </trkpt>
      <trkpt lat="43.96018" lon="1.8838">
        <ele>255</ele>
        <time>2011-08-17T06:58:13Z</time>
      </trkpt>
      <trkpt lat="43.96021" lon="1.88388">
        <ele>255</ele>
        <time>2011-08-17T06:58:14Z</time>
      </trkpt>
      <trkpt lat="43.96024" lon="1.88396">
        <ele>255</ele>
        <time>2011-08-17T06:58:15Z</time>
      </trkpt>
      <trkpt lat="43.96027" lon="1.88403">
        <ele>255</ele>
        <time>2011-08-17T06:58:16Z</time>
      </trkpt>
      <trkpt lat="43.9603" lon="1.88409">
        <ele>255</ele>
        <time>2011-08-17T06:58:17Z</time>
      </trkpt>
      <trkpt lat="43.96033" lon="1.88416">
        <ele>255</ele>
        <time>2011-08-17T06:58:18Z</time>
      </trkpt>
      <trkpt lat="43.96036" lon="1.88421">
        <ele>255</ele>
        <time>2011-08-17T06:58:19Z</time>
      </trkpt>
      <trkpt lat="43.96039" lon="1.88427">
        <ele>255</ele>
        <time>2011-08-17T06:58:20Z</time>
      </trkpt>
      <trkpt lat="43.96043" lon="1.88432">
        <ele>255</ele>
        <time>2011-08-17T06:58:21Z</time>
      </trkpt>
      <trkpt lat="43.96046" lon="1.88437">
        <ele>255</ele>
        <time>2011-08-17T06:58:22Z</time>
      </trkpt>
      <trkpt lat="43.96049" lon="1.88443">
        <ele>255</ele>
        <time>2011-08-17T06:58:23Z</time>
      </trkpt>
      <trkpt lat="43.96053" lon="1.88448">
        <ele>255</ele>
        <time>2011-08-17T06:58:24Z</time>
      </trkpt>
      <trkpt lat="43.96056" lon="1.88453">
        <ele>255</ele>
        <time>2011-08-17T06:58:25Z</time>
      </trkpt>
      <trkpt lat="43.9606" lon="1.88458">
        <ele>255</ele>
        <time>2011-08-17T06:58:26Z</time>
      </trkpt>
      <trkpt lat="43.96064" lon="1.88462">
        <ele>255</ele>
        <time>2011-08-17T06:58:27Z</time>
      </trkpt>
      <trkpt lat="43.96067" lon="1.88467">
        <ele>255</ele>
        <time>2011-08-17T06:58:28Z</time>
      </trkpt>
      <trkpt lat="43.96071" lon="1.88471">
        <ele>255</ele>
        <time>2011-08-17T06:58:29Z</time>
      </trkpt>
      <trkpt lat="43.96075" lon="1.88476">
        <ele>256</ele>
        <time>2011-08-17T06:58:30Z</time>
      </trkpt>
      <trkpt lat="43.96078" lon="1.88479">
        <ele>257</ele>
        <time>2011-08-17T06:58:31Z</time>
      </trkpt>
      <trkpt lat="43.96082" lon="1.88483">
        <ele>257</ele>
        <time>2011-08-17T06:58:32Z</time>
      </trkpt>
      <trkpt lat="43.96086" lon="1.88487">
        <ele>258</ele>
        <time>2011-08-17T06:58:33Z</time>
      </trkpt>
      <trkpt lat="43.9609" lon="1.88491">
        <ele>258</ele>
        <time>2011-08-17T06:58:34Z</time>
      </trkpt>
      <trkpt lat="43.96094" lon="1.88495">
        <ele>259</ele>
        <time>2011-08-17T06:58:35Z</time>
      </trkpt>
      <trkpt lat="43.96098" lon="1.88498">
        <ele>260</ele>
        <time>2011-08-17T06:58:36Z</time>
      </trkpt>
      <trkpt lat="43.96102" lon="1.88501">
        <ele>261</ele>
        <time>2011-08-17T06:58:37Z</time>
      </trkpt>
      <trkpt lat="43.96106" lon="1.88504">
        <ele>261</ele>
        <time>2011-08-17T06:58:38Z</time>
      </trkpt>
      <trkpt lat="43.9611" lon="1.88507">
        <ele>262</ele>
        <time>2011-08-17T06:58:39Z</time>
      </trkpt>
      <trkpt lat="43.96114" lon="1.8851">
        <ele>263</ele>
        <time>2011-08-17T06:58:40Z</time>
      </trkpt>
      <trkpt lat="43.96117" lon="1.88513">
        <ele>263</ele>
        <time>2011-08-17T06:58:41Z</time>
      </trkpt>
      <trkpt lat="43.96122" lon="1.88516">
        <ele>263</ele>
        <time>2011-08-17T06:58:42Z</time>
      </trkpt>
      <trkpt lat="43.96125" lon="1.88519">
        <ele>264</ele>
        <time>2011-08-17T06:58:43Z</time>
      </trkpt>
      <trkpt lat="43.9613" lon="1.88522">
        <ele>264</ele>
        <time>2011-08-17T06:58:44Z</time>
      </trkpt>
      <trkpt lat="43.96133" lon="1.88524">
        <ele>264</ele>
        <time>2011-08-17T06:58:45Z</time>
      </trkpt>
      <trkpt lat="43.96138" lon="1.88526">
        <ele>264</ele>
        <time>2011-08-17T06:58:46Z</time>
      </trkpt>
      <trkpt lat="43.96142" lon="1.88528">
        <ele>264</ele>
        <time>2011-08-17T06:58:47Z</time>
      </trkpt>
      <trkpt lat="43.96146" lon="1.88531">
        <ele>264</ele>
        <time>2011-08-17T06:58:48Z</time>
      </trkpt>
      <trkpt lat="43.96151" lon="1.88533">
        <ele>265</ele>
        <time>2011-08-17T06:58:49Z</time>
      </trkpt>
      <trkpt lat="43.96155" lon="1.88535">
        <ele>265</ele>
        <time>2011-08-17T06:58:50Z</time>
      </trkpt>
      <trkpt lat="43.96159" lon="1.88538">
        <ele>265</ele>
        <time>2011-08-17T06:58:51Z</time>
      </trkpt>
      <trkpt lat="43.96163" lon="1.8854">
        <ele>266</ele>
        <time>2011-08-17T06:58:52Z</time>
      </trkpt>
      <trkpt lat="43.96167" lon="1.88542">
        <ele>266</ele>
        <time>2011-08-17T06:58:53Z</time>
      </trkpt>
      <trkpt lat="43.9617" lon="1.88544">
        <ele>266</ele>
        <time>2011-08-17T06:58:54Z</time>
      </trkpt>
      <trkpt lat="43.96174" lon="1.88546">
        <ele>267</ele>
        <time>2011-08-17T06:58:55Z</time>
      </trkpt>
      <trkpt lat="43.96178" lon="1.88548">
        <ele>267</ele>
        <time>2011-08-17T06:58:56Z</time>
      </trkpt>
      <trkpt lat="43.96181" lon="1.8855">
        <ele>267</ele>
        <time>2011-08-17T06:58:57Z</time>
      </trkpt>
      <trkpt lat="43.96185" lon="1.88553">
        <ele>268</ele>
        <time>2011-08-17T06:58:58Z</time>
      </trkpt>
      <trkpt lat="43.96189" lon="1.88555">
        <ele>268</ele>
        <time>2011-08-17T06:58:59Z</time>
      </trkpt>
      <trkpt lat="43.96193" lon="1.88558">
        <ele>268</ele>
        <time>2011-08-17T06:59:00Z</time>
      </trkpt>
      <trkpt lat="43.96197" lon="1.8856">
        <ele>268</ele>
        <time>2011-08-17T06:59:01Z</time>
      </trkpt>
      <trkpt lat="43.96201" lon="1.88563">
        <ele>268</ele>
        <time>2011-08-17T06:59:02Z</time>
      </trkpt>
      <trkpt lat="43.96206" lon="1.88565">
        <ele>268</ele>
        <time>2011-08-17T06:59:03Z</time>
      </trkpt>
      <trkpt lat="43.9621" lon="1.88568">
        <ele>268</ele>
        <time>2011-08-17T06:59:04Z</time>
      </trkpt>
      <trkpt lat="43.96214" lon="1.88571">
        <ele>268</ele>
        <time>2011-08-17T06:59:05Z</time>
      </trkpt>
      <trkpt lat="43.96218" lon="1.88573">
        <ele>268</ele>
        <time>2011-08-17T06:59:06Z</time>
      </trkpt>
      <trkpt lat="43.96223" lon="1.88576">
        <ele>268</ele>
        <time>2011-08-17T06:59:07Z</time>
      </trkpt>
      <trkpt lat="43.96228" lon="1.88579">
        <ele>268</ele>
        <time>2011-08-17T06:59:08Z</time>
      </trkpt>
      <trkpt lat="43.96232" lon="1.88582">
        <ele>268</ele>
        <time>2011-08-17T06:59:09Z</time>
      </trkpt>
      <trkpt lat="43.96237" lon="1.88585">
        <ele>268</ele>
        <time>2011-08-17T06:59:10Z</time>
      </trkpt>
      <trkpt lat="43.96241" lon="1.88587">
        <ele>268</ele>
        <time>2011-08-17T06:59:11Z</time>
      </trkpt>
      <trkpt lat="43.96246" lon="1.8859">
        <ele>268</ele>
        <time>2011-08-17T06:59:12Z</time>
      </trkpt>
      <trkpt lat="43.9625" lon="1.88593">
        <ele>268</ele>
        <time>2011-08-17T06:59:13Z</time>
      </trkpt>
      <trkpt lat="43.96255" lon="1.88596">
        <ele>268</ele>
        <time>2011-08-17T06:59:14Z</time>
      </trkpt>
      <trkpt lat="43.96259" lon="1.88599">
        <ele>268</ele>
        <time>2011-08-17T06:59:15Z</time>
      </trkpt>
      <trkpt lat="43.96263" lon="1.88601">
        <ele>268</ele>
        <time>2011-08-17T06:59:16Z</time>
      </trkpt>
      <trkpt lat="43.96268" lon="1.88604">
        <ele>268</ele>
        <time>2011-08-17T06:59:17Z</time>
      </trkpt>
      <trkpt lat="43.96272" lon="1.88606">
        <ele>268</ele>
        <time>2011-08-17T06:59:18Z</time>
      </trkpt>
      <trkpt lat="43.96276" lon="1.88609">
        <ele>268</ele>
        <time>2011-08-17T06:59:19Z</time>
      </trkpt>
      <trkpt lat="43.96281" lon="1.8861">
        <ele>268</ele>
        <time>2011-08-17T06:59:20Z</time>
      </trkpt>
      <trkpt lat="43.96286" lon="1.88612">
        <ele>268</ele>
        <time>2011-08-17T06:59:21Z</time>
      </trkpt>
      <trkpt lat="43.9629" lon="1.88613">
        <ele>268</ele>
        <time>2011-08-17T06:59:22Z</time>
      </trkpt>
      <trkpt lat="43.96294" lon="1.88613">
        <ele>268</ele>
        <time>2011-08-17T06:59:23Z</time>
      </trkpt>
      <trkpt lat="43.96298" lon="1.88613">
        <ele>268</ele>
        <time>2011-08-17T06:59:24Z</time>
      </trkpt>
      <trkpt lat="43.96302" lon="1.88612">
        <ele>268</ele>
        <time>2011-08-17T06:59:25Z</time>
      </trkpt>
      <trkpt lat="43.96305" lon="1.8861">
        <ele>268</ele>
        <time>2011-08-17T06:59:26Z</time>
      </trkpt>
      <trkpt lat="43.96309" lon="1.88608">
        <ele>268</ele>
        <time>2011-08-17T06:59:27Z</time>
      </trkpt>
      <trkpt lat="43.96313" lon="1.88606">
        <ele>268</ele>
        <time>2011-08-17T06:59:28Z</time>
      </trkpt>
      <trkpt lat="43.96318" lon="1.88604">
        <ele>268</ele>
        <time>2011-08-17T06:59:29Z</time>
      </trkpt>
      <trkpt lat="43.96322" lon="1.88603">
        <ele>268</ele>
        <time>2011-08-17T06:59:30Z</time>
      </trkpt>
      <trkpt lat="43.96327" lon="1.88601">
        <ele>268</ele>
        <time>2011-08-17T06:59:31Z</time>
      </trkpt>
      <trkpt lat="43.96332" lon="1.88599">
        <ele>268</ele>
        <time>2011-08-17T06:59:32Z</time>
      </trkpt>
      <trkpt lat="43.96337" lon="1.88597">
        <ele>268</ele>
        <time>2011-08-17T06:59:33Z</time>
      </trkpt>
      <trkpt lat="43.96342" lon="1.88595">
        <ele>268</ele>
        <time>2011-08-17T06:59:34Z</time>
      </trkpt>
      <trkpt lat="43.96347" lon="1.88592">
        <ele>268</ele>
        <time>2011-08-17T06:59:35Z</time>
      </trkpt>
      <trkpt lat="43.96353" lon="1.88589">
        <ele>268</ele>
        <time>2011-08-17T06:59:36Z</time>
      </trkpt>
      <trkpt lat="43.96359" lon="1.88586">
        <ele>267</ele>
        <time>2011-08-17T06:59:37Z</time>
      </trkpt>
      <trkpt lat="43.96366" lon="1.88583">
        <ele>266</ele>
        <time>2011-08-17T06:59:38Z</time>
      </trkpt>
      <trkpt lat="43.96372" lon="1.8858">
        <ele>266</ele>
        <time>2011-08-17T06:59:39Z</time>
      </trkpt>
      <trkpt lat="43.96379" lon="1.88576">
        <ele>265</ele>
        <time>2011-08-17T06:59:40Z</time>
      </trkpt>
      <trkpt lat="43.96387" lon="1.88573">
        <ele>265</ele>
        <time>2011-08-17T06:59:41Z</time>
      </trkpt>
      <trkpt lat="43.96394" lon="1.88571">
        <ele>265</ele>
        <time>2011-08-17T06:59:42Z</time>
      </trkpt>
      <trkpt lat="43.96401" lon="1.88569">
        <ele>264</ele>
        <time>2011-08-17T06:59:43Z</time>
      </trkpt>
      <trkpt lat="43.96406" lon="1.88567">
        <ele>263</ele>
        <time>2011-08-17T06:59:44Z</time>
      </trkpt>
      <trkpt lat="43.96412" lon="1.88566">
        <ele>263</ele>
        <time>2011-08-17T06:59:45Z</time>
      </trkpt>
      <trkpt lat="43.96418" lon="1.88565">
        <ele>262</ele>
        <time>2011-08-17T06:59:46Z</time>
      </trkpt>
      <trkpt lat="43.96424" lon="1.88564">
        <ele>261</ele>
        <time>2011-08-17T06:59:47Z</time>
      </trkpt>
      <trkpt lat="43.96429" lon="1.88563">
        <ele>260</ele>
        <time>2011-08-17T06:59:48Z</time>
      </trkpt>
      <trkpt lat="43.96435" lon="1.88563">
        <ele>259</ele>
        <time>2011-08-17T06:59:49Z</time>
      </trkpt>
      <trkpt lat="43.9644" lon="1.88564">
        <ele>259</ele>
        <time>2011-08-17T06:59:50Z</time>
      </trkpt>
      <trkpt lat="43.96446" lon="1.88564">
        <ele>259</ele>
        <time>2011-08-17T06:59:51Z</time>
      </trkpt>
      <trkpt lat="43.96452" lon="1.88564">
        <ele>258</ele>
        <time>2011-08-17T06:59:52Z</time>
      </trkpt>
      <trkpt lat="43.96458" lon="1.88565">
        <ele>258</ele>
        <time>2011-08-17T06:59:53Z</time>
      </trkpt>
      <trkpt lat="43.96464" lon="1.88566">
        <ele>258</ele>
        <time>2011-08-17T06:59:54Z</time>
      </trkpt>
      <trkpt lat="43.96471" lon="1.88567">
        <ele>257</ele>
        <time>2011-08-17T06:59:55Z</time>
      </trkpt>
      <trkpt lat="43.96477" lon="1.88567">
        <ele>257</ele>
        <time>2011-08-17T06:59:56Z</time>
      </trkpt>
      <trkpt lat="43.96483" lon="1.88569">
        <ele>256</ele>
        <time>2011-08-17T06:59:57Z</time>
      </trkpt>
      <trkpt lat="43.96489" lon="1.8857">
        <ele>256</ele>
        <time>2011-08-17T06:59:58Z</time>
      </trkpt>
      <trkpt lat="43.96495" lon="1.88571">
        <ele>256</ele>
        <time>2011-08-17T06:59:59Z</time>
      </trkpt>
      <trkpt lat="43.96502" lon="1.88572">
        <ele>256</ele>
        <time>2011-08-17T07:00:00Z</time>
      </trkpt>
      <trkpt lat="43.96508" lon="1.88572">
        <ele>255</ele>
        <time>2011-08-17T07:00:01Z</time>
      </trkpt>
      <trkpt lat="43.96515" lon="1.88573">
        <ele>255</ele>
        <time>2011-08-17T07:00:02Z</time>
      </trkpt>
      <trkpt lat="43.96521" lon="1.88573">
        <ele>255</ele>
        <time>2011-08-17T07:00:03Z</time>
      </trkpt>
      <trkpt lat="43.96527" lon="1.88574">
        <ele>255</ele>
        <time>2011-08-17T07:00:04Z</time>
      </trkpt>
      <trkpt lat="43.96533" lon="1.88575">
        <ele>255</ele>
        <time>2011-08-17T07:00:05Z</time>
      </trkpt>
      <trkpt lat="43.96539" lon="1.88575">
        <ele>254</ele>
        <time>2011-08-17T07:00:06Z</time>
      </trkpt>
      <trkpt lat="43.96544" lon="1.88576">
        <ele>254</ele>
        <time>2011-08-17T07:00:07Z</time>
      </trkpt>
      <trkpt lat="43.96548" lon="1.88576">
        <ele>254</ele>
        <time>2011-08-17T07:00:08Z</time>
      </trkpt>
      <trkpt lat="43.96552" lon="1.88576">
        <ele>254</ele>
        <time>2011-08-17T07:00:09Z</time>
      </trkpt>
      <trkpt lat="43.96556" lon="1.88576">
        <ele>254</ele>
        <time>2011-08-17T07:00:10Z</time>
      </trkpt>
      <trkpt lat="43.9656" lon="1.88576">
        <ele>254</ele>
        <time>2011-08-17T07:00:11Z</time>
      </trkpt>
      <trkpt lat="43.96563" lon="1.88576">
        <ele>253</ele>
        <time>2011-08-17T07:00:12Z</time>
      </trkpt>
      <trkpt lat="43.96567" lon="1.88575">
        <ele>253</ele>
        <time>2011-08-17T07:00:13Z</time>
      </trkpt>
      <trkpt lat="43.96571" lon="1.88574">
        <ele>253</ele>
        <time>2011-08-17T07:00:14Z</time>
      </trkpt>
      <trkpt lat="43.96576" lon="1.88574">
        <ele>253</ele>
        <time>2011-08-17T07:00:15Z</time>
      </trkpt>
      <trkpt lat="43.96581" lon="1.88574">
        <ele>252</ele>
        <time>2011-08-17T07:00:16Z</time>
      </trkpt>
      <trkpt lat="43.96586" lon="1.88574">
        <ele>252</ele>
        <time>2011-08-17T07:00:17Z</time>
      </trkpt>
      <trkpt lat="43.96591" lon="1.88573">
        <ele>252</ele>
        <time>2011-08-17T07:00:18Z</time>
      </trkpt>
      <trkpt lat="43.96596" lon="1.88573">
        <ele>251</ele>
        <time>2011-08-17T07:00:19Z</time>
      </trkpt>
      <trkpt lat="43.96602" lon="1.88573">
        <ele>250</ele>
        <time>2011-08-17T07:00:20Z</time>
      </trkpt>
      <trkpt lat="43.96607" lon="1.88573">
        <ele>250</ele>
        <time>2011-08-17T07:00:21Z</time>
      </trkpt>
      <trkpt lat="43.96614" lon="1.88573">
        <ele>249</ele>
        <time>2011-08-17T07:00:22Z</time>
      </trkpt>
      <trkpt lat="43.9662" lon="1.88574">
        <ele>248</ele>
        <time>2011-08-17T07:00:23Z</time>
      </trkpt>
      <trkpt lat="43.96627" lon="1.88574">
        <ele>247</ele>
        <time>2011-08-17T07:00:24Z</time>
      </trkpt>
      <trkpt lat="43.96635" lon="1.88574">
        <ele>247</ele>
        <time>2011-08-17T07:00:25Z</time>
      </trkpt>
      <trkpt lat="43.96643" lon="1.88574">
        <ele>246</ele>
        <time>2011-08-17T07:00:26Z</time>
      </trkpt>
      <trkpt lat="43.96651" lon="1.88574">
        <ele>245</ele>
        <time>2011-08-17T07:00:27Z</time>
      </trkpt>
      <trkpt lat="43.96661" lon="1.88574">
        <ele>244</ele>
        <time>2011-08-17T07:00:28Z</time>
      </trkpt>
      <trkpt lat="43.9667" lon="1.88574">
        <ele>243</ele>
        <time>2011-08-17T07:00:29Z</time>
      </trkpt>
      <trkpt lat="43.96679" lon="1.88573">
        <ele>242</ele>
        <time>2011-08-17T07:00:30Z</time>
      </trkpt>
      <trkpt lat="43.96688" lon="1.88573">
        <ele>241</ele>
        <time>2011-08-17T07:00:31Z</time>
      </trkpt>
      <trkpt lat="43.96698" lon="1.88572">
        <ele>240</ele>
        <time>2011-08-17T07:00:32Z</time>
      </trkpt>
      <trkpt lat="43.96707" lon="1.8857">
        <ele>240</ele>
        <time>2011-08-17T07:00:33Z</time>
      </trkpt>
      <trkpt lat="43.96716" lon="1.88568">
        <ele>239</ele>
        <time>2011-08-17T07:00:34Z</time>
      </trkpt>
      <trkpt lat="43.96724" lon="1.88566">
        <ele>238</ele>
        <time>2011-08-17T07:00:35Z</time>
      </trkpt>
      <trkpt lat="43.96733" lon="1.88563">
        <ele>237</ele>
        <time>2011-08-17T07:00:36Z</time>
      </trkpt>
      <trkpt lat="43.96741" lon="1.8856">
        <ele>237</ele>
        <time>2011-08-17T07:00:37Z</time>
      </trkpt>
      <trkpt lat="43.96749" lon="1.88556">
        <ele>236</ele>
        <time>2011-08-17T07:00:38Z</time>
      </trkpt>
      <trkpt lat="43.96757" lon="1.88552">
        <ele>236</ele>
        <time>2011-08-17T07:00:39Z</time>
      </trkpt>
      <trkpt lat="43.96764" lon="1.88548">
        <ele>236</ele>
        <time>2011-08-17T07:00:40Z</time>
      </trkpt>
      <trkpt lat="43.96772" lon="1.88544">
        <ele>235</ele>
        <time>2011-08-17T07:00:41Z</time>
      </trkpt>
      <trkpt lat="43.96779" lon="1.8854">
        <ele>235</ele>
        <time>2011-08-17T07:00:42Z</time>
      </trkpt>
      <trkpt lat="43.96787" lon="1.88536">
        <ele>234</ele>
        <time>2011-08-17T07:00:43Z</time>
      </trkpt>
      <trkpt lat="43.96794" lon="1.88532">
        <ele>234</ele>
        <time>2011-08-17T07:00:44Z</time>
      </trkpt>
      <trkpt lat="43.96802" lon="1.88528">
        <ele>233</ele>
        <time>2011-08-17T07:00:45Z</time>
      </trkpt>
      <trkpt lat="43.96809" lon="1.88525">
        <ele>233</ele>
        <time>2011-08-17T07:00:46Z</time>
      </trkpt>
      <trkpt lat="43.96817" lon="1.88521">
        <ele>232</ele>
        <time>2011-08-17T07:00:47Z</time>
      </trkpt>
      <trkpt lat="43.96824" lon="1.88517">
        <ele>232</ele>
        <time>2011-08-17T07:00:48Z</time>
      </trkpt>
      <trkpt lat="43.96832" lon="1.88514">
        <ele>231</ele>
        <time>2011-08-17T07:00:49Z</time>
      </trkpt>
      <trkpt lat="43.96839" lon="1.88512">
        <ele>231</ele>
        <time>2011-08-17T07:00:50Z</time>
      </trkpt>
      <trkpt lat="43.96847" lon="1.8851">
        <ele>230</ele>
        <time>2011-08-17T07:00:51Z</time>
      </trkpt>
      <trkpt lat="43.96856" lon="1.8851">
        <ele>230</ele>
        <time>2011-08-17T07:00:52Z</time>
      </trkpt>
      <trkpt lat="43.96865" lon="1.8851">
        <ele>230</ele>
        <time>2011-08-17T07:00:53Z</time>
      </trkpt>
      <trkpt lat="43.96873" lon="1.8851">
        <ele>230</ele>
        <time>2011-08-17T07:00:54Z</time>
      </trkpt>
      <trkpt lat="43.96882" lon="1.8851">
        <ele>230</ele>
        <time>2011-08-17T07:00:55Z</time>
      </trkpt>
      <trkpt lat="43.9689" lon="1.8851">
        <ele>230</ele>
        <time>2011-08-17T07:00:56Z</time>
      </trkpt>
      <trkpt lat="43.96897" lon="1.88509">
        <ele>230</ele>
        <time>2011-08-17T07:00:57Z</time>
      </trkpt>
      <trkpt lat="43.96905" lon="1.88507">
        <ele>230</ele>
        <time>2011-08-17T07:00:58Z</time>
      </trkpt>
      <trkpt lat="43.96912" lon="1.88505">
        <ele>230</ele>
        <time>2011-08-17T07:00:59Z</time>
      </trkpt>
      <trkpt lat="43.96918" lon="1.88502">
        <ele>230</ele>
        <time>2011-08-17T07:01:00Z</time>
      </trkpt>
      <trkpt lat="43.96925" lon="1.88499">
        <ele>229</ele>
        <time>2011-08-17T07:01:01Z</time>
      </trkpt>
      <trkpt lat="43.96931" lon="1.88496">
        <ele>229</ele>
        <time>2011-08-17T07:01:02Z</time>
      </trkpt>
      <trkpt lat="43.96937" lon="1.88494">
        <ele>229</ele>
        <time>2011-08-17T07:01:03Z</time>
      </trkpt>
      <trkpt lat="43.96944" lon="1.88492">
        <ele>229</ele>
        <time>2011-08-17T07:01:04Z</time>
      </trkpt>
      <trkpt lat="43.96951" lon="1.88489">
        <ele>229</ele>
        <time>2011-08-17T07:01:05Z</time>
      </trkpt>
      <trkpt lat="43.96958" lon="1.88488">
        <ele>229</ele>
        <time>2011-08-17T07:01:06Z</time>
      </trkpt>
      <trkpt lat="43.96964" lon="1.88486">
        <ele>229</ele>
        <time>2011-08-17T07:01:07Z</time>
      </trkpt>
      <trkpt lat="43.96971" lon="1.88484">
        <ele>229</ele>
        <time>2011-08-17T07:01:08Z</time>
      </trkpt>
      <trkpt lat="43.96977" lon="1.88483">
        <ele>228</ele>
        <time>2011-08-17T07:01:09Z</time>
      </trkpt>
      <trkpt lat="43.96983" lon="1.88481">
        <ele>228</ele>
        <time>2011-08-17T07:01:10Z</time>
      </trkpt>
      <trkpt lat="43.9699" lon="1.8848">
        <ele>228</ele>
        <time>2011-08-17T07:01:11Z</time>
      </trkpt>
      <trkpt lat="43.96996" lon="1.88478">
        <ele>228</ele>
        <time>2011-08-17T07:01:12Z</time>
      </trkpt>
      <trkpt lat="43.97003" lon="1.88477">
        <ele>228</ele>
        <time>2011-08-17T07:01:13Z</time>
      </trkpt>
      <trkpt lat="43.97009" lon="1.88475">
        <ele>228</ele>
        <time>2011-08-17T07:01:14Z</time>
      </trkpt>
      <trkpt lat="43.97015" lon="1.88473">
        <ele>228</ele>
        <time>2011-08-17T07:01:15Z</time>
      </trkpt>
      <trkpt lat="43.97022" lon="1.88471">
        <ele>227</ele>
        <time>2011-08-17T07:01:16Z</time>
      </trkpt>
      <trkpt lat="43.97028" lon="1.8847">
        <ele>227</ele>
        <time>2011-08-17T07:01:17Z</time>
      </trkpt>
      <trkpt lat="43.97035" lon="1.88468">
        <ele>227</ele>
        <time>2011-08-17T07:01:18Z</time>
      </trkpt>
      <trkpt lat="43.97041" lon="1.88467">
        <ele>226</ele>
        <time>2011-08-17T07:01:19Z</time>
      </trkpt>
      <trkpt lat="43.97048" lon="1.88465">
        <ele>226</ele>
        <time>2011-08-17T07:01:20Z</time>
      </trkpt>
      <trkpt lat="43.97054" lon="1.88463">
        <ele>226</ele>
        <time>2011-08-17T07:01:21Z</time>
      </trkpt>
      <trkpt lat="43.9706" lon="1.88462">
        <ele>226</ele>
        <time>2011-08-17T07:01:22Z</time>
      </trkpt>
      <trkpt lat="43.97067" lon="1.8846">
        <ele>225</ele>
        <time>2011-08-17T07:01:23Z</time>
      </trkpt>
      <trkpt lat="43.97074" lon="1.88458">
        <ele>225</ele>
        <time>2011-08-17T07:01:24Z</time>
      </trkpt>
      <trkpt lat="43.9708" lon="1.88456">
        <ele>225</ele>
        <time>2011-08-17T07:01:25Z</time>
      </trkpt>
      <trkpt lat="43.97087" lon="1.88454">
        <ele>225</ele>
        <time>2011-08-17T07:01:26Z</time>
      </trkpt>
      <trkpt lat="43.97093" lon="1.88453">
        <ele>224</ele>
        <time>2011-08-17T07:01:27Z</time>
      </trkpt>
      <trkpt lat="43.971" lon="1.88451">
        <ele>224</ele>
        <time>2011-08-17T07:01:28Z</time>
      </trkpt>
      <trkpt lat="43.97107" lon="1.88449">
        <ele>224</ele>
        <time>2011-08-17T07:01:29Z</time>
      </trkpt>
      <trkpt lat="43.97113" lon="1.88447">
        <ele>224</ele>
        <time>2011-08-17T07:01:30Z</time>
      </trkpt>
      <trkpt lat="43.97118" lon="1.88445">
        <ele>223</ele>
        <time>2011-08-17T07:01:31Z</time>
      </trkpt>
      <trkpt lat="43.97124" lon="1.88443">
        <ele>223</ele>
        <time>2011-08-17T07:01:32Z</time>
      </trkpt>
      <trkpt lat="43.9713" lon="1.88441">
        <ele>223</ele>
        <time>2011-08-17T07:01:33Z</time>
      </trkpt>
      <trkpt lat="43.97136" lon="1.88439">
        <ele>223</ele>
        <time>2011-08-17T07:01:34Z</time>
      </trkpt>
      <trkpt lat="43.97141" lon="1.88436">
        <ele>223</ele>
        <time>2011-08-17T07:01:35Z</time>
      </trkpt>
      <trkpt lat="43.97146" lon="1.88433">
        <ele>222</ele>
        <time>2011-08-17T07:01:36Z</time>
      </trkpt>
      <trkpt lat="43.97151" lon="1.88431">
        <ele>222</ele>
        <time>2011-08-17T07:01:37Z</time>
      </trkpt>
      <trkpt lat="43.97155" lon="1.88427">
        <ele>222</ele>
        <time>2011-08-17T07:01:38Z</time>
      </trkpt>
      <trkpt lat="43.97159" lon="1.88425">
        <ele>222</ele>
        <time>2011-08-17T07:01:39Z</time>
      </trkpt>
      <trkpt lat="43.97163" lon="1.88425">
        <ele>222</ele>
        <time>2011-08-17T07:01:40Z</time>
      </trkpt>
      <trkpt lat="43.97165" lon="1.88427">
        <ele>222</ele>
        <time>2011-08-17T07:01:41Z</time>
      </trkpt>
      <trkpt lat="43.97166" lon="1.88431">
        <ele>222</ele>
        <time>2011-08-17T07:01:42Z</time>
      </trkpt>
      <trkpt lat="43.97166" lon="1.88435">
        <ele>222</ele>
        <time>2011-08-17T07:01:43Z</time>
      </trkpt>
      <trkpt lat="43.97166" lon="1.88438">
        <ele>222</ele>
        <time>2011-08-17T07:01:44Z</time>
      </trkpt>
      <trkpt lat="43.97166" lon="1.88443">
        <ele>222</ele>
        <time>2011-08-17T07:01:45Z</time>
      </trkpt>
      <trkpt lat="43.97166" lon="1.88446">
        <ele>222</ele>
        <time>2011-08-17T07:01:46Z</time>
      </trkpt>
      <trkpt lat="43.97166" lon="1.8845">
        <ele>222</ele>
        <time>2011-08-17T07:01:47Z</time>
      </trkpt>
      <trkpt lat="43.97167" lon="1.88454">
        <ele>222</ele>
        <time>2011-08-17T07:01:48Z</time>
      </trkpt>
      <trkpt lat="43.97168" lon="1.88458">
        <ele>222</ele>
        <time>2011-08-17T07:01:49Z</time>
      </trkpt>
      <trkpt lat="43.97168" lon="1.88462">
        <ele>222</ele>
        <time>2011-08-17T07:01:50Z</time>
      </trkpt>
      <trkpt lat="43.97169" lon="1.88467">
        <ele>222</ele>
        <time>2011-08-17T07:01:51Z</time>
      </trkpt>
      <trkpt lat="43.9717" lon="1.8847">
        <ele>222</ele>
        <time>2011-08-17T07:01:52Z</time>
      </trkpt>
      <trkpt lat="43.97171" lon="1.88474">
        <ele>222</ele>
        <time>2011-08-17T07:01:53Z</time>
      </trkpt>
      <trkpt lat="43.97171" lon="1.88479">
        <ele>222</ele>
        <time>2011-08-17T07:01:54Z</time>
      </trkpt>
      <trkpt lat="43.97172" lon="1.88483">
        <ele>222</ele>
        <time>2011-08-17T07:01:55Z</time>
      </trkpt>
      <trkpt lat="43.97173" lon="1.88487">
        <ele>222</ele>
        <time>2011-08-17T07:01:56Z</time>
      </trkpt>
      <trkpt lat="43.97173" lon="1.88491">
        <ele>222</ele>
        <time>2011-08-17T07:01:57Z</time>
      </trkpt>
      <trkpt lat="43.97173" lon="1.88496">
        <ele>222</ele>
        <time>2011-08-17T07:01:58Z</time>
      </trkpt>
      <trkpt lat="43.97173" lon="1.885">
        <ele>223</ele>
        <time>2011-08-17T07:01:59Z</time>
      </trkpt>
      <trkpt lat="43.97173" lon="1.88505">
        <ele>224</ele>
        <time>2011-08-17T07:02:00Z</time>
      </trkpt>
      <trkpt lat="43.97173" lon="1.8851">
        <ele>224</ele>
        <time>2011-08-17T07:02:01Z</time>
      </trkpt>
      <trkpt lat="43.97173" lon="1.88514">
        <ele>225</ele>
        <time>2011-08-17T07:02:02Z</time>
      </trkpt>
      <trkpt lat="43.97173" lon="1.88519">
        <ele>226</ele>
        <time>2011-08-17T07:02:03Z</time>
      </trkpt>
      <trkpt lat="43.97173" lon="1.88523">
        <ele>226</ele>
        <time>2011-08-17T07:02:04Z</time>
      </trkpt>
      <trkpt lat="43.97174" lon="1.88528">
        <ele>227</ele>
        <time>2011-08-17T07:02:05Z</time>
      </trkpt>
      <trkpt lat="43.97174" lon="1.88532">
        <ele>227</ele>
        <time>2011-08-17T07:02:06Z</time>
      </trkpt>
      <trkpt lat="43.97173" lon="1.88537">
        <ele>228</ele>
        <time>2011-08-17T07:02:07Z</time>
      </trkpt>
      <trkpt lat="43.97173" lon="1.88542">
        <ele>228</ele>
        <time>2011-08-17T07:02:08Z</time>
      </trkpt>
      <trkpt lat="43.97173" lon="1.88547">
        <ele>229</ele>
        <time>2011-08-17T07:02:09Z</time>
      </trkpt>
      <trkpt lat="43.97173" lon="1.88551">
        <ele>229</ele>
        <time>2011-08-17T07:02:10Z</time>
      </trkpt>
      <trkpt lat="43.97173" lon="1.88556">
        <ele>230</ele>
        <time>2011-08-17T07:02:11Z</time>
      </trkpt>
      <trkpt lat="43.97173" lon="1.88561">
        <ele>230</ele>
        <time>2011-08-17T07:02:12Z</time>
      </trkpt>
      <trkpt lat="43.97173" lon="1.88566">
        <ele>231</ele>
        <time>2011-08-17T07:02:13Z</time>
      </trkpt>
      <trkpt lat="43.97173" lon="1.8857">
        <ele>231</ele>
        <time>2011-08-17T07:02:14Z</time>
      </trkpt>
      <trkpt lat="43.97173" lon="1.88575">
        <ele>232</ele>
        <time>2011-08-17T07:02:15Z</time>
      </trkpt>
      <trkpt lat="43.97173" lon="1.8858">
        <ele>232</ele>
        <time>2011-08-17T07:02:16Z</time>
      </trkpt>
      <trkpt lat="43.97172" lon="1.88585">
        <ele>233</ele>
        <time>2011-08-17T07:02:17Z</time>
      </trkpt>
      <trkpt lat="43.97172" lon="1.88591">
        <ele>233</ele>
        <time>2011-08-17T07:02:18Z</time>
      </trkpt>
      <trkpt lat="43.97172" lon="1.88596">
        <ele>233</ele>
        <time>2011-08-17T07:02:19Z</time>
      </trkpt>
      <trkpt lat="43.97172" lon="1.88601">
        <ele>233</ele>
        <time>2011-08-17T07:02:20Z</time>
      </trkpt>
      <trkpt lat="43.97171" lon="1.88605">
        <ele>234</ele>
        <time>2011-08-17T07:02:21Z</time>
      </trkpt>
      <trkpt lat="43.97171" lon="1.8861">
        <ele>234</ele>
        <time>2011-08-17T07:02:22Z</time>
      </trkpt>
      <trkpt lat="43.97171" lon="1.88615">
        <ele>234</ele>
        <time>2011-08-17T07:02:23Z</time>
      </trkpt>
      <trkpt lat="43.97171" lon="1.8862">
        <ele>234</ele>
        <time>2011-08-17T07:02:24Z</time>
      </trkpt>
      <trkpt lat="43.97171" lon="1.88625">
        <ele>234</ele>
        <time>2011-08-17T07:02:25Z</time>
      </trkpt>
      <trkpt lat="43.97171" lon="1.8863">
        <ele>235</ele>
        <time>2011-08-17T07:02:26Z</time>
      </trkpt>
      <trkpt lat="43.97171" lon="1.88635">
        <ele>235</ele>
        <time>2011-08-17T07:02:27Z</time>
      </trkpt>
      <trkpt lat="43.97171" lon="1.88639">
        <ele>235</ele>
        <time>2011-08-17T07:02:28Z</time>
      </trkpt>
      <trkpt lat="43.9717" lon="1.88644">
        <ele>235</ele>
        <time>2011-08-17T07:02:29Z</time>
      </trkpt>
      <trkpt lat="43.9717" lon="1.88649">
        <ele>235</ele>
        <time>2011-08-17T07:02:30Z</time>
      </trkpt>
      <trkpt lat="43.9717" lon="1.88653">
        <ele>235</ele>
        <time>2011-08-17T07:02:31Z</time>
      </trkpt>
      <trkpt lat="43.9717" lon="1.88658">
        <ele>235</ele>
        <time>2011-08-17T07:02:32Z</time>
      </trkpt>
      <trkpt lat="43.97171" lon="1.88663">
        <ele>236</ele>
        <time>2011-08-17T07:02:33Z</time>
      </trkpt>
      <trkpt lat="43.97171" lon="1.88668">
        <ele>236</ele>
        <time>2011-08-17T07:02:34Z</time>
      </trkpt>
      <trkpt lat="43.97172" lon="1.88672">
        <ele>236</ele>
        <time>2011-08-17T07:02:35Z</time>
      </trkpt>
      <trkpt lat="43.97173" lon="1.88676">
        <ele>236</ele>
        <time>2011-08-17T07:02:36Z</time>
      </trkpt>
      <trkpt lat="43.97175" lon="1.88681">
        <ele>236</ele>
        <time>2011-08-17T07:02:37Z</time>
      </trkpt>
      <trkpt lat="43.97177" lon="1.88684">
        <ele>236</ele>
        <time>2011-08-17T07:02:38Z</time>
      </trkpt>
      <trkpt lat="43.97178" lon="1.88688">
        <ele>236</ele>
        <time>2011-08-17T07:02:39Z</time>
      </trkpt>
      <trkpt lat="43.9718" lon="1.88691">
        <ele>236</ele>
        <time>2011-08-17T07:02:40Z</time>
      </trkpt>
      <trkpt lat="43.97182" lon="1.88695">
        <ele>236</ele>
        <time>2011-08-17T07:02:41Z</time>
      </trkpt>
      <trkpt lat="43.97184" lon="1.88699">
        <ele>236</ele>
        <time>2011-08-17T07:02:42Z</time>
      </trkpt>
      <trkpt lat="43.97186" lon="1.88702">
        <ele>236</ele>
        <time>2011-08-17T07:02:43Z</time>
      </trkpt>
      <trkpt lat="43.97189" lon="1.88706">
        <ele>236</ele>
        <time>2011-08-17T07:02:44Z</time>
      </trkpt>
      <trkpt lat="43.9719" lon="1.8871">
        <ele>236</ele>
        <time>2011-08-17T07:02:45Z</time>
      </trkpt>
      <trkpt lat="43.97193" lon="1.88713">
        <ele>235</ele>
        <time>2011-08-17T07:02:46Z</time>
      </trkpt>
      <trkpt lat="43.97195" lon="1.88717">
        <ele>235</ele>
        <time>2011-08-17T07:02:47Z</time>
      </trkpt>
      <trkpt lat="43.97197" lon="1.88721">
        <ele>235</ele>
        <time>2011-08-17T07:02:48Z</time>
      </trkpt>
      <trkpt lat="43.97198" lon="1.88724">
        <ele>235</ele>
        <time>2011-08-17T07:02:49Z</time>
      </trkpt>
      <trkpt lat="43.972" lon="1.88727">
        <ele>234</ele>
        <time>2011-08-17T07:02:50Z</time>
      </trkpt>
      <trkpt lat="43.97201" lon="1.88731">
        <ele>234</ele>
        <time>2011-08-17T07:02:51Z</time>
      </trkpt>
      <trkpt lat="43.97203" lon="1.88734">
        <ele>234</ele>
        <time>2011-08-17T07:02:52Z</time>
      </trkpt>
      <trkpt lat="43.97204" lon="1.88737">
        <ele>234</ele>
        <time>2011-08-17T07:02:53Z</time>
      </trkpt>
      <trkpt lat="43.97205" lon="1.88741">
        <ele>234</ele>
        <time>2011-08-17T07:02:54Z</time>
      </trkpt>
      <trkpt lat="43.97206" lon="1.88744">
        <ele>234</ele>
        <time>2011-08-17T07:02:55Z</time>
      </trkpt>
      <trkpt lat="43.97208" lon="1.88747">
        <ele>234</ele>
        <time>2011-08-17T07:02:56Z</time>
      </trkpt>
      <trkpt lat="43.97209" lon="1.88751">
        <ele>234</ele>
        <time>2011-08-17T07:02:57Z</time>
      </trkpt>
      <trkpt lat="43.9721" lon="1.88754">
        <ele>234</ele>
        <time>2011-08-17T07:02:58Z</time>
      </trkpt>
      <trkpt lat="43.97211" lon="1.88758">
        <ele>234</ele>
        <time>2011-08-17T07:02:59Z</time>
      </trkpt>
      <trkpt lat="43.97212" lon="1.88761">
        <ele>234</ele>
        <time>2011-08-17T07:03:00Z</time>
      </trkpt>
      <trkpt lat="43.97213" lon="1.88765">
        <ele>234</ele>
        <time>2011-08-17T07:03:01Z</time>
      </trkpt>
      <trkpt lat="43.97214" lon="1.88768">
        <ele>234</ele>
        <time>2011-08-17T07:03:02Z</time>
      </trkpt>
      <trkpt lat="43.97215" lon="1.88771">
        <ele>234</ele>
        <time>2011-08-17T07:03:03Z</time>
      </trkpt>
      <trkpt lat="43.97216" lon="1.88775">
        <ele>234</ele>
        <time>2011-08-17T07:03:04Z</time>
      </trkpt>
      <trkpt lat="43.97217" lon="1.88778">
        <ele>234</ele>
        <time>2011-08-17T07:03:05Z</time>
      </trkpt>
      <trkpt lat="43.97218" lon="1.88782">
        <ele>234</ele>
        <time>2011-08-17T07:03:06Z</time>
      </trkpt>
      <trkpt lat="43.97219" lon="1.88785">
        <ele>234</ele>
        <time>2011-08-17T07:03:07Z</time>
      </trkpt>
      <trkpt lat="43.97219" lon="1.88789">
        <ele>234</ele>
        <time>2011-08-17T07:03:08Z</time>
      </trkpt>
      <trkpt lat="43.9722" lon="1.88792">
        <ele>234</ele>
        <time>2011-08-17T07:03:09Z</time>
      </trkpt>
      <trkpt lat="43.97221" lon="1.88795">
        <ele>234</ele>
        <time>2011-08-17T07:03:10Z</time>
      </trkpt>
      <trkpt lat="43.97222" lon="1.88798">
        <ele>234</ele>
        <time>2011-08-17T07:03:11Z</time>
      </trkpt>
      <trkpt lat="43.97223" lon="1.88801">
        <ele>234</ele>
        <time>2011-08-17T07:03:12Z</time>
      </trkpt>
      <trkpt lat="43.97223" lon="1.88804">
        <ele>234</ele>
        <time>2011-08-17T07:03:13Z</time>
      </trkpt>
      <trkpt lat="43.97224" lon="1.88807">
        <ele>234</ele>
        <time>2011-08-17T07:03:14Z</time>
      </trkpt>
      <trkpt lat="43.97225" lon="1.88811">
        <ele>234</ele>
        <time>2011-08-17T07:03:15Z</time>
      </trkpt>
      <trkpt lat="43.97226" lon="1.88814">
        <ele>234</ele>
        <time>2011-08-17T07:03:16Z</time>
      </trkpt>
      <trkpt lat="43.97226" lon="1.88817">
        <ele>234</ele>
        <time>2011-08-17T07:03:17Z</time>
      </trkpt>
      <trkpt lat="43.97227" lon="1.8882">
        <ele>234</ele>
        <time>2011-08-17T07:03:18Z</time>
      </trkpt>
      <trkpt lat="43.97228" lon="1.88822">
        <ele>234</ele>
        <time>2011-08-17T07:03:19Z</time>
      </trkpt>
      <trkpt lat="43.97228" lon="1.88825">
        <ele>234</ele>
        <time>2011-08-17T07:03:20Z</time>
      </trkpt>
      <trkpt lat="43.97229" lon="1.88828">
        <ele>234</ele>
        <time>2011-08-17T07:03:21Z</time>
      </trkpt>
      <trkpt lat="43.97229" lon="1.88831">
        <ele>234</ele>
        <time>2011-08-17T07:03:22Z</time>
      </trkpt>
      <trkpt lat="43.9723" lon="1.88835">
        <ele>234</ele>
        <time>2011-08-17T07:03:23Z</time>
      </trkpt>
      <trkpt lat="43.97231" lon="1.88837">
        <ele>234</ele>
        <time>2011-08-17T07:03:24Z</time>
      </trkpt>
      <trkpt lat="43.97232" lon="1.8884">
        <ele>234</ele>
        <time>2011-08-17T07:03:25Z</time>
      </trkpt>
      <trkpt lat="43.97232" lon="1.88843">
        <ele>234</ele>
        <time>2011-08-17T07:03:26Z</time>
      </trkpt>
      <trkpt lat="43.97233" lon="1.88846">
        <ele>234</ele>
        <time>2011-08-17T07:03:27Z</time>
      </trkpt>
      <trkpt lat="43.97234" lon="1.88849">
        <ele>234</ele>
        <time>2011-08-17T07:03:28Z</time>
      </trkpt>
      <trkpt lat="43.97234" lon="1.88853">
        <ele>234</ele>
        <time>2011-08-17T07:03:29Z</time>
      </trkpt>
      <trkpt lat="43.97234" lon="1.88856">
        <ele>234</ele>
        <time>2011-08-17T07:03:30Z</time>
      </trkpt>
      <trkpt lat="43.97235" lon="1.88859">
        <ele>234</ele>
        <time>2011-08-17T07:03:31Z</time>
      </trkpt>
      <trkpt lat="43.97235" lon="1.88862">
        <ele>234</ele>
        <time>2011-08-17T07:03:32Z</time>
      </trkpt>
      <trkpt lat="43.97236" lon="1.88865">
        <ele>234</ele>
        <time>2011-08-17T07:03:33Z</time>
      </trkpt>
      <trkpt lat="43.97237" lon="1.88868">
        <ele>234</ele>
        <time>2011-08-17T07:03:34Z</time>
      </trkpt>
      <trkpt lat="43.97237" lon="1.88871">
        <ele>234</ele>
        <time>2011-08-17T07:03:35Z</time>
      </trkpt>
      <trkpt lat="43.97238" lon="1.88874">
        <ele>234</ele>
        <time>2011-08-17T07:03:36Z</time>
      </trkpt>
      <trkpt lat="43.97239" lon="1.88878">
        <ele>235</ele>
        <time>2011-08-17T07:03:37Z</time>
      </trkpt>
      <trkpt lat="43.97239" lon="1.88881">
        <ele>235</ele>
        <time>2011-08-17T07:03:38Z</time>
      </trkpt>
      <trkpt lat="43.9724" lon="1.88884">
        <ele>235</ele>
        <time>2011-08-17T07:03:39Z</time>
      </trkpt>
      <trkpt lat="43.9724" lon="1.88887">
        <ele>235</ele>
        <time>2011-08-17T07:03:40Z</time>
      </trkpt>
      <trkpt lat="43.97241" lon="1.8889">
        <ele>235</ele>
        <time>2011-08-17T07:03:41Z</time>
      </trkpt>
      <trkpt lat="43.97242" lon="1.88893">
        <ele>235</ele>
        <time>2011-08-17T07:03:42Z</time>
      </trkpt>
      <trkpt lat="43.97242" lon="1.88897">
        <ele>235</ele>
        <time>2011-08-17T07:03:43Z</time>
      </trkpt>
      <trkpt lat="43.97243" lon="1.889">
        <ele>235</ele>
        <time>2011-08-17T07:03:44Z</time>
      </trkpt>
      <trkpt lat="43.97243" lon="1.88903">
        <ele>235</ele>
        <time>2011-08-17T07:03:45Z</time>
      </trkpt>
      <trkpt lat="43.97244" lon="1.88907">
        <ele>235</ele>
        <time>2011-08-17T07:03:46Z</time>
      </trkpt>
      <trkpt lat="43.97245" lon="1.8891">
        <ele>235</ele>
        <time>2011-08-17T07:03:47Z</time>
      </trkpt>
      <trkpt lat="43.97245" lon="1.88913">
        <ele>235</ele>
        <time>2011-08-17T07:03:48Z</time>
      </trkpt>
      <trkpt lat="43.97246" lon="1.88916">
        <ele>235</ele>
        <time>2011-08-17T07:03:49Z</time>
      </trkpt>
      <trkpt lat="43.97246" lon="1.88919">
        <ele>235</ele>
        <time>2011-08-17T07:03:50Z</time>
      </trkpt>
      <trkpt lat="43.97247" lon="1.88922">
        <ele>235</ele>
        <time>2011-08-17T07:03:51Z</time>
      </trkpt>
      <trkpt lat="43.97247" lon="1.88925">
        <ele>235</ele>
        <time>2011-08-17T07:03:52Z</time>
      </trkpt>
      <trkpt lat="43.97247" lon="1.88929">
        <ele>236</ele>
        <time>2011-08-17T07:03:53Z</time>
      </trkpt>
      <trkpt lat="43.97248" lon="1.88932">
        <ele>236</ele>
        <time>2011-08-17T07:03:54Z</time>
      </trkpt>
      <trkpt lat="43.97248" lon="1.88935">
        <ele>236</ele>
        <time>2011-08-17T07:03:55Z</time>
      </trkpt>
      <trkpt lat="43.97249" lon="1.88938">
        <ele>236</ele>
        <time>2011-08-17T07:03:56Z</time>
      </trkpt>
      <trkpt lat="43.97249" lon="1.88942">
        <ele>236</ele>
        <time>2011-08-17T07:03:57Z</time>
      </trkpt>
      <trkpt lat="43.9725" lon="1.88945">
        <ele>236</ele>
        <time>2011-08-17T07:03:58Z</time>
      </trkpt>
      <trkpt lat="43.9725" lon="1.88948">
        <ele>237</ele>
        <time>2011-08-17T07:03:59Z</time>
      </trkpt>
      <trkpt lat="43.97251" lon="1.88952">
        <ele>237</ele>
        <time>2011-08-17T07:04:00Z</time>
      </trkpt>
      <trkpt lat="43.97251" lon="1.88955">
        <ele>237</ele>
        <time>2011-08-17T07:04:01Z</time>
      </trkpt>
      <trkpt lat="43.97252" lon="1.88959">
        <ele>237</ele>
        <time>2011-08-17T07:04:02Z</time>
      </trkpt>
      <trkpt lat="43.97252" lon="1.88962">
        <ele>237</ele>
        <time>2011-08-17T07:04:03Z</time>
      </trkpt>
      <trkpt lat="43.97253" lon="1.88965">
        <ele>237</ele>
        <time>2011-08-17T07:04:04Z</time>
      </trkpt>
      <trkpt lat="43.97254" lon="1.88969">
        <ele>237</ele>
        <time>2011-08-17T07:04:05Z</time>
      </trkpt>
      <trkpt lat="43.97254" lon="1.88972">
        <ele>237</ele>
        <time>2011-08-17T07:04:06Z</time>
      </trkpt>
      <trkpt lat="43.97255" lon="1.88975">
        <ele>237</ele>
        <time>2011-08-17T07:04:07Z</time>
      </trkpt>
      <trkpt lat="43.97255" lon="1.88979">
        <ele>237</ele>
        <time>2011-08-17T07:04:08Z</time>
      </trkpt>
      <trkpt lat="43.97256" lon="1.88982">
        <ele>238</ele>
        <time>2011-08-17T07:04:09Z</time>
      </trkpt>
      <trkpt lat="43.97257" lon="1.88986">
        <ele>238</ele>
        <time>2011-08-17T07:04:10Z</time>
      </trkpt>
      <trkpt lat="43.97257" lon="1.8899">
        <ele>238</ele>
        <time>2011-08-17T07:04:11Z</time>
      </trkpt>
      <trkpt lat="43.97258" lon="1.88993">
        <ele>238</ele>
        <time>2011-08-17T07:04:12Z</time>
      </trkpt>
      <trkpt lat="43.97259" lon="1.88997">
        <ele>238</ele>
        <time>2011-08-17T07:04:13Z</time>
      </trkpt>
      <trkpt lat="43.9726" lon="1.89001">
        <ele>238</ele>
        <time>2011-08-17T07:04:14Z</time>
      </trkpt>
      <trkpt lat="43.97261" lon="1.89004">
        <ele>238</ele>
        <time>2011-08-17T07:04:15Z</time>
      </trkpt>
      <trkpt lat="43.97261" lon="1.89007">
        <ele>238</ele>
        <time>2011-08-17T07:04:16Z</time>
      </trkpt>
      <trkpt lat="43.97262" lon="1.89011">
        <ele>238</ele>
        <time>2011-08-17T07:04:17Z</time>
      </trkpt>
      <trkpt lat="43.97263" lon="1.89014">
        <ele>238</ele>
        <time>2011-08-17T07:04:18Z</time>
      </trkpt>
      <trkpt lat="43.97263" lon="1.89018">
        <ele>238</ele>
        <time>2011-08-17T07:04:19Z</time>
      </trkpt>
      <trkpt lat="43.97264" lon="1.89021">
        <ele>238</ele>
        <time>2011-08-17T07:04:20Z</time>
      </trkpt>
      <trkpt lat="43.97265" lon="1.89025">
        <ele>238</ele>
        <time>2011-08-17T07:04:21Z</time>
      </trkpt>
      <trkpt lat="43.97266" lon="1.89028">
        <ele>238</ele>
        <time>2011-08-17T07:04:22Z</time>
      </trkpt>
      <trkpt lat="43.97266" lon="1.89031">
        <ele>238</ele>
        <time>2011-08-17T07:04:23Z</time>
      </trkpt>
      <trkpt lat="43.97267" lon="1.89034">
        <ele>238</ele>
        <time>2011-08-17T07:04:24Z</time>
      </trkpt>
      <trkpt lat="43.97268" lon="1.89037">
        <ele>238</ele>
        <time>2011-08-17T07:04:25Z</time>
      </trkpt>
      <trkpt lat="43.97269" lon="1.8904">
        <ele>238</ele>
        <time>2011-08-17T07:04:26Z</time>
      </trkpt>
      <trkpt lat="43.97269" lon="1.89043">
        <ele>238</ele>
        <time>2011-08-17T07:04:27Z</time>
      </trkpt>
      <trkpt lat="43.9727" lon="1.89046">
        <ele>238</ele>
        <time>2011-08-17T07:04:28Z</time>
      </trkpt>
      <trkpt lat="43.97271" lon="1.89049">
        <ele>239</ele>
        <time>2011-08-17T07:04:29Z</time>
      </trkpt>
      <trkpt lat="43.97272" lon="1.89051">
        <ele>239</ele>
        <time>2011-08-17T07:04:30Z</time>
      </trkpt>
      <trkpt lat="43.97273" lon="1.89054">
        <ele>239</ele>
        <time>2011-08-17T07:04:31Z</time>
      </trkpt>
      <trkpt lat="43.97274" lon="1.89057">
        <ele>240</ele>
        <time>2011-08-17T07:04:32Z</time>
      </trkpt>
      <trkpt lat="43.97274" lon="1.8906">
        <ele>240</ele>
        <time>2011-08-17T07:04:33Z</time>
      </trkpt>
      <trkpt lat="43.97276" lon="1.89063">
        <ele>240</ele>
        <time>2011-08-17T07:04:34Z</time>
      </trkpt>
      <trkpt lat="43.97277" lon="1.89066">
        <ele>241</ele>
        <time>2011-08-17T07:04:35Z</time>
      </trkpt>
      <trkpt lat="43.97277" lon="1.89068">
        <ele>241</ele>
        <time>2011-08-17T07:04:36Z</time>
      </trkpt>
      <trkpt lat="43.97278" lon="1.89071">
        <ele>241</ele>
        <time>2011-08-17T07:04:37Z</time>
      </trkpt>
      <trkpt lat="43.97279" lon="1.89074">
        <ele>241</ele>
        <time>2011-08-17T07:04:38Z</time>
      </trkpt>
      <trkpt lat="43.9728" lon="1.89077">
        <ele>242</ele>
        <time>2011-08-17T07:04:39Z</time>
      </trkpt>
      <trkpt lat="43.97281" lon="1.89079">
        <ele>242</ele>
        <time>2011-08-17T07:04:40Z</time>
      </trkpt>
      <trkpt lat="43.97282" lon="1.89082">
        <ele>242</ele>
        <time>2011-08-17T07:04:41Z</time>
      </trkpt>
      <trkpt lat="43.97283" lon="1.89085">
        <ele>243</ele>
        <time>2011-08-17T07:04:42Z</time>
      </trkpt>
      <trkpt lat="43.97284" lon="1.89088">
        <ele>243</ele>
        <time>2011-08-17T07:04:43Z</time>
      </trkpt>
      <trkpt lat="43.97285" lon="1.89091">
        <ele>243</ele>
        <time>2011-08-17T07:04:44Z</time>
      </trkpt>
      <trkpt lat="43.97286" lon="1.89093">
        <ele>243</ele>
        <time>2011-08-17T07:04:45Z</time>
      </trkpt>
      <trkpt lat="43.97287" lon="1.89096">
        <ele>244</ele>
        <time>2011-08-17T07:04:46Z</time>
      </trkpt>
      <trkpt lat="43.97288" lon="1.89099">
        <ele>244</ele>
        <time>2011-08-17T07:04:47Z</time>
      </trkpt>
      <trkpt lat="43.9729" lon="1.89102">
        <ele>244</ele>
        <time>2011-08-17T07:04:48Z</time>
      </trkpt>
      <trkpt lat="43.97291" lon="1.89104">
        <ele>245</ele>
        <time>2011-08-17T07:04:49Z</time>
      </trkpt>
      <trkpt lat="43.97292" lon="1.89107">
        <ele>245</ele>
        <time>2011-08-17T07:04:50Z</time>
      </trkpt>
      <trkpt lat="43.97293" lon="1.89109">
        <ele>246</ele>
        <time>2011-08-17T07:04:51Z</time>
      </trkpt>
      <trkpt lat="43.97294" lon="1.89111">
        <ele>246</ele>
        <time>2011-08-17T07:04:52Z</time>
      </trkpt>
      <trkpt lat="43.97295" lon="1.89114">
        <ele>247</ele>
        <time>2011-08-17T07:04:53Z</time>
      </trkpt>
      <trkpt lat="43.97296" lon="1.89117">
        <ele>247</ele>
        <time>2011-08-17T07:04:54Z</time>
      </trkpt>
      <trkpt lat="43.97297" lon="1.8912">
        <ele>247</ele>
        <time>2011-08-17T07:04:55Z</time>
      </trkpt>
      <trkpt lat="43.97298" lon="1.89123">
        <ele>248</ele>
        <time>2011-08-17T07:04:56Z</time>
      </trkpt>
      <trkpt lat="43.97299" lon="1.89126">
        <ele>248</ele>
        <time>2011-08-17T07:04:57Z</time>
      </trkpt>
      <trkpt lat="43.973" lon="1.89128">
        <ele>248</ele>
        <time>2011-08-17T07:04:58Z</time>
      </trkpt>
      <trkpt lat="43.973" lon="1.89131">
        <ele>248</ele>
        <time>2011-08-17T07:04:59Z</time>
      </trkpt>
      <trkpt lat="43.97301" lon="1.89134">
        <ele>249</ele>
        <time>2011-08-17T07:05:00Z</time>
      </trkpt>
      <trkpt lat="43.97302" lon="1.89137">
        <ele>249</ele>
        <time>2011-08-17T07:05:01Z</time>
      </trkpt>
      <trkpt lat="43.97303" lon="1.8914">
        <ele>249</ele>
        <time>2011-08-17T07:05:02Z</time>
      </trkpt>
      <trkpt lat="43.97304" lon="1.89143">
        <ele>249</ele>
        <time>2011-08-17T07:05:03Z</time>
      </trkpt>
      <trkpt lat="43.97305" lon="1.89146">
        <ele>249</ele>
        <time>2011-08-17T07:05:04Z</time>
      </trkpt>
      <trkpt lat="43.97305" lon="1.89149">
        <ele>249</ele>
        <time>2011-08-17T07:05:05Z</time>
      </trkpt>
      <trkpt lat="43.97306" lon="1.89153">
        <ele>249</ele>
        <time>2011-08-17T07:05:06Z</time>
      </trkpt>
      <trkpt lat="43.97306" lon="1.89156">
        <ele>249</ele>
        <time>2011-08-17T07:05:07Z</time>
      </trkpt>
      <trkpt lat="43.97306" lon="1.89159">
        <ele>249</ele>
        <time>2011-08-17T07:05:08Z</time>
      </trkpt>
      <trkpt lat="43.97306" lon="1.89162">
        <ele>250</ele>
        <time>2011-08-17T07:05:09Z</time>
      </trkpt>
      <trkpt lat="43.97306" lon="1.89166">
        <ele>250</ele>
        <time>2011-08-17T07:05:10Z</time>
      </trkpt>
      <trkpt lat="43.97306" lon="1.8917">
        <ele>250</ele>
        <time>2011-08-17T07:05:11Z</time>
      </trkpt>
      <trkpt lat="43.97306" lon="1.89173">
        <ele>250</ele>
        <time>2011-08-17T07:05:12Z</time>
      </trkpt>
      <trkpt lat="43.97306" lon="1.89177">
        <ele>250</ele>
        <time>2011-08-17T07:05:13Z</time>
      </trkpt>
      <trkpt lat="43.97307" lon="1.8918">
        <ele>250</ele>
        <time>2011-08-17T07:05:14Z</time>
      </trkpt>
      <trkpt lat="43.97307" lon="1.89183">
        <ele>250</ele>
        <time>2011-08-17T07:05:15Z</time>
      </trkpt>
      <trkpt lat="43.97307" lon="1.89187">
        <ele>250</ele>
        <time>2011-08-17T07:05:16Z</time>
      </trkpt>
      <trkpt lat="43.97307" lon="1.8919">
        <ele>250</ele>
        <time>2011-08-17T07:05:17Z</time>
      </trkpt>
      <trkpt lat="43.97307" lon="1.89193">
        <ele>250</ele>
        <time>2011-08-17T07:05:18Z</time>
      </trkpt>
      <trkpt lat="43.97307" lon="1.89196">
        <ele>250</ele>
        <time>2011-08-17T07:05:19Z</time>
      </trkpt>
      <trkpt lat="43.97307" lon="1.89199">
        <ele>250</ele>
        <time>2011-08-17T07:05:20Z</time>
      </trkpt>
      <trkpt lat="43.97307" lon="1.89202">
        <ele>250</ele>
        <time>2011-08-17T07:05:21Z</time>
      </trkpt>
      <trkpt lat="43.97308" lon="1.89206">
        <ele>250</ele>
        <time>2011-08-17T07:05:22Z</time>
      </trkpt>
      <trkpt lat="43.97308" lon="1.89209">
        <ele>250</ele>
        <time>2011-08-17T07:05:23Z</time>
      </trkpt>
      <trkpt lat="43.97308" lon="1.89212">
        <ele>250</ele>
        <time>2011-08-17T07:05:24Z</time>
      </trkpt>
      <trkpt lat="43.97308" lon="1.89215">
        <ele>250</ele>
        <time>2011-08-17T07:05:25Z</time>
      </trkpt>
      <trkpt lat="43.97308" lon="1.89218">
        <ele>250</ele>
        <time>2011-08-17T07:05:26Z</time>
      </trkpt>
      <trkpt lat="43.97308" lon="1.89221">
        <ele>250</ele>
        <time>2011-08-17T07:05:27Z</time>
      </trkpt>
      <trkpt lat="43.97308" lon="1.89224">
        <ele>250</ele>
        <time>2011-08-17T07:05:28Z</time>
      </trkpt>
      <trkpt lat="43.97308" lon="1.89227">
        <ele>250</ele>
        <time>2011-08-17T07:05:29Z</time>
      </trkpt>
      <trkpt lat="43.97308" lon="1.89231">
        <ele>250</ele>
        <time>2011-08-17T07:05:30Z</time>
      </trkpt>
      <trkpt lat="43.97308" lon="1.89234">
        <ele>250</ele>
        <time>2011-08-17T07:05:31Z</time>
      </trkpt>
      <trkpt lat="43.97308" lon="1.89237">
        <ele>250</ele>
        <time>2011-08-17T07:05:32Z</time>
      </trkpt>
      <trkpt lat="43.97309" lon="1.8924">
        <ele>250</ele>
        <time>2011-08-17T07:05:33Z</time>
      </trkpt>
      <trkpt lat="43.97309" lon="1.89243">
        <ele>251</ele>
        <time>2011-08-17T07:05:34Z</time>
      </trkpt>
      <trkpt lat="43.97309" lon="1.89247">
        <ele>251</ele>
        <time>2011-08-17T07:05:35Z</time>
      </trkpt>
      <trkpt lat="43.97309" lon="1.8925">
        <ele>251</ele>
        <time>2011-08-17T07:05:36Z</time>
      </trkpt>
      <trkpt lat="43.97309" lon="1.89253">
        <ele>251</ele>
        <time>2011-08-17T07:05:37Z</time>
      </trkpt>
      <trkpt lat="43.97309" lon="1.89256">
        <ele>251</ele>
        <time>2011-08-17T07:05:38Z</time>
      </trkpt>
      <trkpt lat="43.97309" lon="1.89259">
        <ele>251</ele>
        <time>2011-08-17T07:05:39Z</time>
      </trkpt>
      <trkpt lat="43.97309" lon="1.89262">
        <ele>251</ele>
        <time>2011-08-17T07:05:40Z</time>
      </trkpt>
      <trkpt lat="43.97308" lon="1.89265">
        <ele>251</ele>
        <time>2011-08-17T07:05:41Z</time>
      </trkpt>
      <trkpt lat="43.97308" lon="1.89268">
        <ele>251</ele>
        <time>2011-08-17T07:05:42Z</time>
      </trkpt>
      <trkpt lat="43.97308" lon="1.89271">
        <ele>251</ele>
        <time>2011-08-17T07:05:43Z</time>
      </trkpt>
      <trkpt lat="43.97308" lon="1.89273">
        <ele>251</ele>
        <time>2011-08-17T07:05:44Z</time>
      </trkpt>
      <trkpt lat="43.97308" lon="1.89276">
        <ele>252</ele>
        <time>2011-08-17T07:05:45Z</time>
      </trkpt>
      <trkpt lat="43.97308" lon="1.89279">
        <ele>252</ele>
        <time>2011-08-17T07:05:46Z</time>
      </trkpt>
      <trkpt lat="43.97309" lon="1.89282">
        <ele>252</ele>
        <time>2011-08-17T07:05:47Z</time>
      </trkpt>
      <trkpt lat="43.97309" lon="1.89285">
        <ele>252</ele>
        <time>2011-08-17T07:05:48Z</time>
      </trkpt>
      <trkpt lat="43.97309" lon="1.89289">
        <ele>253</ele>
        <time>2011-08-17T07:05:49Z</time>
      </trkpt>
      <trkpt lat="43.97309" lon="1.89292">
        <ele>253</ele>
        <time>2011-08-17T07:05:50Z</time>
      </trkpt>
      <trkpt lat="43.97309" lon="1.89295">
        <ele>253</ele>
        <time>2011-08-17T07:05:51Z</time>
      </trkpt>
      <trkpt lat="43.97309" lon="1.89297">
        <ele>253</ele>
        <time>2011-08-17T07:05:52Z</time>
      </trkpt>
      <trkpt lat="43.97311" lon="1.893">
        <ele>253</ele>
        <time>2011-08-17T07:05:53Z</time>
      </trkpt>
      <trkpt lat="43.97312" lon="1.89303">
        <ele>254</ele>
        <time>2011-08-17T07:05:54Z</time>
      </trkpt>
      <trkpt lat="43.97313" lon="1.89307">
        <ele>254</ele>
        <time>2011-08-17T07:05:55Z</time>
      </trkpt>
      <trkpt lat="43.97314" lon="1.8931">
        <ele>254</ele>
        <time>2011-08-17T07:05:56Z</time>
      </trkpt>
      <trkpt lat="43.97314" lon="1.89314">
        <ele>254</ele>
        <time>2011-08-17T07:05:57Z</time>
      </trkpt>
      <trkpt lat="43.97315" lon="1.89318">
        <ele>254</ele>
        <time>2011-08-17T07:05:58Z</time>
      </trkpt>
      <trkpt lat="43.97316" lon="1.89322">
        <ele>254</ele>
        <time>2011-08-17T07:05:59Z</time>
      </trkpt>
      <trkpt lat="43.97316" lon="1.89325">
        <ele>254</ele>
        <time>2011-08-17T07:06:00Z</time>
      </trkpt>
      <trkpt lat="43.97318" lon="1.89328">
        <ele>254</ele>
        <time>2011-08-17T07:06:01Z</time>
      </trkpt>
      <trkpt lat="43.97319" lon="1.89331">
        <ele>254</ele>
        <time>2011-08-17T07:06:02Z</time>
      </trkpt>
      <trkpt lat="43.9732" lon="1.89333">
        <ele>254</ele>
        <time>2011-08-17T07:06:03Z</time>
      </trkpt>
      <trkpt lat="43.97321" lon="1.89336">
        <ele>255</ele>
        <time>2011-08-17T07:06:04Z</time>
      </trkpt>
      <trkpt lat="43.97322" lon="1.89339">
        <ele>255</ele>
        <time>2011-08-17T07:06:05Z</time>
      </trkpt>
      <trkpt lat="43.97323" lon="1.89341">
        <ele>255</ele>
        <time>2011-08-17T07:06:06Z</time>
      </trkpt>
      <trkpt lat="43.97325" lon="1.89344">
        <ele>256</ele>
        <time>2011-08-17T07:06:07Z</time>
      </trkpt>
      <trkpt lat="43.97326" lon="1.89347">
        <ele>256</ele>
        <time>2011-08-17T07:06:08Z</time>
      </trkpt>
      <trkpt lat="43.97328" lon="1.89349">
        <ele>256</ele>
        <time>2011-08-17T07:06:09Z</time>
      </trkpt>
      <trkpt lat="43.97329" lon="1.89352">
        <ele>256</ele>
        <time>2011-08-17T07:06:10Z</time>
      </trkpt>
      <trkpt lat="43.97331" lon="1.89355">
        <ele>256</ele>
        <time>2011-08-17T07:06:11Z</time>
      </trkpt>
      <trkpt lat="43.97333" lon="1.89358">
        <ele>256</ele>
        <time>2011-08-17T07:06:12Z</time>
      </trkpt>
      <trkpt lat="43.97335" lon="1.89361">
        <ele>256</ele>
        <time>2011-08-17T07:06:13Z</time>
      </trkpt>
      <trkpt lat="43.97337" lon="1.89365">
        <ele>256</ele>
        <time>2011-08-17T07:06:14Z</time>
      </trkpt>
      <trkpt lat="43.9734" lon="1.89368">
        <ele>256</ele>
        <time>2011-08-17T07:06:15Z</time>
      </trkpt>
      <trkpt lat="43.97342" lon="1.89372">
        <ele>256</ele>
        <time>2011-08-17T07:06:16Z</time>
      </trkpt>
      <trkpt lat="43.97344" lon="1.89376">
        <ele>256</ele>
        <time>2011-08-17T07:06:17Z</time>
      </trkpt>
      <trkpt lat="43.97346" lon="1.89379">
        <ele>256</ele>
        <time>2011-08-17T07:06:18Z</time>
      </trkpt>
      <trkpt lat="43.97348" lon="1.89382">
        <ele>256</ele>
        <time>2011-08-17T07:06:19Z</time>
      </trkpt>
      <trkpt lat="43.9735" lon="1.89384">
        <ele>256</ele>
        <time>2011-08-17T07:06:20Z</time>
      </trkpt>
      <trkpt lat="43.97352" lon="1.89386">
        <ele>256</ele>
        <time>2011-08-17T07:06:21Z</time>
      </trkpt>
      <trkpt lat="43.97354" lon="1.89387">
        <ele>256</ele>
        <time>2011-08-17T07:06:22Z</time>
      </trkpt>
      <trkpt lat="43.97356" lon="1.89388">
        <ele>256</ele>
        <time>2011-08-17T07:06:23Z</time>
      </trkpt>
      <trkpt lat="43.97358" lon="1.89389">
        <ele>256</ele>
        <time>2011-08-17T07:06:24Z</time>
      </trkpt>
      <trkpt lat="43.97361" lon="1.8939">
        <ele>256</ele>
        <time>2011-08-17T07:06:25Z</time>
      </trkpt>
      <trkpt lat="43.97364" lon="1.89391">
        <ele>256</ele>
        <time>2011-08-17T07:06:26Z</time>
      </trkpt>
      <trkpt lat="43.97366" lon="1.89393">
        <ele>256</ele>
        <time>2011-08-17T07:06:27Z</time>
      </trkpt>
      <trkpt lat="43.97368" lon="1.89395">
        <ele>256</ele>
        <time>2011-08-17T07:06:28Z</time>
      </trkpt>
      <trkpt lat="43.97372" lon="1.89398">
        <ele>256</ele>
        <time>2011-08-17T07:06:29Z</time>
      </trkpt>
      <trkpt lat="43.97375" lon="1.89401">
        <ele>256</ele>
        <time>2011-08-17T07:06:30Z</time>
      </trkpt>
      <trkpt lat="43.9738" lon="1.89404">
        <ele>256</ele>
        <time>2011-08-17T07:06:31Z</time>
      </trkpt>
      <trkpt lat="43.97385" lon="1.89409">
        <ele>256</ele>
        <time>2011-08-17T07:06:32Z</time>
      </trkpt>
      <trkpt lat="43.97391" lon="1.89413">
        <ele>256</ele>
        <time>2011-08-17T07:06:33Z</time>
      </trkpt>
      <trkpt lat="43.97397" lon="1.89418">
        <ele>256</ele>
        <time>2011-08-17T07:06:34Z</time>
      </trkpt>
      <trkpt lat="43.97403" lon="1.89424">
        <ele>255</ele>
        <time>2011-08-17T07:06:35Z</time>
      </trkpt>
      <trkpt lat="43.97409" lon="1.8943">
        <ele>254</ele>
        <time>2011-08-17T07:06:36Z</time>
      </trkpt>
      <trkpt lat="43.97416" lon="1.89436">
        <ele>254</ele>
        <time>2011-08-17T07:06:37Z</time>
      </trkpt>
      <trkpt lat="43.97423" lon="1.89443">
        <ele>253</ele>
        <time>2011-08-17T07:06:38Z</time>
      </trkpt>
      <trkpt lat="43.9743" lon="1.8945">
        <ele>252</ele>
        <time>2011-08-17T07:06:39Z</time>
      </trkpt>
      <trkpt lat="43.97438" lon="1.89456">
        <ele>251</ele>
        <time>2011-08-17T07:06:40Z</time>
      </trkpt>
      <trkpt lat="43.97446" lon="1.89463">
        <ele>250</ele>
        <time>2011-08-17T07:06:41Z</time>
      </trkpt>
      <trkpt lat="43.97454" lon="1.89471">
        <ele>249</ele>
        <time>2011-08-17T07:06:42Z</time>
      </trkpt>
      <trkpt lat="43.97462" lon="1.89478">
        <ele>248</ele>
        <time>2011-08-17T07:06:43Z</time>
      </trkpt>
      <trkpt lat="43.9747" lon="1.89485">
        <ele>247</ele>
        <time>2011-08-17T07:06:44Z</time>
      </trkpt>
      <trkpt lat="43.97478" lon="1.89492">
        <ele>246</ele>
        <time>2011-08-17T07:06:45Z</time>
      </trkpt>
      <trkpt lat="43.97486" lon="1.89499">
        <ele>245</ele>
        <time>2011-08-17T07:06:46Z</time>
      </trkpt>
      <trkpt lat="43.97493" lon="1.89506">
        <ele>244</ele>
        <time>2011-08-17T07:06:47Z</time>
      </trkpt>
      <trkpt lat="43.97501" lon="1.89514">
        <ele>243</ele>
        <time>2011-08-17T07:06:48Z</time>
      </trkpt>
      <trkpt lat="43.97509" lon="1.89521">
        <ele>243</ele>
        <time>2011-08-17T07:06:49Z</time>
      </trkpt>
      <trkpt lat="43.97516" lon="1.89528">
        <ele>242</ele>
        <time>2011-08-17T07:06:50Z</time>
      </trkpt>
      <trkpt lat="43.97523" lon="1.89535">
        <ele>242</ele>
        <time>2011-08-17T07:06:51Z</time>
      </trkpt>
      <trkpt lat="43.9753" lon="1.89543">
        <ele>241</ele>
        <time>2011-08-17T07:06:52Z</time>
      </trkpt>
      <trkpt lat="43.97535" lon="1.8955">
        <ele>241</ele>
        <time>2011-08-17T07:06:53Z</time>
      </trkpt>
      <trkpt lat="43.97541" lon="1.89558">
        <ele>241</ele>
        <time>2011-08-17T07:06:54Z</time>
      </trkpt>
      <trkpt lat="43.97546" lon="1.89567">
        <ele>240</ele>
        <time>2011-08-17T07:06:55Z</time>
      </trkpt>
      <trkpt lat="43.9755" lon="1.89575">
        <ele>240</ele>
        <time>2011-08-17T07:06:56Z</time>
      </trkpt>
      <trkpt lat="43.97554" lon="1.89583">
        <ele>240</ele>
        <time>2011-08-17T07:06:57Z</time>
      </trkpt>
      <trkpt lat="43.97558" lon="1.8959">
        <ele>239</ele>
        <time>2011-08-17T07:06:58Z</time>
      </trkpt>
      <trkpt lat="43.97562" lon="1.89597">
        <ele>239</ele>
        <time>2011-08-17T07:06:59Z</time>
      </trkpt>
      <trkpt lat="43.97566" lon="1.89604">
        <ele>239</ele>
        <time>2011-08-17T07:07:00Z</time>
      </trkpt>
      <trkpt lat="43.9757" lon="1.89611">
        <ele>238</ele>
        <time>2011-08-17T07:07:01Z</time>
      </trkpt>
      <trkpt lat="43.97573" lon="1.89618">
        <ele>238</ele>
        <time>2011-08-17T07:07:02Z</time>
      </trkpt>
      <trkpt lat="43.97576" lon="1.89625">
        <ele>237</ele>
        <time>2011-08-17T07:07:03Z</time>
      </trkpt>
      <trkpt lat="43.9758" lon="1.89632">
        <ele>237</ele>
        <time>2011-08-17T07:07:04Z</time>
      </trkpt>
      <trkpt lat="43.97582" lon="1.89639">
        <ele>236</ele>
        <time>2011-08-17T07:07:05Z</time>
      </trkpt>
      <trkpt lat="43.97585" lon="1.89647">
        <ele>236</ele>
        <time>2011-08-17T07:07:06Z</time>
      </trkpt>
      <trkpt lat="43.97587" lon="1.89654">
        <ele>236</ele>
        <time>2011-08-17T07:07:07Z</time>
      </trkpt>
      <trkpt lat="43.9759" lon="1.89661">
        <ele>235</ele>
        <time>2011-08-17T07:07:08Z</time>
      </trkpt>
      <trkpt lat="43.97593" lon="1.89668">
        <ele>235</ele>
        <time>2011-08-17T07:07:09Z</time>
      </trkpt>
      <trkpt lat="43.97595" lon="1.89675">
        <ele>234</ele>
        <time>2011-08-17T07:07:10Z</time>
      </trkpt>
      <trkpt lat="43.97598" lon="1.89683">
        <ele>234</ele>
        <time>2011-08-17T07:07:11Z</time>
      </trkpt>
      <trkpt lat="43.97601" lon="1.89691">
        <ele>233</ele>
        <time>2011-08-17T07:07:12Z</time>
      </trkpt>
      <trkpt lat="43.97604" lon="1.89699">
        <ele>233</ele>
        <time>2011-08-17T07:07:13Z</time>
      </trkpt>
      <trkpt lat="43.97608" lon="1.89707">
        <ele>232</ele>
        <time>2011-08-17T07:07:14Z</time>
      </trkpt>
      <trkpt lat="43.97612" lon="1.89715">
        <ele>231</ele>
        <time>2011-08-17T07:07:15Z</time>
      </trkpt>
      <trkpt lat="43.97617" lon="1.89723">
        <ele>230</ele>
        <time>2011-08-17T07:07:16Z</time>
      </trkpt>
      <trkpt lat="43.97623" lon="1.8973">
        <ele>229</ele>
        <time>2011-08-17T07:07:17Z</time>
      </trkpt>
      <trkpt lat="43.97628" lon="1.89738">
        <ele>229</ele>
        <time>2011-08-17T07:07:18Z</time>
      </trkpt>
      <trkpt lat="43.97634" lon="1.89745">
        <ele>228</ele>
        <time>2011-08-17T07:07:19Z</time>
      </trkpt>
      <trkpt lat="43.9764" lon="1.89753">
        <ele>227</ele>
        <time>2011-08-17T07:07:20Z</time>
      </trkpt>
      <trkpt lat="43.97646" lon="1.8976">
        <ele>227</ele>
        <time>2011-08-17T07:07:21Z</time>
      </trkpt>
      <trkpt lat="43.97652" lon="1.89768">
        <ele>226</ele>
        <time>2011-08-17T07:07:22Z</time>
      </trkpt>
      <trkpt lat="43.97659" lon="1.89776">
        <ele>226</ele>
        <time>2011-08-17T07:07:23Z</time>
      </trkpt>
      <trkpt lat="43.97665" lon="1.89784">
        <ele>225</ele>
        <time>2011-08-17T07:07:24Z</time>
      </trkpt>
      <trkpt lat="43.97673" lon="1.89792">
        <ele>224</ele>
        <time>2011-08-17T07:07:25Z</time>
      </trkpt>
      <trkpt lat="43.9768" lon="1.898">
        <ele>224</ele>
        <time>2011-08-17T07:07:26Z</time>
      </trkpt>
      <trkpt lat="43.97688" lon="1.89809">
        <ele>223</ele>
        <time>2011-08-17T07:07:27Z</time>
      </trkpt>
      <trkpt lat="43.97695" lon="1.89819">
        <ele>222</ele>
        <time>2011-08-17T07:07:28Z</time>
      </trkpt>
      <trkpt lat="43.97701" lon="1.89829">
        <ele>222</ele>
        <time>2011-08-17T07:07:29Z</time>
      </trkpt>
      <trkpt lat="43.97707" lon="1.89838">
        <ele>221</ele>
        <time>2011-08-17T07:07:30Z</time>
      </trkpt>
      <trkpt lat="43.97712" lon="1.89848">
        <ele>221</ele>
        <time>2011-08-17T07:07:31Z</time>
      </trkpt>
      <trkpt lat="43.97717" lon="1.89858">
        <ele>220</ele>
        <time>2011-08-17T07:07:32Z</time>
      </trkpt>
      <trkpt lat="43.97722" lon="1.89867">
        <ele>220</ele>
        <time>2011-08-17T07:07:33Z</time>
      </trkpt>
      <trkpt lat="43.97726" lon="1.89877">
        <ele>220</ele>
        <time>2011-08-17T07:07:34Z</time>
      </trkpt>
      <trkpt lat="43.97731" lon="1.89887">
        <ele>219</ele>
        <time>2011-08-17T07:07:35Z</time>
      </trkpt>
      <trkpt lat="43.97734" lon="1.89897">
        <ele>219</ele>
        <time>2011-08-17T07:07:36Z</time>
      </trkpt>
      <trkpt lat="43.97738" lon="1.89908">
        <ele>218</ele>
        <time>2011-08-17T07:07:37Z</time>
      </trkpt>
      <trkpt lat="43.97741" lon="1.89918">
        <ele>217</ele>
        <time>2011-08-17T07:07:38Z</time>
      </trkpt>
      <trkpt lat="43.97745" lon="1.89928">
        <ele>217</ele>
        <time>2011-08-17T07:07:39Z</time>
      </trkpt>
      <trkpt lat="43.97749" lon="1.89937">
        <ele>216</ele>
        <time>2011-08-17T07:07:40Z</time>
      </trkpt>
      <trkpt lat="43.97754" lon="1.89946">
        <ele>215</ele>
        <time>2011-08-17T07:07:41Z</time>
      </trkpt>
      <trkpt lat="43.97758" lon="1.89954">
        <ele>215</ele>
        <time>2011-08-17T07:07:42Z</time>
      </trkpt>
      <trkpt lat="43.97763" lon="1.89961">
        <ele>215</ele>
        <time>2011-08-17T07:07:43Z</time>
      </trkpt>
      <trkpt lat="43.97767" lon="1.89968">
        <ele>215</ele>
        <time>2011-08-17T07:07:44Z</time>
      </trkpt>
      <trkpt lat="43.97772" lon="1.89975">
        <ele>215</ele>
        <time>2011-08-17T07:07:45Z</time>
      </trkpt>
      <trkpt lat="43.97776" lon="1.89981">
        <ele>215</ele>
        <time>2011-08-17T07:07:46Z</time>
      </trkpt>
      <trkpt lat="43.97781" lon="1.89988">
        <ele>215</ele>
        <time>2011-08-17T07:07:47Z</time>
      </trkpt>
      <trkpt lat="43.97785" lon="1.89995">
        <ele>215</ele>
        <time>2011-08-17T07:07:48Z</time>
      </trkpt>
      <trkpt lat="43.97788" lon="1.90001">
        <ele>215</ele>
        <time>2011-08-17T07:07:49Z</time>
      </trkpt>
      <trkpt lat="43.97792" lon="1.90009">
        <ele>214</ele>
        <time>2011-08-17T07:07:50Z</time>
      </trkpt>
      <trkpt lat="43.97795" lon="1.90016">
        <ele>214</ele>
        <time>2011-08-17T07:07:51Z</time>
      </trkpt>
      <trkpt lat="43.97797" lon="1.90024">
        <ele>213</ele>
        <time>2011-08-17T07:07:52Z</time>
      </trkpt>
      <trkpt lat="43.97799" lon="1.9003">
        <ele>213</ele>
        <time>2011-08-17T07:07:53Z</time>
      </trkpt>
      <trkpt lat="43.97799" lon="1.90036">
        <ele>212</ele>
        <time>2011-08-17T07:07:54Z</time>
      </trkpt>
      <trkpt lat="43.97799" lon="1.90042">
        <ele>212</ele>
        <time>2011-08-17T07:07:55Z</time>
      </trkpt>
      <trkpt lat="43.97797" lon="1.90047">
        <ele>212</ele>
        <time>2011-08-17T07:07:56Z</time>
      </trkpt>
      <trkpt lat="43.97796" lon="1.90051">
        <ele>211</ele>
        <time>2011-08-17T07:07:57Z</time>
      </trkpt>
      <trkpt lat="43.97795" lon="1.90055">
        <ele>211</ele>
        <time>2011-08-17T07:07:58Z</time>
      </trkpt>
      <trkpt lat="43.97794" lon="1.90058">
        <ele>211</ele>
        <time>2011-08-17T07:07:59Z</time>
      </trkpt>
      <trkpt lat="43.97793" lon="1.90061">
        <ele>210</ele>
        <time>2011-08-17T07:08:00Z</time>
      </trkpt>
      <trkpt lat="43.97792" lon="1.90064">
        <ele>210</ele>
        <time>2011-08-17T07:08:01Z</time>
      </trkpt>
      <trkpt lat="43.97791" lon="1.90067">
        <ele>210</ele>
        <time>2011-08-17T07:08:02Z</time>
      </trkpt>
      <trkpt lat="43.9779" lon="1.90069">
        <ele>210</ele>
        <time>2011-08-17T07:08:03Z</time>
      </trkpt>
      <trkpt lat="43.97789" lon="1.90071">
        <ele>210</ele>
        <time>2011-08-17T07:08:04Z</time>
      </trkpt>
      <trkpt lat="43.97789" lon="1.90074">
        <ele>210</ele>
        <time>2011-08-17T07:08:05Z</time>
      </trkpt>
      <trkpt lat="43.97789" lon="1.90076">
        <ele>210</ele>
        <time>2011-08-17T07:08:06Z</time>
      </trkpt>
      <trkpt lat="43.97789" lon="1.90077">
        <ele>210</ele>
        <time>2011-08-17T07:08:07Z</time>
      </trkpt>
      <trkpt lat="43.97788" lon="1.9008">
        <ele>210</ele>
        <time>2011-08-17T07:08:08Z</time>
      </trkpt>
      <trkpt lat="43.97787" lon="1.90083">
        <ele>210</ele>
        <time>2011-08-17T07:08:09Z</time>
      </trkpt>
      <trkpt lat="43.97787" lon="1.90085">
        <ele>210</ele>
        <time>2011-08-17T07:08:10Z</time>
      </trkpt>
      <trkpt lat="43.97787" lon="1.90089">
        <ele>210</ele>
        <time>2011-08-17T07:08:11Z</time>
      </trkpt>
      <trkpt lat="43.97787" lon="1.90093">
        <ele>210</ele>
        <time>2011-08-17T07:08:12Z</time>
      </trkpt>
      <trkpt lat="43.97786" lon="1.90097">
        <ele>210</ele>
        <time>2011-08-17T07:08:13Z</time>
      </trkpt>
      <trkpt lat="43.97787" lon="1.90101">
        <ele>210</ele>
        <time>2011-08-17T07:08:14Z</time>
      </trkpt>
      <trkpt lat="43.97787" lon="1.90105">
        <ele>210</ele>
        <time>2011-08-17T07:08:15Z</time>
      </trkpt>
      <trkpt lat="43.97788" lon="1.90109">
        <ele>210</ele>
        <time>2011-08-17T07:08:16Z</time>
      </trkpt>
      <trkpt lat="43.97788" lon="1.90113">
        <ele>210</ele>
        <time>2011-08-17T07:08:17Z</time>
      </trkpt>
      <trkpt lat="43.97788" lon="1.90119">
        <ele>210</ele>
        <time>2011-08-17T07:08:18Z</time>
      </trkpt>
      <trkpt lat="43.97788" lon="1.90123">
        <ele>210</ele>
        <time>2011-08-17T07:08:19Z</time>
      </trkpt>
      <trkpt lat="43.97786" lon="1.90128">
        <ele>210</ele>
        <time>2011-08-17T07:08:20Z</time>
      </trkpt>
      <trkpt lat="43.97785" lon="1.90132">
        <ele>210</ele>
        <time>2011-08-17T07:08:21Z</time>
      </trkpt>
      <trkpt lat="43.97783" lon="1.90136">
        <ele>210</ele>
        <time>2011-08-17T07:08:22Z</time>
      </trkpt>
      <trkpt lat="43.9778" lon="1.9014">
        <ele>210</ele>
        <time>2011-08-17T07:08:23Z</time>
      </trkpt>
      <trkpt lat="43.97777" lon="1.90143">
        <ele>210</ele>
        <time>2011-08-17T07:08:24Z</time>
      </trkpt>
      <trkpt lat="43.97775" lon="1.90145">
        <ele>210</ele>
        <time>2011-08-17T07:08:25Z</time>
      </trkpt>
      <trkpt lat="43.97772" lon="1.90148">
        <ele>210</ele>
        <time>2011-08-17T07:08:26Z</time>
      </trkpt>
      <trkpt lat="43.97769" lon="1.90151">
        <ele>210</ele>
        <time>2011-08-17T07:08:27Z</time>
      </trkpt>
      <trkpt lat="43.97766" lon="1.90154">
        <ele>210</ele>
        <time>2011-08-17T07:08:28Z</time>
      </trkpt>
      <trkpt lat="43.97764" lon="1.90156">
        <ele>210</ele>
        <time>2011-08-17T07:08:29Z</time>
      </trkpt>
      <trkpt lat="43.97762" lon="1.90159">
        <ele>210</ele>
        <time>2011-08-17T07:08:30Z</time>
      </trkpt>
      <trkpt lat="43.97759" lon="1.90162">
        <ele>210</ele>
        <time>2011-08-17T07:08:31Z</time>
      </trkpt>
      <trkpt lat="43.97756" lon="1.90165">
        <ele>210</ele>
        <time>2011-08-17T07:08:32Z</time>
      </trkpt>
      <trkpt lat="43.97754" lon="1.90167">
        <ele>210</ele>
        <time>2011-08-17T07:08:33Z</time>
      </trkpt>
      <trkpt lat="43.97751" lon="1.9017">
        <ele>210</ele>
        <time>2011-08-17T07:08:34Z</time>
      </trkpt>
      <trkpt lat="43.97749" lon="1.90173">
        <ele>210</ele>
        <time>2011-08-17T07:08:35Z</time>
      </trkpt>
      <trkpt lat="43.97746" lon="1.90175">
        <ele>210</ele>
        <time>2011-08-17T07:08:36Z</time>
      </trkpt>
      <trkpt lat="43.97743" lon="1.90178">
        <ele>210</ele>
        <time>2011-08-17T07:08:37Z</time>
      </trkpt>
      <trkpt lat="43.97739" lon="1.9018">
        <ele>210</ele>
        <time>2011-08-17T07:08:38Z</time>
      </trkpt>
      <trkpt lat="43.97736" lon="1.90182">
        <ele>210</ele>
        <time>2011-08-17T07:08:39Z</time>
      </trkpt>
      <trkpt lat="43.97734" lon="1.90183">
        <ele>210</ele>
        <time>2011-08-17T07:08:40Z</time>
      </trkpt>
      <trkpt lat="43.97734" lon="1.90186">
        <ele>210</ele>
        <time>2011-08-17T07:08:41Z</time>
      </trkpt>
      <trkpt lat="43.97735" lon="1.90187">
        <ele>210</ele>
        <time>2011-08-17T07:08:43Z</time>
      </trkpt>
      <trkpt lat="43.97736" lon="1.90187">
        <ele>210</ele>
        <time>2011-08-17T07:08:44Z</time>
      </trkpt>
      <trkpt lat="43.97738" lon="1.90188">
        <ele>210</ele>
        <time>2011-08-17T07:08:45Z</time>
      </trkpt>
      <trkpt lat="43.97739" lon="1.90188">
        <ele>211</ele>
        <time>2011-08-17T07:08:46Z</time>
      </trkpt>
      <trkpt lat="43.97741" lon="1.90188">
        <ele>211</ele>
        <time>2011-08-17T07:08:47Z</time>
      </trkpt>
      <trkpt lat="43.97743" lon="1.90188">
        <ele>211</ele>
        <time>2011-08-17T07:08:48Z</time>
      </trkpt>
      <trkpt lat="43.97745" lon="1.90187">
        <ele>212</ele>
        <time>2011-08-17T07:08:49Z</time>
      </trkpt>
      <trkpt lat="43.97747" lon="1.90187">
        <ele>212</ele>
        <time>2011-08-17T07:08:50Z</time>
      </trkpt>
      <trkpt lat="43.97749" lon="1.90186">
        <ele>213</ele>
        <time>2011-08-17T07:08:51Z</time>
      </trkpt>
      <trkpt lat="43.97751" lon="1.90185">
        <ele>214</ele>
        <time>2011-08-17T07:08:52Z</time>
      </trkpt>
      <trkpt lat="43.97753" lon="1.90185">
        <ele>214</ele>
        <time>2011-08-17T07:08:53Z</time>
      </trkpt>
      <trkpt lat="43.97755" lon="1.90184">
        <ele>215</ele>
        <time>2011-08-17T07:08:54Z</time>
      </trkpt>
      <trkpt lat="43.97757" lon="1.90183">
        <ele>215</ele>
        <time>2011-08-17T07:08:55Z</time>
      </trkpt>
      <trkpt lat="43.97759" lon="1.90182">
        <ele>216</ele>
        <time>2011-08-17T07:08:56Z</time>
      </trkpt>
      <trkpt lat="43.97762" lon="1.90182">
        <ele>216</ele>
        <time>2011-08-17T07:08:57Z</time>
      </trkpt>
      <trkpt lat="43.97764" lon="1.90181">
        <ele>217</ele>
        <time>2011-08-17T07:08:58Z</time>
      </trkpt>
      <trkpt lat="43.97766" lon="1.9018">
        <ele>217</ele>
        <time>2011-08-17T07:08:59Z</time>
      </trkpt>
      <trkpt lat="43.97768" lon="1.90179">
        <ele>217</ele>
        <time>2011-08-17T07:09:00Z</time>
      </trkpt>
      <trkpt lat="43.9777" lon="1.90179">
        <ele>218</ele>
        <time>2011-08-17T07:09:01Z</time>
      </trkpt>
      <trkpt lat="43.97773" lon="1.90178">
        <ele>218</ele>
        <time>2011-08-17T07:09:02Z</time>
      </trkpt>
      <trkpt lat="43.97776" lon="1.90178">
        <ele>218</ele>
        <time>2011-08-17T07:09:03Z</time>
      </trkpt>
      <trkpt lat="43.97778" lon="1.90176">
        <ele>218</ele>
        <time>2011-08-17T07:09:04Z</time>
      </trkpt>
      <trkpt lat="43.97781" lon="1.90175">
        <ele>219</ele>
        <time>2011-08-17T07:09:05Z</time>
      </trkpt>
      <trkpt lat="43.97783" lon="1.90175">
        <ele>219</ele>
        <time>2011-08-17T07:09:06Z</time>
      </trkpt>
      <trkpt lat="43.97786" lon="1.90174">
        <ele>219</ele>
        <time>2011-08-17T07:09:07Z</time>
      </trkpt>
      <trkpt lat="43.97789" lon="1.90173">
        <ele>220</ele>
        <time>2011-08-17T07:09:08Z</time>
      </trkpt>
      <trkpt lat="43.97791" lon="1.90172">
        <ele>220</ele>
        <time>2011-08-17T07:09:09Z</time>
      </trkpt>
      <trkpt lat="43.97793" lon="1.90172">
        <ele>220</ele>
        <time>2011-08-17T07:09:10Z</time>
      </trkpt>
      <trkpt lat="43.97795" lon="1.90171">
        <ele>220</ele>
        <time>2011-08-17T07:09:11Z</time>
      </trkpt>
      <trkpt lat="43.97797" lon="1.9017">
        <ele>220</ele>
        <time>2011-08-17T07:09:12Z</time>
      </trkpt>
      <trkpt lat="43.97799" lon="1.9017">
        <ele>220</ele>
        <time>2011-08-17T07:09:13Z</time>
      </trkpt>
      <trkpt lat="43.97801" lon="1.9017">
        <ele>220</ele>
        <time>2011-08-17T07:09:14Z</time>
      </trkpt>
      <trkpt lat="43.97804" lon="1.90169">
        <ele>220</ele>
        <time>2011-08-17T07:09:15Z</time>
      </trkpt>
      <trkpt lat="43.97807" lon="1.90168">
        <ele>220</ele>
        <time>2011-08-17T07:09:16Z</time>
      </trkpt>
      <trkpt lat="43.9781" lon="1.90168">
        <ele>220</ele>
        <time>2011-08-17T07:09:17Z</time>
      </trkpt>
      <trkpt lat="43.97813" lon="1.90167">
        <ele>220</ele>
        <time>2011-08-17T07:09:18Z</time>
      </trkpt>
      <trkpt lat="43.97816" lon="1.90166">
        <ele>220</ele>
        <time>2011-08-17T07:09:19Z</time>
      </trkpt>
      <trkpt lat="43.97818" lon="1.90165">
        <ele>220</ele>
        <time>2011-08-17T07:09:20Z</time>
      </trkpt>
      <trkpt lat="43.97821" lon="1.90165">
        <ele>220</ele>
        <time>2011-08-17T07:09:21Z</time>
      </trkpt>
      <trkpt lat="43.97824" lon="1.90164">
        <ele>220</ele>
        <time>2011-08-17T07:09:22Z</time>
      </trkpt>
      <trkpt lat="43.97826" lon="1.90163">
        <ele>220</ele>
        <time>2011-08-17T07:09:23Z</time>
      </trkpt>
      <trkpt lat="43.97827" lon="1.90163">
        <ele>220</ele>
        <time>2011-08-17T07:09:24Z</time>
      </trkpt>
      <trkpt lat="43.97829" lon="1.90162">
        <ele>220</ele>
        <time>2011-08-17T07:09:25Z</time>
      </trkpt>
      <trkpt lat="43.97832" lon="1.90161">
        <ele>220</ele>
        <time>2011-08-17T07:09:26Z</time>
      </trkpt>
      <trkpt lat="43.97834" lon="1.9016">
        <ele>220</ele>
        <time>2011-08-17T07:09:27Z</time>
      </trkpt>
      <trkpt lat="43.97836" lon="1.90159">
        <ele>220</ele>
        <time>2011-08-17T07:09:28Z</time>
      </trkpt>
      <trkpt lat="43.97838" lon="1.90158">
        <ele>220</ele>
        <time>2011-08-17T07:09:29Z</time>
      </trkpt>
      <trkpt lat="43.9784" lon="1.90157">
        <ele>220</ele>
        <time>2011-08-17T07:09:30Z</time>
      </trkpt>
      <trkpt lat="43.97842" lon="1.90156">
        <ele>220</ele>
        <time>2011-08-17T07:09:31Z</time>
      </trkpt>
      <trkpt lat="43.97845" lon="1.90154">
        <ele>220</ele>
        <time>2011-08-17T07:09:32Z</time>
      </trkpt>
      <trkpt lat="43.97849" lon="1.90153">
        <ele>220</ele>
        <time>2011-08-17T07:09:33Z</time>
      </trkpt>
      <trkpt lat="43.97852" lon="1.90152">
        <ele>220</ele>
        <time>2011-08-17T07:09:34Z</time>
      </trkpt>
      <trkpt lat="43.97856" lon="1.90151">
        <ele>220</ele>
        <time>2011-08-17T07:09:35Z</time>
      </trkpt>
      <trkpt lat="43.97859" lon="1.9015">
        <ele>220</ele>
        <time>2011-08-17T07:09:36Z</time>
      </trkpt>
      <trkpt lat="43.97861" lon="1.9015">
        <ele>220</ele>
        <time>2011-08-17T07:09:37Z</time>
      </trkpt>
      <trkpt lat="43.97863" lon="1.9015">
        <ele>220</ele>
        <time>2011-08-17T07:09:38Z</time>
      </trkpt>
      <trkpt lat="43.97865" lon="1.90151">
        <ele>220</ele>
        <time>2011-08-17T07:09:39Z</time>
      </trkpt>
      <trkpt lat="43.97866" lon="1.90151">
        <ele>220</ele>
        <time>2011-08-17T07:09:40Z</time>
      </trkpt>
      <trkpt lat="43.97868" lon="1.90152">
        <ele>220</ele>
        <time>2011-08-17T07:09:41Z</time>
      </trkpt>
      <trkpt lat="43.97871" lon="1.90152">
        <ele>220</ele>
        <time>2011-08-17T07:09:42Z</time>
      </trkpt>
      <trkpt lat="43.97873" lon="1.90152">
        <ele>221</ele>
        <time>2011-08-17T07:09:43Z</time>
      </trkpt>
      <trkpt lat="43.97876" lon="1.90153">
        <ele>222</ele>
        <time>2011-08-17T07:09:44Z</time>
      </trkpt>
      <trkpt lat="43.97879" lon="1.90154">
        <ele>222</ele>
        <time>2011-08-17T07:09:45Z</time>
      </trkpt>
      <trkpt lat="43.97881" lon="1.90154">
        <ele>222</ele>
        <time>2011-08-17T07:09:46Z</time>
      </trkpt>
      <trkpt lat="43.97884" lon="1.90154">
        <ele>222</ele>
        <time>2011-08-17T07:09:47Z</time>
      </trkpt>
      <trkpt lat="43.97886" lon="1.90155">
        <ele>222</ele>
        <time>2011-08-17T07:09:48Z</time>
      </trkpt>
      <trkpt lat="43.97889" lon="1.90155">
        <ele>222</ele>
        <time>2011-08-17T07:09:49Z</time>
      </trkpt>
      <trkpt lat="43.97891" lon="1.90156">
        <ele>223</ele>
        <time>2011-08-17T07:09:50Z</time>
      </trkpt>
      <trkpt lat="43.97893" lon="1.90155">
        <ele>223</ele>
        <time>2011-08-17T07:09:51Z</time>
      </trkpt>
      <trkpt lat="43.97894" lon="1.90154">
        <ele>223</ele>
        <time>2011-08-17T07:09:52Z</time>
      </trkpt>
      <trkpt lat="43.97896" lon="1.90152">
        <ele>223</ele>
        <time>2011-08-17T07:09:54Z</time>
      </trkpt>
      <trkpt lat="43.97898" lon="1.90149">
        <ele>223</ele>
        <time>2011-08-17T07:09:56Z</time>
      </trkpt>
      <trkpt lat="43.97898" lon="1.90147">
        <ele>223</ele>
        <time>2011-08-17T07:09:57Z</time>
      </trkpt>
      <trkpt lat="43.97899" lon="1.90145">
        <ele>223</ele>
        <time>2011-08-17T07:09:58Z</time>
      </trkpt>
      <trkpt lat="43.97899" lon="1.90143">
        <ele>223</ele>
        <time>2011-08-17T07:09:59Z</time>
      </trkpt>
      <trkpt lat="43.979" lon="1.90141">
        <ele>223</ele>
        <time>2011-08-17T07:10:00Z</time>
      </trkpt>
      <trkpt lat="43.97901" lon="1.90139">
        <ele>223</ele>
        <time>2011-08-17T07:10:01Z</time>
      </trkpt>
      <trkpt lat="43.97903" lon="1.90138">
        <ele>223</ele>
        <time>2011-08-17T07:10:02Z</time>
      </trkpt>
      <trkpt lat="43.97905" lon="1.90139">
        <ele>223</ele>
        <time>2011-08-17T07:10:03Z</time>
      </trkpt>
      <trkpt lat="43.97906" lon="1.90139">
        <ele>223</ele>
        <time>2011-08-17T07:10:04Z</time>
      </trkpt>
      <trkpt lat="43.97907" lon="1.90141">
        <ele>223</ele>
        <time>2011-08-17T07:10:05Z</time>
      </trkpt>
      <trkpt lat="43.97908" lon="1.90143">
        <ele>223</ele>
        <time>2011-08-17T07:10:06Z</time>
      </trkpt>
      <trkpt lat="43.97909" lon="1.90145">
        <ele>223</ele>
        <time>2011-08-17T07:10:07Z</time>
      </trkpt>
      <trkpt lat="43.9791" lon="1.90147">
        <ele>223</ele>
        <time>2011-08-17T07:10:08Z</time>
      </trkpt>
      <trkpt lat="43.97912" lon="1.90148">
        <ele>223</ele>
        <time>2011-08-17T07:10:09Z</time>
      </trkpt>
      <trkpt lat="43.97913" lon="1.90149">
        <ele>223</ele>
        <time>2011-08-17T07:10:10Z</time>
      </trkpt>
      <trkpt lat="43.97914" lon="1.90151">
        <ele>223</ele>
        <time>2011-08-17T07:10:11Z</time>
      </trkpt>
      <trkpt lat="43.97916" lon="1.90152">
        <ele>223</ele>
        <time>2011-08-17T07:10:12Z</time>
      </trkpt>
      <trkpt lat="43.97917" lon="1.90153">
        <ele>223</ele>
        <time>2011-08-17T07:10:13Z</time>
      </trkpt>
      <trkpt lat="43.97919" lon="1.90154">
        <ele>223</ele>
        <time>2011-08-17T07:10:15Z</time>
      </trkpt>
      <trkpt lat="43.9792" lon="1.90155">
        <ele>223</ele>
        <time>2011-08-17T07:10:22Z</time>
      </trkpt>
      <trkpt lat="43.97921" lon="1.90155">
        <ele>222</ele>
        <time>2011-08-17T07:10:28Z</time>
      </trkpt>
      <trkpt lat="43.97923" lon="1.90156">
        <ele>221</ele>
        <time>2011-08-17T07:10:44Z</time>
      </trkpt>
      <trkpt lat="43.97924" lon="1.90156">
        <ele>221</ele>
        <time>2011-08-17T07:10:46Z</time>
      </trkpt>
      <trkpt lat="43.97927" lon="1.90157">
        <ele>221</ele>
        <time>2011-08-17T07:10:48Z</time>
      </trkpt>
      <trkpt lat="43.97929" lon="1.90158">
        <ele>221</ele>
        <time>2011-08-17T07:10:49Z</time>
      </trkpt>
      <trkpt lat="43.9793" lon="1.90158">
        <ele>221</ele>
        <time>2011-08-17T07:10:50Z</time>
      </trkpt>
      <trkpt lat="43.97932" lon="1.90159">
        <ele>221</ele>
        <time>2011-08-17T07:10:51Z</time>
      </trkpt>
      <trkpt lat="43.97934" lon="1.90159">
        <ele>221</ele>
        <time>2011-08-17T07:10:52Z</time>
      </trkpt>
      <trkpt lat="43.97935" lon="1.9016">
        <ele>221</ele>
        <time>2011-08-17T07:10:53Z</time>
      </trkpt>
      <trkpt lat="43.97937" lon="1.90161">
        <ele>221</ele>
        <time>2011-08-17T07:10:54Z</time>
      </trkpt>
      <trkpt lat="43.97939" lon="1.90161">
        <ele>221</ele>
        <time>2011-08-17T07:10:55Z</time>
      </trkpt>
      <trkpt lat="43.97941" lon="1.90162">
        <ele>221</ele>
        <time>2011-08-17T07:10:56Z</time>
      </trkpt>
      <trkpt lat="43.97943" lon="1.90163">
        <ele>221</ele>
        <time>2011-08-17T07:10:57Z</time>
      </trkpt>
      <trkpt lat="43.97945" lon="1.90163">
        <ele>221</ele>
        <time>2011-08-17T07:10:58Z</time>
      </trkpt>
      <trkpt lat="43.97947" lon="1.90164">
        <ele>221</ele>
        <time>2011-08-17T07:10:59Z</time>
      </trkpt>
      <trkpt lat="43.97949" lon="1.90164">
        <ele>221</ele>
        <time>2011-08-17T07:11:00Z</time>
      </trkpt>
      <trkpt lat="43.97952" lon="1.90165">
        <ele>221</ele>
        <time>2011-08-17T07:11:01Z</time>
      </trkpt>
      <trkpt lat="43.97954" lon="1.90166">
        <ele>221</ele>
        <time>2011-08-17T07:11:02Z</time>
      </trkpt>
      <trkpt lat="43.97957" lon="1.90167">
        <ele>221</ele>
        <time>2011-08-17T07:11:02Z</time>
      </trkpt>
      <trkpt lat="43.9796" lon="1.90168">
        <ele>221</ele>
        <time>2011-08-17T07:11:03Z</time>
      </trkpt>
      <trkpt lat="43.97963" lon="1.9017">
        <ele>220</ele>
        <time>2011-08-17T07:11:05Z</time>
      </trkpt>
      <trkpt lat="43.97966" lon="1.90172">
        <ele>220</ele>
        <time>2011-08-17T07:11:06Z</time>
      </trkpt>
      <trkpt lat="43.97969" lon="1.90173">
        <ele>220</ele>
        <time>2011-08-17T07:11:07Z</time>
      </trkpt>
      <trkpt lat="43.97973" lon="1.90175">
        <ele>220</ele>
        <time>2011-08-17T07:11:08Z</time>
      </trkpt>
      <trkpt lat="43.97976" lon="1.90177">
        <ele>220</ele>
        <time>2011-08-17T07:11:09Z</time>
      </trkpt>
      <trkpt lat="43.97979" lon="1.90179">
        <ele>220</ele>
        <time>2011-08-17T07:11:09Z</time>
      </trkpt>
      <trkpt lat="43.97981" lon="1.90181">
        <ele>220</ele>
        <time>2011-08-17T07:11:11Z</time>
      </trkpt>
      <trkpt lat="43.97983" lon="1.90183">
        <ele>220</ele>
        <time>2011-08-17T07:11:11Z</time>
      </trkpt>
      <trkpt lat="43.97984" lon="1.90185">
        <ele>220</ele>
        <time>2011-08-17T07:11:13Z</time>
      </trkpt>
      <trkpt lat="43.97986" lon="1.90186">
        <ele>220</ele>
        <time>2011-08-17T07:11:14Z</time>
      </trkpt>
      <trkpt lat="43.97988" lon="1.90188">
        <ele>220</ele>
        <time>2011-08-17T07:11:14Z</time>
      </trkpt>
      <trkpt lat="43.97989" lon="1.90191">
        <ele>220</ele>
        <time>2011-08-17T07:11:16Z</time>
      </trkpt>
      <trkpt lat="43.97991" lon="1.90192">
        <ele>220</ele>
        <time>2011-08-17T07:11:17Z</time>
      </trkpt>
      <trkpt lat="43.97993" lon="1.90194">
        <ele>220</ele>
        <time>2011-08-17T07:11:18Z</time>
      </trkpt>
      <trkpt lat="43.97994" lon="1.90195">
        <ele>220</ele>
        <time>2011-08-17T07:11:18Z</time>
      </trkpt>
      <trkpt lat="43.97995" lon="1.90195">
        <ele>220</ele>
        <time>2011-08-17T07:11:20Z</time>
      </trkpt>
      <trkpt lat="43.97997" lon="1.90193">
        <ele>220</ele>
        <time>2011-08-17T07:11:20Z</time>
      </trkpt>
      <trkpt lat="43.97998" lon="1.90192">
        <ele>220</ele>
        <time>2011-08-17T07:11:22Z</time>
      </trkpt>
      <trkpt lat="43.98" lon="1.9019">
        <ele>220</ele>
        <time>2011-08-17T07:11:23Z</time>
      </trkpt>
      <trkpt lat="43.98002" lon="1.90188">
        <ele>220</ele>
        <time>2011-08-17T07:11:24Z</time>
      </trkpt>
      <trkpt lat="43.98004" lon="1.90186">
        <ele>220</ele>
        <time>2011-08-17T07:11:24Z</time>
      </trkpt>
      <trkpt lat="43.98006" lon="1.90184">
        <ele>220</ele>
        <time>2011-08-17T07:11:26Z</time>
      </trkpt>
      <trkpt lat="43.98008" lon="1.90182">
        <ele>220</ele>
        <time>2011-08-17T07:11:27Z</time>
      </trkpt>
      <trkpt lat="43.98011" lon="1.90181">
        <ele>220</ele>
        <time>2011-08-17T07:11:27Z</time>
      </trkpt>
      <trkpt lat="43.98014" lon="1.90181">
        <ele>220</ele>
        <time>2011-08-17T07:11:29Z</time>
      </trkpt>
      <trkpt lat="43.98016" lon="1.90182">
        <ele>220</ele>
        <time>2011-08-17T07:11:29Z</time>
      </trkpt>
      <trkpt lat="43.98018" lon="1.90182">
        <ele>220</ele>
        <time>2011-08-17T07:11:31Z</time>
      </trkpt>
      <trkpt lat="43.98021" lon="1.90182">
        <ele>220</ele>
        <time>2011-08-17T07:11:32Z</time>
      </trkpt>
      <trkpt lat="43.98024" lon="1.90182">
        <ele>220</ele>
        <time>2011-08-17T07:11:33Z</time>
      </trkpt>
      <trkpt lat="43.98027" lon="1.90182">
        <ele>220</ele>
        <time>2011-08-17T07:11:34Z</time>
      </trkpt>
      <trkpt lat="43.9803" lon="1.90182">
        <ele>220</ele>
        <time>2011-08-17T07:11:34Z</time>
      </trkpt>
      <trkpt lat="43.98032" lon="1.90182">
        <ele>220</ele>
        <time>2011-08-17T07:11:35Z</time>
      </trkpt>
      <trkpt lat="43.98035" lon="1.90181">
        <ele>220</ele>
        <time>2011-08-17T07:11:37Z</time>
      </trkpt>
      <trkpt lat="43.98038" lon="1.90181">
        <ele>220</ele>
        <time>2011-08-17T07:11:38Z</time>
      </trkpt>
      <trkpt lat="43.98041" lon="1.9018">
        <ele>220</ele>
        <time>2011-08-17T07:11:38Z</time>
      </trkpt>
      <trkpt lat="43.98043" lon="1.9018">
        <ele>220</ele>
        <time>2011-08-17T07:11:39Z</time>
      </trkpt>
      <trkpt lat="43.98046" lon="1.90179">
        <ele>220</ele>
        <time>2011-08-17T07:11:41Z</time>
      </trkpt>
      <trkpt lat="43.98048" lon="1.90179">
        <ele>220</ele>
        <time>2011-08-17T07:11:41Z</time>
      </trkpt>
      <trkpt lat="43.9805" lon="1.90178">
        <ele>220</ele>
        <time>2011-08-17T07:11:43Z</time>
      </trkpt>
      <trkpt lat="43.98052" lon="1.90176">
        <ele>220</ele>
        <time>2011-08-17T07:11:44Z</time>
      </trkpt>
      <trkpt lat="43.98054" lon="1.90173">
        <ele>220</ele>
        <time>2011-08-17T07:11:44Z</time>
      </trkpt>
      <trkpt lat="43.98055" lon="1.90171">
        <ele>220</ele>
        <time>2011-08-17T07:11:45Z</time>
      </trkpt>
      <trkpt lat="43.98056" lon="1.90169">
        <ele>220</ele>
        <time>2011-08-17T07:11:47Z</time>
      </trkpt>
      <trkpt lat="43.98057" lon="1.90166">
        <ele>220</ele>
        <time>2011-08-17T07:11:48Z</time>
      </trkpt>
      <trkpt lat="43.98057" lon="1.90162">
        <ele>220</ele>
        <time>2011-08-17T07:11:48Z</time>
      </trkpt>
      <trkpt lat="43.98057" lon="1.90158">
        <ele>220</ele>
        <time>2011-08-17T07:11:50Z</time>
      </trkpt>
      <trkpt lat="43.98056" lon="1.90154">
        <ele>220</ele>
        <time>2011-08-17T07:11:51Z</time>
      </trkpt>
      <trkpt lat="43.98056" lon="1.9015">
        <ele>220</ele>
        <time>2011-08-17T07:11:52Z</time>
      </trkpt>
      <trkpt lat="43.98056" lon="1.90147">
        <ele>220</ele>
        <time>2011-08-17T07:11:53Z</time>
      </trkpt>
      <trkpt lat="43.98057" lon="1.90144">
        <ele>220</ele>
        <time>2011-08-17T07:11:54Z</time>
      </trkpt>
      <trkpt lat="43.98058" lon="1.9014">
        <ele>220</ele>
        <time>2011-08-17T07:11:54Z</time>
      </trkpt>
      <trkpt lat="43.98059" lon="1.90138">
        <ele>220</ele>
        <time>2011-08-17T07:11:56Z</time>
      </trkpt>
      <trkpt lat="43.98059" lon="1.90137">
        <ele>220</ele>
        <time>2011-08-17T07:11:57Z</time>
      </trkpt>
      <trkpt lat="43.98061" lon="1.90135">
        <ele>220</ele>
        <time>2011-08-17T07:11:58Z</time>
      </trkpt>
      <trkpt lat="43.98062" lon="1.90134">
        <ele>220</ele>
        <time>2011-08-17T07:11:58Z</time>
      </trkpt>
      <trkpt lat="43.98063" lon="1.90133">
        <ele>220</ele>
        <time>2011-08-17T07:12:01Z</time>
      </trkpt>
      <trkpt lat="43.98062" lon="1.90131">
        <ele>220</ele>
        <time>2011-08-17T07:12:03Z</time>
      </trkpt>
      <trkpt lat="43.98062" lon="1.90129">
        <ele>220</ele>
        <time>2011-08-17T07:12:04Z</time>
      </trkpt>
      <trkpt lat="43.98063" lon="1.90127">
        <ele>220</ele>
        <time>2011-08-17T07:12:07Z</time>
      </trkpt>
      <trkpt lat="43.98064" lon="1.90126">
        <ele>220</ele>
        <time>2011-08-17T07:12:10Z</time>
      </trkpt>
      <trkpt lat="43.98065" lon="1.90128">
        <ele>220</ele>
        <time>2011-08-17T07:12:12Z</time>
      </trkpt>
      <trkpt lat="43.98067" lon="1.90129">
        <ele>220</ele>
        <time>2011-08-17T07:12:17Z</time>
      </trkpt>
      <trkpt lat="43.98068" lon="1.90129">
        <ele>220</ele>
        <time>2011-08-17T07:12:19Z</time>
      </trkpt>
      <trkpt lat="43.98069" lon="1.90129">
        <ele>220</ele>
        <time>2011-08-17T07:12:22Z</time>
      </trkpt>
      <trkpt lat="43.98071" lon="1.90129">
        <ele>220</ele>
        <time>2011-08-17T07:12:25Z</time>
      </trkpt>
      <trkpt lat="43.98072" lon="1.9013">
        <ele>220</ele>
        <time>2011-08-17T07:12:31Z</time>
      </trkpt>
      <trkpt lat="43.98073" lon="1.9013">
        <ele>220</ele>
        <time>2011-08-17T07:12:38Z</time>
      </trkpt>
      <trkpt lat="43.98074" lon="1.90128">
        <ele>220</ele>
        <time>2011-08-17T07:12:40Z</time>
      </trkpt>
      <trkpt lat="43.98074" lon="1.90127">
        <ele>220</ele>
        <time>2011-08-17T07:12:42Z</time>
      </trkpt>
      <trkpt lat="43.98074" lon="1.90124">
        <ele>220</ele>
        <time>2011-08-17T07:12:43Z</time>
      </trkpt>
      <trkpt lat="43.98073" lon="1.90121">
        <ele>220</ele>
        <time>2011-08-17T07:12:44Z</time>
      </trkpt>
      <trkpt lat="43.98072" lon="1.90118">
        <ele>220</ele>
        <time>2011-08-17T07:12:44Z</time>
      </trkpt>
      <trkpt lat="43.98072" lon="1.90114">
        <ele>220</ele>
        <time>2011-08-17T07:12:46Z</time>
      </trkpt>
      <trkpt lat="43.98071" lon="1.90111">
        <ele>220</ele>
        <time>2011-08-17T07:12:47Z</time>
      </trkpt>
      <trkpt lat="43.98071" lon="1.90109">
        <ele>220</ele>
        <time>2011-08-17T07:12:48Z</time>
      </trkpt>
      <trkpt lat="43.98071" lon="1.90105">
        <ele>220</ele>
        <time>2011-08-17T07:12:48Z</time>
      </trkpt>
      <trkpt lat="43.98072" lon="1.90102">
        <ele>220</ele>
        <time>2011-08-17T07:12:50Z</time>
      </trkpt>
      <trkpt lat="43.98073" lon="1.90099">
        <ele>220</ele>
        <time>2011-08-17T07:12:50Z</time>
      </trkpt>
      <trkpt lat="43.98074" lon="1.90096">
        <ele>220</ele>
        <time>2011-08-17T07:12:51Z</time>
      </trkpt>
      <trkpt lat="43.98075" lon="1.90093">
        <ele>220</ele>
        <time>2011-08-17T07:12:52Z</time>
      </trkpt>
      <trkpt lat="43.98077" lon="1.90089">
        <ele>220</ele>
        <time>2011-08-17T07:12:54Z</time>
      </trkpt>
      <trkpt lat="43.98078" lon="1.90085">
        <ele>220</ele>
        <time>2011-08-17T07:12:54Z</time>
      </trkpt>
      <trkpt lat="43.98079" lon="1.9008">
        <ele>220</ele>
        <time>2011-08-17T07:12:55Z</time>
      </trkpt>
      <trkpt lat="43.98081" lon="1.90075">
        <ele>219</ele>
        <time>2011-08-17T07:12:56Z</time>
      </trkpt>
      <trkpt lat="43.98082" lon="1.90069">
        <ele>219</ele>
        <time>2011-08-17T07:12:57Z</time>
      </trkpt>
      <trkpt lat="43.98083" lon="1.90063">
        <ele>218</ele>
        <time>2011-08-17T07:12:59Z</time>
      </trkpt>
      <trkpt lat="43.98083" lon="1.90057">
        <ele>217</ele>
        <time>2011-08-17T07:13:00Z</time>
      </trkpt>
      <trkpt lat="43.98083" lon="1.90051">
        <ele>216</ele>
        <time>2011-08-17T07:13:00Z</time>
      </trkpt>
      <trkpt lat="43.98083" lon="1.90045">
        <ele>215</ele>
        <time>2011-08-17T07:13:01Z</time>
      </trkpt>
      <trkpt lat="43.98084" lon="1.90039">
        <ele>214</ele>
        <time>2011-08-17T07:13:02Z</time>
      </trkpt>
      <trkpt lat="43.98085" lon="1.90034">
        <ele>213</ele>
        <time>2011-08-17T07:13:04Z</time>
      </trkpt>
      <trkpt lat="43.98086" lon="1.90027">
        <ele>212</ele>
        <time>2011-08-17T07:13:04Z</time>
      </trkpt>
      <trkpt lat="43.98088" lon="1.9002">
        <ele>211</ele>
        <time>2011-08-17T07:13:05Z</time>
      </trkpt>
      <trkpt lat="43.98089" lon="1.90012">
        <ele>210</ele>
        <time>2011-08-17T07:13:06Z</time>
      </trkpt>
      <trkpt lat="43.9809" lon="1.90002">
        <ele>209</ele>
        <time>2011-08-17T07:13:08Z</time>
      </trkpt>
      <trkpt lat="43.9809" lon="1.8999">
        <ele>208</ele>
        <time>2011-08-17T07:13:08Z</time>
      </trkpt>
      <trkpt lat="43.9809" lon="1.89978">
        <ele>207</ele>
        <time>2011-08-17T07:13:10Z</time>
      </trkpt>
      <trkpt lat="43.98089" lon="1.89966">
        <ele>206</ele>
        <time>2011-08-17T07:13:10Z</time>
      </trkpt>
      <trkpt lat="43.98088" lon="1.89954">
        <ele>205</ele>
        <time>2011-08-17T07:13:12Z</time>
      </trkpt>
      <trkpt lat="43.98086" lon="1.89942">
        <ele>204</ele>
        <time>2011-08-17T07:13:12Z</time>
      </trkpt>
      <trkpt lat="43.98083" lon="1.89932">
        <ele>203</ele>
        <time>2011-08-17T07:13:13Z</time>
      </trkpt>
      <trkpt lat="43.9808" lon="1.89922">
        <ele>202</ele>
        <time>2011-08-17T07:13:14Z</time>
      </trkpt>
      <trkpt lat="43.98077" lon="1.89913">
        <ele>201</ele>
        <time>2011-08-17T07:13:16Z</time>
      </trkpt>
      <trkpt lat="43.98074" lon="1.89905">
        <ele>201</ele>
        <time>2011-08-17T07:13:16Z</time>
      </trkpt>
      <trkpt lat="43.98073" lon="1.89898">
        <ele>200</ele>
        <time>2011-08-17T07:13:17Z</time>
      </trkpt>
      <trkpt lat="43.98071" lon="1.89891">
        <ele>200</ele>
        <time>2011-08-17T07:13:18Z</time>
      </trkpt>
      <trkpt lat="43.9807" lon="1.89886">
        <ele>200</ele>
        <time>2011-08-17T07:13:20Z</time>
      </trkpt>
      <trkpt lat="43.98069" lon="1.89885">
        <ele>199</ele>
        <time>2011-08-17T07:13:22Z</time>
      </trkpt>
      <trkpt lat="43.98067" lon="1.89884">
        <ele>199</ele>
        <time>2011-08-17T07:13:22Z</time>
      </trkpt>
      <trkpt lat="43.98066" lon="1.89882">
        <ele>199</ele>
        <time>2011-08-17T07:13:24Z</time>
      </trkpt>
      <trkpt lat="43.98065" lon="1.89881">
        <ele>199</ele>
        <time>2011-08-17T07:13:25Z</time>
      </trkpt>
      <trkpt lat="43.98064" lon="1.89879">
        <ele>199</ele>
        <time>2011-08-17T07:13:27Z</time>
      </trkpt>
      <trkpt lat="43.98063" lon="1.89877">
        <ele>199</ele>
        <time>2011-08-17T07:13:27Z</time>
      </trkpt>
      <trkpt lat="43.98062" lon="1.89874">
        <ele>199</ele>
        <time>2011-08-17T07:13:29Z</time>
      </trkpt>
      <trkpt lat="43.98063" lon="1.89872">
        <ele>199</ele>
        <time>2011-08-17T07:13:30Z</time>
      </trkpt>
      <trkpt lat="43.98064" lon="1.8987">
        <ele>199</ele>
        <time>2011-08-17T07:13:32Z</time>
      </trkpt>
      <trkpt lat="43.98064" lon="1.89868">
        <ele>199</ele>
        <time>2011-08-17T07:13:32Z</time>
      </trkpt>
      <trkpt lat="43.98064" lon="1.89866">
        <ele>199</ele>
        <time>2011-08-17T07:13:33Z</time>
      </trkpt>
      <trkpt lat="43.98064" lon="1.89864">
        <ele>199</ele>
        <time>2011-08-17T07:13:35Z</time>
      </trkpt>
      <trkpt lat="43.98064" lon="1.89861">
        <ele>200</ele>
        <time>2011-08-17T07:13:36Z</time>
      </trkpt>
      <trkpt lat="43.98065" lon="1.89858">
        <ele>201</ele>
        <time>2011-08-17T07:13:37Z</time>
      </trkpt>
      <trkpt lat="43.98065" lon="1.89856">
        <ele>201</ele>
        <time>2011-08-17T07:13:37Z</time>
      </trkpt>
      <trkpt lat="43.98066" lon="1.89853">
        <ele>202</ele>
        <time>2011-08-17T07:13:38Z</time>
      </trkpt>
      <trkpt lat="43.98067" lon="1.8985">
        <ele>202</ele>
        <time>2011-08-17T07:13:40Z</time>
      </trkpt>
      <trkpt lat="43.98067" lon="1.89847">
        <ele>203</ele>
        <time>2011-08-17T07:13:40Z</time>
      </trkpt>
      <trkpt lat="43.98067" lon="1.89844">
        <ele>203</ele>
        <time>2011-08-17T07:13:42Z</time>
      </trkpt>
      <trkpt lat="43.98066" lon="1.89841">
        <ele>203</ele>
        <time>2011-08-17T07:13:42Z</time>
      </trkpt>
      <trkpt lat="43.98067" lon="1.89839">
        <ele>204</ele>
        <time>2011-08-17T07:13:43Z</time>
      </trkpt>
      <trkpt lat="43.98066" lon="1.89838">
        <ele>204</ele>
        <time>2011-08-17T07:13:44Z</time>
      </trkpt>
      <trkpt lat="43.98066" lon="1.89836">
        <ele>204</ele>
        <time>2011-08-17T07:13:45Z</time>
      </trkpt>
      <trkpt lat="43.98066" lon="1.89834">
        <ele>204</ele>
        <time>2011-08-17T07:13:47Z</time>
      </trkpt>
      <trkpt lat="43.98066" lon="1.89832">
        <ele>204</ele>
        <time>2011-08-17T07:13:47Z</time>
      </trkpt>
      <trkpt lat="43.98067" lon="1.8983">
        <ele>204</ele>
        <time>2011-08-17T07:13:48Z</time>
      </trkpt>
      <trkpt lat="43.98068" lon="1.89828">
        <ele>204</ele>
        <time>2011-08-17T07:13:50Z</time>
      </trkpt>
      <trkpt lat="43.98069" lon="1.89825">
        <ele>204</ele>
        <time>2011-08-17T07:13:53Z</time>
      </trkpt>
      <trkpt lat="43.9807" lon="1.89823">
        <ele>204</ele>
        <time>2011-08-17T07:13:54Z</time>
      </trkpt>
      <trkpt lat="43.9807" lon="1.89822">
        <ele>204</ele>
        <time>2011-08-17T07:13:54Z</time>
      </trkpt>
      <trkpt lat="43.98071" lon="1.8982">
        <ele>204</ele>
        <time>2011-08-17T07:13:55Z</time>
      </trkpt>
      <trkpt lat="43.98071" lon="1.89818">
        <ele>204</ele>
        <time>2011-08-17T07:13:57Z</time>
      </trkpt>
      <trkpt lat="43.98071" lon="1.89815">
        <ele>204</ele>
        <time>2011-08-17T07:13:58Z</time>
      </trkpt>
      <trkpt lat="43.98071" lon="1.89813">
        <ele>204</ele>
        <time>2011-08-17T07:13:59Z</time>
      </trkpt>
      <trkpt lat="43.98071" lon="1.89812">
        <ele>204</ele>
        <time>2011-08-17T07:13:59Z</time>
      </trkpt>
      <trkpt lat="43.98071" lon="1.8981">
        <ele>204</ele>
        <time>2011-08-17T07:14:00Z</time>
      </trkpt>
      <trkpt lat="43.98071" lon="1.89808">
        <ele>204</ele>
        <time>2011-08-17T07:14:01Z</time>
      </trkpt>
      <trkpt lat="43.98071" lon="1.89806">
        <ele>204</ele>
        <time>2011-08-17T07:14:03Z</time>
      </trkpt>
      <trkpt lat="43.98072" lon="1.89804">
        <ele>204</ele>
        <time>2011-08-17T07:14:03Z</time>
      </trkpt>
      <trkpt lat="43.98072" lon="1.89803">
        <ele>204</ele>
        <time>2011-08-17T07:14:04Z</time>
      </trkpt>
      <trkpt lat="43.98072" lon="1.89801">
        <ele>204</ele>
        <time>2011-08-17T07:14:05Z</time>
      </trkpt>
      <trkpt lat="43.98073" lon="1.89798">
        <ele>204</ele>
        <time>2011-08-17T07:14:06Z</time>
      </trkpt>
      <trkpt lat="43.98073" lon="1.89796">
        <ele>204</ele>
        <time>2011-08-17T07:14:08Z</time>
      </trkpt>
      <trkpt lat="43.98072" lon="1.89794">
        <ele>204</ele>
        <time>2011-08-17T07:14:08Z</time>
      </trkpt>
      <trkpt lat="43.98073" lon="1.89791">
        <ele>204</ele>
        <time>2011-08-17T07:14:09Z</time>
      </trkpt>
      <trkpt lat="43.98073" lon="1.89789">
        <ele>204</ele>
        <time>2011-08-17T07:14:10Z</time>
      </trkpt>
      <trkpt lat="43.98073" lon="1.89787">
        <ele>204</ele>
        <time>2011-08-17T07:14:11Z</time>
      </trkpt>
      <trkpt lat="43.98074" lon="1.89784">
        <ele>204</ele>
        <time>2011-08-17T07:14:13Z</time>
      </trkpt>
      <trkpt lat="43.98074" lon="1.89782">
        <ele>204</ele>
        <time>2011-08-17T07:14:14Z</time>
      </trkpt>
      <trkpt lat="43.98074" lon="1.89779">
        <ele>204</ele>
        <time>2011-08-17T07:14:14Z</time>
      </trkpt>
      <trkpt lat="43.98075" lon="1.89777">
        <ele>204</ele>
        <time>2011-08-17T07:14:15Z</time>
      </trkpt>
      <trkpt lat="43.98075" lon="1.89774">
        <ele>204</ele>
        <time>2011-08-17T07:14:16Z</time>
      </trkpt>
      <trkpt lat="43.98075" lon="1.89771">
        <ele>204</ele>
        <time>2011-08-17T07:14:18Z</time>
      </trkpt>
      <trkpt lat="43.98077" lon="1.89769">
        <ele>203</ele>
        <time>2011-08-17T07:14:18Z</time>
      </trkpt>
      <trkpt lat="43.98077" lon="1.89766">
        <ele>203</ele>
        <time>2011-08-17T07:14:20Z</time>
      </trkpt>
      <trkpt lat="43.98077" lon="1.89764">
        <ele>203</ele>
        <time>2011-08-17T07:14:20Z</time>
      </trkpt>
      <trkpt lat="43.98078" lon="1.89761">
        <ele>202</ele>
        <time>2011-08-17T07:14:22Z</time>
      </trkpt>
      <trkpt lat="43.98078" lon="1.89759">
        <ele>202</ele>
        <time>2011-08-17T07:14:23Z</time>
      </trkpt>
      <trkpt lat="43.98077" lon="1.89757">
        <ele>202</ele>
        <time>2011-08-17T07:14:23Z</time>
      </trkpt>
      <trkpt lat="43.98078" lon="1.89754">
        <ele>202</ele>
        <time>2011-08-17T07:14:24Z</time>
      </trkpt>
      <trkpt lat="43.98078" lon="1.89753">
        <ele>202</ele>
        <time>2011-08-17T07:14:26Z</time>
      </trkpt>
      <trkpt lat="43.98079" lon="1.89751">
        <ele>202</ele>
        <time>2011-08-17T07:14:26Z</time>
      </trkpt>
      <trkpt lat="43.98079" lon="1.89748">
        <ele>202</ele>
        <time>2011-08-17T07:14:28Z</time>
      </trkpt>
      <trkpt lat="43.98079" lon="1.89746">
        <ele>202</ele>
        <time>2011-08-17T07:14:29Z</time>
      </trkpt>
      <trkpt lat="43.98079" lon="1.89744">
        <ele>202</ele>
        <time>2011-08-17T07:14:29Z</time>
      </trkpt>
      <trkpt lat="43.98079" lon="1.89741">
        <ele>202</ele>
        <time>2011-08-17T07:14:30Z</time>
      </trkpt>
      <trkpt lat="43.9808" lon="1.89739">
        <ele>202</ele>
        <time>2011-08-17T07:14:31Z</time>
      </trkpt>
      <trkpt lat="43.9808" lon="1.89736">
        <ele>202</ele>
        <time>2011-08-17T07:14:33Z</time>
      </trkpt>
      <trkpt lat="43.9808" lon="1.89734">
        <ele>202</ele>
        <time>2011-08-17T07:14:33Z</time>
      </trkpt>
      <trkpt lat="43.9808" lon="1.89731">
        <ele>202</ele>
        <time>2011-08-17T07:14:34Z</time>
      </trkpt>
      <trkpt lat="43.9808" lon="1.89728">
        <ele>202</ele>
        <time>2011-08-17T07:14:35Z</time>
      </trkpt>
      <trkpt lat="43.98081" lon="1.89726">
        <ele>202</ele>
        <time>2011-08-17T07:14:36Z</time>
      </trkpt>
      <trkpt lat="43.98081" lon="1.89724">
        <ele>202</ele>
        <time>2011-08-17T07:14:38Z</time>
      </trkpt>
      <trkpt lat="43.98081" lon="1.89722">
        <ele>202</ele>
        <time>2011-08-17T07:14:38Z</time>
      </trkpt>
      <trkpt lat="43.98082" lon="1.89719">
        <ele>202</ele>
        <time>2011-08-17T07:14:39Z</time>
      </trkpt>
      <trkpt lat="43.98082" lon="1.89717">
        <ele>202</ele>
        <time>2011-08-17T07:14:40Z</time>
      </trkpt>
      <trkpt lat="43.98082" lon="1.89715">
        <ele>202</ele>
        <time>2011-08-17T07:14:41Z</time>
      </trkpt>
      <trkpt lat="43.98083" lon="1.89713">
        <ele>202</ele>
        <time>2011-08-17T07:14:43Z</time>
      </trkpt>
      <trkpt lat="43.98083" lon="1.89711">
        <ele>202</ele>
        <time>2011-08-17T07:14:44Z</time>
      </trkpt>
      <trkpt lat="43.98083" lon="1.89709">
        <ele>202</ele>
        <time>2011-08-17T07:14:44Z</time>
      </trkpt>
      <trkpt lat="43.98084" lon="1.89707">
        <ele>202</ele>
        <time>2011-08-17T07:14:45Z</time>
      </trkpt>
      <trkpt lat="43.98084" lon="1.89705">
        <ele>202</ele>
        <time>2011-08-17T07:14:46Z</time>
      </trkpt>
      <trkpt lat="43.98084" lon="1.89703">
        <ele>202</ele>
        <time>2011-08-17T07:14:48Z</time>
      </trkpt>
      <trkpt lat="43.98084" lon="1.89701">
        <ele>202</ele>
        <time>2011-08-17T07:14:48Z</time>
      </trkpt>
      <trkpt lat="43.98085" lon="1.89699">
        <ele>202</ele>
        <time>2011-08-17T07:14:50Z</time>
      </trkpt>
      <trkpt lat="43.98085" lon="1.89698">
        <ele>202</ele>
        <time>2011-08-17T07:14:51Z</time>
      </trkpt>
      <trkpt lat="43.98085" lon="1.89696">
        <ele>202</ele>
        <time>2011-08-17T07:14:51Z</time>
      </trkpt>
      <trkpt lat="43.98085" lon="1.89693">
        <ele>202</ele>
        <time>2011-08-17T07:14:53Z</time>
      </trkpt>
      <trkpt lat="43.98086" lon="1.89691">
        <ele>202</ele>
        <time>2011-08-17T07:14:54Z</time>
      </trkpt>
      <trkpt lat="43.98086" lon="1.89689">
        <ele>202</ele>
        <time>2011-08-17T07:14:54Z</time>
      </trkpt>
      <trkpt lat="43.98087" lon="1.89686">
        <ele>202</ele>
        <time>2011-08-17T07:14:55Z</time>
      </trkpt>
      <trkpt lat="43.98087" lon="1.89683">
        <ele>202</ele>
        <time>2011-08-17T07:14:56Z</time>
      </trkpt>
      <trkpt lat="43.98087" lon="1.89681">
        <ele>202</ele>
        <time>2011-08-17T07:14:57Z</time>
      </trkpt>
      <trkpt lat="43.98087" lon="1.89679">
        <ele>202</ele>
        <time>2011-08-17T07:14:59Z</time>
      </trkpt>
      <trkpt lat="43.98088" lon="1.89676">
        <ele>202</ele>
        <time>2011-08-17T07:14:59Z</time>
      </trkpt>
      <trkpt lat="43.98088" lon="1.89673">
        <ele>202</ele>
        <time>2011-08-17T07:15:00Z</time>
      </trkpt>
      <trkpt lat="43.98089" lon="1.89671">
        <ele>202</ele>
        <time>2011-08-17T07:15:01Z</time>
      </trkpt>
      <trkpt lat="43.98089" lon="1.89668">
        <ele>202</ele>
        <time>2011-08-17T07:15:02Z</time>
      </trkpt>
      <trkpt lat="43.98089" lon="1.89665">
        <ele>202</ele>
        <time>2011-08-17T07:15:04Z</time>
      </trkpt>
      <trkpt lat="43.9809" lon="1.89663">
        <ele>202</ele>
        <time>2011-08-17T07:15:04Z</time>
      </trkpt>
      <trkpt lat="43.9809" lon="1.8966">
        <ele>202</ele>
        <time>2011-08-17T07:15:05Z</time>
      </trkpt>
      <trkpt lat="43.9809" lon="1.89657">
        <ele>202</ele>
        <time>2011-08-17T07:15:06Z</time>
      </trkpt>
      <trkpt lat="43.98091" lon="1.89655">
        <ele>202</ele>
        <time>2011-08-17T07:15:07Z</time>
      </trkpt>
      <trkpt lat="43.98091" lon="1.89652">
        <ele>202</ele>
        <time>2011-08-17T07:15:09Z</time>
      </trkpt>
      <trkpt lat="43.98091" lon="1.89648">
        <ele>202</ele>
        <time>2011-08-17T07:15:09Z</time>
      </trkpt>
      <trkpt lat="43.98091" lon="1.89645">
        <ele>202</ele>
        <time>2011-08-17T07:15:10Z</time>
      </trkpt>
      <trkpt lat="43.98091" lon="1.89642">
        <ele>202</ele>
        <time>2011-08-17T07:15:11Z</time>
      </trkpt>
      <trkpt lat="43.98091" lon="1.89639">
        <ele>202</ele>
        <time>2011-08-17T07:15:12Z</time>
      </trkpt>
      <trkpt lat="43.9809" lon="1.89636">
        <ele>202</ele>
        <time>2011-08-17T07:15:14Z</time>
      </trkpt>
      <trkpt lat="43.98089" lon="1.89633">
        <ele>202</ele>
        <time>2011-08-17T07:15:14Z</time>
      </trkpt>
      <trkpt lat="43.98089" lon="1.8963">
        <ele>202</ele>
        <time>2011-08-17T07:15:15Z</time>
      </trkpt>
      <trkpt lat="43.98089" lon="1.89627">
        <ele>203</ele>
        <time>2011-08-17T07:15:16Z</time>
      </trkpt>
      <trkpt lat="43.98088" lon="1.89624">
        <ele>203</ele>
        <time>2011-08-17T07:15:17Z</time>
      </trkpt>
      <trkpt lat="43.98088" lon="1.89621">
        <ele>203</ele>
        <time>2011-08-17T07:15:19Z</time>
      </trkpt>
      <trkpt lat="43.98087" lon="1.89618">
        <ele>204</ele>
        <time>2011-08-17T07:15:19Z</time>
      </trkpt>
      <trkpt lat="43.98086" lon="1.89615">
        <ele>204</ele>
        <time>2011-08-17T07:15:20Z</time>
      </trkpt>
      <trkpt lat="43.98085" lon="1.89612">
        <ele>204</ele>
        <time>2011-08-17T07:15:21Z</time>
      </trkpt>
      <trkpt lat="43.98084" lon="1.8961">
        <ele>204</ele>
        <time>2011-08-17T07:15:22Z</time>
      </trkpt>
      <trkpt lat="43.98082" lon="1.89606">
        <ele>204</ele>
        <time>2011-08-17T07:15:24Z</time>
      </trkpt>
      <trkpt lat="43.98081" lon="1.89604">
        <ele>205</ele>
        <time>2011-08-17T07:15:24Z</time>
      </trkpt>
      <trkpt lat="43.9808" lon="1.89601">
        <ele>205</ele>
        <time>2011-08-17T07:15:25Z</time>
      </trkpt>
      <trkpt lat="43.98079" lon="1.89599">
        <ele>206</ele>
        <time>2011-08-17T07:15:26Z</time>
      </trkpt>
      <trkpt lat="43.98078" lon="1.89596">
        <ele>206</ele>
        <time>2011-08-17T07:15:27Z</time>
      </trkpt>
      <trkpt lat="43.98077" lon="1.89593">
        <ele>207</ele>
        <time>2011-08-17T07:15:29Z</time>
      </trkpt>
      <trkpt lat="43.98076" lon="1.8959">
        <ele>207</ele>
        <time>2011-08-17T07:15:29Z</time>
      </trkpt>
      <trkpt lat="43.98075" lon="1.89587">
        <ele>207</ele>
        <time>2011-08-17T07:15:30Z</time>
      </trkpt>
      <trkpt lat="43.98074" lon="1.89584">
        <ele>207</ele>
        <time>2011-08-17T07:15:31Z</time>
      </trkpt>
      <trkpt lat="43.98074" lon="1.89581">
        <ele>207</ele>
        <time>2011-08-17T07:15:32Z</time>
      </trkpt>
      <trkpt lat="43.98073" lon="1.89578">
        <ele>207</ele>
        <time>2011-08-17T07:15:34Z</time>
      </trkpt>
      <trkpt lat="43.98071" lon="1.89575">
        <ele>207</ele>
        <time>2011-08-17T07:15:34Z</time>
      </trkpt>
      <trkpt lat="43.9807" lon="1.89573">
        <ele>207</ele>
        <time>2011-08-17T07:15:35Z</time>
      </trkpt>
      <trkpt lat="43.98068" lon="1.8957">
        <ele>207</ele>
        <time>2011-08-17T07:15:36Z</time>
      </trkpt>
      <trkpt lat="43.98066" lon="1.89567">
        <ele>207</ele>
        <time>2011-08-17T07:15:37Z</time>
      </trkpt>
      <trkpt lat="43.98065" lon="1.89563">
        <ele>207</ele>
        <time>2011-08-17T07:15:39Z</time>
      </trkpt>
      <trkpt lat="43.98064" lon="1.8956">
        <ele>207</ele>
        <time>2011-08-17T07:15:39Z</time>
      </trkpt>
      <trkpt lat="43.98062" lon="1.89556">
        <ele>207</ele>
        <time>2011-08-17T07:15:40Z</time>
      </trkpt>
      <trkpt lat="43.98061" lon="1.89553">
        <ele>207</ele>
        <time>2011-08-17T07:15:41Z</time>
      </trkpt>
      <trkpt lat="43.98059" lon="1.8955">
        <ele>207</ele>
        <time>2011-08-17T07:15:42Z</time>
      </trkpt>
      <trkpt lat="43.98058" lon="1.89547">
        <ele>207</ele>
        <time>2011-08-17T07:15:44Z</time>
      </trkpt>
      <trkpt lat="43.98056" lon="1.89543">
        <ele>207</ele>
        <time>2011-08-17T07:15:44Z</time>
      </trkpt>
      <trkpt lat="43.98054" lon="1.8954">
        <ele>207</ele>
        <time>2011-08-17T07:15:45Z</time>
      </trkpt>
      <trkpt lat="43.98052" lon="1.89536">
        <ele>207</ele>
        <time>2011-08-17T07:15:46Z</time>
      </trkpt>
      <trkpt lat="43.98051" lon="1.89532">
        <ele>207</ele>
        <time>2011-08-17T07:15:47Z</time>
      </trkpt>
      <trkpt lat="43.98048" lon="1.89529">
        <ele>207</ele>
        <time>2011-08-17T07:15:49Z</time>
      </trkpt>
      <trkpt lat="43.98046" lon="1.89526">
        <ele>207</ele>
        <time>2011-08-17T07:15:49Z</time>
      </trkpt>
      <trkpt lat="43.98045" lon="1.89523">
        <ele>207</ele>
        <time>2011-08-17T07:15:51Z</time>
      </trkpt>
      <trkpt lat="43.98043" lon="1.89519">
        <ele>207</ele>
        <time>2011-08-17T07:15:51Z</time>
      </trkpt>
      <trkpt lat="43.98041" lon="1.89515">
        <ele>207</ele>
        <time>2011-08-17T07:15:52Z</time>
      </trkpt>
      <trkpt lat="43.98039" lon="1.89512">
        <ele>207</ele>
        <time>2011-08-17T07:15:54Z</time>
      </trkpt>
      <trkpt lat="43.98037" lon="1.89508">
        <ele>207</ele>
        <time>2011-08-17T07:15:54Z</time>
      </trkpt>
      <trkpt lat="43.98035" lon="1.89505">
        <ele>207</ele>
        <time>2011-08-17T07:15:55Z</time>
      </trkpt>
      <trkpt lat="43.98034" lon="1.895">
        <ele>207</ele>
        <time>2011-08-17T07:15:56Z</time>
      </trkpt>
      <trkpt lat="43.98033" lon="1.89496">
        <ele>207</ele>
        <time>2011-08-17T07:15:57Z</time>
      </trkpt>
      <trkpt lat="43.98033" lon="1.89491">
        <ele>208</ele>
        <time>2011-08-17T07:15:59Z</time>
      </trkpt>
      <trkpt lat="43.98032" lon="1.89486">
        <ele>208</ele>
        <time>2011-08-17T07:16:00Z</time>
      </trkpt>
      <trkpt lat="43.98032" lon="1.8948">
        <ele>208</ele>
        <time>2011-08-17T07:16:00Z</time>
      </trkpt>
      <trkpt lat="43.98032" lon="1.89476">
        <ele>208</ele>
        <time>2011-08-17T07:16:01Z</time>
      </trkpt>
      <trkpt lat="43.98033" lon="1.89471">
        <ele>208</ele>
        <time>2011-08-17T07:16:03Z</time>
      </trkpt>
      <trkpt lat="43.98034" lon="1.89465">
        <ele>208</ele>
        <time>2011-08-17T07:16:04Z</time>
      </trkpt>
      <trkpt lat="43.98035" lon="1.8946">
        <ele>208</ele>
        <time>2011-08-17T07:16:04Z</time>
      </trkpt>
      <trkpt lat="43.98036" lon="1.89455">
        <ele>208</ele>
        <time>2011-08-17T07:16:05Z</time>
      </trkpt>
      <trkpt lat="43.98037" lon="1.89451">
        <ele>208</ele>
        <time>2011-08-17T07:16:06Z</time>
      </trkpt>
      <trkpt lat="43.98038" lon="1.89446">
        <ele>208</ele>
        <time>2011-08-17T07:16:07Z</time>
      </trkpt>
      <trkpt lat="43.9804" lon="1.89441">
        <ele>208</ele>
        <time>2011-08-17T07:16:09Z</time>
      </trkpt>
      <trkpt lat="43.98041" lon="1.89436">
        <ele>208</ele>
        <time>2011-08-17T07:16:09Z</time>
      </trkpt>
      <trkpt lat="43.98042" lon="1.8943">
        <ele>208</ele>
        <time>2011-08-17T07:16:10Z</time>
      </trkpt>
      <trkpt lat="43.98042" lon="1.89425">
        <ele>208</ele>
        <time>2011-08-17T07:16:11Z</time>
      </trkpt>
      <trkpt lat="43.98043" lon="1.8942">
        <ele>208</ele>
        <time>2011-08-17T07:16:12Z</time>
      </trkpt>
      <trkpt lat="43.98043" lon="1.89415">
        <ele>208</ele>
        <time>2011-08-17T07:16:14Z</time>
      </trkpt>
      <trkpt lat="43.98043" lon="1.8941">
        <ele>208</ele>
        <time>2011-08-17T07:16:15Z</time>
      </trkpt>
      <trkpt lat="43.98044" lon="1.89405">
        <ele>208</ele>
        <time>2011-08-17T07:16:15Z</time>
      </trkpt>
      <trkpt lat="43.98044" lon="1.894">
        <ele>208</ele>
        <time>2011-08-17T07:16:16Z</time>
      </trkpt>
      <trkpt lat="43.98044" lon="1.89394">
        <ele>208</ele>
        <time>2011-08-17T07:16:17Z</time>
      </trkpt>
      <trkpt lat="43.98045" lon="1.8939">
        <ele>208</ele>
        <time>2011-08-17T07:16:19Z</time>
      </trkpt>
      <trkpt lat="43.98045" lon="1.89385">
        <ele>208</ele>
        <time>2011-08-17T07:16:19Z</time>
      </trkpt>
      <trkpt lat="43.98046" lon="1.8938">
        <ele>208</ele>
        <time>2011-08-17T07:16:20Z</time>
      </trkpt>
      <trkpt lat="43.98047" lon="1.89376">
        <ele>208</ele>
        <time>2011-08-17T07:16:21Z</time>
      </trkpt>
      <trkpt lat="43.98048" lon="1.89372">
        <ele>208</ele>
        <time>2011-08-17T07:16:22Z</time>
      </trkpt>
      <trkpt lat="43.9805" lon="1.89367">
        <ele>208</ele>
        <time>2011-08-17T07:16:24Z</time>
      </trkpt>
      <trkpt lat="43.98052" lon="1.89363">
        <ele>208</ele>
        <time>2011-08-17T07:16:24Z</time>
      </trkpt>
      <trkpt lat="43.98055" lon="1.89358">
        <ele>208</ele>
        <time>2011-08-17T07:16:25Z</time>
      </trkpt>
      <trkpt lat="43.98057" lon="1.89354">
        <ele>208</ele>
        <time>2011-08-17T07:16:27Z</time>
      </trkpt>
      <trkpt lat="43.9806" lon="1.89349">
        <ele>208</ele>
        <time>2011-08-17T07:16:27Z</time>
      </trkpt>
      <trkpt lat="43.98063" lon="1.89345">
        <ele>208</ele>
        <time>2011-08-17T07:16:29Z</time>
      </trkpt>
      <trkpt lat="43.98066" lon="1.89341">
        <ele>208</ele>
        <time>2011-08-17T07:16:29Z</time>
      </trkpt>
      <trkpt lat="43.98068" lon="1.89338">
        <ele>208</ele>
        <time>2011-08-17T07:16:30Z</time>
      </trkpt>
      <trkpt lat="43.98071" lon="1.89334">
        <ele>208</ele>
        <time>2011-08-17T07:16:32Z</time>
      </trkpt>
      <trkpt lat="43.98073" lon="1.89331">
        <ele>208</ele>
        <time>2011-08-17T07:16:33Z</time>
      </trkpt>
      <trkpt lat="43.98075" lon="1.89328">
        <ele>208</ele>
        <time>2011-08-17T07:16:34Z</time>
      </trkpt>
      <trkpt lat="43.98077" lon="1.89324">
        <ele>208</ele>
        <time>2011-08-17T07:16:34Z</time>
      </trkpt>
      <trkpt lat="43.98079" lon="1.89321">
        <ele>208</ele>
        <time>2011-08-17T07:16:35Z</time>
      </trkpt>
      <trkpt lat="43.98081" lon="1.89318">
        <ele>208</ele>
        <time>2011-08-17T07:16:36Z</time>
      </trkpt>
      <trkpt lat="43.98083" lon="1.89315">
        <ele>208</ele>
        <time>2011-08-17T07:16:37Z</time>
      </trkpt>
      <trkpt lat="43.98085" lon="1.89311">
        <ele>208</ele>
        <time>2011-08-17T07:16:39Z</time>
      </trkpt>
      <trkpt lat="43.98087" lon="1.89308">
        <ele>208</ele>
        <time>2011-08-17T07:16:39Z</time>
      </trkpt>
      <trkpt lat="43.98089" lon="1.89304">
        <ele>208</ele>
        <time>2011-08-17T07:16:40Z</time>
      </trkpt>
      <trkpt lat="43.98091" lon="1.89301">
        <ele>208</ele>
        <time>2011-08-17T07:16:41Z</time>
      </trkpt>
      <trkpt lat="43.98093" lon="1.89297">
        <ele>208</ele>
        <time>2011-08-17T07:16:42Z</time>
      </trkpt>
      <trkpt lat="43.98095" lon="1.89294">
        <ele>208</ele>
        <time>2011-08-17T07:16:44Z</time>
      </trkpt>
      <trkpt lat="43.98096" lon="1.8929">
        <ele>208</ele>
        <time>2011-08-17T07:16:44Z</time>
      </trkpt>
      <trkpt lat="43.98098" lon="1.89286">
        <ele>208</ele>
        <time>2011-08-17T07:16:45Z</time>
      </trkpt>
      <trkpt lat="43.981" lon="1.89282">
        <ele>208</ele>
        <time>2011-08-17T07:16:46Z</time>
      </trkpt>
      <trkpt lat="43.98102" lon="1.89278">
        <ele>208</ele>
        <time>2011-08-17T07:16:47Z</time>
      </trkpt>
      <trkpt lat="43.98104" lon="1.89274">
        <ele>208</ele>
        <time>2011-08-17T07:16:49Z</time>
      </trkpt>
      <trkpt lat="43.98106" lon="1.8927">
        <ele>208</ele>
        <time>2011-08-17T07:16:49Z</time>
      </trkpt>
      <trkpt lat="43.98108" lon="1.89266">
        <ele>208</ele>
        <time>2011-08-17T07:16:50Z</time>
      </trkpt>
      <trkpt lat="43.9811" lon="1.89262">
        <ele>208</ele>
        <time>2011-08-17T07:16:51Z</time>
      </trkpt>
      <trkpt lat="43.98111" lon="1.89259">
        <ele>208</ele>
        <time>2011-08-17T07:16:52Z</time>
      </trkpt>
      <trkpt lat="43.98112" lon="1.89255">
        <ele>208</ele>
        <time>2011-08-17T07:16:54Z</time>
      </trkpt>
      <trkpt lat="43.98111" lon="1.89252">
        <ele>208</ele>
        <time>2011-08-17T07:16:54Z</time>
      </trkpt>
      <trkpt lat="43.9811" lon="1.89249">
        <ele>208</ele>
        <time>2011-08-17T07:16:55Z</time>
      </trkpt>
      <trkpt lat="43.98109" lon="1.89246">
        <ele>208</ele>
        <time>2011-08-17T07:16:56Z</time>
      </trkpt>
      <trkpt lat="43.98108" lon="1.89243">
        <ele>208</ele>
        <time>2011-08-17T07:16:57Z</time>
      </trkpt>
      <trkpt lat="43.98108" lon="1.89239">
        <ele>208</ele>
        <time>2011-08-17T07:16:59Z</time>
      </trkpt>
      <trkpt lat="43.98107" lon="1.89235">
        <ele>208</ele>
        <time>2011-08-17T07:16:59Z</time>
      </trkpt>
      <trkpt lat="43.98106" lon="1.89232">
        <ele>208</ele>
        <time>2011-08-17T07:17:00Z</time>
      </trkpt>
      <trkpt lat="43.98105" lon="1.89228">
        <ele>208</ele>
        <time>2011-08-17T07:17:01Z</time>
      </trkpt>
      <trkpt lat="43.98104" lon="1.89224">
        <ele>208</ele>
        <time>2011-08-17T07:17:02Z</time>
      </trkpt>
      <trkpt lat="43.98103" lon="1.8922">
        <ele>208</ele>
        <time>2011-08-17T07:17:04Z</time>
      </trkpt>
      <trkpt lat="43.98103" lon="1.89217">
        <ele>208</ele>
        <time>2011-08-17T07:17:04Z</time>
      </trkpt>
      <trkpt lat="43.98102" lon="1.89213">
        <ele>208</ele>
        <time>2011-08-17T07:17:05Z</time>
      </trkpt>
      <trkpt lat="43.98101" lon="1.89209">
        <ele>208</ele>
        <time>2011-08-17T07:17:06Z</time>
      </trkpt>
      <trkpt lat="43.981" lon="1.89206">
        <ele>208</ele>
        <time>2011-08-17T07:17:07Z</time>
      </trkpt>
      <trkpt lat="43.98099" lon="1.89201">
        <ele>208</ele>
        <time>2011-08-17T07:17:09Z</time>
      </trkpt>
      <trkpt lat="43.98098" lon="1.89197">
        <ele>208</ele>
        <time>2011-08-17T07:17:09Z</time>
      </trkpt>
      <trkpt lat="43.98097" lon="1.89193">
        <ele>208</ele>
        <time>2011-08-17T07:17:10Z</time>
      </trkpt>
      <trkpt lat="43.98096" lon="1.89189">
        <ele>208</ele>
        <time>2011-08-17T07:17:11Z</time>
      </trkpt>
      <trkpt lat="43.98095" lon="1.89185">
        <ele>208</ele>
        <time>2011-08-17T07:17:12Z</time>
      </trkpt>
      <trkpt lat="43.98094" lon="1.89181">
        <ele>208</ele>
        <time>2011-08-17T07:17:14Z</time>
      </trkpt>
      <trkpt lat="43.98093" lon="1.89177">
        <ele>208</ele>
        <time>2011-08-17T07:17:15Z</time>
      </trkpt>
      <trkpt lat="43.98092" lon="1.89173">
        <ele>208</ele>
        <time>2011-08-17T07:17:15Z</time>
      </trkpt>
      <trkpt lat="43.98092" lon="1.89169">
        <ele>208</ele>
        <time>2011-08-17T07:17:16Z</time>
      </trkpt>
      <trkpt lat="43.9809" lon="1.89165">
        <ele>208</ele>
        <time>2011-08-17T07:17:17Z</time>
      </trkpt>
      <trkpt lat="43.9809" lon="1.89161">
        <ele>208</ele>
        <time>2011-08-17T07:17:19Z</time>
      </trkpt>
      <trkpt lat="43.98089" lon="1.89157">
        <ele>208</ele>
        <time>2011-08-17T07:17:19Z</time>
      </trkpt>
      <trkpt lat="43.98088" lon="1.89153">
        <ele>208</ele>
        <time>2011-08-17T07:17:20Z</time>
      </trkpt>
      <trkpt lat="43.98087" lon="1.89149">
        <ele>208</ele>
        <time>2011-08-17T07:17:21Z</time>
      </trkpt>
      <trkpt lat="43.98087" lon="1.89145">
        <ele>208</ele>
        <time>2011-08-17T07:17:22Z</time>
      </trkpt>
      <trkpt lat="43.98086" lon="1.89141">
        <ele>208</ele>
        <time>2011-08-17T07:17:24Z</time>
      </trkpt>
      <trkpt lat="43.98085" lon="1.89137">
        <ele>208</ele>
        <time>2011-08-17T07:17:24Z</time>
      </trkpt>
      <trkpt lat="43.98085" lon="1.89133">
        <ele>208</ele>
        <time>2011-08-17T07:17:25Z</time>
      </trkpt>
      <trkpt lat="43.98084" lon="1.89128">
        <ele>208</ele>
        <time>2011-08-17T07:17:26Z</time>
      </trkpt>
      <trkpt lat="43.98083" lon="1.89124">
        <ele>208</ele>
        <time>2011-08-17T07:17:28Z</time>
      </trkpt>
      <trkpt lat="43.98082" lon="1.8912">
        <ele>208</ele>
        <time>2011-08-17T07:17:29Z</time>
      </trkpt>
      <trkpt lat="43.98082" lon="1.89115">
        <ele>208</ele>
        <time>2011-08-17T07:17:29Z</time>
      </trkpt>
      <trkpt lat="43.98081" lon="1.89111">
        <ele>208</ele>
        <time>2011-08-17T07:17:30Z</time>
      </trkpt>
      <trkpt lat="43.9808" lon="1.89107">
        <ele>208</ele>
        <time>2011-08-17T07:17:31Z</time>
      </trkpt>
      <trkpt lat="43.9808" lon="1.89102">
        <ele>208</ele>
        <time>2011-08-17T07:17:32Z</time>
      </trkpt>
      <trkpt lat="43.98079" lon="1.89098">
        <ele>208</ele>
        <time>2011-08-17T07:17:34Z</time>
      </trkpt>
      <trkpt lat="43.98079" lon="1.89093">
        <ele>208</ele>
        <time>2011-08-17T07:17:34Z</time>
      </trkpt>
      <trkpt lat="43.98078" lon="1.89089">
        <ele>208</ele>
        <time>2011-08-17T07:17:35Z</time>
      </trkpt>
      <trkpt lat="43.98077" lon="1.89085">
        <ele>208</ele>
        <time>2011-08-17T07:17:36Z</time>
      </trkpt>
      <trkpt lat="43.98077" lon="1.89081">
        <ele>208</ele>
        <time>2011-08-17T07:17:37Z</time>
      </trkpt>
      <trkpt lat="43.98076" lon="1.89076">
        <ele>208</ele>
        <time>2011-08-17T07:17:38Z</time>
      </trkpt>
      <trkpt lat="43.98076" lon="1.89072">
        <ele>208</ele>
        <time>2011-08-17T07:17:39Z</time>
      </trkpt>
      <trkpt lat="43.98075" lon="1.89068">
        <ele>208</ele>
        <time>2011-08-17T07:17:40Z</time>
      </trkpt>
      <trkpt lat="43.98074" lon="1.89064">
        <ele>208</ele>
        <time>2011-08-17T07:17:41Z</time>
      </trkpt>
      <trkpt lat="43.98074" lon="1.89059">
        <ele>208</ele>
        <time>2011-08-17T07:17:42Z</time>
      </trkpt>
      <trkpt lat="43.98073" lon="1.89055">
        <ele>208</ele>
        <time>2011-08-17T07:17:44Z</time>
      </trkpt>
      <trkpt lat="43.98073" lon="1.89051">
        <ele>208</ele>
        <time>2011-08-17T07:17:44Z</time>
      </trkpt>
      <trkpt lat="43.98072" lon="1.89047">
        <ele>208</ele>
        <time>2011-08-17T07:17:45Z</time>
      </trkpt>
      <trkpt lat="43.98071" lon="1.89042">
        <ele>208</ele>
        <time>2011-08-17T07:17:46Z</time>
      </trkpt>
      <trkpt lat="43.98071" lon="1.89038">
        <ele>208</ele>
        <time>2011-08-17T07:17:47Z</time>
      </trkpt>
      <trkpt lat="43.9807" lon="1.89034">
        <ele>208</ele>
        <time>2011-08-17T07:17:49Z</time>
      </trkpt>
      <trkpt lat="43.98069" lon="1.8903">
        <ele>208</ele>
        <time>2011-08-17T07:17:49Z</time>
      </trkpt>
      <trkpt lat="43.98069" lon="1.89026">
        <ele>208</ele>
        <time>2011-08-17T07:17:50Z</time>
      </trkpt>
      <trkpt lat="43.98069" lon="1.89023">
        <ele>208</ele>
        <time>2011-08-17T07:17:51Z</time>
      </trkpt>
      <trkpt lat="43.98068" lon="1.89019">
        <ele>208</ele>
        <time>2011-08-17T07:17:52Z</time>
      </trkpt>
      <trkpt lat="43.98067" lon="1.89015">
        <ele>208</ele>
        <time>2011-08-17T07:17:54Z</time>
      </trkpt>
      <trkpt lat="43.98067" lon="1.89012">
        <ele>208</ele>
        <time>2011-08-17T07:17:54Z</time>
      </trkpt>
      <trkpt lat="43.98066" lon="1.89008">
        <ele>208</ele>
        <time>2011-08-17T07:17:55Z</time>
      </trkpt>
      <trkpt lat="43.98066" lon="1.89005">
        <ele>208</ele>
        <time>2011-08-17T07:17:57Z</time>
      </trkpt>
      <trkpt lat="43.98066" lon="1.89001">
        <ele>208</ele>
        <time>2011-08-17T07:17:57Z</time>
      </trkpt>
      <trkpt lat="43.98066" lon="1.88998">
        <ele>208</ele>
        <time>2011-08-17T07:17:59Z</time>
      </trkpt>
      <trkpt lat="43.98065" lon="1.88995">
        <ele>208</ele>
        <time>2011-08-17T07:17:59Z</time>
      </trkpt>
      <trkpt lat="43.98065" lon="1.88991">
        <ele>208</ele>
        <time>2011-08-17T07:18:00Z</time>
      </trkpt>
      <trkpt lat="43.98064" lon="1.88987">
        <ele>208</ele>
        <time>2011-08-17T07:18:01Z</time>
      </trkpt>
      <trkpt lat="43.98064" lon="1.88984">
        <ele>208</ele>
        <time>2011-08-17T07:18:02Z</time>
      </trkpt>
      <trkpt lat="43.98063" lon="1.8898">
        <ele>208</ele>
        <time>2011-08-17T07:18:04Z</time>
      </trkpt>
      <trkpt lat="43.98063" lon="1.88976">
        <ele>208</ele>
        <time>2011-08-17T07:18:04Z</time>
      </trkpt>
      <trkpt lat="43.98062" lon="1.88972">
        <ele>208</ele>
        <time>2011-08-17T07:18:05Z</time>
      </trkpt>
      <trkpt lat="43.98061" lon="1.88969">
        <ele>208</ele>
        <time>2011-08-17T07:18:06Z</time>
      </trkpt>
      <trkpt lat="43.98061" lon="1.88965">
        <ele>208</ele>
        <time>2011-08-17T07:18:07Z</time>
      </trkpt>
      <trkpt lat="43.9806" lon="1.88962">
        <ele>208</ele>
        <time>2011-08-17T07:18:09Z</time>
      </trkpt>
      <trkpt lat="43.9806" lon="1.88959">
        <ele>208</ele>
        <time>2011-08-17T07:18:10Z</time>
      </trkpt>
      <trkpt lat="43.98059" lon="1.88956">
        <ele>208</ele>
        <time>2011-08-17T07:18:10Z</time>
      </trkpt>
      <trkpt lat="43.98058" lon="1.88953">
        <ele>208</ele>
        <time>2011-08-17T07:18:11Z</time>
      </trkpt>
      <trkpt lat="43.98058" lon="1.8895">
        <ele>208</ele>
        <time>2011-08-17T07:18:12Z</time>
      </trkpt>
      <trkpt lat="43.98057" lon="1.88947">
        <ele>208</ele>
        <time>2011-08-17T07:18:14Z</time>
      </trkpt>
      <trkpt lat="43.98056" lon="1.88944">
        <ele>208</ele>
        <time>2011-08-17T07:18:14Z</time>
      </trkpt>
      <trkpt lat="43.98055" lon="1.88941">
        <ele>209</ele>
        <time>2011-08-17T07:18:15Z</time>
      </trkpt>
      <trkpt lat="43.98053" lon="1.88938">
        <ele>209</ele>
        <time>2011-08-17T07:18:16Z</time>
      </trkpt>
      <trkpt lat="43.98053" lon="1.88935">
        <ele>209</ele>
        <time>2011-08-17T07:18:17Z</time>
      </trkpt>
      <trkpt lat="43.98051" lon="1.88933">
        <ele>209</ele>
        <time>2011-08-17T07:18:18Z</time>
      </trkpt>
      <trkpt lat="43.9805" lon="1.8893">
        <ele>209</ele>
        <time>2011-08-17T07:18:19Z</time>
      </trkpt>
      <trkpt lat="43.98049" lon="1.88927">
        <ele>209</ele>
        <time>2011-08-17T07:18:20Z</time>
      </trkpt>
      <trkpt lat="43.98048" lon="1.88925">
        <ele>209</ele>
        <time>2011-08-17T07:18:21Z</time>
      </trkpt>
      <trkpt lat="43.98046" lon="1.88922">
        <ele>209</ele>
        <time>2011-08-17T07:18:22Z</time>
      </trkpt>
      <trkpt lat="43.98045" lon="1.8892">
        <ele>209</ele>
        <time>2011-08-17T07:18:24Z</time>
      </trkpt>
      <trkpt lat="43.98043" lon="1.88918">
        <ele>209</ele>
        <time>2011-08-17T07:18:24Z</time>
      </trkpt>
      <trkpt lat="43.98041" lon="1.88915">
        <ele>209</ele>
        <time>2011-08-17T07:18:25Z</time>
      </trkpt>
      <trkpt lat="43.9804" lon="1.88913">
        <ele>209</ele>
        <time>2011-08-17T07:18:26Z</time>
      </trkpt>
      <trkpt lat="43.98038" lon="1.88911">
        <ele>209</ele>
        <time>2011-08-17T07:18:27Z</time>
      </trkpt>
      <trkpt lat="43.98036" lon="1.88909">
        <ele>209</ele>
        <time>2011-08-17T07:18:28Z</time>
      </trkpt>
      <trkpt lat="43.98034" lon="1.88908">
        <ele>210</ele>
        <time>2011-08-17T07:18:30Z</time>
      </trkpt>
      <trkpt lat="43.98032" lon="1.88906">
        <ele>210</ele>
        <time>2011-08-17T07:18:30Z</time>
      </trkpt>
      <trkpt lat="43.9803" lon="1.88904">
        <ele>211</ele>
        <time>2011-08-17T07:18:31Z</time>
      </trkpt>
      <trkpt lat="43.98028" lon="1.88902">
        <ele>211</ele>
        <time>2011-08-17T07:18:32Z</time>
      </trkpt>
      <trkpt lat="43.98026" lon="1.889">
        <ele>212</ele>
        <time>2011-08-17T07:18:33Z</time>
      </trkpt>
      <trkpt lat="43.98024" lon="1.88899">
        <ele>212</ele>
        <time>2011-08-17T07:18:34Z</time>
      </trkpt>
      <trkpt lat="43.98023" lon="1.88898">
        <ele>212</ele>
        <time>2011-08-17T07:18:35Z</time>
      </trkpt>
      <trkpt lat="43.98021" lon="1.88896">
        <ele>213</ele>
        <time>2011-08-17T07:18:36Z</time>
      </trkpt>
      <trkpt lat="43.98019" lon="1.88894">
        <ele>213</ele>
        <time>2011-08-17T07:18:37Z</time>
      </trkpt>
      <trkpt lat="43.98019" lon="1.88891">
        <ele>214</ele>
        <time>2011-08-17T07:18:38Z</time>
      </trkpt>
      <trkpt lat="43.9802" lon="1.88888">
        <ele>214</ele>
        <time>2011-08-17T07:18:39Z</time>
      </trkpt>
      <trkpt lat="43.98021" lon="1.88886">
        <ele>214</ele>
        <time>2011-08-17T07:18:40Z</time>
      </trkpt>
      <trkpt lat="43.98024" lon="1.88884">
        <ele>214</ele>
        <time>2011-08-17T07:18:41Z</time>
      </trkpt>
      <trkpt lat="43.98026" lon="1.88882">
        <ele>214</ele>
        <time>2011-08-17T07:18:42Z</time>
      </trkpt>
      <trkpt lat="43.98029" lon="1.8888">
        <ele>214</ele>
        <time>2011-08-17T07:18:43Z</time>
      </trkpt>
      <trkpt lat="43.98032" lon="1.88877">
        <ele>214</ele>
        <time>2011-08-17T07:18:44Z</time>
      </trkpt>
      <trkpt lat="43.98035" lon="1.88875">
        <ele>214</ele>
        <time>2011-08-17T07:18:45Z</time>
      </trkpt>
      <trkpt lat="43.98039" lon="1.88872">
        <ele>214</ele>
        <time>2011-08-17T07:18:46Z</time>
      </trkpt>
      <trkpt lat="43.98042" lon="1.8887">
        <ele>214</ele>
        <time>2011-08-17T07:18:47Z</time>
      </trkpt>
      <trkpt lat="43.98046" lon="1.88867">
        <ele>214</ele>
        <time>2011-08-17T07:18:48Z</time>
      </trkpt>
      <trkpt lat="43.9805" lon="1.88864">
        <ele>214</ele>
        <time>2011-08-17T07:18:50Z</time>
      </trkpt>
      <trkpt lat="43.98054" lon="1.88861">
        <ele>214</ele>
        <time>2011-08-17T07:18:51Z</time>
      </trkpt>
      <trkpt lat="43.98059" lon="1.88858">
        <ele>214</ele>
        <time>2011-08-17T07:18:51Z</time>
      </trkpt>
      <trkpt lat="43.98063" lon="1.88855">
        <ele>214</ele>
        <time>2011-08-17T07:18:52Z</time>
      </trkpt>
      <trkpt lat="43.98068" lon="1.88852">
        <ele>213</ele>
        <time>2011-08-17T07:18:53Z</time>
      </trkpt>
      <trkpt lat="43.98074" lon="1.88849">
        <ele>213</ele>
        <time>2011-08-17T07:18:54Z</time>
      </trkpt>
      <trkpt lat="43.98079" lon="1.88846">
        <ele>212</ele>
        <time>2011-08-17T07:18:55Z</time>
      </trkpt>
      <trkpt lat="43.98084" lon="1.88843">
        <ele>211</ele>
        <time>2011-08-17T07:18:56Z</time>
      </trkpt>
      <trkpt lat="43.9809" lon="1.8884">
        <ele>211</ele>
        <time>2011-08-17T07:18:57Z</time>
      </trkpt>
      <trkpt lat="43.98095" lon="1.88837">
        <ele>210</ele>
        <time>2011-08-17T07:18:58Z</time>
      </trkpt>
      <trkpt lat="43.98102" lon="1.88833">
        <ele>210</ele>
        <time>2011-08-17T07:18:59Z</time>
      </trkpt>
      <trkpt lat="43.98108" lon="1.8883">
        <ele>209</ele>
        <time>2011-08-17T07:19:00Z</time>
      </trkpt>
      <trkpt lat="43.98114" lon="1.88827">
        <ele>209</ele>
        <time>2011-08-17T07:19:01Z</time>
      </trkpt>
      <trkpt lat="43.9812" lon="1.88824">
        <ele>209</ele>
        <time>2011-08-17T07:19:03Z</time>
      </trkpt>
      <trkpt lat="43.98126" lon="1.88821">
        <ele>209</ele>
        <time>2011-08-17T07:19:03Z</time>
      </trkpt>
      <trkpt lat="43.98133" lon="1.8882">
        <ele>209</ele>
        <time>2011-08-17T07:19:04Z</time>
      </trkpt>
      <trkpt lat="43.98141" lon="1.8882">
        <ele>209</ele>
        <time>2011-08-17T07:19:05Z</time>
      </trkpt>
      <trkpt lat="43.98149" lon="1.88822">
        <ele>209</ele>
        <time>2011-08-17T07:19:06Z</time>
      </trkpt>
      <trkpt lat="43.98157" lon="1.88824">
        <ele>209</ele>
        <time>2011-08-17T07:19:07Z</time>
      </trkpt>
      <trkpt lat="43.98165" lon="1.88827">
        <ele>209</ele>
        <time>2011-08-17T07:19:08Z</time>
      </trkpt>
      <trkpt lat="43.98173" lon="1.8883">
        <ele>209</ele>
        <time>2011-08-17T07:19:09Z</time>
      </trkpt>
      <trkpt lat="43.98182" lon="1.88833">
        <ele>209</ele>
        <time>2011-08-17T07:19:10Z</time>
      </trkpt>
      <trkpt lat="43.98191" lon="1.88836">
        <ele>208</ele>
        <time>2011-08-17T07:19:11Z</time>
      </trkpt>
      <trkpt lat="43.982" lon="1.88839">
        <ele>208</ele>
        <time>2011-08-17T07:19:12Z</time>
      </trkpt>
      <trkpt lat="43.98208" lon="1.88842">
        <ele>208</ele>
        <time>2011-08-17T07:19:13Z</time>
      </trkpt>
      <trkpt lat="43.98215" lon="1.88844">
        <ele>208</ele>
        <time>2011-08-17T07:19:14Z</time>
      </trkpt>
      <trkpt lat="43.98222" lon="1.88845">
        <ele>208</ele>
        <time>2011-08-17T07:19:15Z</time>
      </trkpt>
      <trkpt lat="43.98229" lon="1.88845">
        <ele>208</ele>
        <time>2011-08-17T07:19:16Z</time>
      </trkpt>
      <trkpt lat="43.98236" lon="1.88845">
        <ele>208</ele>
        <time>2011-08-17T07:19:17Z</time>
      </trkpt>
      <trkpt lat="43.98243" lon="1.88846">
        <ele>208</ele>
        <time>2011-08-17T07:19:18Z</time>
      </trkpt>
      <trkpt lat="43.98249" lon="1.88846">
        <ele>208</ele>
        <time>2011-08-17T07:19:19Z</time>
      </trkpt>
      <trkpt lat="43.98256" lon="1.88847">
        <ele>208</ele>
        <time>2011-08-17T07:19:20Z</time>
      </trkpt>
      <trkpt lat="43.98262" lon="1.88848">
        <ele>208</ele>
        <time>2011-08-17T07:19:21Z</time>
      </trkpt>
      <trkpt lat="43.98269" lon="1.88848">
        <ele>208</ele>
        <time>2011-08-17T07:19:22Z</time>
      </trkpt>
      <trkpt lat="43.98277" lon="1.88848">
        <ele>208</ele>
        <time>2011-08-17T07:19:23Z</time>
      </trkpt>
      <trkpt lat="43.98283" lon="1.88849">
        <ele>208</ele>
        <time>2011-08-17T07:19:24Z</time>
      </trkpt>
      <trkpt lat="43.9829" lon="1.8885">
        <ele>208</ele>
        <time>2011-08-17T07:19:25Z</time>
      </trkpt>
      <trkpt lat="43.98297" lon="1.88853">
        <ele>208</ele>
        <time>2011-08-17T07:19:26Z</time>
      </trkpt>
      <trkpt lat="43.98305" lon="1.88856">
        <ele>208</ele>
        <time>2011-08-17T07:19:27Z</time>
      </trkpt>
      <trkpt lat="43.98311" lon="1.88858">
        <ele>208</ele>
        <time>2011-08-17T07:19:28Z</time>
      </trkpt>
      <trkpt lat="43.98318" lon="1.88861">
        <ele>208</ele>
        <time>2011-08-17T07:19:29Z</time>
      </trkpt>
      <trkpt lat="43.98325" lon="1.88865">
        <ele>208</ele>
        <time>2011-08-17T07:19:30Z</time>
      </trkpt>
      <trkpt lat="43.98331" lon="1.88868">
        <ele>208</ele>
        <time>2011-08-17T07:19:31Z</time>
      </trkpt>
      <trkpt lat="43.98336" lon="1.88871">
        <ele>208</ele>
        <time>2011-08-17T07:19:32Z</time>
      </trkpt>
      <trkpt lat="43.98342" lon="1.88874">
        <ele>208</ele>
        <time>2011-08-17T07:19:33Z</time>
      </trkpt>
      <trkpt lat="43.98348" lon="1.88877">
        <ele>208</ele>
        <time>2011-08-17T07:19:34Z</time>
      </trkpt>
      <trkpt lat="43.98353" lon="1.88881">
        <ele>208</ele>
        <time>2011-08-17T07:19:35Z</time>
      </trkpt>
      <trkpt lat="43.98358" lon="1.88884">
        <ele>208</ele>
        <time>2011-08-17T07:19:36Z</time>
      </trkpt>
      <trkpt lat="43.98363" lon="1.88888">
        <ele>208</ele>
        <time>2011-08-17T07:19:37Z</time>
      </trkpt>
      <trkpt lat="43.98368" lon="1.88892">
        <ele>208</ele>
        <time>2011-08-17T07:19:38Z</time>
      </trkpt>
      <trkpt lat="43.98373" lon="1.88897">
        <ele>207</ele>
        <time>2011-08-17T07:19:39Z</time>
      </trkpt>
      <trkpt lat="43.98379" lon="1.88902">
        <ele>207</ele>
        <time>2011-08-17T07:19:40Z</time>
      </trkpt>
      <trkpt lat="43.98386" lon="1.88905">
        <ele>206</ele>
        <time>2011-08-17T07:19:41Z</time>
      </trkpt>
      <trkpt lat="43.98392" lon="1.88908">
        <ele>206</ele>
        <time>2011-08-17T07:19:42Z</time>
      </trkpt>
      <trkpt lat="43.98399" lon="1.8891">
        <ele>205</ele>
        <time>2011-08-17T07:19:43Z</time>
      </trkpt>
      <trkpt lat="43.98407" lon="1.88912">
        <ele>205</ele>
        <time>2011-08-17T07:19:44Z</time>
      </trkpt>
      <trkpt lat="43.98414" lon="1.88915">
        <ele>204</ele>
        <time>2011-08-17T07:19:45Z</time>
      </trkpt>
      <trkpt lat="43.98421" lon="1.88918">
        <ele>204</ele>
        <time>2011-08-17T07:19:46Z</time>
      </trkpt>
      <trkpt lat="43.98427" lon="1.88922">
        <ele>203</ele>
        <time>2011-08-17T07:19:47Z</time>
      </trkpt>
      <trkpt lat="43.98433" lon="1.88926">
        <ele>203</ele>
        <time>2011-08-17T07:19:48Z</time>
      </trkpt>
      <trkpt lat="43.98439" lon="1.88931">
        <ele>203</ele>
        <time>2011-08-17T07:19:49Z</time>
      </trkpt>
      <trkpt lat="43.98446" lon="1.88935">
        <ele>203</ele>
        <time>2011-08-17T07:19:51Z</time>
      </trkpt>
      <trkpt lat="43.98452" lon="1.88939">
        <ele>203</ele>
        <time>2011-08-17T07:19:51Z</time>
      </trkpt>
      <trkpt lat="43.98458" lon="1.88944">
        <ele>203</ele>
        <time>2011-08-17T07:19:52Z</time>
      </trkpt>
      <trkpt lat="43.98464" lon="1.88948">
        <ele>203</ele>
        <time>2011-08-17T07:19:53Z</time>
      </trkpt>
      <trkpt lat="43.98471" lon="1.88951">
        <ele>203</ele>
        <time>2011-08-17T07:19:54Z</time>
      </trkpt>
      <trkpt lat="43.98478" lon="1.88953">
        <ele>203</ele>
        <time>2011-08-17T07:19:55Z</time>
      </trkpt>
      <trkpt lat="43.98486" lon="1.88956">
        <ele>203</ele>
        <time>2011-08-17T07:19:56Z</time>
      </trkpt>
      <trkpt lat="43.98494" lon="1.88959">
        <ele>202</ele>
        <time>2011-08-17T07:19:57Z</time>
      </trkpt>
      <trkpt lat="43.98501" lon="1.88962">
        <ele>202</ele>
        <time>2011-08-17T07:19:58Z</time>
      </trkpt>
      <trkpt lat="43.98508" lon="1.88965">
        <ele>202</ele>
        <time>2011-08-17T07:19:59Z</time>
      </trkpt>
      <trkpt lat="43.98515" lon="1.88968">
        <ele>201</ele>
        <time>2011-08-17T07:20:00Z</time>
      </trkpt>
      <trkpt lat="43.98522" lon="1.88971">
        <ele>201</ele>
        <time>2011-08-17T07:20:01Z</time>
      </trkpt>
      <trkpt lat="43.9853" lon="1.88974">
        <ele>200</ele>
        <time>2011-08-17T07:20:02Z</time>
      </trkpt>
      <trkpt lat="43.98537" lon="1.88978">
        <ele>200</ele>
        <time>2011-08-17T07:20:03Z</time>
      </trkpt>
      <trkpt lat="43.98545" lon="1.88981">
        <ele>200</ele>
        <time>2011-08-17T07:20:04Z</time>
      </trkpt>
      <trkpt lat="43.98554" lon="1.88984">
        <ele>199</ele>
        <time>2011-08-17T07:20:05Z</time>
      </trkpt>
      <trkpt lat="43.98563" lon="1.88987">
        <ele>199</ele>
        <time>2011-08-17T07:20:06Z</time>
      </trkpt>
      <trkpt lat="43.98572" lon="1.8899">
        <ele>198</ele>
        <time>2011-08-17T07:20:07Z</time>
      </trkpt>
      <trkpt lat="43.98581" lon="1.88993">
        <ele>198</ele>
        <time>2011-08-17T07:20:08Z</time>
      </trkpt>
      <trkpt lat="43.98591" lon="1.88997">
        <ele>197</ele>
        <time>2011-08-17T07:20:09Z</time>
      </trkpt>
      <trkpt lat="43.98602" lon="1.89001">
        <ele>196</ele>
        <time>2011-08-17T07:20:10Z</time>
      </trkpt>
      <trkpt lat="43.98614" lon="1.89004">
        <ele>195</ele>
        <time>2011-08-17T07:20:11Z</time>
      </trkpt>
      <trkpt lat="43.98626" lon="1.89007">
        <ele>194</ele>
        <time>2011-08-17T07:20:12Z</time>
      </trkpt>
      <trkpt lat="43.98638" lon="1.89011">
        <ele>193</ele>
        <time>2011-08-17T07:20:13Z</time>
      </trkpt>
      <trkpt lat="43.9865" lon="1.89014">
        <ele>192</ele>
        <time>2011-08-17T07:20:14Z</time>
      </trkpt>
      <trkpt lat="43.98661" lon="1.89017">
        <ele>191</ele>
        <time>2011-08-17T07:20:15Z</time>
      </trkpt>
      <trkpt lat="43.98671" lon="1.89021">
        <ele>190</ele>
        <time>2011-08-17T07:20:16Z</time>
      </trkpt>
      <trkpt lat="43.98682" lon="1.89023">
        <ele>189</ele>
        <time>2011-08-17T07:20:17Z</time>
      </trkpt>
      <trkpt lat="43.98692" lon="1.89026">
        <ele>189</ele>
        <time>2011-08-17T07:20:18Z</time>
      </trkpt>
      <trkpt lat="43.98702" lon="1.89029">
        <ele>189</ele>
        <time>2011-08-17T07:20:19Z</time>
      </trkpt>
      <trkpt lat="43.98711" lon="1.89031">
        <ele>189</ele>
        <time>2011-08-17T07:20:20Z</time>
      </trkpt>
      <trkpt lat="43.9872" lon="1.89033">
        <ele>189</ele>
        <time>2011-08-17T07:20:21Z</time>
      </trkpt>
      <trkpt lat="43.98728" lon="1.89035">
        <ele>189</ele>
        <time>2011-08-17T07:20:23Z</time>
      </trkpt>
      <trkpt lat="43.98736" lon="1.89037">
        <ele>189</ele>
        <time>2011-08-17T07:20:23Z</time>
      </trkpt>
      <trkpt lat="43.98744" lon="1.89039">
        <ele>189</ele>
        <time>2011-08-17T07:20:24Z</time>
      </trkpt>
      <trkpt lat="43.98751" lon="1.89042">
        <ele>189</ele>
        <time>2011-08-17T07:20:25Z</time>
      </trkpt>
      <trkpt lat="43.98756" lon="1.89046">
        <ele>189</ele>
        <time>2011-08-17T07:20:27Z</time>
      </trkpt>
      <trkpt lat="43.98761" lon="1.89051">
        <ele>189</ele>
        <time>2011-08-17T07:20:27Z</time>
      </trkpt>
      <trkpt lat="43.98763" lon="1.89058">
        <ele>189</ele>
        <time>2011-08-17T07:20:28Z</time>
      </trkpt>
      <trkpt lat="43.98761" lon="1.89065">
        <ele>189</ele>
        <time>2011-08-17T07:20:30Z</time>
      </trkpt>
      <trkpt lat="43.98757" lon="1.89072">
        <ele>189</ele>
        <time>2011-08-17T07:20:30Z</time>
      </trkpt>
      <trkpt lat="43.98755" lon="1.89077">
        <ele>189</ele>
        <time>2011-08-17T07:20:31Z</time>
      </trkpt>
      <trkpt lat="43.98753" lon="1.89083">
        <ele>189</ele>
        <time>2011-08-17T07:20:32Z</time>
      </trkpt>
      <trkpt lat="43.98751" lon="1.89088">
        <ele>189</ele>
        <time>2011-08-17T07:20:33Z</time>
      </trkpt>
      <trkpt lat="43.98749" lon="1.89093">
        <ele>189</ele>
        <time>2011-08-17T07:20:34Z</time>
      </trkpt>
      <trkpt lat="43.98748" lon="1.89097">
        <ele>189</ele>
        <time>2011-08-17T07:20:35Z</time>
      </trkpt>
      <trkpt lat="43.98747" lon="1.891">
        <ele>189</ele>
        <time>2011-08-17T07:20:36Z</time>
      </trkpt>
      <trkpt lat="43.98747" lon="1.89103">
        <ele>189</ele>
        <time>2011-08-17T07:20:37Z</time>
      </trkpt>
      <trkpt lat="43.98746" lon="1.89106">
        <ele>189</ele>
        <time>2011-08-17T07:20:39Z</time>
      </trkpt>
      <trkpt lat="43.98746" lon="1.89109">
        <ele>189</ele>
        <time>2011-08-17T07:20:39Z</time>
      </trkpt>
      <trkpt lat="43.98745" lon="1.89113">
        <ele>189</ele>
        <time>2011-08-17T07:20:40Z</time>
      </trkpt>
      <trkpt lat="43.98745" lon="1.89115">
        <ele>189</ele>
        <time>2011-08-17T07:20:41Z</time>
      </trkpt>
      <trkpt lat="43.98744" lon="1.89117">
        <ele>189</ele>
        <time>2011-08-17T07:20:42Z</time>
      </trkpt>
      <trkpt lat="43.98744" lon="1.8912">
        <ele>189</ele>
        <time>2011-08-17T07:20:43Z</time>
      </trkpt>
      <trkpt lat="43.98744" lon="1.89122">
        <ele>189</ele>
        <time>2011-08-17T07:20:44Z</time>
      </trkpt>
      <trkpt lat="43.98743" lon="1.89125">
        <ele>189</ele>
        <time>2011-08-17T07:20:45Z</time>
      </trkpt>
      <trkpt lat="43.98743" lon="1.89128">
        <ele>189</ele>
        <time>2011-08-17T07:20:46Z</time>
      </trkpt>
      <trkpt lat="43.98743" lon="1.89131">
        <ele>189</ele>
        <time>2011-08-17T07:20:47Z</time>
      </trkpt>
      <trkpt lat="43.98742" lon="1.89134">
        <ele>189</ele>
        <time>2011-08-17T07:20:48Z</time>
      </trkpt>
      <trkpt lat="43.98742" lon="1.89137">
        <ele>189</ele>
        <time>2011-08-17T07:20:49Z</time>
      </trkpt>
      <trkpt lat="43.98742" lon="1.8914">
        <ele>189</ele>
        <time>2011-08-17T07:20:50Z</time>
      </trkpt>
      <trkpt lat="43.98741" lon="1.89144">
        <ele>189</ele>
        <time>2011-08-17T07:20:51Z</time>
      </trkpt>
      <trkpt lat="43.9874" lon="1.89146">
        <ele>189</ele>
        <time>2011-08-17T07:20:52Z</time>
      </trkpt>
      <trkpt lat="43.9874" lon="1.89149">
        <ele>189</ele>
        <time>2011-08-17T07:20:53Z</time>
      </trkpt>
      <trkpt lat="43.98739" lon="1.89152">
        <ele>189</ele>
        <time>2011-08-17T07:20:54Z</time>
      </trkpt>
      <trkpt lat="43.98739" lon="1.89155">
        <ele>189</ele>
        <time>2011-08-17T07:20:55Z</time>
      </trkpt>
      <trkpt lat="43.98738" lon="1.89159">
        <ele>189</ele>
        <time>2011-08-17T07:20:56Z</time>
      </trkpt>
      <trkpt lat="43.98737" lon="1.89163">
        <ele>189</ele>
        <time>2011-08-17T07:20:57Z</time>
      </trkpt>
      <trkpt lat="43.98737" lon="1.89166">
        <ele>189</ele>
        <time>2011-08-17T07:20:58Z</time>
      </trkpt>
      <trkpt lat="43.98736" lon="1.8917">
        <ele>189</ele>
        <time>2011-08-17T07:20:59Z</time>
      </trkpt>
      <trkpt lat="43.98736" lon="1.89174">
        <ele>189</ele>
        <time>2011-08-17T07:21:00Z</time>
      </trkpt>
      <trkpt lat="43.98736" lon="1.89178">
        <ele>189</ele>
        <time>2011-08-17T07:21:01Z</time>
      </trkpt>
      <trkpt lat="43.98735" lon="1.89182">
        <ele>189</ele>
        <time>2011-08-17T07:21:02Z</time>
      </trkpt>
      <trkpt lat="43.98735" lon="1.89185">
        <ele>190</ele>
        <time>2011-08-17T07:21:03Z</time>
      </trkpt>
      <trkpt lat="43.98734" lon="1.89189">
        <ele>190</ele>
        <time>2011-08-17T07:21:04Z</time>
      </trkpt>
      <trkpt lat="43.98734" lon="1.89192">
        <ele>190</ele>
        <time>2011-08-17T07:21:05Z</time>
      </trkpt>
      <trkpt lat="43.98733" lon="1.89196">
        <ele>190</ele>
        <time>2011-08-17T07:21:06Z</time>
      </trkpt>
      <trkpt lat="43.98732" lon="1.892">
        <ele>190</ele>
        <time>2011-08-17T07:21:07Z</time>
      </trkpt>
      <trkpt lat="43.98731" lon="1.89205">
        <ele>190</ele>
        <time>2011-08-17T07:21:08Z</time>
      </trkpt>
      <trkpt lat="43.9873" lon="1.89208">
        <ele>190</ele>
        <time>2011-08-17T07:21:09Z</time>
      </trkpt>
      <trkpt lat="43.9873" lon="1.89212">
        <ele>190</ele>
        <time>2011-08-17T07:21:10Z</time>
      </trkpt>
      <trkpt lat="43.98729" lon="1.89216">
        <ele>190</ele>
        <time>2011-08-17T07:21:11Z</time>
      </trkpt>
      <trkpt lat="43.98729" lon="1.89221">
        <ele>190</ele>
        <time>2011-08-17T07:21:13Z</time>
      </trkpt>
      <trkpt lat="43.98728" lon="1.89225">
        <ele>190</ele>
        <time>2011-08-17T07:21:13Z</time>
      </trkpt>
      <trkpt lat="43.98728" lon="1.89229">
        <ele>190</ele>
        <time>2011-08-17T07:21:14Z</time>
      </trkpt>
      <trkpt lat="43.98727" lon="1.89234">
        <ele>190</ele>
        <time>2011-08-17T07:21:15Z</time>
      </trkpt>
      <trkpt lat="43.98726" lon="1.89238">
        <ele>190</ele>
        <time>2011-08-17T07:21:16Z</time>
      </trkpt>
      <trkpt lat="43.98725" lon="1.89242">
        <ele>190</ele>
        <time>2011-08-17T07:21:18Z</time>
      </trkpt>
      <trkpt lat="43.98724" lon="1.89246">
        <ele>190</ele>
        <time>2011-08-17T07:21:18Z</time>
      </trkpt>
      <trkpt lat="43.98724" lon="1.8925">
        <ele>190</ele>
        <time>2011-08-17T07:21:19Z</time>
      </trkpt>
      <trkpt lat="43.98724" lon="1.89253">
        <ele>190</ele>
        <time>2011-08-17T07:21:20Z</time>
      </trkpt>
      <trkpt lat="43.98723" lon="1.89256">
        <ele>190</ele>
        <time>2011-08-17T07:21:21Z</time>
      </trkpt>
      <trkpt lat="43.98722" lon="1.89261">
        <ele>190</ele>
        <time>2011-08-17T07:21:22Z</time>
      </trkpt>
      <trkpt lat="43.98721" lon="1.89265">
        <ele>190</ele>
        <time>2011-08-17T07:21:23Z</time>
      </trkpt>
      <trkpt lat="43.98721" lon="1.89269">
        <ele>190</ele>
        <time>2011-08-17T07:21:24Z</time>
      </trkpt>
      <trkpt lat="43.9872" lon="1.89275">
        <ele>190</ele>
        <time>2011-08-17T07:21:25Z</time>
      </trkpt>
      <trkpt lat="43.9872" lon="1.89279">
        <ele>190</ele>
        <time>2011-08-17T07:21:26Z</time>
      </trkpt>
      <trkpt lat="43.98719" lon="1.89284">
        <ele>190</ele>
        <time>2011-08-17T07:21:27Z</time>
      </trkpt>
      <trkpt lat="43.98719" lon="1.89289">
        <ele>190</ele>
        <time>2011-08-17T07:21:28Z</time>
      </trkpt>
      <trkpt lat="43.98718" lon="1.89294">
        <ele>190</ele>
        <time>2011-08-17T07:21:29Z</time>
      </trkpt>
      <trkpt lat="43.98717" lon="1.89298">
        <ele>190</ele>
        <time>2011-08-17T07:21:30Z</time>
      </trkpt>
      <trkpt lat="43.98716" lon="1.89302">
        <ele>190</ele>
        <time>2011-08-17T07:21:31Z</time>
      </trkpt>
      <trkpt lat="43.98716" lon="1.89306">
        <ele>190</ele>
        <time>2011-08-17T07:21:32Z</time>
      </trkpt>
      <trkpt lat="43.98715" lon="1.89311">
        <ele>190</ele>
        <time>2011-08-17T07:21:33Z</time>
      </trkpt>
      <trkpt lat="43.98714" lon="1.89315">
        <ele>190</ele>
        <time>2011-08-17T07:21:34Z</time>
      </trkpt>
      <trkpt lat="43.98713" lon="1.8932">
        <ele>190</ele>
        <time>2011-08-17T07:21:35Z</time>
      </trkpt>
      <trkpt lat="43.98712" lon="1.89324">
        <ele>190</ele>
        <time>2011-08-17T07:21:36Z</time>
      </trkpt>
      <trkpt lat="43.98712" lon="1.89327">
        <ele>190</ele>
        <time>2011-08-17T07:21:37Z</time>
      </trkpt>
      <trkpt lat="43.98712" lon="1.89331">
        <ele>190</ele>
        <time>2011-08-17T07:21:38Z</time>
      </trkpt>
      <trkpt lat="43.98711" lon="1.89336">
        <ele>190</ele>
        <time>2011-08-17T07:21:39Z</time>
      </trkpt>
      <trkpt lat="43.98711" lon="1.89341">
        <ele>190</ele>
        <time>2011-08-17T07:21:40Z</time>
      </trkpt>
      <trkpt lat="43.9871" lon="1.89346">
        <ele>190</ele>
        <time>2011-08-17T07:21:41Z</time>
      </trkpt>
      <trkpt lat="43.9871" lon="1.89349">
        <ele>190</ele>
        <time>2011-08-17T07:21:42Z</time>
      </trkpt>
      <trkpt lat="43.98709" lon="1.89353">
        <ele>190</ele>
        <time>2011-08-17T07:21:43Z</time>
      </trkpt>
      <trkpt lat="43.98708" lon="1.89357">
        <ele>189</ele>
        <time>2011-08-17T07:21:44Z</time>
      </trkpt>
      <trkpt lat="43.98708" lon="1.89361">
        <ele>188</ele>
        <time>2011-08-17T07:21:45Z</time>
      </trkpt>
      <trkpt lat="43.98708" lon="1.89366">
        <ele>188</ele>
        <time>2011-08-17T07:21:46Z</time>
      </trkpt>
      <trkpt lat="43.98708" lon="1.89371">
        <ele>187</ele>
        <time>2011-08-17T07:21:47Z</time>
      </trkpt>
      <trkpt lat="43.98708" lon="1.89376">
        <ele>187</ele>
        <time>2011-08-17T07:21:49Z</time>
      </trkpt>
      <trkpt lat="43.98708" lon="1.89381">
        <ele>187</ele>
        <time>2011-08-17T07:21:49Z</time>
      </trkpt>
      <trkpt lat="43.98707" lon="1.89387">
        <ele>187</ele>
        <time>2011-08-17T07:21:50Z</time>
      </trkpt>
      <trkpt lat="43.98707" lon="1.89392">
        <ele>187</ele>
        <time>2011-08-17T07:21:51Z</time>
      </trkpt>
      <trkpt lat="43.98706" lon="1.89397">
        <ele>187</ele>
        <time>2011-08-17T07:21:52Z</time>
      </trkpt>
      <trkpt lat="43.98706" lon="1.89402">
        <ele>187</ele>
        <time>2011-08-17T07:21:53Z</time>
      </trkpt>
      <trkpt lat="43.98706" lon="1.89407">
        <ele>187</ele>
        <time>2011-08-17T07:21:55Z</time>
      </trkpt>
      <trkpt lat="43.98705" lon="1.8941">
        <ele>187</ele>
        <time>2011-08-17T07:21:55Z</time>
      </trkpt>
      <trkpt lat="43.98705" lon="1.89413">
        <ele>187</ele>
        <time>2011-08-17T07:21:56Z</time>
      </trkpt>
      <trkpt lat="43.98705" lon="1.89417">
        <ele>188</ele>
        <time>2011-08-17T07:21:57Z</time>
      </trkpt>
      <trkpt lat="43.98705" lon="1.8942">
        <ele>188</ele>
        <time>2011-08-17T07:21:58Z</time>
      </trkpt>
      <trkpt lat="43.98705" lon="1.89424">
        <ele>188</ele>
        <time>2011-08-17T07:21:59Z</time>
      </trkpt>
      <trkpt lat="43.98705" lon="1.89428">
        <ele>188</ele>
        <time>2011-08-17T07:22:00Z</time>
      </trkpt>
      <trkpt lat="43.98706" lon="1.89432">
        <ele>188</ele>
        <time>2011-08-17T07:22:01Z</time>
      </trkpt>
      <trkpt lat="43.98707" lon="1.89437">
        <ele>188</ele>
        <time>2011-08-17T07:22:02Z</time>
      </trkpt>
      <trkpt lat="43.98708" lon="1.89442">
        <ele>188</ele>
        <time>2011-08-17T07:22:03Z</time>
      </trkpt>
      <trkpt lat="43.98708" lon="1.89447">
        <ele>188</ele>
        <time>2011-08-17T07:22:04Z</time>
      </trkpt>
      <trkpt lat="43.98707" lon="1.89453">
        <ele>188</ele>
        <time>2011-08-17T07:22:05Z</time>
      </trkpt>
      <trkpt lat="43.98707" lon="1.89457">
        <ele>188</ele>
        <time>2011-08-17T07:22:06Z</time>
      </trkpt>
      <trkpt lat="43.98707" lon="1.89462">
        <ele>188</ele>
        <time>2011-08-17T07:22:07Z</time>
      </trkpt>
      <trkpt lat="43.98707" lon="1.89467">
        <ele>188</ele>
        <time>2011-08-17T07:22:09Z</time>
      </trkpt>
      <trkpt lat="43.98707" lon="1.89471">
        <ele>188</ele>
        <time>2011-08-17T07:22:09Z</time>
      </trkpt>
      <trkpt lat="43.98706" lon="1.89475">
        <ele>188</ele>
        <time>2011-08-17T07:22:10Z</time>
      </trkpt>
      <trkpt lat="43.98706" lon="1.89481">
        <ele>188</ele>
        <time>2011-08-17T07:22:11Z</time>
      </trkpt>
      <trkpt lat="43.98706" lon="1.89485">
        <ele>188</ele>
        <time>2011-08-17T07:22:13Z</time>
      </trkpt>
      <trkpt lat="43.98705" lon="1.8949">
        <ele>188</ele>
        <time>2011-08-17T07:22:14Z</time>
      </trkpt>
      <trkpt lat="43.98705" lon="1.89494">
        <ele>188</ele>
        <time>2011-08-17T07:22:14Z</time>
      </trkpt>
      <trkpt lat="43.98704" lon="1.89499">
        <ele>188</ele>
        <time>2011-08-17T07:22:15Z</time>
      </trkpt>
      <trkpt lat="43.98704" lon="1.89504">
        <ele>188</ele>
        <time>2011-08-17T07:22:16Z</time>
      </trkpt>
      <trkpt lat="43.98704" lon="1.89509">
        <ele>188</ele>
        <time>2011-08-17T07:22:17Z</time>
      </trkpt>
      <trkpt lat="43.98704" lon="1.89514">
        <ele>188</ele>
        <time>2011-08-17T07:22:18Z</time>
      </trkpt>
      <trkpt lat="43.98705" lon="1.89516">
        <ele>188</ele>
        <time>2011-08-17T07:22:20Z</time>
      </trkpt>
      <trkpt lat="43.98705" lon="1.89518">
        <ele>188</ele>
        <time>2011-08-17T07:22:20Z</time>
      </trkpt>
      <trkpt lat="43.98704" lon="1.89519">
        <ele>188</ele>
        <time>2011-08-17T07:22:22Z</time>
      </trkpt>
      <trkpt lat="43.98703" lon="1.8952">
        <ele>188</ele>
        <time>2011-08-17T07:22:25Z</time>
      </trkpt>
      <trkpt lat="43.98701" lon="1.89521">
        <ele>188</ele>
        <time>2011-08-17T07:22:27Z</time>
      </trkpt>
      <trkpt lat="43.987" lon="1.89523">
        <ele>186</ele>
        <time>2011-08-17T07:22:32Z</time>
      </trkpt>
      <trkpt lat="43.987" lon="1.89525">
        <ele>186</ele>
        <time>2011-08-17T07:22:34Z</time>
      </trkpt>
      <trkpt lat="43.987" lon="1.89527">
        <ele>186</ele>
        <time>2011-08-17T07:22:37Z</time>
      </trkpt>
      <trkpt lat="43.987" lon="1.89529">
        <ele>186</ele>
        <time>2011-08-17T07:22:48Z</time>
      </trkpt>
      <trkpt lat="43.987" lon="1.89531">
        <ele>186</ele>
        <time>2011-08-17T07:22:48Z</time>
      </trkpt>
      <trkpt lat="43.987" lon="1.89532">
        <ele>186</ele>
        <time>2011-08-17T07:22:49Z</time>
      </trkpt>
      <trkpt lat="43.98699" lon="1.89534">
        <ele>186</ele>
        <time>2011-08-17T07:22:50Z</time>
      </trkpt>
      <trkpt lat="43.98699" lon="1.89536">
        <ele>186</ele>
        <time>2011-08-17T07:22:51Z</time>
      </trkpt>
      <trkpt lat="43.98699" lon="1.89538">
        <ele>186</ele>
        <time>2011-08-17T07:22:52Z</time>
      </trkpt>
      <trkpt lat="43.98698" lon="1.8954">
        <ele>186</ele>
        <time>2011-08-17T07:22:54Z</time>
      </trkpt>
      <trkpt lat="43.98697" lon="1.89542">
        <ele>186</ele>
        <time>2011-08-17T07:22:55Z</time>
      </trkpt>
      <trkpt lat="43.98696" lon="1.89544">
        <ele>186</ele>
        <time>2011-08-17T07:22:56Z</time>
      </trkpt>
      <trkpt lat="43.98695" lon="1.89548">
        <ele>186</ele>
        <time>2011-08-17T07:22:57Z</time>
      </trkpt>
      <trkpt lat="43.98694" lon="1.89551">
        <ele>186</ele>
        <time>2011-08-17T07:22:59Z</time>
      </trkpt>
      <trkpt lat="43.98693" lon="1.89555">
        <ele>186</ele>
        <time>2011-08-17T07:22:59Z</time>
      </trkpt>
      <trkpt lat="43.98692" lon="1.89558">
        <ele>186</ele>
        <time>2011-08-17T07:23:00Z</time>
      </trkpt>
      <trkpt lat="43.98691" lon="1.89562">
        <ele>186</ele>
        <time>2011-08-17T07:23:02Z</time>
      </trkpt>
      <trkpt lat="43.98689" lon="1.89566">
        <ele>186</ele>
        <time>2011-08-17T07:23:03Z</time>
      </trkpt>
      <trkpt lat="43.98688" lon="1.89568">
        <ele>186</ele>
        <time>2011-08-17T07:23:04Z</time>
      </trkpt>
      <trkpt lat="43.98687" lon="1.89572">
        <ele>186</ele>
        <time>2011-08-17T07:23:04Z</time>
      </trkpt>
      <trkpt lat="43.98685" lon="1.89575">
        <ele>186</ele>
        <time>2011-08-17T07:23:06Z</time>
      </trkpt>
      <trkpt lat="43.98684" lon="1.89579">
        <ele>186</ele>
        <time>2011-08-17T07:23:07Z</time>
      </trkpt>
      <trkpt lat="43.98682" lon="1.89582">
        <ele>186</ele>
        <time>2011-08-17T07:23:07Z</time>
      </trkpt>
      <trkpt lat="43.98681" lon="1.89586">
        <ele>186</ele>
        <time>2011-08-17T07:23:08Z</time>
      </trkpt>
      <trkpt lat="43.98679" lon="1.89589">
        <ele>186</ele>
        <time>2011-08-17T07:23:10Z</time>
      </trkpt>
      <trkpt lat="43.98677" lon="1.89593">
        <ele>186</ele>
        <time>2011-08-17T07:23:11Z</time>
      </trkpt>
      <trkpt lat="43.98675" lon="1.89596">
        <ele>186</ele>
        <time>2011-08-17T07:23:12Z</time>
      </trkpt>
      <trkpt lat="43.98673" lon="1.89599">
        <ele>186</ele>
        <time>2011-08-17T07:23:12Z</time>
      </trkpt>
      <trkpt lat="43.98671" lon="1.89602">
        <ele>186</ele>
        <time>2011-08-17T07:23:13Z</time>
      </trkpt>
      <trkpt lat="43.98669" lon="1.89605">
        <ele>186</ele>
        <time>2011-08-17T07:23:14Z</time>
      </trkpt>
      <trkpt lat="43.98667" lon="1.89609">
        <ele>186</ele>
        <time>2011-08-17T07:23:15Z</time>
      </trkpt>
      <trkpt lat="43.98665" lon="1.89613">
        <ele>186</ele>
        <time>2011-08-17T07:23:17Z</time>
      </trkpt>
      <trkpt lat="43.98664" lon="1.89616">
        <ele>187</ele>
        <time>2011-08-17T07:23:17Z</time>
      </trkpt>
      <trkpt lat="43.98662" lon="1.89619">
        <ele>187</ele>
        <time>2011-08-17T07:23:18Z</time>
      </trkpt>
      <trkpt lat="43.98661" lon="1.89623">
        <ele>187</ele>
        <time>2011-08-17T07:23:19Z</time>
      </trkpt>
      <trkpt lat="43.98659" lon="1.89627">
        <ele>188</ele>
        <time>2011-08-17T07:23:21Z</time>
      </trkpt>
      <trkpt lat="43.98657" lon="1.89631">
        <ele>188</ele>
        <time>2011-08-17T07:23:22Z</time>
      </trkpt>
      <trkpt lat="43.98655" lon="1.89635">
        <ele>189</ele>
        <time>2011-08-17T07:23:22Z</time>
      </trkpt>
      <trkpt lat="43.98653" lon="1.89639">
        <ele>189</ele>
        <time>2011-08-17T07:23:24Z</time>
      </trkpt>
      <trkpt lat="43.98651" lon="1.89643">
        <ele>190</ele>
        <time>2011-08-17T07:23:24Z</time>
      </trkpt>
      <trkpt lat="43.9865" lon="1.89647">
        <ele>190</ele>
        <time>2011-08-17T07:23:25Z</time>
      </trkpt>
      <trkpt lat="43.98648" lon="1.8965">
        <ele>190</ele>
        <time>2011-08-17T07:23:26Z</time>
      </trkpt>
      <trkpt lat="43.98646" lon="1.89655">
        <ele>191</ele>
        <time>2011-08-17T07:23:28Z</time>
      </trkpt>
      <trkpt lat="43.98644" lon="1.89659">
        <ele>191</ele>
        <time>2011-08-17T07:23:28Z</time>
      </trkpt>
      <trkpt lat="43.98642" lon="1.89662">
        <ele>191</ele>
        <time>2011-08-17T07:23:29Z</time>
      </trkpt>
      <trkpt lat="43.9864" lon="1.89666">
        <ele>192</ele>
        <time>2011-08-17T07:23:30Z</time>
      </trkpt>
      <trkpt lat="43.98639" lon="1.8967">
        <ele>192</ele>
        <time>2011-08-17T07:23:31Z</time>
      </trkpt>
      <trkpt lat="43.98637" lon="1.89673">
        <ele>193</ele>
        <time>2011-08-17T07:23:32Z</time>
      </trkpt>
      <trkpt lat="43.98636" lon="1.89678">
        <ele>193</ele>
        <time>2011-08-17T07:23:33Z</time>
      </trkpt>
      <trkpt lat="43.98634" lon="1.89681">
        <ele>194</ele>
        <time>2011-08-17T07:23:34Z</time>
      </trkpt>
      <trkpt lat="43.98632" lon="1.89685">
        <ele>194</ele>
        <time>2011-08-17T07:23:35Z</time>
      </trkpt>
      <trkpt lat="43.98631" lon="1.89688">
        <ele>194</ele>
        <time>2011-08-17T07:23:36Z</time>
      </trkpt>
      <trkpt lat="43.98629" lon="1.89692">
        <ele>194</ele>
        <time>2011-08-17T07:23:38Z</time>
      </trkpt>
      <trkpt lat="43.98627" lon="1.89696">
        <ele>194</ele>
        <time>2011-08-17T07:23:38Z</time>
      </trkpt>
      <trkpt lat="43.98625" lon="1.897">
        <ele>195</ele>
        <time>2011-08-17T07:23:39Z</time>
      </trkpt>
      <trkpt lat="43.98624" lon="1.89704">
        <ele>195</ele>
        <time>2011-08-17T07:23:40Z</time>
      </trkpt>
      <trkpt lat="43.98622" lon="1.89708">
        <ele>196</ele>
        <time>2011-08-17T07:23:41Z</time>
      </trkpt>
      <trkpt lat="43.98619" lon="1.89713">
        <ele>196</ele>
        <time>2011-08-17T07:23:42Z</time>
      </trkpt>
      <trkpt lat="43.98617" lon="1.89717">
        <ele>197</ele>
        <time>2011-08-17T07:23:43Z</time>
      </trkpt>
      <trkpt lat="43.98615" lon="1.89721">
        <ele>197</ele>
        <time>2011-08-17T07:23:44Z</time>
      </trkpt>
      <trkpt lat="43.98613" lon="1.89725">
        <ele>198</ele>
        <time>2011-08-17T07:23:45Z</time>
      </trkpt>
      <trkpt lat="43.98611" lon="1.89729">
        <ele>198</ele>
        <time>2011-08-17T07:23:46Z</time>
      </trkpt>
      <trkpt lat="43.9861" lon="1.89733">
        <ele>198</ele>
        <time>2011-08-17T07:23:47Z</time>
      </trkpt>
      <trkpt lat="43.98608" lon="1.89737">
        <ele>198</ele>
        <time>2011-08-17T07:23:48Z</time>
      </trkpt>
      <trkpt lat="43.98606" lon="1.89742">
        <ele>198</ele>
        <time>2011-08-17T07:23:49Z</time>
      </trkpt>
      <trkpt lat="43.98604" lon="1.89746">
        <ele>198</ele>
        <time>2011-08-17T07:23:50Z</time>
      </trkpt>
      <trkpt lat="43.98602" lon="1.89751">
        <ele>198</ele>
        <time>2011-08-17T07:23:51Z</time>
      </trkpt>
      <trkpt lat="43.986" lon="1.89755">
        <ele>198</ele>
        <time>2011-08-17T07:23:52Z</time>
      </trkpt>
      <trkpt lat="43.98599" lon="1.89759">
        <ele>198</ele>
        <time>2011-08-17T07:23:53Z</time>
      </trkpt>
      <trkpt lat="43.98597" lon="1.89762">
        <ele>198</ele>
        <time>2011-08-17T07:23:54Z</time>
      </trkpt>
      <trkpt lat="43.98596" lon="1.89766">
        <ele>198</ele>
        <time>2011-08-17T07:23:55Z</time>
      </trkpt>
      <trkpt lat="43.98594" lon="1.8977">
        <ele>198</ele>
        <time>2011-08-17T07:23:56Z</time>
      </trkpt>
      <trkpt lat="43.98592" lon="1.89775">
        <ele>198</ele>
        <time>2011-08-17T07:23:57Z</time>
      </trkpt>
      <trkpt lat="43.9859" lon="1.89779">
        <ele>198</ele>
        <time>2011-08-17T07:23:58Z</time>
      </trkpt>
      <trkpt lat="43.98588" lon="1.89783">
        <ele>198</ele>
        <time>2011-08-17T07:23:59Z</time>
      </trkpt>
      <trkpt lat="43.98587" lon="1.89787">
        <ele>198</ele>
        <time>2011-08-17T07:24:00Z</time>
      </trkpt>
      <trkpt lat="43.98585" lon="1.8979">
        <ele>198</ele>
        <time>2011-08-17T07:24:02Z</time>
      </trkpt>
      <trkpt lat="43.98583" lon="1.89795">
        <ele>198</ele>
        <time>2011-08-17T07:24:02Z</time>
      </trkpt>
      <trkpt lat="43.98581" lon="1.89799">
        <ele>198</ele>
        <time>2011-08-17T07:24:04Z</time>
      </trkpt>
      <trkpt lat="43.98579" lon="1.89804">
        <ele>198</ele>
        <time>2011-08-17T07:24:05Z</time>
      </trkpt>
      <trkpt lat="43.98577" lon="1.89808">
        <ele>198</ele>
        <time>2011-08-17T07:24:05Z</time>
      </trkpt>
      <trkpt lat="43.98575" lon="1.89813">
        <ele>198</ele>
        <time>2011-08-17T07:24:06Z</time>
      </trkpt>
      <trkpt lat="43.98573" lon="1.89817">
        <ele>198</ele>
        <time>2011-08-17T07:24:07Z</time>
      </trkpt>
      <trkpt lat="43.98571" lon="1.89821">
        <ele>198</ele>
        <time>2011-08-17T07:24:08Z</time>
      </trkpt>
      <trkpt lat="43.9857" lon="1.89825">
        <ele>198</ele>
        <time>2011-08-17T07:24:09Z</time>
      </trkpt>
      <trkpt lat="43.98568" lon="1.89829">
        <ele>197</ele>
        <time>2011-08-17T07:24:10Z</time>
      </trkpt>
      <trkpt lat="43.98566" lon="1.89834">
        <ele>197</ele>
        <time>2011-08-17T07:24:11Z</time>
      </trkpt>
      <trkpt lat="43.98564" lon="1.89838">
        <ele>197</ele>
        <time>2011-08-17T07:24:12Z</time>
      </trkpt>
      <trkpt lat="43.98562" lon="1.89842">
        <ele>196</ele>
        <time>2011-08-17T07:24:13Z</time>
      </trkpt>
      <trkpt lat="43.9856" lon="1.89847">
        <ele>196</ele>
        <time>2011-08-17T07:24:14Z</time>
      </trkpt>
      <trkpt lat="43.98558" lon="1.89851">
        <ele>196</ele>
        <time>2011-08-17T07:24:15Z</time>
      </trkpt>
      <trkpt lat="43.98556" lon="1.89856">
        <ele>195</ele>
        <time>2011-08-17T07:24:16Z</time>
      </trkpt>
      <trkpt lat="43.98554" lon="1.89859">
        <ele>195</ele>
        <time>2011-08-17T07:24:18Z</time>
      </trkpt>
      <trkpt lat="43.98552" lon="1.89864">
        <ele>195</ele>
        <time>2011-08-17T07:24:18Z</time>
      </trkpt>
      <trkpt lat="43.9855" lon="1.89868">
        <ele>195</ele>
        <time>2011-08-17T07:24:19Z</time>
      </trkpt>
      <trkpt lat="43.98548" lon="1.89872">
        <ele>195</ele>
        <time>2011-08-17T07:24:20Z</time>
      </trkpt>
      <trkpt lat="43.98546" lon="1.89876">
        <ele>195</ele>
        <time>2011-08-17T07:24:21Z</time>
      </trkpt>
      <trkpt lat="43.98544" lon="1.8988">
        <ele>195</ele>
        <time>2011-08-17T07:24:23Z</time>
      </trkpt>
      <trkpt lat="43.98542" lon="1.89884">
        <ele>195</ele>
        <time>2011-08-17T07:24:23Z</time>
      </trkpt>
      <trkpt lat="43.98541" lon="1.89889">
        <ele>195</ele>
        <time>2011-08-17T07:24:24Z</time>
      </trkpt>
      <trkpt lat="43.98539" lon="1.89893">
        <ele>195</ele>
        <time>2011-08-17T07:24:25Z</time>
      </trkpt>
      <trkpt lat="43.98537" lon="1.89897">
        <ele>195</ele>
        <time>2011-08-17T07:24:26Z</time>
      </trkpt>
      <trkpt lat="43.98535" lon="1.89902">
        <ele>195</ele>
        <time>2011-08-17T07:24:27Z</time>
      </trkpt>
      <trkpt lat="43.98533" lon="1.89906">
        <ele>195</ele>
        <time>2011-08-17T07:24:29Z</time>
      </trkpt>
      <trkpt lat="43.98531" lon="1.89911">
        <ele>195</ele>
        <time>2011-08-17T07:24:29Z</time>
      </trkpt>
      <trkpt lat="43.9853" lon="1.89915">
        <ele>195</ele>
        <time>2011-08-17T07:24:30Z</time>
      </trkpt>
      <trkpt lat="43.98528" lon="1.89919">
        <ele>195</ele>
        <time>2011-08-17T07:24:32Z</time>
      </trkpt>
      <trkpt lat="43.98526" lon="1.89923">
        <ele>195</ele>
        <time>2011-08-17T07:24:32Z</time>
      </trkpt>
      <trkpt lat="43.98524" lon="1.89928">
        <ele>195</ele>
        <time>2011-08-17T07:24:33Z</time>
      </trkpt>
      <trkpt lat="43.98522" lon="1.89932">
        <ele>195</ele>
        <time>2011-08-17T07:24:35Z</time>
      </trkpt>
      <trkpt lat="43.98521" lon="1.89936">
        <ele>195</ele>
        <time>2011-08-17T07:24:35Z</time>
      </trkpt>
      <trkpt lat="43.98519" lon="1.8994">
        <ele>195</ele>
        <time>2011-08-17T07:24:37Z</time>
      </trkpt>
      <trkpt lat="43.98518" lon="1.89945">
        <ele>195</ele>
        <time>2011-08-17T07:24:37Z</time>
      </trkpt>
      <trkpt lat="43.98516" lon="1.8995">
        <ele>195</ele>
        <time>2011-08-17T07:24:39Z</time>
      </trkpt>
      <trkpt lat="43.98514" lon="1.89954">
        <ele>195</ele>
        <time>2011-08-17T07:24:39Z</time>
      </trkpt>
      <trkpt lat="43.98512" lon="1.8996">
        <ele>195</ele>
        <time>2011-08-17T07:24:40Z</time>
      </trkpt>
      <trkpt lat="43.9851" lon="1.89964">
        <ele>195</ele>
        <time>2011-08-17T07:24:41Z</time>
      </trkpt>
      <trkpt lat="43.98508" lon="1.8997">
        <ele>195</ele>
        <time>2011-08-17T07:24:42Z</time>
      </trkpt>
      <trkpt lat="43.98507" lon="1.89975">
        <ele>195</ele>
        <time>2011-08-17T07:24:43Z</time>
      </trkpt>
      <trkpt lat="43.98505" lon="1.8998">
        <ele>195</ele>
        <time>2011-08-17T07:24:44Z</time>
      </trkpt>
      <trkpt lat="43.98504" lon="1.89985">
        <ele>195</ele>
        <time>2011-08-17T07:24:45Z</time>
      </trkpt>
      <trkpt lat="43.98502" lon="1.8999">
        <ele>195</ele>
        <time>2011-08-17T07:24:46Z</time>
      </trkpt>
      <trkpt lat="43.985" lon="1.89995">
        <ele>195</ele>
        <time>2011-08-17T07:24:47Z</time>
      </trkpt>
      <trkpt lat="43.98499" lon="1.89999">
        <ele>195</ele>
        <time>2011-08-17T07:24:48Z</time>
      </trkpt>
      <trkpt lat="43.98497" lon="1.90005">
        <ele>195</ele>
        <time>2011-08-17T07:24:49Z</time>
      </trkpt>
      <trkpt lat="43.98495" lon="1.9001">
        <ele>195</ele>
        <time>2011-08-17T07:24:50Z</time>
      </trkpt>
      <trkpt lat="43.98494" lon="1.90015">
        <ele>195</ele>
        <time>2011-08-17T07:24:52Z</time>
      </trkpt>
      <trkpt lat="43.98492" lon="1.9002">
        <ele>195</ele>
        <time>2011-08-17T07:24:52Z</time>
      </trkpt>
      <trkpt lat="43.98491" lon="1.90025">
        <ele>195</ele>
        <time>2011-08-17T07:24:53Z</time>
      </trkpt>
      <trkpt lat="43.9849" lon="1.9003">
        <ele>195</ele>
        <time>2011-08-17T07:24:54Z</time>
      </trkpt>
      <trkpt lat="43.98489" lon="1.90035">
        <ele>195</ele>
        <time>2011-08-17T07:24:55Z</time>
      </trkpt>
      <trkpt lat="43.98487" lon="1.9004">
        <ele>195</ele>
        <time>2011-08-17T07:24:56Z</time>
      </trkpt>
      <trkpt lat="43.98486" lon="1.90045">
        <ele>195</ele>
        <time>2011-08-17T07:24:57Z</time>
      </trkpt>
      <trkpt lat="43.98485" lon="1.9005">
        <ele>195</ele>
        <time>2011-08-17T07:24:58Z</time>
      </trkpt>
      <trkpt lat="43.98484" lon="1.90056">
        <ele>195</ele>
        <time>2011-08-17T07:24:59Z</time>
      </trkpt>
      <trkpt lat="43.98483" lon="1.90061">
        <ele>195</ele>
        <time>2011-08-17T07:25:00Z</time>
      </trkpt>
      <trkpt lat="43.98482" lon="1.90066">
        <ele>195</ele>
        <time>2011-08-17T07:25:01Z</time>
      </trkpt>
      <trkpt lat="43.98482" lon="1.90071">
        <ele>195</ele>
        <time>2011-08-17T07:25:02Z</time>
      </trkpt>
      <trkpt lat="43.98481" lon="1.90076">
        <ele>195</ele>
        <time>2011-08-17T07:25:04Z</time>
      </trkpt>
      <trkpt lat="43.98481" lon="1.90081">
        <ele>195</ele>
        <time>2011-08-17T07:25:04Z</time>
      </trkpt>
      <trkpt lat="43.9848" lon="1.90086">
        <ele>195</ele>
        <time>2011-08-17T07:25:05Z</time>
      </trkpt>
      <trkpt lat="43.98479" lon="1.90092">
        <ele>195</ele>
        <time>2011-08-17T07:25:06Z</time>
      </trkpt>
      <trkpt lat="43.98478" lon="1.90097">
        <ele>195</ele>
        <time>2011-08-17T07:25:07Z</time>
      </trkpt>
      <trkpt lat="43.98476" lon="1.90103">
        <ele>195</ele>
        <time>2011-08-17T07:25:08Z</time>
      </trkpt>
      <trkpt lat="43.98475" lon="1.90108">
        <ele>195</ele>
        <time>2011-08-17T07:25:09Z</time>
      </trkpt>
      <trkpt lat="43.98474" lon="1.90113">
        <ele>195</ele>
        <time>2011-08-17T07:25:10Z</time>
      </trkpt>
      <trkpt lat="43.98473" lon="1.90119">
        <ele>195</ele>
        <time>2011-08-17T07:25:11Z</time>
      </trkpt>
      <trkpt lat="43.98473" lon="1.90123">
        <ele>195</ele>
        <time>2011-08-17T07:25:12Z</time>
      </trkpt>
      <trkpt lat="43.98472" lon="1.90128">
        <ele>195</ele>
        <time>2011-08-17T07:25:13Z</time>
      </trkpt>
      <trkpt lat="43.98471" lon="1.90134">
        <ele>195</ele>
        <time>2011-08-17T07:25:14Z</time>
      </trkpt>
      <trkpt lat="43.9847" lon="1.90139">
        <ele>195</ele>
        <time>2011-08-17T07:25:15Z</time>
      </trkpt>
      <trkpt lat="43.98469" lon="1.90144">
        <ele>195</ele>
        <time>2011-08-17T07:25:16Z</time>
      </trkpt>
      <trkpt lat="43.98467" lon="1.90149">
        <ele>195</ele>
        <time>2011-08-17T07:25:17Z</time>
      </trkpt>
      <trkpt lat="43.98466" lon="1.90155">
        <ele>195</ele>
        <time>2011-08-17T07:25:18Z</time>
      </trkpt>
      <trkpt lat="43.98465" lon="1.9016">
        <ele>195</ele>
        <time>2011-08-17T07:25:19Z</time>
      </trkpt>
      <trkpt lat="43.98464" lon="1.90165">
        <ele>195</ele>
        <time>2011-08-17T07:25:20Z</time>
      </trkpt>
      <trkpt lat="43.98463" lon="1.90171">
        <ele>195</ele>
        <time>2011-08-17T07:25:21Z</time>
      </trkpt>
      <trkpt lat="43.98463" lon="1.90177">
        <ele>195</ele>
        <time>2011-08-17T07:25:22Z</time>
      </trkpt>
      <trkpt lat="43.98462" lon="1.90183">
        <ele>195</ele>
        <time>2011-08-17T07:25:23Z</time>
      </trkpt>
      <trkpt lat="43.98461" lon="1.90189">
        <ele>195</ele>
        <time>2011-08-17T07:25:25Z</time>
      </trkpt>
      <trkpt lat="43.9846" lon="1.90194">
        <ele>195</ele>
        <time>2011-08-17T07:25:25Z</time>
      </trkpt>
      <trkpt lat="43.98459" lon="1.902">
        <ele>195</ele>
        <time>2011-08-17T07:25:26Z</time>
      </trkpt>
      <trkpt lat="43.98459" lon="1.90206">
        <ele>195</ele>
        <time>2011-08-17T07:25:28Z</time>
      </trkpt>
      <trkpt lat="43.98458" lon="1.90211">
        <ele>195</ele>
        <time>2011-08-17T07:25:28Z</time>
      </trkpt>
      <trkpt lat="43.98457" lon="1.90217">
        <ele>195</ele>
        <time>2011-08-17T07:25:29Z</time>
      </trkpt>
      <trkpt lat="43.98456" lon="1.90223">
        <ele>195</ele>
        <time>2011-08-17T07:25:30Z</time>
      </trkpt>
      <trkpt lat="43.98455" lon="1.90229">
        <ele>195</ele>
        <time>2011-08-17T07:25:31Z</time>
      </trkpt>
      <trkpt lat="43.98455" lon="1.90236">
        <ele>195</ele>
        <time>2011-08-17T07:25:32Z</time>
      </trkpt>
      <trkpt lat="43.98454" lon="1.90242">
        <ele>195</ele>
        <time>2011-08-17T07:25:33Z</time>
      </trkpt>
      <trkpt lat="43.98452" lon="1.90248">
        <ele>195</ele>
        <time>2011-08-17T07:25:34Z</time>
      </trkpt>
      <trkpt lat="43.98451" lon="1.90254">
        <ele>195</ele>
        <time>2011-08-17T07:25:35Z</time>
      </trkpt>
      <trkpt lat="43.9845" lon="1.9026">
        <ele>195</ele>
        <time>2011-08-17T07:25:36Z</time>
      </trkpt>
      <trkpt lat="43.98449" lon="1.90266">
        <ele>195</ele>
        <time>2011-08-17T07:25:37Z</time>
      </trkpt>
      <trkpt lat="43.98448" lon="1.90272">
        <ele>195</ele>
        <time>2011-08-17T07:25:38Z</time>
      </trkpt>
      <trkpt lat="43.98447" lon="1.90277">
        <ele>195</ele>
        <time>2011-08-17T07:25:39Z</time>
      </trkpt>
      <trkpt lat="43.98446" lon="1.90283">
        <ele>195</ele>
        <time>2011-08-17T07:25:40Z</time>
      </trkpt>
      <trkpt lat="43.98445" lon="1.90288">
        <ele>195</ele>
        <time>2011-08-17T07:25:41Z</time>
      </trkpt>
      <trkpt lat="43.98444" lon="1.90294">
        <ele>195</ele>
        <time>2011-08-17T07:25:42Z</time>
      </trkpt>
      <trkpt lat="43.98442" lon="1.903">
        <ele>195</ele>
        <time>2011-08-17T07:25:43Z</time>
      </trkpt>
      <trkpt lat="43.98442" lon="1.90305">
        <ele>195</ele>
        <time>2011-08-17T07:25:44Z</time>
      </trkpt>
      <trkpt lat="43.98441" lon="1.90311">
        <ele>195</ele>
        <time>2011-08-17T07:25:45Z</time>
      </trkpt>
      <trkpt lat="43.98441" lon="1.90316">
        <ele>195</ele>
        <time>2011-08-17T07:25:46Z</time>
      </trkpt>
      <trkpt lat="43.9844" lon="1.90322">
        <ele>195</ele>
        <time>2011-08-17T07:25:48Z</time>
      </trkpt>
      <trkpt lat="43.98439" lon="1.90328">
        <ele>195</ele>
        <time>2011-08-17T07:25:48Z</time>
      </trkpt>
      <trkpt lat="43.98439" lon="1.90333">
        <ele>195</ele>
        <time>2011-08-17T07:25:49Z</time>
      </trkpt>
      <trkpt lat="43.98437" lon="1.9034">
        <ele>195</ele>
        <time>2011-08-17T07:25:50Z</time>
      </trkpt>
      <trkpt lat="43.98436" lon="1.90346">
        <ele>195</ele>
        <time>2011-08-17T07:25:51Z</time>
      </trkpt>
      <trkpt lat="43.98435" lon="1.90351">
        <ele>195</ele>
        <time>2011-08-17T07:25:52Z</time>
      </trkpt>
      <trkpt lat="43.98434" lon="1.90357">
        <ele>195</ele>
        <time>2011-08-17T07:25:54Z</time>
      </trkpt>
      <trkpt lat="43.98433" lon="1.90363">
        <ele>195</ele>
        <time>2011-08-17T07:25:54Z</time>
      </trkpt>
      <trkpt lat="43.98432" lon="1.90369">
        <ele>195</ele>
        <time>2011-08-17T07:25:55Z</time>
      </trkpt>
      <trkpt lat="43.98431" lon="1.90375">
        <ele>195</ele>
        <time>2011-08-17T07:25:56Z</time>
      </trkpt>
      <trkpt lat="43.98429" lon="1.9038">
        <ele>195</ele>
        <time>2011-08-17T07:25:57Z</time>
      </trkpt>
      <trkpt lat="43.98429" lon="1.90386">
        <ele>195</ele>
        <time>2011-08-17T07:25:58Z</time>
      </trkpt>
      <trkpt lat="43.98428" lon="1.90392">
        <ele>195</ele>
        <time>2011-08-17T07:25:59Z</time>
      </trkpt>
      <trkpt lat="43.98428" lon="1.90397">
        <ele>195</ele>
        <time>2011-08-17T07:26:00Z</time>
      </trkpt>
      <trkpt lat="43.98427" lon="1.90403">
        <ele>195</ele>
        <time>2011-08-17T07:26:01Z</time>
      </trkpt>
      <trkpt lat="43.98426" lon="1.90408">
        <ele>195</ele>
        <time>2011-08-17T07:26:02Z</time>
      </trkpt>
      <trkpt lat="43.98426" lon="1.90414">
        <ele>195</ele>
        <time>2011-08-17T07:26:03Z</time>
      </trkpt>
      <trkpt lat="43.98426" lon="1.90419">
        <ele>195</ele>
        <time>2011-08-17T07:26:04Z</time>
      </trkpt>
      <trkpt lat="43.98426" lon="1.90425">
        <ele>195</ele>
        <time>2011-08-17T07:26:05Z</time>
      </trkpt>
      <trkpt lat="43.98425" lon="1.90431">
        <ele>195</ele>
        <time>2011-08-17T07:26:06Z</time>
      </trkpt>
      <trkpt lat="43.98425" lon="1.90437">
        <ele>194</ele>
        <time>2011-08-17T07:26:07Z</time>
      </trkpt>
      <trkpt lat="43.98424" lon="1.90443">
        <ele>194</ele>
        <time>2011-08-17T07:26:08Z</time>
      </trkpt>
      <trkpt lat="43.98424" lon="1.90448">
        <ele>194</ele>
        <time>2011-08-17T07:26:09Z</time>
      </trkpt>
      <trkpt lat="43.98423" lon="1.90453">
        <ele>194</ele>
        <time>2011-08-17T07:26:10Z</time>
      </trkpt>
      <trkpt lat="43.98423" lon="1.90459">
        <ele>194</ele>
        <time>2011-08-17T07:26:11Z</time>
      </trkpt>
      <trkpt lat="43.98422" lon="1.90465">
        <ele>194</ele>
        <time>2011-08-17T07:26:12Z</time>
      </trkpt>
      <trkpt lat="43.98421" lon="1.90471">
        <ele>194</ele>
        <time>2011-08-17T07:26:13Z</time>
      </trkpt>
      <trkpt lat="43.9842" lon="1.90476">
        <ele>194</ele>
        <time>2011-08-17T07:26:14Z</time>
      </trkpt>
      <trkpt lat="43.98419" lon="1.90482">
        <ele>194</ele>
        <time>2011-08-17T07:26:15Z</time>
      </trkpt>
      <trkpt lat="43.98418" lon="1.90488">
        <ele>194</ele>
        <time>2011-08-17T07:26:16Z</time>
      </trkpt>
      <trkpt lat="43.98417" lon="1.90493">
        <ele>194</ele>
        <time>2011-08-17T07:26:17Z</time>
      </trkpt>
      <trkpt lat="43.98415" lon="1.90499">
        <ele>193</ele>
        <time>2011-08-17T07:26:18Z</time>
      </trkpt>
      <trkpt lat="43.98414" lon="1.90505">
        <ele>193</ele>
        <time>2011-08-17T07:26:19Z</time>
      </trkpt>
      <trkpt lat="43.98412" lon="1.90511">
        <ele>193</ele>
        <time>2011-08-17T07:26:20Z</time>
      </trkpt>
      <trkpt lat="43.98411" lon="1.90517">
        <ele>193</ele>
        <time>2011-08-17T07:26:21Z</time>
      </trkpt>
      <trkpt lat="43.9841" lon="1.90522">
        <ele>193</ele>
        <time>2011-08-17T07:26:23Z</time>
      </trkpt>
      <trkpt lat="43.98408" lon="1.90528">
        <ele>193</ele>
        <time>2011-08-17T07:26:23Z</time>
      </trkpt>
      <trkpt lat="43.98407" lon="1.90533">
        <ele>193</ele>
        <time>2011-08-17T07:26:24Z</time>
      </trkpt>
      <trkpt lat="43.98405" lon="1.90539">
        <ele>193</ele>
        <time>2011-08-17T07:26:25Z</time>
      </trkpt>
      <trkpt lat="43.98404" lon="1.90545">
        <ele>192</ele>
        <time>2011-08-17T07:26:26Z</time>
      </trkpt>
      <trkpt lat="43.98402" lon="1.9055">
        <ele>192</ele>
        <time>2011-08-17T07:26:27Z</time>
      </trkpt>
      <trkpt lat="43.98401" lon="1.90556">
        <ele>192</ele>
        <time>2011-08-17T07:26:28Z</time>
      </trkpt>
      <trkpt lat="43.98399" lon="1.90562">
        <ele>192</ele>
        <time>2011-08-17T07:26:29Z</time>
      </trkpt>
      <trkpt lat="43.98398" lon="1.90568">
        <ele>192</ele>
        <time>2011-08-17T07:26:30Z</time>
      </trkpt>
      <trkpt lat="43.98396" lon="1.90574">
        <ele>191</ele>
        <time>2011-08-17T07:26:31Z</time>
      </trkpt>
      <trkpt lat="43.98395" lon="1.90579">
        <ele>191</ele>
        <time>2011-08-17T07:26:32Z</time>
      </trkpt>
      <trkpt lat="43.98394" lon="1.90585">
        <ele>191</ele>
        <time>2011-08-17T07:26:33Z</time>
      </trkpt>
      <trkpt lat="43.98392" lon="1.90591">
        <ele>191</ele>
        <time>2011-08-17T07:26:34Z</time>
      </trkpt>
      <trkpt lat="43.98391" lon="1.90596">
        <ele>191</ele>
        <time>2011-08-17T07:26:35Z</time>
      </trkpt>
      <trkpt lat="43.9839" lon="1.90602">
        <ele>191</ele>
        <time>2011-08-17T07:26:36Z</time>
      </trkpt>
      <trkpt lat="43.98388" lon="1.90608">
        <ele>191</ele>
        <time>2011-08-17T07:26:37Z</time>
      </trkpt>
      <trkpt lat="43.98387" lon="1.90614">
        <ele>191</ele>
        <time>2011-08-17T07:26:38Z</time>
      </trkpt>
      <trkpt lat="43.98386" lon="1.9062">
        <ele>190</ele>
        <time>2011-08-17T07:26:39Z</time>
      </trkpt>
      <trkpt lat="43.98385" lon="1.90625">
        <ele>190</ele>
        <time>2011-08-17T07:26:40Z</time>
      </trkpt>
      <trkpt lat="43.98384" lon="1.90631">
        <ele>190</ele>
        <time>2011-08-17T07:26:42Z</time>
      </trkpt>
      <trkpt lat="43.98383" lon="1.90636">
        <ele>190</ele>
        <time>2011-08-17T07:26:43Z</time>
      </trkpt>
      <trkpt lat="43.98381" lon="1.90642">
        <ele>190</ele>
        <time>2011-08-17T07:26:43Z</time>
      </trkpt>
      <trkpt lat="43.9838" lon="1.90648">
        <ele>190</ele>
        <time>2011-08-17T07:26:44Z</time>
      </trkpt>
      <trkpt lat="43.98379" lon="1.90654">
        <ele>189</ele>
        <time>2011-08-17T07:26:45Z</time>
      </trkpt>
      <trkpt lat="43.98378" lon="1.90659">
        <ele>189</ele>
        <time>2011-08-17T07:26:46Z</time>
      </trkpt>
      <trkpt lat="43.98377" lon="1.90665">
        <ele>189</ele>
        <time>2011-08-17T07:26:47Z</time>
      </trkpt>
      <trkpt lat="43.98376" lon="1.90671">
        <ele>189</ele>
        <time>2011-08-17T07:26:49Z</time>
      </trkpt>
      <trkpt lat="43.98375" lon="1.90676">
        <ele>189</ele>
        <time>2011-08-17T07:26:49Z</time>
      </trkpt>
      <trkpt lat="43.98374" lon="1.90682">
        <ele>189</ele>
        <time>2011-08-17T07:26:50Z</time>
      </trkpt>
      <trkpt lat="43.98373" lon="1.90686">
        <ele>189</ele>
        <time>2011-08-17T07:26:51Z</time>
      </trkpt>
      <trkpt lat="43.98373" lon="1.90691">
        <ele>189</ele>
        <time>2011-08-17T07:26:52Z</time>
      </trkpt>
      <trkpt lat="43.98373" lon="1.90695">
        <ele>189</ele>
        <time>2011-08-17T07:26:53Z</time>
      </trkpt>
      <trkpt lat="43.98372" lon="1.90699">
        <ele>189</ele>
        <time>2011-08-17T07:26:55Z</time>
      </trkpt>
      <trkpt lat="43.98371" lon="1.90702">
        <ele>189</ele>
        <time>2011-08-17T07:26:55Z</time>
      </trkpt>
      <trkpt lat="43.9837" lon="1.90707">
        <ele>189</ele>
        <time>2011-08-17T07:26:56Z</time>
      </trkpt>
      <trkpt lat="43.98369" lon="1.90711">
        <ele>189</ele>
        <time>2011-08-17T07:26:57Z</time>
      </trkpt>
      <trkpt lat="43.98369" lon="1.90716">
        <ele>189</ele>
        <time>2011-08-17T07:26:58Z</time>
      </trkpt>
      <trkpt lat="43.98368" lon="1.9072">
        <ele>189</ele>
        <time>2011-08-17T07:26:59Z</time>
      </trkpt>
      <trkpt lat="43.98366" lon="1.90725">
        <ele>189</ele>
        <time>2011-08-17T07:27:00Z</time>
      </trkpt>
      <trkpt lat="43.98365" lon="1.90729">
        <ele>189</ele>
        <time>2011-08-17T07:27:01Z</time>
      </trkpt>
      <trkpt lat="43.98364" lon="1.90734">
        <ele>189</ele>
        <time>2011-08-17T07:27:02Z</time>
      </trkpt>
      <trkpt lat="43.98363" lon="1.90738">
        <ele>189</ele>
        <time>2011-08-17T07:27:03Z</time>
      </trkpt>
      <trkpt lat="43.98362" lon="1.90743">
        <ele>189</ele>
        <time>2011-08-17T07:27:05Z</time>
      </trkpt>
      <trkpt lat="43.98362" lon="1.90746">
        <ele>189</ele>
        <time>2011-08-17T07:27:05Z</time>
      </trkpt>
      <trkpt lat="43.98361" lon="1.9075">
        <ele>189</ele>
        <time>2011-08-17T07:27:07Z</time>
      </trkpt>
      <trkpt lat="43.98359" lon="1.90753">
        <ele>189</ele>
        <time>2011-08-17T07:27:07Z</time>
      </trkpt>
      <trkpt lat="43.98357" lon="1.90756">
        <ele>189</ele>
        <time>2011-08-17T07:27:08Z</time>
      </trkpt>
      <trkpt lat="43.98357" lon="1.90759">
        <ele>189</ele>
        <time>2011-08-17T07:27:09Z</time>
      </trkpt>
      <trkpt lat="43.98356" lon="1.90761">
        <ele>189</ele>
        <time>2011-08-17T07:27:10Z</time>
      </trkpt>
      <trkpt lat="43.98355" lon="1.90764">
        <ele>189</ele>
        <time>2011-08-17T07:27:11Z</time>
      </trkpt>
      <trkpt lat="43.98355" lon="1.90767">
        <ele>189</ele>
        <time>2011-08-17T07:27:12Z</time>
      </trkpt>
      <trkpt lat="43.98355" lon="1.9077">
        <ele>189</ele>
        <time>2011-08-17T07:27:13Z</time>
      </trkpt>
      <trkpt lat="43.98356" lon="1.90774">
        <ele>189</ele>
        <time>2011-08-17T07:27:14Z</time>
      </trkpt>
      <trkpt lat="43.98357" lon="1.90777">
        <ele>189</ele>
        <time>2011-08-17T07:27:15Z</time>
      </trkpt>
      <trkpt lat="43.98357" lon="1.90779">
        <ele>189</ele>
        <time>2011-08-17T07:27:16Z</time>
      </trkpt>
      <trkpt lat="43.98358" lon="1.90781">
        <ele>189</ele>
        <time>2011-08-17T07:27:17Z</time>
      </trkpt>
      <trkpt lat="43.98358" lon="1.90784">
        <ele>189</ele>
        <time>2011-08-17T07:27:18Z</time>
      </trkpt>
      <trkpt lat="43.98359" lon="1.90787">
        <ele>189</ele>
        <time>2011-08-17T07:27:19Z</time>
      </trkpt>
      <trkpt lat="43.98359" lon="1.90791">
        <ele>189</ele>
        <time>2011-08-17T07:27:20Z</time>
      </trkpt>
      <trkpt lat="43.98359" lon="1.90795">
        <ele>189</ele>
        <time>2011-08-17T07:27:21Z</time>
      </trkpt>
      <trkpt lat="43.9836" lon="1.908">
        <ele>189</ele>
        <time>2011-08-17T07:27:22Z</time>
      </trkpt>
      <trkpt lat="43.9836" lon="1.90804">
        <ele>189</ele>
        <time>2011-08-17T07:27:24Z</time>
      </trkpt>
      <trkpt lat="43.98361" lon="1.90808">
        <ele>189</ele>
        <time>2011-08-17T07:27:24Z</time>
      </trkpt>
      <trkpt lat="43.98362" lon="1.90811">
        <ele>189</ele>
        <time>2011-08-17T07:27:25Z</time>
      </trkpt>
      <trkpt lat="43.98363" lon="1.90815">
        <ele>189</ele>
        <time>2011-08-17T07:27:26Z</time>
      </trkpt>
      <trkpt lat="43.98364" lon="1.90819">
        <ele>189</ele>
        <time>2011-08-17T07:27:27Z</time>
      </trkpt>
      <trkpt lat="43.98365" lon="1.90823">
        <ele>189</ele>
        <time>2011-08-17T07:27:28Z</time>
      </trkpt>
      <trkpt lat="43.98366" lon="1.90827">
        <ele>190</ele>
        <time>2011-08-17T07:27:29Z</time>
      </trkpt>
      <trkpt lat="43.98367" lon="1.90831">
        <ele>190</ele>
        <time>2011-08-17T07:27:30Z</time>
      </trkpt>
      <trkpt lat="43.98368" lon="1.90835">
        <ele>190</ele>
        <time>2011-08-17T07:27:32Z</time>
      </trkpt>
      <trkpt lat="43.9837" lon="1.90839">
        <ele>191</ele>
        <time>2011-08-17T07:27:32Z</time>
      </trkpt>
      <trkpt lat="43.98371" lon="1.90843">
        <ele>191</ele>
        <time>2011-08-17T07:27:33Z</time>
      </trkpt>
      <trkpt lat="43.98373" lon="1.90847">
        <ele>191</ele>
        <time>2011-08-17T07:27:34Z</time>
      </trkpt>
      <trkpt lat="43.98374" lon="1.90851">
        <ele>191</ele>
        <time>2011-08-17T07:27:35Z</time>
      </trkpt>
      <trkpt lat="43.98375" lon="1.90855">
        <ele>191</ele>
        <time>2011-08-17T07:27:36Z</time>
      </trkpt>
      <trkpt lat="43.98377" lon="1.90859">
        <ele>191</ele>
        <time>2011-08-17T07:27:37Z</time>
      </trkpt>
      <trkpt lat="43.98379" lon="1.90863">
        <ele>191</ele>
        <time>2011-08-17T07:27:38Z</time>
      </trkpt>
      <trkpt lat="43.9838" lon="1.90867">
        <ele>191</ele>
        <time>2011-08-17T07:27:39Z</time>
      </trkpt>
      <trkpt lat="43.98381" lon="1.90872">
        <ele>191</ele>
        <time>2011-08-17T07:27:40Z</time>
      </trkpt>
      <trkpt lat="43.98383" lon="1.90876">
        <ele>191</ele>
        <time>2011-08-17T07:27:41Z</time>
      </trkpt>
      <trkpt lat="43.98384" lon="1.9088">
        <ele>191</ele>
        <time>2011-08-17T07:27:42Z</time>
      </trkpt>
      <trkpt lat="43.98385" lon="1.90885">
        <ele>191</ele>
        <time>2011-08-17T07:27:43Z</time>
      </trkpt>
      <trkpt lat="43.98386" lon="1.90889">
        <ele>191</ele>
        <time>2011-08-17T07:27:44Z</time>
      </trkpt>
      <trkpt lat="43.98388" lon="1.90894">
        <ele>191</ele>
        <time>2011-08-17T07:27:45Z</time>
      </trkpt>
      <trkpt lat="43.98388" lon="1.90899">
        <ele>191</ele>
        <time>2011-08-17T07:27:46Z</time>
      </trkpt>
      <trkpt lat="43.98389" lon="1.90903">
        <ele>192</ele>
        <time>2011-08-17T07:27:47Z</time>
      </trkpt>
      <trkpt lat="43.9839" lon="1.90908">
        <ele>193</ele>
        <time>2011-08-17T07:27:49Z</time>
      </trkpt>
      <trkpt lat="43.9839" lon="1.90913">
        <ele>193</ele>
        <time>2011-08-17T07:27:49Z</time>
      </trkpt>
      <trkpt lat="43.9839" lon="1.90917">
        <ele>194</ele>
        <time>2011-08-17T07:27:50Z</time>
      </trkpt>
      <trkpt lat="43.98391" lon="1.90921">
        <ele>195</ele>
        <time>2011-08-17T07:27:51Z</time>
      </trkpt>
      <trkpt lat="43.98391" lon="1.90925">
        <ele>195</ele>
        <time>2011-08-17T07:27:52Z</time>
      </trkpt>
      <trkpt lat="43.98391" lon="1.9093">
        <ele>196</ele>
        <time>2011-08-17T07:27:53Z</time>
      </trkpt>
      <trkpt lat="43.98389" lon="1.90935">
        <ele>197</ele>
        <time>2011-08-17T07:27:54Z</time>
      </trkpt>
      <trkpt lat="43.98388" lon="1.9094">
        <ele>197</ele>
        <time>2011-08-17T07:27:55Z</time>
      </trkpt>
      <trkpt lat="43.98386" lon="1.90945">
        <ele>197</ele>
        <time>2011-08-17T07:27:56Z</time>
      </trkpt>
      <trkpt lat="43.98384" lon="1.90949">
        <ele>197</ele>
        <time>2011-08-17T07:27:57Z</time>
      </trkpt>
      <trkpt lat="43.98382" lon="1.90954">
        <ele>197</ele>
        <time>2011-08-17T07:27:58Z</time>
      </trkpt>
      <trkpt lat="43.9838" lon="1.90958">
        <ele>197</ele>
        <time>2011-08-17T07:27:59Z</time>
      </trkpt>
      <trkpt lat="43.98378" lon="1.90962">
        <ele>197</ele>
        <time>2011-08-17T07:28:00Z</time>
      </trkpt>
      <trkpt lat="43.98376" lon="1.90966">
        <ele>197</ele>
        <time>2011-08-17T07:28:01Z</time>
      </trkpt>
      <trkpt lat="43.98375" lon="1.90971">
        <ele>197</ele>
        <time>2011-08-17T07:28:02Z</time>
      </trkpt>
      <trkpt lat="43.98373" lon="1.90975">
        <ele>197</ele>
        <time>2011-08-17T07:28:03Z</time>
      </trkpt>
      <trkpt lat="43.9837" lon="1.9098">
        <ele>197</ele>
        <time>2011-08-17T07:28:04Z</time>
      </trkpt>
      <trkpt lat="43.98368" lon="1.90984">
        <ele>198</ele>
        <time>2011-08-17T07:28:05Z</time>
      </trkpt>
      <trkpt lat="43.98366" lon="1.90989">
        <ele>198</ele>
        <time>2011-08-17T07:28:06Z</time>
      </trkpt>
      <trkpt lat="43.98365" lon="1.90994">
        <ele>199</ele>
        <time>2011-08-17T07:28:07Z</time>
      </trkpt>
      <trkpt lat="43.98363" lon="1.90998">
        <ele>200</ele>
        <time>2011-08-17T07:28:08Z</time>
      </trkpt>
      <trkpt lat="43.9836" lon="1.91003">
        <ele>200</ele>
        <time>2011-08-17T07:28:09Z</time>
      </trkpt>
      <trkpt lat="43.98358" lon="1.91008">
        <ele>201</ele>
        <time>2011-08-17T07:28:10Z</time>
      </trkpt>
      <trkpt lat="43.98356" lon="1.91013">
        <ele>201</ele>
        <time>2011-08-17T07:28:11Z</time>
      </trkpt>
      <trkpt lat="43.98354" lon="1.91018">
        <ele>201</ele>
        <time>2011-08-17T07:28:13Z</time>
      </trkpt>
      <trkpt lat="43.98352" lon="1.91023">
        <ele>201</ele>
        <time>2011-08-17T07:28:13Z</time>
      </trkpt>
      <trkpt lat="43.9835" lon="1.91028">
        <ele>202</ele>
        <time>2011-08-17T07:28:14Z</time>
      </trkpt>
      <trkpt lat="43.98348" lon="1.91033">
        <ele>202</ele>
        <time>2011-08-17T07:28:15Z</time>
      </trkpt>
      <trkpt lat="43.98346" lon="1.91038">
        <ele>202</ele>
        <time>2011-08-17T07:28:16Z</time>
      </trkpt>
      <trkpt lat="43.98344" lon="1.91043">
        <ele>203</ele>
        <time>2011-08-17T07:28:17Z</time>
      </trkpt>
      <trkpt lat="43.98342" lon="1.91048">
        <ele>203</ele>
        <time>2011-08-17T07:28:18Z</time>
      </trkpt>
      <trkpt lat="43.98341" lon="1.91052">
        <ele>203</ele>
        <time>2011-08-17T07:28:19Z</time>
      </trkpt>
      <trkpt lat="43.98339" lon="1.91056">
        <ele>204</ele>
        <time>2011-08-17T07:28:20Z</time>
      </trkpt>
      <trkpt lat="43.98338" lon="1.9106">
        <ele>204</ele>
        <time>2011-08-17T07:28:21Z</time>
      </trkpt>
      <trkpt lat="43.98336" lon="1.91064">
        <ele>205</ele>
        <time>2011-08-17T07:28:22Z</time>
      </trkpt>
      <trkpt lat="43.98334" lon="1.91067">
        <ele>205</ele>
        <time>2011-08-17T07:28:23Z</time>
      </trkpt>
      <trkpt lat="43.98333" lon="1.9107">
        <ele>206</ele>
        <time>2011-08-17T07:28:25Z</time>
      </trkpt>
      <trkpt lat="43.9833" lon="1.91072">
        <ele>206</ele>
        <time>2011-08-17T07:28:25Z</time>
      </trkpt>
      <trkpt lat="43.98328" lon="1.91074">
        <ele>207</ele>
        <time>2011-08-17T07:28:26Z</time>
      </trkpt>
      <trkpt lat="43.98325" lon="1.91076">
        <ele>208</ele>
        <time>2011-08-17T07:28:27Z</time>
      </trkpt>
      <trkpt lat="43.98323" lon="1.91079">
        <ele>209</ele>
        <time>2011-08-17T07:28:28Z</time>
      </trkpt>
      <trkpt lat="43.9832" lon="1.9108">
        <ele>209</ele>
        <time>2011-08-17T07:28:30Z</time>
      </trkpt>
      <trkpt lat="43.98318" lon="1.91082">
        <ele>209</ele>
        <time>2011-08-17T07:28:31Z</time>
      </trkpt>
      <trkpt lat="43.98315" lon="1.91084">
        <ele>209</ele>
        <time>2011-08-17T07:28:32Z</time>
      </trkpt>
      <trkpt lat="43.98314" lon="1.91085">
        <ele>209</ele>
        <time>2011-08-17T07:28:32Z</time>
      </trkpt>
      <trkpt lat="43.98312" lon="1.91086">
        <ele>209</ele>
        <time>2011-08-17T07:28:33Z</time>
      </trkpt>
      <trkpt lat="43.98311" lon="1.91087">
        <ele>209</ele>
        <time>2011-08-17T07:28:38Z</time>
      </trkpt>
      <trkpt lat="43.9831" lon="1.91089">
        <ele>209</ele>
        <time>2011-08-17T07:28:39Z</time>
      </trkpt>
      <trkpt lat="43.98309" lon="1.91091">
        <ele>209</ele>
        <time>2011-08-17T07:28:41Z</time>
      </trkpt>
      <trkpt lat="43.98308" lon="1.91095">
        <ele>209</ele>
        <time>2011-08-17T07:28:41Z</time>
      </trkpt>
      <trkpt lat="43.98308" lon="1.91099">
        <ele>209</ele>
        <time>2011-08-17T07:28:42Z</time>
      </trkpt>
      <trkpt lat="43.98308" lon="1.91103">
        <ele>209</ele>
        <time>2011-08-17T07:28:43Z</time>
      </trkpt>
      <trkpt lat="43.98308" lon="1.91109">
        <ele>209</ele>
        <time>2011-08-17T07:28:44Z</time>
      </trkpt>
      <trkpt lat="43.98308" lon="1.91114">
        <ele>209</ele>
        <time>2011-08-17T07:28:45Z</time>
      </trkpt>
      <trkpt lat="43.98307" lon="1.91119">
        <ele>209</ele>
        <time>2011-08-17T07:28:46Z</time>
      </trkpt>
      <trkpt lat="43.98306" lon="1.91123">
        <ele>209</ele>
        <time>2011-08-17T07:28:47Z</time>
      </trkpt>
      <trkpt lat="43.98305" lon="1.91126">
        <ele>209</ele>
        <time>2011-08-17T07:28:49Z</time>
      </trkpt>
      <trkpt lat="43.98304" lon="1.91128">
        <ele>209</ele>
        <time>2011-08-17T07:28:49Z</time>
      </trkpt>
      <trkpt lat="43.98303" lon="1.91129">
        <ele>209</ele>
        <time>2011-08-17T07:28:50Z</time>
      </trkpt>
      <trkpt lat="43.98301" lon="1.9113">
        <ele>209</ele>
        <time>2011-08-17T07:28:52Z</time>
      </trkpt>
      <trkpt lat="43.983" lon="1.91128">
        <ele>209</ele>
        <time>2011-08-17T07:28:55Z</time>
      </trkpt>
      <trkpt lat="43.98299" lon="1.91129">
        <ele>209</ele>
        <time>2011-08-17T07:28:57Z</time>
      </trkpt>
      <trkpt lat="43.98296" lon="1.91129">
        <ele>209</ele>
        <time>2011-08-17T07:28:57Z</time>
      </trkpt>
      <trkpt lat="43.98294" lon="1.9113">
        <ele>209</ele>
        <time>2011-08-17T07:28:58Z</time>
      </trkpt>
      <trkpt lat="43.98293" lon="1.91131">
        <ele>209</ele>
        <time>2011-08-17T07:28:59Z</time>
      </trkpt>
      <trkpt lat="43.98291" lon="1.91133">
        <ele>209</ele>
        <time>2011-08-17T07:29:01Z</time>
      </trkpt>
      <trkpt lat="43.98289" lon="1.91135">
        <ele>209</ele>
        <time>2011-08-17T07:29:01Z</time>
      </trkpt>
      <trkpt lat="43.98287" lon="1.91136">
        <ele>209</ele>
        <time>2011-08-17T07:29:02Z</time>
      </trkpt>
      <trkpt lat="43.98285" lon="1.91138">
        <ele>209</ele>
        <time>2011-08-17T07:29:03Z</time>
      </trkpt>
      <trkpt lat="43.98283" lon="1.91139">
        <ele>209</ele>
        <time>2011-08-17T07:29:04Z</time>
      </trkpt>
      <trkpt lat="43.9828" lon="1.91141">
        <ele>209</ele>
        <time>2011-08-17T07:29:05Z</time>
      </trkpt>
      <trkpt lat="43.98278" lon="1.91141">
        <ele>209</ele>
        <time>2011-08-17T07:29:06Z</time>
      </trkpt>
      <trkpt lat="43.98276" lon="1.91142">
        <ele>208</ele>
        <time>2011-08-17T07:29:07Z</time>
      </trkpt>
      <trkpt lat="43.98273" lon="1.91143">
        <ele>207</ele>
        <time>2011-08-17T07:29:08Z</time>
      </trkpt>
      <trkpt lat="43.9827" lon="1.91145">
        <ele>206</ele>
        <time>2011-08-17T07:29:09Z</time>
      </trkpt>
      <trkpt lat="43.98268" lon="1.91146">
        <ele>206</ele>
        <time>2011-08-17T07:29:10Z</time>
      </trkpt>
      <trkpt lat="43.98265" lon="1.91147">
        <ele>205</ele>
        <time>2011-08-17T07:29:11Z</time>
      </trkpt>
      <trkpt lat="43.98262" lon="1.91149">
        <ele>205</ele>
        <time>2011-08-17T07:29:12Z</time>
      </trkpt>
      <trkpt lat="43.9826" lon="1.91151">
        <ele>204</ele>
        <time>2011-08-17T07:29:13Z</time>
      </trkpt>
      <trkpt lat="43.98257" lon="1.91154">
        <ele>204</ele>
        <time>2011-08-17T07:29:14Z</time>
      </trkpt>
      <trkpt lat="43.98255" lon="1.91156">
        <ele>204</ele>
        <time>2011-08-17T07:29:15Z</time>
      </trkpt>
      <trkpt lat="43.98253" lon="1.91159">
        <ele>204</ele>
        <time>2011-08-17T07:29:16Z</time>
      </trkpt>
      <trkpt lat="43.98251" lon="1.91162">
        <ele>203</ele>
        <time>2011-08-17T07:29:17Z</time>
      </trkpt>
      <trkpt lat="43.98249" lon="1.91164">
        <ele>203</ele>
        <time>2011-08-17T07:29:19Z</time>
      </trkpt>
      <trkpt lat="43.98245" lon="1.91168">
        <ele>202</ele>
        <time>2011-08-17T07:29:19Z</time>
      </trkpt>
      <trkpt lat="43.98241" lon="1.91171">
        <ele>201</ele>
        <time>2011-08-17T07:29:20Z</time>
      </trkpt>
      <trkpt lat="43.98238" lon="1.91174">
        <ele>201</ele>
        <time>2011-08-17T07:29:21Z</time>
      </trkpt>
      <trkpt lat="43.98233" lon="1.9118">
        <ele>201</ele>
        <time>2011-08-17T07:29:22Z</time>
      </trkpt>
      <trkpt lat="43.98228" lon="1.91182">
        <ele>200</ele>
        <time>2011-08-17T07:29:23Z</time>
      </trkpt>
      <trkpt lat="43.98223" lon="1.91185">
        <ele>200</ele>
        <time>2011-08-17T07:29:24Z</time>
      </trkpt>
      <trkpt lat="43.98219" lon="1.91188">
        <ele>200</ele>
        <time>2011-08-17T07:29:25Z</time>
      </trkpt>
      <trkpt lat="43.98214" lon="1.91191">
        <ele>199</ele>
        <time>2011-08-17T07:29:26Z</time>
      </trkpt>
      <trkpt lat="43.98209" lon="1.91193">
        <ele>199</ele>
        <time>2011-08-17T07:29:27Z</time>
      </trkpt>
      <trkpt lat="43.98204" lon="1.91196">
        <ele>198</ele>
        <time>2011-08-17T07:29:28Z</time>
      </trkpt>
      <trkpt lat="43.98199" lon="1.91199">
        <ele>198</ele>
        <time>2011-08-17T07:29:29Z</time>
      </trkpt>
      <trkpt lat="43.98194" lon="1.91202">
        <ele>198</ele>
        <time>2011-08-17T07:29:30Z</time>
      </trkpt>
      <trkpt lat="43.9819" lon="1.91205">
        <ele>198</ele>
        <time>2011-08-17T07:29:31Z</time>
      </trkpt>
      <trkpt lat="43.98187" lon="1.91209">
        <ele>198</ele>
        <time>2011-08-17T07:29:32Z</time>
      </trkpt>
      <trkpt lat="43.98183" lon="1.91212">
        <ele>198</ele>
        <time>2011-08-17T07:29:33Z</time>
      </trkpt>
      <trkpt lat="43.9818" lon="1.91215">
        <ele>198</ele>
        <time>2011-08-17T07:29:35Z</time>
      </trkpt>
      <trkpt lat="43.98177" lon="1.91218">
        <ele>198</ele>
        <time>2011-08-17T07:29:35Z</time>
      </trkpt>
      <trkpt lat="43.98175" lon="1.9122">
        <ele>198</ele>
        <time>2011-08-17T07:29:36Z</time>
      </trkpt>
      <trkpt lat="43.98172" lon="1.91222">
        <ele>198</ele>
        <time>2011-08-17T07:29:37Z</time>
      </trkpt>
      <trkpt lat="43.98172" lon="1.91224">
        <ele>196</ele>
        <time>2011-08-17T07:29:43Z</time>
      </trkpt>
      <trkpt lat="43.98171" lon="1.91224">
        <ele>196</ele>
        <time>2011-08-17T07:29:45Z</time>
      </trkpt>
      <trkpt lat="43.9817" lon="1.91225">
        <ele>194</ele>
        <time>2011-08-17T07:29:51Z</time>
      </trkpt>
      <trkpt lat="43.98169" lon="1.91225">
        <ele>191</ele>
        <time>2011-08-17T07:29:58Z</time>
      </trkpt>
      <trkpt lat="43.9817" lon="1.91224">
        <ele>190</ele>
        <time>2011-08-17T07:30:12Z</time>
      </trkpt>
      <trkpt lat="43.98171" lon="1.91223">
        <ele>194</ele>
        <time>2011-08-17T07:30:16Z</time>
      </trkpt>
      <trkpt lat="43.98173" lon="1.91222">
        <ele>198</ele>
        <time>2011-08-17T07:30:23Z</time>
      </trkpt>
      <trkpt lat="43.98174" lon="1.91221">
        <ele>204</ele>
        <time>2011-08-17T07:30:30Z</time>
      </trkpt>
      <trkpt lat="43.98175" lon="1.9122">
        <ele>206</ele>
        <time>2011-08-17T07:30:32Z</time>
      </trkpt>
      <trkpt lat="43.98174" lon="1.91222">
        <ele>208</ele>
        <time>2011-08-17T07:30:38Z</time>
      </trkpt>
      <trkpt lat="43.98172" lon="1.91223">
        <ele>208</ele>
        <time>2011-08-17T07:30:40Z</time>
      </trkpt>
      <trkpt lat="43.9817" lon="1.91225">
        <ele>208</ele>
        <time>2011-08-17T07:30:42Z</time>
      </trkpt>
      <trkpt lat="43.98168" lon="1.91227">
        <ele>208</ele>
        <time>2011-08-17T07:30:45Z</time>
      </trkpt>
      <trkpt lat="43.98167" lon="1.91228">
        <ele>207</ele>
        <time>2011-08-17T07:30:46Z</time>
      </trkpt>
      <trkpt lat="43.98165" lon="1.91227">
        <ele>202</ele>
        <time>2011-08-17T07:30:59Z</time>
      </trkpt>
      <trkpt lat="43.98173" lon="1.91229">
        <ele>198</ele>
        <time>2011-08-17T07:31:12Z</time>
      </trkpt>
      <trkpt lat="43.98171" lon="1.91232">
        <ele>198</ele>
        <time>2011-08-17T07:31:14Z</time>
      </trkpt>
      <trkpt lat="43.9817" lon="1.91233">
        <ele>198</ele>
        <time>2011-08-17T07:31:15Z</time>
      </trkpt>
      <trkpt lat="43.9817" lon="1.91235">
        <ele>198</ele>
        <time>2011-08-17T07:31:16Z</time>
      </trkpt>
      <trkpt lat="43.98169" lon="1.91236">
        <ele>198</ele>
        <time>2011-08-17T07:31:17Z</time>
      </trkpt>
      <trkpt lat="43.98167" lon="1.91238">
        <ele>198</ele>
        <time>2011-08-17T07:31:19Z</time>
      </trkpt>
      <trkpt lat="43.98165" lon="1.9124">
        <ele>198</ele>
        <time>2011-08-17T07:31:20Z</time>
      </trkpt>
      <trkpt lat="43.98164" lon="1.91241">
        <ele>198</ele>
        <time>2011-08-17T07:31:21Z</time>
      </trkpt>
      <trkpt lat="43.98162" lon="1.91243">
        <ele>198</ele>
        <time>2011-08-17T07:31:22Z</time>
      </trkpt>
      <trkpt lat="43.98162" lon="1.91245">
        <ele>198</ele>
        <time>2011-08-17T07:31:23Z</time>
      </trkpt>
      <trkpt lat="43.98161" lon="1.91246">
        <ele>198</ele>
        <time>2011-08-17T07:31:24Z</time>
      </trkpt>
      <trkpt lat="43.9816" lon="1.91249">
        <ele>198</ele>
        <time>2011-08-17T07:31:25Z</time>
      </trkpt>
      <trkpt lat="43.98159" lon="1.91252">
        <ele>198</ele>
        <time>2011-08-17T07:31:26Z</time>
      </trkpt>
      <trkpt lat="43.98158" lon="1.91254">
        <ele>198</ele>
        <time>2011-08-17T07:31:27Z</time>
      </trkpt>
      <trkpt lat="43.98156" lon="1.91256">
        <ele>198</ele>
        <time>2011-08-17T07:31:28Z</time>
      </trkpt>
      <trkpt lat="43.98155" lon="1.9126">
        <ele>199</ele>
        <time>2011-08-17T07:31:29Z</time>
      </trkpt>
      <trkpt lat="43.98153" lon="1.91264">
        <ele>199</ele>
        <time>2011-08-17T07:31:30Z</time>
      </trkpt>
      <trkpt lat="43.98152" lon="1.91269">
        <ele>199</ele>
        <time>2011-08-17T07:31:31Z</time>
      </trkpt>
      <trkpt lat="43.98151" lon="1.91274">
        <ele>199</ele>
        <time>2011-08-17T07:31:32Z</time>
      </trkpt>
      <trkpt lat="43.9815" lon="1.9128">
        <ele>199</ele>
        <time>2011-08-17T07:31:33Z</time>
      </trkpt>
      <trkpt lat="43.98149" lon="1.91287">
        <ele>199</ele>
        <time>2011-08-17T07:31:34Z</time>
      </trkpt>
      <trkpt lat="43.98149" lon="1.91294">
        <ele>199</ele>
        <time>2011-08-17T07:31:35Z</time>
      </trkpt>
      <trkpt lat="43.98149" lon="1.91302">
        <ele>199</ele>
        <time>2011-08-17T07:31:36Z</time>
      </trkpt>
      <trkpt lat="43.98148" lon="1.9131">
        <ele>199</ele>
        <time>2011-08-17T07:31:37Z</time>
      </trkpt>
      <trkpt lat="43.98148" lon="1.91318">
        <ele>199</ele>
        <time>2011-08-17T07:31:38Z</time>
      </trkpt>
      <trkpt lat="43.98147" lon="1.91326">
        <ele>199</ele>
        <time>2011-08-17T07:31:39Z</time>
      </trkpt>
      <trkpt lat="43.98147" lon="1.91335">
        <ele>199</ele>
        <time>2011-08-17T07:31:40Z</time>
      </trkpt>
      <trkpt lat="43.98146" lon="1.91343">
        <ele>199</ele>
        <time>2011-08-17T07:31:41Z</time>
      </trkpt>
      <trkpt lat="43.98146" lon="1.91351">
        <ele>199</ele>
        <time>2011-08-17T07:31:42Z</time>
      </trkpt>
      <trkpt lat="43.98145" lon="1.91359">
        <ele>199</ele>
        <time>2011-08-17T07:31:43Z</time>
      </trkpt>
      <trkpt lat="43.98145" lon="1.91367">
        <ele>199</ele>
        <time>2011-08-17T07:31:44Z</time>
      </trkpt>
      <trkpt lat="43.98145" lon="1.91375">
        <ele>199</ele>
        <time>2011-08-17T07:31:45Z</time>
      </trkpt>
      <trkpt lat="43.98145" lon="1.91383">
        <ele>199</ele>
        <time>2011-08-17T07:31:46Z</time>
      </trkpt>
      <trkpt lat="43.98145" lon="1.9139">
        <ele>199</ele>
        <time>2011-08-17T07:31:47Z</time>
      </trkpt>
      <trkpt lat="43.98144" lon="1.91396">
        <ele>199</ele>
        <time>2011-08-17T07:31:48Z</time>
      </trkpt>
      <trkpt lat="43.98143" lon="1.91402">
        <ele>199</ele>
        <time>2011-08-17T07:31:49Z</time>
      </trkpt>
      <trkpt lat="43.98142" lon="1.91408">
        <ele>199</ele>
        <time>2011-08-17T07:31:50Z</time>
      </trkpt>
      <trkpt lat="43.98141" lon="1.91413">
        <ele>199</ele>
        <time>2011-08-17T07:31:51Z</time>
      </trkpt>
      <trkpt lat="43.9814" lon="1.91419">
        <ele>198</ele>
        <time>2011-08-17T07:31:52Z</time>
      </trkpt>
      <trkpt lat="43.98138" lon="1.91425">
        <ele>198</ele>
        <time>2011-08-17T07:31:53Z</time>
      </trkpt>
      <trkpt lat="43.98137" lon="1.91431">
        <ele>198</ele>
        <time>2011-08-17T07:31:54Z</time>
      </trkpt>
      <trkpt lat="43.98136" lon="1.91436">
        <ele>198</ele>
        <time>2011-08-17T07:31:55Z</time>
      </trkpt>
      <trkpt lat="43.98134" lon="1.91442">
        <ele>198</ele>
        <time>2011-08-17T07:31:56Z</time>
      </trkpt>
      <trkpt lat="43.98132" lon="1.91447">
        <ele>198</ele>
        <time>2011-08-17T07:31:57Z</time>
      </trkpt>
      <trkpt lat="43.9813" lon="1.91453">
        <ele>198</ele>
        <time>2011-08-17T07:31:58Z</time>
      </trkpt>
      <trkpt lat="43.98127" lon="1.91458">
        <ele>198</ele>
        <time>2011-08-17T07:31:59Z</time>
      </trkpt>
      <trkpt lat="43.98125" lon="1.91463">
        <ele>198</ele>
        <time>2011-08-17T07:32:00Z</time>
      </trkpt>
      <trkpt lat="43.98123" lon="1.91469">
        <ele>198</ele>
        <time>2011-08-17T07:32:01Z</time>
      </trkpt>
      <trkpt lat="43.98121" lon="1.91473">
        <ele>198</ele>
        <time>2011-08-17T07:32:02Z</time>
      </trkpt>
      <trkpt lat="43.98119" lon="1.91479">
        <ele>198</ele>
        <time>2011-08-17T07:32:03Z</time>
      </trkpt>
      <trkpt lat="43.98117" lon="1.91484">
        <ele>198</ele>
        <time>2011-08-17T07:32:04Z</time>
      </trkpt>
      <trkpt lat="43.98116" lon="1.9149">
        <ele>198</ele>
        <time>2011-08-17T07:32:05Z</time>
      </trkpt>
      <trkpt lat="43.98114" lon="1.91495">
        <ele>198</ele>
        <time>2011-08-17T07:32:06Z</time>
      </trkpt>
      <trkpt lat="43.98113" lon="1.91501">
        <ele>198</ele>
        <time>2011-08-17T07:32:07Z</time>
      </trkpt>
      <trkpt lat="43.98112" lon="1.91507">
        <ele>198</ele>
        <time>2011-08-17T07:32:08Z</time>
      </trkpt>
      <trkpt lat="43.98112" lon="1.91512">
        <ele>198</ele>
        <time>2011-08-17T07:32:09Z</time>
      </trkpt>
      <trkpt lat="43.98111" lon="1.91518">
        <ele>198</ele>
        <time>2011-08-17T07:32:10Z</time>
      </trkpt>
      <trkpt lat="43.9811" lon="1.91523">
        <ele>198</ele>
        <time>2011-08-17T07:32:11Z</time>
      </trkpt>
      <trkpt lat="43.98109" lon="1.91527">
        <ele>198</ele>
        <time>2011-08-17T07:32:12Z</time>
      </trkpt>
      <trkpt lat="43.98109" lon="1.91532">
        <ele>198</ele>
        <time>2011-08-17T07:32:13Z</time>
      </trkpt>
      <trkpt lat="43.98109" lon="1.91537">
        <ele>198</ele>
        <time>2011-08-17T07:32:14Z</time>
      </trkpt>
      <trkpt lat="43.98109" lon="1.91542">
        <ele>198</ele>
        <time>2011-08-17T07:32:15Z</time>
      </trkpt>
      <trkpt lat="43.98109" lon="1.91548">
        <ele>198</ele>
        <time>2011-08-17T07:32:16Z</time>
      </trkpt>
      <trkpt lat="43.98108" lon="1.91553">
        <ele>198</ele>
        <time>2011-08-17T07:32:17Z</time>
      </trkpt>
      <trkpt lat="43.98108" lon="1.91559">
        <ele>198</ele>
        <time>2011-08-17T07:32:18Z</time>
      </trkpt>
      <trkpt lat="43.98108" lon="1.91564">
        <ele>198</ele>
        <time>2011-08-17T07:32:19Z</time>
      </trkpt>
      <trkpt lat="43.98107" lon="1.9157">
        <ele>198</ele>
        <time>2011-08-17T07:32:20Z</time>
      </trkpt>
      <trkpt lat="43.98107" lon="1.91576">
        <ele>198</ele>
        <time>2011-08-17T07:32:21Z</time>
      </trkpt>
      <trkpt lat="43.98107" lon="1.91581">
        <ele>198</ele>
        <time>2011-08-17T07:32:22Z</time>
      </trkpt>
      <trkpt lat="43.98107" lon="1.91587">
        <ele>198</ele>
        <time>2011-08-17T07:32:23Z</time>
      </trkpt>
      <trkpt lat="43.98106" lon="1.91593">
        <ele>198</ele>
        <time>2011-08-17T07:32:24Z</time>
      </trkpt>
      <trkpt lat="43.98105" lon="1.91598">
        <ele>198</ele>
        <time>2011-08-17T07:32:25Z</time>
      </trkpt>
      <trkpt lat="43.98104" lon="1.91602">
        <ele>198</ele>
        <time>2011-08-17T07:32:26Z</time>
      </trkpt>
      <trkpt lat="43.98103" lon="1.91607">
        <ele>198</ele>
        <time>2011-08-17T07:32:27Z</time>
      </trkpt>
      <trkpt lat="43.98103" lon="1.91611">
        <ele>199</ele>
        <time>2011-08-17T07:32:28Z</time>
      </trkpt>
      <trkpt lat="43.98101" lon="1.91615">
        <ele>199</ele>
        <time>2011-08-17T07:32:29Z</time>
      </trkpt>
      <trkpt lat="43.981" lon="1.91619">
        <ele>199</ele>
        <time>2011-08-17T07:32:30Z</time>
      </trkpt>
      <trkpt lat="43.98099" lon="1.91623">
        <ele>199</ele>
        <time>2011-08-17T07:32:31Z</time>
      </trkpt>
      <trkpt lat="43.98098" lon="1.91627">
        <ele>200</ele>
        <time>2011-08-17T07:32:32Z</time>
      </trkpt>
      <trkpt lat="43.98096" lon="1.91631">
        <ele>200</ele>
        <time>2011-08-17T07:32:33Z</time>
      </trkpt>
      <trkpt lat="43.98095" lon="1.91634">
        <ele>200</ele>
        <time>2011-08-17T07:32:34Z</time>
      </trkpt>
      <trkpt lat="43.98094" lon="1.91638">
        <ele>200</ele>
        <time>2011-08-17T07:32:35Z</time>
      </trkpt>
      <trkpt lat="43.98092" lon="1.91641">
        <ele>200</ele>
        <time>2011-08-17T07:32:36Z</time>
      </trkpt>
      <trkpt lat="43.98092" lon="1.91645">
        <ele>200</ele>
        <time>2011-08-17T07:32:37Z</time>
      </trkpt>
      <trkpt lat="43.9809" lon="1.91647">
        <ele>200</ele>
        <time>2011-08-17T07:32:38Z</time>
      </trkpt>
      <trkpt lat="43.9809" lon="1.9165">
        <ele>200</ele>
        <time>2011-08-17T07:32:39Z</time>
      </trkpt>
      <trkpt lat="43.98089" lon="1.91653">
        <ele>200</ele>
        <time>2011-08-17T07:32:40Z</time>
      </trkpt>
      <trkpt lat="43.98088" lon="1.91656">
        <ele>200</ele>
        <time>2011-08-17T07:32:41Z</time>
      </trkpt>
      <trkpt lat="43.98088" lon="1.91659">
        <ele>200</ele>
        <time>2011-08-17T07:32:42Z</time>
      </trkpt>
      <trkpt lat="43.98087" lon="1.91662">
        <ele>200</ele>
        <time>2011-08-17T07:32:43Z</time>
      </trkpt>
      <trkpt lat="43.98086" lon="1.91665">
        <ele>200</ele>
        <time>2011-08-17T07:32:44Z</time>
      </trkpt>
      <trkpt lat="43.98085" lon="1.91668">
        <ele>201</ele>
        <time>2011-08-17T07:32:45Z</time>
      </trkpt>
      <trkpt lat="43.98085" lon="1.91671">
        <ele>201</ele>
        <time>2011-08-17T07:32:46Z</time>
      </trkpt>
      <trkpt lat="43.98084" lon="1.91674">
        <ele>201</ele>
        <time>2011-08-17T07:32:47Z</time>
      </trkpt>
      <trkpt lat="43.98083" lon="1.91677">
        <ele>202</ele>
        <time>2011-08-17T07:32:48Z</time>
      </trkpt>
      <trkpt lat="43.98082" lon="1.91679">
        <ele>202</ele>
        <time>2011-08-17T07:32:49Z</time>
      </trkpt>
      <trkpt lat="43.98082" lon="1.91682">
        <ele>202</ele>
        <time>2011-08-17T07:32:50Z</time>
      </trkpt>
      <trkpt lat="43.9808" lon="1.91684">
        <ele>202</ele>
        <time>2011-08-17T07:32:51Z</time>
      </trkpt>
      <trkpt lat="43.9808" lon="1.91687">
        <ele>202</ele>
        <time>2011-08-17T07:32:52Z</time>
      </trkpt>
      <trkpt lat="43.98079" lon="1.91689">
        <ele>202</ele>
        <time>2011-08-17T07:32:53Z</time>
      </trkpt>
      <trkpt lat="43.98078" lon="1.91691">
        <ele>202</ele>
        <time>2011-08-17T07:32:54Z</time>
      </trkpt>
      <trkpt lat="43.98077" lon="1.91694">
        <ele>203</ele>
        <time>2011-08-17T07:32:55Z</time>
      </trkpt>
      <trkpt lat="43.98075" lon="1.91696">
        <ele>203</ele>
        <time>2011-08-17T07:32:56Z</time>
      </trkpt>
      <trkpt lat="43.98074" lon="1.91699">
        <ele>204</ele>
        <time>2011-08-17T07:32:58Z</time>
      </trkpt>
      <trkpt lat="43.98072" lon="1.917">
        <ele>204</ele>
        <time>2011-08-17T07:32:59Z</time>
      </trkpt>
      <trkpt lat="43.98071" lon="1.91701">
        <ele>204</ele>
        <time>2011-08-17T07:33:00Z</time>
      </trkpt>
      <trkpt lat="43.98069" lon="1.91703">
        <ele>205</ele>
        <time>2011-08-17T07:33:01Z</time>
      </trkpt>
      <trkpt lat="43.98066" lon="1.91704">
        <ele>205</ele>
        <time>2011-08-17T07:33:02Z</time>
      </trkpt>
      <trkpt lat="43.98064" lon="1.91706">
        <ele>206</ele>
        <time>2011-08-17T07:33:03Z</time>
      </trkpt>
      <trkpt lat="43.98062" lon="1.91707">
        <ele>206</ele>
        <time>2011-08-17T07:33:04Z</time>
      </trkpt>
      <trkpt lat="43.9806" lon="1.91708">
        <ele>207</ele>
        <time>2011-08-17T07:33:05Z</time>
      </trkpt>
      <trkpt lat="43.98058" lon="1.91709">
        <ele>207</ele>
        <time>2011-08-17T07:33:06Z</time>
      </trkpt>
      <trkpt lat="43.98057" lon="1.9171">
        <ele>208</ele>
        <time>2011-08-17T07:33:07Z</time>
      </trkpt>
      <trkpt lat="43.98055" lon="1.91711">
        <ele>208</ele>
        <time>2011-08-17T07:33:08Z</time>
      </trkpt>
      <trkpt lat="43.98053" lon="1.91712">
        <ele>208</ele>
        <time>2011-08-17T07:33:09Z</time>
      </trkpt>
      <trkpt lat="43.98051" lon="1.91713">
        <ele>209</ele>
        <time>2011-08-17T07:33:10Z</time>
      </trkpt>
      <trkpt lat="43.9805" lon="1.91714">
        <ele>209</ele>
        <time>2011-08-17T07:33:11Z</time>
      </trkpt>
      <trkpt lat="43.98048" lon="1.91715">
        <ele>210</ele>
        <time>2011-08-17T07:33:12Z</time>
      </trkpt>
      <trkpt lat="43.98046" lon="1.91715">
        <ele>211</ele>
        <time>2011-08-17T07:33:13Z</time>
      </trkpt>
      <trkpt lat="43.98045" lon="1.91715">
        <ele>211</ele>
        <time>2011-08-17T07:33:14Z</time>
      </trkpt>
      <trkpt lat="43.98043" lon="1.91716">
        <ele>212</ele>
        <time>2011-08-17T07:33:15Z</time>
      </trkpt>
      <trkpt lat="43.98042" lon="1.91717">
        <ele>212</ele>
        <time>2011-08-17T07:33:16Z</time>
      </trkpt>
      <trkpt lat="43.9804" lon="1.91717">
        <ele>213</ele>
        <time>2011-08-17T07:33:17Z</time>
      </trkpt>
      <trkpt lat="43.98038" lon="1.91718">
        <ele>213</ele>
        <time>2011-08-17T07:33:18Z</time>
      </trkpt>
      <trkpt lat="43.98036" lon="1.91718">
        <ele>214</ele>
        <time>2011-08-17T07:33:19Z</time>
      </trkpt>
      <trkpt lat="43.98034" lon="1.91719">
        <ele>214</ele>
        <time>2011-08-17T07:33:20Z</time>
      </trkpt>
      <trkpt lat="43.98032" lon="1.91721">
        <ele>214</ele>
        <time>2011-08-17T07:33:21Z</time>
      </trkpt>
      <trkpt lat="43.9803" lon="1.91722">
        <ele>215</ele>
        <time>2011-08-17T07:33:22Z</time>
      </trkpt>
      <trkpt lat="43.98029" lon="1.91724">
        <ele>215</ele>
        <time>2011-08-17T07:33:23Z</time>
      </trkpt>
      <trkpt lat="43.98027" lon="1.91725">
        <ele>215</ele>
        <time>2011-08-17T07:33:24Z</time>
      </trkpt>
      <trkpt lat="43.98024" lon="1.91727">
        <ele>216</ele>
        <time>2011-08-17T07:33:25Z</time>
      </trkpt>
      <trkpt lat="43.98022" lon="1.91728">
        <ele>217</ele>
        <time>2011-08-17T07:33:26Z</time>
      </trkpt>
      <trkpt lat="43.98021" lon="1.91729">
        <ele>218</ele>
        <time>2011-08-17T07:33:28Z</time>
      </trkpt>
      <trkpt lat="43.9802" lon="1.9173">
        <ele>219</ele>
        <time>2011-08-17T07:33:29Z</time>
      </trkpt>
      <trkpt lat="43.98018" lon="1.91731">
        <ele>219</ele>
        <time>2011-08-17T07:33:30Z</time>
      </trkpt>
      <trkpt lat="43.98016" lon="1.91733">
        <ele>219</ele>
        <time>2011-08-17T07:33:31Z</time>
      </trkpt>
      <trkpt lat="43.98014" lon="1.91734">
        <ele>219</ele>
        <time>2011-08-17T07:33:32Z</time>
      </trkpt>
      <trkpt lat="43.98012" lon="1.91735">
        <ele>219</ele>
        <time>2011-08-17T07:33:33Z</time>
      </trkpt>
      <trkpt lat="43.9801" lon="1.91737">
        <ele>220</ele>
        <time>2011-08-17T07:33:34Z</time>
      </trkpt>
      <trkpt lat="43.98009" lon="1.91737">
        <ele>220</ele>
        <time>2011-08-17T07:33:35Z</time>
      </trkpt>
      <trkpt lat="43.98008" lon="1.91737">
        <ele>220</ele>
        <time>2011-08-17T07:33:36Z</time>
      </trkpt>
      <trkpt lat="43.98006" lon="1.91738">
        <ele>220</ele>
        <time>2011-08-17T07:33:37Z</time>
      </trkpt>
      <trkpt lat="43.98005" lon="1.91739">
        <ele>220</ele>
        <time>2011-08-17T07:33:38Z</time>
      </trkpt>
      <trkpt lat="43.98003" lon="1.91741">
        <ele>220</ele>
        <time>2011-08-17T07:33:39Z</time>
      </trkpt>
      <trkpt lat="43.98001" lon="1.91742">
        <ele>220</ele>
        <time>2011-08-17T07:33:40Z</time>
      </trkpt>
      <trkpt lat="43.98" lon="1.91744">
        <ele>220</ele>
        <time>2011-08-17T07:33:41Z</time>
      </trkpt>
      <trkpt lat="43.97998" lon="1.91745">
        <ele>220</ele>
        <time>2011-08-17T07:33:42Z</time>
      </trkpt>
      <trkpt lat="43.97997" lon="1.91747">
        <ele>220</ele>
        <time>2011-08-17T07:33:43Z</time>
      </trkpt>
      <trkpt lat="43.97995" lon="1.91748">
        <ele>220</ele>
        <time>2011-08-17T07:33:44Z</time>
      </trkpt>
      <trkpt lat="43.97994" lon="1.9175">
        <ele>220</ele>
        <time>2011-08-17T07:33:45Z</time>
      </trkpt>
      <trkpt lat="43.97992" lon="1.91751">
        <ele>220</ele>
        <time>2011-08-17T07:33:46Z</time>
      </trkpt>
      <trkpt lat="43.97992" lon="1.91752">
        <ele>220</ele>
        <time>2011-08-17T07:33:47Z</time>
      </trkpt>
      <trkpt lat="43.97989" lon="1.91754">
        <ele>220</ele>
        <time>2011-08-17T07:33:49Z</time>
      </trkpt>
      <trkpt lat="43.97988" lon="1.91756">
        <ele>220</ele>
        <time>2011-08-17T07:33:50Z</time>
      </trkpt>
      <trkpt lat="43.97987" lon="1.91757">
        <ele>220</ele>
        <time>2011-08-17T07:33:51Z</time>
      </trkpt>
      <trkpt lat="43.97986" lon="1.91759">
        <ele>220</ele>
        <time>2011-08-17T07:33:52Z</time>
      </trkpt>
      <trkpt lat="43.97984" lon="1.91761">
        <ele>220</ele>
        <time>2011-08-17T07:33:53Z</time>
      </trkpt>
      <trkpt lat="43.97983" lon="1.91763">
        <ele>220</ele>
        <time>2011-08-17T07:33:54Z</time>
      </trkpt>
      <trkpt lat="43.97981" lon="1.91766">
        <ele>220</ele>
        <time>2011-08-17T07:33:56Z</time>
      </trkpt>
      <trkpt lat="43.9798" lon="1.91768">
        <ele>219</ele>
        <time>2011-08-17T07:33:57Z</time>
      </trkpt>
      <trkpt lat="43.97978" lon="1.91769">
        <ele>219</ele>
        <time>2011-08-17T07:33:58Z</time>
      </trkpt>
      <trkpt lat="43.97977" lon="1.91771">
        <ele>219</ele>
        <time>2011-08-17T07:33:59Z</time>
      </trkpt>
      <trkpt lat="43.97974" lon="1.91773">
        <ele>219</ele>
        <time>2011-08-17T07:34:00Z</time>
      </trkpt>
      <trkpt lat="43.97972" lon="1.91774">
        <ele>219</ele>
        <time>2011-08-17T07:34:01Z</time>
      </trkpt>
      <trkpt lat="43.97969" lon="1.91776">
        <ele>219</ele>
        <time>2011-08-17T07:34:02Z</time>
      </trkpt>
      <trkpt lat="43.97966" lon="1.91778">
        <ele>219</ele>
        <time>2011-08-17T07:34:03Z</time>
      </trkpt>
      <trkpt lat="43.97962" lon="1.9178">
        <ele>219</ele>
        <time>2011-08-17T07:34:04Z</time>
      </trkpt>
      <trkpt lat="43.97958" lon="1.91782">
        <ele>219</ele>
        <time>2011-08-17T07:34:05Z</time>
      </trkpt>
      <trkpt lat="43.97954" lon="1.91784">
        <ele>219</ele>
        <time>2011-08-17T07:34:06Z</time>
      </trkpt>
      <trkpt lat="43.97951" lon="1.91786">
        <ele>219</ele>
        <time>2011-08-17T07:34:07Z</time>
      </trkpt>
      <trkpt lat="43.97948" lon="1.91787">
        <ele>219</ele>
        <time>2011-08-17T07:34:08Z</time>
      </trkpt>
      <trkpt lat="43.97945" lon="1.91789">
        <ele>218</ele>
        <time>2011-08-17T07:34:09Z</time>
      </trkpt>
      <trkpt lat="43.97942" lon="1.9179">
        <ele>218</ele>
        <time>2011-08-17T07:34:10Z</time>
      </trkpt>
      <trkpt lat="43.97939" lon="1.91792">
        <ele>218</ele>
        <time>2011-08-17T07:34:11Z</time>
      </trkpt>
      <trkpt lat="43.97936" lon="1.91794">
        <ele>218</ele>
        <time>2011-08-17T07:34:12Z</time>
      </trkpt>
      <trkpt lat="43.97933" lon="1.91795">
        <ele>218</ele>
        <time>2011-08-17T07:34:13Z</time>
      </trkpt>
      <trkpt lat="43.97931" lon="1.91797">
        <ele>218</ele>
        <time>2011-08-17T07:34:14Z</time>
      </trkpt>
      <trkpt lat="43.97928" lon="1.91799">
        <ele>218</ele>
        <time>2011-08-17T07:34:15Z</time>
      </trkpt>
      <trkpt lat="43.97925" lon="1.91802">
        <ele>218</ele>
        <time>2011-08-17T07:34:16Z</time>
      </trkpt>
      <trkpt lat="43.97923" lon="1.91803">
        <ele>218</ele>
        <time>2011-08-17T07:34:17Z</time>
      </trkpt>
      <trkpt lat="43.9792" lon="1.91805">
        <ele>218</ele>
        <time>2011-08-17T07:34:18Z</time>
      </trkpt>
      <trkpt lat="43.97918" lon="1.91807">
        <ele>218</ele>
        <time>2011-08-17T07:34:19Z</time>
      </trkpt>
      <trkpt lat="43.97916" lon="1.91808">
        <ele>217</ele>
        <time>2011-08-17T07:34:20Z</time>
      </trkpt>
      <trkpt lat="43.97913" lon="1.9181">
        <ele>217</ele>
        <time>2011-08-17T07:34:21Z</time>
      </trkpt>
      <trkpt lat="43.97911" lon="1.91812">
        <ele>217</ele>
        <time>2011-08-17T07:34:22Z</time>
      </trkpt>
      <trkpt lat="43.97908" lon="1.91814">
        <ele>217</ele>
        <time>2011-08-17T07:34:23Z</time>
      </trkpt>
      <trkpt lat="43.97906" lon="1.91816">
        <ele>216</ele>
        <time>2011-08-17T07:34:24Z</time>
      </trkpt>
      <trkpt lat="43.97904" lon="1.91818">
        <ele>216</ele>
        <time>2011-08-17T07:34:25Z</time>
      </trkpt>
      <trkpt lat="43.97901" lon="1.9182">
        <ele>215</ele>
        <time>2011-08-17T07:34:26Z</time>
      </trkpt>
      <trkpt lat="43.97899" lon="1.91822">
        <ele>215</ele>
        <time>2011-08-17T07:34:27Z</time>
      </trkpt>
      <trkpt lat="43.97896" lon="1.91824">
        <ele>215</ele>
        <time>2011-08-17T07:34:28Z</time>
      </trkpt>
      <trkpt lat="43.97893" lon="1.91826">
        <ele>215</ele>
        <time>2011-08-17T07:34:29Z</time>
      </trkpt>
      <trkpt lat="43.9789" lon="1.91829">
        <ele>215</ele>
        <time>2011-08-17T07:34:30Z</time>
      </trkpt>
      <trkpt lat="43.97887" lon="1.91831">
        <ele>215</ele>
        <time>2011-08-17T07:34:31Z</time>
      </trkpt>
      <trkpt lat="43.97885" lon="1.91832">
        <ele>215</ele>
        <time>2011-08-17T07:34:32Z</time>
      </trkpt>
      <trkpt lat="43.97882" lon="1.91834">
        <ele>215</ele>
        <time>2011-08-17T07:34:33Z</time>
      </trkpt>
      <trkpt lat="43.97879" lon="1.91836">
        <ele>215</ele>
        <time>2011-08-17T07:34:34Z</time>
      </trkpt>
      <trkpt lat="43.97877" lon="1.91838">
        <ele>215</ele>
        <time>2011-08-17T07:34:35Z</time>
      </trkpt>
      <trkpt lat="43.97874" lon="1.9184">
        <ele>215</ele>
        <time>2011-08-17T07:34:36Z</time>
      </trkpt>
      <trkpt lat="43.97871" lon="1.91842">
        <ele>215</ele>
        <time>2011-08-17T07:34:37Z</time>
      </trkpt>
      <trkpt lat="43.97868" lon="1.91844">
        <ele>215</ele>
        <time>2011-08-17T07:34:38Z</time>
      </trkpt>
      <trkpt lat="43.97865" lon="1.91845">
        <ele>215</ele>
        <time>2011-08-17T07:34:39Z</time>
      </trkpt>
      <trkpt lat="43.97862" lon="1.91847">
        <ele>215</ele>
        <time>2011-08-17T07:34:40Z</time>
      </trkpt>
      <trkpt lat="43.97859" lon="1.91849">
        <ele>215</ele>
        <time>2011-08-17T07:34:41Z</time>
      </trkpt>
      <trkpt lat="43.97856" lon="1.91851">
        <ele>215</ele>
        <time>2011-08-17T07:34:42Z</time>
      </trkpt>
      <trkpt lat="43.97854" lon="1.91852">
        <ele>215</ele>
        <time>2011-08-17T07:34:43Z</time>
      </trkpt>
      <trkpt lat="43.97851" lon="1.91854">
        <ele>215</ele>
        <time>2011-08-17T07:34:44Z</time>
      </trkpt>
      <trkpt lat="43.97848" lon="1.91856">
        <ele>215</ele>
        <time>2011-08-17T07:34:45Z</time>
      </trkpt>
      <trkpt lat="43.97845" lon="1.91857">
        <ele>215</ele>
        <time>2011-08-17T07:34:46Z</time>
      </trkpt>
      <trkpt lat="43.97842" lon="1.91858">
        <ele>215</ele>
        <time>2011-08-17T07:34:47Z</time>
      </trkpt>
      <trkpt lat="43.97839" lon="1.91859">
        <ele>215</ele>
        <time>2011-08-17T07:34:48Z</time>
      </trkpt>
      <trkpt lat="43.97836" lon="1.9186">
        <ele>215</ele>
        <time>2011-08-17T07:34:49Z</time>
      </trkpt>
      <trkpt lat="43.97834" lon="1.91861">
        <ele>215</ele>
        <time>2011-08-17T07:34:50Z</time>
      </trkpt>
      <trkpt lat="43.97831" lon="1.91862">
        <ele>215</ele>
        <time>2011-08-17T07:34:51Z</time>
      </trkpt>
      <trkpt lat="43.97828" lon="1.91863">
        <ele>215</ele>
        <time>2011-08-17T07:34:52Z</time>
      </trkpt>
      <trkpt lat="43.97826" lon="1.91864">
        <ele>215</ele>
        <time>2011-08-17T07:34:53Z</time>
      </trkpt>
      <trkpt lat="43.97823" lon="1.91866">
        <ele>215</ele>
        <time>2011-08-17T07:34:54Z</time>
      </trkpt>
      <trkpt lat="43.9782" lon="1.91867">
        <ele>215</ele>
        <time>2011-08-17T07:34:55Z</time>
      </trkpt>
      <trkpt lat="43.97817" lon="1.91869">
        <ele>215</ele>
        <time>2011-08-17T07:34:56Z</time>
      </trkpt>
      <trkpt lat="43.97814" lon="1.9187">
        <ele>215</ele>
        <time>2011-08-17T07:34:57Z</time>
      </trkpt>
      <trkpt lat="43.97811" lon="1.91872">
        <ele>215</ele>
        <time>2011-08-17T07:34:58Z</time>
      </trkpt>
      <trkpt lat="43.97808" lon="1.91874">
        <ele>215</ele>
        <time>2011-08-17T07:34:59Z</time>
      </trkpt>
      <trkpt lat="43.97805" lon="1.91876">
        <ele>215</ele>
        <time>2011-08-17T07:35:00Z</time>
      </trkpt>
      <trkpt lat="43.97803" lon="1.91877">
        <ele>215</ele>
        <time>2011-08-17T07:35:01Z</time>
      </trkpt>
      <trkpt lat="43.978" lon="1.91879">
        <ele>215</ele>
        <time>2011-08-17T07:35:02Z</time>
      </trkpt>
      <trkpt lat="43.97798" lon="1.91881">
        <ele>215</ele>
        <time>2011-08-17T07:35:03Z</time>
      </trkpt>
      <trkpt lat="43.97795" lon="1.91883">
        <ele>215</ele>
        <time>2011-08-17T07:35:04Z</time>
      </trkpt>
      <trkpt lat="43.97792" lon="1.91885">
        <ele>215</ele>
        <time>2011-08-17T07:35:05Z</time>
      </trkpt>
      <trkpt lat="43.97789" lon="1.91887">
        <ele>215</ele>
        <time>2011-08-17T07:35:06Z</time>
      </trkpt>
      <trkpt lat="43.97786" lon="1.9189">
        <ele>215</ele>
        <time>2011-08-17T07:35:07Z</time>
      </trkpt>
      <trkpt lat="43.97782" lon="1.91892">
        <ele>215</ele>
        <time>2011-08-17T07:35:08Z</time>
      </trkpt>
      <trkpt lat="43.97779" lon="1.91894">
        <ele>214</ele>
        <time>2011-08-17T07:35:09Z</time>
      </trkpt>
      <trkpt lat="43.97775" lon="1.91897">
        <ele>214</ele>
        <time>2011-08-17T07:35:10Z</time>
      </trkpt>
      <trkpt lat="43.97771" lon="1.91899">
        <ele>214</ele>
        <time>2011-08-17T07:35:11Z</time>
      </trkpt>
      <trkpt lat="43.97767" lon="1.91902">
        <ele>214</ele>
        <time>2011-08-17T07:35:12Z</time>
      </trkpt>
      <trkpt lat="43.97763" lon="1.91904">
        <ele>214</ele>
        <time>2011-08-17T07:35:13Z</time>
      </trkpt>
      <trkpt lat="43.9776" lon="1.91905">
        <ele>214</ele>
        <time>2011-08-17T07:35:14Z</time>
      </trkpt>
      <trkpt lat="43.97756" lon="1.91906">
        <ele>214</ele>
        <time>2011-08-17T07:35:15Z</time>
      </trkpt>
      <trkpt lat="43.97753" lon="1.91907">
        <ele>214</ele>
        <time>2011-08-17T07:35:16Z</time>
      </trkpt>
      <trkpt lat="43.97751" lon="1.91908">
        <ele>214</ele>
        <time>2011-08-17T07:35:17Z</time>
      </trkpt>
      <trkpt lat="43.97748" lon="1.9191">
        <ele>214</ele>
        <time>2011-08-17T07:35:18Z</time>
      </trkpt>
      <trkpt lat="43.97747" lon="1.91911">
        <ele>214</ele>
        <time>2011-08-17T07:35:19Z</time>
      </trkpt>
      <trkpt lat="43.97745" lon="1.91914">
        <ele>214</ele>
        <time>2011-08-17T07:35:20Z</time>
      </trkpt>
      <trkpt lat="43.97743" lon="1.91916">
        <ele>214</ele>
        <time>2011-08-17T07:35:21Z</time>
      </trkpt>
      <trkpt lat="43.97742" lon="1.91918">
        <ele>214</ele>
        <time>2011-08-17T07:35:22Z</time>
      </trkpt>
      <trkpt lat="43.9774" lon="1.9192">
        <ele>214</ele>
        <time>2011-08-17T07:35:23Z</time>
      </trkpt>
      <trkpt lat="43.97739" lon="1.91921">
        <ele>214</ele>
        <time>2011-08-17T07:35:24Z</time>
      </trkpt>
      <trkpt lat="43.97737" lon="1.91923">
        <ele>214</ele>
        <time>2011-08-17T07:35:25Z</time>
      </trkpt>
      <trkpt lat="43.97736" lon="1.91925">
        <ele>214</ele>
        <time>2011-08-17T07:35:26Z</time>
      </trkpt>
      <trkpt lat="43.97734" lon="1.91927">
        <ele>214</ele>
        <time>2011-08-17T07:35:27Z</time>
      </trkpt>
      <trkpt lat="43.97733" lon="1.91929">
        <ele>214</ele>
        <time>2011-08-17T07:35:28Z</time>
      </trkpt>
      <trkpt lat="43.97731" lon="1.91931">
        <ele>214</ele>
        <time>2011-08-17T07:35:29Z</time>
      </trkpt>
      <trkpt lat="43.97729" lon="1.91934">
        <ele>214</ele>
        <time>2011-08-17T07:35:30Z</time>
      </trkpt>
      <trkpt lat="43.97727" lon="1.91936">
        <ele>214</ele>
        <time>2011-08-17T07:35:31Z</time>
      </trkpt>
      <trkpt lat="43.97724" lon="1.91939">
        <ele>214</ele>
        <time>2011-08-17T07:35:32Z</time>
      </trkpt>
      <trkpt lat="43.97722" lon="1.91942">
        <ele>214</ele>
        <time>2011-08-17T07:35:33Z</time>
      </trkpt>
      <trkpt lat="43.97719" lon="1.91945">
        <ele>214</ele>
        <time>2011-08-17T07:35:34Z</time>
      </trkpt>
      <trkpt lat="43.97718" lon="1.91947">
        <ele>214</ele>
        <time>2011-08-17T07:35:35Z</time>
      </trkpt>
      <trkpt lat="43.97715" lon="1.91949">
        <ele>214</ele>
        <time>2011-08-17T07:35:36Z</time>
      </trkpt>
      <trkpt lat="43.97713" lon="1.91952">
        <ele>214</ele>
        <time>2011-08-17T07:35:37Z</time>
      </trkpt>
      <trkpt lat="43.9771" lon="1.91955">
        <ele>214</ele>
        <time>2011-08-17T07:35:38Z</time>
      </trkpt>
      <trkpt lat="43.97708" lon="1.91958">
        <ele>214</ele>
        <time>2011-08-17T07:35:39Z</time>
      </trkpt>
      <trkpt lat="43.97705" lon="1.91961">
        <ele>214</ele>
        <time>2011-08-17T07:35:40Z</time>
      </trkpt>
      <trkpt lat="43.97702" lon="1.91965">
        <ele>214</ele>
        <time>2011-08-17T07:35:41Z</time>
      </trkpt>
      <trkpt lat="43.97699" lon="1.91968">
        <ele>214</ele>
        <time>2011-08-17T07:35:42Z</time>
      </trkpt>
      <trkpt lat="43.97696" lon="1.91971">
        <ele>214</ele>
        <time>2011-08-17T07:35:43Z</time>
      </trkpt>
      <trkpt lat="43.97694" lon="1.91975">
        <ele>214</ele>
        <time>2011-08-17T07:35:44Z</time>
      </trkpt>
      <trkpt lat="43.97691" lon="1.91978">
        <ele>214</ele>
        <time>2011-08-17T07:35:45Z</time>
      </trkpt>
      <trkpt lat="43.97689" lon="1.91981">
        <ele>214</ele>
        <time>2011-08-17T07:35:46Z</time>
      </trkpt>
      <trkpt lat="43.97686" lon="1.91985">
        <ele>214</ele>
        <time>2011-08-17T07:35:47Z</time>
      </trkpt>
      <trkpt lat="43.97684" lon="1.91988">
        <ele>214</ele>
        <time>2011-08-17T07:35:48Z</time>
      </trkpt>
      <trkpt lat="43.97682" lon="1.91991">
        <ele>214</ele>
        <time>2011-08-17T07:35:49Z</time>
      </trkpt>
      <trkpt lat="43.9768" lon="1.91995">
        <ele>214</ele>
        <time>2011-08-17T07:35:50Z</time>
      </trkpt>
      <trkpt lat="43.97678" lon="1.91998">
        <ele>214</ele>
        <time>2011-08-17T07:35:51Z</time>
      </trkpt>
      <trkpt lat="43.97675" lon="1.92001">
        <ele>214</ele>
        <time>2011-08-17T07:35:52Z</time>
      </trkpt>
      <trkpt lat="43.97673" lon="1.92005">
        <ele>214</ele>
        <time>2011-08-17T07:35:53Z</time>
      </trkpt>
      <trkpt lat="43.9767" lon="1.92008">
        <ele>214</ele>
        <time>2011-08-17T07:35:54Z</time>
      </trkpt>
      <trkpt lat="43.97669" lon="1.92011">
        <ele>214</ele>
        <time>2011-08-17T07:35:55Z</time>
      </trkpt>
      <trkpt lat="43.97667" lon="1.92015">
        <ele>214</ele>
        <time>2011-08-17T07:35:56Z</time>
      </trkpt>
      <trkpt lat="43.97665" lon="1.92018">
        <ele>214</ele>
        <time>2011-08-17T07:35:57Z</time>
      </trkpt>
      <trkpt lat="43.97663" lon="1.9202">
        <ele>214</ele>
        <time>2011-08-17T07:35:58Z</time>
      </trkpt>
      <trkpt lat="43.97661" lon="1.92024">
        <ele>214</ele>
        <time>2011-08-17T07:35:59Z</time>
      </trkpt>
      <trkpt lat="43.97659" lon="1.92027">
        <ele>214</ele>
        <time>2011-08-17T07:36:00Z</time>
      </trkpt>
      <trkpt lat="43.97657" lon="1.9203">
        <ele>214</ele>
        <time>2011-08-17T07:36:01Z</time>
      </trkpt>
      <trkpt lat="43.97655" lon="1.92034">
        <ele>214</ele>
        <time>2011-08-17T07:36:02Z</time>
      </trkpt>
      <trkpt lat="43.97653" lon="1.92037">
        <ele>214</ele>
        <time>2011-08-17T07:36:03Z</time>
      </trkpt>
      <trkpt lat="43.97651" lon="1.92041">
        <ele>214</ele>
        <time>2011-08-17T07:36:04Z</time>
      </trkpt>
      <trkpt lat="43.97648" lon="1.92045">
        <ele>214</ele>
        <time>2011-08-17T07:36:05Z</time>
      </trkpt>
      <trkpt lat="43.97646" lon="1.92049">
        <ele>214</ele>
        <time>2011-08-17T07:36:06Z</time>
      </trkpt>
      <trkpt lat="43.97644" lon="1.92052">
        <ele>214</ele>
        <time>2011-08-17T07:36:07Z</time>
      </trkpt>
      <trkpt lat="43.97642" lon="1.92056">
        <ele>214</ele>
        <time>2011-08-17T07:36:08Z</time>
      </trkpt>
      <trkpt lat="43.9764" lon="1.9206">
        <ele>214</ele>
        <time>2011-08-17T07:36:09Z</time>
      </trkpt>
      <trkpt lat="43.97638" lon="1.92063">
        <ele>214</ele>
        <time>2011-08-17T07:36:10Z</time>
      </trkpt>
      <trkpt lat="43.97636" lon="1.92067">
        <ele>214</ele>
        <time>2011-08-17T07:36:11Z</time>
      </trkpt>
      <trkpt lat="43.97634" lon="1.9207">
        <ele>214</ele>
        <time>2011-08-17T07:36:12Z</time>
      </trkpt>
      <trkpt lat="43.97633" lon="1.92074">
        <ele>214</ele>
        <time>2011-08-17T07:36:13Z</time>
      </trkpt>
      <trkpt lat="43.97631" lon="1.92077">
        <ele>214</ele>
        <time>2011-08-17T07:36:14Z</time>
      </trkpt>
      <trkpt lat="43.97629" lon="1.9208">
        <ele>214</ele>
        <time>2011-08-17T07:36:15Z</time>
      </trkpt>
      <trkpt lat="43.97627" lon="1.92084">
        <ele>214</ele>
        <time>2011-08-17T07:36:16Z</time>
      </trkpt>
      <trkpt lat="43.97625" lon="1.92088">
        <ele>215</ele>
        <time>2011-08-17T07:36:17Z</time>
      </trkpt>
      <trkpt lat="43.97624" lon="1.92092">
        <ele>215</ele>
        <time>2011-08-17T07:36:18Z</time>
      </trkpt>
      <trkpt lat="43.97622" lon="1.92095">
        <ele>216</ele>
        <time>2011-08-17T07:36:19Z</time>
      </trkpt>
      <trkpt lat="43.9762" lon="1.92099">
        <ele>217</ele>
        <time>2011-08-17T07:36:20Z</time>
      </trkpt>
      <trkpt lat="43.97619" lon="1.92102">
        <ele>217</ele>
        <time>2011-08-17T07:36:21Z</time>
      </trkpt>
      <trkpt lat="43.97617" lon="1.92106">
        <ele>217</ele>
        <time>2011-08-17T07:36:22Z</time>
      </trkpt>
      <trkpt lat="43.97614" lon="1.9211">
        <ele>218</ele>
        <time>2011-08-17T07:36:23Z</time>
      </trkpt>
      <trkpt lat="43.97612" lon="1.92114">
        <ele>218</ele>
        <time>2011-08-17T07:36:24Z</time>
      </trkpt>
      <trkpt lat="43.9761" lon="1.92117">
        <ele>218</ele>
        <time>2011-08-17T07:36:25Z</time>
      </trkpt>
      <trkpt lat="43.97608" lon="1.92121">
        <ele>218</ele>
        <time>2011-08-17T07:36:26Z</time>
      </trkpt>
      <trkpt lat="43.97606" lon="1.92124">
        <ele>218</ele>
        <time>2011-08-17T07:36:27Z</time>
      </trkpt>
      <trkpt lat="43.97604" lon="1.92127">
        <ele>218</ele>
        <time>2011-08-17T07:36:28Z</time>
      </trkpt>
      <trkpt lat="43.97602" lon="1.9213">
        <ele>219</ele>
        <time>2011-08-17T07:36:29Z</time>
      </trkpt>
      <trkpt lat="43.976" lon="1.92134">
        <ele>219</ele>
        <time>2011-08-17T07:36:30Z</time>
      </trkpt>
      <trkpt lat="43.97597" lon="1.92137">
        <ele>219</ele>
        <time>2011-08-17T07:36:31Z</time>
      </trkpt>
      <trkpt lat="43.97594" lon="1.92141">
        <ele>219</ele>
        <time>2011-08-17T07:36:32Z</time>
      </trkpt>
      <trkpt lat="43.97591" lon="1.92144">
        <ele>219</ele>
        <time>2011-08-17T07:36:33Z</time>
      </trkpt>
      <trkpt lat="43.97588" lon="1.92148">
        <ele>219</ele>
        <time>2011-08-17T07:36:34Z</time>
      </trkpt>
      <trkpt lat="43.97586" lon="1.92151">
        <ele>219</ele>
        <time>2011-08-17T07:36:35Z</time>
      </trkpt>
      <trkpt lat="43.97584" lon="1.92154">
        <ele>219</ele>
        <time>2011-08-17T07:36:36Z</time>
      </trkpt>
      <trkpt lat="43.97581" lon="1.92157">
        <ele>219</ele>
        <time>2011-08-17T07:36:37Z</time>
      </trkpt>
      <trkpt lat="43.97578" lon="1.92162">
        <ele>219</ele>
        <time>2011-08-17T07:36:38Z</time>
      </trkpt>
      <trkpt lat="43.97575" lon="1.92166">
        <ele>219</ele>
        <time>2011-08-17T07:36:39Z</time>
      </trkpt>
      <trkpt lat="43.97572" lon="1.92171">
        <ele>219</ele>
        <time>2011-08-17T07:36:40Z</time>
      </trkpt>
      <trkpt lat="43.97569" lon="1.92177">
        <ele>219</ele>
        <time>2011-08-17T07:36:41Z</time>
      </trkpt>
      <trkpt lat="43.97566" lon="1.92182">
        <ele>219</ele>
        <time>2011-08-17T07:36:42Z</time>
      </trkpt>
      <trkpt lat="43.97562" lon="1.92188">
        <ele>219</ele>
        <time>2011-08-17T07:36:43Z</time>
      </trkpt>
      <trkpt lat="43.97559" lon="1.92194">
        <ele>219</ele>
        <time>2011-08-17T07:36:44Z</time>
      </trkpt>
      <trkpt lat="43.97557" lon="1.922">
        <ele>219</ele>
        <time>2011-08-17T07:36:45Z</time>
      </trkpt>
      <trkpt lat="43.97555" lon="1.92205">
        <ele>219</ele>
        <time>2011-08-17T07:36:46Z</time>
      </trkpt>
      <trkpt lat="43.97553" lon="1.9221">
        <ele>219</ele>
        <time>2011-08-17T07:36:47Z</time>
      </trkpt>
      <trkpt lat="43.97551" lon="1.92215">
        <ele>219</ele>
        <time>2011-08-17T07:36:48Z</time>
      </trkpt>
      <trkpt lat="43.97549" lon="1.92219">
        <ele>219</ele>
        <time>2011-08-17T07:36:49Z</time>
      </trkpt>
      <trkpt lat="43.97548" lon="1.92224">
        <ele>219</ele>
        <time>2011-08-17T07:36:50Z</time>
      </trkpt>
      <trkpt lat="43.97546" lon="1.92228">
        <ele>219</ele>
        <time>2011-08-17T07:36:51Z</time>
      </trkpt>
      <trkpt lat="43.97544" lon="1.92234">
        <ele>219</ele>
        <time>2011-08-17T07:36:52Z</time>
      </trkpt>
      <trkpt lat="43.97541" lon="1.92239">
        <ele>219</ele>
        <time>2011-08-17T07:36:53Z</time>
      </trkpt>
      <trkpt lat="43.97539" lon="1.92245">
        <ele>219</ele>
        <time>2011-08-17T07:36:54Z</time>
      </trkpt>
      <trkpt lat="43.97537" lon="1.92251">
        <ele>219</ele>
        <time>2011-08-17T07:36:55Z</time>
      </trkpt>
      <trkpt lat="43.97534" lon="1.92255">
        <ele>219</ele>
        <time>2011-08-17T07:36:56Z</time>
      </trkpt>
      <trkpt lat="43.97531" lon="1.92258">
        <ele>219</ele>
        <time>2011-08-17T07:36:57Z</time>
      </trkpt>
      <trkpt lat="43.97528" lon="1.92258">
        <ele>219</ele>
        <time>2011-08-17T07:36:58Z</time>
      </trkpt>
      <trkpt lat="43.97526" lon="1.92256">
        <ele>219</ele>
        <time>2011-08-17T07:36:59Z</time>
      </trkpt>
      <trkpt lat="43.97523" lon="1.92254">
        <ele>219</ele>
        <time>2011-08-17T07:37:00Z</time>
      </trkpt>
      <trkpt lat="43.97522" lon="1.92252">
        <ele>219</ele>
        <time>2011-08-17T07:37:01Z</time>
      </trkpt>
      <trkpt lat="43.9752" lon="1.9225">
        <ele>219</ele>
        <time>2011-08-17T07:37:02Z</time>
      </trkpt>
      <trkpt lat="43.97518" lon="1.92249">
        <ele>219</ele>
        <time>2011-08-17T07:37:03Z</time>
      </trkpt>
      <trkpt lat="43.97516" lon="1.92247">
        <ele>219</ele>
        <time>2011-08-17T07:37:04Z</time>
      </trkpt>
      <trkpt lat="43.97514" lon="1.92245">
        <ele>219</ele>
        <time>2011-08-17T07:37:05Z</time>
      </trkpt>
      <trkpt lat="43.97512" lon="1.92244">
        <ele>219</ele>
        <time>2011-08-17T07:37:06Z</time>
      </trkpt>
      <trkpt lat="43.9751" lon="1.92242">
        <ele>219</ele>
        <time>2011-08-17T07:37:07Z</time>
      </trkpt>
      <trkpt lat="43.97508" lon="1.9224">
        <ele>219</ele>
        <time>2011-08-17T07:37:08Z</time>
      </trkpt>
      <trkpt lat="43.97506" lon="1.92238">
        <ele>219</ele>
        <time>2011-08-17T07:37:09Z</time>
      </trkpt>
      <trkpt lat="43.97504" lon="1.92236">
        <ele>219</ele>
        <time>2011-08-17T07:37:10Z</time>
      </trkpt>
      <trkpt lat="43.97501" lon="1.92234">
        <ele>220</ele>
        <time>2011-08-17T07:37:11Z</time>
      </trkpt>
      <trkpt lat="43.97499" lon="1.92232">
        <ele>220</ele>
        <time>2011-08-17T07:37:12Z</time>
      </trkpt>
      <trkpt lat="43.97497" lon="1.92229">
        <ele>220</ele>
        <time>2011-08-17T07:37:13Z</time>
      </trkpt>
      <trkpt lat="43.97495" lon="1.92227">
        <ele>220</ele>
        <time>2011-08-17T07:37:14Z</time>
      </trkpt>
      <trkpt lat="43.97493" lon="1.92224">
        <ele>220</ele>
        <time>2011-08-17T07:37:15Z</time>
      </trkpt>
      <trkpt lat="43.9749" lon="1.92222">
        <ele>220</ele>
        <time>2011-08-17T07:37:16Z</time>
      </trkpt>
      <trkpt lat="43.97488" lon="1.9222">
        <ele>220</ele>
        <time>2011-08-17T07:37:17Z</time>
      </trkpt>
      <trkpt lat="43.97486" lon="1.92219">
        <ele>221</ele>
        <time>2011-08-17T07:37:18Z</time>
      </trkpt>
      <trkpt lat="43.97483" lon="1.92217">
        <ele>221</ele>
        <time>2011-08-17T07:37:19Z</time>
      </trkpt>
      <trkpt lat="43.97481" lon="1.92215">
        <ele>221</ele>
        <time>2011-08-17T07:37:20Z</time>
      </trkpt>
      <trkpt lat="43.97479" lon="1.92213">
        <ele>221</ele>
        <time>2011-08-17T07:37:21Z</time>
      </trkpt>
      <trkpt lat="43.97476" lon="1.92211">
        <ele>222</ele>
        <time>2011-08-17T07:37:22Z</time>
      </trkpt>
      <trkpt lat="43.97474" lon="1.92209">
        <ele>222</ele>
        <time>2011-08-17T07:37:23Z</time>
      </trkpt>
      <trkpt lat="43.97472" lon="1.92208">
        <ele>222</ele>
        <time>2011-08-17T07:37:24Z</time>
      </trkpt>
      <trkpt lat="43.9747" lon="1.92206">
        <ele>222</ele>
        <time>2011-08-17T07:37:25Z</time>
      </trkpt>
      <trkpt lat="43.97467" lon="1.92204">
        <ele>222</ele>
        <time>2011-08-17T07:37:26Z</time>
      </trkpt>
      <trkpt lat="43.97465" lon="1.92202">
        <ele>222</ele>
        <time>2011-08-17T07:37:27Z</time>
      </trkpt>
      <trkpt lat="43.97464" lon="1.922">
        <ele>222</ele>
        <time>2011-08-17T07:37:28Z</time>
      </trkpt>
      <trkpt lat="43.97461" lon="1.92198">
        <ele>222</ele>
        <time>2011-08-17T07:37:29Z</time>
      </trkpt>
      <trkpt lat="43.9746" lon="1.92195">
        <ele>222</ele>
        <time>2011-08-17T07:37:30Z</time>
      </trkpt>
      <trkpt lat="43.97458" lon="1.92193">
        <ele>222</ele>
        <time>2011-08-17T07:37:31Z</time>
      </trkpt>
      <trkpt lat="43.97456" lon="1.9219">
        <ele>222</ele>
        <time>2011-08-17T07:37:32Z</time>
      </trkpt>
      <trkpt lat="43.97455" lon="1.92188">
        <ele>222</ele>
        <time>2011-08-17T07:37:33Z</time>
      </trkpt>
      <trkpt lat="43.97453" lon="1.92186">
        <ele>222</ele>
        <time>2011-08-17T07:37:34Z</time>
      </trkpt>
      <trkpt lat="43.9745" lon="1.92184">
        <ele>222</ele>
        <time>2011-08-17T07:37:35Z</time>
      </trkpt>
      <trkpt lat="43.97447" lon="1.92182">
        <ele>222</ele>
        <time>2011-08-17T07:37:36Z</time>
      </trkpt>
      <trkpt lat="43.97445" lon="1.9218">
        <ele>222</ele>
        <time>2011-08-17T07:37:37Z</time>
      </trkpt>
      <trkpt lat="43.97443" lon="1.92177">
        <ele>222</ele>
        <time>2011-08-17T07:37:38Z</time>
      </trkpt>
      <trkpt lat="43.97442" lon="1.92175">
        <ele>222</ele>
        <time>2011-08-17T07:37:39Z</time>
      </trkpt>
      <trkpt lat="43.9744" lon="1.92174">
        <ele>223</ele>
        <time>2011-08-17T07:37:40Z</time>
      </trkpt>
      <trkpt lat="43.97439" lon="1.92171">
        <ele>223</ele>
        <time>2011-08-17T07:37:41Z</time>
      </trkpt>
      <trkpt lat="43.97437" lon="1.92169">
        <ele>223</ele>
        <time>2011-08-17T07:37:42Z</time>
      </trkpt>
      <trkpt lat="43.97435" lon="1.92167">
        <ele>223</ele>
        <time>2011-08-17T07:37:43Z</time>
      </trkpt>
      <trkpt lat="43.97434" lon="1.92166">
        <ele>223</ele>
        <time>2011-08-17T07:37:44Z</time>
      </trkpt>
      <trkpt lat="43.97432" lon="1.92163">
        <ele>223</ele>
        <time>2011-08-17T07:37:45Z</time>
      </trkpt>
      <trkpt lat="43.9743" lon="1.92161">
        <ele>224</ele>
        <time>2011-08-17T07:37:46Z</time>
      </trkpt>
      <trkpt lat="43.97429" lon="1.92159">
        <ele>224</ele>
        <time>2011-08-17T07:37:47Z</time>
      </trkpt>
      <trkpt lat="43.97427" lon="1.92157">
        <ele>224</ele>
        <time>2011-08-17T07:37:48Z</time>
      </trkpt>
      <trkpt lat="43.97426" lon="1.92155">
        <ele>224</ele>
        <time>2011-08-17T07:37:49Z</time>
      </trkpt>
      <trkpt lat="43.97424" lon="1.92154">
        <ele>225</ele>
        <time>2011-08-17T07:37:50Z</time>
      </trkpt>
      <trkpt lat="43.97423" lon="1.92152">
        <ele>225</ele>
        <time>2011-08-17T07:37:51Z</time>
      </trkpt>
      <trkpt lat="43.97421" lon="1.9215">
        <ele>225</ele>
        <time>2011-08-17T07:37:52Z</time>
      </trkpt>
      <trkpt lat="43.9742" lon="1.92149">
        <ele>226</ele>
        <time>2011-08-17T07:37:53Z</time>
      </trkpt>
      <trkpt lat="43.97418" lon="1.92147">
        <ele>226</ele>
        <time>2011-08-17T07:37:54Z</time>
      </trkpt>
      <trkpt lat="43.97416" lon="1.92145">
        <ele>227</ele>
        <time>2011-08-17T07:37:55Z</time>
      </trkpt>
      <trkpt lat="43.97414" lon="1.92143">
        <ele>227</ele>
        <time>2011-08-17T07:37:56Z</time>
      </trkpt>
      <trkpt lat="43.97412" lon="1.92141">
        <ele>227</ele>
        <time>2011-08-17T07:37:57Z</time>
      </trkpt>
      <trkpt lat="43.9741" lon="1.92139">
        <ele>227</ele>
        <time>2011-08-17T07:37:58Z</time>
      </trkpt>
      <trkpt lat="43.97409" lon="1.92137">
        <ele>228</ele>
        <time>2011-08-17T07:37:59Z</time>
      </trkpt>
      <trkpt lat="43.97407" lon="1.92135">
        <ele>228</ele>
        <time>2011-08-17T07:38:00Z</time>
      </trkpt>
      <trkpt lat="43.97405" lon="1.92132">
        <ele>228</ele>
        <time>2011-08-17T07:38:01Z</time>
      </trkpt>
      <trkpt lat="43.97403" lon="1.9213">
        <ele>228</ele>
        <time>2011-08-17T07:38:02Z</time>
      </trkpt>
      <trkpt lat="43.97401" lon="1.92128">
        <ele>229</ele>
        <time>2011-08-17T07:38:03Z</time>
      </trkpt>
      <trkpt lat="43.974" lon="1.92125">
        <ele>229</ele>
        <time>2011-08-17T07:38:04Z</time>
      </trkpt>
      <trkpt lat="43.97398" lon="1.92123">
        <ele>229</ele>
        <time>2011-08-17T07:38:05Z</time>
      </trkpt>
      <trkpt lat="43.97396" lon="1.92121">
        <ele>229</ele>
        <time>2011-08-17T07:38:06Z</time>
      </trkpt>
      <trkpt lat="43.97394" lon="1.92119">
        <ele>229</ele>
        <time>2011-08-17T07:38:07Z</time>
      </trkpt>
      <trkpt lat="43.97392" lon="1.92116">
        <ele>230</ele>
        <time>2011-08-17T07:38:08Z</time>
      </trkpt>
      <trkpt lat="43.9739" lon="1.92114">
        <ele>230</ele>
        <time>2011-08-17T07:38:09Z</time>
      </trkpt>
      <trkpt lat="43.97388" lon="1.92112">
        <ele>230</ele>
        <time>2011-08-17T07:38:10Z</time>
      </trkpt>
      <trkpt lat="43.97386" lon="1.92109">
        <ele>230</ele>
        <time>2011-08-17T07:38:11Z</time>
      </trkpt>
      <trkpt lat="43.97384" lon="1.92107">
        <ele>230</ele>
        <time>2011-08-17T07:38:12Z</time>
      </trkpt>
      <trkpt lat="43.97382" lon="1.92105">
        <ele>230</ele>
        <time>2011-08-17T07:38:13Z</time>
      </trkpt>
      <trkpt lat="43.9738" lon="1.92103">
        <ele>231</ele>
        <time>2011-08-17T07:38:14Z</time>
      </trkpt>
      <trkpt lat="43.97379" lon="1.921">
        <ele>231</ele>
        <time>2011-08-17T07:38:15Z</time>
      </trkpt>
      <trkpt lat="43.97377" lon="1.92098">
        <ele>231</ele>
        <time>2011-08-17T07:38:16Z</time>
      </trkpt>
      <trkpt lat="43.97375" lon="1.92096">
        <ele>232</ele>
        <time>2011-08-17T07:38:17Z</time>
      </trkpt>
      <trkpt lat="43.97373" lon="1.92094">
        <ele>232</ele>
        <time>2011-08-17T07:38:18Z</time>
      </trkpt>
      <trkpt lat="43.97371" lon="1.92092">
        <ele>232</ele>
        <time>2011-08-17T07:38:19Z</time>
      </trkpt>
      <trkpt lat="43.97369" lon="1.9209">
        <ele>232</ele>
        <time>2011-08-17T07:38:20Z</time>
      </trkpt>
      <trkpt lat="43.97367" lon="1.92088">
        <ele>233</ele>
        <time>2011-08-17T07:38:21Z</time>
      </trkpt>
      <trkpt lat="43.97365" lon="1.92086">
        <ele>233</ele>
        <time>2011-08-17T07:38:22Z</time>
      </trkpt>
      <trkpt lat="43.97363" lon="1.92084">
        <ele>233</ele>
        <time>2011-08-17T07:38:23Z</time>
      </trkpt>
      <trkpt lat="43.97361" lon="1.92082">
        <ele>234</ele>
        <time>2011-08-17T07:38:24Z</time>
      </trkpt>
      <trkpt lat="43.97359" lon="1.9208">
        <ele>234</ele>
        <time>2011-08-17T07:38:25Z</time>
      </trkpt>
      <trkpt lat="43.97357" lon="1.92078">
        <ele>234</ele>
        <time>2011-08-17T07:38:26Z</time>
      </trkpt>
      <trkpt lat="43.97355" lon="1.92075">
        <ele>234</ele>
        <time>2011-08-17T07:38:27Z</time>
      </trkpt>
      <trkpt lat="43.97353" lon="1.92073">
        <ele>235</ele>
        <time>2011-08-17T07:38:28Z</time>
      </trkpt>
      <trkpt lat="43.97351" lon="1.9207">
        <ele>235</ele>
        <time>2011-08-17T07:38:29Z</time>
      </trkpt>
      <trkpt lat="43.97349" lon="1.92068">
        <ele>235</ele>
        <time>2011-08-17T07:38:30Z</time>
      </trkpt>
      <trkpt lat="43.97347" lon="1.92066">
        <ele>235</ele>
        <time>2011-08-17T07:38:31Z</time>
      </trkpt>
      <trkpt lat="43.97345" lon="1.92063">
        <ele>235</ele>
        <time>2011-08-17T07:38:32Z</time>
      </trkpt>
      <trkpt lat="43.97343" lon="1.9206">
        <ele>235</ele>
        <time>2011-08-17T07:38:33Z</time>
      </trkpt>
      <trkpt lat="43.9734" lon="1.92057">
        <ele>235</ele>
        <time>2011-08-17T07:38:34Z</time>
      </trkpt>
      <trkpt lat="43.97338" lon="1.92055">
        <ele>235</ele>
        <time>2011-08-17T07:38:35Z</time>
      </trkpt>
      <trkpt lat="43.97336" lon="1.92052">
        <ele>235</ele>
        <time>2011-08-17T07:38:36Z</time>
      </trkpt>
      <trkpt lat="43.97333" lon="1.9205">
        <ele>235</ele>
        <time>2011-08-17T07:38:37Z</time>
      </trkpt>
      <trkpt lat="43.97331" lon="1.92047">
        <ele>235</ele>
        <time>2011-08-17T07:38:38Z</time>
      </trkpt>
      <trkpt lat="43.97328" lon="1.92044">
        <ele>235</ele>
        <time>2011-08-17T07:38:39Z</time>
      </trkpt>
      <trkpt lat="43.97325" lon="1.92041">
        <ele>235</ele>
        <time>2011-08-17T07:38:40Z</time>
      </trkpt>
      <trkpt lat="43.97322" lon="1.92039">
        <ele>235</ele>
        <time>2011-08-17T07:38:41Z</time>
      </trkpt>
      <trkpt lat="43.97319" lon="1.92036">
        <ele>235</ele>
        <time>2011-08-17T07:38:42Z</time>
      </trkpt>
      <trkpt lat="43.97317" lon="1.92033">
        <ele>235</ele>
        <time>2011-08-17T07:38:43Z</time>
      </trkpt>
      <trkpt lat="43.97315" lon="1.92031">
        <ele>235</ele>
        <time>2011-08-17T07:38:44Z</time>
      </trkpt>
      <trkpt lat="43.97312" lon="1.92028">
        <ele>235</ele>
        <time>2011-08-17T07:38:45Z</time>
      </trkpt>
      <trkpt lat="43.9731" lon="1.92025">
        <ele>235</ele>
        <time>2011-08-17T07:38:46Z</time>
      </trkpt>
      <trkpt lat="43.97307" lon="1.92022">
        <ele>235</ele>
        <time>2011-08-17T07:38:47Z</time>
      </trkpt>
      <trkpt lat="43.97305" lon="1.92019">
        <ele>235</ele>
        <time>2011-08-17T07:38:48Z</time>
      </trkpt>
      <trkpt lat="43.97302" lon="1.92017">
        <ele>235</ele>
        <time>2011-08-17T07:38:49Z</time>
      </trkpt>
      <trkpt lat="43.97299" lon="1.92014">
        <ele>235</ele>
        <time>2011-08-17T07:38:50Z</time>
      </trkpt>
      <trkpt lat="43.97297" lon="1.92011">
        <ele>235</ele>
        <time>2011-08-17T07:38:51Z</time>
      </trkpt>
      <trkpt lat="43.97295" lon="1.92008">
        <ele>235</ele>
        <time>2011-08-17T07:38:52Z</time>
      </trkpt>
      <trkpt lat="43.97292" lon="1.92006">
        <ele>235</ele>
        <time>2011-08-17T07:38:53Z</time>
      </trkpt>
      <trkpt lat="43.97289" lon="1.92003">
        <ele>235</ele>
        <time>2011-08-17T07:38:54Z</time>
      </trkpt>
      <trkpt lat="43.97287" lon="1.92">
        <ele>235</ele>
        <time>2011-08-17T07:38:55Z</time>
      </trkpt>
      <trkpt lat="43.97284" lon="1.91998">
        <ele>235</ele>
        <time>2011-08-17T07:38:56Z</time>
      </trkpt>
      <trkpt lat="43.97281" lon="1.91995">
        <ele>235</ele>
        <time>2011-08-17T07:38:57Z</time>
      </trkpt>
      <trkpt lat="43.97279" lon="1.91992">
        <ele>235</ele>
        <time>2011-08-17T07:38:58Z</time>
      </trkpt>
      <trkpt lat="43.97277" lon="1.91989">
        <ele>235</ele>
        <time>2011-08-17T07:38:59Z</time>
      </trkpt>
      <trkpt lat="43.97274" lon="1.91987">
        <ele>235</ele>
        <time>2011-08-17T07:39:00Z</time>
      </trkpt>
      <trkpt lat="43.97272" lon="1.91984">
        <ele>235</ele>
        <time>2011-08-17T07:39:01Z</time>
      </trkpt>
      <trkpt lat="43.9727" lon="1.91982">
        <ele>235</ele>
        <time>2011-08-17T07:39:02Z</time>
      </trkpt>
      <trkpt lat="43.97268" lon="1.9198">
        <ele>235</ele>
        <time>2011-08-17T07:39:03Z</time>
      </trkpt>
      <trkpt lat="43.97266" lon="1.91978">
        <ele>235</ele>
        <time>2011-08-17T07:39:04Z</time>
      </trkpt>
      <trkpt lat="43.97264" lon="1.91976">
        <ele>235</ele>
        <time>2011-08-17T07:39:05Z</time>
      </trkpt>
      <trkpt lat="43.97262" lon="1.91973">
        <ele>235</ele>
        <time>2011-08-17T07:39:06Z</time>
      </trkpt>
      <trkpt lat="43.9726" lon="1.91972">
        <ele>236</ele>
        <time>2011-08-17T07:39:07Z</time>
      </trkpt>
      <trkpt lat="43.97258" lon="1.91969">
        <ele>236</ele>
        <time>2011-08-17T07:39:08Z</time>
      </trkpt>
      <trkpt lat="43.97256" lon="1.91967">
        <ele>236</ele>
        <time>2011-08-17T07:39:09Z</time>
      </trkpt>
      <trkpt lat="43.97254" lon="1.91965">
        <ele>236</ele>
        <time>2011-08-17T07:39:10Z</time>
      </trkpt>
      <trkpt lat="43.97253" lon="1.91963">
        <ele>237</ele>
        <time>2011-08-17T07:39:11Z</time>
      </trkpt>
      <trkpt lat="43.97251" lon="1.9196">
        <ele>237</ele>
        <time>2011-08-17T07:39:12Z</time>
      </trkpt>
      <trkpt lat="43.97249" lon="1.91958">
        <ele>237</ele>
        <time>2011-08-17T07:39:13Z</time>
      </trkpt>
      <trkpt lat="43.97247" lon="1.91956">
        <ele>238</ele>
        <time>2011-08-17T07:39:14Z</time>
      </trkpt>
      <trkpt lat="43.97245" lon="1.91954">
        <ele>238</ele>
        <time>2011-08-17T07:39:15Z</time>
      </trkpt>
      <trkpt lat="43.97243" lon="1.91951">
        <ele>238</ele>
        <time>2011-08-17T07:39:16Z</time>
      </trkpt>
      <trkpt lat="43.97241" lon="1.91949">
        <ele>238</ele>
        <time>2011-08-17T07:39:17Z</time>
      </trkpt>
      <trkpt lat="43.97239" lon="1.91946">
        <ele>239</ele>
        <time>2011-08-17T07:39:18Z</time>
      </trkpt>
      <trkpt lat="43.97237" lon="1.91944">
        <ele>239</ele>
        <time>2011-08-17T07:39:19Z</time>
      </trkpt>
      <trkpt lat="43.97236" lon="1.91942">
        <ele>239</ele>
        <time>2011-08-17T07:39:20Z</time>
      </trkpt>
      <trkpt lat="43.97234" lon="1.91939">
        <ele>239</ele>
        <time>2011-08-17T07:39:21Z</time>
      </trkpt>
      <trkpt lat="43.97232" lon="1.91937">
        <ele>239</ele>
        <time>2011-08-17T07:39:22Z</time>
      </trkpt>
      <trkpt lat="43.9723" lon="1.91935">
        <ele>240</ele>
        <time>2011-08-17T07:39:23Z</time>
      </trkpt>
      <trkpt lat="43.97228" lon="1.91932">
        <ele>240</ele>
        <time>2011-08-17T07:39:24Z</time>
      </trkpt>
      <trkpt lat="43.97226" lon="1.9193">
        <ele>240</ele>
        <time>2011-08-17T07:39:25Z</time>
      </trkpt>
      <trkpt lat="43.97225" lon="1.91928">
        <ele>240</ele>
        <time>2011-08-17T07:39:26Z</time>
      </trkpt>
      <trkpt lat="43.97223" lon="1.91925">
        <ele>240</ele>
        <time>2011-08-17T07:39:27Z</time>
      </trkpt>
      <trkpt lat="43.97221" lon="1.91923">
        <ele>240</ele>
        <time>2011-08-17T07:39:28Z</time>
      </trkpt>
      <trkpt lat="43.9722" lon="1.91921">
        <ele>240</ele>
        <time>2011-08-17T07:39:29Z</time>
      </trkpt>
      <trkpt lat="43.97218" lon="1.91919">
        <ele>240</ele>
        <time>2011-08-17T07:39:30Z</time>
      </trkpt>
      <trkpt lat="43.97216" lon="1.91917">
        <ele>241</ele>
        <time>2011-08-17T07:39:31Z</time>
      </trkpt>
      <trkpt lat="43.97215" lon="1.91915">
        <ele>241</ele>
        <time>2011-08-17T07:39:32Z</time>
      </trkpt>
      <trkpt lat="43.97213" lon="1.91914">
        <ele>241</ele>
        <time>2011-08-17T07:39:33Z</time>
      </trkpt>
      <trkpt lat="43.97211" lon="1.91913">
        <ele>241</ele>
        <time>2011-08-17T07:39:34Z</time>
      </trkpt>
      <trkpt lat="43.9721" lon="1.91912">
        <ele>241</ele>
        <time>2011-08-17T07:39:35Z</time>
      </trkpt>
      <trkpt lat="43.97208" lon="1.91913">
        <ele>241</ele>
        <time>2011-08-17T07:39:36Z</time>
      </trkpt>
      <trkpt lat="43.97207" lon="1.91916">
        <ele>241</ele>
        <time>2011-08-17T07:39:38Z</time>
      </trkpt>
      <trkpt lat="43.97206" lon="1.91918">
        <ele>241</ele>
        <time>2011-08-17T07:39:39Z</time>
      </trkpt>
      <trkpt lat="43.97206" lon="1.9192">
        <ele>241</ele>
        <time>2011-08-17T07:39:40Z</time>
      </trkpt>
      <trkpt lat="43.97206" lon="1.91922">
        <ele>241</ele>
        <time>2011-08-17T07:39:41Z</time>
      </trkpt>
      <trkpt lat="43.97206" lon="1.91924">
        <ele>241</ele>
        <time>2011-08-17T07:39:42Z</time>
      </trkpt>
      <trkpt lat="43.97205" lon="1.91926">
        <ele>241</ele>
        <time>2011-08-17T07:39:43Z</time>
      </trkpt>
      <trkpt lat="43.97205" lon="1.91928">
        <ele>241</ele>
        <time>2011-08-17T07:39:44Z</time>
      </trkpt>
      <trkpt lat="43.97204" lon="1.9193">
        <ele>241</ele>
        <time>2011-08-17T07:39:45Z</time>
      </trkpt>
      <trkpt lat="43.97203" lon="1.91931">
        <ele>241</ele>
        <time>2011-08-17T07:39:46Z</time>
      </trkpt>
      <trkpt lat="43.97203" lon="1.91933">
        <ele>241</ele>
        <time>2011-08-17T07:39:47Z</time>
      </trkpt>
      <trkpt lat="43.97202" lon="1.91936">
        <ele>241</ele>
        <time>2011-08-17T07:39:48Z</time>
      </trkpt>
      <trkpt lat="43.97202" lon="1.91937">
        <ele>241</ele>
        <time>2011-08-17T07:39:49Z</time>
      </trkpt>
      <trkpt lat="43.97202" lon="1.91939">
        <ele>241</ele>
        <time>2011-08-17T07:39:50Z</time>
      </trkpt>
      <trkpt lat="43.97202" lon="1.91941">
        <ele>241</ele>
        <time>2011-08-17T07:39:51Z</time>
      </trkpt>
      <trkpt lat="43.97201" lon="1.91943">
        <ele>241</ele>
        <time>2011-08-17T07:39:52Z</time>
      </trkpt>
      <trkpt lat="43.972" lon="1.91945">
        <ele>241</ele>
        <time>2011-08-17T07:39:53Z</time>
      </trkpt>
      <trkpt lat="43.972" lon="1.91947">
        <ele>241</ele>
        <time>2011-08-17T07:39:54Z</time>
      </trkpt>
      <trkpt lat="43.972" lon="1.91948">
        <ele>241</ele>
        <time>2011-08-17T07:39:55Z</time>
      </trkpt>
      <trkpt lat="43.97199" lon="1.9195">
        <ele>241</ele>
        <time>2011-08-17T07:39:56Z</time>
      </trkpt>
      <trkpt lat="43.97199" lon="1.91952">
        <ele>241</ele>
        <time>2011-08-17T07:39:57Z</time>
      </trkpt>
      <trkpt lat="43.97198" lon="1.91954">
        <ele>241</ele>
        <time>2011-08-17T07:39:58Z</time>
      </trkpt>
      <trkpt lat="43.97198" lon="1.91955">
        <ele>241</ele>
        <time>2011-08-17T07:39:59Z</time>
      </trkpt>
      <trkpt lat="43.97197" lon="1.91957">
        <ele>241</ele>
        <time>2011-08-17T07:40:00Z</time>
      </trkpt>
      <trkpt lat="43.97197" lon="1.91959">
        <ele>241</ele>
        <time>2011-08-17T07:40:01Z</time>
      </trkpt>
      <trkpt lat="43.97196" lon="1.91961">
        <ele>241</ele>
        <time>2011-08-17T07:40:02Z</time>
      </trkpt>
      <trkpt lat="43.97196" lon="1.91963">
        <ele>241</ele>
        <time>2011-08-17T07:40:03Z</time>
      </trkpt>
      <trkpt lat="43.97195" lon="1.91965">
        <ele>241</ele>
        <time>2011-08-17T07:40:04Z</time>
      </trkpt>
      <trkpt lat="43.97194" lon="1.91968">
        <ele>241</ele>
        <time>2011-08-17T07:40:05Z</time>
      </trkpt>
      <trkpt lat="43.97193" lon="1.9197">
        <ele>241</ele>
        <time>2011-08-17T07:40:06Z</time>
      </trkpt>
      <trkpt lat="43.97192" lon="1.91972">
        <ele>241</ele>
        <time>2011-08-17T07:40:07Z</time>
      </trkpt>
      <trkpt lat="43.97191" lon="1.91974">
        <ele>241</ele>
        <time>2011-08-17T07:40:08Z</time>
      </trkpt>
      <trkpt lat="43.9719" lon="1.91977">
        <ele>241</ele>
        <time>2011-08-17T07:40:09Z</time>
      </trkpt>
      <trkpt lat="43.97189" lon="1.91979">
        <ele>241</ele>
        <time>2011-08-17T07:40:10Z</time>
      </trkpt>
      <trkpt lat="43.97188" lon="1.91981">
        <ele>241</ele>
        <time>2011-08-17T07:40:11Z</time>
      </trkpt>
      <trkpt lat="43.97187" lon="1.91983">
        <ele>241</ele>
        <time>2011-08-17T07:40:12Z</time>
      </trkpt>
      <trkpt lat="43.97186" lon="1.91985">
        <ele>241</ele>
        <time>2011-08-17T07:40:13Z</time>
      </trkpt>
      <trkpt lat="43.97185" lon="1.91987">
        <ele>241</ele>
        <time>2011-08-17T07:40:14Z</time>
      </trkpt>
      <trkpt lat="43.97184" lon="1.91989">
        <ele>241</ele>
        <time>2011-08-17T07:40:15Z</time>
      </trkpt>
      <trkpt lat="43.97183" lon="1.91991">
        <ele>241</ele>
        <time>2011-08-17T07:40:16Z</time>
      </trkpt>
      <trkpt lat="43.97182" lon="1.91993">
        <ele>241</ele>
        <time>2011-08-17T07:40:17Z</time>
      </trkpt>
      <trkpt lat="43.9718" lon="1.91995">
        <ele>241</ele>
        <time>2011-08-17T07:40:18Z</time>
      </trkpt>
      <trkpt lat="43.97179" lon="1.91997">
        <ele>241</ele>
        <time>2011-08-17T07:40:19Z</time>
      </trkpt>
      <trkpt lat="43.97177" lon="1.91999">
        <ele>241</ele>
        <time>2011-08-17T07:40:20Z</time>
      </trkpt>
      <trkpt lat="43.97175" lon="1.92001">
        <ele>241</ele>
        <time>2011-08-17T07:40:22Z</time>
      </trkpt>
      <trkpt lat="43.97174" lon="1.92003">
        <ele>241</ele>
        <time>2011-08-17T07:40:23Z</time>
      </trkpt>
      <trkpt lat="43.97173" lon="1.92005">
        <ele>241</ele>
        <time>2011-08-17T07:40:24Z</time>
      </trkpt>
      <trkpt lat="43.97171" lon="1.92007">
        <ele>241</ele>
        <time>2011-08-17T07:40:25Z</time>
      </trkpt>
      <trkpt lat="43.9717" lon="1.92009">
        <ele>241</ele>
        <time>2011-08-17T07:40:26Z</time>
      </trkpt>
      <trkpt lat="43.97169" lon="1.92011">
        <ele>241</ele>
        <time>2011-08-17T07:40:27Z</time>
      </trkpt>
      <trkpt lat="43.97167" lon="1.92013">
        <ele>241</ele>
        <time>2011-08-17T07:40:28Z</time>
      </trkpt>
      <trkpt lat="43.97166" lon="1.92015">
        <ele>241</ele>
        <time>2011-08-17T07:40:29Z</time>
      </trkpt>
      <trkpt lat="43.97164" lon="1.92016">
        <ele>241</ele>
        <time>2011-08-17T07:40:30Z</time>
      </trkpt>
      <trkpt lat="43.97163" lon="1.92018">
        <ele>241</ele>
        <time>2011-08-17T07:40:31Z</time>
      </trkpt>
      <trkpt lat="43.97162" lon="1.9202">
        <ele>241</ele>
        <time>2011-08-17T07:40:32Z</time>
      </trkpt>
      <trkpt lat="43.9716" lon="1.92022">
        <ele>241</ele>
        <time>2011-08-17T07:40:33Z</time>
      </trkpt>
      <trkpt lat="43.97159" lon="1.92024">
        <ele>241</ele>
        <time>2011-08-17T07:40:34Z</time>
      </trkpt>
      <trkpt lat="43.97157" lon="1.92025">
        <ele>241</ele>
        <time>2011-08-17T07:40:35Z</time>
      </trkpt>
      <trkpt lat="43.97156" lon="1.92027">
        <ele>241</ele>
        <time>2011-08-17T07:40:36Z</time>
      </trkpt>
      <trkpt lat="43.97155" lon="1.92029">
        <ele>241</ele>
        <time>2011-08-17T07:40:37Z</time>
      </trkpt>
      <trkpt lat="43.97153" lon="1.92031">
        <ele>242</ele>
        <time>2011-08-17T07:40:38Z</time>
      </trkpt>
      <trkpt lat="43.97152" lon="1.92033">
        <ele>242</ele>
        <time>2011-08-17T07:40:39Z</time>
      </trkpt>
      <trkpt lat="43.97151" lon="1.92035">
        <ele>242</ele>
        <time>2011-08-17T07:40:40Z</time>
      </trkpt>
      <trkpt lat="43.97149" lon="1.92037">
        <ele>242</ele>
        <time>2011-08-17T07:40:41Z</time>
      </trkpt>
      <trkpt lat="43.97148" lon="1.92039">
        <ele>242</ele>
        <time>2011-08-17T07:40:42Z</time>
      </trkpt>
      <trkpt lat="43.97147" lon="1.92041">
        <ele>242</ele>
        <time>2011-08-17T07:40:43Z</time>
      </trkpt>
      <trkpt lat="43.97145" lon="1.92043">
        <ele>242</ele>
        <time>2011-08-17T07:40:44Z</time>
      </trkpt>
      <trkpt lat="43.97144" lon="1.92045">
        <ele>243</ele>
        <time>2011-08-17T07:40:45Z</time>
      </trkpt>
      <trkpt lat="43.97142" lon="1.92047">
        <ele>243</ele>
        <time>2011-08-17T07:40:46Z</time>
      </trkpt>
      <trkpt lat="43.97141" lon="1.92049">
        <ele>243</ele>
        <time>2011-08-17T07:40:47Z</time>
      </trkpt>
      <trkpt lat="43.97139" lon="1.92051">
        <ele>243</ele>
        <time>2011-08-17T07:40:48Z</time>
      </trkpt>
      <trkpt lat="43.97138" lon="1.92053">
        <ele>243</ele>
        <time>2011-08-17T07:40:49Z</time>
      </trkpt>
      <trkpt lat="43.97136" lon="1.92054">
        <ele>243</ele>
        <time>2011-08-17T07:40:50Z</time>
      </trkpt>
      <trkpt lat="43.97135" lon="1.92056">
        <ele>243</ele>
        <time>2011-08-17T07:40:51Z</time>
      </trkpt>
      <trkpt lat="43.97134" lon="1.92058">
        <ele>243</ele>
        <time>2011-08-17T07:40:52Z</time>
      </trkpt>
      <trkpt lat="43.97132" lon="1.9206">
        <ele>244</ele>
        <time>2011-08-17T07:40:53Z</time>
      </trkpt>
      <trkpt lat="43.97131" lon="1.92062">
        <ele>244</ele>
        <time>2011-08-17T07:40:54Z</time>
      </trkpt>
      <trkpt lat="43.97129" lon="1.92064">
        <ele>244</ele>
        <time>2011-08-17T07:40:55Z</time>
      </trkpt>
      <trkpt lat="43.97128" lon="1.92066">
        <ele>244</ele>
        <time>2011-08-17T07:40:56Z</time>
      </trkpt>
      <trkpt lat="43.97127" lon="1.92068">
        <ele>244</ele>
        <time>2011-08-17T07:40:57Z</time>
      </trkpt>
      <trkpt lat="43.97125" lon="1.9207">
        <ele>244</ele>
        <time>2011-08-17T07:40:58Z</time>
      </trkpt>
      <trkpt lat="43.97124" lon="1.92072">
        <ele>244</ele>
        <time>2011-08-17T07:40:59Z</time>
      </trkpt>
      <trkpt lat="43.97122" lon="1.92074">
        <ele>244</ele>
        <time>2011-08-17T07:41:00Z</time>
      </trkpt>
      <trkpt lat="43.97121" lon="1.92076">
        <ele>244</ele>
        <time>2011-08-17T07:41:01Z</time>
      </trkpt>
      <trkpt lat="43.97119" lon="1.92078">
        <ele>244</ele>
        <time>2011-08-17T07:41:02Z</time>
      </trkpt>
      <trkpt lat="43.97118" lon="1.92079">
        <ele>244</ele>
        <time>2011-08-17T07:41:03Z</time>
      </trkpt>
      <trkpt lat="43.97116" lon="1.92081">
        <ele>245</ele>
        <time>2011-08-17T07:41:04Z</time>
      </trkpt>
      <trkpt lat="43.97115" lon="1.92083">
        <ele>245</ele>
        <time>2011-08-17T07:41:05Z</time>
      </trkpt>
      <trkpt lat="43.97113" lon="1.92085">
        <ele>245</ele>
        <time>2011-08-17T07:41:06Z</time>
      </trkpt>
      <trkpt lat="43.97112" lon="1.92086">
        <ele>245</ele>
        <time>2011-08-17T07:41:07Z</time>
      </trkpt>
      <trkpt lat="43.9711" lon="1.92088">
        <ele>245</ele>
        <time>2011-08-17T07:41:08Z</time>
      </trkpt>
      <trkpt lat="43.97108" lon="1.92089">
        <ele>245</ele>
        <time>2011-08-17T07:41:09Z</time>
      </trkpt>
      <trkpt lat="43.97106" lon="1.92091">
        <ele>245</ele>
        <time>2011-08-17T07:41:10Z</time>
      </trkpt>
      <trkpt lat="43.97104" lon="1.92092">
        <ele>245</ele>
        <time>2011-08-17T07:41:11Z</time>
      </trkpt>
      <trkpt lat="43.97102" lon="1.92093">
        <ele>245</ele>
        <time>2011-08-17T07:41:12Z</time>
      </trkpt>
      <trkpt lat="43.971" lon="1.92094">
        <ele>245</ele>
        <time>2011-08-17T07:41:13Z</time>
      </trkpt>
      <trkpt lat="43.97098" lon="1.92095">
        <ele>245</ele>
        <time>2011-08-17T07:41:14Z</time>
      </trkpt>
      <trkpt lat="43.97096" lon="1.92096">
        <ele>245</ele>
        <time>2011-08-17T07:41:15Z</time>
      </trkpt>
      <trkpt lat="43.97094" lon="1.92096">
        <ele>245</ele>
        <time>2011-08-17T07:41:16Z</time>
      </trkpt>
      <trkpt lat="43.97092" lon="1.92096">
        <ele>246</ele>
        <time>2011-08-17T07:41:17Z</time>
      </trkpt>
      <trkpt lat="43.9709" lon="1.92097">
        <ele>246</ele>
        <time>2011-08-17T07:41:18Z</time>
      </trkpt>
      <trkpt lat="43.97088" lon="1.92097">
        <ele>246</ele>
        <time>2011-08-17T07:41:19Z</time>
      </trkpt>
      <trkpt lat="43.97086" lon="1.92097">
        <ele>247</ele>
        <time>2011-08-17T07:41:20Z</time>
      </trkpt>
      <trkpt lat="43.97084" lon="1.92097">
        <ele>247</ele>
        <time>2011-08-17T07:41:21Z</time>
      </trkpt>
      <trkpt lat="43.97082" lon="1.92097">
        <ele>247</ele>
        <time>2011-08-17T07:41:22Z</time>
      </trkpt>
      <trkpt lat="43.9708" lon="1.92096">
        <ele>247</ele>
        <time>2011-08-17T07:41:23Z</time>
      </trkpt>
      <trkpt lat="43.97078" lon="1.92096">
        <ele>247</ele>
        <time>2011-08-17T07:41:24Z</time>
      </trkpt>
      <trkpt lat="43.97076" lon="1.92096">
        <ele>247</ele>
        <time>2011-08-17T07:41:25Z</time>
      </trkpt>
      <trkpt lat="43.97075" lon="1.92096">
        <ele>247</ele>
        <time>2011-08-17T07:41:26Z</time>
      </trkpt>
      <trkpt lat="43.97073" lon="1.92096">
        <ele>247</ele>
        <time>2011-08-17T07:41:27Z</time>
      </trkpt>
      <trkpt lat="43.9707" lon="1.92096">
        <ele>247</ele>
        <time>2011-08-17T07:41:28Z</time>
      </trkpt>
      <trkpt lat="43.97068" lon="1.92096">
        <ele>248</ele>
        <time>2011-08-17T07:41:29Z</time>
      </trkpt>
      <trkpt lat="43.97066" lon="1.92096">
        <ele>248</ele>
        <time>2011-08-17T07:41:30Z</time>
      </trkpt>
      <trkpt lat="43.97065" lon="1.92096">
        <ele>248</ele>
        <time>2011-08-17T07:41:31Z</time>
      </trkpt>
      <trkpt lat="43.97063" lon="1.92096">
        <ele>248</ele>
        <time>2011-08-17T07:41:32Z</time>
      </trkpt>
      <trkpt lat="43.9706" lon="1.92096">
        <ele>248</ele>
        <time>2011-08-17T07:41:33Z</time>
      </trkpt>
      <trkpt lat="43.97058" lon="1.92096">
        <ele>248</ele>
        <time>2011-08-17T07:41:34Z</time>
      </trkpt>
      <trkpt lat="43.97057" lon="1.92097">
        <ele>248</ele>
        <time>2011-08-17T07:41:35Z</time>
      </trkpt>
      <trkpt lat="43.97054" lon="1.92098">
        <ele>248</ele>
        <time>2011-08-17T07:41:36Z</time>
      </trkpt>
      <trkpt lat="43.97052" lon="1.92099">
        <ele>248</ele>
        <time>2011-08-17T07:41:37Z</time>
      </trkpt>
      <trkpt lat="43.9705" lon="1.921">
        <ele>248</ele>
        <time>2011-08-17T07:41:38Z</time>
      </trkpt>
      <trkpt lat="43.97047" lon="1.92102">
        <ele>248</ele>
        <time>2011-08-17T07:41:39Z</time>
      </trkpt>
      <trkpt lat="43.97044" lon="1.92104">
        <ele>248</ele>
        <time>2011-08-17T07:41:40Z</time>
      </trkpt>
      <trkpt lat="43.97042" lon="1.92106">
        <ele>248</ele>
        <time>2011-08-17T07:41:41Z</time>
      </trkpt>
      <trkpt lat="43.97039" lon="1.92108">
        <ele>248</ele>
        <time>2011-08-17T07:41:42Z</time>
      </trkpt>
      <trkpt lat="43.97036" lon="1.92111">
        <ele>248</ele>
        <time>2011-08-17T07:41:43Z</time>
      </trkpt>
      <trkpt lat="43.97034" lon="1.92113">
        <ele>248</ele>
        <time>2011-08-17T07:41:44Z</time>
      </trkpt>
      <trkpt lat="43.97032" lon="1.92116">
        <ele>248</ele>
        <time>2011-08-17T07:41:45Z</time>
      </trkpt>
      <trkpt lat="43.9703" lon="1.92119">
        <ele>248</ele>
        <time>2011-08-17T07:41:46Z</time>
      </trkpt>
      <trkpt lat="43.97028" lon="1.92122">
        <ele>248</ele>
        <time>2011-08-17T07:41:47Z</time>
      </trkpt>
      <trkpt lat="43.97025" lon="1.92124">
        <ele>248</ele>
        <time>2011-08-17T07:41:48Z</time>
      </trkpt>
      <trkpt lat="43.97023" lon="1.92127">
        <ele>248</ele>
        <time>2011-08-17T07:41:49Z</time>
      </trkpt>
      <trkpt lat="43.97021" lon="1.9213">
        <ele>248</ele>
        <time>2011-08-17T07:41:50Z</time>
      </trkpt>
      <trkpt lat="43.97019" lon="1.92133">
        <ele>248</ele>
        <time>2011-08-17T07:41:51Z</time>
      </trkpt>
      <trkpt lat="43.97017" lon="1.92135">
        <ele>248</ele>
        <time>2011-08-17T07:41:52Z</time>
      </trkpt>
      <trkpt lat="43.97015" lon="1.92138">
        <ele>248</ele>
        <time>2011-08-17T07:41:53Z</time>
      </trkpt>
      <trkpt lat="43.97012" lon="1.92141">
        <ele>248</ele>
        <time>2011-08-17T07:41:54Z</time>
      </trkpt>
      <trkpt lat="43.9701" lon="1.92144">
        <ele>248</ele>
        <time>2011-08-17T07:41:55Z</time>
      </trkpt>
      <trkpt lat="43.97008" lon="1.92147">
        <ele>248</ele>
        <time>2011-08-17T07:41:56Z</time>
      </trkpt>
      <trkpt lat="43.97006" lon="1.92149">
        <ele>248</ele>
        <time>2011-08-17T07:41:57Z</time>
      </trkpt>
      <trkpt lat="43.97004" lon="1.92152">
        <ele>248</ele>
        <time>2011-08-17T07:41:58Z</time>
      </trkpt>
      <trkpt lat="43.97002" lon="1.92154">
        <ele>248</ele>
        <time>2011-08-17T07:41:59Z</time>
      </trkpt>
      <trkpt lat="43.97" lon="1.92155">
        <ele>248</ele>
        <time>2011-08-17T07:42:00Z</time>
      </trkpt>
      <trkpt lat="43.96998" lon="1.92154">
        <ele>248</ele>
        <time>2011-08-17T07:42:01Z</time>
      </trkpt>
      <trkpt lat="43.96996" lon="1.92153">
        <ele>248</ele>
        <time>2011-08-17T07:42:02Z</time>
      </trkpt>
      <trkpt lat="43.96994" lon="1.9215">
        <ele>248</ele>
        <time>2011-08-17T07:42:03Z</time>
      </trkpt>
      <trkpt lat="43.96991" lon="1.92148">
        <ele>248</ele>
        <time>2011-08-17T07:42:04Z</time>
      </trkpt>
      <trkpt lat="43.96988" lon="1.92144">
        <ele>248</ele>
        <time>2011-08-17T07:42:05Z</time>
      </trkpt>
      <trkpt lat="43.96985" lon="1.9214">
        <ele>248</ele>
        <time>2011-08-17T07:42:06Z</time>
      </trkpt>
      <trkpt lat="43.96983" lon="1.92136">
        <ele>248</ele>
        <time>2011-08-17T07:42:07Z</time>
      </trkpt>
      <trkpt lat="43.9698" lon="1.92132">
        <ele>248</ele>
        <time>2011-08-17T07:42:08Z</time>
      </trkpt>
      <trkpt lat="43.96976" lon="1.92128">
        <ele>248</ele>
        <time>2011-08-17T07:42:09Z</time>
      </trkpt>
      <trkpt lat="43.96973" lon="1.92124">
        <ele>248</ele>
        <time>2011-08-17T07:42:10Z</time>
      </trkpt>
      <trkpt lat="43.9697" lon="1.9212">
        <ele>248</ele>
        <time>2011-08-17T07:42:11Z</time>
      </trkpt>
      <trkpt lat="43.96967" lon="1.92116">
        <ele>248</ele>
        <time>2011-08-17T07:42:12Z</time>
      </trkpt>
      <trkpt lat="43.96964" lon="1.92111">
        <ele>248</ele>
        <time>2011-08-17T07:42:13Z</time>
      </trkpt>
      <trkpt lat="43.9696" lon="1.92107">
        <ele>248</ele>
        <time>2011-08-17T07:42:14Z</time>
      </trkpt>
      <trkpt lat="43.96956" lon="1.92103">
        <ele>248</ele>
        <time>2011-08-17T07:42:15Z</time>
      </trkpt>
      <trkpt lat="43.96952" lon="1.92098">
        <ele>248</ele>
        <time>2011-08-17T07:42:16Z</time>
      </trkpt>
      <trkpt lat="43.96948" lon="1.92094">
        <ele>248</ele>
        <time>2011-08-17T07:42:17Z</time>
      </trkpt>
      <trkpt lat="43.96944" lon="1.92089">
        <ele>247</ele>
        <time>2011-08-17T07:42:18Z</time>
      </trkpt>
      <trkpt lat="43.9694" lon="1.92085">
        <ele>247</ele>
        <time>2011-08-17T07:42:19Z</time>
      </trkpt>
      <trkpt lat="43.96936" lon="1.92081">
        <ele>247</ele>
        <time>2011-08-17T07:42:20Z</time>
      </trkpt>
      <trkpt lat="43.96931" lon="1.92077">
        <ele>247</ele>
        <time>2011-08-17T07:42:21Z</time>
      </trkpt>
      <trkpt lat="43.96927" lon="1.92072">
        <ele>246</ele>
        <time>2011-08-17T07:42:22Z</time>
      </trkpt>
      <trkpt lat="43.96922" lon="1.92068">
        <ele>246</ele>
        <time>2011-08-17T07:42:23Z</time>
      </trkpt>
      <trkpt lat="43.96917" lon="1.92063">
        <ele>246</ele>
        <time>2011-08-17T07:42:24Z</time>
      </trkpt>
      <trkpt lat="43.96912" lon="1.92059">
        <ele>246</ele>
        <time>2011-08-17T07:42:25Z</time>
      </trkpt>
      <trkpt lat="43.96907" lon="1.92054">
        <ele>246</ele>
        <time>2011-08-17T07:42:26Z</time>
      </trkpt>
      <trkpt lat="43.96902" lon="1.92049">
        <ele>245</ele>
        <time>2011-08-17T07:42:27Z</time>
      </trkpt>
      <trkpt lat="43.96896" lon="1.92045">
        <ele>245</ele>
        <time>2011-08-17T07:42:28Z</time>
      </trkpt>
      <trkpt lat="43.9689" lon="1.9204">
        <ele>245</ele>
        <time>2011-08-17T07:42:29Z</time>
      </trkpt>
      <trkpt lat="43.96884" lon="1.92036">
        <ele>245</ele>
        <time>2011-08-17T07:42:30Z</time>
      </trkpt>
      <trkpt lat="43.96877" lon="1.92032">
        <ele>245</ele>
        <time>2011-08-17T07:42:31Z</time>
      </trkpt>
      <trkpt lat="43.9687" lon="1.92028">
        <ele>245</ele>
        <time>2011-08-17T07:42:32Z</time>
      </trkpt>
      <trkpt lat="43.96863" lon="1.92025">
        <ele>244</ele>
        <time>2011-08-17T07:42:33Z</time>
      </trkpt>
      <trkpt lat="43.96856" lon="1.92021">
        <ele>244</ele>
        <time>2011-08-17T07:42:34Z</time>
      </trkpt>
      <trkpt lat="43.96849" lon="1.92017">
        <ele>244</ele>
        <time>2011-08-17T07:42:35Z</time>
      </trkpt>
      <trkpt lat="43.96842" lon="1.92014">
        <ele>244</ele>
        <time>2011-08-17T07:42:36Z</time>
      </trkpt>
      <trkpt lat="43.96835" lon="1.9201">
        <ele>243</ele>
        <time>2011-08-17T07:42:37Z</time>
      </trkpt>
      <trkpt lat="43.96827" lon="1.92007">
        <ele>243</ele>
        <time>2011-08-17T07:42:38Z</time>
      </trkpt>
      <trkpt lat="43.9682" lon="1.92003">
        <ele>242</ele>
        <time>2011-08-17T07:42:39Z</time>
      </trkpt>
      <trkpt lat="43.96812" lon="1.92">
        <ele>242</ele>
        <time>2011-08-17T07:42:40Z</time>
      </trkpt>
      <trkpt lat="43.96803" lon="1.91997">
        <ele>241</ele>
        <time>2011-08-17T07:42:41Z</time>
      </trkpt>
      <trkpt lat="43.96795" lon="1.91995">
        <ele>240</ele>
        <time>2011-08-17T07:42:42Z</time>
      </trkpt>
      <trkpt lat="43.96785" lon="1.91994">
        <ele>240</ele>
        <time>2011-08-17T07:42:43Z</time>
      </trkpt>
      <trkpt lat="43.96777" lon="1.91993">
        <ele>239</ele>
        <time>2011-08-17T07:42:44Z</time>
      </trkpt>
      <trkpt lat="43.96768" lon="1.91993">
        <ele>238</ele>
        <time>2011-08-17T07:42:45Z</time>
      </trkpt>
      <trkpt lat="43.96759" lon="1.91994">
        <ele>238</ele>
        <time>2011-08-17T07:42:46Z</time>
      </trkpt>
      <trkpt lat="43.96749" lon="1.91995">
        <ele>237</ele>
        <time>2011-08-17T07:42:47Z</time>
      </trkpt>
      <trkpt lat="43.9674" lon="1.91997">
        <ele>237</ele>
        <time>2011-08-17T07:42:48Z</time>
      </trkpt>
      <trkpt lat="43.96732" lon="1.91999">
        <ele>236</ele>
        <time>2011-08-17T07:42:49Z</time>
      </trkpt>
      <trkpt lat="43.96723" lon="1.92002">
        <ele>236</ele>
        <time>2011-08-17T07:42:50Z</time>
      </trkpt>
      <trkpt lat="43.96714" lon="1.92005">
        <ele>235</ele>
        <time>2011-08-17T07:42:51Z</time>
      </trkpt>
      <trkpt lat="43.96706" lon="1.92009">
        <ele>235</ele>
        <time>2011-08-17T07:42:52Z</time>
      </trkpt>
      <trkpt lat="43.96698" lon="1.92013">
        <ele>234</ele>
        <time>2011-08-17T07:42:53Z</time>
      </trkpt>
      <trkpt lat="43.9669" lon="1.92017">
        <ele>234</ele>
        <time>2011-08-17T07:42:54Z</time>
      </trkpt>
      <trkpt lat="43.96682" lon="1.92021">
        <ele>233</ele>
        <time>2011-08-17T07:42:55Z</time>
      </trkpt>
      <trkpt lat="43.96674" lon="1.92025">
        <ele>232</ele>
        <time>2011-08-17T07:42:56Z</time>
      </trkpt>
      <trkpt lat="43.96666" lon="1.92029">
        <ele>232</ele>
        <time>2011-08-17T07:42:57Z</time>
      </trkpt>
      <trkpt lat="43.96657" lon="1.92033">
        <ele>231</ele>
        <time>2011-08-17T07:42:58Z</time>
      </trkpt>
      <trkpt lat="43.96649" lon="1.92036">
        <ele>231</ele>
        <time>2011-08-17T07:42:59Z</time>
      </trkpt>
      <trkpt lat="43.9664" lon="1.92039">
        <ele>230</ele>
        <time>2011-08-17T07:43:00Z</time>
      </trkpt>
      <trkpt lat="43.96632" lon="1.92041">
        <ele>230</ele>
        <time>2011-08-17T07:43:01Z</time>
      </trkpt>
      <trkpt lat="43.96623" lon="1.92042">
        <ele>229</ele>
        <time>2011-08-17T07:43:02Z</time>
      </trkpt>
      <trkpt lat="43.96614" lon="1.92042">
        <ele>229</ele>
        <time>2011-08-17T07:43:03Z</time>
      </trkpt>
      <trkpt lat="43.96606" lon="1.92041">
        <ele>228</ele>
        <time>2011-08-17T07:43:04Z</time>
      </trkpt>
      <trkpt lat="43.96597" lon="1.92038">
        <ele>227</ele>
        <time>2011-08-17T07:43:05Z</time>
      </trkpt>
      <trkpt lat="43.96589" lon="1.92035">
        <ele>227</ele>
        <time>2011-08-17T07:43:06Z</time>
      </trkpt>
      <trkpt lat="43.9658" lon="1.92031">
        <ele>226</ele>
        <time>2011-08-17T07:43:07Z</time>
      </trkpt>
      <trkpt lat="43.96572" lon="1.92027">
        <ele>226</ele>
        <time>2011-08-17T07:43:08Z</time>
      </trkpt>
      <trkpt lat="43.96564" lon="1.92025">
        <ele>226</ele>
        <time>2011-08-17T07:43:09Z</time>
      </trkpt>
      <trkpt lat="43.96555" lon="1.92023">
        <ele>225</ele>
        <time>2011-08-17T07:43:10Z</time>
      </trkpt>
      <trkpt lat="43.96547" lon="1.92023">
        <ele>225</ele>
        <time>2011-08-17T07:43:11Z</time>
      </trkpt>
      <trkpt lat="43.96539" lon="1.92024">
        <ele>225</ele>
        <time>2011-08-17T07:43:12Z</time>
      </trkpt>
      <trkpt lat="43.96531" lon="1.92025">
        <ele>224</ele>
        <time>2011-08-17T07:43:13Z</time>
      </trkpt>
      <trkpt lat="43.96523" lon="1.92026">
        <ele>224</ele>
        <time>2011-08-17T07:43:14Z</time>
      </trkpt>
      <trkpt lat="43.96516" lon="1.92027">
        <ele>224</ele>
        <time>2011-08-17T07:43:15Z</time>
      </trkpt>
      <trkpt lat="43.96508" lon="1.92026">
        <ele>224</ele>
        <time>2011-08-17T07:43:16Z</time>
      </trkpt>
      <trkpt lat="43.96501" lon="1.92024">
        <ele>224</ele>
        <time>2011-08-17T07:43:17Z</time>
      </trkpt>
      <trkpt lat="43.96494" lon="1.92022">
        <ele>223</ele>
        <time>2011-08-17T07:43:18Z</time>
      </trkpt>
      <trkpt lat="43.96486" lon="1.92018">
        <ele>223</ele>
        <time>2011-08-17T07:43:19Z</time>
      </trkpt>
      <trkpt lat="43.96479" lon="1.92015">
        <ele>223</ele>
        <time>2011-08-17T07:43:20Z</time>
      </trkpt>
      <trkpt lat="43.96473" lon="1.92011">
        <ele>223</ele>
        <time>2011-08-17T07:43:21Z</time>
      </trkpt>
      <trkpt lat="43.96466" lon="1.92009">
        <ele>223</ele>
        <time>2011-08-17T07:43:22Z</time>
      </trkpt>
      <trkpt lat="43.9646" lon="1.92006">
        <ele>222</ele>
        <time>2011-08-17T07:43:23Z</time>
      </trkpt>
      <trkpt lat="43.96455" lon="1.92005">
        <ele>222</ele>
        <time>2011-08-17T07:43:24Z</time>
      </trkpt>
      <trkpt lat="43.96449" lon="1.92005">
        <ele>222</ele>
        <time>2011-08-17T07:43:25Z</time>
      </trkpt>
      <trkpt lat="43.96444" lon="1.92006">
        <ele>222</ele>
        <time>2011-08-17T07:43:26Z</time>
      </trkpt>
      <trkpt lat="43.9644" lon="1.92009">
        <ele>221</ele>
        <time>2011-08-17T07:43:27Z</time>
      </trkpt>
      <trkpt lat="43.96437" lon="1.92013">
        <ele>221</ele>
        <time>2011-08-17T07:43:28Z</time>
      </trkpt>
      <trkpt lat="43.96434" lon="1.92018">
        <ele>221</ele>
        <time>2011-08-17T07:43:29Z</time>
      </trkpt>
      <trkpt lat="43.96432" lon="1.92023">
        <ele>220</ele>
        <time>2011-08-17T07:43:30Z</time>
      </trkpt>
      <trkpt lat="43.9643" lon="1.92028">
        <ele>220</ele>
        <time>2011-08-17T07:43:31Z</time>
      </trkpt>
      <trkpt lat="43.96428" lon="1.92034">
        <ele>219</ele>
        <time>2011-08-17T07:43:32Z</time>
      </trkpt>
      <trkpt lat="43.96427" lon="1.9204">
        <ele>219</ele>
        <time>2011-08-17T07:43:33Z</time>
      </trkpt>
      <trkpt lat="43.96426" lon="1.92046">
        <ele>218</ele>
        <time>2011-08-17T07:43:34Z</time>
      </trkpt>
      <trkpt lat="43.96425" lon="1.92051">
        <ele>217</ele>
        <time>2011-08-17T07:43:35Z</time>
      </trkpt>
      <trkpt lat="43.96423" lon="1.92056">
        <ele>217</ele>
        <time>2011-08-17T07:43:36Z</time>
      </trkpt>
      <trkpt lat="43.96421" lon="1.9206">
        <ele>217</ele>
        <time>2011-08-17T07:43:37Z</time>
      </trkpt>
      <trkpt lat="43.9642" lon="1.92062">
        <ele>216</ele>
        <time>2011-08-17T07:43:38Z</time>
      </trkpt>
      <trkpt lat="43.96418" lon="1.92064">
        <ele>216</ele>
        <time>2011-08-17T07:43:39Z</time>
      </trkpt>
      <trkpt lat="43.96417" lon="1.92065">
        <ele>216</ele>
        <time>2011-08-17T07:43:40Z</time>
      </trkpt>
      <trkpt lat="43.96415" lon="1.92065">
        <ele>216</ele>
        <time>2011-08-17T07:43:42Z</time>
      </trkpt>
      <trkpt lat="43.96413" lon="1.92063">
        <ele>216</ele>
        <time>2011-08-17T07:43:44Z</time>
      </trkpt>
      <trkpt lat="43.9641" lon="1.92061">
        <ele>216</ele>
        <time>2011-08-17T07:43:45Z</time>
      </trkpt>
      <trkpt lat="43.96407" lon="1.9206">
        <ele>216</ele>
        <time>2011-08-17T07:43:46Z</time>
      </trkpt>
      <trkpt lat="43.96406" lon="1.92058">
        <ele>216</ele>
        <time>2011-08-17T07:43:47Z</time>
      </trkpt>
      <trkpt lat="43.96406" lon="1.92055">
        <ele>215</ele>
        <time>2011-08-17T07:43:48Z</time>
      </trkpt>
      <trkpt lat="43.96406" lon="1.92052">
        <ele>215</ele>
        <time>2011-08-17T07:43:49Z</time>
      </trkpt>
      <trkpt lat="43.96407" lon="1.9205">
        <ele>215</ele>
        <time>2011-08-17T07:43:50Z</time>
      </trkpt>
      <trkpt lat="43.96407" lon="1.92048">
        <ele>214</ele>
        <time>2011-08-17T07:43:51Z</time>
      </trkpt>
      <trkpt lat="43.96407" lon="1.92045">
        <ele>214</ele>
        <time>2011-08-17T07:43:52Z</time>
      </trkpt>
      <trkpt lat="43.96407" lon="1.92043">
        <ele>214</ele>
        <time>2011-08-17T07:43:53Z</time>
      </trkpt>
      <trkpt lat="43.96406" lon="1.92041">
        <ele>214</ele>
        <time>2011-08-17T07:43:54Z</time>
      </trkpt>
      <trkpt lat="43.96405" lon="1.92038">
        <ele>213</ele>
        <time>2011-08-17T07:43:55Z</time>
      </trkpt>
      <trkpt lat="43.96405" lon="1.92034">
        <ele>213</ele>
        <time>2011-08-17T07:43:56Z</time>
      </trkpt>
      <trkpt lat="43.96404" lon="1.9203">
        <ele>212</ele>
        <time>2011-08-17T07:43:57Z</time>
      </trkpt>
      <trkpt lat="43.96403" lon="1.92026">
        <ele>211</ele>
        <time>2011-08-17T07:43:58Z</time>
      </trkpt>
      <trkpt lat="43.96402" lon="1.92022">
        <ele>211</ele>
        <time>2011-08-17T07:43:59Z</time>
      </trkpt>
      <trkpt lat="43.964" lon="1.92018">
        <ele>210</ele>
        <time>2011-08-17T07:44:00Z</time>
      </trkpt>
      <trkpt lat="43.96398" lon="1.92014">
        <ele>209</ele>
        <time>2011-08-17T07:44:01Z</time>
      </trkpt>
      <trkpt lat="43.96397" lon="1.92009">
        <ele>209</ele>
        <time>2011-08-17T07:44:02Z</time>
      </trkpt>
      <trkpt lat="43.96395" lon="1.92005">
        <ele>208</ele>
        <time>2011-08-17T07:44:03Z</time>
      </trkpt>
      <trkpt lat="43.96394" lon="1.92001">
        <ele>208</ele>
        <time>2011-08-17T07:44:04Z</time>
      </trkpt>
      <trkpt lat="43.96392" lon="1.91999">
        <ele>208</ele>
        <time>2011-08-17T07:44:05Z</time>
      </trkpt>
      <trkpt lat="43.96391" lon="1.91997">
        <ele>207</ele>
        <time>2011-08-17T07:44:06Z</time>
      </trkpt>
      <trkpt lat="43.96389" lon="1.91998">
        <ele>206</ele>
        <time>2011-08-17T07:44:07Z</time>
      </trkpt>
      <trkpt lat="43.96387" lon="1.92001">
        <ele>205</ele>
        <time>2011-08-17T07:44:08Z</time>
      </trkpt>
      <trkpt lat="43.96384" lon="1.92006">
        <ele>204</ele>
        <time>2011-08-17T07:44:09Z</time>
      </trkpt>
      <trkpt lat="43.96382" lon="1.9201">
        <ele>203</ele>
        <time>2011-08-17T07:44:10Z</time>
      </trkpt>
      <trkpt lat="43.96379" lon="1.92016">
        <ele>202</ele>
        <time>2011-08-17T07:44:11Z</time>
      </trkpt>
      <trkpt lat="43.96376" lon="1.92021">
        <ele>202</ele>
        <time>2011-08-17T07:44:12Z</time>
      </trkpt>
      <trkpt lat="43.96373" lon="1.92027">
        <ele>202</ele>
        <time>2011-08-17T07:44:13Z</time>
      </trkpt>
      <trkpt lat="43.96369" lon="1.92033">
        <ele>201</ele>
        <time>2011-08-17T07:44:14Z</time>
      </trkpt>
      <trkpt lat="43.96366" lon="1.92039">
        <ele>201</ele>
        <time>2011-08-17T07:44:15Z</time>
      </trkpt>
      <trkpt lat="43.96364" lon="1.92043">
        <ele>201</ele>
        <time>2011-08-17T07:44:16Z</time>
      </trkpt>
      <trkpt lat="43.96361" lon="1.92047">
        <ele>201</ele>
        <time>2011-08-17T07:44:17Z</time>
      </trkpt>
      <trkpt lat="43.96359" lon="1.9205">
        <ele>201</ele>
        <time>2011-08-17T07:44:18Z</time>
      </trkpt>
      <trkpt lat="43.96358" lon="1.92053">
        <ele>201</ele>
        <time>2011-08-17T07:44:19Z</time>
      </trkpt>
      <trkpt lat="43.96356" lon="1.92056">
        <ele>201</ele>
        <time>2011-08-17T07:44:20Z</time>
      </trkpt>
      <trkpt lat="43.96354" lon="1.92059">
        <ele>201</ele>
        <time>2011-08-17T07:44:21Z</time>
      </trkpt>
      <trkpt lat="43.96352" lon="1.9206">
        <ele>201</ele>
        <time>2011-08-17T07:44:22Z</time>
      </trkpt>
      <trkpt lat="43.9635" lon="1.92061">
        <ele>201</ele>
        <time>2011-08-17T07:44:23Z</time>
      </trkpt>
      <trkpt lat="43.96348" lon="1.9206">
        <ele>201</ele>
        <time>2011-08-17T07:44:24Z</time>
      </trkpt>
      <trkpt lat="43.96345" lon="1.92059">
        <ele>201</ele>
        <time>2011-08-17T07:44:25Z</time>
      </trkpt>
      <trkpt lat="43.96342" lon="1.92056">
        <ele>201</ele>
        <time>2011-08-17T07:44:26Z</time>
      </trkpt>
      <trkpt lat="43.96339" lon="1.92053">
        <ele>201</ele>
        <time>2011-08-17T07:44:27Z</time>
      </trkpt>
      <trkpt lat="43.96335" lon="1.92051">
        <ele>201</ele>
        <time>2011-08-17T07:44:28Z</time>
      </trkpt>
      <trkpt lat="43.96331" lon="1.92049">
        <ele>201</ele>
        <time>2011-08-17T07:44:29Z</time>
      </trkpt>
      <trkpt lat="43.96327" lon="1.92046">
        <ele>201</ele>
        <time>2011-08-17T07:44:30Z</time>
      </trkpt>
      <trkpt lat="43.96322" lon="1.92044">
        <ele>201</ele>
        <time>2011-08-17T07:44:31Z</time>
      </trkpt>
      <trkpt lat="43.96317" lon="1.92041">
        <ele>201</ele>
        <time>2011-08-17T07:44:32Z</time>
      </trkpt>
      <trkpt lat="43.96313" lon="1.92039">
        <ele>201</ele>
        <time>2011-08-17T07:44:33Z</time>
      </trkpt>
      <trkpt lat="43.96308" lon="1.92037">
        <ele>200</ele>
        <time>2011-08-17T07:44:34Z</time>
      </trkpt>
      <trkpt lat="43.96303" lon="1.92034">
        <ele>200</ele>
        <time>2011-08-17T07:44:35Z</time>
      </trkpt>
      <trkpt lat="43.96299" lon="1.92032">
        <ele>200</ele>
        <time>2011-08-17T07:44:36Z</time>
      </trkpt>
      <trkpt lat="43.96294" lon="1.92029">
        <ele>199</ele>
        <time>2011-08-17T07:44:37Z</time>
      </trkpt>
      <trkpt lat="43.9629" lon="1.92027">
        <ele>199</ele>
        <time>2011-08-17T07:44:38Z</time>
      </trkpt>
      <trkpt lat="43.96286" lon="1.92024">
        <ele>199</ele>
        <time>2011-08-17T07:44:39Z</time>
      </trkpt>
      <trkpt lat="43.96281" lon="1.92022">
        <ele>198</ele>
        <time>2011-08-17T07:44:40Z</time>
      </trkpt>
      <trkpt lat="43.96277" lon="1.92019">
        <ele>198</ele>
        <time>2011-08-17T07:44:41Z</time>
      </trkpt>
      <trkpt lat="43.96273" lon="1.92016">
        <ele>197</ele>
        <time>2011-08-17T07:44:42Z</time>
      </trkpt>
      <trkpt lat="43.9627" lon="1.92014">
        <ele>197</ele>
        <time>2011-08-17T07:44:43Z</time>
      </trkpt>
      <trkpt lat="43.96266" lon="1.92012">
        <ele>196</ele>
        <time>2011-08-17T07:44:44Z</time>
      </trkpt>
      <trkpt lat="43.96264" lon="1.9201">
        <ele>196</ele>
        <time>2011-08-17T07:44:45Z</time>
      </trkpt>
      <trkpt lat="43.96263" lon="1.92009">
        <ele>196</ele>
        <time>2011-08-17T07:44:46Z</time>
      </trkpt>
      <trkpt lat="43.96261" lon="1.9201">
        <ele>195</ele>
        <time>2011-08-17T07:44:47Z</time>
      </trkpt>
      <trkpt lat="43.9626" lon="1.92011">
        <ele>195</ele>
        <time>2011-08-17T07:44:48Z</time>
      </trkpt>
      <trkpt lat="43.96258" lon="1.92012">
        <ele>194</ele>
        <time>2011-08-17T07:44:49Z</time>
      </trkpt>
      <trkpt lat="43.96257" lon="1.92012">
        <ele>194</ele>
        <time>2011-08-17T07:44:50Z</time>
      </trkpt>
      <trkpt lat="43.96254" lon="1.92012">
        <ele>194</ele>
        <time>2011-08-17T07:44:51Z</time>
      </trkpt>
      <trkpt lat="43.96253" lon="1.92011">
        <ele>194</ele>
        <time>2011-08-17T07:44:52Z</time>
      </trkpt>
      <trkpt lat="43.96251" lon="1.9201">
        <ele>194</ele>
        <time>2011-08-17T07:44:53Z</time>
      </trkpt>
      <trkpt lat="43.96247" lon="1.92009">
        <ele>194</ele>
        <time>2011-08-17T07:44:54Z</time>
      </trkpt>
      <trkpt lat="43.96244" lon="1.92009">
        <ele>193</ele>
        <time>2011-08-17T07:44:55Z</time>
      </trkpt>
      <trkpt lat="43.9624" lon="1.92008">
        <ele>193</ele>
        <time>2011-08-17T07:44:56Z</time>
      </trkpt>
      <trkpt lat="43.96236" lon="1.92008">
        <ele>193</ele>
        <time>2011-08-17T07:44:57Z</time>
      </trkpt>
      <trkpt lat="43.96231" lon="1.92008">
        <ele>193</ele>
        <time>2011-08-17T07:44:58Z</time>
      </trkpt>
      <trkpt lat="43.96226" lon="1.92007">
        <ele>193</ele>
        <time>2011-08-17T07:44:59Z</time>
      </trkpt>
      <trkpt lat="43.96221" lon="1.92006">
        <ele>193</ele>
        <time>2011-08-17T07:45:00Z</time>
      </trkpt>
      <trkpt lat="43.96217" lon="1.92004">
        <ele>193</ele>
        <time>2011-08-17T07:45:01Z</time>
      </trkpt>
      <trkpt lat="43.96212" lon="1.92003">
        <ele>192</ele>
        <time>2011-08-17T07:45:02Z</time>
      </trkpt>
      <trkpt lat="43.96207" lon="1.92002">
        <ele>192</ele>
        <time>2011-08-17T07:45:03Z</time>
      </trkpt>
      <trkpt lat="43.96202" lon="1.92001">
        <ele>192</ele>
        <time>2011-08-17T07:45:04Z</time>
      </trkpt>
      <trkpt lat="43.96197" lon="1.92">
        <ele>192</ele>
        <time>2011-08-17T07:45:05Z</time>
      </trkpt>
      <trkpt lat="43.96192" lon="1.91999">
        <ele>192</ele>
        <time>2011-08-17T07:45:06Z</time>
      </trkpt>
      <trkpt lat="43.96187" lon="1.91997">
        <ele>191</ele>
        <time>2011-08-17T07:45:07Z</time>
      </trkpt>
      <trkpt lat="43.96182" lon="1.91996">
        <ele>191</ele>
        <time>2011-08-17T07:45:08Z</time>
      </trkpt>
      <trkpt lat="43.96177" lon="1.91995">
        <ele>191</ele>
        <time>2011-08-17T07:45:09Z</time>
      </trkpt>
      <trkpt lat="43.96172" lon="1.91994">
        <ele>191</ele>
        <time>2011-08-17T07:45:10Z</time>
      </trkpt>
      <trkpt lat="43.96167" lon="1.91992">
        <ele>191</ele>
        <time>2011-08-17T07:45:11Z</time>
      </trkpt>
      <trkpt lat="43.96162" lon="1.9199">
        <ele>191</ele>
        <time>2011-08-17T07:45:12Z</time>
      </trkpt>
      <trkpt lat="43.96158" lon="1.91988">
        <ele>191</ele>
        <time>2011-08-17T07:45:13Z</time>
      </trkpt>
      <trkpt lat="43.96154" lon="1.91985">
        <ele>191</ele>
        <time>2011-08-17T07:45:14Z</time>
      </trkpt>
      <trkpt lat="43.9615" lon="1.91984">
        <ele>191</ele>
        <time>2011-08-17T07:45:15Z</time>
      </trkpt>
      <trkpt lat="43.96147" lon="1.91982">
        <ele>191</ele>
        <time>2011-08-17T07:45:16Z</time>
      </trkpt>
      <trkpt lat="43.96144" lon="1.91981">
        <ele>191</ele>
        <time>2011-08-17T07:45:17Z</time>
      </trkpt>
      <trkpt lat="43.96141" lon="1.9198">
        <ele>191</ele>
        <time>2011-08-17T07:45:18Z</time>
      </trkpt>
      <trkpt lat="43.96139" lon="1.9198">
        <ele>191</ele>
        <time>2011-08-17T07:45:19Z</time>
      </trkpt>
      <trkpt lat="43.96137" lon="1.91979">
        <ele>191</ele>
        <time>2011-08-17T07:45:20Z</time>
      </trkpt>
      <trkpt lat="43.96134" lon="1.91978">
        <ele>191</ele>
        <time>2011-08-17T07:45:21Z</time>
      </trkpt>
      <trkpt lat="43.96131" lon="1.91977">
        <ele>191</ele>
        <time>2011-08-17T07:45:22Z</time>
      </trkpt>
      <trkpt lat="43.96128" lon="1.91977">
        <ele>191</ele>
        <time>2011-08-17T07:45:23Z</time>
      </trkpt>
      <trkpt lat="43.96126" lon="1.91977">
        <ele>191</ele>
        <time>2011-08-17T07:45:24Z</time>
      </trkpt>
      <trkpt lat="43.96123" lon="1.91977">
        <ele>191</ele>
        <time>2011-08-17T07:45:25Z</time>
      </trkpt>
      <trkpt lat="43.9612" lon="1.91977">
        <ele>191</ele>
        <time>2011-08-17T07:45:26Z</time>
      </trkpt>
      <trkpt lat="43.96117" lon="1.91977">
        <ele>191</ele>
        <time>2011-08-17T07:45:27Z</time>
      </trkpt>
      <trkpt lat="43.96115" lon="1.91978">
        <ele>191</ele>
        <time>2011-08-17T07:45:28Z</time>
      </trkpt>
      <trkpt lat="43.96112" lon="1.91978">
        <ele>191</ele>
        <time>2011-08-17T07:45:29Z</time>
      </trkpt>
      <trkpt lat="43.96109" lon="1.91979">
        <ele>191</ele>
        <time>2011-08-17T07:45:30Z</time>
      </trkpt>
      <trkpt lat="43.96106" lon="1.9198">
        <ele>191</ele>
        <time>2011-08-17T07:45:31Z</time>
      </trkpt>
      <trkpt lat="43.96103" lon="1.9198">
        <ele>191</ele>
        <time>2011-08-17T07:45:32Z</time>
      </trkpt>
      <trkpt lat="43.961" lon="1.91981">
        <ele>191</ele>
        <time>2011-08-17T07:45:33Z</time>
      </trkpt>
      <trkpt lat="43.96097" lon="1.91981">
        <ele>191</ele>
        <time>2011-08-17T07:45:34Z</time>
      </trkpt>
      <trkpt lat="43.96095" lon="1.91982">
        <ele>191</ele>
        <time>2011-08-17T07:45:35Z</time>
      </trkpt>
      <trkpt lat="43.96092" lon="1.91982">
        <ele>191</ele>
        <time>2011-08-17T07:45:36Z</time>
      </trkpt>
      <trkpt lat="43.96089" lon="1.91983">
        <ele>191</ele>
        <time>2011-08-17T07:45:37Z</time>
      </trkpt>
      <trkpt lat="43.96086" lon="1.91983">
        <ele>191</ele>
        <time>2011-08-17T07:45:38Z</time>
      </trkpt>
      <trkpt lat="43.96083" lon="1.91984">
        <ele>191</ele>
        <time>2011-08-17T07:45:39Z</time>
      </trkpt>
      <trkpt lat="43.9608" lon="1.91984">
        <ele>191</ele>
        <time>2011-08-17T07:45:40Z</time>
      </trkpt>
      <trkpt lat="43.96077" lon="1.91984">
        <ele>191</ele>
        <time>2011-08-17T07:45:41Z</time>
      </trkpt>
      <trkpt lat="43.96074" lon="1.91985">
        <ele>191</ele>
        <time>2011-08-17T07:45:42Z</time>
      </trkpt>
      <trkpt lat="43.96071" lon="1.91985">
        <ele>191</ele>
        <time>2011-08-17T07:45:43Z</time>
      </trkpt>
      <trkpt lat="43.96068" lon="1.91985">
        <ele>191</ele>
        <time>2011-08-17T07:45:44Z</time>
      </trkpt>
      <trkpt lat="43.96065" lon="1.91985">
        <ele>191</ele>
        <time>2011-08-17T07:45:45Z</time>
      </trkpt>
      <trkpt lat="43.96062" lon="1.91985">
        <ele>191</ele>
        <time>2011-08-17T07:45:46Z</time>
      </trkpt>
      <trkpt lat="43.96059" lon="1.91985">
        <ele>191</ele>
        <time>2011-08-17T07:45:47Z</time>
      </trkpt>
      <trkpt lat="43.96055" lon="1.91985">
        <ele>191</ele>
        <time>2011-08-17T07:45:48Z</time>
      </trkpt>
      <trkpt lat="43.96052" lon="1.91986">
        <ele>191</ele>
        <time>2011-08-17T07:45:49Z</time>
      </trkpt>
      <trkpt lat="43.96049" lon="1.91986">
        <ele>191</ele>
        <time>2011-08-17T07:45:50Z</time>
      </trkpt>
      <trkpt lat="43.96046" lon="1.91987">
        <ele>191</ele>
        <time>2011-08-17T07:45:51Z</time>
      </trkpt>
      <trkpt lat="43.96043" lon="1.91987">
        <ele>191</ele>
        <time>2011-08-17T07:45:52Z</time>
      </trkpt>
      <trkpt lat="43.96041" lon="1.91987">
        <ele>191</ele>
        <time>2011-08-17T07:45:53Z</time>
      </trkpt>
      <trkpt lat="43.96038" lon="1.91987">
        <ele>192</ele>
        <time>2011-08-17T07:45:54Z</time>
      </trkpt>
      <trkpt lat="43.96035" lon="1.91987">
        <ele>192</ele>
        <time>2011-08-17T07:45:55Z</time>
      </trkpt>
      <trkpt lat="43.96032" lon="1.91987">
        <ele>192</ele>
        <time>2011-08-17T07:45:56Z</time>
      </trkpt>
      <trkpt lat="43.96029" lon="1.91987">
        <ele>193</ele>
        <time>2011-08-17T07:45:57Z</time>
      </trkpt>
      <trkpt lat="43.96025" lon="1.91986">
        <ele>193</ele>
        <time>2011-08-17T07:45:58Z</time>
      </trkpt>
      <trkpt lat="43.96022" lon="1.91985">
        <ele>193</ele>
        <time>2011-08-17T07:45:59Z</time>
      </trkpt>
      <trkpt lat="43.96017" lon="1.91983">
        <ele>193</ele>
        <time>2011-08-17T07:46:00Z</time>
      </trkpt>
      <trkpt lat="43.96013" lon="1.91981">
        <ele>193</ele>
        <time>2011-08-17T07:46:01Z</time>
      </trkpt>
      <trkpt lat="43.96009" lon="1.91979">
        <ele>193</ele>
        <time>2011-08-17T07:46:02Z</time>
      </trkpt>
      <trkpt lat="43.96004" lon="1.91978">
        <ele>193</ele>
        <time>2011-08-17T07:46:03Z</time>
      </trkpt>
      <trkpt lat="43.95998" lon="1.91978">
        <ele>193</ele>
        <time>2011-08-17T07:46:04Z</time>
      </trkpt>
      <trkpt lat="43.95992" lon="1.91978">
        <ele>193</ele>
        <time>2011-08-17T07:46:05Z</time>
      </trkpt>
      <trkpt lat="43.95986" lon="1.91978">
        <ele>193</ele>
        <time>2011-08-17T07:46:06Z</time>
      </trkpt>
      <trkpt lat="43.9598" lon="1.91979">
        <ele>193</ele>
        <time>2011-08-17T07:46:07Z</time>
      </trkpt>
      <trkpt lat="43.95974" lon="1.9198">
        <ele>193</ele>
        <time>2011-08-17T07:46:08Z</time>
      </trkpt>
      <trkpt lat="43.95967" lon="1.91981">
        <ele>193</ele>
        <time>2011-08-17T07:46:09Z</time>
      </trkpt>
      <trkpt lat="43.95961" lon="1.91982">
        <ele>193</ele>
        <time>2011-08-17T07:46:10Z</time>
      </trkpt>
      <trkpt lat="43.95955" lon="1.91984">
        <ele>192</ele>
        <time>2011-08-17T07:46:11Z</time>
      </trkpt>
      <trkpt lat="43.95949" lon="1.91986">
        <ele>192</ele>
        <time>2011-08-17T07:46:12Z</time>
      </trkpt>
      <trkpt lat="43.95944" lon="1.91988">
        <ele>191</ele>
        <time>2011-08-17T07:46:13Z</time>
      </trkpt>
      <trkpt lat="43.95941" lon="1.9199">
        <ele>191</ele>
        <time>2011-08-17T07:46:14Z</time>
      </trkpt>
      <trkpt lat="43.95939" lon="1.91994">
        <ele>190</ele>
        <time>2011-08-17T07:46:15Z</time>
      </trkpt>
      <trkpt lat="43.95938" lon="1.91997">
        <ele>190</ele>
        <time>2011-08-17T07:46:16Z</time>
      </trkpt>
      <trkpt lat="43.9594" lon="1.92002">
        <ele>189</ele>
        <time>2011-08-17T07:46:17Z</time>
      </trkpt>
      <trkpt lat="43.95942" lon="1.92006">
        <ele>189</ele>
        <time>2011-08-17T07:46:18Z</time>
      </trkpt>
      <trkpt lat="43.95945" lon="1.92011">
        <ele>188</ele>
        <time>2011-08-17T07:46:19Z</time>
      </trkpt>
      <trkpt lat="43.95948" lon="1.92016">
        <ele>188</ele>
        <time>2011-08-17T07:46:20Z</time>
      </trkpt>
      <trkpt lat="43.9595" lon="1.92021">
        <ele>187</ele>
        <time>2011-08-17T07:46:21Z</time>
      </trkpt>
      <trkpt lat="43.95953" lon="1.92026">
        <ele>187</ele>
        <time>2011-08-17T07:46:22Z</time>
      </trkpt>
      <trkpt lat="43.95955" lon="1.92031">
        <ele>187</ele>
        <time>2011-08-17T07:46:23Z</time>
      </trkpt>
      <trkpt lat="43.95957" lon="1.92036">
        <ele>187</ele>
        <time>2011-08-17T07:46:24Z</time>
      </trkpt>
      <trkpt lat="43.95959" lon="1.92042">
        <ele>187</ele>
        <time>2011-08-17T07:46:25Z</time>
      </trkpt>
      <trkpt lat="43.95962" lon="1.92047">
        <ele>186</ele>
        <time>2011-08-17T07:46:26Z</time>
      </trkpt>
      <trkpt lat="43.95964" lon="1.92052">
        <ele>186</ele>
        <time>2011-08-17T07:46:27Z</time>
      </trkpt>
      <trkpt lat="43.95966" lon="1.92057">
        <ele>186</ele>
        <time>2011-08-17T07:46:28Z</time>
      </trkpt>
      <trkpt lat="43.95967" lon="1.92062">
        <ele>186</ele>
        <time>2011-08-17T07:46:29Z</time>
      </trkpt>
      <trkpt lat="43.95969" lon="1.92068">
        <ele>185</ele>
        <time>2011-08-17T07:46:30Z</time>
      </trkpt>
      <trkpt lat="43.95971" lon="1.92073">
        <ele>185</ele>
        <time>2011-08-17T07:46:31Z</time>
      </trkpt>
      <trkpt lat="43.95973" lon="1.92079">
        <ele>185</ele>
        <time>2011-08-17T07:46:32Z</time>
      </trkpt>
      <trkpt lat="43.95975" lon="1.92084">
        <ele>185</ele>
        <time>2011-08-17T07:46:33Z</time>
      </trkpt>
      <trkpt lat="43.95977" lon="1.92089">
        <ele>184</ele>
        <time>2011-08-17T07:46:34Z</time>
      </trkpt>
      <trkpt lat="43.95979" lon="1.92095">
        <ele>184</ele>
        <time>2011-08-17T07:46:35Z</time>
      </trkpt>
      <trkpt lat="43.9598" lon="1.921">
        <ele>184</ele>
        <time>2011-08-17T07:46:36Z</time>
      </trkpt>
      <trkpt lat="43.95982" lon="1.92105">
        <ele>184</ele>
        <time>2011-08-17T07:46:37Z</time>
      </trkpt>
      <trkpt lat="43.95984" lon="1.9211">
        <ele>184</ele>
        <time>2011-08-17T07:46:38Z</time>
      </trkpt>
      <trkpt lat="43.95985" lon="1.92116">
        <ele>184</ele>
        <time>2011-08-17T07:46:39Z</time>
      </trkpt>
      <trkpt lat="43.95987" lon="1.92122">
        <ele>184</ele>
        <time>2011-08-17T07:46:40Z</time>
      </trkpt>
      <trkpt lat="43.95988" lon="1.92128">
        <ele>184</ele>
        <time>2011-08-17T07:46:41Z</time>
      </trkpt>
      <trkpt lat="43.9599" lon="1.92134">
        <ele>184</ele>
        <time>2011-08-17T07:46:42Z</time>
      </trkpt>
      <trkpt lat="43.95992" lon="1.9214">
        <ele>184</ele>
        <time>2011-08-17T07:46:43Z</time>
      </trkpt>
      <trkpt lat="43.95993" lon="1.92148">
        <ele>184</ele>
        <time>2011-08-17T07:46:44Z</time>
      </trkpt>
      <trkpt lat="43.95995" lon="1.92155">
        <ele>183</ele>
        <time>2011-08-17T07:46:45Z</time>
      </trkpt>
      <trkpt lat="43.95995" lon="1.92162">
        <ele>183</ele>
        <time>2011-08-17T07:46:46Z</time>
      </trkpt>
      <trkpt lat="43.95996" lon="1.9217">
        <ele>183</ele>
        <time>2011-08-17T07:46:47Z</time>
      </trkpt>
      <trkpt lat="43.95996" lon="1.92178">
        <ele>183</ele>
        <time>2011-08-17T07:46:48Z</time>
      </trkpt>
      <trkpt lat="43.95997" lon="1.92186">
        <ele>182</ele>
        <time>2011-08-17T07:46:49Z</time>
      </trkpt>
      <trkpt lat="43.95997" lon="1.92194">
        <ele>182</ele>
        <time>2011-08-17T07:46:50Z</time>
      </trkpt>
      <trkpt lat="43.95997" lon="1.92201">
        <ele>182</ele>
        <time>2011-08-17T07:46:51Z</time>
      </trkpt>
      <trkpt lat="43.95997" lon="1.9221">
        <ele>182</ele>
        <time>2011-08-17T07:46:52Z</time>
      </trkpt>
      <trkpt lat="43.95997" lon="1.92218">
        <ele>182</ele>
        <time>2011-08-17T07:46:53Z</time>
      </trkpt>
      <trkpt lat="43.95998" lon="1.92226">
        <ele>182</ele>
        <time>2011-08-17T07:46:54Z</time>
      </trkpt>
      <trkpt lat="43.95997" lon="1.92234">
        <ele>182</ele>
        <time>2011-08-17T07:46:55Z</time>
      </trkpt>
      <trkpt lat="43.95997" lon="1.92241">
        <ele>182</ele>
        <time>2011-08-17T07:46:56Z</time>
      </trkpt>
      <trkpt lat="43.95997" lon="1.92249">
        <ele>181</ele>
        <time>2011-08-17T07:46:57Z</time>
      </trkpt>
      <trkpt lat="43.95998" lon="1.92256">
        <ele>181</ele>
        <time>2011-08-17T07:46:58Z</time>
      </trkpt>
      <trkpt lat="43.95998" lon="1.92263">
        <ele>181</ele>
        <time>2011-08-17T07:46:59Z</time>
      </trkpt>
      <trkpt lat="43.95998" lon="1.92271">
        <ele>181</ele>
        <time>2011-08-17T07:47:00Z</time>
      </trkpt>
      <trkpt lat="43.95998" lon="1.92279">
        <ele>181</ele>
        <time>2011-08-17T07:47:01Z</time>
      </trkpt>
      <trkpt lat="43.95998" lon="1.92286">
        <ele>181</ele>
        <time>2011-08-17T07:47:02Z</time>
      </trkpt>
      <trkpt lat="43.95998" lon="1.92294">
        <ele>181</ele>
        <time>2011-08-17T07:47:03Z</time>
      </trkpt>
      <trkpt lat="43.95998" lon="1.92301">
        <ele>181</ele>
        <time>2011-08-17T07:47:04Z</time>
      </trkpt>
      <trkpt lat="43.95997" lon="1.92308">
        <ele>181</ele>
        <time>2011-08-17T07:47:05Z</time>
      </trkpt>
      <trkpt lat="43.95996" lon="1.92316">
        <ele>181</ele>
        <time>2011-08-17T07:47:06Z</time>
      </trkpt>
      <trkpt lat="43.95995" lon="1.92323">
        <ele>181</ele>
        <time>2011-08-17T07:47:07Z</time>
      </trkpt>
      <trkpt lat="43.95993" lon="1.92329">
        <ele>181</ele>
        <time>2011-08-17T07:47:08Z</time>
      </trkpt>
      <trkpt lat="43.95992" lon="1.92335">
        <ele>181</ele>
        <time>2011-08-17T07:47:09Z</time>
      </trkpt>
      <trkpt lat="43.9599" lon="1.92341">
        <ele>181</ele>
        <time>2011-08-17T07:47:10Z</time>
      </trkpt>
      <trkpt lat="43.95988" lon="1.92347">
        <ele>181</ele>
        <time>2011-08-17T07:47:11Z</time>
      </trkpt>
      <trkpt lat="43.95985" lon="1.92352">
        <ele>181</ele>
        <time>2011-08-17T07:47:12Z</time>
      </trkpt>
      <trkpt lat="43.95982" lon="1.92357">
        <ele>181</ele>
        <time>2011-08-17T07:47:13Z</time>
      </trkpt>
      <trkpt lat="43.9598" lon="1.92363">
        <ele>181</ele>
        <time>2011-08-17T07:47:14Z</time>
      </trkpt>
      <trkpt lat="43.95976" lon="1.92368">
        <ele>181</ele>
        <time>2011-08-17T07:47:15Z</time>
      </trkpt>
      <trkpt lat="43.95973" lon="1.92374">
        <ele>181</ele>
        <time>2011-08-17T07:47:16Z</time>
      </trkpt>
      <trkpt lat="43.95969" lon="1.92379">
        <ele>181</ele>
        <time>2011-08-17T07:47:17Z</time>
      </trkpt>
      <trkpt lat="43.95966" lon="1.92384">
        <ele>181</ele>
        <time>2011-08-17T07:47:18Z</time>
      </trkpt>
      <trkpt lat="43.95962" lon="1.92389">
        <ele>181</ele>
        <time>2011-08-17T07:47:19Z</time>
      </trkpt>
      <trkpt lat="43.95959" lon="1.92395">
        <ele>181</ele>
        <time>2011-08-17T07:47:20Z</time>
      </trkpt>
      <trkpt lat="43.95955" lon="1.92401">
        <ele>181</ele>
        <time>2011-08-17T07:47:21Z</time>
      </trkpt>
      <trkpt lat="43.95951" lon="1.92406">
        <ele>181</ele>
        <time>2011-08-17T07:47:22Z</time>
      </trkpt>
      <trkpt lat="43.95948" lon="1.92412">
        <ele>181</ele>
        <time>2011-08-17T07:47:23Z</time>
      </trkpt>
      <trkpt lat="43.95945" lon="1.92417">
        <ele>181</ele>
        <time>2011-08-17T07:47:24Z</time>
      </trkpt>
      <trkpt lat="43.95941" lon="1.92423">
        <ele>181</ele>
        <time>2011-08-17T07:47:25Z</time>
      </trkpt>
      <trkpt lat="43.95937" lon="1.92429">
        <ele>181</ele>
        <time>2011-08-17T07:47:26Z</time>
      </trkpt>
      <trkpt lat="43.95933" lon="1.92434">
        <ele>181</ele>
        <time>2011-08-17T07:47:27Z</time>
      </trkpt>
      <trkpt lat="43.95929" lon="1.9244">
        <ele>181</ele>
        <time>2011-08-17T07:47:28Z</time>
      </trkpt>
      <trkpt lat="43.95926" lon="1.92445">
        <ele>181</ele>
        <time>2011-08-17T07:47:29Z</time>
      </trkpt>
      <trkpt lat="43.95921" lon="1.92451">
        <ele>181</ele>
        <time>2011-08-17T07:47:30Z</time>
      </trkpt>
      <trkpt lat="43.95917" lon="1.92457">
        <ele>181</ele>
        <time>2011-08-17T07:47:31Z</time>
      </trkpt>
      <trkpt lat="43.95913" lon="1.92463">
        <ele>181</ele>
        <time>2011-08-17T07:47:32Z</time>
      </trkpt>
      <trkpt lat="43.95909" lon="1.92469">
        <ele>181</ele>
        <time>2011-08-17T07:47:33Z</time>
      </trkpt>
      <trkpt lat="43.95905" lon="1.92475">
        <ele>181</ele>
        <time>2011-08-17T07:47:34Z</time>
      </trkpt>
      <trkpt lat="43.95901" lon="1.92481">
        <ele>181</ele>
        <time>2011-08-17T07:47:35Z</time>
      </trkpt>
      <trkpt lat="43.95898" lon="1.92487">
        <ele>181</ele>
        <time>2011-08-17T07:47:36Z</time>
      </trkpt>
      <trkpt lat="43.95894" lon="1.92493">
        <ele>180</ele>
        <time>2011-08-17T07:47:37Z</time>
      </trkpt>
      <trkpt lat="43.9589" lon="1.92499">
        <ele>180</ele>
        <time>2011-08-17T07:47:38Z</time>
      </trkpt>
      <trkpt lat="43.95887" lon="1.92505">
        <ele>180</ele>
        <time>2011-08-17T07:47:39Z</time>
      </trkpt>
      <trkpt lat="43.95884" lon="1.92512">
        <ele>180</ele>
        <time>2011-08-17T07:47:40Z</time>
      </trkpt>
      <trkpt lat="43.95881" lon="1.92518">
        <ele>180</ele>
        <time>2011-08-17T07:47:41Z</time>
      </trkpt>
      <trkpt lat="43.95879" lon="1.92525">
        <ele>180</ele>
        <time>2011-08-17T07:47:42Z</time>
      </trkpt>
      <trkpt lat="43.95876" lon="1.92532">
        <ele>180</ele>
        <time>2011-08-17T07:47:43Z</time>
      </trkpt>
      <trkpt lat="43.95874" lon="1.92538">
        <ele>180</ele>
        <time>2011-08-17T07:47:44Z</time>
      </trkpt>
      <trkpt lat="43.95871" lon="1.92545">
        <ele>180</ele>
        <time>2011-08-17T07:47:45Z</time>
      </trkpt>
      <trkpt lat="43.95869" lon="1.92551">
        <ele>180</ele>
        <time>2011-08-17T07:47:46Z</time>
      </trkpt>
      <trkpt lat="43.95866" lon="1.92558">
        <ele>180</ele>
        <time>2011-08-17T07:47:47Z</time>
      </trkpt>
      <trkpt lat="43.95863" lon="1.92564">
        <ele>179</ele>
        <time>2011-08-17T07:47:48Z</time>
      </trkpt>
      <trkpt lat="43.95861" lon="1.92571">
        <ele>179</ele>
        <time>2011-08-17T07:47:49Z</time>
      </trkpt>
      <trkpt lat="43.95857" lon="1.92577">
        <ele>179</ele>
        <time>2011-08-17T07:47:50Z</time>
      </trkpt>
      <trkpt lat="43.95853" lon="1.92584">
        <ele>179</ele>
        <time>2011-08-17T07:47:51Z</time>
      </trkpt>
      <trkpt lat="43.95849" lon="1.9259">
        <ele>178</ele>
        <time>2011-08-17T07:47:52Z</time>
      </trkpt>
      <trkpt lat="43.95845" lon="1.92596">
        <ele>178</ele>
        <time>2011-08-17T07:47:53Z</time>
      </trkpt>
      <trkpt lat="43.95841" lon="1.92602">
        <ele>178</ele>
        <time>2011-08-17T07:47:54Z</time>
      </trkpt>
      <trkpt lat="43.95837" lon="1.92608">
        <ele>178</ele>
        <time>2011-08-17T07:47:55Z</time>
      </trkpt>
      <trkpt lat="43.95832" lon="1.92614">
        <ele>178</ele>
        <time>2011-08-17T07:47:56Z</time>
      </trkpt>
      <trkpt lat="43.95827" lon="1.9262">
        <ele>178</ele>
        <time>2011-08-17T07:47:57Z</time>
      </trkpt>
      <trkpt lat="43.95823" lon="1.92626">
        <ele>178</ele>
        <time>2011-08-17T07:47:58Z</time>
      </trkpt>
      <trkpt lat="43.95818" lon="1.92631">
        <ele>178</ele>
        <time>2011-08-17T07:47:59Z</time>
      </trkpt>
      <trkpt lat="43.95813" lon="1.92637">
        <ele>178</ele>
        <time>2011-08-17T07:48:00Z</time>
      </trkpt>
      <trkpt lat="43.95809" lon="1.92643">
        <ele>177</ele>
        <time>2011-08-17T07:48:01Z</time>
      </trkpt>
      <trkpt lat="43.95804" lon="1.92649">
        <ele>177</ele>
        <time>2011-08-17T07:48:02Z</time>
      </trkpt>
      <trkpt lat="43.958" lon="1.92655">
        <ele>177</ele>
        <time>2011-08-17T07:48:03Z</time>
      </trkpt>
      <trkpt lat="43.95795" lon="1.92661">
        <ele>177</ele>
        <time>2011-08-17T07:48:04Z</time>
      </trkpt>
      <trkpt lat="43.9579" lon="1.92667">
        <ele>177</ele>
        <time>2011-08-17T07:48:05Z</time>
      </trkpt>
      <trkpt lat="43.95785" lon="1.92673">
        <ele>177</ele>
        <time>2011-08-17T07:48:06Z</time>
      </trkpt>
      <trkpt lat="43.9578" lon="1.92678">
        <ele>177</ele>
        <time>2011-08-17T07:48:07Z</time>
      </trkpt>
      <trkpt lat="43.95775" lon="1.92683">
        <ele>177</ele>
        <time>2011-08-17T07:48:08Z</time>
      </trkpt>
      <trkpt lat="43.9577" lon="1.92688">
        <ele>177</ele>
        <time>2011-08-17T07:48:09Z</time>
      </trkpt>
      <trkpt lat="43.95765" lon="1.92692">
        <ele>177</ele>
        <time>2011-08-17T07:48:10Z</time>
      </trkpt>
      <trkpt lat="43.9576" lon="1.92697">
        <ele>177</ele>
        <time>2011-08-17T07:48:11Z</time>
      </trkpt>
      <trkpt lat="43.95754" lon="1.92702">
        <ele>177</ele>
        <time>2011-08-17T07:48:12Z</time>
      </trkpt>
      <trkpt lat="43.95749" lon="1.92706">
        <ele>177</ele>
        <time>2011-08-17T07:48:13Z</time>
      </trkpt>
      <trkpt lat="43.95744" lon="1.92711">
        <ele>177</ele>
        <time>2011-08-17T07:48:14Z</time>
      </trkpt>
      <trkpt lat="43.95739" lon="1.92715">
        <ele>177</ele>
        <time>2011-08-17T07:48:15Z</time>
      </trkpt>
      <trkpt lat="43.95734" lon="1.9272">
        <ele>177</ele>
        <time>2011-08-17T07:48:16Z</time>
      </trkpt>
      <trkpt lat="43.95729" lon="1.92725">
        <ele>177</ele>
        <time>2011-08-17T07:48:17Z</time>
      </trkpt>
      <trkpt lat="43.95724" lon="1.9273">
        <ele>177</ele>
        <time>2011-08-17T07:48:18Z</time>
      </trkpt>
      <trkpt lat="43.95719" lon="1.92735">
        <ele>177</ele>
        <time>2011-08-17T07:48:19Z</time>
      </trkpt>
      <trkpt lat="43.95714" lon="1.92739">
        <ele>177</ele>
        <time>2011-08-17T07:48:20Z</time>
      </trkpt>
      <trkpt lat="43.95709" lon="1.92744">
        <ele>177</ele>
        <time>2011-08-17T07:48:21Z</time>
      </trkpt>
      <trkpt lat="43.95704" lon="1.92749">
        <ele>177</ele>
        <time>2011-08-17T07:48:22Z</time>
      </trkpt>
      <trkpt lat="43.95699" lon="1.92754">
        <ele>177</ele>
        <time>2011-08-17T07:48:23Z</time>
      </trkpt>
      <trkpt lat="43.95694" lon="1.92759">
        <ele>177</ele>
        <time>2011-08-17T07:48:24Z</time>
      </trkpt>
      <trkpt lat="43.95689" lon="1.92764">
        <ele>177</ele>
        <time>2011-08-17T07:48:25Z</time>
      </trkpt>
      <trkpt lat="43.95685" lon="1.92769">
        <ele>177</ele>
        <time>2011-08-17T07:48:26Z</time>
      </trkpt>
      <trkpt lat="43.95681" lon="1.92775">
        <ele>177</ele>
        <time>2011-08-17T07:48:27Z</time>
      </trkpt>
      <trkpt lat="43.95676" lon="1.9278">
        <ele>177</ele>
        <time>2011-08-17T07:48:28Z</time>
      </trkpt>
      <trkpt lat="43.95673" lon="1.92786">
        <ele>177</ele>
        <time>2011-08-17T07:48:29Z</time>
      </trkpt>
      <trkpt lat="43.95669" lon="1.92792">
        <ele>177</ele>
        <time>2011-08-17T07:48:30Z</time>
      </trkpt>
      <trkpt lat="43.95665" lon="1.92797">
        <ele>177</ele>
        <time>2011-08-17T07:48:31Z</time>
      </trkpt>
      <trkpt lat="43.95661" lon="1.92803">
        <ele>177</ele>
        <time>2011-08-17T07:48:32Z</time>
      </trkpt>
      <trkpt lat="43.95656" lon="1.92808">
        <ele>177</ele>
        <time>2011-08-17T07:48:33Z</time>
      </trkpt>
      <trkpt lat="43.95652" lon="1.92814">
        <ele>177</ele>
        <time>2011-08-17T07:48:34Z</time>
      </trkpt>
      <trkpt lat="43.95648" lon="1.92819">
        <ele>177</ele>
        <time>2011-08-17T07:48:35Z</time>
      </trkpt>
      <trkpt lat="43.95644" lon="1.92824">
        <ele>177</ele>
        <time>2011-08-17T07:48:36Z</time>
      </trkpt>
      <trkpt lat="43.9564" lon="1.92829">
        <ele>177</ele>
        <time>2011-08-17T07:48:37Z</time>
      </trkpt>
      <trkpt lat="43.95636" lon="1.92833">
        <ele>177</ele>
        <time>2011-08-17T07:48:38Z</time>
      </trkpt>
      <trkpt lat="43.95631" lon="1.92837">
        <ele>177</ele>
        <time>2011-08-17T07:48:39Z</time>
      </trkpt>
      <trkpt lat="43.95626" lon="1.92842">
        <ele>177</ele>
        <time>2011-08-17T07:48:40Z</time>
      </trkpt>
      <trkpt lat="43.95622" lon="1.92847">
        <ele>177</ele>
        <time>2011-08-17T07:48:41Z</time>
      </trkpt>
      <trkpt lat="43.95617" lon="1.92851">
        <ele>177</ele>
        <time>2011-08-17T07:48:42Z</time>
      </trkpt>
      <trkpt lat="43.95613" lon="1.92856">
        <ele>177</ele>
        <time>2011-08-17T07:48:43Z</time>
      </trkpt>
      <trkpt lat="43.95608" lon="1.9286">
        <ele>177</ele>
        <time>2011-08-17T07:48:44Z</time>
      </trkpt>
      <trkpt lat="43.95604" lon="1.92866">
        <ele>177</ele>
        <time>2011-08-17T07:48:45Z</time>
      </trkpt>
      <trkpt lat="43.95599" lon="1.92871">
        <ele>177</ele>
        <time>2011-08-17T07:48:46Z</time>
      </trkpt>
      <trkpt lat="43.95595" lon="1.92876">
        <ele>177</ele>
        <time>2011-08-17T07:48:47Z</time>
      </trkpt>
      <trkpt lat="43.9559" lon="1.92881">
        <ele>177</ele>
        <time>2011-08-17T07:48:48Z</time>
      </trkpt>
      <trkpt lat="43.95586" lon="1.92886">
        <ele>177</ele>
        <time>2011-08-17T07:48:49Z</time>
      </trkpt>
      <trkpt lat="43.95581" lon="1.92892">
        <ele>177</ele>
        <time>2011-08-17T07:48:50Z</time>
      </trkpt>
      <trkpt lat="43.95576" lon="1.92897">
        <ele>177</ele>
        <time>2011-08-17T07:48:51Z</time>
      </trkpt>
      <trkpt lat="43.95572" lon="1.92902">
        <ele>177</ele>
        <time>2011-08-17T07:48:52Z</time>
      </trkpt>
      <trkpt lat="43.95567" lon="1.92908">
        <ele>177</ele>
        <time>2011-08-17T07:48:53Z</time>
      </trkpt>
      <trkpt lat="43.95563" lon="1.92913">
        <ele>177</ele>
        <time>2011-08-17T07:48:54Z</time>
      </trkpt>
      <trkpt lat="43.95558" lon="1.92919">
        <ele>177</ele>
        <time>2011-08-17T07:48:55Z</time>
      </trkpt>
      <trkpt lat="43.95554" lon="1.92925">
        <ele>177</ele>
        <time>2011-08-17T07:48:56Z</time>
      </trkpt>
      <trkpt lat="43.95549" lon="1.92931">
        <ele>177</ele>
        <time>2011-08-17T07:48:57Z</time>
      </trkpt>
      <trkpt lat="43.95544" lon="1.92937">
        <ele>177</ele>
        <time>2011-08-17T07:48:58Z</time>
      </trkpt>
      <trkpt lat="43.9554" lon="1.92943">
        <ele>177</ele>
        <time>2011-08-17T07:48:59Z</time>
      </trkpt>
      <trkpt lat="43.95536" lon="1.92949">
        <ele>177</ele>
        <time>2011-08-17T07:49:00Z</time>
      </trkpt>
      <trkpt lat="43.95531" lon="1.92955">
        <ele>177</ele>
        <time>2011-08-17T07:49:01Z</time>
      </trkpt>
      <trkpt lat="43.95527" lon="1.9296">
        <ele>177</ele>
        <time>2011-08-17T07:49:02Z</time>
      </trkpt>
      <trkpt lat="43.95522" lon="1.92966">
        <ele>177</ele>
        <time>2011-08-17T07:49:03Z</time>
      </trkpt>
      <trkpt lat="43.95517" lon="1.92971">
        <ele>177</ele>
        <time>2011-08-17T07:49:04Z</time>
      </trkpt>
      <trkpt lat="43.95513" lon="1.92977">
        <ele>177</ele>
        <time>2011-08-17T07:49:05Z</time>
      </trkpt>
      <trkpt lat="43.95509" lon="1.92982">
        <ele>177</ele>
        <time>2011-08-17T07:49:06Z</time>
      </trkpt>
      <trkpt lat="43.95504" lon="1.92987">
        <ele>177</ele>
        <time>2011-08-17T07:49:07Z</time>
      </trkpt>
      <trkpt lat="43.95499" lon="1.92992">
        <ele>177</ele>
        <time>2011-08-17T07:49:08Z</time>
      </trkpt>
      <trkpt lat="43.95494" lon="1.92997">
        <ele>177</ele>
        <time>2011-08-17T07:49:09Z</time>
      </trkpt>
      <trkpt lat="43.9549" lon="1.93002">
        <ele>177</ele>
        <time>2011-08-17T07:49:10Z</time>
      </trkpt>
      <trkpt lat="43.95484" lon="1.93007">
        <ele>177</ele>
        <time>2011-08-17T07:49:11Z</time>
      </trkpt>
      <trkpt lat="43.95479" lon="1.93011">
        <ele>177</ele>
        <time>2011-08-17T07:49:12Z</time>
      </trkpt>
      <trkpt lat="43.95474" lon="1.93016">
        <ele>176</ele>
        <time>2011-08-17T07:49:13Z</time>
      </trkpt>
      <trkpt lat="43.95468" lon="1.9302">
        <ele>176</ele>
        <time>2011-08-17T07:49:14Z</time>
      </trkpt>
      <trkpt lat="43.95463" lon="1.93024">
        <ele>176</ele>
        <time>2011-08-17T07:49:15Z</time>
      </trkpt>
      <trkpt lat="43.95457" lon="1.93028">
        <ele>176</ele>
        <time>2011-08-17T07:49:16Z</time>
      </trkpt>
      <trkpt lat="43.95452" lon="1.93033">
        <ele>175</ele>
        <time>2011-08-17T07:49:17Z</time>
      </trkpt>
      <trkpt lat="43.95446" lon="1.93037">
        <ele>175</ele>
        <time>2011-08-17T07:49:18Z</time>
      </trkpt>
      <trkpt lat="43.95441" lon="1.93041">
        <ele>175</ele>
        <time>2011-08-17T07:49:19Z</time>
      </trkpt>
      <trkpt lat="43.95435" lon="1.93046">
        <ele>175</ele>
        <time>2011-08-17T07:49:20Z</time>
      </trkpt>
      <trkpt lat="43.9543" lon="1.9305">
        <ele>175</ele>
        <time>2011-08-17T07:49:21Z</time>
      </trkpt>
      <trkpt lat="43.95424" lon="1.93055">
        <ele>174</ele>
        <time>2011-08-17T07:49:22Z</time>
      </trkpt>
      <trkpt lat="43.95419" lon="1.9306">
        <ele>174</ele>
        <time>2011-08-17T07:49:23Z</time>
      </trkpt>
      <trkpt lat="43.95414" lon="1.93065">
        <ele>174</ele>
        <time>2011-08-17T07:49:24Z</time>
      </trkpt>
      <trkpt lat="43.95408" lon="1.9307">
        <ele>174</ele>
        <time>2011-08-17T07:49:25Z</time>
      </trkpt>
      <trkpt lat="43.95403" lon="1.93076">
        <ele>174</ele>
        <time>2011-08-17T07:49:26Z</time>
      </trkpt>
      <trkpt lat="43.95397" lon="1.93081">
        <ele>173</ele>
        <time>2011-08-17T07:49:27Z</time>
      </trkpt>
      <trkpt lat="43.95392" lon="1.93086">
        <ele>173</ele>
        <time>2011-08-17T07:49:28Z</time>
      </trkpt>
      <trkpt lat="43.95386" lon="1.93092">
        <ele>173</ele>
        <time>2011-08-17T07:49:29Z</time>
      </trkpt>
      <trkpt lat="43.95381" lon="1.93097">
        <ele>173</ele>
        <time>2011-08-17T07:49:30Z</time>
      </trkpt>
      <trkpt lat="43.95375" lon="1.93102">
        <ele>173</ele>
        <time>2011-08-17T07:49:31Z</time>
      </trkpt>
      <trkpt lat="43.9537" lon="1.93107">
        <ele>173</ele>
        <time>2011-08-17T07:49:32Z</time>
      </trkpt>
      <trkpt lat="43.95365" lon="1.93113">
        <ele>173</ele>
        <time>2011-08-17T07:49:33Z</time>
      </trkpt>
      <trkpt lat="43.95359" lon="1.93118">
        <ele>172</ele>
        <time>2011-08-17T07:49:34Z</time>
      </trkpt>
      <trkpt lat="43.95354" lon="1.93123">
        <ele>172</ele>
        <time>2011-08-17T07:49:35Z</time>
      </trkpt>
      <trkpt lat="43.95349" lon="1.93129">
        <ele>172</ele>
        <time>2011-08-17T07:49:36Z</time>
      </trkpt>
      <trkpt lat="43.95345" lon="1.93133">
        <ele>172</ele>
        <time>2011-08-17T07:49:37Z</time>
      </trkpt>
      <trkpt lat="43.9534" lon="1.93138">
        <ele>172</ele>
        <time>2011-08-17T07:49:38Z</time>
      </trkpt>
      <trkpt lat="43.95335" lon="1.93143">
        <ele>172</ele>
        <time>2011-08-17T07:49:39Z</time>
      </trkpt>
      <trkpt lat="43.95331" lon="1.93148">
        <ele>172</ele>
        <time>2011-08-17T07:49:40Z</time>
      </trkpt>
      <trkpt lat="43.95327" lon="1.93152">
        <ele>172</ele>
        <time>2011-08-17T07:49:41Z</time>
      </trkpt>
      <trkpt lat="43.95322" lon="1.93156">
        <ele>172</ele>
        <time>2011-08-17T07:49:42Z</time>
      </trkpt>
      <trkpt lat="43.95318" lon="1.9316">
        <ele>172</ele>
        <time>2011-08-17T07:49:43Z</time>
      </trkpt>
      <trkpt lat="43.95314" lon="1.93164">
        <ele>172</ele>
        <time>2011-08-17T07:49:44Z</time>
      </trkpt>
      <trkpt lat="43.9531" lon="1.93168">
        <ele>172</ele>
        <time>2011-08-17T07:49:45Z</time>
      </trkpt>
      <trkpt lat="43.95306" lon="1.93172">
        <ele>172</ele>
        <time>2011-08-17T07:49:46Z</time>
      </trkpt>
      <trkpt lat="43.95301" lon="1.93176">
        <ele>172</ele>
        <time>2011-08-17T07:49:47Z</time>
      </trkpt>
      <trkpt lat="43.95297" lon="1.9318">
        <ele>172</ele>
        <time>2011-08-17T07:49:48Z</time>
      </trkpt>
      <trkpt lat="43.95293" lon="1.93183">
        <ele>172</ele>
        <time>2011-08-17T07:49:49Z</time>
      </trkpt>
      <trkpt lat="43.95289" lon="1.93185">
        <ele>172</ele>
        <time>2011-08-17T07:49:50Z</time>
      </trkpt>
      <trkpt lat="43.95284" lon="1.93186">
        <ele>172</ele>
        <time>2011-08-17T07:49:51Z</time>
      </trkpt>
      <trkpt lat="43.9528" lon="1.93186">
        <ele>172</ele>
        <time>2011-08-17T07:49:52Z</time>
      </trkpt>
      <trkpt lat="43.95276" lon="1.93184">
        <ele>172</ele>
        <time>2011-08-17T07:49:53Z</time>
      </trkpt>
      <trkpt lat="43.95272" lon="1.93181">
        <ele>172</ele>
        <time>2011-08-17T07:49:54Z</time>
      </trkpt>
      <trkpt lat="43.95269" lon="1.93178">
        <ele>172</ele>
        <time>2011-08-17T07:49:55Z</time>
      </trkpt>
      <trkpt lat="43.95266" lon="1.93175">
        <ele>172</ele>
        <time>2011-08-17T07:49:56Z</time>
      </trkpt>
      <trkpt lat="43.95263" lon="1.93171">
        <ele>172</ele>
        <time>2011-08-17T07:49:57Z</time>
      </trkpt>
      <trkpt lat="43.95259" lon="1.93167">
        <ele>172</ele>
        <time>2011-08-17T07:49:58Z</time>
      </trkpt>
      <trkpt lat="43.95255" lon="1.93163">
        <ele>172</ele>
        <time>2011-08-17T07:49:59Z</time>
      </trkpt>
      <trkpt lat="43.95251" lon="1.93159">
        <ele>172</ele>
        <time>2011-08-17T07:50:00Z</time>
      </trkpt>
      <trkpt lat="43.95247" lon="1.93155">
        <ele>172</ele>
        <time>2011-08-17T07:50:01Z</time>
      </trkpt>
      <trkpt lat="43.95242" lon="1.93151">
        <ele>172</ele>
        <time>2011-08-17T07:50:02Z</time>
      </trkpt>
      <trkpt lat="43.95238" lon="1.93147">
        <ele>172</ele>
        <time>2011-08-17T07:50:03Z</time>
      </trkpt>
      <trkpt lat="43.95234" lon="1.93143">
        <ele>172</ele>
        <time>2011-08-17T07:50:04Z</time>
      </trkpt>
      <trkpt lat="43.9523" lon="1.93139">
        <ele>172</ele>
        <time>2011-08-17T07:50:05Z</time>
      </trkpt>
      <trkpt lat="43.95225" lon="1.93135">
        <ele>172</ele>
        <time>2011-08-17T07:50:06Z</time>
      </trkpt>
      <trkpt lat="43.95221" lon="1.93131">
        <ele>172</ele>
        <time>2011-08-17T07:50:07Z</time>
      </trkpt>
      <trkpt lat="43.95216" lon="1.93128">
        <ele>172</ele>
        <time>2011-08-17T07:50:08Z</time>
      </trkpt>
      <trkpt lat="43.95212" lon="1.93124">
        <ele>172</ele>
        <time>2011-08-17T07:50:09Z</time>
      </trkpt>
      <trkpt lat="43.95207" lon="1.9312">
        <ele>172</ele>
        <time>2011-08-17T07:50:10Z</time>
      </trkpt>
      <trkpt lat="43.95203" lon="1.93116">
        <ele>172</ele>
        <time>2011-08-17T07:50:11Z</time>
      </trkpt>
      <trkpt lat="43.95199" lon="1.93113">
        <ele>172</ele>
        <time>2011-08-17T07:50:12Z</time>
      </trkpt>
      <trkpt lat="43.95195" lon="1.9311">
        <ele>172</ele>
        <time>2011-08-17T07:50:13Z</time>
      </trkpt>
      <trkpt lat="43.9519" lon="1.93107">
        <ele>172</ele>
        <time>2011-08-17T07:50:14Z</time>
      </trkpt>
      <trkpt lat="43.95185" lon="1.93103">
        <ele>172</ele>
        <time>2011-08-17T07:50:15Z</time>
      </trkpt>
      <trkpt lat="43.95181" lon="1.931">
        <ele>172</ele>
        <time>2011-08-17T07:50:16Z</time>
      </trkpt>
      <trkpt lat="43.95176" lon="1.93097">
        <ele>172</ele>
        <time>2011-08-17T07:50:17Z</time>
      </trkpt>
      <trkpt lat="43.95172" lon="1.93095">
        <ele>172</ele>
        <time>2011-08-17T07:50:18Z</time>
      </trkpt>
      <trkpt lat="43.95167" lon="1.93093">
        <ele>172</ele>
        <time>2011-08-17T07:50:19Z</time>
      </trkpt>
      <trkpt lat="43.95162" lon="1.93091">
        <ele>172</ele>
        <time>2011-08-17T07:50:20Z</time>
      </trkpt>
      <trkpt lat="43.95158" lon="1.93088">
        <ele>172</ele>
        <time>2011-08-17T07:50:21Z</time>
      </trkpt>
      <trkpt lat="43.95153" lon="1.93086">
        <ele>172</ele>
        <time>2011-08-17T07:50:22Z</time>
      </trkpt>
      <trkpt lat="43.95148" lon="1.93084">
        <ele>172</ele>
        <time>2011-08-17T07:50:23Z</time>
      </trkpt>
      <trkpt lat="43.95143" lon="1.93081">
        <ele>172</ele>
        <time>2011-08-17T07:50:24Z</time>
      </trkpt>
      <trkpt lat="43.95139" lon="1.9308">
        <ele>172</ele>
        <time>2011-08-17T07:50:25Z</time>
      </trkpt>
      <trkpt lat="43.95135" lon="1.93078">
        <ele>172</ele>
        <time>2011-08-17T07:50:26Z</time>
      </trkpt>
      <trkpt lat="43.95131" lon="1.93076">
        <ele>172</ele>
        <time>2011-08-17T07:50:27Z</time>
      </trkpt>
      <trkpt lat="43.95127" lon="1.93075">
        <ele>172</ele>
        <time>2011-08-17T07:50:28Z</time>
      </trkpt>
      <trkpt lat="43.95123" lon="1.93073">
        <ele>173</ele>
        <time>2011-08-17T07:50:29Z</time>
      </trkpt>
      <trkpt lat="43.95119" lon="1.93071">
        <ele>174</ele>
        <time>2011-08-17T07:50:30Z</time>
      </trkpt>
      <trkpt lat="43.95114" lon="1.9307">
        <ele>174</ele>
        <time>2011-08-17T07:50:31Z</time>
      </trkpt>
      <trkpt lat="43.95109" lon="1.93068">
        <ele>175</ele>
        <time>2011-08-17T07:50:32Z</time>
      </trkpt>
      <trkpt lat="43.95104" lon="1.93067">
        <ele>175</ele>
        <time>2011-08-17T07:50:33Z</time>
      </trkpt>
      <trkpt lat="43.951" lon="1.93066">
        <ele>176</ele>
        <time>2011-08-17T07:50:34Z</time>
      </trkpt>
      <trkpt lat="43.95095" lon="1.93064">
        <ele>176</ele>
        <time>2011-08-17T07:50:35Z</time>
      </trkpt>
      <trkpt lat="43.95089" lon="1.93062">
        <ele>176</ele>
        <time>2011-08-17T07:50:36Z</time>
      </trkpt>
      <trkpt lat="43.95084" lon="1.93061">
        <ele>177</ele>
        <time>2011-08-17T07:50:37Z</time>
      </trkpt>
      <trkpt lat="43.95079" lon="1.9306">
        <ele>177</ele>
        <time>2011-08-17T07:50:38Z</time>
      </trkpt>
      <trkpt lat="43.95074" lon="1.93058">
        <ele>177</ele>
        <time>2011-08-17T07:50:39Z</time>
      </trkpt>
      <trkpt lat="43.95069" lon="1.93057">
        <ele>177</ele>
        <time>2011-08-17T07:50:40Z</time>
      </trkpt>
      <trkpt lat="43.95064" lon="1.93056">
        <ele>177</ele>
        <time>2011-08-17T07:50:41Z</time>
      </trkpt>
      <trkpt lat="43.95059" lon="1.93054">
        <ele>177</ele>
        <time>2011-08-17T07:50:42Z</time>
      </trkpt>
      <trkpt lat="43.95053" lon="1.93053">
        <ele>177</ele>
        <time>2011-08-17T07:50:43Z</time>
      </trkpt>
      <trkpt lat="43.95048" lon="1.93052">
        <ele>177</ele>
        <time>2011-08-17T07:50:44Z</time>
      </trkpt>
      <trkpt lat="43.95043" lon="1.93051">
        <ele>177</ele>
        <time>2011-08-17T07:50:45Z</time>
      </trkpt>
      <trkpt lat="43.95037" lon="1.93051">
        <ele>177</ele>
        <time>2011-08-17T07:50:46Z</time>
      </trkpt>
      <trkpt lat="43.95032" lon="1.9305">
        <ele>177</ele>
        <time>2011-08-17T07:50:47Z</time>
      </trkpt>
      <trkpt lat="43.95026" lon="1.93049">
        <ele>177</ele>
        <time>2011-08-17T07:50:48Z</time>
      </trkpt>
      <trkpt lat="43.95021" lon="1.93048">
        <ele>177</ele>
        <time>2011-08-17T07:50:49Z</time>
      </trkpt>
      <trkpt lat="43.95015" lon="1.93047">
        <ele>177</ele>
        <time>2011-08-17T07:50:50Z</time>
      </trkpt>
      <trkpt lat="43.9501" lon="1.93047">
        <ele>177</ele>
        <time>2011-08-17T07:50:51Z</time>
      </trkpt>
      <trkpt lat="43.95005" lon="1.93046">
        <ele>177</ele>
        <time>2011-08-17T07:50:52Z</time>
      </trkpt>
      <trkpt lat="43.94999" lon="1.93046">
        <ele>177</ele>
        <time>2011-08-17T07:50:53Z</time>
      </trkpt>
      <trkpt lat="43.94994" lon="1.93046">
        <ele>177</ele>
        <time>2011-08-17T07:50:54Z</time>
      </trkpt>
      <trkpt lat="43.94989" lon="1.93046">
        <ele>177</ele>
        <time>2011-08-17T07:50:55Z</time>
      </trkpt>
      <trkpt lat="43.94984" lon="1.93046">
        <ele>177</ele>
        <time>2011-08-17T07:50:56Z</time>
      </trkpt>
      <trkpt lat="43.94978" lon="1.93046">
        <ele>177</ele>
        <time>2011-08-17T07:50:57Z</time>
      </trkpt>
      <trkpt lat="43.94973" lon="1.93046">
        <ele>177</ele>
        <time>2011-08-17T07:50:58Z</time>
      </trkpt>
      <trkpt lat="43.94968" lon="1.93046">
        <ele>177</ele>
        <time>2011-08-17T07:50:59Z</time>
      </trkpt>
      <trkpt lat="43.94963" lon="1.93046">
        <ele>177</ele>
        <time>2011-08-17T07:51:00Z</time>
      </trkpt>
      <trkpt lat="43.94957" lon="1.93046">
        <ele>177</ele>
        <time>2011-08-17T07:51:01Z</time>
      </trkpt>
      <trkpt lat="43.94952" lon="1.93046">
        <ele>177</ele>
        <time>2011-08-17T07:51:02Z</time>
      </trkpt>
      <trkpt lat="43.94946" lon="1.93047">
        <ele>177</ele>
        <time>2011-08-17T07:51:03Z</time>
      </trkpt>
      <trkpt lat="43.9494" lon="1.93047">
        <ele>177</ele>
        <time>2011-08-17T07:51:04Z</time>
      </trkpt>
      <trkpt lat="43.94934" lon="1.93047">
        <ele>177</ele>
        <time>2011-08-17T07:51:05Z</time>
      </trkpt>
      <trkpt lat="43.94928" lon="1.93047">
        <ele>177</ele>
        <time>2011-08-17T07:51:06Z</time>
      </trkpt>
      <trkpt lat="43.94921" lon="1.93048">
        <ele>177</ele>
        <time>2011-08-17T07:51:07Z</time>
      </trkpt>
      <trkpt lat="43.94915" lon="1.93048">
        <ele>177</ele>
        <time>2011-08-17T07:51:08Z</time>
      </trkpt>
      <trkpt lat="43.94907" lon="1.93049">
        <ele>177</ele>
        <time>2011-08-17T07:51:09Z</time>
      </trkpt>
      <trkpt lat="43.949" lon="1.9305">
        <ele>177</ele>
        <time>2011-08-17T07:51:10Z</time>
      </trkpt>
      <trkpt lat="43.94892" lon="1.93051">
        <ele>177</ele>
        <time>2011-08-17T07:51:11Z</time>
      </trkpt>
      <trkpt lat="43.94884" lon="1.93051">
        <ele>176</ele>
        <time>2011-08-17T07:51:12Z</time>
      </trkpt>
      <trkpt lat="43.94876" lon="1.93052">
        <ele>176</ele>
        <time>2011-08-17T07:51:13Z</time>
      </trkpt>
      <trkpt lat="43.94868" lon="1.93054">
        <ele>175</ele>
        <time>2011-08-17T07:51:14Z</time>
      </trkpt>
      <trkpt lat="43.94861" lon="1.93056">
        <ele>175</ele>
        <time>2011-08-17T07:51:15Z</time>
      </trkpt>
      <trkpt lat="43.94853" lon="1.9306">
        <ele>175</ele>
        <time>2011-08-17T07:51:16Z</time>
      </trkpt>
      <trkpt lat="43.94845" lon="1.93063">
        <ele>175</ele>
        <time>2011-08-17T07:51:17Z</time>
      </trkpt>
      <trkpt lat="43.94838" lon="1.93067">
        <ele>175</ele>
        <time>2011-08-17T07:51:18Z</time>
      </trkpt>
      <trkpt lat="43.94832" lon="1.93071">
        <ele>175</ele>
        <time>2011-08-17T07:51:19Z</time>
      </trkpt>
      <trkpt lat="43.94826" lon="1.93076">
        <ele>175</ele>
        <time>2011-08-17T07:51:20Z</time>
      </trkpt>
      <trkpt lat="43.9482" lon="1.9308">
        <ele>175</ele>
        <time>2011-08-17T07:51:21Z</time>
      </trkpt>
      <trkpt lat="43.94815" lon="1.93083">
        <ele>175</ele>
        <time>2011-08-17T07:51:22Z</time>
      </trkpt>
      <trkpt lat="43.94811" lon="1.93086">
        <ele>175</ele>
        <time>2011-08-17T07:51:23Z</time>
      </trkpt>
      <trkpt lat="43.94807" lon="1.93088">
        <ele>175</ele>
        <time>2011-08-17T07:51:24Z</time>
      </trkpt>
      <trkpt lat="43.94803" lon="1.93091">
        <ele>175</ele>
        <time>2011-08-17T07:51:25Z</time>
      </trkpt>
      <trkpt lat="43.948" lon="1.93093">
        <ele>175</ele>
        <time>2011-08-17T07:51:26Z</time>
      </trkpt>
      <trkpt lat="43.94796" lon="1.93094">
        <ele>175</ele>
        <time>2011-08-17T07:51:27Z</time>
      </trkpt>
      <trkpt lat="43.94794" lon="1.93096">
        <ele>175</ele>
        <time>2011-08-17T07:51:28Z</time>
      </trkpt>
      <trkpt lat="43.94791" lon="1.93098">
        <ele>175</ele>
        <time>2011-08-17T07:51:29Z</time>
      </trkpt>
      <trkpt lat="43.94788" lon="1.93099">
        <ele>175</ele>
        <time>2011-08-17T07:51:30Z</time>
      </trkpt>
      <trkpt lat="43.94784" lon="1.931">
        <ele>175</ele>
        <time>2011-08-17T07:51:31Z</time>
      </trkpt>
      <trkpt lat="43.94781" lon="1.93102">
        <ele>175</ele>
        <time>2011-08-17T07:51:32Z</time>
      </trkpt>
      <trkpt lat="43.94778" lon="1.93103">
        <ele>175</ele>
        <time>2011-08-17T07:51:33Z</time>
      </trkpt>
      <trkpt lat="43.94774" lon="1.93104">
        <ele>175</ele>
        <time>2011-08-17T07:51:34Z</time>
      </trkpt>
      <trkpt lat="43.94771" lon="1.93105">
        <ele>175</ele>
        <time>2011-08-17T07:51:35Z</time>
      </trkpt>
      <trkpt lat="43.94767" lon="1.93105">
        <ele>175</ele>
        <time>2011-08-17T07:51:36Z</time>
      </trkpt>
      <trkpt lat="43.94764" lon="1.93105">
        <ele>175</ele>
        <time>2011-08-17T07:51:37Z</time>
      </trkpt>
      <trkpt lat="43.94761" lon="1.93104">
        <ele>175</ele>
        <time>2011-08-17T07:51:38Z</time>
      </trkpt>
      <trkpt lat="43.94757" lon="1.93103">
        <ele>175</ele>
        <time>2011-08-17T07:51:39Z</time>
      </trkpt>
      <trkpt lat="43.94754" lon="1.93101">
        <ele>175</ele>
        <time>2011-08-17T07:51:40Z</time>
      </trkpt>
      <trkpt lat="43.94751" lon="1.93099">
        <ele>175</ele>
        <time>2011-08-17T07:51:41Z</time>
      </trkpt>
      <trkpt lat="43.94747" lon="1.93097">
        <ele>175</ele>
        <time>2011-08-17T07:51:42Z</time>
      </trkpt>
      <trkpt lat="43.94744" lon="1.93095">
        <ele>175</ele>
        <time>2011-08-17T07:51:43Z</time>
      </trkpt>
      <trkpt lat="43.94741" lon="1.93092">
        <ele>175</ele>
        <time>2011-08-17T07:51:44Z</time>
      </trkpt>
      <trkpt lat="43.94739" lon="1.9309">
        <ele>175</ele>
        <time>2011-08-17T07:51:45Z</time>
      </trkpt>
      <trkpt lat="43.94737" lon="1.93089">
        <ele>175</ele>
        <time>2011-08-17T07:51:46Z</time>
      </trkpt>
      <trkpt lat="43.94735" lon="1.93088">
        <ele>175</ele>
        <time>2011-08-17T07:51:47Z</time>
      </trkpt>
      <trkpt lat="43.94733" lon="1.93087">
        <ele>175</ele>
        <time>2011-08-17T07:51:48Z</time>
      </trkpt>
      <trkpt lat="43.94731" lon="1.93086">
        <ele>175</ele>
        <time>2011-08-17T07:51:49Z</time>
      </trkpt>
      <trkpt lat="43.94729" lon="1.93084">
        <ele>175</ele>
        <time>2011-08-17T07:51:50Z</time>
      </trkpt>
      <trkpt lat="43.94727" lon="1.93083">
        <ele>175</ele>
        <time>2011-08-17T07:51:51Z</time>
      </trkpt>
      <trkpt lat="43.94725" lon="1.93081">
        <ele>175</ele>
        <time>2011-08-17T07:51:52Z</time>
      </trkpt>
      <trkpt lat="43.94722" lon="1.93081">
        <ele>175</ele>
        <time>2011-08-17T07:51:53Z</time>
      </trkpt>
      <trkpt lat="43.94719" lon="1.93081">
        <ele>175</ele>
        <time>2011-08-17T07:51:54Z</time>
      </trkpt>
      <trkpt lat="43.94716" lon="1.93082">
        <ele>175</ele>
        <time>2011-08-17T07:51:55Z</time>
      </trkpt>
      <trkpt lat="43.94712" lon="1.93082">
        <ele>175</ele>
        <time>2011-08-17T07:51:56Z</time>
      </trkpt>
      <trkpt lat="43.94709" lon="1.93083">
        <ele>175</ele>
        <time>2011-08-17T07:51:57Z</time>
      </trkpt>
      <trkpt lat="43.94705" lon="1.93084">
        <ele>175</ele>
        <time>2011-08-17T07:51:58Z</time>
      </trkpt>
      <trkpt lat="43.94701" lon="1.93086">
        <ele>175</ele>
        <time>2011-08-17T07:51:59Z</time>
      </trkpt>
      <trkpt lat="43.94697" lon="1.93088">
        <ele>175</ele>
        <time>2011-08-17T07:52:00Z</time>
      </trkpt>
      <trkpt lat="43.94693" lon="1.93091">
        <ele>175</ele>
        <time>2011-08-17T07:52:01Z</time>
      </trkpt>
      <trkpt lat="43.94688" lon="1.93094">
        <ele>175</ele>
        <time>2011-08-17T07:52:02Z</time>
      </trkpt>
      <trkpt lat="43.94683" lon="1.93097">
        <ele>175</ele>
        <time>2011-08-17T07:52:03Z</time>
      </trkpt>
      <trkpt lat="43.94679" lon="1.931">
        <ele>175</ele>
        <time>2011-08-17T07:52:04Z</time>
      </trkpt>
      <trkpt lat="43.94674" lon="1.93104">
        <ele>175</ele>
        <time>2011-08-17T07:52:05Z</time>
      </trkpt>
      <trkpt lat="43.94669" lon="1.93106">
        <ele>175</ele>
        <time>2011-08-17T07:52:06Z</time>
      </trkpt>
      <trkpt lat="43.94663" lon="1.9311">
        <ele>175</ele>
        <time>2011-08-17T07:52:07Z</time>
      </trkpt>
      <trkpt lat="43.94658" lon="1.93113">
        <ele>175</ele>
        <time>2011-08-17T07:52:08Z</time>
      </trkpt>
      <trkpt lat="43.94653" lon="1.93117">
        <ele>175</ele>
        <time>2011-08-17T07:52:09Z</time>
      </trkpt>
      <trkpt lat="43.94647" lon="1.9312">
        <ele>175</ele>
        <time>2011-08-17T07:52:10Z</time>
      </trkpt>
      <trkpt lat="43.94642" lon="1.93123">
        <ele>175</ele>
        <time>2011-08-17T07:52:11Z</time>
      </trkpt>
      <trkpt lat="43.94637" lon="1.93127">
        <ele>175</ele>
        <time>2011-08-17T07:52:12Z</time>
      </trkpt>
      <trkpt lat="43.94631" lon="1.93131">
        <ele>175</ele>
        <time>2011-08-17T07:52:13Z</time>
      </trkpt>
      <trkpt lat="43.94626" lon="1.93134">
        <ele>175</ele>
        <time>2011-08-17T07:52:14Z</time>
      </trkpt>
      <trkpt lat="43.94621" lon="1.93138">
        <ele>175</ele>
        <time>2011-08-17T07:52:15Z</time>
      </trkpt>
      <trkpt lat="43.94616" lon="1.93141">
        <ele>175</ele>
        <time>2011-08-17T07:52:16Z</time>
      </trkpt>
      <trkpt lat="43.94611" lon="1.93145">
        <ele>175</ele>
        <time>2011-08-17T07:52:17Z</time>
      </trkpt>
      <trkpt lat="43.94606" lon="1.93147">
        <ele>175</ele>
        <time>2011-08-17T07:52:18Z</time>
      </trkpt>
      <trkpt lat="43.94601" lon="1.93149">
        <ele>175</ele>
        <time>2011-08-17T07:52:19Z</time>
      </trkpt>
      <trkpt lat="43.94596" lon="1.9315">
        <ele>175</ele>
        <time>2011-08-17T07:52:20Z</time>
      </trkpt>
      <trkpt lat="43.94591" lon="1.93151">
        <ele>175</ele>
        <time>2011-08-17T07:52:21Z</time>
      </trkpt>
      <trkpt lat="43.94587" lon="1.93151">
        <ele>175</ele>
        <time>2011-08-17T07:52:22Z</time>
      </trkpt>
      <trkpt lat="43.94583" lon="1.93151">
        <ele>175</ele>
        <time>2011-08-17T07:52:23Z</time>
      </trkpt>
      <trkpt lat="43.94579" lon="1.93151">
        <ele>175</ele>
        <time>2011-08-17T07:52:24Z</time>
      </trkpt>
      <trkpt lat="43.94576" lon="1.93151">
        <ele>175</ele>
        <time>2011-08-17T07:52:25Z</time>
      </trkpt>
      <trkpt lat="43.94573" lon="1.9315">
        <ele>175</ele>
        <time>2011-08-17T07:52:26Z</time>
      </trkpt>
      <trkpt lat="43.9457" lon="1.9315">
        <ele>175</ele>
        <time>2011-08-17T07:52:27Z</time>
      </trkpt>
      <trkpt lat="43.94567" lon="1.9315">
        <ele>175</ele>
        <time>2011-08-17T07:52:28Z</time>
      </trkpt>
      <trkpt lat="43.94565" lon="1.93149">
        <ele>175</ele>
        <time>2011-08-17T07:52:29Z</time>
      </trkpt>
      <trkpt lat="43.94563" lon="1.93149">
        <ele>175</ele>
        <time>2011-08-17T07:52:30Z</time>
      </trkpt>
      <trkpt lat="43.9456" lon="1.9315">
        <ele>175</ele>
        <time>2011-08-17T07:52:31Z</time>
      </trkpt>
      <trkpt lat="43.94558" lon="1.9315">
        <ele>175</ele>
        <time>2011-08-17T07:52:32Z</time>
      </trkpt>
      <trkpt lat="43.94555" lon="1.9315">
        <ele>175</ele>
        <time>2011-08-17T07:52:33Z</time>
      </trkpt>
      <trkpt lat="43.94552" lon="1.93151">
        <ele>175</ele>
        <time>2011-08-17T07:52:34Z</time>
      </trkpt>
      <trkpt lat="43.9455" lon="1.93151">
        <ele>175</ele>
        <time>2011-08-17T07:52:35Z</time>
      </trkpt>
      <trkpt lat="43.94547" lon="1.93153">
        <ele>175</ele>
        <time>2011-08-17T07:52:36Z</time>
      </trkpt>
      <trkpt lat="43.94545" lon="1.93154">
        <ele>175</ele>
        <time>2011-08-17T07:52:37Z</time>
      </trkpt>
      <trkpt lat="43.94542" lon="1.93155">
        <ele>175</ele>
        <time>2011-08-17T07:52:38Z</time>
      </trkpt>
      <trkpt lat="43.9454" lon="1.93157">
        <ele>175</ele>
        <time>2011-08-17T07:52:39Z</time>
      </trkpt>
      <trkpt lat="43.94538" lon="1.93158">
        <ele>175</ele>
        <time>2011-08-17T07:52:40Z</time>
      </trkpt>
      <trkpt lat="43.94535" lon="1.93159">
        <ele>175</ele>
        <time>2011-08-17T07:52:41Z</time>
      </trkpt>
      <trkpt lat="43.94533" lon="1.93161">
        <ele>175</ele>
        <time>2011-08-17T07:52:42Z</time>
      </trkpt>
      <trkpt lat="43.94531" lon="1.93163">
        <ele>175</ele>
        <time>2011-08-17T07:52:43Z</time>
      </trkpt>
      <trkpt lat="43.94528" lon="1.93165">
        <ele>175</ele>
        <time>2011-08-17T07:52:44Z</time>
      </trkpt>
      <trkpt lat="43.94526" lon="1.93166">
        <ele>175</ele>
        <time>2011-08-17T07:52:45Z</time>
      </trkpt>
      <trkpt lat="43.94524" lon="1.93167">
        <ele>175</ele>
        <time>2011-08-17T07:52:46Z</time>
      </trkpt>
      <trkpt lat="43.94522" lon="1.93169">
        <ele>175</ele>
        <time>2011-08-17T07:52:47Z</time>
      </trkpt>
      <trkpt lat="43.94519" lon="1.9317">
        <ele>175</ele>
        <time>2011-08-17T07:52:48Z</time>
      </trkpt>
      <trkpt lat="43.94517" lon="1.93172">
        <ele>175</ele>
        <time>2011-08-17T07:52:49Z</time>
      </trkpt>
      <trkpt lat="43.94515" lon="1.93174">
        <ele>175</ele>
        <time>2011-08-17T07:52:50Z</time>
      </trkpt>
      <trkpt lat="43.94513" lon="1.93176">
        <ele>175</ele>
        <time>2011-08-17T07:52:51Z</time>
      </trkpt>
      <trkpt lat="43.9451" lon="1.93178">
        <ele>175</ele>
        <time>2011-08-17T07:52:52Z</time>
      </trkpt>
      <trkpt lat="43.94508" lon="1.9318">
        <ele>175</ele>
        <time>2011-08-17T07:52:53Z</time>
      </trkpt>
      <trkpt lat="43.94505" lon="1.93182">
        <ele>175</ele>
        <time>2011-08-17T07:52:54Z</time>
      </trkpt>
      <trkpt lat="43.94502" lon="1.93184">
        <ele>175</ele>
        <time>2011-08-17T07:52:55Z</time>
      </trkpt>
      <trkpt lat="43.945" lon="1.93186">
        <ele>175</ele>
        <time>2011-08-17T07:52:56Z</time>
      </trkpt>
      <trkpt lat="43.94497" lon="1.93187">
        <ele>175</ele>
        <time>2011-08-17T07:52:57Z</time>
      </trkpt>
      <trkpt lat="43.94494" lon="1.93189">
        <ele>175</ele>
        <time>2011-08-17T07:52:58Z</time>
      </trkpt>
      <trkpt lat="43.94491" lon="1.9319">
        <ele>175</ele>
        <time>2011-08-17T07:52:59Z</time>
      </trkpt>
      <trkpt lat="43.94489" lon="1.93189">
        <ele>175</ele>
        <time>2011-08-17T07:53:00Z</time>
      </trkpt>
      <trkpt lat="43.94486" lon="1.93187">
        <ele>175</ele>
        <time>2011-08-17T07:53:01Z</time>
      </trkpt>
      <trkpt lat="43.94484" lon="1.93184">
        <ele>175</ele>
        <time>2011-08-17T07:53:02Z</time>
      </trkpt>
      <trkpt lat="43.94482" lon="1.93181">
        <ele>175</ele>
        <time>2011-08-17T07:53:03Z</time>
      </trkpt>
      <trkpt lat="43.9448" lon="1.93178">
        <ele>175</ele>
        <time>2011-08-17T07:53:04Z</time>
      </trkpt>
      <trkpt lat="43.94479" lon="1.93175">
        <ele>175</ele>
        <time>2011-08-17T07:53:05Z</time>
      </trkpt>
      <trkpt lat="43.94477" lon="1.93172">
        <ele>175</ele>
        <time>2011-08-17T07:53:06Z</time>
      </trkpt>
      <trkpt lat="43.94476" lon="1.93168">
        <ele>175</ele>
        <time>2011-08-17T07:53:07Z</time>
      </trkpt>
      <trkpt lat="43.94474" lon="1.93165">
        <ele>175</ele>
        <time>2011-08-17T07:53:08Z</time>
      </trkpt>
      <trkpt lat="43.94473" lon="1.93161">
        <ele>175</ele>
        <time>2011-08-17T07:53:09Z</time>
      </trkpt>
      <trkpt lat="43.94471" lon="1.93158">
        <ele>175</ele>
        <time>2011-08-17T07:53:10Z</time>
      </trkpt>
      <trkpt lat="43.9447" lon="1.93155">
        <ele>175</ele>
        <time>2011-08-17T07:53:11Z</time>
      </trkpt>
      <trkpt lat="43.94469" lon="1.93151">
        <ele>175</ele>
        <time>2011-08-17T07:53:12Z</time>
      </trkpt>
      <trkpt lat="43.94467" lon="1.93148">
        <ele>175</ele>
        <time>2011-08-17T07:53:13Z</time>
      </trkpt>
      <trkpt lat="43.94465" lon="1.93145">
        <ele>175</ele>
        <time>2011-08-17T07:53:14Z</time>
      </trkpt>
      <trkpt lat="43.94463" lon="1.93141">
        <ele>175</ele>
        <time>2011-08-17T07:53:15Z</time>
      </trkpt>
      <trkpt lat="43.94462" lon="1.93138">
        <ele>175</ele>
        <time>2011-08-17T07:53:16Z</time>
      </trkpt>
      <trkpt lat="43.9446" lon="1.93135">
        <ele>175</ele>
        <time>2011-08-17T07:53:17Z</time>
      </trkpt>
      <trkpt lat="43.94458" lon="1.93131">
        <ele>175</ele>
        <time>2011-08-17T07:53:18Z</time>
      </trkpt>
      <trkpt lat="43.94456" lon="1.93128">
        <ele>175</ele>
        <time>2011-08-17T07:53:19Z</time>
      </trkpt>
      <trkpt lat="43.94454" lon="1.93125">
        <ele>175</ele>
        <time>2011-08-17T07:53:20Z</time>
      </trkpt>
      <trkpt lat="43.94452" lon="1.93121">
        <ele>175</ele>
        <time>2011-08-17T07:53:21Z</time>
      </trkpt>
      <trkpt lat="43.9445" lon="1.93117">
        <ele>175</ele>
        <time>2011-08-17T07:53:22Z</time>
      </trkpt>
      <trkpt lat="43.94447" lon="1.93113">
        <ele>175</ele>
        <time>2011-08-17T07:53:23Z</time>
      </trkpt>
      <trkpt lat="43.94445" lon="1.9311">
        <ele>175</ele>
        <time>2011-08-17T07:53:24Z</time>
      </trkpt>
      <trkpt lat="43.94443" lon="1.93106">
        <ele>175</ele>
        <time>2011-08-17T07:53:25Z</time>
      </trkpt>
      <trkpt lat="43.94441" lon="1.93103">
        <ele>175</ele>
        <time>2011-08-17T07:53:26Z</time>
      </trkpt>
      <trkpt lat="43.94439" lon="1.93101">
        <ele>175</ele>
        <time>2011-08-17T07:53:27Z</time>
      </trkpt>
      <trkpt lat="43.94438" lon="1.93098">
        <ele>175</ele>
        <time>2011-08-17T07:53:28Z</time>
      </trkpt>
      <trkpt lat="43.94436" lon="1.93096">
        <ele>175</ele>
        <time>2011-08-17T07:53:29Z</time>
      </trkpt>
      <trkpt lat="43.94434" lon="1.93093">
        <ele>175</ele>
        <time>2011-08-17T07:53:30Z</time>
      </trkpt>
      <trkpt lat="43.94432" lon="1.9309">
        <ele>175</ele>
        <time>2011-08-17T07:53:31Z</time>
      </trkpt>
      <trkpt lat="43.94431" lon="1.93088">
        <ele>175</ele>
        <time>2011-08-17T07:53:32Z</time>
      </trkpt>
      <trkpt lat="43.94429" lon="1.93086">
        <ele>175</ele>
        <time>2011-08-17T07:53:33Z</time>
      </trkpt>
      <trkpt lat="43.94428" lon="1.93084">
        <ele>175</ele>
        <time>2011-08-17T07:53:34Z</time>
      </trkpt>
      <trkpt lat="43.94427" lon="1.93081">
        <ele>175</ele>
        <time>2011-08-17T07:53:35Z</time>
      </trkpt>
      <trkpt lat="43.94425" lon="1.93079">
        <ele>175</ele>
        <time>2011-08-17T07:53:36Z</time>
      </trkpt>
      <trkpt lat="43.94424" lon="1.93078">
        <ele>175</ele>
        <time>2011-08-17T07:53:37Z</time>
      </trkpt>
      <trkpt lat="43.94423" lon="1.93076">
        <ele>175</ele>
        <time>2011-08-17T07:53:38Z</time>
      </trkpt>
      <trkpt lat="43.94421" lon="1.93073">
        <ele>175</ele>
        <time>2011-08-17T07:53:39Z</time>
      </trkpt>
      <trkpt lat="43.9442" lon="1.93072">
        <ele>175</ele>
        <time>2011-08-17T07:53:40Z</time>
      </trkpt>
      <trkpt lat="43.94418" lon="1.9307">
        <ele>175</ele>
        <time>2011-08-17T07:53:41Z</time>
      </trkpt>
      <trkpt lat="43.94417" lon="1.93067">
        <ele>176</ele>
        <time>2011-08-17T07:53:42Z</time>
      </trkpt>
      <trkpt lat="43.94416" lon="1.93065">
        <ele>176</ele>
        <time>2011-08-17T07:53:43Z</time>
      </trkpt>
      <trkpt lat="43.94415" lon="1.93062">
        <ele>176</ele>
        <time>2011-08-17T07:53:44Z</time>
      </trkpt>
      <trkpt lat="43.94413" lon="1.9306">
        <ele>176</ele>
        <time>2011-08-17T07:53:45Z</time>
      </trkpt>
      <trkpt lat="43.94412" lon="1.93058">
        <ele>176</ele>
        <time>2011-08-17T07:53:46Z</time>
      </trkpt>
      <trkpt lat="43.94411" lon="1.93056">
        <ele>177</ele>
        <time>2011-08-17T07:53:47Z</time>
      </trkpt>
      <trkpt lat="43.9441" lon="1.93053">
        <ele>177</ele>
        <time>2011-08-17T07:53:48Z</time>
      </trkpt>
      <trkpt lat="43.94409" lon="1.93051">
        <ele>177</ele>
        <time>2011-08-17T07:53:49Z</time>
      </trkpt>
      <trkpt lat="43.94408" lon="1.93048">
        <ele>177</ele>
        <time>2011-08-17T07:53:50Z</time>
      </trkpt>
      <trkpt lat="43.94407" lon="1.93046">
        <ele>177</ele>
        <time>2011-08-17T07:53:51Z</time>
      </trkpt>
      <trkpt lat="43.94407" lon="1.93043">
        <ele>177</ele>
        <time>2011-08-17T07:53:52Z</time>
      </trkpt>
      <trkpt lat="43.94406" lon="1.93041">
        <ele>178</ele>
        <time>2011-08-17T07:53:53Z</time>
      </trkpt>
      <trkpt lat="43.94406" lon="1.93038">
        <ele>178</ele>
        <time>2011-08-17T07:53:54Z</time>
      </trkpt>
      <trkpt lat="43.94405" lon="1.93036">
        <ele>178</ele>
        <time>2011-08-17T07:53:55Z</time>
      </trkpt>
      <trkpt lat="43.94405" lon="1.93033">
        <ele>178</ele>
        <time>2011-08-17T07:53:56Z</time>
      </trkpt>
      <trkpt lat="43.94405" lon="1.93031">
        <ele>179</ele>
        <time>2011-08-17T07:53:57Z</time>
      </trkpt>
      <trkpt lat="43.94405" lon="1.93028">
        <ele>179</ele>
        <time>2011-08-17T07:53:58Z</time>
      </trkpt>
      <trkpt lat="43.94405" lon="1.93025">
        <ele>179</ele>
        <time>2011-08-17T07:53:59Z</time>
      </trkpt>
      <trkpt lat="43.94405" lon="1.93023">
        <ele>180</ele>
        <time>2011-08-17T07:54:00Z</time>
      </trkpt>
      <trkpt lat="43.94406" lon="1.9302">
        <ele>180</ele>
        <time>2011-08-17T07:54:01Z</time>
      </trkpt>
      <trkpt lat="43.94407" lon="1.93017">
        <ele>180</ele>
        <time>2011-08-17T07:54:02Z</time>
      </trkpt>
      <trkpt lat="43.94407" lon="1.93015">
        <ele>181</ele>
        <time>2011-08-17T07:54:03Z</time>
      </trkpt>
      <trkpt lat="43.94408" lon="1.93012">
        <ele>181</ele>
        <time>2011-08-17T07:54:04Z</time>
      </trkpt>
      <trkpt lat="43.94408" lon="1.93009">
        <ele>181</ele>
        <time>2011-08-17T07:54:05Z</time>
      </trkpt>
      <trkpt lat="43.94408" lon="1.93006">
        <ele>182</ele>
        <time>2011-08-17T07:54:06Z</time>
      </trkpt>
      <trkpt lat="43.94409" lon="1.93003">
        <ele>182</ele>
        <time>2011-08-17T07:54:07Z</time>
      </trkpt>
      <trkpt lat="43.9441" lon="1.93001">
        <ele>182</ele>
        <time>2011-08-17T07:54:08Z</time>
      </trkpt>
      <trkpt lat="43.9441" lon="1.92999">
        <ele>182</ele>
        <time>2011-08-17T07:54:09Z</time>
      </trkpt>
      <trkpt lat="43.94411" lon="1.92996">
        <ele>183</ele>
        <time>2011-08-17T07:54:10Z</time>
      </trkpt>
      <trkpt lat="43.94412" lon="1.92994">
        <ele>183</ele>
        <time>2011-08-17T07:54:11Z</time>
      </trkpt>
      <trkpt lat="43.94413" lon="1.92991">
        <ele>183</ele>
        <time>2011-08-17T07:54:12Z</time>
      </trkpt>
      <trkpt lat="43.94413" lon="1.92989">
        <ele>183</ele>
        <time>2011-08-17T07:54:13Z</time>
      </trkpt>
      <trkpt lat="43.94414" lon="1.92986">
        <ele>183</ele>
        <time>2011-08-17T07:54:14Z</time>
      </trkpt>
      <trkpt lat="43.94415" lon="1.92983">
        <ele>183</ele>
        <time>2011-08-17T07:54:15Z</time>
      </trkpt>
      <trkpt lat="43.94416" lon="1.92981">
        <ele>183</ele>
        <time>2011-08-17T07:54:16Z</time>
      </trkpt>
      <trkpt lat="43.94416" lon="1.92978">
        <ele>184</ele>
        <time>2011-08-17T07:54:17Z</time>
      </trkpt>
      <trkpt lat="43.94417" lon="1.92976">
        <ele>184</ele>
        <time>2011-08-17T07:54:18Z</time>
      </trkpt>
      <trkpt lat="43.94418" lon="1.92973">
        <ele>184</ele>
        <time>2011-08-17T07:54:19Z</time>
      </trkpt>
      <trkpt lat="43.94418" lon="1.9297">
        <ele>185</ele>
        <time>2011-08-17T07:54:20Z</time>
      </trkpt>
      <trkpt lat="43.94419" lon="1.92967">
        <ele>185</ele>
        <time>2011-08-17T07:54:21Z</time>
      </trkpt>
      <trkpt lat="43.9442" lon="1.92965">
        <ele>185</ele>
        <time>2011-08-17T07:54:22Z</time>
      </trkpt>
      <trkpt lat="43.94421" lon="1.92963">
        <ele>186</ele>
        <time>2011-08-17T07:54:23Z</time>
      </trkpt>
      <trkpt lat="43.94421" lon="1.9296">
        <ele>186</ele>
        <time>2011-08-17T07:54:24Z</time>
      </trkpt>
      <trkpt lat="43.94422" lon="1.92957">
        <ele>187</ele>
        <time>2011-08-17T07:54:25Z</time>
      </trkpt>
      <trkpt lat="43.94423" lon="1.92955">
        <ele>187</ele>
        <time>2011-08-17T07:54:26Z</time>
      </trkpt>
      <trkpt lat="43.94424" lon="1.92952">
        <ele>187</ele>
        <time>2011-08-17T07:54:27Z</time>
      </trkpt>
      <trkpt lat="43.94425" lon="1.92949">
        <ele>188</ele>
        <time>2011-08-17T07:54:28Z</time>
      </trkpt>
      <trkpt lat="43.94426" lon="1.92947">
        <ele>188</ele>
        <time>2011-08-17T07:54:29Z</time>
      </trkpt>
      <trkpt lat="43.94426" lon="1.92944">
        <ele>189</ele>
        <time>2011-08-17T07:54:30Z</time>
      </trkpt>
      <trkpt lat="43.94427" lon="1.92941">
        <ele>189</ele>
        <time>2011-08-17T07:54:31Z</time>
      </trkpt>
      <trkpt lat="43.94428" lon="1.92938">
        <ele>189</ele>
        <time>2011-08-17T07:54:32Z</time>
      </trkpt>
      <trkpt lat="43.94429" lon="1.92936">
        <ele>190</ele>
        <time>2011-08-17T07:54:33Z</time>
      </trkpt>
      <trkpt lat="43.9443" lon="1.92933">
        <ele>190</ele>
        <time>2011-08-17T07:54:34Z</time>
      </trkpt>
      <trkpt lat="43.94431" lon="1.9293">
        <ele>190</ele>
        <time>2011-08-17T07:54:35Z</time>
      </trkpt>
      <trkpt lat="43.94432" lon="1.92928">
        <ele>191</ele>
        <time>2011-08-17T07:54:36Z</time>
      </trkpt>
      <trkpt lat="43.94432" lon="1.92925">
        <ele>191</ele>
        <time>2011-08-17T07:54:37Z</time>
      </trkpt>
      <trkpt lat="43.94434" lon="1.92922">
        <ele>191</ele>
        <time>2011-08-17T07:54:38Z</time>
      </trkpt>
      <trkpt lat="43.94434" lon="1.9292">
        <ele>192</ele>
        <time>2011-08-17T07:54:39Z</time>
      </trkpt>
      <trkpt lat="43.94436" lon="1.92917">
        <ele>192</ele>
        <time>2011-08-17T07:54:40Z</time>
      </trkpt>
      <trkpt lat="43.94437" lon="1.92915">
        <ele>192</ele>
        <time>2011-08-17T07:54:41Z</time>
      </trkpt>
      <trkpt lat="43.94438" lon="1.92912">
        <ele>192</ele>
        <time>2011-08-17T07:54:42Z</time>
      </trkpt>
      <trkpt lat="43.94439" lon="1.9291">
        <ele>193</ele>
        <time>2011-08-17T07:54:43Z</time>
      </trkpt>
      <trkpt lat="43.94441" lon="1.92908">
        <ele>193</ele>
        <time>2011-08-17T07:54:44Z</time>
      </trkpt>
      <trkpt lat="43.94442" lon="1.92906">
        <ele>193</ele>
        <time>2011-08-17T07:54:45Z</time>
      </trkpt>
      <trkpt lat="43.94444" lon="1.92904">
        <ele>193</ele>
        <time>2011-08-17T07:54:46Z</time>
      </trkpt>
      <trkpt lat="43.94446" lon="1.92902">
        <ele>193</ele>
        <time>2011-08-17T07:54:47Z</time>
      </trkpt>
      <trkpt lat="43.94448" lon="1.92901">
        <ele>194</ele>
        <time>2011-08-17T07:54:48Z</time>
      </trkpt>
      <trkpt lat="43.9445" lon="1.92899">
        <ele>195</ele>
        <time>2011-08-17T07:54:49Z</time>
      </trkpt>
      <trkpt lat="43.94452" lon="1.92898">
        <ele>196</ele>
        <time>2011-08-17T07:54:50Z</time>
      </trkpt>
      <trkpt lat="43.94454" lon="1.92897">
        <ele>197</ele>
        <time>2011-08-17T07:54:51Z</time>
      </trkpt>
      <trkpt lat="43.94456" lon="1.92895">
        <ele>197</ele>
        <time>2011-08-17T07:54:52Z</time>
      </trkpt>
      <trkpt lat="43.94458" lon="1.92894">
        <ele>198</ele>
        <time>2011-08-17T07:54:53Z</time>
      </trkpt>
      <trkpt lat="43.9446" lon="1.92893">
        <ele>199</ele>
        <time>2011-08-17T07:54:54Z</time>
      </trkpt>
      <trkpt lat="43.94462" lon="1.92892">
        <ele>200</ele>
        <time>2011-08-17T07:54:55Z</time>
      </trkpt>
      <trkpt lat="43.94464" lon="1.92891">
        <ele>201</ele>
        <time>2011-08-17T07:54:56Z</time>
      </trkpt>
      <trkpt lat="43.94467" lon="1.92891">
        <ele>201</ele>
        <time>2011-08-17T07:54:57Z</time>
      </trkpt>
      <trkpt lat="43.94469" lon="1.9289">
        <ele>202</ele>
        <time>2011-08-17T07:54:58Z</time>
      </trkpt>
      <trkpt lat="43.94471" lon="1.92889">
        <ele>203</ele>
        <time>2011-08-17T07:54:59Z</time>
      </trkpt>
      <trkpt lat="43.94473" lon="1.92888">
        <ele>203</ele>
        <time>2011-08-17T07:55:00Z</time>
      </trkpt>
      <trkpt lat="43.94475" lon="1.92886">
        <ele>203</ele>
        <time>2011-08-17T07:55:01Z</time>
      </trkpt>
      <trkpt lat="43.94476" lon="1.92885">
        <ele>204</ele>
        <time>2011-08-17T07:55:02Z</time>
      </trkpt>
      <trkpt lat="43.94477" lon="1.92883">
        <ele>204</ele>
        <time>2011-08-17T07:55:03Z</time>
      </trkpt>
      <trkpt lat="43.94478" lon="1.9288">
        <ele>204</ele>
        <time>2011-08-17T07:55:04Z</time>
      </trkpt>
      <trkpt lat="43.94479" lon="1.92878">
        <ele>204</ele>
        <time>2011-08-17T07:55:05Z</time>
      </trkpt>
      <trkpt lat="43.9448" lon="1.92876">
        <ele>204</ele>
        <time>2011-08-17T07:55:06Z</time>
      </trkpt>
      <trkpt lat="43.94481" lon="1.92873">
        <ele>204</ele>
        <time>2011-08-17T07:55:07Z</time>
      </trkpt>
      <trkpt lat="43.94482" lon="1.9287">
        <ele>204</ele>
        <time>2011-08-17T07:55:08Z</time>
      </trkpt>
      <trkpt lat="43.94482" lon="1.92867">
        <ele>204</ele>
        <time>2011-08-17T07:55:09Z</time>
      </trkpt>
      <trkpt lat="43.94482" lon="1.92864">
        <ele>204</ele>
        <time>2011-08-17T07:55:10Z</time>
      </trkpt>
      <trkpt lat="43.94483" lon="1.92861">
        <ele>204</ele>
        <time>2011-08-17T07:55:11Z</time>
      </trkpt>
      <trkpt lat="43.94483" lon="1.92858">
        <ele>204</ele>
        <time>2011-08-17T07:55:12Z</time>
      </trkpt>
      <trkpt lat="43.94483" lon="1.92855">
        <ele>204</ele>
        <time>2011-08-17T07:55:13Z</time>
      </trkpt>
      <trkpt lat="43.94484" lon="1.92852">
        <ele>204</ele>
        <time>2011-08-17T07:55:14Z</time>
      </trkpt>
      <trkpt lat="43.94484" lon="1.92849">
        <ele>204</ele>
        <time>2011-08-17T07:55:15Z</time>
      </trkpt>
      <trkpt lat="43.94483" lon="1.92847">
        <ele>204</ele>
        <time>2011-08-17T07:55:16Z</time>
      </trkpt>
      <trkpt lat="43.94483" lon="1.92844">
        <ele>204</ele>
        <time>2011-08-17T07:55:17Z</time>
      </trkpt>
      <trkpt lat="43.94484" lon="1.92841">
        <ele>204</ele>
        <time>2011-08-17T07:55:18Z</time>
      </trkpt>
      <trkpt lat="43.94484" lon="1.92838">
        <ele>204</ele>
        <time>2011-08-17T07:55:19Z</time>
      </trkpt>
      <trkpt lat="43.94484" lon="1.92835">
        <ele>204</ele>
        <time>2011-08-17T07:55:20Z</time>
      </trkpt>
      <trkpt lat="43.94484" lon="1.92832">
        <ele>204</ele>
        <time>2011-08-17T07:55:21Z</time>
      </trkpt>
      <trkpt lat="43.94484" lon="1.92829">
        <ele>204</ele>
        <time>2011-08-17T07:55:22Z</time>
      </trkpt>
      <trkpt lat="43.94484" lon="1.92826">
        <ele>204</ele>
        <time>2011-08-17T07:55:23Z</time>
      </trkpt>
      <trkpt lat="43.94484" lon="1.92823">
        <ele>204</ele>
        <time>2011-08-17T07:55:24Z</time>
      </trkpt>
      <trkpt lat="43.94485" lon="1.9282">
        <ele>204</ele>
        <time>2011-08-17T07:55:25Z</time>
      </trkpt>
      <trkpt lat="43.94486" lon="1.92817">
        <ele>204</ele>
        <time>2011-08-17T07:55:26Z</time>
      </trkpt>
      <trkpt lat="43.94486" lon="1.92814">
        <ele>204</ele>
        <time>2011-08-17T07:55:27Z</time>
      </trkpt>
      <trkpt lat="43.94486" lon="1.92811">
        <ele>204</ele>
        <time>2011-08-17T07:55:28Z</time>
      </trkpt>
      <trkpt lat="43.94487" lon="1.92808">
        <ele>204</ele>
        <time>2011-08-17T07:55:29Z</time>
      </trkpt>
      <trkpt lat="43.94487" lon="1.92806">
        <ele>204</ele>
        <time>2011-08-17T07:55:30Z</time>
      </trkpt>
      <trkpt lat="43.94488" lon="1.92803">
        <ele>204</ele>
        <time>2011-08-17T07:55:31Z</time>
      </trkpt>
      <trkpt lat="43.94489" lon="1.92801">
        <ele>204</ele>
        <time>2011-08-17T07:55:32Z</time>
      </trkpt>
      <trkpt lat="43.94489" lon="1.92799">
        <ele>205</ele>
        <time>2011-08-17T07:55:33Z</time>
      </trkpt>
      <trkpt lat="43.9449" lon="1.92797">
        <ele>205</ele>
        <time>2011-08-17T07:55:34Z</time>
      </trkpt>
      <trkpt lat="43.9449" lon="1.92795">
        <ele>206</ele>
        <time>2011-08-17T07:55:35Z</time>
      </trkpt>
      <trkpt lat="43.94491" lon="1.92792">
        <ele>206</ele>
        <time>2011-08-17T07:55:36Z</time>
      </trkpt>
      <trkpt lat="43.94492" lon="1.9279">
        <ele>207</ele>
        <time>2011-08-17T07:55:37Z</time>
      </trkpt>
      <trkpt lat="43.94494" lon="1.92789">
        <ele>207</ele>
        <time>2011-08-17T07:55:38Z</time>
      </trkpt>
      <trkpt lat="43.94495" lon="1.92787">
        <ele>208</ele>
        <time>2011-08-17T07:55:39Z</time>
      </trkpt>
      <trkpt lat="43.94494" lon="1.92785">
        <ele>208</ele>
        <time>2011-08-17T07:55:40Z</time>
      </trkpt>
      <trkpt lat="43.94493" lon="1.92783">
        <ele>209</ele>
        <time>2011-08-17T07:55:42Z</time>
      </trkpt>
      <trkpt lat="43.94492" lon="1.92782">
        <ele>209</ele>
        <time>2011-08-17T07:55:44Z</time>
      </trkpt>
      <trkpt lat="43.94491" lon="1.9278">
        <ele>210</ele>
        <time>2011-08-17T07:55:46Z</time>
      </trkpt>
      <trkpt lat="43.94492" lon="1.92778">
        <ele>210</ele>
        <time>2011-08-17T07:55:48Z</time>
      </trkpt>
      <trkpt lat="43.94492" lon="1.92776">
        <ele>210</ele>
        <time>2011-08-17T07:55:49Z</time>
      </trkpt>
      <trkpt lat="43.94493" lon="1.92775">
        <ele>210</ele>
        <time>2011-08-17T07:55:50Z</time>
      </trkpt>
      <trkpt lat="43.94493" lon="1.92773">
        <ele>210</ele>
        <time>2011-08-17T07:55:51Z</time>
      </trkpt>
      <trkpt lat="43.94493" lon="1.9277">
        <ele>210</ele>
        <time>2011-08-17T07:55:53Z</time>
      </trkpt>
      <trkpt lat="43.94493" lon="1.92769">
        <ele>210</ele>
        <time>2011-08-17T07:55:54Z</time>
      </trkpt>
      <trkpt lat="43.94493" lon="1.92767">
        <ele>210</ele>
        <time>2011-08-17T07:55:55Z</time>
      </trkpt>
      <trkpt lat="43.94493" lon="1.92765">
        <ele>210</ele>
        <time>2011-08-17T07:55:56Z</time>
      </trkpt>
      <trkpt lat="43.94494" lon="1.92763">
        <ele>210</ele>
        <time>2011-08-17T07:55:57Z</time>
      </trkpt>
      <trkpt lat="43.94494" lon="1.92761">
        <ele>210</ele>
        <time>2011-08-17T07:55:58Z</time>
      </trkpt>
      <trkpt lat="43.94495" lon="1.9276">
        <ele>210</ele>
        <time>2011-08-17T07:55:59Z</time>
      </trkpt>
      <trkpt lat="43.94495" lon="1.92758">
        <ele>210</ele>
        <time>2011-08-17T07:56:00Z</time>
      </trkpt>
      <trkpt lat="43.94495" lon="1.92756">
        <ele>210</ele>
        <time>2011-08-17T07:56:01Z</time>
      </trkpt>
      <trkpt lat="43.94495" lon="1.92754">
        <ele>210</ele>
        <time>2011-08-17T07:56:02Z</time>
      </trkpt>
      <trkpt lat="43.94495" lon="1.92752">
        <ele>210</ele>
        <time>2011-08-17T07:56:03Z</time>
      </trkpt>
      <trkpt lat="43.94496" lon="1.9275">
        <ele>210</ele>
        <time>2011-08-17T07:56:04Z</time>
      </trkpt>
      <trkpt lat="43.94496" lon="1.92747">
        <ele>210</ele>
        <time>2011-08-17T07:56:05Z</time>
      </trkpt>
      <trkpt lat="43.94496" lon="1.92745">
        <ele>210</ele>
        <time>2011-08-17T07:56:06Z</time>
      </trkpt>
      <trkpt lat="43.94496" lon="1.92743">
        <ele>210</ele>
        <time>2011-08-17T07:56:07Z</time>
      </trkpt>
      <trkpt lat="43.94496" lon="1.92741">
        <ele>210</ele>
        <time>2011-08-17T07:56:08Z</time>
      </trkpt>
      <trkpt lat="43.94496" lon="1.92738">
        <ele>210</ele>
        <time>2011-08-17T07:56:09Z</time>
      </trkpt>
      <trkpt lat="43.94496" lon="1.92735">
        <ele>210</ele>
        <time>2011-08-17T07:56:10Z</time>
      </trkpt>
      <trkpt lat="43.94496" lon="1.92733">
        <ele>210</ele>
        <time>2011-08-17T07:56:11Z</time>
      </trkpt>
      <trkpt lat="43.94496" lon="1.9273">
        <ele>210</ele>
        <time>2011-08-17T07:56:12Z</time>
      </trkpt>
      <trkpt lat="43.94496" lon="1.92728">
        <ele>211</ele>
        <time>2011-08-17T07:56:13Z</time>
      </trkpt>
      <trkpt lat="43.94497" lon="1.92725">
        <ele>212</ele>
        <time>2011-08-17T07:56:14Z</time>
      </trkpt>
      <trkpt lat="43.94497" lon="1.92723">
        <ele>212</ele>
        <time>2011-08-17T07:56:15Z</time>
      </trkpt>
      <trkpt lat="43.94497" lon="1.9272">
        <ele>212</ele>
        <time>2011-08-17T07:56:16Z</time>
      </trkpt>
      <trkpt lat="43.94497" lon="1.92717">
        <ele>212</ele>
        <time>2011-08-17T07:56:17Z</time>
      </trkpt>
      <trkpt lat="43.94497" lon="1.92714">
        <ele>212</ele>
        <time>2011-08-17T07:56:18Z</time>
      </trkpt>
      <trkpt lat="43.94497" lon="1.92711">
        <ele>212</ele>
        <time>2011-08-17T07:56:19Z</time>
      </trkpt>
      <trkpt lat="43.94497" lon="1.92708">
        <ele>213</ele>
        <time>2011-08-17T07:56:20Z</time>
      </trkpt>
      <trkpt lat="43.94497" lon="1.92705">
        <ele>214</ele>
        <time>2011-08-17T07:56:21Z</time>
      </trkpt>
      <trkpt lat="43.94496" lon="1.92703">
        <ele>214</ele>
        <time>2011-08-17T07:56:22Z</time>
      </trkpt>
      <trkpt lat="43.94496" lon="1.927">
        <ele>215</ele>
        <time>2011-08-17T07:56:23Z</time>
      </trkpt>
      <trkpt lat="43.94495" lon="1.92696">
        <ele>216</ele>
        <time>2011-08-17T07:56:24Z</time>
      </trkpt>
      <trkpt lat="43.94495" lon="1.92693">
        <ele>216</ele>
        <time>2011-08-17T07:56:25Z</time>
      </trkpt>
      <trkpt lat="43.94495" lon="1.9269">
        <ele>216</ele>
        <time>2011-08-17T07:56:26Z</time>
      </trkpt>
      <trkpt lat="43.94495" lon="1.92688">
        <ele>217</ele>
        <time>2011-08-17T07:56:27Z</time>
      </trkpt>
      <trkpt lat="43.94495" lon="1.92685">
        <ele>217</ele>
        <time>2011-08-17T07:56:28Z</time>
      </trkpt>
      <trkpt lat="43.94494" lon="1.92683">
        <ele>217</ele>
        <time>2011-08-17T07:56:29Z</time>
      </trkpt>
      <trkpt lat="43.94494" lon="1.92681">
        <ele>217</ele>
        <time>2011-08-17T07:56:30Z</time>
      </trkpt>
      <trkpt lat="43.94493" lon="1.92679">
        <ele>217</ele>
        <time>2011-08-17T07:56:31Z</time>
      </trkpt>
      <trkpt lat="43.94493" lon="1.92677">
        <ele>217</ele>
        <time>2011-08-17T07:56:32Z</time>
      </trkpt>
      <trkpt lat="43.94493" lon="1.92675">
        <ele>217</ele>
        <time>2011-08-17T07:56:33Z</time>
      </trkpt>
      <trkpt lat="43.94492" lon="1.92673">
        <ele>218</ele>
        <time>2011-08-17T07:56:34Z</time>
      </trkpt>
      <trkpt lat="43.94492" lon="1.92671">
        <ele>218</ele>
        <time>2011-08-17T07:56:35Z</time>
      </trkpt>
      <trkpt lat="43.94492" lon="1.9267">
        <ele>219</ele>
        <time>2011-08-17T07:56:36Z</time>
      </trkpt>
      <trkpt lat="43.94492" lon="1.92667">
        <ele>219</ele>
        <time>2011-08-17T07:56:38Z</time>
      </trkpt>
      <trkpt lat="43.94491" lon="1.92665">
        <ele>220</ele>
        <time>2011-08-17T07:56:39Z</time>
      </trkpt>
      <trkpt lat="43.94491" lon="1.92663">
        <ele>220</ele>
        <time>2011-08-17T07:56:40Z</time>
      </trkpt>
      <trkpt lat="43.9449" lon="1.92661">
        <ele>220</ele>
        <time>2011-08-17T07:56:41Z</time>
      </trkpt>
      <trkpt lat="43.9449" lon="1.92659">
        <ele>220</ele>
        <time>2011-08-17T07:56:42Z</time>
      </trkpt>
      <trkpt lat="43.9449" lon="1.92658">
        <ele>221</ele>
        <time>2011-08-17T07:56:43Z</time>
      </trkpt>
      <trkpt lat="43.9449" lon="1.92656">
        <ele>221</ele>
        <time>2011-08-17T07:56:44Z</time>
      </trkpt>
      <trkpt lat="43.94489" lon="1.92654">
        <ele>221</ele>
        <time>2011-08-17T07:56:45Z</time>
      </trkpt>
      <trkpt lat="43.94489" lon="1.92652">
        <ele>221</ele>
        <time>2011-08-17T07:56:46Z</time>
      </trkpt>
      <trkpt lat="43.94489" lon="1.92649">
        <ele>221</ele>
        <time>2011-08-17T07:56:48Z</time>
      </trkpt>
      <trkpt lat="43.94489" lon="1.92648">
        <ele>221</ele>
        <time>2011-08-17T07:56:49Z</time>
      </trkpt>
      <trkpt lat="43.94489" lon="1.92645">
        <ele>221</ele>
        <time>2011-08-17T07:56:50Z</time>
      </trkpt>
      <trkpt lat="43.94489" lon="1.92642">
        <ele>221</ele>
        <time>2011-08-17T07:56:51Z</time>
      </trkpt>
      <trkpt lat="43.94489" lon="1.9264">
        <ele>221</ele>
        <time>2011-08-17T07:56:52Z</time>
      </trkpt>
      <trkpt lat="43.94489" lon="1.92639">
        <ele>221</ele>
        <time>2011-08-17T07:56:53Z</time>
      </trkpt>
      <trkpt lat="43.9449" lon="1.92636">
        <ele>221</ele>
        <time>2011-08-17T07:56:54Z</time>
      </trkpt>
      <trkpt lat="43.9449" lon="1.92634">
        <ele>221</ele>
        <time>2011-08-17T07:56:55Z</time>
      </trkpt>
      <trkpt lat="43.9449" lon="1.92632">
        <ele>221</ele>
        <time>2011-08-17T07:56:56Z</time>
      </trkpt>
      <trkpt lat="43.9449" lon="1.92629">
        <ele>221</ele>
        <time>2011-08-17T07:56:57Z</time>
      </trkpt>
      <trkpt lat="43.9449" lon="1.92627">
        <ele>221</ele>
        <time>2011-08-17T07:56:58Z</time>
      </trkpt>
      <trkpt lat="43.9449" lon="1.92625">
        <ele>221</ele>
        <time>2011-08-17T07:56:59Z</time>
      </trkpt>
      <trkpt lat="43.9449" lon="1.92622">
        <ele>221</ele>
        <time>2011-08-17T07:57:00Z</time>
      </trkpt>
      <trkpt lat="43.9449" lon="1.92621">
        <ele>221</ele>
        <time>2011-08-17T07:57:01Z</time>
      </trkpt>
      <trkpt lat="43.9449" lon="1.92619">
        <ele>221</ele>
        <time>2011-08-17T07:57:02Z</time>
      </trkpt>
      <trkpt lat="43.9449" lon="1.92617">
        <ele>221</ele>
        <time>2011-08-17T07:57:03Z</time>
      </trkpt>
      <trkpt lat="43.9449" lon="1.92615">
        <ele>221</ele>
        <time>2011-08-17T07:57:04Z</time>
      </trkpt>
      <trkpt lat="43.9449" lon="1.92613">
        <ele>221</ele>
        <time>2011-08-17T07:57:05Z</time>
      </trkpt>
      <trkpt lat="43.94489" lon="1.92611">
        <ele>221</ele>
        <time>2011-08-17T07:57:06Z</time>
      </trkpt>
      <trkpt lat="43.94489" lon="1.9261">
        <ele>221</ele>
        <time>2011-08-17T07:57:07Z</time>
      </trkpt>
      <trkpt lat="43.94488" lon="1.92607">
        <ele>221</ele>
        <time>2011-08-17T07:57:08Z</time>
      </trkpt>
      <trkpt lat="43.94487" lon="1.92605">
        <ele>221</ele>
        <time>2011-08-17T07:57:09Z</time>
      </trkpt>
      <trkpt lat="43.94487" lon="1.92603">
        <ele>221</ele>
        <time>2011-08-17T07:57:10Z</time>
      </trkpt>
      <trkpt lat="43.94487" lon="1.926">
        <ele>221</ele>
        <time>2011-08-17T07:57:11Z</time>
      </trkpt>
      <trkpt lat="43.94487" lon="1.92597">
        <ele>221</ele>
        <time>2011-08-17T07:57:12Z</time>
      </trkpt>
      <trkpt lat="43.94487" lon="1.92594">
        <ele>221</ele>
        <time>2011-08-17T07:57:13Z</time>
      </trkpt>
      <trkpt lat="43.94486" lon="1.92591">
        <ele>221</ele>
        <time>2011-08-17T07:57:14Z</time>
      </trkpt>
      <trkpt lat="43.94485" lon="1.92588">
        <ele>221</ele>
        <time>2011-08-17T07:57:15Z</time>
      </trkpt>
      <trkpt lat="43.94485" lon="1.92585">
        <ele>221</ele>
        <time>2011-08-17T07:57:16Z</time>
      </trkpt>
      <trkpt lat="43.94486" lon="1.92581">
        <ele>221</ele>
        <time>2011-08-17T07:57:17Z</time>
      </trkpt>
      <trkpt lat="43.94485" lon="1.92579">
        <ele>221</ele>
        <time>2011-08-17T07:57:18Z</time>
      </trkpt>
      <trkpt lat="43.94485" lon="1.92577">
        <ele>221</ele>
        <time>2011-08-17T07:57:19Z</time>
      </trkpt>
      <trkpt lat="43.94484" lon="1.92576">
        <ele>221</ele>
        <time>2011-08-17T07:57:20Z</time>
      </trkpt>
      <trkpt lat="43.94485" lon="1.92574">
        <ele>221</ele>
        <time>2011-08-17T07:57:22Z</time>
      </trkpt>
      <trkpt lat="43.94485" lon="1.92571">
        <ele>221</ele>
        <time>2011-08-17T07:57:24Z</time>
      </trkpt>
      <trkpt lat="43.94484" lon="1.9257">
        <ele>221</ele>
        <time>2011-08-17T07:57:25Z</time>
      </trkpt>
      <trkpt lat="43.94484" lon="1.92568">
        <ele>221</ele>
        <time>2011-08-17T07:57:26Z</time>
      </trkpt>
      <trkpt lat="43.94484" lon="1.92567">
        <ele>221</ele>
        <time>2011-08-17T07:57:27Z</time>
      </trkpt>
      <trkpt lat="43.94482" lon="1.92565">
        <ele>221</ele>
        <time>2011-08-17T07:57:29Z</time>
      </trkpt>
      <trkpt lat="43.94483" lon="1.92564">
        <ele>221</ele>
        <time>2011-08-17T07:57:32Z</time>
      </trkpt>
      <trkpt lat="43.94484" lon="1.92563">
        <ele>221</ele>
        <time>2011-08-17T07:57:35Z</time>
      </trkpt>
      <trkpt lat="43.94486" lon="1.92562">
        <ele>221</ele>
        <time>2011-08-17T07:57:38Z</time>
      </trkpt>
      <trkpt lat="43.94487" lon="1.92562">
        <ele>221</ele>
        <time>2011-08-17T07:57:42Z</time>
      </trkpt>
      <trkpt lat="43.94486" lon="1.9256">
        <ele>215</ele>
        <time>2011-08-17T07:57:50Z</time>
      </trkpt>
      <trkpt lat="43.94485" lon="1.92561">
        <ele>209</ele>
        <time>2011-08-17T07:57:58Z</time>
      </trkpt>
      <trkpt lat="43.94485" lon="1.92562">
        <ele>208</ele>
        <time>2011-08-17T07:58:10Z</time>
      </trkpt>
      <trkpt lat="43.94484" lon="1.92563">
        <ele>201</ele>
        <time>2011-08-17T07:58:23Z</time>
      </trkpt>
      <trkpt lat="43.94484" lon="1.92562">
        <ele>201</ele>
        <time>2011-08-17T07:58:29Z</time>
      </trkpt>
      <trkpt lat="43.94482" lon="1.92563">
        <ele>201</ele>
        <time>2011-08-17T07:58:44Z</time>
      </trkpt>
      <trkpt lat="43.94484" lon="1.92563">
        <ele>200</ele>
        <time>2011-08-17T07:58:48Z</time>
      </trkpt>
      <trkpt lat="43.94482" lon="1.92564">
        <ele>200</ele>
        <time>2011-08-17T07:58:54Z</time>
      </trkpt>
      <trkpt lat="43.94483" lon="1.92562">
        <ele>199</ele>
        <time>2011-08-17T07:59:03Z</time>
      </trkpt>
      <trkpt lat="43.94483" lon="1.92561">
        <ele>191</ele>
        <time>2011-08-17T07:59:11Z</time>
      </trkpt>
      <trkpt lat="43.94484" lon="1.9256">
        <ele>191</ele>
        <time>2011-08-17T07:59:17Z</time>
      </trkpt>
      <trkpt lat="43.94486" lon="1.92562">
        <ele>191</ele>
        <time>2011-08-17T07:59:18Z</time>
      </trkpt>
      <trkpt lat="43.94484" lon="1.92561">
        <ele>192</ele>
        <time>2011-08-17T07:59:26Z</time>
      </trkpt>
      <trkpt lat="43.94484" lon="1.92559">
        <ele>193</ele>
        <time>2011-08-17T07:59:27Z</time>
      </trkpt>
      <trkpt lat="43.94484" lon="1.92558">
        <ele>197</ele>
        <time>2011-08-17T07:59:32Z</time>
      </trkpt>
      <trkpt lat="43.94482" lon="1.92558">
        <ele>199</ele>
        <time>2011-08-17T07:59:34Z</time>
      </trkpt>
      <trkpt lat="43.94482" lon="1.92556">
        <ele>202</ele>
        <time>2011-08-17T07:59:37Z</time>
      </trkpt>
      <trkpt lat="43.94482" lon="1.92554">
        <ele>204</ele>
        <time>2011-08-17T07:59:39Z</time>
      </trkpt>
      <trkpt lat="43.94483" lon="1.92556">
        <ele>205</ele>
        <time>2011-08-17T07:59:40Z</time>
      </trkpt>
      <trkpt lat="43.94484" lon="1.92557">
        <ele>208</ele>
        <time>2011-08-17T07:59:43Z</time>
      </trkpt>
      <trkpt lat="43.94482" lon="1.92557">
        <ele>209</ele>
        <time>2011-08-17T07:59:44Z</time>
      </trkpt>
      <trkpt lat="43.9448" lon="1.92555">
        <ele>214</ele>
        <time>2011-08-17T07:59:49Z</time>
      </trkpt>
      <trkpt lat="43.94477" lon="1.92552">
        <ele>216</ele>
        <time>2011-08-17T07:59:51Z</time>
      </trkpt>
      <trkpt lat="43.94475" lon="1.92551">
        <ele>217</ele>
        <time>2011-08-17T07:59:52Z</time>
      </trkpt>
      <trkpt lat="43.94478" lon="1.92554">
        <ele>217</ele>
        <time>2011-08-17T07:59:55Z</time>
      </trkpt>
      <trkpt lat="43.9448" lon="1.92554">
        <ele>218</ele>
        <time>2011-08-17T07:59:56Z</time>
      </trkpt>
      <trkpt lat="43.94481" lon="1.92553">
        <ele>218</ele>
        <time>2011-08-17T07:59:57Z</time>
      </trkpt>
      <trkpt lat="43.94482" lon="1.92553">
        <ele>220</ele>
        <time>2011-08-17T07:59:59Z</time>
      </trkpt>
      <trkpt lat="43.94484" lon="1.92554">
        <ele>221</ele>
        <time>2011-08-17T08:00:02Z</time>
      </trkpt>
      <trkpt lat="43.94484" lon="1.92556">
        <ele>221</ele>
        <time>2011-08-17T08:00:04Z</time>
      </trkpt>
      <trkpt lat="43.94483" lon="1.92555">
        <ele>221</ele>
        <time>2011-08-17T08:00:05Z</time>
      </trkpt>
      <trkpt lat="43.94482" lon="1.92555">
        <ele>221</ele>
        <time>2011-08-17T08:00:07Z</time>
      </trkpt>
      <trkpt lat="43.94482" lon="1.92557">
        <ele>222</ele>
        <time>2011-08-17T08:00:09Z</time>
      </trkpt>
      <trkpt lat="43.94482" lon="1.92558">
        <ele>222</ele>
        <time>2011-08-17T08:00:10Z</time>
      </trkpt>
      <trkpt lat="43.94482" lon="1.9256">
        <ele>222</ele>
        <time>2011-08-17T08:00:12Z</time>
      </trkpt>
      <trkpt lat="43.9448" lon="1.9256">
        <ele>222</ele>
        <time>2011-08-17T08:00:15Z</time>
      </trkpt>
      <trkpt lat="43.9448" lon="1.92558">
        <ele>222</ele>
        <time>2011-08-17T08:00:18Z</time>
      </trkpt>
      <trkpt lat="43.94481" lon="1.92556">
        <ele>222</ele>
        <time>2011-08-17T08:00:20Z</time>
      </trkpt>
      <trkpt lat="43.94482" lon="1.92555">
        <ele>222</ele>
        <time>2011-08-17T08:00:27Z</time>
      </trkpt>
      <trkpt lat="43.94483" lon="1.92555">
        <ele>224</ele>
        <time>2011-08-17T08:00:33Z</time>
      </trkpt>
      <trkpt lat="43.94482" lon="1.92553">
        <ele>230</ele>
        <time>2011-08-17T08:00:39Z</time>
      </trkpt>
      <trkpt lat="43.94481" lon="1.92552">
        <ele>234</ele>
        <time>2011-08-17T08:00:43Z</time>
      </trkpt>
      <trkpt lat="43.9448" lon="1.92551">
        <ele>239</ele>
        <time>2011-08-17T08:00:50Z</time>
      </trkpt>
      <trkpt lat="43.9448" lon="1.9255">
        <ele>239</ele>
        <time>2011-08-17T08:00:53Z</time>
      </trkpt>
      <trkpt lat="43.94478" lon="1.92548">
        <ele>239</ele>
        <time>2011-08-17T08:00:59Z</time>
      </trkpt>
      <trkpt lat="43.94476" lon="1.92547">
        <ele>239</ele>
        <time>2011-08-17T08:01:01Z</time>
      </trkpt>
      <trkpt lat="43.94475" lon="1.92547">
        <ele>239</ele>
        <time>2011-08-17T08:01:05Z</time>
      </trkpt>
      <trkpt lat="43.94476" lon="1.92547">
        <ele>239</ele>
        <time>2011-08-17T08:01:14Z</time>
      </trkpt>
      <trkpt lat="43.94478" lon="1.92548">
        <ele>239</ele>
        <time>2011-08-17T08:01:19Z</time>
      </trkpt>
      <trkpt lat="43.94479" lon="1.92549">
        <ele>239</ele>
        <time>2011-08-17T08:01:20Z</time>
      </trkpt>
      <trkpt lat="43.94478" lon="1.92549">
        <ele>234</ele>
        <time>2011-08-17T08:01:28Z</time>
      </trkpt>
      <trkpt lat="43.94477" lon="1.9255">
        <ele>228</ele>
        <time>2011-08-17T08:01:38Z</time>
      </trkpt>
      <trkpt lat="43.94476" lon="1.92549">
        <ele>228</ele>
        <time>2011-08-17T08:01:43Z</time>
      </trkpt>
      <trkpt lat="43.94477" lon="1.92551">
        <ele>228</ele>
        <time>2011-08-17T08:01:50Z</time>
      </trkpt>
      <trkpt lat="43.94476" lon="1.92551">
        <ele>229</ele>
        <time>2011-08-17T08:01:59Z</time>
      </trkpt>
      <trkpt lat="43.94474" lon="1.92551">
        <ele>230</ele>
        <time>2011-08-17T08:02:07Z</time>
      </trkpt>
      <trkpt lat="43.94474" lon="1.92553">
        <ele>230</ele>
        <time>2011-08-17T08:02:13Z</time>
      </trkpt>
      <trkpt lat="43.94473" lon="1.92553">
        <ele>230</ele>
        <time>2011-08-17T08:02:25Z</time>
      </trkpt>
      <trkpt lat="43.94474" lon="1.92554">
        <ele>230</ele>
        <time>2011-08-17T08:02:28Z</time>
      </trkpt>
      <trkpt lat="43.94475" lon="1.92552">
        <ele>226</ele>
        <time>2011-08-17T08:02:36Z</time>
      </trkpt>
      <trkpt lat="43.94475" lon="1.9255">
        <ele>224</ele>
        <time>2011-08-17T08:02:38Z</time>
      </trkpt>
      <trkpt lat="43.94476" lon="1.92547">
        <ele>224</ele>
        <time>2011-08-17T08:02:40Z</time>
      </trkpt>
      <trkpt lat="43.94475" lon="1.92545">
        <ele>224</ele>
        <time>2011-08-17T08:02:41Z</time>
      </trkpt>
      <trkpt lat="43.94475" lon="1.92543">
        <ele>224</ele>
        <time>2011-08-17T08:02:42Z</time>
      </trkpt>
      <trkpt lat="43.94474" lon="1.92541">
        <ele>224</ele>
        <time>2011-08-17T08:02:43Z</time>
      </trkpt>
      <trkpt lat="43.94474" lon="1.92539">
        <ele>224</ele>
        <time>2011-08-17T08:02:44Z</time>
      </trkpt>
      <trkpt lat="43.94474" lon="1.92537">
        <ele>224</ele>
        <time>2011-08-17T08:02:45Z</time>
      </trkpt>
      <trkpt lat="43.94474" lon="1.92535">
        <ele>224</ele>
        <time>2011-08-17T08:02:46Z</time>
      </trkpt>
      <trkpt lat="43.94474" lon="1.92534">
        <ele>224</ele>
        <time>2011-08-17T08:02:47Z</time>
      </trkpt>
      <trkpt lat="43.94473" lon="1.92532">
        <ele>224</ele>
        <time>2011-08-17T08:02:48Z</time>
      </trkpt>
      <trkpt lat="43.94473" lon="1.9253">
        <ele>224</ele>
        <time>2011-08-17T08:02:49Z</time>
      </trkpt>
      <trkpt lat="43.94472" lon="1.92527">
        <ele>224</ele>
        <time>2011-08-17T08:02:50Z</time>
      </trkpt>
      <trkpt lat="43.94472" lon="1.92525">
        <ele>224</ele>
        <time>2011-08-17T08:02:51Z</time>
      </trkpt>
      <trkpt lat="43.94472" lon="1.92524">
        <ele>224</ele>
        <time>2011-08-17T08:02:52Z</time>
      </trkpt>
      <trkpt lat="43.94472" lon="1.92522">
        <ele>224</ele>
        <time>2011-08-17T08:02:53Z</time>
      </trkpt>
      <trkpt lat="43.94472" lon="1.9252">
        <ele>224</ele>
        <time>2011-08-17T08:02:54Z</time>
      </trkpt>
      <trkpt lat="43.94471" lon="1.92518">
        <ele>224</ele>
        <time>2011-08-17T08:02:55Z</time>
      </trkpt>
      <trkpt lat="43.94471" lon="1.92516">
        <ele>224</ele>
        <time>2011-08-17T08:02:56Z</time>
      </trkpt>
      <trkpt lat="43.94471" lon="1.92514">
        <ele>224</ele>
        <time>2011-08-17T08:02:57Z</time>
      </trkpt>
      <trkpt lat="43.9447" lon="1.92511">
        <ele>224</ele>
        <time>2011-08-17T08:02:58Z</time>
      </trkpt>
      <trkpt lat="43.9447" lon="1.92509">
        <ele>225</ele>
        <time>2011-08-17T08:02:59Z</time>
      </trkpt>
      <trkpt lat="43.9447" lon="1.92506">
        <ele>225</ele>
        <time>2011-08-17T08:03:00Z</time>
      </trkpt>
      <trkpt lat="43.94469" lon="1.92503">
        <ele>225</ele>
        <time>2011-08-17T08:03:01Z</time>
      </trkpt>
      <trkpt lat="43.94469" lon="1.925">
        <ele>225</ele>
        <time>2011-08-17T08:03:02Z</time>
      </trkpt>
      <trkpt lat="43.94469" lon="1.92497">
        <ele>225</ele>
        <time>2011-08-17T08:03:03Z</time>
      </trkpt>
      <trkpt lat="43.94469" lon="1.92494">
        <ele>225</ele>
        <time>2011-08-17T08:03:04Z</time>
      </trkpt>
      <trkpt lat="43.94468" lon="1.92492">
        <ele>225</ele>
        <time>2011-08-17T08:03:05Z</time>
      </trkpt>
      <trkpt lat="43.94468" lon="1.92489">
        <ele>226</ele>
        <time>2011-08-17T08:03:06Z</time>
      </trkpt>
      <trkpt lat="43.94468" lon="1.92487">
        <ele>227</ele>
        <time>2011-08-17T08:03:07Z</time>
      </trkpt>
      <trkpt lat="43.94467" lon="1.92485">
        <ele>228</ele>
        <time>2011-08-17T08:03:08Z</time>
      </trkpt>
      <trkpt lat="43.94467" lon="1.92483">
        <ele>228</ele>
        <time>2011-08-17T08:03:09Z</time>
      </trkpt>
      <trkpt lat="43.94466" lon="1.92482">
        <ele>228</ele>
        <time>2011-08-17T08:03:10Z</time>
      </trkpt>
      <trkpt lat="43.94464" lon="1.92479">
        <ele>228</ele>
        <time>2011-08-17T08:03:11Z</time>
      </trkpt>
      <trkpt lat="43.94462" lon="1.92476">
        <ele>228</ele>
        <time>2011-08-17T08:03:12Z</time>
      </trkpt>
      <trkpt lat="43.94461" lon="1.92473">
        <ele>228</ele>
        <time>2011-08-17T08:03:13Z</time>
      </trkpt>
      <trkpt lat="43.94459" lon="1.9247">
        <ele>228</ele>
        <time>2011-08-17T08:03:14Z</time>
      </trkpt>
      <trkpt lat="43.94457" lon="1.92468">
        <ele>228</ele>
        <time>2011-08-17T08:03:15Z</time>
      </trkpt>
      <trkpt lat="43.94455" lon="1.92465">
        <ele>228</ele>
        <time>2011-08-17T08:03:16Z</time>
      </trkpt>
      <trkpt lat="43.94454" lon="1.92463">
        <ele>228</ele>
        <time>2011-08-17T08:03:17Z</time>
      </trkpt>
      <trkpt lat="43.94453" lon="1.92461">
        <ele>228</ele>
        <time>2011-08-17T08:03:18Z</time>
      </trkpt>
      <trkpt lat="43.94451" lon="1.92458">
        <ele>228</ele>
        <time>2011-08-17T08:03:19Z</time>
      </trkpt>
      <trkpt lat="43.9445" lon="1.92456">
        <ele>228</ele>
        <time>2011-08-17T08:03:20Z</time>
      </trkpt>
      <trkpt lat="43.94449" lon="1.92454">
        <ele>228</ele>
        <time>2011-08-17T08:03:21Z</time>
      </trkpt>
      <trkpt lat="43.94448" lon="1.92452">
        <ele>228</ele>
        <time>2011-08-17T08:03:22Z</time>
      </trkpt>
      <trkpt lat="43.94448" lon="1.92448">
        <ele>228</ele>
        <time>2011-08-17T08:03:23Z</time>
      </trkpt>
      <trkpt lat="43.94449" lon="1.92446">
        <ele>228</ele>
        <time>2011-08-17T08:03:24Z</time>
      </trkpt>
      <trkpt lat="43.9445" lon="1.92445">
        <ele>228</ele>
        <time>2011-08-17T08:03:25Z</time>
      </trkpt>
      <trkpt lat="43.94451" lon="1.92444">
        <ele>228</ele>
        <time>2011-08-17T08:03:26Z</time>
      </trkpt>
      <trkpt lat="43.94453" lon="1.92443">
        <ele>228</ele>
        <time>2011-08-17T08:03:27Z</time>
      </trkpt>
      <trkpt lat="43.94455" lon="1.92442">
        <ele>228</ele>
        <time>2011-08-17T08:03:28Z</time>
      </trkpt>
      <trkpt lat="43.94456" lon="1.9244">
        <ele>228</ele>
        <time>2011-08-17T08:03:29Z</time>
      </trkpt>
      <trkpt lat="43.94458" lon="1.92439">
        <ele>228</ele>
        <time>2011-08-17T08:03:30Z</time>
      </trkpt>
      <trkpt lat="43.9446" lon="1.92438">
        <ele>228</ele>
        <time>2011-08-17T08:03:31Z</time>
      </trkpt>
      <trkpt lat="43.94461" lon="1.92437">
        <ele>228</ele>
        <time>2011-08-17T08:03:32Z</time>
      </trkpt>
      <trkpt lat="43.94463" lon="1.92436">
        <ele>228</ele>
        <time>2011-08-17T08:03:33Z</time>
      </trkpt>
      <trkpt lat="43.94465" lon="1.92435">
        <ele>228</ele>
        <time>2011-08-17T08:03:34Z</time>
      </trkpt>
      <trkpt lat="43.94467" lon="1.92434">
        <ele>228</ele>
        <time>2011-08-17T08:03:35Z</time>
      </trkpt>
      <trkpt lat="43.94469" lon="1.92433">
        <ele>228</ele>
        <time>2011-08-17T08:03:36Z</time>
      </trkpt>
      <trkpt lat="43.94471" lon="1.92432">
        <ele>228</ele>
        <time>2011-08-17T08:03:37Z</time>
      </trkpt>
      <trkpt lat="43.94473" lon="1.92431">
        <ele>228</ele>
        <time>2011-08-17T08:03:38Z</time>
      </trkpt>
      <trkpt lat="43.94475" lon="1.9243">
        <ele>228</ele>
        <time>2011-08-17T08:03:39Z</time>
      </trkpt>
      <trkpt lat="43.94477" lon="1.92429">
        <ele>228</ele>
        <time>2011-08-17T08:03:40Z</time>
      </trkpt>
      <trkpt lat="43.94479" lon="1.92428">
        <ele>228</ele>
        <time>2011-08-17T08:03:41Z</time>
      </trkpt>
      <trkpt lat="43.94482" lon="1.92427">
        <ele>228</ele>
        <time>2011-08-17T08:03:42Z</time>
      </trkpt>
      <trkpt lat="43.94484" lon="1.92426">
        <ele>228</ele>
        <time>2011-08-17T08:03:43Z</time>
      </trkpt>
      <trkpt lat="43.94486" lon="1.92425">
        <ele>228</ele>
        <time>2011-08-17T08:03:44Z</time>
      </trkpt>
      <trkpt lat="43.94488" lon="1.92424">
        <ele>228</ele>
        <time>2011-08-17T08:03:45Z</time>
      </trkpt>
      <trkpt lat="43.9449" lon="1.92424">
        <ele>228</ele>
        <time>2011-08-17T08:03:46Z</time>
      </trkpt>
      <trkpt lat="43.94492" lon="1.92423">
        <ele>228</ele>
        <time>2011-08-17T08:03:47Z</time>
      </trkpt>
      <trkpt lat="43.94494" lon="1.92422">
        <ele>228</ele>
        <time>2011-08-17T08:03:48Z</time>
      </trkpt>
      <trkpt lat="43.94496" lon="1.92421">
        <ele>228</ele>
        <time>2011-08-17T08:03:49Z</time>
      </trkpt>
      <trkpt lat="43.94498" lon="1.92421">
        <ele>228</ele>
        <time>2011-08-17T08:03:50Z</time>
      </trkpt>
      <trkpt lat="43.945" lon="1.9242">
        <ele>228</ele>
        <time>2011-08-17T08:03:51Z</time>
      </trkpt>
      <trkpt lat="43.94501" lon="1.92419">
        <ele>228</ele>
        <time>2011-08-17T08:03:52Z</time>
      </trkpt>
      <trkpt lat="43.94503" lon="1.92417">
        <ele>228</ele>
        <time>2011-08-17T08:03:53Z</time>
      </trkpt>
      <trkpt lat="43.94505" lon="1.92416">
        <ele>228</ele>
        <time>2011-08-17T08:03:54Z</time>
      </trkpt>
      <trkpt lat="43.94506" lon="1.92415">
        <ele>228</ele>
        <time>2011-08-17T08:03:55Z</time>
      </trkpt>
      <trkpt lat="43.94508" lon="1.92414">
        <ele>228</ele>
        <time>2011-08-17T08:03:56Z</time>
      </trkpt>
      <trkpt lat="43.9451" lon="1.92414">
        <ele>228</ele>
        <time>2011-08-17T08:03:57Z</time>
      </trkpt>
      <trkpt lat="43.94512" lon="1.92414">
        <ele>229</ele>
        <time>2011-08-17T08:03:58Z</time>
      </trkpt>
      <trkpt lat="43.94514" lon="1.92413">
        <ele>229</ele>
        <time>2011-08-17T08:03:59Z</time>
      </trkpt>
      <trkpt lat="43.94516" lon="1.92412">
        <ele>229</ele>
        <time>2011-08-17T08:04:00Z</time>
      </trkpt>
      <trkpt lat="43.94518" lon="1.92411">
        <ele>229</ele>
        <time>2011-08-17T08:04:01Z</time>
      </trkpt>
      <trkpt lat="43.9452" lon="1.9241">
        <ele>229</ele>
        <time>2011-08-17T08:04:02Z</time>
      </trkpt>
      <trkpt lat="43.94522" lon="1.9241">
        <ele>229</ele>
        <time>2011-08-17T08:04:03Z</time>
      </trkpt>
      <trkpt lat="43.94524" lon="1.92409">
        <ele>229</ele>
        <time>2011-08-17T08:04:04Z</time>
      </trkpt>
      <trkpt lat="43.94526" lon="1.92408">
        <ele>229</ele>
        <time>2011-08-17T08:04:05Z</time>
      </trkpt>
      <trkpt lat="43.94528" lon="1.92407">
        <ele>229</ele>
        <time>2011-08-17T08:04:06Z</time>
      </trkpt>
      <trkpt lat="43.9453" lon="1.92406">
        <ele>229</ele>
        <time>2011-08-17T08:04:07Z</time>
      </trkpt>
      <trkpt lat="43.94533" lon="1.92405">
        <ele>229</ele>
        <time>2011-08-17T08:04:08Z</time>
      </trkpt>
      <trkpt lat="43.94535" lon="1.92405">
        <ele>229</ele>
        <time>2011-08-17T08:04:09Z</time>
      </trkpt>
      <trkpt lat="43.94537" lon="1.92404">
        <ele>229</ele>
        <time>2011-08-17T08:04:10Z</time>
      </trkpt>
      <trkpt lat="43.94538" lon="1.92403">
        <ele>229</ele>
        <time>2011-08-17T08:04:11Z</time>
      </trkpt>
      <trkpt lat="43.9454" lon="1.92403">
        <ele>230</ele>
        <time>2011-08-17T08:04:12Z</time>
      </trkpt>
      <trkpt lat="43.94542" lon="1.92402">
        <ele>230</ele>
        <time>2011-08-17T08:04:13Z</time>
      </trkpt>
      <trkpt lat="43.94544" lon="1.92401">
        <ele>230</ele>
        <time>2011-08-17T08:04:14Z</time>
      </trkpt>
      <trkpt lat="43.94546" lon="1.924">
        <ele>230</ele>
        <time>2011-08-17T08:04:15Z</time>
      </trkpt>
      <trkpt lat="43.94548" lon="1.924">
        <ele>231</ele>
        <time>2011-08-17T08:04:16Z</time>
      </trkpt>
      <trkpt lat="43.9455" lon="1.92399">
        <ele>231</ele>
        <time>2011-08-17T08:04:17Z</time>
      </trkpt>
      <trkpt lat="43.94552" lon="1.92398">
        <ele>231</ele>
        <time>2011-08-17T08:04:18Z</time>
      </trkpt>
      <trkpt lat="43.94554" lon="1.92397">
        <ele>231</ele>
        <time>2011-08-17T08:04:19Z</time>
      </trkpt>
      <trkpt lat="43.94556" lon="1.92397">
        <ele>231</ele>
        <time>2011-08-17T08:04:20Z</time>
      </trkpt>
      <trkpt lat="43.94558" lon="1.92396">
        <ele>231</ele>
        <time>2011-08-17T08:04:21Z</time>
      </trkpt>
      <trkpt lat="43.94559" lon="1.92395">
        <ele>231</ele>
        <time>2011-08-17T08:04:22Z</time>
      </trkpt>
      <trkpt lat="43.94561" lon="1.92394">
        <ele>231</ele>
        <time>2011-08-17T08:04:23Z</time>
      </trkpt>
      <trkpt lat="43.94563" lon="1.92394">
        <ele>231</ele>
        <time>2011-08-17T08:04:24Z</time>
      </trkpt>
      <trkpt lat="43.94565" lon="1.92393">
        <ele>231</ele>
        <time>2011-08-17T08:04:25Z</time>
      </trkpt>
      <trkpt lat="43.94567" lon="1.92392">
        <ele>231</ele>
        <time>2011-08-17T08:04:26Z</time>
      </trkpt>
      <trkpt lat="43.94569" lon="1.92391">
        <ele>231</ele>
        <time>2011-08-17T08:04:27Z</time>
      </trkpt>
      <trkpt lat="43.94571" lon="1.9239">
        <ele>231</ele>
        <time>2011-08-17T08:04:28Z</time>
      </trkpt>
      <trkpt lat="43.94572" lon="1.92389">
        <ele>231</ele>
        <time>2011-08-17T08:04:29Z</time>
      </trkpt>
      <trkpt lat="43.94574" lon="1.92388">
        <ele>231</ele>
        <time>2011-08-17T08:04:30Z</time>
      </trkpt>
      <trkpt lat="43.94576" lon="1.92388">
        <ele>232</ele>
        <time>2011-08-17T08:04:31Z</time>
      </trkpt>
      <trkpt lat="43.94578" lon="1.92387">
        <ele>232</ele>
        <time>2011-08-17T08:04:32Z</time>
      </trkpt>
      <trkpt lat="43.94579" lon="1.92386">
        <ele>232</ele>
        <time>2011-08-17T08:04:33Z</time>
      </trkpt>
      <trkpt lat="43.94581" lon="1.92386">
        <ele>232</ele>
        <time>2011-08-17T08:04:34Z</time>
      </trkpt>
      <trkpt lat="43.94583" lon="1.92385">
        <ele>232</ele>
        <time>2011-08-17T08:04:35Z</time>
      </trkpt>
      <trkpt lat="43.94585" lon="1.92384">
        <ele>232</ele>
        <time>2011-08-17T08:04:36Z</time>
      </trkpt>
      <trkpt lat="43.94586" lon="1.92383">
        <ele>232</ele>
        <time>2011-08-17T08:04:37Z</time>
      </trkpt>
      <trkpt lat="43.94588" lon="1.92382">
        <ele>232</ele>
        <time>2011-08-17T08:04:38Z</time>
      </trkpt>
      <trkpt lat="43.9459" lon="1.92381">
        <ele>232</ele>
        <time>2011-08-17T08:04:39Z</time>
      </trkpt>
      <trkpt lat="43.94592" lon="1.92379">
        <ele>232</ele>
        <time>2011-08-17T08:04:40Z</time>
      </trkpt>
      <trkpt lat="43.94593" lon="1.92378">
        <ele>232</ele>
        <time>2011-08-17T08:04:41Z</time>
      </trkpt>
      <trkpt lat="43.94595" lon="1.92376">
        <ele>233</ele>
        <time>2011-08-17T08:04:42Z</time>
      </trkpt>
      <trkpt lat="43.94596" lon="1.92375">
        <ele>233</ele>
        <time>2011-08-17T08:04:43Z</time>
      </trkpt>
      <trkpt lat="43.94598" lon="1.92373">
        <ele>233</ele>
        <time>2011-08-17T08:04:44Z</time>
      </trkpt>
      <trkpt lat="43.94599" lon="1.92371">
        <ele>233</ele>
        <time>2011-08-17T08:04:45Z</time>
      </trkpt>
      <trkpt lat="43.946" lon="1.92369">
        <ele>233</ele>
        <time>2011-08-17T08:04:46Z</time>
      </trkpt>
      <trkpt lat="43.94602" lon="1.92368">
        <ele>233</ele>
        <time>2011-08-17T08:04:47Z</time>
      </trkpt>
      <trkpt lat="43.94603" lon="1.92366">
        <ele>233</ele>
        <time>2011-08-17T08:04:48Z</time>
      </trkpt>
      <trkpt lat="43.94604" lon="1.92364">
        <ele>233</ele>
        <time>2011-08-17T08:04:49Z</time>
      </trkpt>
      <trkpt lat="43.94605" lon="1.92362">
        <ele>233</ele>
        <time>2011-08-17T08:04:50Z</time>
      </trkpt>
      <trkpt lat="43.94606" lon="1.92361">
        <ele>233</ele>
        <time>2011-08-17T08:04:51Z</time>
      </trkpt>
      <trkpt lat="43.94608" lon="1.92359">
        <ele>233</ele>
        <time>2011-08-17T08:04:52Z</time>
      </trkpt>
      <trkpt lat="43.94609" lon="1.92357">
        <ele>233</ele>
        <time>2011-08-17T08:04:53Z</time>
      </trkpt>
      <trkpt lat="43.9461" lon="1.92355">
        <ele>233</ele>
        <time>2011-08-17T08:04:54Z</time>
      </trkpt>
      <trkpt lat="43.94611" lon="1.92353">
        <ele>233</ele>
        <time>2011-08-17T08:04:55Z</time>
      </trkpt>
      <trkpt lat="43.94613" lon="1.92352">
        <ele>233</ele>
        <time>2011-08-17T08:04:56Z</time>
      </trkpt>
      <trkpt lat="43.94614" lon="1.9235">
        <ele>233</ele>
        <time>2011-08-17T08:04:57Z</time>
      </trkpt>
      <trkpt lat="43.94615" lon="1.92348">
        <ele>233</ele>
        <time>2011-08-17T08:04:58Z</time>
      </trkpt>
      <trkpt lat="43.94616" lon="1.92346">
        <ele>233</ele>
        <time>2011-08-17T08:04:59Z</time>
      </trkpt>
      <trkpt lat="43.94617" lon="1.92344">
        <ele>233</ele>
        <time>2011-08-17T08:05:00Z</time>
      </trkpt>
      <trkpt lat="43.94618" lon="1.92342">
        <ele>233</ele>
        <time>2011-08-17T08:05:01Z</time>
      </trkpt>
      <trkpt lat="43.94619" lon="1.9234">
        <ele>234</ele>
        <time>2011-08-17T08:05:02Z</time>
      </trkpt>
      <trkpt lat="43.9462" lon="1.92338">
        <ele>234</ele>
        <time>2011-08-17T08:05:03Z</time>
      </trkpt>
      <trkpt lat="43.94621" lon="1.92336">
        <ele>234</ele>
        <time>2011-08-17T08:05:04Z</time>
      </trkpt>
      <trkpt lat="43.94622" lon="1.92335">
        <ele>234</ele>
        <time>2011-08-17T08:05:05Z</time>
      </trkpt>
      <trkpt lat="43.94624" lon="1.92333">
        <ele>234</ele>
        <time>2011-08-17T08:05:06Z</time>
      </trkpt>
      <trkpt lat="43.94625" lon="1.92331">
        <ele>234</ele>
        <time>2011-08-17T08:05:07Z</time>
      </trkpt>
      <trkpt lat="43.94626" lon="1.92329">
        <ele>234</ele>
        <time>2011-08-17T08:05:08Z</time>
      </trkpt>
      <trkpt lat="43.94627" lon="1.92327">
        <ele>234</ele>
        <time>2011-08-17T08:05:09Z</time>
      </trkpt>
      <trkpt lat="43.94628" lon="1.92325">
        <ele>234</ele>
        <time>2011-08-17T08:05:10Z</time>
      </trkpt>
      <trkpt lat="43.9463" lon="1.92324">
        <ele>235</ele>
        <time>2011-08-17T08:05:11Z</time>
      </trkpt>
      <trkpt lat="43.94631" lon="1.92322">
        <ele>235</ele>
        <time>2011-08-17T08:05:12Z</time>
      </trkpt>
      <trkpt lat="43.94632" lon="1.9232">
        <ele>235</ele>
        <time>2011-08-17T08:05:13Z</time>
      </trkpt>
      <trkpt lat="43.94634" lon="1.92318">
        <ele>235</ele>
        <time>2011-08-17T08:05:14Z</time>
      </trkpt>
      <trkpt lat="43.94635" lon="1.92317">
        <ele>235</ele>
        <time>2011-08-17T08:05:15Z</time>
      </trkpt>
      <trkpt lat="43.94636" lon="1.92315">
        <ele>235</ele>
        <time>2011-08-17T08:05:16Z</time>
      </trkpt>
      <trkpt lat="43.94638" lon="1.92313">
        <ele>235</ele>
        <time>2011-08-17T08:05:17Z</time>
      </trkpt>
      <trkpt lat="43.94638" lon="1.92311">
        <ele>236</ele>
        <time>2011-08-17T08:05:18Z</time>
      </trkpt>
      <trkpt lat="43.9464" lon="1.92309">
        <ele>236</ele>
        <time>2011-08-17T08:05:19Z</time>
      </trkpt>
      <trkpt lat="43.9464" lon="1.92307">
        <ele>236</ele>
        <time>2011-08-17T08:05:20Z</time>
      </trkpt>
      <trkpt lat="43.94642" lon="1.92306">
        <ele>236</ele>
        <time>2011-08-17T08:05:21Z</time>
      </trkpt>
      <trkpt lat="43.94643" lon="1.92304">
        <ele>236</ele>
        <time>2011-08-17T08:05:22Z</time>
      </trkpt>
      <trkpt lat="43.94644" lon="1.92302">
        <ele>236</ele>
        <time>2011-08-17T08:05:23Z</time>
      </trkpt>
      <trkpt lat="43.94645" lon="1.923">
        <ele>236</ele>
        <time>2011-08-17T08:05:24Z</time>
      </trkpt>
      <trkpt lat="43.94647" lon="1.92298">
        <ele>236</ele>
        <time>2011-08-17T08:05:25Z</time>
      </trkpt>
      <trkpt lat="43.94648" lon="1.92296">
        <ele>236</ele>
        <time>2011-08-17T08:05:26Z</time>
      </trkpt>
      <trkpt lat="43.9465" lon="1.92294">
        <ele>236</ele>
        <time>2011-08-17T08:05:27Z</time>
      </trkpt>
      <trkpt lat="43.94651" lon="1.92292">
        <ele>236</ele>
        <time>2011-08-17T08:05:28Z</time>
      </trkpt>
      <trkpt lat="43.94653" lon="1.92291">
        <ele>236</ele>
        <time>2011-08-17T08:05:29Z</time>
      </trkpt>
      <trkpt lat="43.94654" lon="1.92289">
        <ele>236</ele>
        <time>2011-08-17T08:05:30Z</time>
      </trkpt>
      <trkpt lat="43.94656" lon="1.92287">
        <ele>236</ele>
        <time>2011-08-17T08:05:31Z</time>
      </trkpt>
      <trkpt lat="43.94657" lon="1.92285">
        <ele>236</ele>
        <time>2011-08-17T08:05:32Z</time>
      </trkpt>
      <trkpt lat="43.94659" lon="1.92283">
        <ele>236</ele>
        <time>2011-08-17T08:05:33Z</time>
      </trkpt>
      <trkpt lat="43.94661" lon="1.92281">
        <ele>236</ele>
        <time>2011-08-17T08:05:34Z</time>
      </trkpt>
      <trkpt lat="43.94662" lon="1.92279">
        <ele>236</ele>
        <time>2011-08-17T08:05:35Z</time>
      </trkpt>
      <trkpt lat="43.94664" lon="1.92277">
        <ele>236</ele>
        <time>2011-08-17T08:05:36Z</time>
      </trkpt>
      <trkpt lat="43.94667" lon="1.92275">
        <ele>236</ele>
        <time>2011-08-17T08:05:37Z</time>
      </trkpt>
      <trkpt lat="43.94668" lon="1.92273">
        <ele>236</ele>
        <time>2011-08-17T08:05:38Z</time>
      </trkpt>
      <trkpt lat="43.9467" lon="1.92271">
        <ele>236</ele>
        <time>2011-08-17T08:05:39Z</time>
      </trkpt>
      <trkpt lat="43.94672" lon="1.92269">
        <ele>236</ele>
        <time>2011-08-17T08:05:40Z</time>
      </trkpt>
      <trkpt lat="43.94674" lon="1.92268">
        <ele>236</ele>
        <time>2011-08-17T08:05:41Z</time>
      </trkpt>
      <trkpt lat="43.94676" lon="1.92266">
        <ele>236</ele>
        <time>2011-08-17T08:05:42Z</time>
      </trkpt>
      <trkpt lat="43.94678" lon="1.92264">
        <ele>236</ele>
        <time>2011-08-17T08:05:43Z</time>
      </trkpt>
      <trkpt lat="43.9468" lon="1.92262">
        <ele>236</ele>
        <time>2011-08-17T08:05:44Z</time>
      </trkpt>
      <trkpt lat="43.94681" lon="1.9226">
        <ele>236</ele>
        <time>2011-08-17T08:05:45Z</time>
      </trkpt>
      <trkpt lat="43.94683" lon="1.92258">
        <ele>236</ele>
        <time>2011-08-17T08:05:46Z</time>
      </trkpt>
      <trkpt lat="43.94685" lon="1.92256">
        <ele>236</ele>
        <time>2011-08-17T08:05:47Z</time>
      </trkpt>
      <trkpt lat="43.94685" lon="1.92254">
        <ele>236</ele>
        <time>2011-08-17T08:05:48Z</time>
      </trkpt>
      <trkpt lat="43.94686" lon="1.92253">
        <ele>236</ele>
        <time>2011-08-17T08:05:49Z</time>
      </trkpt>
      <trkpt lat="43.94687" lon="1.92251">
        <ele>236</ele>
        <time>2011-08-17T08:05:50Z</time>
      </trkpt>
      <trkpt lat="43.94688" lon="1.92249">
        <ele>236</ele>
        <time>2011-08-17T08:05:51Z</time>
      </trkpt>
      <trkpt lat="43.9469" lon="1.92248">
        <ele>236</ele>
        <time>2011-08-17T08:05:52Z</time>
      </trkpt>
      <trkpt lat="43.94691" lon="1.92246">
        <ele>236</ele>
        <time>2011-08-17T08:05:53Z</time>
      </trkpt>
      <trkpt lat="43.94693" lon="1.92245">
        <ele>236</ele>
        <time>2011-08-17T08:05:54Z</time>
      </trkpt>
      <trkpt lat="43.94694" lon="1.92244">
        <ele>236</ele>
        <time>2011-08-17T08:05:55Z</time>
      </trkpt>
      <trkpt lat="43.94695" lon="1.92242">
        <ele>236</ele>
        <time>2011-08-17T08:05:56Z</time>
      </trkpt>
      <trkpt lat="43.94697" lon="1.9224">
        <ele>236</ele>
        <time>2011-08-17T08:05:57Z</time>
      </trkpt>
      <trkpt lat="43.94698" lon="1.92239">
        <ele>236</ele>
        <time>2011-08-17T08:05:58Z</time>
      </trkpt>
      <trkpt lat="43.947" lon="1.92237">
        <ele>236</ele>
        <time>2011-08-17T08:05:59Z</time>
      </trkpt>
      <trkpt lat="43.94701" lon="1.92235">
        <ele>236</ele>
        <time>2011-08-17T08:06:00Z</time>
      </trkpt>
      <trkpt lat="43.94703" lon="1.92234">
        <ele>236</ele>
        <time>2011-08-17T08:06:01Z</time>
      </trkpt>
      <trkpt lat="43.94705" lon="1.92232">
        <ele>236</ele>
        <time>2011-08-17T08:06:02Z</time>
      </trkpt>
      <trkpt lat="43.94707" lon="1.92231">
        <ele>236</ele>
        <time>2011-08-17T08:06:03Z</time>
      </trkpt>
      <trkpt lat="43.94709" lon="1.92229">
        <ele>236</ele>
        <time>2011-08-17T08:06:04Z</time>
      </trkpt>
      <trkpt lat="43.9471" lon="1.92228">
        <ele>236</ele>
        <time>2011-08-17T08:06:05Z</time>
      </trkpt>
      <trkpt lat="43.94712" lon="1.92227">
        <ele>236</ele>
        <time>2011-08-17T08:06:06Z</time>
      </trkpt>
      <trkpt lat="43.94714" lon="1.92226">
        <ele>236</ele>
        <time>2011-08-17T08:06:07Z</time>
      </trkpt>
      <trkpt lat="43.94716" lon="1.92225">
        <ele>236</ele>
        <time>2011-08-17T08:06:08Z</time>
      </trkpt>
      <trkpt lat="43.94718" lon="1.92225">
        <ele>236</ele>
        <time>2011-08-17T08:06:09Z</time>
      </trkpt>
      <trkpt lat="43.9472" lon="1.92224">
        <ele>236</ele>
        <time>2011-08-17T08:06:10Z</time>
      </trkpt>
      <trkpt lat="43.94722" lon="1.92223">
        <ele>236</ele>
        <time>2011-08-17T08:06:11Z</time>
      </trkpt>
      <trkpt lat="43.94724" lon="1.92223">
        <ele>236</ele>
        <time>2011-08-17T08:06:12Z</time>
      </trkpt>
      <trkpt lat="43.94726" lon="1.92222">
        <ele>236</ele>
        <time>2011-08-17T08:06:13Z</time>
      </trkpt>
      <trkpt lat="43.94728" lon="1.92222">
        <ele>236</ele>
        <time>2011-08-17T08:06:14Z</time>
      </trkpt>
      <trkpt lat="43.9473" lon="1.92221">
        <ele>236</ele>
        <time>2011-08-17T08:06:15Z</time>
      </trkpt>
      <trkpt lat="43.94732" lon="1.92221">
        <ele>236</ele>
        <time>2011-08-17T08:06:16Z</time>
      </trkpt>
      <trkpt lat="43.94733" lon="1.92221">
        <ele>236</ele>
        <time>2011-08-17T08:06:17Z</time>
      </trkpt>
      <trkpt lat="43.94735" lon="1.92221">
        <ele>236</ele>
        <time>2011-08-17T08:06:18Z</time>
      </trkpt>
      <trkpt lat="43.94737" lon="1.92221">
        <ele>236</ele>
        <time>2011-08-17T08:06:19Z</time>
      </trkpt>
      <trkpt lat="43.94739" lon="1.92221">
        <ele>236</ele>
        <time>2011-08-17T08:06:20Z</time>
      </trkpt>
      <trkpt lat="43.94741" lon="1.92221">
        <ele>236</ele>
        <time>2011-08-17T08:06:21Z</time>
      </trkpt>
      <trkpt lat="43.94743" lon="1.92221">
        <ele>236</ele>
        <time>2011-08-17T08:06:22Z</time>
      </trkpt>
      <trkpt lat="43.94745" lon="1.92221">
        <ele>236</ele>
        <time>2011-08-17T08:06:23Z</time>
      </trkpt>
      <trkpt lat="43.94747" lon="1.92221">
        <ele>236</ele>
        <time>2011-08-17T08:06:24Z</time>
      </trkpt>
      <trkpt lat="43.94749" lon="1.92221">
        <ele>236</ele>
        <time>2011-08-17T08:06:25Z</time>
      </trkpt>
      <trkpt lat="43.94751" lon="1.92221">
        <ele>236</ele>
        <time>2011-08-17T08:06:26Z</time>
      </trkpt>
      <trkpt lat="43.94754" lon="1.92221">
        <ele>236</ele>
        <time>2011-08-17T08:06:27Z</time>
      </trkpt>
      <trkpt lat="43.94756" lon="1.92222">
        <ele>236</ele>
        <time>2011-08-17T08:06:28Z</time>
      </trkpt>
      <trkpt lat="43.94758" lon="1.92222">
        <ele>236</ele>
        <time>2011-08-17T08:06:29Z</time>
      </trkpt>
      <trkpt lat="43.9476" lon="1.92222">
        <ele>236</ele>
        <time>2011-08-17T08:06:30Z</time>
      </trkpt>
      <trkpt lat="43.94762" lon="1.92222">
        <ele>236</ele>
        <time>2011-08-17T08:06:31Z</time>
      </trkpt>
      <trkpt lat="43.94764" lon="1.92222">
        <ele>236</ele>
        <time>2011-08-17T08:06:32Z</time>
      </trkpt>
      <trkpt lat="43.94766" lon="1.92223">
        <ele>236</ele>
        <time>2011-08-17T08:06:33Z</time>
      </trkpt>
      <trkpt lat="43.94768" lon="1.92223">
        <ele>236</ele>
        <time>2011-08-17T08:06:34Z</time>
      </trkpt>
      <trkpt lat="43.9477" lon="1.92223">
        <ele>236</ele>
        <time>2011-08-17T08:06:35Z</time>
      </trkpt>
      <trkpt lat="43.94772" lon="1.92223">
        <ele>236</ele>
        <time>2011-08-17T08:06:36Z</time>
      </trkpt>
      <trkpt lat="43.94775" lon="1.92223">
        <ele>236</ele>
        <time>2011-08-17T08:06:37Z</time>
      </trkpt>
      <trkpt lat="43.94777" lon="1.92223">
        <ele>236</ele>
        <time>2011-08-17T08:06:38Z</time>
      </trkpt>
      <trkpt lat="43.94778" lon="1.92223">
        <ele>236</ele>
        <time>2011-08-17T08:06:39Z</time>
      </trkpt>
      <trkpt lat="43.94781" lon="1.92223">
        <ele>236</ele>
        <time>2011-08-17T08:06:40Z</time>
      </trkpt>
      <trkpt lat="43.94783" lon="1.92223">
        <ele>236</ele>
        <time>2011-08-17T08:06:41Z</time>
      </trkpt>
      <trkpt lat="43.94785" lon="1.92223">
        <ele>236</ele>
        <time>2011-08-17T08:06:42Z</time>
      </trkpt>
      <trkpt lat="43.94787" lon="1.92223">
        <ele>236</ele>
        <time>2011-08-17T08:06:43Z</time>
      </trkpt>
      <trkpt lat="43.94789" lon="1.92223">
        <ele>237</ele>
        <time>2011-08-17T08:06:44Z</time>
      </trkpt>
      <trkpt lat="43.94791" lon="1.92223">
        <ele>237</ele>
        <time>2011-08-17T08:06:45Z</time>
      </trkpt>
      <trkpt lat="43.94793" lon="1.92223">
        <ele>237</ele>
        <time>2011-08-17T08:06:46Z</time>
      </trkpt>
      <trkpt lat="43.94795" lon="1.92223">
        <ele>237</ele>
        <time>2011-08-17T08:06:47Z</time>
      </trkpt>
      <trkpt lat="43.94796" lon="1.92223">
        <ele>237</ele>
        <time>2011-08-17T08:06:48Z</time>
      </trkpt>
      <trkpt lat="43.94798" lon="1.92223">
        <ele>237</ele>
        <time>2011-08-17T08:06:49Z</time>
      </trkpt>
      <trkpt lat="43.948" lon="1.92223">
        <ele>237</ele>
        <time>2011-08-17T08:06:50Z</time>
      </trkpt>
      <trkpt lat="43.94802" lon="1.92224">
        <ele>237</ele>
        <time>2011-08-17T08:06:51Z</time>
      </trkpt>
      <trkpt lat="43.94804" lon="1.92224">
        <ele>237</ele>
        <time>2011-08-17T08:06:52Z</time>
      </trkpt>
      <trkpt lat="43.94806" lon="1.92224">
        <ele>238</ele>
        <time>2011-08-17T08:06:53Z</time>
      </trkpt>
      <trkpt lat="43.94808" lon="1.92224">
        <ele>238</ele>
        <time>2011-08-17T08:06:54Z</time>
      </trkpt>
      <trkpt lat="43.9481" lon="1.92224">
        <ele>238</ele>
        <time>2011-08-17T08:06:55Z</time>
      </trkpt>
      <trkpt lat="43.94812" lon="1.92225">
        <ele>238</ele>
        <time>2011-08-17T08:06:56Z</time>
      </trkpt>
      <trkpt lat="43.94813" lon="1.92225">
        <ele>238</ele>
        <time>2011-08-17T08:06:57Z</time>
      </trkpt>
      <trkpt lat="43.94815" lon="1.92226">
        <ele>238</ele>
        <time>2011-08-17T08:06:58Z</time>
      </trkpt>
      <trkpt lat="43.94817" lon="1.92225">
        <ele>238</ele>
        <time>2011-08-17T08:06:59Z</time>
      </trkpt>
      <trkpt lat="43.94819" lon="1.92224">
        <ele>238</ele>
        <time>2011-08-17T08:07:00Z</time>
      </trkpt>
      <trkpt lat="43.9482" lon="1.92223">
        <ele>238</ele>
        <time>2011-08-17T08:07:01Z</time>
      </trkpt>
      <trkpt lat="43.94822" lon="1.92222">
        <ele>238</ele>
        <time>2011-08-17T08:07:02Z</time>
      </trkpt>
      <trkpt lat="43.94824" lon="1.92221">
        <ele>238</ele>
        <time>2011-08-17T08:07:03Z</time>
      </trkpt>
      <trkpt lat="43.94826" lon="1.9222">
        <ele>239</ele>
        <time>2011-08-17T08:07:04Z</time>
      </trkpt>
      <trkpt lat="43.94828" lon="1.92218">
        <ele>239</ele>
        <time>2011-08-17T08:07:05Z</time>
      </trkpt>
      <trkpt lat="43.9483" lon="1.92217">
        <ele>239</ele>
        <time>2011-08-17T08:07:06Z</time>
      </trkpt>
      <trkpt lat="43.94831" lon="1.92216">
        <ele>239</ele>
        <time>2011-08-17T08:07:07Z</time>
      </trkpt>
      <trkpt lat="43.94833" lon="1.92214">
        <ele>239</ele>
        <time>2011-08-17T08:07:08Z</time>
      </trkpt>
      <trkpt lat="43.94834" lon="1.92213">
        <ele>240</ele>
        <time>2011-08-17T08:07:09Z</time>
      </trkpt>
      <trkpt lat="43.94836" lon="1.92211">
        <ele>240</ele>
        <time>2011-08-17T08:07:10Z</time>
      </trkpt>
      <trkpt lat="43.94838" lon="1.92209">
        <ele>240</ele>
        <time>2011-08-17T08:07:11Z</time>
      </trkpt>
      <trkpt lat="43.94839" lon="1.92208">
        <ele>240</ele>
        <time>2011-08-17T08:07:12Z</time>
      </trkpt>
      <trkpt lat="43.94841" lon="1.92206">
        <ele>240</ele>
        <time>2011-08-17T08:07:13Z</time>
      </trkpt>
      <trkpt lat="43.94843" lon="1.92203">
        <ele>240</ele>
        <time>2011-08-17T08:07:14Z</time>
      </trkpt>
      <trkpt lat="43.94844" lon="1.92201">
        <ele>240</ele>
        <time>2011-08-17T08:07:15Z</time>
      </trkpt>
      <trkpt lat="43.94846" lon="1.92199">
        <ele>240</ele>
        <time>2011-08-17T08:07:16Z</time>
      </trkpt>
      <trkpt lat="43.94848" lon="1.92196">
        <ele>240</ele>
        <time>2011-08-17T08:07:17Z</time>
      </trkpt>
      <trkpt lat="43.9485" lon="1.92194">
        <ele>240</ele>
        <time>2011-08-17T08:07:18Z</time>
      </trkpt>
      <trkpt lat="43.94852" lon="1.92192">
        <ele>240</ele>
        <time>2011-08-17T08:07:19Z</time>
      </trkpt>
      <trkpt lat="43.94853" lon="1.9219">
        <ele>240</ele>
        <time>2011-08-17T08:07:20Z</time>
      </trkpt>
      <trkpt lat="43.94855" lon="1.92188">
        <ele>240</ele>
        <time>2011-08-17T08:07:21Z</time>
      </trkpt>
      <trkpt lat="43.94856" lon="1.92186">
        <ele>240</ele>
        <time>2011-08-17T08:07:22Z</time>
      </trkpt>
      <trkpt lat="43.94858" lon="1.92184">
        <ele>240</ele>
        <time>2011-08-17T08:07:23Z</time>
      </trkpt>
      <trkpt lat="43.9486" lon="1.92183">
        <ele>240</ele>
        <time>2011-08-17T08:07:24Z</time>
      </trkpt>
      <trkpt lat="43.94861" lon="1.92181">
        <ele>240</ele>
        <time>2011-08-17T08:07:25Z</time>
      </trkpt>
      <trkpt lat="43.94863" lon="1.92179">
        <ele>240</ele>
        <time>2011-08-17T08:07:26Z</time>
      </trkpt>
      <trkpt lat="43.94865" lon="1.92176">
        <ele>240</ele>
        <time>2011-08-17T08:07:27Z</time>
      </trkpt>
      <trkpt lat="43.94866" lon="1.92174">
        <ele>240</ele>
        <time>2011-08-17T08:07:28Z</time>
      </trkpt>
      <trkpt lat="43.94868" lon="1.92172">
        <ele>240</ele>
        <time>2011-08-17T08:07:29Z</time>
      </trkpt>
      <trkpt lat="43.94869" lon="1.92169">
        <ele>240</ele>
        <time>2011-08-17T08:07:30Z</time>
      </trkpt>
      <trkpt lat="43.94871" lon="1.92167">
        <ele>240</ele>
        <time>2011-08-17T08:07:31Z</time>
      </trkpt>
      <trkpt lat="43.94872" lon="1.92166">
        <ele>240</ele>
        <time>2011-08-17T08:07:32Z</time>
      </trkpt>
      <trkpt lat="43.94874" lon="1.92164">
        <ele>240</ele>
        <time>2011-08-17T08:07:33Z</time>
      </trkpt>
      <trkpt lat="43.94875" lon="1.92162">
        <ele>240</ele>
        <time>2011-08-17T08:07:34Z</time>
      </trkpt>
      <trkpt lat="43.94877" lon="1.9216">
        <ele>240</ele>
        <time>2011-08-17T08:07:35Z</time>
      </trkpt>
      <trkpt lat="43.94878" lon="1.92158">
        <ele>240</ele>
        <time>2011-08-17T08:07:36Z</time>
      </trkpt>
      <trkpt lat="43.9488" lon="1.92156">
        <ele>240</ele>
        <time>2011-08-17T08:07:37Z</time>
      </trkpt>
      <trkpt lat="43.94881" lon="1.92154">
        <ele>240</ele>
        <time>2011-08-17T08:07:38Z</time>
      </trkpt>
      <trkpt lat="43.94882" lon="1.92152">
        <ele>240</ele>
        <time>2011-08-17T08:07:39Z</time>
      </trkpt>
      <trkpt lat="43.94884" lon="1.9215">
        <ele>240</ele>
        <time>2011-08-17T08:07:40Z</time>
      </trkpt>
      <trkpt lat="43.94885" lon="1.92148">
        <ele>241</ele>
        <time>2011-08-17T08:07:41Z</time>
      </trkpt>
      <trkpt lat="43.94887" lon="1.92147">
        <ele>241</ele>
        <time>2011-08-17T08:07:42Z</time>
      </trkpt>
      <trkpt lat="43.94888" lon="1.92145">
        <ele>241</ele>
        <time>2011-08-17T08:07:43Z</time>
      </trkpt>
      <trkpt lat="43.94889" lon="1.92143">
        <ele>241</ele>
        <time>2011-08-17T08:07:44Z</time>
      </trkpt>
      <trkpt lat="43.94891" lon="1.92141">
        <ele>241</ele>
        <time>2011-08-17T08:07:45Z</time>
      </trkpt>
      <trkpt lat="43.94893" lon="1.9214">
        <ele>241</ele>
        <time>2011-08-17T08:07:46Z</time>
      </trkpt>
      <trkpt lat="43.94894" lon="1.92138">
        <ele>241</ele>
        <time>2011-08-17T08:07:47Z</time>
      </trkpt>
      <trkpt lat="43.94896" lon="1.92136">
        <ele>241</ele>
        <time>2011-08-17T08:07:48Z</time>
      </trkpt>
      <trkpt lat="43.94897" lon="1.92134">
        <ele>241</ele>
        <time>2011-08-17T08:07:49Z</time>
      </trkpt>
      <trkpt lat="43.94898" lon="1.92133">
        <ele>241</ele>
        <time>2011-08-17T08:07:50Z</time>
      </trkpt>
      <trkpt lat="43.94899" lon="1.92131">
        <ele>241</ele>
        <time>2011-08-17T08:07:51Z</time>
      </trkpt>
      <trkpt lat="43.94901" lon="1.92129">
        <ele>241</ele>
        <time>2011-08-17T08:07:52Z</time>
      </trkpt>
      <trkpt lat="43.94902" lon="1.92128">
        <ele>241</ele>
        <time>2011-08-17T08:07:53Z</time>
      </trkpt>
      <trkpt lat="43.94904" lon="1.92125">
        <ele>241</ele>
        <time>2011-08-17T08:07:54Z</time>
      </trkpt>
      <trkpt lat="43.94905" lon="1.92123">
        <ele>241</ele>
        <time>2011-08-17T08:07:55Z</time>
      </trkpt>
      <trkpt lat="43.94907" lon="1.92122">
        <ele>241</ele>
        <time>2011-08-17T08:07:56Z</time>
      </trkpt>
      <trkpt lat="43.94909" lon="1.92119">
        <ele>241</ele>
        <time>2011-08-17T08:07:57Z</time>
      </trkpt>
      <trkpt lat="43.94911" lon="1.92117">
        <ele>241</ele>
        <time>2011-08-17T08:07:58Z</time>
      </trkpt>
      <trkpt lat="43.94913" lon="1.92114">
        <ele>241</ele>
        <time>2011-08-17T08:07:59Z</time>
      </trkpt>
      <trkpt lat="43.94916" lon="1.92112">
        <ele>241</ele>
        <time>2011-08-17T08:08:00Z</time>
      </trkpt>
      <trkpt lat="43.94918" lon="1.92109">
        <ele>241</ele>
        <time>2011-08-17T08:08:01Z</time>
      </trkpt>
      <trkpt lat="43.94921" lon="1.92106">
        <ele>241</ele>
        <time>2011-08-17T08:08:02Z</time>
      </trkpt>
      <trkpt lat="43.94923" lon="1.92103">
        <ele>241</ele>
        <time>2011-08-17T08:08:03Z</time>
      </trkpt>
      <trkpt lat="43.94926" lon="1.92101">
        <ele>241</ele>
        <time>2011-08-17T08:08:04Z</time>
      </trkpt>
      <trkpt lat="43.94928" lon="1.92098">
        <ele>241</ele>
        <time>2011-08-17T08:08:05Z</time>
      </trkpt>
      <trkpt lat="43.94931" lon="1.92095">
        <ele>241</ele>
        <time>2011-08-17T08:08:06Z</time>
      </trkpt>
      <trkpt lat="43.94933" lon="1.92092">
        <ele>241</ele>
        <time>2011-08-17T08:08:07Z</time>
      </trkpt>
      <trkpt lat="43.94936" lon="1.92089">
        <ele>241</ele>
        <time>2011-08-17T08:08:08Z</time>
      </trkpt>
      <trkpt lat="43.94938" lon="1.92086">
        <ele>241</ele>
        <time>2011-08-17T08:08:09Z</time>
      </trkpt>
      <trkpt lat="43.9494" lon="1.92083">
        <ele>241</ele>
        <time>2011-08-17T08:08:10Z</time>
      </trkpt>
      <trkpt lat="43.94943" lon="1.92081">
        <ele>241</ele>
        <time>2011-08-17T08:08:11Z</time>
      </trkpt>
      <trkpt lat="43.94945" lon="1.92078">
        <ele>241</ele>
        <time>2011-08-17T08:08:12Z</time>
      </trkpt>
      <trkpt lat="43.94947" lon="1.92075">
        <ele>241</ele>
        <time>2011-08-17T08:08:13Z</time>
      </trkpt>
      <trkpt lat="43.94949" lon="1.92071">
        <ele>241</ele>
        <time>2011-08-17T08:08:14Z</time>
      </trkpt>
      <trkpt lat="43.94951" lon="1.92068">
        <ele>241</ele>
        <time>2011-08-17T08:08:15Z</time>
      </trkpt>
      <trkpt lat="43.94954" lon="1.92065">
        <ele>241</ele>
        <time>2011-08-17T08:08:16Z</time>
      </trkpt>
      <trkpt lat="43.94956" lon="1.92062">
        <ele>241</ele>
        <time>2011-08-17T08:08:17Z</time>
      </trkpt>
      <trkpt lat="43.94958" lon="1.92059">
        <ele>241</ele>
        <time>2011-08-17T08:08:18Z</time>
      </trkpt>
      <trkpt lat="43.9496" lon="1.92055">
        <ele>241</ele>
        <time>2011-08-17T08:08:19Z</time>
      </trkpt>
      <trkpt lat="43.94961" lon="1.92052">
        <ele>241</ele>
        <time>2011-08-17T08:08:20Z</time>
      </trkpt>
      <trkpt lat="43.94963" lon="1.92049">
        <ele>241</ele>
        <time>2011-08-17T08:08:21Z</time>
      </trkpt>
      <trkpt lat="43.94965" lon="1.92045">
        <ele>241</ele>
        <time>2011-08-17T08:08:22Z</time>
      </trkpt>
      <trkpt lat="43.94967" lon="1.92041">
        <ele>241</ele>
        <time>2011-08-17T08:08:23Z</time>
      </trkpt>
      <trkpt lat="43.94969" lon="1.92037">
        <ele>241</ele>
        <time>2011-08-17T08:08:24Z</time>
      </trkpt>
      <trkpt lat="43.94971" lon="1.92034">
        <ele>241</ele>
        <time>2011-08-17T08:08:25Z</time>
      </trkpt>
      <trkpt lat="43.94973" lon="1.9203">
        <ele>241</ele>
        <time>2011-08-17T08:08:26Z</time>
      </trkpt>
      <trkpt lat="43.94975" lon="1.92025">
        <ele>241</ele>
        <time>2011-08-17T08:08:27Z</time>
      </trkpt>
      <trkpt lat="43.94977" lon="1.92022">
        <ele>241</ele>
        <time>2011-08-17T08:08:28Z</time>
      </trkpt>
      <trkpt lat="43.94979" lon="1.92017">
        <ele>241</ele>
        <time>2011-08-17T08:08:29Z</time>
      </trkpt>
      <trkpt lat="43.94982" lon="1.92013">
        <ele>241</ele>
        <time>2011-08-17T08:08:30Z</time>
      </trkpt>
      <trkpt lat="43.94984" lon="1.92009">
        <ele>241</ele>
        <time>2011-08-17T08:08:31Z</time>
      </trkpt>
      <trkpt lat="43.94986" lon="1.92005">
        <ele>241</ele>
        <time>2011-08-17T08:08:32Z</time>
      </trkpt>
      <trkpt lat="43.94988" lon="1.92001">
        <ele>241</ele>
        <time>2011-08-17T08:08:33Z</time>
      </trkpt>
      <trkpt lat="43.9499" lon="1.91997">
        <ele>241</ele>
        <time>2011-08-17T08:08:34Z</time>
      </trkpt>
      <trkpt lat="43.94991" lon="1.91993">
        <ele>241</ele>
        <time>2011-08-17T08:08:35Z</time>
      </trkpt>
      <trkpt lat="43.94992" lon="1.91989">
        <ele>241</ele>
        <time>2011-08-17T08:08:36Z</time>
      </trkpt>
      <trkpt lat="43.94994" lon="1.91985">
        <ele>241</ele>
        <time>2011-08-17T08:08:37Z</time>
      </trkpt>
      <trkpt lat="43.94995" lon="1.91982">
        <ele>241</ele>
        <time>2011-08-17T08:08:38Z</time>
      </trkpt>
      <trkpt lat="43.94997" lon="1.91979">
        <ele>241</ele>
        <time>2011-08-17T08:08:39Z</time>
      </trkpt>
      <trkpt lat="43.94998" lon="1.91976">
        <ele>241</ele>
        <time>2011-08-17T08:08:40Z</time>
      </trkpt>
      <trkpt lat="43.95" lon="1.91973">
        <ele>241</ele>
        <time>2011-08-17T08:08:41Z</time>
      </trkpt>
      <trkpt lat="43.95001" lon="1.91971">
        <ele>241</ele>
        <time>2011-08-17T08:08:42Z</time>
      </trkpt>
      <trkpt lat="43.95002" lon="1.91968">
        <ele>241</ele>
        <time>2011-08-17T08:08:43Z</time>
      </trkpt>
      <trkpt lat="43.95004" lon="1.91966">
        <ele>241</ele>
        <time>2011-08-17T08:08:44Z</time>
      </trkpt>
      <trkpt lat="43.95005" lon="1.91963">
        <ele>241</ele>
        <time>2011-08-17T08:08:45Z</time>
      </trkpt>
      <trkpt lat="43.95007" lon="1.9196">
        <ele>241</ele>
        <time>2011-08-17T08:08:46Z</time>
      </trkpt>
      <trkpt lat="43.95008" lon="1.91958">
        <ele>241</ele>
        <time>2011-08-17T08:08:47Z</time>
      </trkpt>
      <trkpt lat="43.9501" lon="1.91955">
        <ele>241</ele>
        <time>2011-08-17T08:08:48Z</time>
      </trkpt>
      <trkpt lat="43.95011" lon="1.91952">
        <ele>241</ele>
        <time>2011-08-17T08:08:49Z</time>
      </trkpt>
      <trkpt lat="43.95013" lon="1.91949">
        <ele>241</ele>
        <time>2011-08-17T08:08:50Z</time>
      </trkpt>
      <trkpt lat="43.95014" lon="1.91946">
        <ele>241</ele>
        <time>2011-08-17T08:08:51Z</time>
      </trkpt>
      <trkpt lat="43.95016" lon="1.91943">
        <ele>241</ele>
        <time>2011-08-17T08:08:52Z</time>
      </trkpt>
      <trkpt lat="43.95017" lon="1.91939">
        <ele>241</ele>
        <time>2011-08-17T08:08:53Z</time>
      </trkpt>
      <trkpt lat="43.95018" lon="1.91936">
        <ele>241</ele>
        <time>2011-08-17T08:08:54Z</time>
      </trkpt>
      <trkpt lat="43.95018" lon="1.91933">
        <ele>241</ele>
        <time>2011-08-17T08:08:55Z</time>
      </trkpt>
      <trkpt lat="43.95018" lon="1.9193">
        <ele>241</ele>
        <time>2011-08-17T08:08:56Z</time>
      </trkpt>
      <trkpt lat="43.95019" lon="1.91927">
        <ele>241</ele>
        <time>2011-08-17T08:08:57Z</time>
      </trkpt>
      <trkpt lat="43.9502" lon="1.91925">
        <ele>241</ele>
        <time>2011-08-17T08:08:58Z</time>
      </trkpt>
      <trkpt lat="43.95021" lon="1.91922">
        <ele>241</ele>
        <time>2011-08-17T08:08:59Z</time>
      </trkpt>
      <trkpt lat="43.95023" lon="1.9192">
        <ele>241</ele>
        <time>2011-08-17T08:09:00Z</time>
      </trkpt>
      <trkpt lat="43.95024" lon="1.91918">
        <ele>241</ele>
        <time>2011-08-17T08:09:01Z</time>
      </trkpt>
      <trkpt lat="43.95026" lon="1.91915">
        <ele>241</ele>
        <time>2011-08-17T08:09:02Z</time>
      </trkpt>
      <trkpt lat="43.95027" lon="1.91913">
        <ele>241</ele>
        <time>2011-08-17T08:09:03Z</time>
      </trkpt>
      <trkpt lat="43.95029" lon="1.91911">
        <ele>241</ele>
        <time>2011-08-17T08:09:04Z</time>
      </trkpt>
      <trkpt lat="43.9503" lon="1.91908">
        <ele>241</ele>
        <time>2011-08-17T08:09:05Z</time>
      </trkpt>
      <trkpt lat="43.95032" lon="1.91906">
        <ele>241</ele>
        <time>2011-08-17T08:09:06Z</time>
      </trkpt>
      <trkpt lat="43.95034" lon="1.91904">
        <ele>241</ele>
        <time>2011-08-17T08:09:07Z</time>
      </trkpt>
      <trkpt lat="43.95035" lon="1.91902">
        <ele>241</ele>
        <time>2011-08-17T08:09:08Z</time>
      </trkpt>
      <trkpt lat="43.95037" lon="1.91901">
        <ele>241</ele>
        <time>2011-08-17T08:09:09Z</time>
      </trkpt>
      <trkpt lat="43.95039" lon="1.919">
        <ele>241</ele>
        <time>2011-08-17T08:09:10Z</time>
      </trkpt>
      <trkpt lat="43.9504" lon="1.91898">
        <ele>241</ele>
        <time>2011-08-17T08:09:11Z</time>
      </trkpt>
      <trkpt lat="43.95042" lon="1.91896">
        <ele>241</ele>
        <time>2011-08-17T08:09:12Z</time>
      </trkpt>
      <trkpt lat="43.95043" lon="1.91895">
        <ele>241</ele>
        <time>2011-08-17T08:09:13Z</time>
      </trkpt>
      <trkpt lat="43.95044" lon="1.91893">
        <ele>241</ele>
        <time>2011-08-17T08:09:14Z</time>
      </trkpt>
      <trkpt lat="43.95046" lon="1.91892">
        <ele>241</ele>
        <time>2011-08-17T08:09:15Z</time>
      </trkpt>
      <trkpt lat="43.95048" lon="1.9189">
        <ele>241</ele>
        <time>2011-08-17T08:09:16Z</time>
      </trkpt>
      <trkpt lat="43.9505" lon="1.91888">
        <ele>241</ele>
        <time>2011-08-17T08:09:17Z</time>
      </trkpt>
      <trkpt lat="43.95051" lon="1.91886">
        <ele>241</ele>
        <time>2011-08-17T08:09:18Z</time>
      </trkpt>
      <trkpt lat="43.95052" lon="1.91885">
        <ele>241</ele>
        <time>2011-08-17T08:09:19Z</time>
      </trkpt>
      <trkpt lat="43.95054" lon="1.91884">
        <ele>241</ele>
        <time>2011-08-17T08:09:20Z</time>
      </trkpt>
      <trkpt lat="43.95055" lon="1.91882">
        <ele>241</ele>
        <time>2011-08-17T08:09:21Z</time>
      </trkpt>
      <trkpt lat="43.95057" lon="1.9188">
        <ele>241</ele>
        <time>2011-08-17T08:09:22Z</time>
      </trkpt>
      <trkpt lat="43.95058" lon="1.91878">
        <ele>241</ele>
        <time>2011-08-17T08:09:23Z</time>
      </trkpt>
      <trkpt lat="43.9506" lon="1.91877">
        <ele>241</ele>
        <time>2011-08-17T08:09:24Z</time>
      </trkpt>
      <trkpt lat="43.95062" lon="1.91875">
        <ele>241</ele>
        <time>2011-08-17T08:09:25Z</time>
      </trkpt>
      <trkpt lat="43.95063" lon="1.91873">
        <ele>241</ele>
        <time>2011-08-17T08:09:26Z</time>
      </trkpt>
      <trkpt lat="43.95065" lon="1.91871">
        <ele>241</ele>
        <time>2011-08-17T08:09:27Z</time>
      </trkpt>
      <trkpt lat="43.95067" lon="1.91869">
        <ele>241</ele>
        <time>2011-08-17T08:09:28Z</time>
      </trkpt>
      <trkpt lat="43.95068" lon="1.91868">
        <ele>241</ele>
        <time>2011-08-17T08:09:29Z</time>
      </trkpt>
      <trkpt lat="43.9507" lon="1.91866">
        <ele>241</ele>
        <time>2011-08-17T08:09:30Z</time>
      </trkpt>
      <trkpt lat="43.95072" lon="1.91864">
        <ele>241</ele>
        <time>2011-08-17T08:09:31Z</time>
      </trkpt>
      <trkpt lat="43.95073" lon="1.91862">
        <ele>241</ele>
        <time>2011-08-17T08:09:32Z</time>
      </trkpt>
      <trkpt lat="43.95075" lon="1.91861">
        <ele>241</ele>
        <time>2011-08-17T08:09:33Z</time>
      </trkpt>
      <trkpt lat="43.95077" lon="1.91859">
        <ele>241</ele>
        <time>2011-08-17T08:09:34Z</time>
      </trkpt>
      <trkpt lat="43.95079" lon="1.91857">
        <ele>241</ele>
        <time>2011-08-17T08:09:35Z</time>
      </trkpt>
      <trkpt lat="43.9508" lon="1.91856">
        <ele>241</ele>
        <time>2011-08-17T08:09:36Z</time>
      </trkpt>
      <trkpt lat="43.95082" lon="1.91854">
        <ele>241</ele>
        <time>2011-08-17T08:09:37Z</time>
      </trkpt>
      <trkpt lat="43.95084" lon="1.91852">
        <ele>241</ele>
        <time>2011-08-17T08:09:38Z</time>
      </trkpt>
      <trkpt lat="43.95085" lon="1.9185">
        <ele>241</ele>
        <time>2011-08-17T08:09:39Z</time>
      </trkpt>
      <trkpt lat="43.95087" lon="1.91849">
        <ele>241</ele>
        <time>2011-08-17T08:09:40Z</time>
      </trkpt>
      <trkpt lat="43.95088" lon="1.91847">
        <ele>241</ele>
        <time>2011-08-17T08:09:41Z</time>
      </trkpt>
      <trkpt lat="43.9509" lon="1.91845">
        <ele>241</ele>
        <time>2011-08-17T08:09:42Z</time>
      </trkpt>
      <trkpt lat="43.95091" lon="1.91843">
        <ele>241</ele>
        <time>2011-08-17T08:09:43Z</time>
      </trkpt>
      <trkpt lat="43.95093" lon="1.91842">
        <ele>241</ele>
        <time>2011-08-17T08:09:44Z</time>
      </trkpt>
      <trkpt lat="43.95095" lon="1.9184">
        <ele>241</ele>
        <time>2011-08-17T08:09:45Z</time>
      </trkpt>
      <trkpt lat="43.95097" lon="1.91838">
        <ele>241</ele>
        <time>2011-08-17T08:09:46Z</time>
      </trkpt>
      <trkpt lat="43.95098" lon="1.91836">
        <ele>241</ele>
        <time>2011-08-17T08:09:47Z</time>
      </trkpt>
      <trkpt lat="43.951" lon="1.91834">
        <ele>241</ele>
        <time>2011-08-17T08:09:48Z</time>
      </trkpt>
      <trkpt lat="43.95102" lon="1.91833">
        <ele>241</ele>
        <time>2011-08-17T08:09:49Z</time>
      </trkpt>
      <trkpt lat="43.95104" lon="1.91831">
        <ele>241</ele>
        <time>2011-08-17T08:09:50Z</time>
      </trkpt>
      <trkpt lat="43.95106" lon="1.91829">
        <ele>241</ele>
        <time>2011-08-17T08:09:51Z</time>
      </trkpt>
      <trkpt lat="43.95107" lon="1.91827">
        <ele>241</ele>
        <time>2011-08-17T08:09:52Z</time>
      </trkpt>
      <trkpt lat="43.95109" lon="1.91826">
        <ele>241</ele>
        <time>2011-08-17T08:09:53Z</time>
      </trkpt>
      <trkpt lat="43.95111" lon="1.91824">
        <ele>241</ele>
        <time>2011-08-17T08:09:54Z</time>
      </trkpt>
      <trkpt lat="43.95113" lon="1.91822">
        <ele>241</ele>
        <time>2011-08-17T08:09:55Z</time>
      </trkpt>
      <trkpt lat="43.95115" lon="1.9182">
        <ele>241</ele>
        <time>2011-08-17T08:09:56Z</time>
      </trkpt>
      <trkpt lat="43.95117" lon="1.91818">
        <ele>241</ele>
        <time>2011-08-17T08:09:57Z</time>
      </trkpt>
      <trkpt lat="43.95119" lon="1.91816">
        <ele>241</ele>
        <time>2011-08-17T08:09:58Z</time>
      </trkpt>
      <trkpt lat="43.95121" lon="1.91814">
        <ele>241</ele>
        <time>2011-08-17T08:09:59Z</time>
      </trkpt>
      <trkpt lat="43.95123" lon="1.91812">
        <ele>241</ele>
        <time>2011-08-17T08:10:00Z</time>
      </trkpt>
      <trkpt lat="43.95124" lon="1.9181">
        <ele>241</ele>
        <time>2011-08-17T08:10:01Z</time>
      </trkpt>
      <trkpt lat="43.95126" lon="1.91808">
        <ele>241</ele>
        <time>2011-08-17T08:10:02Z</time>
      </trkpt>
      <trkpt lat="43.95127" lon="1.91807">
        <ele>241</ele>
        <time>2011-08-17T08:10:03Z</time>
      </trkpt>
      <trkpt lat="43.95129" lon="1.91805">
        <ele>241</ele>
        <time>2011-08-17T08:10:04Z</time>
      </trkpt>
      <trkpt lat="43.95131" lon="1.91804">
        <ele>241</ele>
        <time>2011-08-17T08:10:05Z</time>
      </trkpt>
      <trkpt lat="43.95132" lon="1.91802">
        <ele>241</ele>
        <time>2011-08-17T08:10:06Z</time>
      </trkpt>
      <trkpt lat="43.95134" lon="1.918">
        <ele>241</ele>
        <time>2011-08-17T08:10:07Z</time>
      </trkpt>
      <trkpt lat="43.95136" lon="1.91799">
        <ele>241</ele>
        <time>2011-08-17T08:10:08Z</time>
      </trkpt>
      <trkpt lat="43.95138" lon="1.91798">
        <ele>241</ele>
        <time>2011-08-17T08:10:09Z</time>
      </trkpt>
      <trkpt lat="43.9514" lon="1.91797">
        <ele>241</ele>
        <time>2011-08-17T08:10:10Z</time>
      </trkpt>
      <trkpt lat="43.95142" lon="1.91795">
        <ele>241</ele>
        <time>2011-08-17T08:10:11Z</time>
      </trkpt>
      <trkpt lat="43.95144" lon="1.91793">
        <ele>241</ele>
        <time>2011-08-17T08:10:12Z</time>
      </trkpt>
      <trkpt lat="43.95145" lon="1.91791">
        <ele>241</ele>
        <time>2011-08-17T08:10:13Z</time>
      </trkpt>
      <trkpt lat="43.95147" lon="1.91789">
        <ele>241</ele>
        <time>2011-08-17T08:10:14Z</time>
      </trkpt>
      <trkpt lat="43.9515" lon="1.91787">
        <ele>241</ele>
        <time>2011-08-17T08:10:15Z</time>
      </trkpt>
      <trkpt lat="43.95152" lon="1.91785">
        <ele>241</ele>
        <time>2011-08-17T08:10:16Z</time>
      </trkpt>
      <trkpt lat="43.95153" lon="1.91783">
        <ele>241</ele>
        <time>2011-08-17T08:10:17Z</time>
      </trkpt>
      <trkpt lat="43.95155" lon="1.9178">
        <ele>241</ele>
        <time>2011-08-17T08:10:18Z</time>
      </trkpt>
      <trkpt lat="43.95158" lon="1.91778">
        <ele>241</ele>
        <time>2011-08-17T08:10:19Z</time>
      </trkpt>
      <trkpt lat="43.9516" lon="1.91776">
        <ele>241</ele>
        <time>2011-08-17T08:10:20Z</time>
      </trkpt>
      <trkpt lat="43.95161" lon="1.91774">
        <ele>241</ele>
        <time>2011-08-17T08:10:21Z</time>
      </trkpt>
      <trkpt lat="43.95163" lon="1.91772">
        <ele>241</ele>
        <time>2011-08-17T08:10:22Z</time>
      </trkpt>
      <trkpt lat="43.95165" lon="1.91771">
        <ele>241</ele>
        <time>2011-08-17T08:10:23Z</time>
      </trkpt>
      <trkpt lat="43.95167" lon="1.91769">
        <ele>241</ele>
        <time>2011-08-17T08:10:24Z</time>
      </trkpt>
      <trkpt lat="43.95169" lon="1.91766">
        <ele>241</ele>
        <time>2011-08-17T08:10:25Z</time>
      </trkpt>
      <trkpt lat="43.95171" lon="1.91764">
        <ele>241</ele>
        <time>2011-08-17T08:10:26Z</time>
      </trkpt>
      <trkpt lat="43.95173" lon="1.91762">
        <ele>241</ele>
        <time>2011-08-17T08:10:27Z</time>
      </trkpt>
      <trkpt lat="43.95175" lon="1.9176">
        <ele>241</ele>
        <time>2011-08-17T08:10:28Z</time>
      </trkpt>
      <trkpt lat="43.95177" lon="1.91758">
        <ele>241</ele>
        <time>2011-08-17T08:10:29Z</time>
      </trkpt>
      <trkpt lat="43.95179" lon="1.91756">
        <ele>241</ele>
        <time>2011-08-17T08:10:30Z</time>
      </trkpt>
      <trkpt lat="43.95181" lon="1.91754">
        <ele>241</ele>
        <time>2011-08-17T08:10:31Z</time>
      </trkpt>
      <trkpt lat="43.95183" lon="1.91752">
        <ele>241</ele>
        <time>2011-08-17T08:10:32Z</time>
      </trkpt>
      <trkpt lat="43.95185" lon="1.91751">
        <ele>241</ele>
        <time>2011-08-17T08:10:33Z</time>
      </trkpt>
      <trkpt lat="43.95187" lon="1.91749">
        <ele>241</ele>
        <time>2011-08-17T08:10:34Z</time>
      </trkpt>
      <trkpt lat="43.95188" lon="1.91747">
        <ele>241</ele>
        <time>2011-08-17T08:10:35Z</time>
      </trkpt>
      <trkpt lat="43.9519" lon="1.91745">
        <ele>241</ele>
        <time>2011-08-17T08:10:36Z</time>
      </trkpt>
      <trkpt lat="43.95192" lon="1.91744">
        <ele>241</ele>
        <time>2011-08-17T08:10:37Z</time>
      </trkpt>
      <trkpt lat="43.95193" lon="1.91742">
        <ele>241</ele>
        <time>2011-08-17T08:10:38Z</time>
      </trkpt>
      <trkpt lat="43.95195" lon="1.9174">
        <ele>241</ele>
        <time>2011-08-17T08:10:39Z</time>
      </trkpt>
      <trkpt lat="43.95196" lon="1.91738">
        <ele>241</ele>
        <time>2011-08-17T08:10:40Z</time>
      </trkpt>
      <trkpt lat="43.95196" lon="1.91736">
        <ele>241</ele>
        <time>2011-08-17T08:10:41Z</time>
      </trkpt>
      <trkpt lat="43.95196" lon="1.91733">
        <ele>241</ele>
        <time>2011-08-17T08:10:42Z</time>
      </trkpt>
      <trkpt lat="43.95195" lon="1.9173">
        <ele>241</ele>
        <time>2011-08-17T08:10:43Z</time>
      </trkpt>
      <trkpt lat="43.95192" lon="1.91728">
        <ele>241</ele>
        <time>2011-08-17T08:10:44Z</time>
      </trkpt>
      <trkpt lat="43.95189" lon="1.91726">
        <ele>241</ele>
        <time>2011-08-17T08:10:45Z</time>
      </trkpt>
      <trkpt lat="43.95186" lon="1.91724">
        <ele>241</ele>
        <time>2011-08-17T08:10:46Z</time>
      </trkpt>
      <trkpt lat="43.95182" lon="1.91722">
        <ele>241</ele>
        <time>2011-08-17T08:10:47Z</time>
      </trkpt>
      <trkpt lat="43.95178" lon="1.91719">
        <ele>241</ele>
        <time>2011-08-17T08:10:48Z</time>
      </trkpt>
      <trkpt lat="43.95174" lon="1.91717">
        <ele>241</ele>
        <time>2011-08-17T08:10:49Z</time>
      </trkpt>
      <trkpt lat="43.95169" lon="1.91713">
        <ele>241</ele>
        <time>2011-08-17T08:10:50Z</time>
      </trkpt>
      <trkpt lat="43.95164" lon="1.9171">
        <ele>241</ele>
        <time>2011-08-17T08:10:51Z</time>
      </trkpt>
      <trkpt lat="43.95159" lon="1.91707">
        <ele>241</ele>
        <time>2011-08-17T08:10:52Z</time>
      </trkpt>
      <trkpt lat="43.95154" lon="1.91703">
        <ele>241</ele>
        <time>2011-08-17T08:10:53Z</time>
      </trkpt>
      <trkpt lat="43.95148" lon="1.917">
        <ele>241</ele>
        <time>2011-08-17T08:10:54Z</time>
      </trkpt>
      <trkpt lat="43.95143" lon="1.91696">
        <ele>241</ele>
        <time>2011-08-17T08:10:55Z</time>
      </trkpt>
      <trkpt lat="43.95138" lon="1.91693">
        <ele>240</ele>
        <time>2011-08-17T08:10:56Z</time>
      </trkpt>
      <trkpt lat="43.95132" lon="1.9169">
        <ele>239</ele>
        <time>2011-08-17T08:10:57Z</time>
      </trkpt>
      <trkpt lat="43.95126" lon="1.91686">
        <ele>238</ele>
        <time>2011-08-17T08:10:58Z</time>
      </trkpt>
      <trkpt lat="43.9512" lon="1.91683">
        <ele>238</ele>
        <time>2011-08-17T08:10:59Z</time>
      </trkpt>
      <trkpt lat="43.95113" lon="1.91678">
        <ele>237</ele>
        <time>2011-08-17T08:11:00Z</time>
      </trkpt>
      <trkpt lat="43.95105" lon="1.91674">
        <ele>236</ele>
        <time>2011-08-17T08:11:01Z</time>
      </trkpt>
      <trkpt lat="43.95097" lon="1.91669">
        <ele>235</ele>
        <time>2011-08-17T08:11:02Z</time>
      </trkpt>
      <trkpt lat="43.9509" lon="1.91664">
        <ele>234</ele>
        <time>2011-08-17T08:11:03Z</time>
      </trkpt>
      <trkpt lat="43.95082" lon="1.91659">
        <ele>233</ele>
        <time>2011-08-17T08:11:04Z</time>
      </trkpt>
      <trkpt lat="43.95074" lon="1.91653">
        <ele>232</ele>
        <time>2011-08-17T08:11:05Z</time>
      </trkpt>
      <trkpt lat="43.95066" lon="1.91647">
        <ele>232</ele>
        <time>2011-08-17T08:11:06Z</time>
      </trkpt>
      <trkpt lat="43.95059" lon="1.9164">
        <ele>231</ele>
        <time>2011-08-17T08:11:07Z</time>
      </trkpt>
      <trkpt lat="43.95052" lon="1.91633">
        <ele>231</ele>
        <time>2011-08-17T08:11:08Z</time>
      </trkpt>
      <trkpt lat="43.95046" lon="1.91627">
        <ele>230</ele>
        <time>2011-08-17T08:11:09Z</time>
      </trkpt>
      <trkpt lat="43.9504" lon="1.91621">
        <ele>230</ele>
        <time>2011-08-17T08:11:10Z</time>
      </trkpt>
      <trkpt lat="43.95034" lon="1.91616">
        <ele>230</ele>
        <time>2011-08-17T08:11:11Z</time>
      </trkpt>
      <trkpt lat="43.95029" lon="1.91612">
        <ele>230</ele>
        <time>2011-08-17T08:11:12Z</time>
      </trkpt>
      <trkpt lat="43.95025" lon="1.91608">
        <ele>230</ele>
        <time>2011-08-17T08:11:13Z</time>
      </trkpt>
      <trkpt lat="43.95021" lon="1.91605">
        <ele>230</ele>
        <time>2011-08-17T08:11:14Z</time>
      </trkpt>
      <trkpt lat="43.95016" lon="1.91602">
        <ele>230</ele>
        <time>2011-08-17T08:11:15Z</time>
      </trkpt>
      <trkpt lat="43.95013" lon="1.916">
        <ele>230</ele>
        <time>2011-08-17T08:11:16Z</time>
      </trkpt>
      <trkpt lat="43.95009" lon="1.91597">
        <ele>230</ele>
        <time>2011-08-17T08:11:17Z</time>
      </trkpt>
      <trkpt lat="43.95005" lon="1.91595">
        <ele>230</ele>
        <time>2011-08-17T08:11:18Z</time>
      </trkpt>
      <trkpt lat="43.95002" lon="1.91593">
        <ele>230</ele>
        <time>2011-08-17T08:11:19Z</time>
      </trkpt>
      <trkpt lat="43.94998" lon="1.91591">
        <ele>230</ele>
        <time>2011-08-17T08:11:20Z</time>
      </trkpt>
      <trkpt lat="43.94995" lon="1.91589">
        <ele>230</ele>
        <time>2011-08-17T08:11:21Z</time>
      </trkpt>
      <trkpt lat="43.94991" lon="1.91587">
        <ele>230</ele>
        <time>2011-08-17T08:11:22Z</time>
      </trkpt>
      <trkpt lat="43.94987" lon="1.91585">
        <ele>230</ele>
        <time>2011-08-17T08:11:23Z</time>
      </trkpt>
      <trkpt lat="43.94983" lon="1.91583">
        <ele>230</ele>
        <time>2011-08-17T08:11:24Z</time>
      </trkpt>
      <trkpt lat="43.94979" lon="1.9158">
        <ele>230</ele>
        <time>2011-08-17T08:11:25Z</time>
      </trkpt>
      <trkpt lat="43.94974" lon="1.91577">
        <ele>230</ele>
        <time>2011-08-17T08:11:26Z</time>
      </trkpt>
      <trkpt lat="43.9497" lon="1.91575">
        <ele>230</ele>
        <time>2011-08-17T08:11:27Z</time>
      </trkpt>
      <trkpt lat="43.94966" lon="1.91572">
        <ele>230</ele>
        <time>2011-08-17T08:11:28Z</time>
      </trkpt>
      <trkpt lat="43.94962" lon="1.91569">
        <ele>230</ele>
        <time>2011-08-17T08:11:29Z</time>
      </trkpt>
      <trkpt lat="43.94958" lon="1.91567">
        <ele>230</ele>
        <time>2011-08-17T08:11:30Z</time>
      </trkpt>
      <trkpt lat="43.94955" lon="1.91564">
        <ele>230</ele>
        <time>2011-08-17T08:11:31Z</time>
      </trkpt>
      <trkpt lat="43.94952" lon="1.91561">
        <ele>230</ele>
        <time>2011-08-17T08:11:32Z</time>
      </trkpt>
      <trkpt lat="43.9495" lon="1.91559">
        <ele>229</ele>
        <time>2011-08-17T08:11:33Z</time>
      </trkpt>
      <trkpt lat="43.94947" lon="1.91556">
        <ele>229</ele>
        <time>2011-08-17T08:11:34Z</time>
      </trkpt>
      <trkpt lat="43.94945" lon="1.91554">
        <ele>228</ele>
        <time>2011-08-17T08:11:35Z</time>
      </trkpt>
      <trkpt lat="43.94943" lon="1.91552">
        <ele>228</ele>
        <time>2011-08-17T08:11:36Z</time>
      </trkpt>
      <trkpt lat="43.94942" lon="1.91549">
        <ele>228</ele>
        <time>2011-08-17T08:11:37Z</time>
      </trkpt>
      <trkpt lat="43.94941" lon="1.91546">
        <ele>227</ele>
        <time>2011-08-17T08:11:38Z</time>
      </trkpt>
      <trkpt lat="43.9494" lon="1.91543">
        <ele>227</ele>
        <time>2011-08-17T08:11:39Z</time>
      </trkpt>
      <trkpt lat="43.94939" lon="1.9154">
        <ele>227</ele>
        <time>2011-08-17T08:11:40Z</time>
      </trkpt>
      <trkpt lat="43.94938" lon="1.91537">
        <ele>226</ele>
        <time>2011-08-17T08:11:41Z</time>
      </trkpt>
      <trkpt lat="43.94938" lon="1.91534">
        <ele>226</ele>
        <time>2011-08-17T08:11:42Z</time>
      </trkpt>
      <trkpt lat="43.94938" lon="1.91531">
        <ele>226</ele>
        <time>2011-08-17T08:11:43Z</time>
      </trkpt>
      <trkpt lat="43.94938" lon="1.91528">
        <ele>226</ele>
        <time>2011-08-17T08:11:44Z</time>
      </trkpt>
      <trkpt lat="43.94938" lon="1.91526">
        <ele>226</ele>
        <time>2011-08-17T08:11:45Z</time>
      </trkpt>
      <trkpt lat="43.94938" lon="1.91523">
        <ele>225</ele>
        <time>2011-08-17T08:11:46Z</time>
      </trkpt>
      <trkpt lat="43.94938" lon="1.9152">
        <ele>225</ele>
        <time>2011-08-17T08:11:47Z</time>
      </trkpt>
      <trkpt lat="43.94937" lon="1.91517">
        <ele>225</ele>
        <time>2011-08-17T08:11:48Z</time>
      </trkpt>
      <trkpt lat="43.94937" lon="1.91514">
        <ele>225</ele>
        <time>2011-08-17T08:11:49Z</time>
      </trkpt>
      <trkpt lat="43.94937" lon="1.91511">
        <ele>225</ele>
        <time>2011-08-17T08:11:50Z</time>
      </trkpt>
      <trkpt lat="43.94936" lon="1.91508">
        <ele>225</ele>
        <time>2011-08-17T08:11:51Z</time>
      </trkpt>
      <trkpt lat="43.94935" lon="1.91504">
        <ele>225</ele>
        <time>2011-08-17T08:11:52Z</time>
      </trkpt>
      <trkpt lat="43.94934" lon="1.91501">
        <ele>225</ele>
        <time>2011-08-17T08:11:53Z</time>
      </trkpt>
      <trkpt lat="43.94932" lon="1.91499">
        <ele>225</ele>
        <time>2011-08-17T08:11:54Z</time>
      </trkpt>
      <trkpt lat="43.94931" lon="1.91495">
        <ele>225</ele>
        <time>2011-08-17T08:11:55Z</time>
      </trkpt>
      <trkpt lat="43.94929" lon="1.91491">
        <ele>225</ele>
        <time>2011-08-17T08:11:56Z</time>
      </trkpt>
      <trkpt lat="43.94927" lon="1.91487">
        <ele>224</ele>
        <time>2011-08-17T08:11:57Z</time>
      </trkpt>
      <trkpt lat="43.94925" lon="1.91483">
        <ele>224</ele>
        <time>2011-08-17T08:11:58Z</time>
      </trkpt>
      <trkpt lat="43.94923" lon="1.91479">
        <ele>224</ele>
        <time>2011-08-17T08:11:59Z</time>
      </trkpt>
      <trkpt lat="43.94921" lon="1.91476">
        <ele>224</ele>
        <time>2011-08-17T08:12:00Z</time>
      </trkpt>
      <trkpt lat="43.9492" lon="1.91474">
        <ele>223</ele>
        <time>2011-08-17T08:12:01Z</time>
      </trkpt>
      <trkpt lat="43.94919" lon="1.91472">
        <ele>223</ele>
        <time>2011-08-17T08:12:02Z</time>
      </trkpt>
      <trkpt lat="43.94918" lon="1.9147">
        <ele>223</ele>
        <time>2011-08-17T08:12:03Z</time>
      </trkpt>
      <trkpt lat="43.94917" lon="1.91469">
        <ele>223</ele>
        <time>2011-08-17T08:12:04Z</time>
      </trkpt>
      <trkpt lat="43.94915" lon="1.91467">
        <ele>223</ele>
        <time>2011-08-17T08:12:05Z</time>
      </trkpt>
      <trkpt lat="43.94914" lon="1.91464">
        <ele>223</ele>
        <time>2011-08-17T08:12:07Z</time>
      </trkpt>
      <trkpt lat="43.94913" lon="1.91462">
        <ele>222</ele>
        <time>2011-08-17T08:12:08Z</time>
      </trkpt>
      <trkpt lat="43.94912" lon="1.9146">
        <ele>222</ele>
        <time>2011-08-17T08:12:09Z</time>
      </trkpt>
      <trkpt lat="43.9491" lon="1.91459">
        <ele>222</ele>
        <time>2011-08-17T08:12:10Z</time>
      </trkpt>
      <trkpt lat="43.94909" lon="1.91457">
        <ele>222</ele>
        <time>2011-08-17T08:12:11Z</time>
      </trkpt>
      <trkpt lat="43.94908" lon="1.91455">
        <ele>222</ele>
        <time>2011-08-17T08:12:12Z</time>
      </trkpt>
      <trkpt lat="43.94907" lon="1.91454">
        <ele>222</ele>
        <time>2011-08-17T08:12:13Z</time>
      </trkpt>
      <trkpt lat="43.94906" lon="1.91452">
        <ele>221</ele>
        <time>2011-08-17T08:12:14Z</time>
      </trkpt>
      <trkpt lat="43.94905" lon="1.91449">
        <ele>221</ele>
        <time>2011-08-17T08:12:15Z</time>
      </trkpt>
      <trkpt lat="43.94904" lon="1.91447">
        <ele>221</ele>
        <time>2011-08-17T08:12:16Z</time>
      </trkpt>
      <trkpt lat="43.94903" lon="1.91444">
        <ele>220</ele>
        <time>2011-08-17T08:12:17Z</time>
      </trkpt>
      <trkpt lat="43.94901" lon="1.91441">
        <ele>219</ele>
        <time>2011-08-17T08:12:18Z</time>
      </trkpt>
      <trkpt lat="43.94899" lon="1.91438">
        <ele>219</ele>
        <time>2011-08-17T08:12:19Z</time>
      </trkpt>
      <trkpt lat="43.94896" lon="1.91435">
        <ele>218</ele>
        <time>2011-08-17T08:12:20Z</time>
      </trkpt>
      <trkpt lat="43.94894" lon="1.91432">
        <ele>218</ele>
        <time>2011-08-17T08:12:21Z</time>
      </trkpt>
      <trkpt lat="43.94891" lon="1.9143">
        <ele>217</ele>
        <time>2011-08-17T08:12:22Z</time>
      </trkpt>
      <trkpt lat="43.94889" lon="1.91428">
        <ele>217</ele>
        <time>2011-08-17T08:12:23Z</time>
      </trkpt>
      <trkpt lat="43.94887" lon="1.91427">
        <ele>217</ele>
        <time>2011-08-17T08:12:24Z</time>
      </trkpt>
      <trkpt lat="43.94885" lon="1.91425">
        <ele>216</ele>
        <time>2011-08-17T08:12:25Z</time>
      </trkpt>
      <trkpt lat="43.94883" lon="1.91422">
        <ele>216</ele>
        <time>2011-08-17T08:12:26Z</time>
      </trkpt>
      <trkpt lat="43.94881" lon="1.9142">
        <ele>215</ele>
        <time>2011-08-17T08:12:27Z</time>
      </trkpt>
      <trkpt lat="43.9488" lon="1.91419">
        <ele>215</ele>
        <time>2011-08-17T08:12:28Z</time>
      </trkpt>
      <trkpt lat="43.94879" lon="1.91419">
        <ele>214</ele>
        <time>2011-08-17T08:12:30Z</time>
      </trkpt>
      <trkpt lat="43.94877" lon="1.9142">
        <ele>214</ele>
        <time>2011-08-17T08:12:33Z</time>
      </trkpt>
      <trkpt lat="43.94876" lon="1.91421">
        <ele>214</ele>
        <time>2011-08-17T08:12:39Z</time>
      </trkpt>
      <trkpt lat="43.94876" lon="1.91418">
        <ele>214</ele>
        <time>2011-08-17T08:12:41Z</time>
      </trkpt>
      <trkpt lat="43.94875" lon="1.91416">
        <ele>214</ele>
        <time>2011-08-17T08:12:42Z</time>
      </trkpt>
      <trkpt lat="43.94874" lon="1.91412">
        <ele>214</ele>
        <time>2011-08-17T08:12:43Z</time>
      </trkpt>
      <trkpt lat="43.94873" lon="1.91409">
        <ele>214</ele>
        <time>2011-08-17T08:12:44Z</time>
      </trkpt>
      <trkpt lat="43.9487" lon="1.91404">
        <ele>214</ele>
        <time>2011-08-17T08:12:45Z</time>
      </trkpt>
      <trkpt lat="43.94865" lon="1.914">
        <ele>214</ele>
        <time>2011-08-17T08:12:46Z</time>
      </trkpt>
      <trkpt lat="43.9486" lon="1.91394">
        <ele>214</ele>
        <time>2011-08-17T08:12:47Z</time>
      </trkpt>
      <trkpt lat="43.94856" lon="1.91387">
        <ele>214</ele>
        <time>2011-08-17T08:12:48Z</time>
      </trkpt>
      <trkpt lat="43.9485" lon="1.9138">
        <ele>214</ele>
        <time>2011-08-17T08:12:49Z</time>
      </trkpt>
      <trkpt lat="43.94844" lon="1.91372">
        <ele>214</ele>
        <time>2011-08-17T08:12:50Z</time>
      </trkpt>
      <trkpt lat="43.94837" lon="1.91363">
        <ele>213</ele>
        <time>2011-08-17T08:12:51Z</time>
      </trkpt>
      <trkpt lat="43.9483" lon="1.91354">
        <ele>212</ele>
        <time>2011-08-17T08:12:52Z</time>
      </trkpt>
      <trkpt lat="43.94822" lon="1.91344">
        <ele>211</ele>
        <time>2011-08-17T08:12:53Z</time>
      </trkpt>
      <trkpt lat="43.94813" lon="1.91335">
        <ele>210</ele>
        <time>2011-08-17T08:12:54Z</time>
      </trkpt>
      <trkpt lat="43.94804" lon="1.91326">
        <ele>209</ele>
        <time>2011-08-17T08:12:55Z</time>
      </trkpt>
      <trkpt lat="43.94795" lon="1.91317">
        <ele>208</ele>
        <time>2011-08-17T08:12:56Z</time>
      </trkpt>
      <trkpt lat="43.94785" lon="1.91308">
        <ele>207</ele>
        <time>2011-08-17T08:12:57Z</time>
      </trkpt>
      <trkpt lat="43.94777" lon="1.91299">
        <ele>206</ele>
        <time>2011-08-17T08:12:58Z</time>
      </trkpt>
      <trkpt lat="43.94769" lon="1.9129">
        <ele>205</ele>
        <time>2011-08-17T08:12:59Z</time>
      </trkpt>
      <trkpt lat="43.94763" lon="1.91283">
        <ele>204</ele>
        <time>2011-08-17T08:13:00Z</time>
      </trkpt>
      <trkpt lat="43.94757" lon="1.91278">
        <ele>203</ele>
        <time>2011-08-17T08:13:01Z</time>
      </trkpt>
      <trkpt lat="43.94752" lon="1.91272">
        <ele>202</ele>
        <time>2011-08-17T08:13:02Z</time>
      </trkpt>
      <trkpt lat="43.94748" lon="1.91266">
        <ele>201</ele>
        <time>2011-08-17T08:13:03Z</time>
      </trkpt>
      <trkpt lat="43.94742" lon="1.91261">
        <ele>200</ele>
        <time>2011-08-17T08:13:04Z</time>
      </trkpt>
      <trkpt lat="43.94735" lon="1.91257">
        <ele>199</ele>
        <time>2011-08-17T08:13:05Z</time>
      </trkpt>
      <trkpt lat="43.94727" lon="1.91252">
        <ele>198</ele>
        <time>2011-08-17T08:13:06Z</time>
      </trkpt>
      <trkpt lat="43.94719" lon="1.91247">
        <ele>197</ele>
        <time>2011-08-17T08:13:07Z</time>
      </trkpt>
      <trkpt lat="43.94711" lon="1.91241">
        <ele>196</ele>
        <time>2011-08-17T08:13:08Z</time>
      </trkpt>
      <trkpt lat="43.94703" lon="1.91234">
        <ele>195</ele>
        <time>2011-08-17T08:13:09Z</time>
      </trkpt>
      <trkpt lat="43.94696" lon="1.91225">
        <ele>194</ele>
        <time>2011-08-17T08:13:10Z</time>
      </trkpt>
      <trkpt lat="43.94688" lon="1.91216">
        <ele>193</ele>
        <time>2011-08-17T08:13:11Z</time>
      </trkpt>
      <trkpt lat="43.94681" lon="1.91206">
        <ele>192</ele>
        <time>2011-08-17T08:13:12Z</time>
      </trkpt>
      <trkpt lat="43.94675" lon="1.91195">
        <ele>191</ele>
        <time>2011-08-17T08:13:13Z</time>
      </trkpt>
      <trkpt lat="43.94669" lon="1.91184">
        <ele>189</ele>
        <time>2011-08-17T08:13:14Z</time>
      </trkpt>
      <trkpt lat="43.94663" lon="1.91172">
        <ele>188</ele>
        <time>2011-08-17T08:13:15Z</time>
      </trkpt>
      <trkpt lat="43.94657" lon="1.9116">
        <ele>187</ele>
        <time>2011-08-17T08:13:16Z</time>
      </trkpt>
      <trkpt lat="43.94652" lon="1.91147">
        <ele>186</ele>
        <time>2011-08-17T08:13:17Z</time>
      </trkpt>
      <trkpt lat="43.94648" lon="1.91134">
        <ele>184</ele>
        <time>2011-08-17T08:13:18Z</time>
      </trkpt>
      <trkpt lat="43.94643" lon="1.91121">
        <ele>183</ele>
        <time>2011-08-17T08:13:19Z</time>
      </trkpt>
      <trkpt lat="43.94638" lon="1.91108">
        <ele>182</ele>
        <time>2011-08-17T08:13:20Z</time>
      </trkpt>
      <trkpt lat="43.94633" lon="1.91094">
        <ele>181</ele>
        <time>2011-08-17T08:13:21Z</time>
      </trkpt>
      <trkpt lat="43.9463" lon="1.9108">
        <ele>180</ele>
        <time>2011-08-17T08:13:22Z</time>
      </trkpt>
      <trkpt lat="43.94626" lon="1.91066">
        <ele>178</ele>
        <time>2011-08-17T08:13:23Z</time>
      </trkpt>
      <trkpt lat="43.94623" lon="1.91051">
        <ele>177</ele>
        <time>2011-08-17T08:13:24Z</time>
      </trkpt>
      <trkpt lat="43.94619" lon="1.91037">
        <ele>176</ele>
        <time>2011-08-17T08:13:25Z</time>
      </trkpt>
      <trkpt lat="43.94615" lon="1.91024">
        <ele>175</ele>
        <time>2011-08-17T08:13:26Z</time>
      </trkpt>
      <trkpt lat="43.9461" lon="1.91011">
        <ele>173</ele>
        <time>2011-08-17T08:13:27Z</time>
      </trkpt>
      <trkpt lat="43.94606" lon="1.90999">
        <ele>172</ele>
        <time>2011-08-17T08:13:28Z</time>
      </trkpt>
      <trkpt lat="43.94602" lon="1.90989">
        <ele>171</ele>
        <time>2011-08-17T08:13:29Z</time>
      </trkpt>
      <trkpt lat="43.94597" lon="1.9098">
        <ele>170</ele>
        <time>2011-08-17T08:13:30Z</time>
      </trkpt>
      <trkpt lat="43.94591" lon="1.90974">
        <ele>169</ele>
        <time>2011-08-17T08:13:31Z</time>
      </trkpt>
      <trkpt lat="43.94584" lon="1.9097">
        <ele>168</ele>
        <time>2011-08-17T08:13:32Z</time>
      </trkpt>
      <trkpt lat="43.94576" lon="1.90968">
        <ele>167</ele>
        <time>2011-08-17T08:13:33Z</time>
      </trkpt>
      <trkpt lat="43.94569" lon="1.90966">
        <ele>166</ele>
        <time>2011-08-17T08:13:34Z</time>
      </trkpt>
      <trkpt lat="43.94561" lon="1.90964">
        <ele>165</ele>
        <time>2011-08-17T08:13:35Z</time>
      </trkpt>
      <trkpt lat="43.94555" lon="1.90961">
        <ele>164</ele>
        <time>2011-08-17T08:13:36Z</time>
      </trkpt>
      <trkpt lat="43.94548" lon="1.90957">
        <ele>163</ele>
        <time>2011-08-17T08:13:37Z</time>
      </trkpt>
      <trkpt lat="43.94543" lon="1.90954">
        <ele>162</ele>
        <time>2011-08-17T08:13:38Z</time>
      </trkpt>
      <trkpt lat="43.94537" lon="1.9095">
        <ele>162</ele>
        <time>2011-08-17T08:13:39Z</time>
      </trkpt>
      <trkpt lat="43.94532" lon="1.90946">
        <ele>162</ele>
        <time>2011-08-17T08:13:40Z</time>
      </trkpt>
      <trkpt lat="43.94528" lon="1.90943">
        <ele>162</ele>
        <time>2011-08-17T08:13:41Z</time>
      </trkpt>
      <trkpt lat="43.94523" lon="1.9094">
        <ele>162</ele>
        <time>2011-08-17T08:13:42Z</time>
      </trkpt>
      <trkpt lat="43.94519" lon="1.90937">
        <ele>162</ele>
        <time>2011-08-17T08:13:43Z</time>
      </trkpt>
      <trkpt lat="43.94515" lon="1.90935">
        <ele>162</ele>
        <time>2011-08-17T08:13:44Z</time>
      </trkpt>
      <trkpt lat="43.94511" lon="1.90932">
        <ele>162</ele>
        <time>2011-08-17T08:13:45Z</time>
      </trkpt>
      <trkpt lat="43.94507" lon="1.90929">
        <ele>162</ele>
        <time>2011-08-17T08:13:46Z</time>
      </trkpt>
      <trkpt lat="43.94504" lon="1.90927">
        <ele>162</ele>
        <time>2011-08-17T08:13:47Z</time>
      </trkpt>
      <trkpt lat="43.94501" lon="1.90925">
        <ele>162</ele>
        <time>2011-08-17T08:13:48Z</time>
      </trkpt>
      <trkpt lat="43.94498" lon="1.90923">
        <ele>162</ele>
        <time>2011-08-17T08:13:49Z</time>
      </trkpt>
      <trkpt lat="43.94495" lon="1.90921">
        <ele>162</ele>
        <time>2011-08-17T08:13:50Z</time>
      </trkpt>
      <trkpt lat="43.94493" lon="1.90919">
        <ele>162</ele>
        <time>2011-08-17T08:13:51Z</time>
      </trkpt>
      <trkpt lat="43.94491" lon="1.90918">
        <ele>162</ele>
        <time>2011-08-17T08:13:52Z</time>
      </trkpt>
      <trkpt lat="43.94489" lon="1.90917">
        <ele>162</ele>
        <time>2011-08-17T08:13:53Z</time>
      </trkpt>
      <trkpt lat="43.94487" lon="1.90915">
        <ele>162</ele>
        <time>2011-08-17T08:13:54Z</time>
      </trkpt>
      <trkpt lat="43.94485" lon="1.90914">
        <ele>162</ele>
        <time>2011-08-17T08:13:55Z</time>
      </trkpt>
      <trkpt lat="43.94483" lon="1.90913">
        <ele>162</ele>
        <time>2011-08-17T08:13:56Z</time>
      </trkpt>
      <trkpt lat="43.94482" lon="1.90912">
        <ele>162</ele>
        <time>2011-08-17T08:13:57Z</time>
      </trkpt>
      <trkpt lat="43.9448" lon="1.9091">
        <ele>162</ele>
        <time>2011-08-17T08:13:58Z</time>
      </trkpt>
      <trkpt lat="43.94479" lon="1.90909">
        <ele>162</ele>
        <time>2011-08-17T08:13:59Z</time>
      </trkpt>
      <trkpt lat="43.94477" lon="1.90908">
        <ele>162</ele>
        <time>2011-08-17T08:14:00Z</time>
      </trkpt>
      <trkpt lat="43.94476" lon="1.90906">
        <ele>162</ele>
        <time>2011-08-17T08:14:01Z</time>
      </trkpt>
      <trkpt lat="43.94474" lon="1.90905">
        <ele>162</ele>
        <time>2011-08-17T08:14:02Z</time>
      </trkpt>
      <trkpt lat="43.94473" lon="1.90903">
        <ele>162</ele>
        <time>2011-08-17T08:14:03Z</time>
      </trkpt>
      <trkpt lat="43.94471" lon="1.90902">
        <ele>162</ele>
        <time>2011-08-17T08:14:04Z</time>
      </trkpt>
      <trkpt lat="43.9447" lon="1.909">
        <ele>162</ele>
        <time>2011-08-17T08:14:05Z</time>
      </trkpt>
      <trkpt lat="43.94469" lon="1.90898">
        <ele>162</ele>
        <time>2011-08-17T08:14:06Z</time>
      </trkpt>
      <trkpt lat="43.94469" lon="1.90896">
        <ele>162</ele>
        <time>2011-08-17T08:14:07Z</time>
      </trkpt>
      <trkpt lat="43.94469" lon="1.90894">
        <ele>162</ele>
        <time>2011-08-17T08:14:08Z</time>
      </trkpt>
      <trkpt lat="43.94469" lon="1.90892">
        <ele>162</ele>
        <time>2011-08-17T08:14:09Z</time>
      </trkpt>
      <trkpt lat="43.94469" lon="1.9089">
        <ele>162</ele>
        <time>2011-08-17T08:14:10Z</time>
      </trkpt>
      <trkpt lat="43.94468" lon="1.90888">
        <ele>162</ele>
        <time>2011-08-17T08:14:11Z</time>
      </trkpt>
      <trkpt lat="43.94468" lon="1.90885">
        <ele>162</ele>
        <time>2011-08-17T08:14:12Z</time>
      </trkpt>
      <trkpt lat="43.94467" lon="1.90883">
        <ele>162</ele>
        <time>2011-08-17T08:14:13Z</time>
      </trkpt>
      <trkpt lat="43.94466" lon="1.90881">
        <ele>162</ele>
        <time>2011-08-17T08:14:14Z</time>
      </trkpt>
      <trkpt lat="43.94466" lon="1.90878">
        <ele>162</ele>
        <time>2011-08-17T08:14:15Z</time>
      </trkpt>
      <trkpt lat="43.94465" lon="1.90876">
        <ele>162</ele>
        <time>2011-08-17T08:14:16Z</time>
      </trkpt>
      <trkpt lat="43.94465" lon="1.90873">
        <ele>162</ele>
        <time>2011-08-17T08:14:17Z</time>
      </trkpt>
      <trkpt lat="43.94464" lon="1.9087">
        <ele>162</ele>
        <time>2011-08-17T08:14:18Z</time>
      </trkpt>
      <trkpt lat="43.94463" lon="1.90868">
        <ele>162</ele>
        <time>2011-08-17T08:14:19Z</time>
      </trkpt>
      <trkpt lat="43.94462" lon="1.90866">
        <ele>162</ele>
        <time>2011-08-17T08:14:20Z</time>
      </trkpt>
      <trkpt lat="43.94461" lon="1.90864">
        <ele>162</ele>
        <time>2011-08-17T08:14:21Z</time>
      </trkpt>
      <trkpt lat="43.94461" lon="1.90861">
        <ele>162</ele>
        <time>2011-08-17T08:14:22Z</time>
      </trkpt>
      <trkpt lat="43.9446" lon="1.90859">
        <ele>162</ele>
        <time>2011-08-17T08:14:23Z</time>
      </trkpt>
      <trkpt lat="43.94459" lon="1.90856">
        <ele>162</ele>
        <time>2011-08-17T08:14:24Z</time>
      </trkpt>
      <trkpt lat="43.94459" lon="1.90854">
        <ele>162</ele>
        <time>2011-08-17T08:14:25Z</time>
      </trkpt>
      <trkpt lat="43.94458" lon="1.90851">
        <ele>162</ele>
        <time>2011-08-17T08:14:26Z</time>
      </trkpt>
      <trkpt lat="43.94457" lon="1.90849">
        <ele>162</ele>
        <time>2011-08-17T08:14:27Z</time>
      </trkpt>
      <trkpt lat="43.94456" lon="1.90847">
        <ele>161</ele>
        <time>2011-08-17T08:14:28Z</time>
      </trkpt>
      <trkpt lat="43.94455" lon="1.90844">
        <ele>161</ele>
        <time>2011-08-17T08:14:29Z</time>
      </trkpt>
      <trkpt lat="43.94454" lon="1.90842">
        <ele>161</ele>
        <time>2011-08-17T08:14:30Z</time>
      </trkpt>
      <trkpt lat="43.94453" lon="1.90839">
        <ele>161</ele>
        <time>2011-08-17T08:14:31Z</time>
      </trkpt>
      <trkpt lat="43.94453" lon="1.90837">
        <ele>160</ele>
        <time>2011-08-17T08:14:32Z</time>
      </trkpt>
      <trkpt lat="43.94452" lon="1.90834">
        <ele>160</ele>
        <time>2011-08-17T08:14:33Z</time>
      </trkpt>
      <trkpt lat="43.9445" lon="1.90832">
        <ele>160</ele>
        <time>2011-08-17T08:14:34Z</time>
      </trkpt>
      <trkpt lat="43.94449" lon="1.90831">
        <ele>159</ele>
        <time>2011-08-17T08:14:35Z</time>
      </trkpt>
      <trkpt lat="43.94448" lon="1.90828">
        <ele>158</ele>
        <time>2011-08-17T08:14:36Z</time>
      </trkpt>
      <trkpt lat="43.94447" lon="1.90826">
        <ele>158</ele>
        <time>2011-08-17T08:14:37Z</time>
      </trkpt>
      <trkpt lat="43.94446" lon="1.90823">
        <ele>157</ele>
        <time>2011-08-17T08:14:38Z</time>
      </trkpt>
      <trkpt lat="43.94445" lon="1.90821">
        <ele>157</ele>
        <time>2011-08-17T08:14:39Z</time>
      </trkpt>
      <trkpt lat="43.94444" lon="1.90818">
        <ele>157</ele>
        <time>2011-08-17T08:14:40Z</time>
      </trkpt>
      <trkpt lat="43.94443" lon="1.90816">
        <ele>157</ele>
        <time>2011-08-17T08:14:41Z</time>
      </trkpt>
      <trkpt lat="43.94442" lon="1.90813">
        <ele>157</ele>
        <time>2011-08-17T08:14:42Z</time>
      </trkpt>
      <trkpt lat="43.94441" lon="1.90811">
        <ele>157</ele>
        <time>2011-08-17T08:14:43Z</time>
      </trkpt>
      <trkpt lat="43.94439" lon="1.90809">
        <ele>157</ele>
        <time>2011-08-17T08:14:44Z</time>
      </trkpt>
      <trkpt lat="43.94439" lon="1.90806">
        <ele>157</ele>
        <time>2011-08-17T08:14:45Z</time>
      </trkpt>
      <trkpt lat="43.94437" lon="1.90804">
        <ele>157</ele>
        <time>2011-08-17T08:14:46Z</time>
      </trkpt>
      <trkpt lat="43.94436" lon="1.90801">
        <ele>157</ele>
        <time>2011-08-17T08:14:47Z</time>
      </trkpt>
      <trkpt lat="43.94435" lon="1.90798">
        <ele>157</ele>
        <time>2011-08-17T08:14:48Z</time>
      </trkpt>
      <trkpt lat="43.94434" lon="1.90796">
        <ele>157</ele>
        <time>2011-08-17T08:14:49Z</time>
      </trkpt>
      <trkpt lat="43.94432" lon="1.90793">
        <ele>157</ele>
        <time>2011-08-17T08:14:50Z</time>
      </trkpt>
      <trkpt lat="43.94431" lon="1.9079">
        <ele>157</ele>
        <time>2011-08-17T08:14:51Z</time>
      </trkpt>
      <trkpt lat="43.94429" lon="1.90788">
        <ele>157</ele>
        <time>2011-08-17T08:14:52Z</time>
      </trkpt>
      <trkpt lat="43.94428" lon="1.90785">
        <ele>157</ele>
        <time>2011-08-17T08:14:53Z</time>
      </trkpt>
      <trkpt lat="43.94427" lon="1.90783">
        <ele>157</ele>
        <time>2011-08-17T08:14:54Z</time>
      </trkpt>
      <trkpt lat="43.94426" lon="1.9078">
        <ele>157</ele>
        <time>2011-08-17T08:14:55Z</time>
      </trkpt>
      <trkpt lat="43.94425" lon="1.90778">
        <ele>157</ele>
        <time>2011-08-17T08:14:56Z</time>
      </trkpt>
      <trkpt lat="43.94423" lon="1.90775">
        <ele>157</ele>
        <time>2011-08-17T08:14:57Z</time>
      </trkpt>
      <trkpt lat="43.94422" lon="1.90772">
        <ele>157</ele>
        <time>2011-08-17T08:14:58Z</time>
      </trkpt>
      <trkpt lat="43.94421" lon="1.9077">
        <ele>157</ele>
        <time>2011-08-17T08:14:59Z</time>
      </trkpt>
      <trkpt lat="43.94419" lon="1.90767">
        <ele>157</ele>
        <time>2011-08-17T08:15:00Z</time>
      </trkpt>
      <trkpt lat="43.94418" lon="1.90765">
        <ele>158</ele>
        <time>2011-08-17T08:15:01Z</time>
      </trkpt>
      <trkpt lat="43.94417" lon="1.90762">
        <ele>159</ele>
        <time>2011-08-17T08:15:02Z</time>
      </trkpt>
      <trkpt lat="43.94415" lon="1.9076">
        <ele>159</ele>
        <time>2011-08-17T08:15:03Z</time>
      </trkpt>
      <trkpt lat="43.94414" lon="1.90757">
        <ele>160</ele>
        <time>2011-08-17T08:15:04Z</time>
      </trkpt>
      <trkpt lat="43.94413" lon="1.90755">
        <ele>161</ele>
        <time>2011-08-17T08:15:05Z</time>
      </trkpt>
      <trkpt lat="43.94413" lon="1.90752">
        <ele>161</ele>
        <time>2011-08-17T08:15:06Z</time>
      </trkpt>
      <trkpt lat="43.94412" lon="1.9075">
        <ele>161</ele>
        <time>2011-08-17T08:15:07Z</time>
      </trkpt>
      <trkpt lat="43.94411" lon="1.90749">
        <ele>162</ele>
        <time>2011-08-17T08:15:08Z</time>
      </trkpt>
      <trkpt lat="43.9441" lon="1.90747">
        <ele>162</ele>
        <time>2011-08-17T08:15:09Z</time>
      </trkpt>
      <trkpt lat="43.94408" lon="1.90745">
        <ele>162</ele>
        <time>2011-08-17T08:15:10Z</time>
      </trkpt>
      <trkpt lat="43.94408" lon="1.90744">
        <ele>163</ele>
        <time>2011-08-17T08:15:11Z</time>
      </trkpt>
      <trkpt lat="43.94406" lon="1.90742">
        <ele>163</ele>
        <time>2011-08-17T08:15:12Z</time>
      </trkpt>
      <trkpt lat="43.94405" lon="1.9074">
        <ele>164</ele>
        <time>2011-08-17T08:15:13Z</time>
      </trkpt>
      <trkpt lat="43.94405" lon="1.90737">
        <ele>165</ele>
        <time>2011-08-17T08:15:14Z</time>
      </trkpt>
      <trkpt lat="43.94404" lon="1.90735">
        <ele>166</ele>
        <time>2011-08-17T08:15:15Z</time>
      </trkpt>
      <trkpt lat="43.94404" lon="1.90733">
        <ele>166</ele>
        <time>2011-08-17T08:15:16Z</time>
      </trkpt>
      <trkpt lat="43.94405" lon="1.9073">
        <ele>167</ele>
        <time>2011-08-17T08:15:17Z</time>
      </trkpt>
      <trkpt lat="43.94405" lon="1.90727">
        <ele>168</ele>
        <time>2011-08-17T08:15:18Z</time>
      </trkpt>
      <trkpt lat="43.94404" lon="1.90725">
        <ele>168</ele>
        <time>2011-08-17T08:15:19Z</time>
      </trkpt>
      <trkpt lat="43.94404" lon="1.90723">
        <ele>168</ele>
        <time>2011-08-17T08:15:20Z</time>
      </trkpt>
      <trkpt lat="43.94405" lon="1.9072">
        <ele>169</ele>
        <time>2011-08-17T08:15:21Z</time>
      </trkpt>
      <trkpt lat="43.94405" lon="1.90719">
        <ele>169</ele>
        <time>2011-08-17T08:15:22Z</time>
      </trkpt>
      <trkpt lat="43.94406" lon="1.90717">
        <ele>169</ele>
        <time>2011-08-17T08:15:23Z</time>
      </trkpt>
      <trkpt lat="43.94406" lon="1.90715">
        <ele>170</ele>
        <time>2011-08-17T08:15:24Z</time>
      </trkpt>
      <trkpt lat="43.94407" lon="1.90714">
        <ele>171</ele>
        <time>2011-08-17T08:15:25Z</time>
      </trkpt>
      <trkpt lat="43.94407" lon="1.90712">
        <ele>172</ele>
        <time>2011-08-17T08:15:26Z</time>
      </trkpt>
      <trkpt lat="43.94408" lon="1.9071">
        <ele>173</ele>
        <time>2011-08-17T08:15:27Z</time>
      </trkpt>
      <trkpt lat="43.94408" lon="1.90708">
        <ele>174</ele>
        <time>2011-08-17T08:15:28Z</time>
      </trkpt>
      <trkpt lat="43.94409" lon="1.90706">
        <ele>174</ele>
        <time>2011-08-17T08:15:29Z</time>
      </trkpt>
      <trkpt lat="43.9441" lon="1.90704">
        <ele>175</ele>
        <time>2011-08-17T08:15:30Z</time>
      </trkpt>
      <trkpt lat="43.94411" lon="1.90702">
        <ele>176</ele>
        <time>2011-08-17T08:15:31Z</time>
      </trkpt>
      <trkpt lat="43.94411" lon="1.907">
        <ele>176</ele>
        <time>2011-08-17T08:15:32Z</time>
      </trkpt>
      <trkpt lat="43.94412" lon="1.90699">
        <ele>177</ele>
        <time>2011-08-17T08:15:33Z</time>
      </trkpt>
      <trkpt lat="43.94412" lon="1.90697">
        <ele>177</ele>
        <time>2011-08-17T08:15:34Z</time>
      </trkpt>
      <trkpt lat="43.94413" lon="1.90694">
        <ele>177</ele>
        <time>2011-08-17T08:15:35Z</time>
      </trkpt>
      <trkpt lat="43.94413" lon="1.90692">
        <ele>178</ele>
        <time>2011-08-17T08:15:36Z</time>
      </trkpt>
      <trkpt lat="43.94414" lon="1.90691">
        <ele>178</ele>
        <time>2011-08-17T08:15:37Z</time>
      </trkpt>
      <trkpt lat="43.94414" lon="1.90689">
        <ele>178</ele>
        <time>2011-08-17T08:15:38Z</time>
      </trkpt>
      <trkpt lat="43.94414" lon="1.90687">
        <ele>178</ele>
        <time>2011-08-17T08:15:39Z</time>
      </trkpt>
      <trkpt lat="43.94415" lon="1.90685">
        <ele>178</ele>
        <time>2011-08-17T08:15:40Z</time>
      </trkpt>
      <trkpt lat="43.94415" lon="1.90683">
        <ele>178</ele>
        <time>2011-08-17T08:15:41Z</time>
      </trkpt>
      <trkpt lat="43.94415" lon="1.90681">
        <ele>178</ele>
        <time>2011-08-17T08:15:42Z</time>
      </trkpt>
      <trkpt lat="43.94415" lon="1.90679">
        <ele>178</ele>
        <time>2011-08-17T08:15:43Z</time>
      </trkpt>
      <trkpt lat="43.94415" lon="1.90677">
        <ele>178</ele>
        <time>2011-08-17T08:15:44Z</time>
      </trkpt>
      <trkpt lat="43.94415" lon="1.90675">
        <ele>178</ele>
        <time>2011-08-17T08:15:45Z</time>
      </trkpt>
      <trkpt lat="43.94415" lon="1.90673">
        <ele>178</ele>
        <time>2011-08-17T08:15:46Z</time>
      </trkpt>
      <trkpt lat="43.94415" lon="1.90671">
        <ele>178</ele>
        <time>2011-08-17T08:15:47Z</time>
      </trkpt>
      <trkpt lat="43.94415" lon="1.90668">
        <ele>178</ele>
        <time>2011-08-17T08:15:48Z</time>
      </trkpt>
      <trkpt lat="43.94414" lon="1.90666">
        <ele>178</ele>
        <time>2011-08-17T08:15:49Z</time>
      </trkpt>
      <trkpt lat="43.94414" lon="1.90665">
        <ele>178</ele>
        <time>2011-08-17T08:15:50Z</time>
      </trkpt>
      <trkpt lat="43.94413" lon="1.90663">
        <ele>178</ele>
        <time>2011-08-17T08:15:51Z</time>
      </trkpt>
      <trkpt lat="43.94413" lon="1.9066">
        <ele>178</ele>
        <time>2011-08-17T08:15:53Z</time>
      </trkpt>
      <trkpt lat="43.94412" lon="1.90659">
        <ele>178</ele>
        <time>2011-08-17T08:15:54Z</time>
      </trkpt>
      <trkpt lat="43.94412" lon="1.90657">
        <ele>178</ele>
        <time>2011-08-17T08:15:55Z</time>
      </trkpt>
      <trkpt lat="43.94412" lon="1.90655">
        <ele>178</ele>
        <time>2011-08-17T08:15:57Z</time>
      </trkpt>
      <trkpt lat="43.94413" lon="1.90653">
        <ele>178</ele>
        <time>2011-08-17T08:15:58Z</time>
      </trkpt>
      <trkpt lat="43.94413" lon="1.90652">
        <ele>178</ele>
        <time>2011-08-17T08:15:59Z</time>
      </trkpt>
      <trkpt lat="43.94413" lon="1.9065">
        <ele>178</ele>
        <time>2011-08-17T08:16:00Z</time>
      </trkpt>
      <trkpt lat="43.94413" lon="1.90648">
        <ele>178</ele>
        <time>2011-08-17T08:16:01Z</time>
      </trkpt>
      <trkpt lat="43.94413" lon="1.90647">
        <ele>178</ele>
        <time>2011-08-17T08:16:02Z</time>
      </trkpt>
      <trkpt lat="43.94413" lon="1.90645">
        <ele>178</ele>
        <time>2011-08-17T08:16:03Z</time>
      </trkpt>
      <trkpt lat="43.94413" lon="1.90643">
        <ele>178</ele>
        <time>2011-08-17T08:16:04Z</time>
      </trkpt>
      <trkpt lat="43.94412" lon="1.90642">
        <ele>178</ele>
        <time>2011-08-17T08:16:05Z</time>
      </trkpt>
      <trkpt lat="43.94412" lon="1.9064">
        <ele>178</ele>
        <time>2011-08-17T08:16:06Z</time>
      </trkpt>
      <trkpt lat="43.94412" lon="1.90638">
        <ele>178</ele>
        <time>2011-08-17T08:16:07Z</time>
      </trkpt>
      <trkpt lat="43.94411" lon="1.90637">
        <ele>178</ele>
        <time>2011-08-17T08:16:08Z</time>
      </trkpt>
      <trkpt lat="43.94411" lon="1.90634">
        <ele>178</ele>
        <time>2011-08-17T08:16:10Z</time>
      </trkpt>
      <trkpt lat="43.9441" lon="1.90633">
        <ele>178</ele>
        <time>2011-08-17T08:16:11Z</time>
      </trkpt>
      <trkpt lat="43.9441" lon="1.90631">
        <ele>178</ele>
        <time>2011-08-17T08:16:12Z</time>
      </trkpt>
      <trkpt lat="43.9441" lon="1.90629">
        <ele>178</ele>
        <time>2011-08-17T08:16:13Z</time>
      </trkpt>
      <trkpt lat="43.9441" lon="1.90627">
        <ele>178</ele>
        <time>2011-08-17T08:16:14Z</time>
      </trkpt>
      <trkpt lat="43.9441" lon="1.90625">
        <ele>178</ele>
        <time>2011-08-17T08:16:15Z</time>
      </trkpt>
      <trkpt lat="43.9441" lon="1.90623">
        <ele>178</ele>
        <time>2011-08-17T08:16:16Z</time>
      </trkpt>
      <trkpt lat="43.9441" lon="1.90622">
        <ele>178</ele>
        <time>2011-08-17T08:16:17Z</time>
      </trkpt>
      <trkpt lat="43.9441" lon="1.9062">
        <ele>178</ele>
        <time>2011-08-17T08:16:18Z</time>
      </trkpt>
      <trkpt lat="43.94409" lon="1.90618">
        <ele>178</ele>
        <time>2011-08-17T08:16:19Z</time>
      </trkpt>
      <trkpt lat="43.94409" lon="1.90616">
        <ele>178</ele>
        <time>2011-08-17T08:16:20Z</time>
      </trkpt>
      <trkpt lat="43.94409" lon="1.90614">
        <ele>178</ele>
        <time>2011-08-17T08:16:21Z</time>
      </trkpt>
      <trkpt lat="43.94409" lon="1.90612">
        <ele>178</ele>
        <time>2011-08-17T08:16:22Z</time>
      </trkpt>
      <trkpt lat="43.94409" lon="1.9061">
        <ele>178</ele>
        <time>2011-08-17T08:16:23Z</time>
      </trkpt>
      <trkpt lat="43.94409" lon="1.90608">
        <ele>178</ele>
        <time>2011-08-17T08:16:24Z</time>
      </trkpt>
      <trkpt lat="43.94409" lon="1.90606">
        <ele>178</ele>
        <time>2011-08-17T08:16:25Z</time>
      </trkpt>
      <trkpt lat="43.9441" lon="1.90603">
        <ele>178</ele>
        <time>2011-08-17T08:16:26Z</time>
      </trkpt>
      <trkpt lat="43.9441" lon="1.90601">
        <ele>178</ele>
        <time>2011-08-17T08:16:27Z</time>
      </trkpt>
      <trkpt lat="43.9441" lon="1.90599">
        <ele>178</ele>
        <time>2011-08-17T08:16:28Z</time>
      </trkpt>
      <trkpt lat="43.9441" lon="1.90596">
        <ele>178</ele>
        <time>2011-08-17T08:16:29Z</time>
      </trkpt>
      <trkpt lat="43.94411" lon="1.90594">
        <ele>178</ele>
        <time>2011-08-17T08:16:30Z</time>
      </trkpt>
      <trkpt lat="43.94411" lon="1.90591">
        <ele>178</ele>
        <time>2011-08-17T08:16:31Z</time>
      </trkpt>
      <trkpt lat="43.94411" lon="1.90589">
        <ele>178</ele>
        <time>2011-08-17T08:16:32Z</time>
      </trkpt>
      <trkpt lat="43.94412" lon="1.90587">
        <ele>178</ele>
        <time>2011-08-17T08:16:33Z</time>
      </trkpt>
      <trkpt lat="43.94413" lon="1.90585">
        <ele>178</ele>
        <time>2011-08-17T08:16:34Z</time>
      </trkpt>
      <trkpt lat="43.94413" lon="1.90583">
        <ele>178</ele>
        <time>2011-08-17T08:16:35Z</time>
      </trkpt>
      <trkpt lat="43.94414" lon="1.9058">
        <ele>178</ele>
        <time>2011-08-17T08:16:36Z</time>
      </trkpt>
      <trkpt lat="43.94415" lon="1.90578">
        <ele>178</ele>
        <time>2011-08-17T08:16:37Z</time>
      </trkpt>
      <trkpt lat="43.94415" lon="1.90576">
        <ele>178</ele>
        <time>2011-08-17T08:16:38Z</time>
      </trkpt>
      <trkpt lat="43.94416" lon="1.90574">
        <ele>178</ele>
        <time>2011-08-17T08:16:39Z</time>
      </trkpt>
      <trkpt lat="43.94417" lon="1.90571">
        <ele>178</ele>
        <time>2011-08-17T08:16:40Z</time>
      </trkpt>
      <trkpt lat="43.94418" lon="1.90569">
        <ele>178</ele>
        <time>2011-08-17T08:16:41Z</time>
      </trkpt>
      <trkpt lat="43.94418" lon="1.90567">
        <ele>178</ele>
        <time>2011-08-17T08:16:42Z</time>
      </trkpt>
      <trkpt lat="43.94419" lon="1.90564">
        <ele>178</ele>
        <time>2011-08-17T08:16:43Z</time>
      </trkpt>
      <trkpt lat="43.9442" lon="1.90562">
        <ele>178</ele>
        <time>2011-08-17T08:16:44Z</time>
      </trkpt>
      <trkpt lat="43.94421" lon="1.9056">
        <ele>178</ele>
        <time>2011-08-17T08:16:45Z</time>
      </trkpt>
      <trkpt lat="43.94422" lon="1.90557">
        <ele>178</ele>
        <time>2011-08-17T08:16:46Z</time>
      </trkpt>
      <trkpt lat="43.94424" lon="1.90555">
        <ele>178</ele>
        <time>2011-08-17T08:16:47Z</time>
      </trkpt>
      <trkpt lat="43.94424" lon="1.90553">
        <ele>178</ele>
        <time>2011-08-17T08:16:48Z</time>
      </trkpt>
      <trkpt lat="43.94425" lon="1.9055">
        <ele>178</ele>
        <time>2011-08-17T08:16:49Z</time>
      </trkpt>
      <trkpt lat="43.94426" lon="1.90548">
        <ele>178</ele>
        <time>2011-08-17T08:16:50Z</time>
      </trkpt>
      <trkpt lat="43.94427" lon="1.90545">
        <ele>178</ele>
        <time>2011-08-17T08:16:51Z</time>
      </trkpt>
      <trkpt lat="43.94429" lon="1.90542">
        <ele>178</ele>
        <time>2011-08-17T08:16:52Z</time>
      </trkpt>
      <trkpt lat="43.9443" lon="1.9054">
        <ele>179</ele>
        <time>2011-08-17T08:16:53Z</time>
      </trkpt>
      <trkpt lat="43.94431" lon="1.90537">
        <ele>179</ele>
        <time>2011-08-17T08:16:54Z</time>
      </trkpt>
      <trkpt lat="43.94432" lon="1.90535">
        <ele>179</ele>
        <time>2011-08-17T08:16:55Z</time>
      </trkpt>
      <trkpt lat="43.94433" lon="1.90533">
        <ele>180</ele>
        <time>2011-08-17T08:16:56Z</time>
      </trkpt>
      <trkpt lat="43.94434" lon="1.90531">
        <ele>180</ele>
        <time>2011-08-17T08:16:57Z</time>
      </trkpt>
      <trkpt lat="43.94435" lon="1.90528">
        <ele>180</ele>
        <time>2011-08-17T08:16:58Z</time>
      </trkpt>
      <trkpt lat="43.94436" lon="1.90526">
        <ele>180</ele>
        <time>2011-08-17T08:16:59Z</time>
      </trkpt>
      <trkpt lat="43.94437" lon="1.90524">
        <ele>181</ele>
        <time>2011-08-17T08:17:00Z</time>
      </trkpt>
      <trkpt lat="43.94439" lon="1.90522">
        <ele>181</ele>
        <time>2011-08-17T08:17:01Z</time>
      </trkpt>
      <trkpt lat="43.94439" lon="1.90519">
        <ele>181</ele>
        <time>2011-08-17T08:17:02Z</time>
      </trkpt>
      <trkpt lat="43.9444" lon="1.90517">
        <ele>182</ele>
        <time>2011-08-17T08:17:03Z</time>
      </trkpt>
      <trkpt lat="43.94441" lon="1.90514">
        <ele>182</ele>
        <time>2011-08-17T08:17:04Z</time>
      </trkpt>
      <trkpt lat="43.94442" lon="1.90512">
        <ele>183</ele>
        <time>2011-08-17T08:17:05Z</time>
      </trkpt>
      <trkpt lat="43.94443" lon="1.90509">
        <ele>183</ele>
        <time>2011-08-17T08:17:06Z</time>
      </trkpt>
      <trkpt lat="43.94444" lon="1.90507">
        <ele>183</ele>
        <time>2011-08-17T08:17:07Z</time>
      </trkpt>
      <trkpt lat="43.94445" lon="1.90504">
        <ele>184</ele>
        <time>2011-08-17T08:17:08Z</time>
      </trkpt>
      <trkpt lat="43.94446" lon="1.90501">
        <ele>184</ele>
        <time>2011-08-17T08:17:09Z</time>
      </trkpt>
      <trkpt lat="43.94447" lon="1.90499">
        <ele>185</ele>
        <time>2011-08-17T08:17:10Z</time>
      </trkpt>
      <trkpt lat="43.94448" lon="1.90497">
        <ele>185</ele>
        <time>2011-08-17T08:17:11Z</time>
      </trkpt>
      <trkpt lat="43.94449" lon="1.90494">
        <ele>185</ele>
        <time>2011-08-17T08:17:12Z</time>
      </trkpt>
      <trkpt lat="43.9445" lon="1.90491">
        <ele>185</ele>
        <time>2011-08-17T08:17:13Z</time>
      </trkpt>
      <trkpt lat="43.94451" lon="1.90489">
        <ele>186</ele>
        <time>2011-08-17T08:17:14Z</time>
      </trkpt>
      <trkpt lat="43.94452" lon="1.90486">
        <ele>186</ele>
        <time>2011-08-17T08:17:15Z</time>
      </trkpt>
      <trkpt lat="43.94453" lon="1.90483">
        <ele>186</ele>
        <time>2011-08-17T08:17:16Z</time>
      </trkpt>
      <trkpt lat="43.94454" lon="1.90481">
        <ele>187</ele>
        <time>2011-08-17T08:17:17Z</time>
      </trkpt>
      <trkpt lat="43.94455" lon="1.90478">
        <ele>187</ele>
        <time>2011-08-17T08:17:18Z</time>
      </trkpt>
      <trkpt lat="43.94456" lon="1.90475">
        <ele>187</ele>
        <time>2011-08-17T08:17:19Z</time>
      </trkpt>
      <trkpt lat="43.94457" lon="1.90472">
        <ele>188</ele>
        <time>2011-08-17T08:17:20Z</time>
      </trkpt>
      <trkpt lat="43.94458" lon="1.90469">
        <ele>188</ele>
        <time>2011-08-17T08:17:21Z</time>
      </trkpt>
      <trkpt lat="43.94458" lon="1.90466">
        <ele>188</ele>
        <time>2011-08-17T08:17:22Z</time>
      </trkpt>
      <trkpt lat="43.94458" lon="1.90463">
        <ele>189</ele>
        <time>2011-08-17T08:17:23Z</time>
      </trkpt>
      <trkpt lat="43.94458" lon="1.90459">
        <ele>189</ele>
        <time>2011-08-17T08:17:24Z</time>
      </trkpt>
      <trkpt lat="43.94457" lon="1.90456">
        <ele>190</ele>
        <time>2011-08-17T08:17:25Z</time>
      </trkpt>
      <trkpt lat="43.94455" lon="1.90454">
        <ele>190</ele>
        <time>2011-08-17T08:17:26Z</time>
      </trkpt>
      <trkpt lat="43.94454" lon="1.90453">
        <ele>190</ele>
        <time>2011-08-17T08:17:27Z</time>
      </trkpt>
      <trkpt lat="43.94453" lon="1.90453">
        <ele>191</ele>
        <time>2011-08-17T08:17:28Z</time>
      </trkpt>
      <trkpt lat="43.94452" lon="1.90453">
        <ele>191</ele>
        <time>2011-08-17T08:17:29Z</time>
      </trkpt>
      <trkpt lat="43.9445" lon="1.90451">
        <ele>191</ele>
        <time>2011-08-17T08:17:31Z</time>
      </trkpt>
      <trkpt lat="43.94448" lon="1.9045">
        <ele>191</ele>
        <time>2011-08-17T08:17:33Z</time>
      </trkpt>
      <trkpt lat="43.94447" lon="1.9045">
        <ele>191</ele>
        <time>2011-08-17T08:17:34Z</time>
      </trkpt>
      <trkpt lat="43.94445" lon="1.90448">
        <ele>191</ele>
        <time>2011-08-17T08:17:36Z</time>
      </trkpt>
      <trkpt lat="43.94444" lon="1.90446">
        <ele>191</ele>
        <time>2011-08-17T08:17:38Z</time>
      </trkpt>
      <trkpt lat="43.94442" lon="1.90445">
        <ele>191</ele>
        <time>2011-08-17T08:17:40Z</time>
      </trkpt>
      <trkpt lat="43.9444" lon="1.90444">
        <ele>191</ele>
        <time>2011-08-17T08:17:42Z</time>
      </trkpt>
      <trkpt lat="43.94439" lon="1.90443">
        <ele>191</ele>
        <time>2011-08-17T08:17:44Z</time>
      </trkpt>
      <trkpt lat="43.94437" lon="1.90441">
        <ele>191</ele>
        <time>2011-08-17T08:17:46Z</time>
      </trkpt>
      <trkpt lat="43.94436" lon="1.9044">
        <ele>191</ele>
        <time>2011-08-17T08:17:48Z</time>
      </trkpt>
      <trkpt lat="43.94434" lon="1.90438">
        <ele>191</ele>
        <time>2011-08-17T08:17:50Z</time>
      </trkpt>
      <trkpt lat="43.94433" lon="1.90436">
        <ele>191</ele>
        <time>2011-08-17T08:17:52Z</time>
      </trkpt>
      <trkpt lat="43.94431" lon="1.90434">
        <ele>192</ele>
        <time>2011-08-17T08:17:54Z</time>
      </trkpt>
      <trkpt lat="43.94429" lon="1.90432">
        <ele>193</ele>
        <time>2011-08-17T08:17:56Z</time>
      </trkpt>
      <trkpt lat="43.94429" lon="1.90431">
        <ele>193</ele>
        <time>2011-08-17T08:17:57Z</time>
      </trkpt>
      <trkpt lat="43.94427" lon="1.90428">
        <ele>194</ele>
        <time>2011-08-17T08:17:59Z</time>
      </trkpt>
      <trkpt lat="43.94425" lon="1.90426">
        <ele>195</ele>
        <time>2011-08-17T08:18:01Z</time>
      </trkpt>
      <trkpt lat="43.94426" lon="1.90424">
        <ele>195</ele>
        <time>2011-08-17T08:18:03Z</time>
      </trkpt>
      <trkpt lat="43.94427" lon="1.90425">
        <ele>195</ele>
        <time>2011-08-17T08:18:05Z</time>
      </trkpt>
      <trkpt lat="43.94428" lon="1.90427">
        <ele>195</ele>
        <time>2011-08-17T08:18:07Z</time>
      </trkpt>
      <trkpt lat="43.94429" lon="1.90429">
        <ele>195</ele>
        <time>2011-08-17T08:18:08Z</time>
      </trkpt>
      <trkpt lat="43.94429" lon="1.90431">
        <ele>195</ele>
        <time>2011-08-17T08:18:09Z</time>
      </trkpt>
      <trkpt lat="43.94431" lon="1.90432">
        <ele>195</ele>
        <time>2011-08-17T08:18:10Z</time>
      </trkpt>
      <trkpt lat="43.94432" lon="1.90434">
        <ele>195</ele>
        <time>2011-08-17T08:18:11Z</time>
      </trkpt>
      <trkpt lat="43.94433" lon="1.90435">
        <ele>195</ele>
        <time>2011-08-17T08:18:12Z</time>
      </trkpt>
      <trkpt lat="43.94434" lon="1.90438">
        <ele>195</ele>
        <time>2011-08-17T08:18:14Z</time>
      </trkpt>
      <trkpt lat="43.94436" lon="1.90439">
        <ele>195</ele>
        <time>2011-08-17T08:18:15Z</time>
      </trkpt>
      <trkpt lat="43.94437" lon="1.9044">
        <ele>195</ele>
        <time>2011-08-17T08:18:16Z</time>
      </trkpt>
      <trkpt lat="43.94439" lon="1.90442">
        <ele>195</ele>
        <time>2011-08-17T08:18:17Z</time>
      </trkpt>
      <trkpt lat="43.9444" lon="1.90443">
        <ele>195</ele>
        <time>2011-08-17T08:18:18Z</time>
      </trkpt>
      <trkpt lat="43.94442" lon="1.90444">
        <ele>195</ele>
        <time>2011-08-17T08:18:19Z</time>
      </trkpt>
      <trkpt lat="43.94444" lon="1.90445">
        <ele>195</ele>
        <time>2011-08-17T08:18:20Z</time>
      </trkpt>
      <trkpt lat="43.94446" lon="1.90446">
        <ele>195</ele>
        <time>2011-08-17T08:18:21Z</time>
      </trkpt>
      <trkpt lat="43.94448" lon="1.90446">
        <ele>195</ele>
        <time>2011-08-17T08:18:22Z</time>
      </trkpt>
      <trkpt lat="43.94451" lon="1.90447">
        <ele>195</ele>
        <time>2011-08-17T08:18:23Z</time>
      </trkpt>
      <trkpt lat="43.94453" lon="1.90449">
        <ele>195</ele>
        <time>2011-08-17T08:18:24Z</time>
      </trkpt>
      <trkpt lat="43.94455" lon="1.9045">
        <ele>195</ele>
        <time>2011-08-17T08:18:25Z</time>
      </trkpt>
      <trkpt lat="43.94458" lon="1.9045">
        <ele>195</ele>
        <time>2011-08-17T08:18:26Z</time>
      </trkpt>
      <trkpt lat="43.94461" lon="1.9045">
        <ele>195</ele>
        <time>2011-08-17T08:18:27Z</time>
      </trkpt>
      <trkpt lat="43.94462" lon="1.9045">
        <ele>195</ele>
        <time>2011-08-17T08:18:28Z</time>
      </trkpt>
      <trkpt lat="43.94464" lon="1.90453">
        <ele>195</ele>
        <time>2011-08-17T08:18:30Z</time>
      </trkpt>
      <trkpt lat="43.94464" lon="1.90454">
        <ele>195</ele>
        <time>2011-08-17T08:18:31Z</time>
      </trkpt>
      <trkpt lat="43.94464" lon="1.90456">
        <ele>195</ele>
        <time>2011-08-17T08:18:32Z</time>
      </trkpt>
      <trkpt lat="43.94463" lon="1.90458">
        <ele>195</ele>
        <time>2011-08-17T08:18:33Z</time>
      </trkpt>
      <trkpt lat="43.94462" lon="1.90459">
        <ele>195</ele>
        <time>2011-08-17T08:18:34Z</time>
      </trkpt>
      <trkpt lat="43.9446" lon="1.90461">
        <ele>195</ele>
        <time>2011-08-17T08:18:35Z</time>
      </trkpt>
      <trkpt lat="43.94459" lon="1.90463">
        <ele>195</ele>
        <time>2011-08-17T08:18:36Z</time>
      </trkpt>
      <trkpt lat="43.94458" lon="1.90465">
        <ele>195</ele>
        <time>2011-08-17T08:18:37Z</time>
      </trkpt>
      <trkpt lat="43.94457" lon="1.90467">
        <ele>195</ele>
        <time>2011-08-17T08:18:38Z</time>
      </trkpt>
      <trkpt lat="43.94457" lon="1.9047">
        <ele>195</ele>
        <time>2011-08-17T08:18:39Z</time>
      </trkpt>
      <trkpt lat="43.94456" lon="1.90472">
        <ele>195</ele>
        <time>2011-08-17T08:18:40Z</time>
      </trkpt>
      <trkpt lat="43.94455" lon="1.90474">
        <ele>195</ele>
        <time>2011-08-17T08:18:41Z</time>
      </trkpt>
      <trkpt lat="43.94455" lon="1.90476">
        <ele>195</ele>
        <time>2011-08-17T08:18:42Z</time>
      </trkpt>
      <trkpt lat="43.94453" lon="1.90478">
        <ele>195</ele>
        <time>2011-08-17T08:18:43Z</time>
      </trkpt>
      <trkpt lat="43.94453" lon="1.9048">
        <ele>195</ele>
        <time>2011-08-17T08:18:44Z</time>
      </trkpt>
      <trkpt lat="43.94452" lon="1.90482">
        <ele>195</ele>
        <time>2011-08-17T08:18:45Z</time>
      </trkpt>
      <trkpt lat="43.94451" lon="1.90484">
        <ele>195</ele>
        <time>2011-08-17T08:18:46Z</time>
      </trkpt>
      <trkpt lat="43.9445" lon="1.90486">
        <ele>195</ele>
        <time>2011-08-17T08:18:47Z</time>
      </trkpt>
      <trkpt lat="43.94449" lon="1.90487">
        <ele>195</ele>
        <time>2011-08-17T08:18:48Z</time>
      </trkpt>
      <trkpt lat="43.94448" lon="1.90489">
        <ele>195</ele>
        <time>2011-08-17T08:18:49Z</time>
      </trkpt>
      <trkpt lat="43.94448" lon="1.90491">
        <ele>195</ele>
        <time>2011-08-17T08:18:50Z</time>
      </trkpt>
      <trkpt lat="43.94447" lon="1.90492">
        <ele>195</ele>
        <time>2011-08-17T08:18:51Z</time>
      </trkpt>
      <trkpt lat="43.94448" lon="1.90494">
        <ele>195</ele>
        <time>2011-08-17T08:18:53Z</time>
      </trkpt>
      <trkpt lat="43.94449" lon="1.90492">
        <ele>195</ele>
        <time>2011-08-17T08:18:55Z</time>
      </trkpt>
      <trkpt lat="43.94449" lon="1.90491">
        <ele>195</ele>
        <time>2011-08-17T08:18:56Z</time>
      </trkpt>
      <trkpt lat="43.9445" lon="1.90489">
        <ele>194</ele>
        <time>2011-08-17T08:18:58Z</time>
      </trkpt>
      <trkpt lat="43.9445" lon="1.90486">
        <ele>194</ele>
        <time>2011-08-17T08:19:00Z</time>
      </trkpt>
      <trkpt lat="43.9445" lon="1.90484">
        <ele>194</ele>
        <time>2011-08-17T08:19:01Z</time>
      </trkpt>
      <trkpt lat="43.9445" lon="1.90483">
        <ele>194</ele>
        <time>2011-08-17T08:19:02Z</time>
      </trkpt>
      <trkpt lat="43.94451" lon="1.90481">
        <ele>194</ele>
        <time>2011-08-17T08:19:03Z</time>
      </trkpt>
      <trkpt lat="43.94452" lon="1.90479">
        <ele>194</ele>
        <time>2011-08-17T08:19:05Z</time>
      </trkpt>
      <trkpt lat="43.94452" lon="1.90477">
        <ele>194</ele>
        <time>2011-08-17T08:19:06Z</time>
      </trkpt>
      <trkpt lat="43.94453" lon="1.90475">
        <ele>194</ele>
        <time>2011-08-17T08:19:08Z</time>
      </trkpt>
      <trkpt lat="43.94454" lon="1.90473">
        <ele>194</ele>
        <time>2011-08-17T08:19:10Z</time>
      </trkpt>
      <trkpt lat="43.94454" lon="1.9047">
        <ele>194</ele>
        <time>2011-08-17T08:19:12Z</time>
      </trkpt>
      <trkpt lat="43.94455" lon="1.90467">
        <ele>194</ele>
        <time>2011-08-17T08:19:14Z</time>
      </trkpt>
      <trkpt lat="43.94455" lon="1.90466">
        <ele>194</ele>
        <time>2011-08-17T08:19:15Z</time>
      </trkpt>
      <trkpt lat="43.94455" lon="1.90464">
        <ele>194</ele>
        <time>2011-08-17T08:19:16Z</time>
      </trkpt>
      <trkpt lat="43.94456" lon="1.90463">
        <ele>194</ele>
        <time>2011-08-17T08:19:17Z</time>
      </trkpt>
      <trkpt lat="43.94456" lon="1.9046">
        <ele>194</ele>
        <time>2011-08-17T08:19:19Z</time>
      </trkpt>
      <trkpt lat="43.94457" lon="1.90457">
        <ele>194</ele>
        <time>2011-08-17T08:19:21Z</time>
      </trkpt>
      <trkpt lat="43.94456" lon="1.90454">
        <ele>194</ele>
        <time>2011-08-17T08:19:23Z</time>
      </trkpt>
      <trkpt lat="43.94454" lon="1.90453">
        <ele>194</ele>
        <time>2011-08-17T08:19:25Z</time>
      </trkpt>
      <trkpt lat="43.94452" lon="1.90451">
        <ele>194</ele>
        <time>2011-08-17T08:19:27Z</time>
      </trkpt>
      <trkpt lat="43.9445" lon="1.9045">
        <ele>194</ele>
        <time>2011-08-17T08:19:29Z</time>
      </trkpt>
      <trkpt lat="43.94449" lon="1.9045">
        <ele>194</ele>
        <time>2011-08-17T08:19:31Z</time>
      </trkpt>
      <trkpt lat="43.94447" lon="1.90449">
        <ele>194</ele>
        <time>2011-08-17T08:19:48Z</time>
      </trkpt>
      <trkpt lat="43.94446" lon="1.90448">
        <ele>194</ele>
        <time>2011-08-17T08:19:50Z</time>
      </trkpt>
      <trkpt lat="43.94445" lon="1.90447">
        <ele>194</ele>
        <time>2011-08-17T08:19:52Z</time>
      </trkpt>
      <trkpt lat="43.94443" lon="1.90446">
        <ele>194</ele>
        <time>2011-08-17T08:19:54Z</time>
      </trkpt>
      <trkpt lat="43.94442" lon="1.90444">
        <ele>194</ele>
        <time>2011-08-17T08:19:55Z</time>
      </trkpt>
      <trkpt lat="43.9444" lon="1.90443">
        <ele>194</ele>
        <time>2011-08-17T08:19:56Z</time>
      </trkpt>
      <trkpt lat="43.94439" lon="1.90441">
        <ele>194</ele>
        <time>2011-08-17T08:19:57Z</time>
      </trkpt>
      <trkpt lat="43.94437" lon="1.9044">
        <ele>194</ele>
        <time>2011-08-17T08:19:58Z</time>
      </trkpt>
      <trkpt lat="43.94436" lon="1.90438">
        <ele>194</ele>
        <time>2011-08-17T08:19:59Z</time>
      </trkpt>
      <trkpt lat="43.94434" lon="1.90437">
        <ele>194</ele>
        <time>2011-08-17T08:20:00Z</time>
      </trkpt>
      <trkpt lat="43.94433" lon="1.90436">
        <ele>194</ele>
        <time>2011-08-17T08:20:01Z</time>
      </trkpt>
      <trkpt lat="43.94432" lon="1.90434">
        <ele>195</ele>
        <time>2011-08-17T08:20:02Z</time>
      </trkpt>
      <trkpt lat="43.94431" lon="1.90433">
        <ele>195</ele>
        <time>2011-08-17T08:20:03Z</time>
      </trkpt>
      <trkpt lat="43.9443" lon="1.90431">
        <ele>195</ele>
        <time>2011-08-17T08:20:04Z</time>
      </trkpt>
      <trkpt lat="43.94429" lon="1.90429">
        <ele>195</ele>
        <time>2011-08-17T08:20:05Z</time>
      </trkpt>
      <trkpt lat="43.94428" lon="1.90427">
        <ele>195</ele>
        <time>2011-08-17T08:20:06Z</time>
      </trkpt>
      <trkpt lat="43.94427" lon="1.90426">
        <ele>195</ele>
        <time>2011-08-17T08:20:07Z</time>
      </trkpt>
      <trkpt lat="43.94426" lon="1.90424">
        <ele>195</ele>
        <time>2011-08-17T08:20:08Z</time>
      </trkpt>
      <trkpt lat="43.94425" lon="1.90422">
        <ele>195</ele>
        <time>2011-08-17T08:20:09Z</time>
      </trkpt>
      <trkpt lat="43.94424" lon="1.9042">
        <ele>195</ele>
        <time>2011-08-17T08:20:10Z</time>
      </trkpt>
      <trkpt lat="43.94423" lon="1.90418">
        <ele>195</ele>
        <time>2011-08-17T08:20:11Z</time>
      </trkpt>
      <trkpt lat="43.94422" lon="1.90416">
        <ele>195</ele>
        <time>2011-08-17T08:20:12Z</time>
      </trkpt>
      <trkpt lat="43.94421" lon="1.90415">
        <ele>195</ele>
        <time>2011-08-17T08:20:13Z</time>
      </trkpt>
      <trkpt lat="43.9442" lon="1.90413">
        <ele>195</ele>
        <time>2011-08-17T08:20:14Z</time>
      </trkpt>
      <trkpt lat="43.94419" lon="1.90411">
        <ele>195</ele>
        <time>2011-08-17T08:20:15Z</time>
      </trkpt>
      <trkpt lat="43.94418" lon="1.90409">
        <ele>195</ele>
        <time>2011-08-17T08:20:16Z</time>
      </trkpt>
      <trkpt lat="43.94417" lon="1.90407">
        <ele>195</ele>
        <time>2011-08-17T08:20:17Z</time>
      </trkpt>
      <trkpt lat="43.94416" lon="1.90405">
        <ele>195</ele>
        <time>2011-08-17T08:20:18Z</time>
      </trkpt>
      <trkpt lat="43.94416" lon="1.90403">
        <ele>195</ele>
        <time>2011-08-17T08:20:19Z</time>
      </trkpt>
      <trkpt lat="43.94414" lon="1.90401">
        <ele>195</ele>
        <time>2011-08-17T08:20:20Z</time>
      </trkpt>
      <trkpt lat="43.94413" lon="1.904">
        <ele>195</ele>
        <time>2011-08-17T08:20:21Z</time>
      </trkpt>
      <trkpt lat="43.94412" lon="1.90398">
        <ele>195</ele>
        <time>2011-08-17T08:20:22Z</time>
      </trkpt>
      <trkpt lat="43.9441" lon="1.90396">
        <ele>195</ele>
        <time>2011-08-17T08:20:23Z</time>
      </trkpt>
      <trkpt lat="43.94409" lon="1.90394">
        <ele>195</ele>
        <time>2011-08-17T08:20:24Z</time>
      </trkpt>
      <trkpt lat="43.94408" lon="1.90392">
        <ele>195</ele>
        <time>2011-08-17T08:20:25Z</time>
      </trkpt>
      <trkpt lat="43.94408" lon="1.9039">
        <ele>195</ele>
        <time>2011-08-17T08:20:26Z</time>
      </trkpt>
      <trkpt lat="43.94407" lon="1.90388">
        <ele>195</ele>
        <time>2011-08-17T08:20:27Z</time>
      </trkpt>
      <trkpt lat="43.94405" lon="1.90386">
        <ele>195</ele>
        <time>2011-08-17T08:20:28Z</time>
      </trkpt>
      <trkpt lat="43.94404" lon="1.90385">
        <ele>195</ele>
        <time>2011-08-17T08:20:29Z</time>
      </trkpt>
      <trkpt lat="43.94403" lon="1.90383">
        <ele>195</ele>
        <time>2011-08-17T08:20:30Z</time>
      </trkpt>
      <trkpt lat="43.94402" lon="1.90382">
        <ele>195</ele>
        <time>2011-08-17T08:20:31Z</time>
      </trkpt>
      <trkpt lat="43.944" lon="1.9038">
        <ele>195</ele>
        <time>2011-08-17T08:20:32Z</time>
      </trkpt>
      <trkpt lat="43.944" lon="1.90378">
        <ele>195</ele>
        <time>2011-08-17T08:20:33Z</time>
      </trkpt>
      <trkpt lat="43.94398" lon="1.90376">
        <ele>195</ele>
        <time>2011-08-17T08:20:34Z</time>
      </trkpt>
      <trkpt lat="43.94397" lon="1.90374">
        <ele>196</ele>
        <time>2011-08-17T08:20:35Z</time>
      </trkpt>
      <trkpt lat="43.94396" lon="1.90372">
        <ele>197</ele>
        <time>2011-08-17T08:20:36Z</time>
      </trkpt>
      <trkpt lat="43.94395" lon="1.90371">
        <ele>197</ele>
        <time>2011-08-17T08:20:37Z</time>
      </trkpt>
      <trkpt lat="43.94394" lon="1.90369">
        <ele>198</ele>
        <time>2011-08-17T08:20:38Z</time>
      </trkpt>
      <trkpt lat="43.94392" lon="1.90367">
        <ele>198</ele>
        <time>2011-08-17T08:20:39Z</time>
      </trkpt>
      <trkpt lat="43.94391" lon="1.90366">
        <ele>199</ele>
        <time>2011-08-17T08:20:40Z</time>
      </trkpt>
      <trkpt lat="43.9439" lon="1.90365">
        <ele>199</ele>
        <time>2011-08-17T08:20:41Z</time>
      </trkpt>
      <trkpt lat="43.94389" lon="1.90363">
        <ele>199</ele>
        <time>2011-08-17T08:20:42Z</time>
      </trkpt>
      <trkpt lat="43.94388" lon="1.90362">
        <ele>199</ele>
        <time>2011-08-17T08:20:43Z</time>
      </trkpt>
      <trkpt lat="43.94386" lon="1.90359">
        <ele>199</ele>
        <time>2011-08-17T08:20:45Z</time>
      </trkpt>
      <trkpt lat="43.94385" lon="1.90358">
        <ele>199</ele>
        <time>2011-08-17T08:20:46Z</time>
      </trkpt>
      <trkpt lat="43.94384" lon="1.90357">
        <ele>199</ele>
        <time>2011-08-17T08:20:47Z</time>
      </trkpt>
      <trkpt lat="43.94382" lon="1.90356">
        <ele>199</ele>
        <time>2011-08-17T08:20:48Z</time>
      </trkpt>
      <trkpt lat="43.94381" lon="1.90354">
        <ele>199</ele>
        <time>2011-08-17T08:20:49Z</time>
      </trkpt>
      <trkpt lat="43.94379" lon="1.90353">
        <ele>199</ele>
        <time>2011-08-17T08:20:50Z</time>
      </trkpt>
      <trkpt lat="43.94378" lon="1.90352">
        <ele>199</ele>
        <time>2011-08-17T08:20:51Z</time>
      </trkpt>
      <trkpt lat="43.94377" lon="1.9035">
        <ele>199</ele>
        <time>2011-08-17T08:20:52Z</time>
      </trkpt>
      <trkpt lat="43.94375" lon="1.90349">
        <ele>199</ele>
        <time>2011-08-17T08:20:53Z</time>
      </trkpt>
      <trkpt lat="43.94374" lon="1.90348">
        <ele>199</ele>
        <time>2011-08-17T08:20:54Z</time>
      </trkpt>
      <trkpt lat="43.94373" lon="1.90348">
        <ele>199</ele>
        <time>2011-08-17T08:20:55Z</time>
      </trkpt>
      <trkpt lat="43.94372" lon="1.90347">
        <ele>199</ele>
        <time>2011-08-17T08:20:56Z</time>
      </trkpt>
      <trkpt lat="43.94371" lon="1.90346">
        <ele>199</ele>
        <time>2011-08-17T08:20:57Z</time>
      </trkpt>
      <trkpt lat="43.94369" lon="1.90345">
        <ele>199</ele>
        <time>2011-08-17T08:20:58Z</time>
      </trkpt>
      <trkpt lat="43.94367" lon="1.90343">
        <ele>199</ele>
        <time>2011-08-17T08:21:00Z</time>
      </trkpt>
      <trkpt lat="43.94366" lon="1.90342">
        <ele>199</ele>
        <time>2011-08-17T08:21:01Z</time>
      </trkpt>
      <trkpt lat="43.94364" lon="1.9034">
        <ele>198</ele>
        <time>2011-08-17T08:21:03Z</time>
      </trkpt>
      <trkpt lat="43.94363" lon="1.90338">
        <ele>198</ele>
        <time>2011-08-17T08:21:04Z</time>
      </trkpt>
      <trkpt lat="43.94361" lon="1.90337">
        <ele>198</ele>
        <time>2011-08-17T08:21:05Z</time>
      </trkpt>
      <trkpt lat="43.9436" lon="1.90336">
        <ele>198</ele>
        <time>2011-08-17T08:21:06Z</time>
      </trkpt>
      <trkpt lat="43.94358" lon="1.90334">
        <ele>198</ele>
        <time>2011-08-17T08:21:07Z</time>
      </trkpt>
      <trkpt lat="43.94357" lon="1.90333">
        <ele>198</ele>
        <time>2011-08-17T08:21:08Z</time>
      </trkpt>
      <trkpt lat="43.94355" lon="1.90332">
        <ele>198</ele>
        <time>2011-08-17T08:21:09Z</time>
      </trkpt>
      <trkpt lat="43.94354" lon="1.9033">
        <ele>198</ele>
        <time>2011-08-17T08:21:10Z</time>
      </trkpt>
      <trkpt lat="43.94353" lon="1.90329">
        <ele>198</ele>
        <time>2011-08-17T08:21:11Z</time>
      </trkpt>
      <trkpt lat="43.94351" lon="1.90328">
        <ele>198</ele>
        <time>2011-08-17T08:21:12Z</time>
      </trkpt>
      <trkpt lat="43.9435" lon="1.90326">
        <ele>198</ele>
        <time>2011-08-17T08:21:13Z</time>
      </trkpt>
      <trkpt lat="43.94349" lon="1.90325">
        <ele>198</ele>
        <time>2011-08-17T08:21:14Z</time>
      </trkpt>
      <trkpt lat="43.94347" lon="1.90323">
        <ele>197</ele>
        <time>2011-08-17T08:21:15Z</time>
      </trkpt>
      <trkpt lat="43.94346" lon="1.90322">
        <ele>197</ele>
        <time>2011-08-17T08:21:16Z</time>
      </trkpt>
      <trkpt lat="43.94344" lon="1.90321">
        <ele>197</ele>
        <time>2011-08-17T08:21:17Z</time>
      </trkpt>
      <trkpt lat="43.94343" lon="1.90319">
        <ele>197</ele>
        <time>2011-08-17T08:21:18Z</time>
      </trkpt>
      <trkpt lat="43.94341" lon="1.90318">
        <ele>197</ele>
        <time>2011-08-17T08:21:19Z</time>
      </trkpt>
      <trkpt lat="43.9434" lon="1.90316">
        <ele>197</ele>
        <time>2011-08-17T08:21:20Z</time>
      </trkpt>
      <trkpt lat="43.94339" lon="1.90315">
        <ele>197</ele>
        <time>2011-08-17T08:21:21Z</time>
      </trkpt>
      <trkpt lat="43.94337" lon="1.90314">
        <ele>197</ele>
        <time>2011-08-17T08:21:22Z</time>
      </trkpt>
      <trkpt lat="43.94336" lon="1.90313">
        <ele>197</ele>
        <time>2011-08-17T08:21:23Z</time>
      </trkpt>
      <trkpt lat="43.94334" lon="1.90311">
        <ele>197</ele>
        <time>2011-08-17T08:21:24Z</time>
      </trkpt>
      <trkpt lat="43.94333" lon="1.9031">
        <ele>197</ele>
        <time>2011-08-17T08:21:25Z</time>
      </trkpt>
      <trkpt lat="43.94331" lon="1.90308">
        <ele>197</ele>
        <time>2011-08-17T08:21:26Z</time>
      </trkpt>
      <trkpt lat="43.9433" lon="1.90307">
        <ele>197</ele>
        <time>2011-08-17T08:21:27Z</time>
      </trkpt>
      <trkpt lat="43.94329" lon="1.90306">
        <ele>197</ele>
        <time>2011-08-17T08:21:28Z</time>
      </trkpt>
      <trkpt lat="43.94328" lon="1.90305">
        <ele>197</ele>
        <time>2011-08-17T08:21:29Z</time>
      </trkpt>
      <trkpt lat="43.94326" lon="1.90303">
        <ele>197</ele>
        <time>2011-08-17T08:21:30Z</time>
      </trkpt>
      <trkpt lat="43.94325" lon="1.90302">
        <ele>197</ele>
        <time>2011-08-17T08:21:31Z</time>
      </trkpt>
      <trkpt lat="43.94324" lon="1.903">
        <ele>197</ele>
        <time>2011-08-17T08:21:32Z</time>
      </trkpt>
      <trkpt lat="43.94323" lon="1.90298">
        <ele>197</ele>
        <time>2011-08-17T08:21:33Z</time>
      </trkpt>
      <trkpt lat="43.94322" lon="1.90296">
        <ele>197</ele>
        <time>2011-08-17T08:21:34Z</time>
      </trkpt>
      <trkpt lat="43.94321" lon="1.90294">
        <ele>197</ele>
        <time>2011-08-17T08:21:35Z</time>
      </trkpt>
      <trkpt lat="43.94321" lon="1.90292">
        <ele>197</ele>
        <time>2011-08-17T08:21:36Z</time>
      </trkpt>
      <trkpt lat="43.9432" lon="1.90289">
        <ele>197</ele>
        <time>2011-08-17T08:21:37Z</time>
      </trkpt>
      <trkpt lat="43.9432" lon="1.90287">
        <ele>197</ele>
        <time>2011-08-17T08:21:38Z</time>
      </trkpt>
      <trkpt lat="43.9432" lon="1.90284">
        <ele>197</ele>
        <time>2011-08-17T08:21:39Z</time>
      </trkpt>
      <trkpt lat="43.9432" lon="1.90281">
        <ele>197</ele>
        <time>2011-08-17T08:21:40Z</time>
      </trkpt>
      <trkpt lat="43.94321" lon="1.90279">
        <ele>197</ele>
        <time>2011-08-17T08:21:41Z</time>
      </trkpt>
      <trkpt lat="43.94322" lon="1.90276">
        <ele>197</ele>
        <time>2011-08-17T08:21:42Z</time>
      </trkpt>
      <trkpt lat="43.94323" lon="1.90274">
        <ele>197</ele>
        <time>2011-08-17T08:21:43Z</time>
      </trkpt>
      <trkpt lat="43.94324" lon="1.90272">
        <ele>197</ele>
        <time>2011-08-17T08:21:44Z</time>
      </trkpt>
      <trkpt lat="43.94326" lon="1.9027">
        <ele>197</ele>
        <time>2011-08-17T08:21:45Z</time>
      </trkpt>
      <trkpt lat="43.94327" lon="1.90268">
        <ele>197</ele>
        <time>2011-08-17T08:21:46Z</time>
      </trkpt>
      <trkpt lat="43.94328" lon="1.90266">
        <ele>197</ele>
        <time>2011-08-17T08:21:47Z</time>
      </trkpt>
      <trkpt lat="43.94329" lon="1.90263">
        <ele>197</ele>
        <time>2011-08-17T08:21:48Z</time>
      </trkpt>
      <trkpt lat="43.9433" lon="1.90261">
        <ele>197</ele>
        <time>2011-08-17T08:21:49Z</time>
      </trkpt>
      <trkpt lat="43.94331" lon="1.90259">
        <ele>197</ele>
        <time>2011-08-17T08:21:50Z</time>
      </trkpt>
      <trkpt lat="43.94332" lon="1.90257">
        <ele>197</ele>
        <time>2011-08-17T08:21:51Z</time>
      </trkpt>
      <trkpt lat="43.94333" lon="1.90254">
        <ele>197</ele>
        <time>2011-08-17T08:21:52Z</time>
      </trkpt>
      <trkpt lat="43.94334" lon="1.90252">
        <ele>197</ele>
        <time>2011-08-17T08:21:53Z</time>
      </trkpt>
      <trkpt lat="43.94335" lon="1.9025">
        <ele>197</ele>
        <time>2011-08-17T08:21:54Z</time>
      </trkpt>
      <trkpt lat="43.94336" lon="1.90247">
        <ele>197</ele>
        <time>2011-08-17T08:21:55Z</time>
      </trkpt>
      <trkpt lat="43.94336" lon="1.90245">
        <ele>197</ele>
        <time>2011-08-17T08:21:56Z</time>
      </trkpt>
      <trkpt lat="43.94337" lon="1.90243">
        <ele>197</ele>
        <time>2011-08-17T08:21:57Z</time>
      </trkpt>
      <trkpt lat="43.94338" lon="1.90241">
        <ele>197</ele>
        <time>2011-08-17T08:21:58Z</time>
      </trkpt>
      <trkpt lat="43.94339" lon="1.90238">
        <ele>198</ele>
        <time>2011-08-17T08:21:59Z</time>
      </trkpt>
      <trkpt lat="43.94339" lon="1.90236">
        <ele>199</ele>
        <time>2011-08-17T08:22:00Z</time>
      </trkpt>
      <trkpt lat="43.9434" lon="1.90234">
        <ele>199</ele>
        <time>2011-08-17T08:22:01Z</time>
      </trkpt>
      <trkpt lat="43.94341" lon="1.90231">
        <ele>200</ele>
        <time>2011-08-17T08:22:02Z</time>
      </trkpt>
      <trkpt lat="43.94341" lon="1.90229">
        <ele>201</ele>
        <time>2011-08-17T08:22:03Z</time>
      </trkpt>
      <trkpt lat="43.94342" lon="1.90227">
        <ele>201</ele>
        <time>2011-08-17T08:22:04Z</time>
      </trkpt>
      <trkpt lat="43.94343" lon="1.90224">
        <ele>202</ele>
        <time>2011-08-17T08:22:05Z</time>
      </trkpt>
      <trkpt lat="43.94344" lon="1.90222">
        <ele>203</ele>
        <time>2011-08-17T08:22:06Z</time>
      </trkpt>
      <trkpt lat="43.94344" lon="1.90219">
        <ele>203</ele>
        <time>2011-08-17T08:22:07Z</time>
      </trkpt>
      <trkpt lat="43.94345" lon="1.90217">
        <ele>204</ele>
        <time>2011-08-17T08:22:08Z</time>
      </trkpt>
      <trkpt lat="43.94346" lon="1.90214">
        <ele>204</ele>
        <time>2011-08-17T08:22:09Z</time>
      </trkpt>
      <trkpt lat="43.94347" lon="1.90211">
        <ele>205</ele>
        <time>2011-08-17T08:22:10Z</time>
      </trkpt>
      <trkpt lat="43.94349" lon="1.90208">
        <ele>205</ele>
        <time>2011-08-17T08:22:11Z</time>
      </trkpt>
      <trkpt lat="43.9435" lon="1.90206">
        <ele>205</ele>
        <time>2011-08-17T08:22:12Z</time>
      </trkpt>
      <trkpt lat="43.9435" lon="1.90204">
        <ele>205</ele>
        <time>2011-08-17T08:22:13Z</time>
      </trkpt>
      <trkpt lat="43.94351" lon="1.90202">
        <ele>205</ele>
        <time>2011-08-17T08:22:14Z</time>
      </trkpt>
      <trkpt lat="43.94351" lon="1.902">
        <ele>206</ele>
        <time>2011-08-17T08:22:15Z</time>
      </trkpt>
      <trkpt lat="43.9435" lon="1.90197">
        <ele>206</ele>
        <time>2011-08-17T08:22:16Z</time>
      </trkpt>
      <trkpt lat="43.94349" lon="1.90196">
        <ele>207</ele>
        <time>2011-08-17T08:22:17Z</time>
      </trkpt>
      <trkpt lat="43.94347" lon="1.90194">
        <ele>208</ele>
        <time>2011-08-17T08:22:18Z</time>
      </trkpt>
      <trkpt lat="43.94345" lon="1.90193">
        <ele>209</ele>
        <time>2011-08-17T08:22:19Z</time>
      </trkpt>
      <trkpt lat="43.94343" lon="1.90192">
        <ele>210</ele>
        <time>2011-08-17T08:22:20Z</time>
      </trkpt>
      <trkpt lat="43.94342" lon="1.90191">
        <ele>211</ele>
        <time>2011-08-17T08:22:21Z</time>
      </trkpt>
      <trkpt lat="43.9434" lon="1.9019">
        <ele>211</ele>
        <time>2011-08-17T08:22:22Z</time>
      </trkpt>
      <trkpt lat="43.94338" lon="1.90188">
        <ele>212</ele>
        <time>2011-08-17T08:22:23Z</time>
      </trkpt>
      <trkpt lat="43.94336" lon="1.90187">
        <ele>212</ele>
        <time>2011-08-17T08:22:24Z</time>
      </trkpt>
      <trkpt lat="43.94334" lon="1.90186">
        <ele>213</ele>
        <time>2011-08-17T08:22:25Z</time>
      </trkpt>
      <trkpt lat="43.94332" lon="1.90185">
        <ele>213</ele>
        <time>2011-08-17T08:22:26Z</time>
      </trkpt>
      <trkpt lat="43.94331" lon="1.90184">
        <ele>214</ele>
        <time>2011-08-17T08:22:27Z</time>
      </trkpt>
      <trkpt lat="43.94329" lon="1.90183">
        <ele>214</ele>
        <time>2011-08-17T08:22:28Z</time>
      </trkpt>
      <trkpt lat="43.94327" lon="1.90183">
        <ele>215</ele>
        <time>2011-08-17T08:22:29Z</time>
      </trkpt>
      <trkpt lat="43.94326" lon="1.90182">
        <ele>216</ele>
        <time>2011-08-17T08:22:30Z</time>
      </trkpt>
      <trkpt lat="43.94324" lon="1.90181">
        <ele>217</ele>
        <time>2011-08-17T08:22:31Z</time>
      </trkpt>
      <trkpt lat="43.94322" lon="1.9018">
        <ele>217</ele>
        <time>2011-08-17T08:22:32Z</time>
      </trkpt>
      <trkpt lat="43.94321" lon="1.90179">
        <ele>217</ele>
        <time>2011-08-17T08:22:33Z</time>
      </trkpt>
      <trkpt lat="43.94319" lon="1.90179">
        <ele>218</ele>
        <time>2011-08-17T08:22:34Z</time>
      </trkpt>
      <trkpt lat="43.94318" lon="1.90179">
        <ele>218</ele>
        <time>2011-08-17T08:22:35Z</time>
      </trkpt>
      <trkpt lat="43.94316" lon="1.90179">
        <ele>219</ele>
        <time>2011-08-17T08:22:36Z</time>
      </trkpt>
      <trkpt lat="43.94314" lon="1.90179">
        <ele>219</ele>
        <time>2011-08-17T08:22:37Z</time>
      </trkpt>
      <trkpt lat="43.94312" lon="1.90178">
        <ele>219</ele>
        <time>2011-08-17T08:22:38Z</time>
      </trkpt>
      <trkpt lat="43.9431" lon="1.90177">
        <ele>220</ele>
        <time>2011-08-17T08:22:39Z</time>
      </trkpt>
      <trkpt lat="43.94308" lon="1.90177">
        <ele>220</ele>
        <time>2011-08-17T08:22:40Z</time>
      </trkpt>
      <trkpt lat="43.94307" lon="1.90177">
        <ele>220</ele>
        <time>2011-08-17T08:22:41Z</time>
      </trkpt>
      <trkpt lat="43.94305" lon="1.90177">
        <ele>220</ele>
        <time>2011-08-17T08:22:42Z</time>
      </trkpt>
      <trkpt lat="43.94303" lon="1.90176">
        <ele>220</ele>
        <time>2011-08-17T08:22:43Z</time>
      </trkpt>
      <trkpt lat="43.94301" lon="1.90176">
        <ele>220</ele>
        <time>2011-08-17T08:22:44Z</time>
      </trkpt>
      <trkpt lat="43.94299" lon="1.90175">
        <ele>220</ele>
        <time>2011-08-17T08:22:45Z</time>
      </trkpt>
      <trkpt lat="43.94297" lon="1.90174">
        <ele>220</ele>
        <time>2011-08-17T08:22:46Z</time>
      </trkpt>
      <trkpt lat="43.94295" lon="1.90173">
        <ele>220</ele>
        <time>2011-08-17T08:22:47Z</time>
      </trkpt>
      <trkpt lat="43.94293" lon="1.90173">
        <ele>220</ele>
        <time>2011-08-17T08:22:48Z</time>
      </trkpt>
      <trkpt lat="43.94291" lon="1.90174">
        <ele>220</ele>
        <time>2011-08-17T08:22:49Z</time>
      </trkpt>
      <trkpt lat="43.94289" lon="1.90174">
        <ele>220</ele>
        <time>2011-08-17T08:22:50Z</time>
      </trkpt>
      <trkpt lat="43.94287" lon="1.90174">
        <ele>220</ele>
        <time>2011-08-17T08:22:51Z</time>
      </trkpt>
      <trkpt lat="43.94285" lon="1.90174">
        <ele>221</ele>
        <time>2011-08-17T08:22:52Z</time>
      </trkpt>
      <trkpt lat="43.94284" lon="1.90173">
        <ele>221</ele>
        <time>2011-08-17T08:22:53Z</time>
      </trkpt>
      <trkpt lat="43.94282" lon="1.90173">
        <ele>222</ele>
        <time>2011-08-17T08:22:54Z</time>
      </trkpt>
      <trkpt lat="43.9428" lon="1.90173">
        <ele>222</ele>
        <time>2011-08-17T08:22:55Z</time>
      </trkpt>
      <trkpt lat="43.94278" lon="1.90172">
        <ele>222</ele>
        <time>2011-08-17T08:22:56Z</time>
      </trkpt>
      <trkpt lat="43.94275" lon="1.90171">
        <ele>222</ele>
        <time>2011-08-17T08:22:57Z</time>
      </trkpt>
      <trkpt lat="43.94273" lon="1.90169">
        <ele>222</ele>
        <time>2011-08-17T08:22:58Z</time>
      </trkpt>
      <trkpt lat="43.94271" lon="1.90168">
        <ele>222</ele>
        <time>2011-08-17T08:22:59Z</time>
      </trkpt>
      <trkpt lat="43.94269" lon="1.90166">
        <ele>222</ele>
        <time>2011-08-17T08:23:00Z</time>
      </trkpt>
      <trkpt lat="43.94267" lon="1.90165">
        <ele>222</ele>
        <time>2011-08-17T08:23:01Z</time>
      </trkpt>
      <trkpt lat="43.94266" lon="1.90163">
        <ele>222</ele>
        <time>2011-08-17T08:23:02Z</time>
      </trkpt>
      <trkpt lat="43.94264" lon="1.90161">
        <ele>222</ele>
        <time>2011-08-17T08:23:03Z</time>
      </trkpt>
      <trkpt lat="43.94263" lon="1.90159">
        <ele>222</ele>
        <time>2011-08-17T08:23:04Z</time>
      </trkpt>
      <trkpt lat="43.94262" lon="1.90157">
        <ele>222</ele>
        <time>2011-08-17T08:23:05Z</time>
      </trkpt>
      <trkpt lat="43.9426" lon="1.90155">
        <ele>222</ele>
        <time>2011-08-17T08:23:06Z</time>
      </trkpt>
      <trkpt lat="43.94259" lon="1.90152">
        <ele>222</ele>
        <time>2011-08-17T08:23:07Z</time>
      </trkpt>
      <trkpt lat="43.94258" lon="1.90149">
        <ele>222</ele>
        <time>2011-08-17T08:23:08Z</time>
      </trkpt>
      <trkpt lat="43.94258" lon="1.90147">
        <ele>222</ele>
        <time>2011-08-17T08:23:09Z</time>
      </trkpt>
      <trkpt lat="43.94259" lon="1.90145">
        <ele>222</ele>
        <time>2011-08-17T08:23:10Z</time>
      </trkpt>
      <trkpt lat="43.9426" lon="1.90143">
        <ele>222</ele>
        <time>2011-08-17T08:23:11Z</time>
      </trkpt>
      <trkpt lat="43.94262" lon="1.9014">
        <ele>223</ele>
        <time>2011-08-17T08:23:12Z</time>
      </trkpt>
      <trkpt lat="43.94263" lon="1.90138">
        <ele>223</ele>
        <time>2011-08-17T08:23:13Z</time>
      </trkpt>
      <trkpt lat="43.94263" lon="1.90136">
        <ele>224</ele>
        <time>2011-08-17T08:23:14Z</time>
      </trkpt>
      <trkpt lat="43.94264" lon="1.90134">
        <ele>224</ele>
        <time>2011-08-17T08:23:15Z</time>
      </trkpt>
      <trkpt lat="43.94264" lon="1.90131">
        <ele>224</ele>
        <time>2011-08-17T08:23:16Z</time>
      </trkpt>
      <trkpt lat="43.94265" lon="1.90129">
        <ele>224</ele>
        <time>2011-08-17T08:23:17Z</time>
      </trkpt>
      <trkpt lat="43.94266" lon="1.90126">
        <ele>224</ele>
        <time>2011-08-17T08:23:18Z</time>
      </trkpt>
      <trkpt lat="43.94267" lon="1.90124">
        <ele>224</ele>
        <time>2011-08-17T08:23:19Z</time>
      </trkpt>
      <trkpt lat="43.94268" lon="1.90121">
        <ele>224</ele>
        <time>2011-08-17T08:23:20Z</time>
      </trkpt>
      <trkpt lat="43.94269" lon="1.90119">
        <ele>224</ele>
        <time>2011-08-17T08:23:21Z</time>
      </trkpt>
      <trkpt lat="43.9427" lon="1.90117">
        <ele>224</ele>
        <time>2011-08-17T08:23:22Z</time>
      </trkpt>
      <trkpt lat="43.94272" lon="1.90116">
        <ele>224</ele>
        <time>2011-08-17T08:23:23Z</time>
      </trkpt>
      <trkpt lat="43.94273" lon="1.90114">
        <ele>224</ele>
        <time>2011-08-17T08:23:24Z</time>
      </trkpt>
      <trkpt lat="43.94275" lon="1.90113">
        <ele>224</ele>
        <time>2011-08-17T08:23:25Z</time>
      </trkpt>
      <trkpt lat="43.94276" lon="1.90111">
        <ele>225</ele>
        <time>2011-08-17T08:23:26Z</time>
      </trkpt>
      <trkpt lat="43.94277" lon="1.9011">
        <ele>225</ele>
        <time>2011-08-17T08:23:27Z</time>
      </trkpt>
      <trkpt lat="43.94278" lon="1.90108">
        <ele>226</ele>
        <time>2011-08-17T08:23:28Z</time>
      </trkpt>
      <trkpt lat="43.94279" lon="1.90106">
        <ele>226</ele>
        <time>2011-08-17T08:23:29Z</time>
      </trkpt>
      <trkpt lat="43.9428" lon="1.90103">
        <ele>226</ele>
        <time>2011-08-17T08:23:30Z</time>
      </trkpt>
      <trkpt lat="43.94281" lon="1.90101">
        <ele>226</ele>
        <time>2011-08-17T08:23:31Z</time>
      </trkpt>
      <trkpt lat="43.94283" lon="1.90098">
        <ele>226</ele>
        <time>2011-08-17T08:23:32Z</time>
      </trkpt>
      <trkpt lat="43.94283" lon="1.90095">
        <ele>226</ele>
        <time>2011-08-17T08:23:33Z</time>
      </trkpt>
      <trkpt lat="43.94284" lon="1.90092">
        <ele>226</ele>
        <time>2011-08-17T08:23:34Z</time>
      </trkpt>
      <trkpt lat="43.94285" lon="1.90088">
        <ele>226</ele>
        <time>2011-08-17T08:23:35Z</time>
      </trkpt>
      <trkpt lat="43.94286" lon="1.90084">
        <ele>226</ele>
        <time>2011-08-17T08:23:36Z</time>
      </trkpt>
      <trkpt lat="43.94287" lon="1.90079">
        <ele>226</ele>
        <time>2011-08-17T08:23:37Z</time>
      </trkpt>
      <trkpt lat="43.94288" lon="1.90075">
        <ele>226</ele>
        <time>2011-08-17T08:23:38Z</time>
      </trkpt>
      <trkpt lat="43.9429" lon="1.9007">
        <ele>226</ele>
        <time>2011-08-17T08:23:39Z</time>
      </trkpt>
      <trkpt lat="43.94291" lon="1.90066">
        <ele>226</ele>
        <time>2011-08-17T08:23:40Z</time>
      </trkpt>
      <trkpt lat="43.94292" lon="1.90061">
        <ele>226</ele>
        <time>2011-08-17T08:23:41Z</time>
      </trkpt>
      <trkpt lat="43.94293" lon="1.90056">
        <ele>226</ele>
        <time>2011-08-17T08:23:42Z</time>
      </trkpt>
      <trkpt lat="43.94295" lon="1.90051">
        <ele>226</ele>
        <time>2011-08-17T08:23:43Z</time>
      </trkpt>
      <trkpt lat="43.94296" lon="1.90047">
        <ele>226</ele>
        <time>2011-08-17T08:23:44Z</time>
      </trkpt>
      <trkpt lat="43.94297" lon="1.90043">
        <ele>226</ele>
        <time>2011-08-17T08:23:45Z</time>
      </trkpt>
      <trkpt lat="43.94298" lon="1.90041">
        <ele>226</ele>
        <time>2011-08-17T08:23:46Z</time>
      </trkpt>
      <trkpt lat="43.94299" lon="1.90038">
        <ele>226</ele>
        <time>2011-08-17T08:23:47Z</time>
      </trkpt>
      <trkpt lat="43.943" lon="1.90036">
        <ele>226</ele>
        <time>2011-08-17T08:23:48Z</time>
      </trkpt>
      <trkpt lat="43.94302" lon="1.90036">
        <ele>226</ele>
        <time>2011-08-17T08:23:49Z</time>
      </trkpt>
      <trkpt lat="43.94303" lon="1.90036">
        <ele>226</ele>
        <time>2011-08-17T08:23:50Z</time>
      </trkpt>
      <trkpt lat="43.94304" lon="1.90035">
        <ele>226</ele>
        <time>2011-08-17T08:23:51Z</time>
      </trkpt>
      <trkpt lat="43.94306" lon="1.90034">
        <ele>226</ele>
        <time>2011-08-17T08:23:53Z</time>
      </trkpt>
      <trkpt lat="43.94308" lon="1.90034">
        <ele>226</ele>
        <time>2011-08-17T08:23:57Z</time>
      </trkpt>
      <trkpt lat="43.94309" lon="1.90035">
        <ele>226</ele>
        <time>2011-08-17T08:23:59Z</time>
      </trkpt>
      <trkpt lat="43.94311" lon="1.90036">
        <ele>226</ele>
        <time>2011-08-17T08:24:03Z</time>
      </trkpt>
      <trkpt lat="43.94311" lon="1.90037">
        <ele>226</ele>
        <time>2011-08-17T08:24:10Z</time>
      </trkpt>
      <trkpt lat="43.94312" lon="1.90039">
        <ele>226</ele>
        <time>2011-08-17T08:24:16Z</time>
      </trkpt>
      <trkpt lat="43.94313" lon="1.9004">
        <ele>225</ele>
        <time>2011-08-17T08:24:34Z</time>
      </trkpt>
      <trkpt lat="43.94314" lon="1.9004">
        <ele>224</ele>
        <time>2011-08-17T08:24:56Z</time>
      </trkpt>
      <trkpt lat="43.94315" lon="1.90039">
        <ele>221</ele>
        <time>2011-08-17T08:25:53Z</time>
      </trkpt>
      <trkpt lat="43.94315" lon="1.90037">
        <ele>219</ele>
        <time>2011-08-17T08:26:17Z</time>
      </trkpt>
      <trkpt lat="43.94315" lon="1.90036">
        <ele>219</ele>
        <time>2011-08-17T08:26:19Z</time>
      </trkpt>
      <trkpt lat="43.94313" lon="1.90035">
        <ele>220</ele>
        <time>2011-08-17T08:26:25Z</time>
      </trkpt>
      <trkpt lat="43.94312" lon="1.90035">
        <ele>220</ele>
        <time>2011-08-17T08:26:28Z</time>
      </trkpt>
      <trkpt lat="43.94311" lon="1.90034">
        <ele>220</ele>
        <time>2011-08-17T08:26:30Z</time>
      </trkpt>
      <trkpt lat="43.9431" lon="1.90033">
        <ele>220</ele>
        <time>2011-08-17T08:26:32Z</time>
      </trkpt>
      <trkpt lat="43.94308" lon="1.90033">
        <ele>220</ele>
        <time>2011-08-17T08:26:38Z</time>
      </trkpt>
      <trkpt lat="43.9431" lon="1.90034">
        <ele>220</ele>
        <time>2011-08-17T08:26:41Z</time>
      </trkpt>
      <trkpt lat="43.94311" lon="1.90035">
        <ele>220</ele>
        <time>2011-08-17T08:26:43Z</time>
      </trkpt>
      <trkpt lat="43.94312" lon="1.90037">
        <ele>220</ele>
        <time>2011-08-17T08:26:45Z</time>
      </trkpt>
      <trkpt lat="43.94313" lon="1.90039">
        <ele>220</ele>
        <time>2011-08-17T08:26:47Z</time>
      </trkpt>
      <trkpt lat="43.94312" lon="1.90038">
        <ele>220</ele>
        <time>2011-08-17T08:26:51Z</time>
      </trkpt>
      <trkpt lat="43.94311" lon="1.90038">
        <ele>220</ele>
        <time>2011-08-17T08:26:54Z</time>
      </trkpt>
      <trkpt lat="43.94313" lon="1.90036">
        <ele>220</ele>
        <time>2011-08-17T08:26:58Z</time>
      </trkpt>
      <trkpt lat="43.94313" lon="1.90034">
        <ele>220</ele>
        <time>2011-08-17T08:26:59Z</time>
      </trkpt>
      <trkpt lat="43.94315" lon="1.90032">
        <ele>220</ele>
        <time>2011-08-17T08:27:01Z</time>
      </trkpt>
      <trkpt lat="43.94315" lon="1.9003">
        <ele>220</ele>
        <time>2011-08-17T08:27:02Z</time>
      </trkpt>
      <trkpt lat="43.94316" lon="1.90029">
        <ele>220</ele>
        <time>2011-08-17T08:27:03Z</time>
      </trkpt>
      <trkpt lat="43.94318" lon="1.90026">
        <ele>220</ele>
        <time>2011-08-17T08:27:05Z</time>
      </trkpt>
      <trkpt lat="43.9432" lon="1.90025">
        <ele>220</ele>
        <time>2011-08-17T08:27:06Z</time>
      </trkpt>
      <trkpt lat="43.94321" lon="1.90024">
        <ele>220</ele>
        <time>2011-08-17T08:27:07Z</time>
      </trkpt>
      <trkpt lat="43.94322" lon="1.90022">
        <ele>220</ele>
        <time>2011-08-17T08:27:09Z</time>
      </trkpt>
      <trkpt lat="43.94324" lon="1.90019">
        <ele>220</ele>
        <time>2011-08-17T08:27:11Z</time>
      </trkpt>
      <trkpt lat="43.94324" lon="1.90017">
        <ele>220</ele>
        <time>2011-08-17T08:27:12Z</time>
      </trkpt>
      <trkpt lat="43.94326" lon="1.90015">
        <ele>220</ele>
        <time>2011-08-17T08:27:13Z</time>
      </trkpt>
      <trkpt lat="43.94326" lon="1.90013">
        <ele>220</ele>
        <time>2011-08-17T08:27:14Z</time>
      </trkpt>
      <trkpt lat="43.94327" lon="1.90011">
        <ele>220</ele>
        <time>2011-08-17T08:27:15Z</time>
      </trkpt>
      <trkpt lat="43.94328" lon="1.90009">
        <ele>220</ele>
        <time>2011-08-17T08:27:16Z</time>
      </trkpt>
      <trkpt lat="43.94329" lon="1.90007">
        <ele>220</ele>
        <time>2011-08-17T08:27:17Z</time>
      </trkpt>
      <trkpt lat="43.9433" lon="1.90005">
        <ele>220</ele>
        <time>2011-08-17T08:27:18Z</time>
      </trkpt>
      <trkpt lat="43.94331" lon="1.90003">
        <ele>220</ele>
        <time>2011-08-17T08:27:19Z</time>
      </trkpt>
      <trkpt lat="43.94332" lon="1.90001">
        <ele>220</ele>
        <time>2011-08-17T08:27:20Z</time>
      </trkpt>
      <trkpt lat="43.94333" lon="1.89999">
        <ele>220</ele>
        <time>2011-08-17T08:27:21Z</time>
      </trkpt>
      <trkpt lat="43.94334" lon="1.89997">
        <ele>220</ele>
        <time>2011-08-17T08:27:22Z</time>
      </trkpt>
      <trkpt lat="43.94336" lon="1.89995">
        <ele>220</ele>
        <time>2011-08-17T08:27:23Z</time>
      </trkpt>
      <trkpt lat="43.94337" lon="1.89993">
        <ele>220</ele>
        <time>2011-08-17T08:27:24Z</time>
      </trkpt>
      <trkpt lat="43.94338" lon="1.89991">
        <ele>220</ele>
        <time>2011-08-17T08:27:25Z</time>
      </trkpt>
      <trkpt lat="43.94339" lon="1.89989">
        <ele>220</ele>
        <time>2011-08-17T08:27:26Z</time>
      </trkpt>
      <trkpt lat="43.94341" lon="1.89987">
        <ele>220</ele>
        <time>2011-08-17T08:27:27Z</time>
      </trkpt>
      <trkpt lat="43.94342" lon="1.89986">
        <ele>220</ele>
        <time>2011-08-17T08:27:28Z</time>
      </trkpt>
      <trkpt lat="43.94343" lon="1.89983">
        <ele>220</ele>
        <time>2011-08-17T08:27:29Z</time>
      </trkpt>
      <trkpt lat="43.94344" lon="1.89982">
        <ele>220</ele>
        <time>2011-08-17T08:27:30Z</time>
      </trkpt>
      <trkpt lat="43.94345" lon="1.8998">
        <ele>220</ele>
        <time>2011-08-17T08:27:31Z</time>
      </trkpt>
      <trkpt lat="43.94347" lon="1.89978">
        <ele>220</ele>
        <time>2011-08-17T08:27:32Z</time>
      </trkpt>
      <trkpt lat="43.94347" lon="1.89976">
        <ele>220</ele>
        <time>2011-08-17T08:27:33Z</time>
      </trkpt>
      <trkpt lat="43.94348" lon="1.89974">
        <ele>220</ele>
        <time>2011-08-17T08:27:34Z</time>
      </trkpt>
      <trkpt lat="43.94349" lon="1.89972">
        <ele>220</ele>
        <time>2011-08-17T08:27:35Z</time>
      </trkpt>
      <trkpt lat="43.9435" lon="1.8997">
        <ele>220</ele>
        <time>2011-08-17T08:27:36Z</time>
      </trkpt>
      <trkpt lat="43.94351" lon="1.89968">
        <ele>220</ele>
        <time>2011-08-17T08:27:37Z</time>
      </trkpt>
      <trkpt lat="43.94352" lon="1.89966">
        <ele>220</ele>
        <time>2011-08-17T08:27:38Z</time>
      </trkpt>
      <trkpt lat="43.94353" lon="1.89964">
        <ele>220</ele>
        <time>2011-08-17T08:27:39Z</time>
      </trkpt>
      <trkpt lat="43.94354" lon="1.89962">
        <ele>220</ele>
        <time>2011-08-17T08:27:40Z</time>
      </trkpt>
      <trkpt lat="43.94355" lon="1.8996">
        <ele>220</ele>
        <time>2011-08-17T08:27:41Z</time>
      </trkpt>
      <trkpt lat="43.94356" lon="1.89957">
        <ele>220</ele>
        <time>2011-08-17T08:27:42Z</time>
      </trkpt>
      <trkpt lat="43.94357" lon="1.89955">
        <ele>220</ele>
        <time>2011-08-17T08:27:43Z</time>
      </trkpt>
      <trkpt lat="43.94358" lon="1.89953">
        <ele>220</ele>
        <time>2011-08-17T08:27:44Z</time>
      </trkpt>
      <trkpt lat="43.94358" lon="1.8995">
        <ele>220</ele>
        <time>2011-08-17T08:27:45Z</time>
      </trkpt>
      <trkpt lat="43.94359" lon="1.89947">
        <ele>220</ele>
        <time>2011-08-17T08:27:46Z</time>
      </trkpt>
      <trkpt lat="43.9436" lon="1.89945">
        <ele>220</ele>
        <time>2011-08-17T08:27:47Z</time>
      </trkpt>
      <trkpt lat="43.94361" lon="1.89943">
        <ele>220</ele>
        <time>2011-08-17T08:27:48Z</time>
      </trkpt>
      <trkpt lat="43.94363" lon="1.8994">
        <ele>220</ele>
        <time>2011-08-17T08:27:49Z</time>
      </trkpt>
      <trkpt lat="43.94364" lon="1.89938">
        <ele>220</ele>
        <time>2011-08-17T08:27:50Z</time>
      </trkpt>
      <trkpt lat="43.94365" lon="1.89936">
        <ele>220</ele>
        <time>2011-08-17T08:27:51Z</time>
      </trkpt>
      <trkpt lat="43.94367" lon="1.89934">
        <ele>220</ele>
        <time>2011-08-17T08:27:52Z</time>
      </trkpt>
      <trkpt lat="43.94368" lon="1.89931">
        <ele>220</ele>
        <time>2011-08-17T08:27:53Z</time>
      </trkpt>
      <trkpt lat="43.94368" lon="1.89929">
        <ele>220</ele>
        <time>2011-08-17T08:27:54Z</time>
      </trkpt>
      <trkpt lat="43.9437" lon="1.89926">
        <ele>220</ele>
        <time>2011-08-17T08:27:55Z</time>
      </trkpt>
      <trkpt lat="43.9437" lon="1.89924">
        <ele>220</ele>
        <time>2011-08-17T08:27:56Z</time>
      </trkpt>
      <trkpt lat="43.94371" lon="1.89921">
        <ele>220</ele>
        <time>2011-08-17T08:27:57Z</time>
      </trkpt>
      <trkpt lat="43.94372" lon="1.89919">
        <ele>220</ele>
        <time>2011-08-17T08:27:58Z</time>
      </trkpt>
      <trkpt lat="43.94373" lon="1.89917">
        <ele>220</ele>
        <time>2011-08-17T08:27:59Z</time>
      </trkpt>
      <trkpt lat="43.94373" lon="1.89915">
        <ele>220</ele>
        <time>2011-08-17T08:28:00Z</time>
      </trkpt>
      <trkpt lat="43.94374" lon="1.89913">
        <ele>220</ele>
        <time>2011-08-17T08:28:01Z</time>
      </trkpt>
      <trkpt lat="43.94375" lon="1.8991">
        <ele>220</ele>
        <time>2011-08-17T08:28:02Z</time>
      </trkpt>
      <trkpt lat="43.94376" lon="1.89908">
        <ele>220</ele>
        <time>2011-08-17T08:28:03Z</time>
      </trkpt>
      <trkpt lat="43.94376" lon="1.89906">
        <ele>220</ele>
        <time>2011-08-17T08:28:04Z</time>
      </trkpt>
      <trkpt lat="43.94377" lon="1.89904">
        <ele>220</ele>
        <time>2011-08-17T08:28:05Z</time>
      </trkpt>
      <trkpt lat="43.94379" lon="1.89901">
        <ele>220</ele>
        <time>2011-08-17T08:28:06Z</time>
      </trkpt>
      <trkpt lat="43.94379" lon="1.89899">
        <ele>220</ele>
        <time>2011-08-17T08:28:07Z</time>
      </trkpt>
      <trkpt lat="43.94381" lon="1.89897">
        <ele>220</ele>
        <time>2011-08-17T08:28:08Z</time>
      </trkpt>
      <trkpt lat="43.94382" lon="1.89894">
        <ele>220</ele>
        <time>2011-08-17T08:28:09Z</time>
      </trkpt>
      <trkpt lat="43.94383" lon="1.89892">
        <ele>220</ele>
        <time>2011-08-17T08:28:10Z</time>
      </trkpt>
      <trkpt lat="43.94384" lon="1.8989">
        <ele>220</ele>
        <time>2011-08-17T08:28:11Z</time>
      </trkpt>
      <trkpt lat="43.94384" lon="1.89887">
        <ele>220</ele>
        <time>2011-08-17T08:28:12Z</time>
      </trkpt>
      <trkpt lat="43.94386" lon="1.89885">
        <ele>220</ele>
        <time>2011-08-17T08:28:13Z</time>
      </trkpt>
      <trkpt lat="43.94386" lon="1.89883">
        <ele>220</ele>
        <time>2011-08-17T08:28:14Z</time>
      </trkpt>
      <trkpt lat="43.94387" lon="1.89881">
        <ele>220</ele>
        <time>2011-08-17T08:28:15Z</time>
      </trkpt>
      <trkpt lat="43.94388" lon="1.89879">
        <ele>220</ele>
        <time>2011-08-17T08:28:16Z</time>
      </trkpt>
      <trkpt lat="43.94389" lon="1.89876">
        <ele>220</ele>
        <time>2011-08-17T08:28:17Z</time>
      </trkpt>
      <trkpt lat="43.9439" lon="1.89874">
        <ele>220</ele>
        <time>2011-08-17T08:28:18Z</time>
      </trkpt>
      <trkpt lat="43.94391" lon="1.89872">
        <ele>220</ele>
        <time>2011-08-17T08:28:19Z</time>
      </trkpt>
      <trkpt lat="43.94392" lon="1.8987">
        <ele>220</ele>
        <time>2011-08-17T08:28:20Z</time>
      </trkpt>
      <trkpt lat="43.94394" lon="1.89868">
        <ele>220</ele>
        <time>2011-08-17T08:28:21Z</time>
      </trkpt>
      <trkpt lat="43.94396" lon="1.89868">
        <ele>220</ele>
        <time>2011-08-17T08:28:22Z</time>
      </trkpt>
      <trkpt lat="43.94398" lon="1.89868">
        <ele>220</ele>
        <time>2011-08-17T08:28:23Z</time>
      </trkpt>
      <trkpt lat="43.944" lon="1.89869">
        <ele>220</ele>
        <time>2011-08-17T08:28:24Z</time>
      </trkpt>
      <trkpt lat="43.94402" lon="1.8987">
        <ele>220</ele>
        <time>2011-08-17T08:28:25Z</time>
      </trkpt>
      <trkpt lat="43.94404" lon="1.8987">
        <ele>220</ele>
        <time>2011-08-17T08:28:26Z</time>
      </trkpt>
      <trkpt lat="43.94407" lon="1.89871">
        <ele>220</ele>
        <time>2011-08-17T08:28:27Z</time>
      </trkpt>
      <trkpt lat="43.94409" lon="1.89872">
        <ele>220</ele>
        <time>2011-08-17T08:28:28Z</time>
      </trkpt>
      <trkpt lat="43.94411" lon="1.89873">
        <ele>220</ele>
        <time>2011-08-17T08:28:29Z</time>
      </trkpt>
      <trkpt lat="43.94413" lon="1.89874">
        <ele>220</ele>
        <time>2011-08-17T08:28:30Z</time>
      </trkpt>
      <trkpt lat="43.94416" lon="1.89876">
        <ele>220</ele>
        <time>2011-08-17T08:28:31Z</time>
      </trkpt>
      <trkpt lat="43.94418" lon="1.89877">
        <ele>221</ele>
        <time>2011-08-17T08:28:32Z</time>
      </trkpt>
      <trkpt lat="43.9442" lon="1.89878">
        <ele>221</ele>
        <time>2011-08-17T08:28:33Z</time>
      </trkpt>
      <trkpt lat="43.94422" lon="1.89879">
        <ele>221</ele>
        <time>2011-08-17T08:28:34Z</time>
      </trkpt>
      <trkpt lat="43.94425" lon="1.89879">
        <ele>222</ele>
        <time>2011-08-17T08:28:35Z</time>
      </trkpt>
      <trkpt lat="43.94427" lon="1.89879">
        <ele>222</ele>
        <time>2011-08-17T08:28:36Z</time>
      </trkpt>
      <trkpt lat="43.9443" lon="1.89879">
        <ele>223</ele>
        <time>2011-08-17T08:28:37Z</time>
      </trkpt>
      <trkpt lat="43.94432" lon="1.89878">
        <ele>223</ele>
        <time>2011-08-17T08:28:38Z</time>
      </trkpt>
      <trkpt lat="43.94434" lon="1.89877">
        <ele>223</ele>
        <time>2011-08-17T08:28:39Z</time>
      </trkpt>
      <trkpt lat="43.94435" lon="1.89875">
        <ele>224</ele>
        <time>2011-08-17T08:28:40Z</time>
      </trkpt>
      <trkpt lat="43.94436" lon="1.89873">
        <ele>224</ele>
        <time>2011-08-17T08:28:41Z</time>
      </trkpt>
      <trkpt lat="43.94437" lon="1.89871">
        <ele>224</ele>
        <time>2011-08-17T08:28:42Z</time>
      </trkpt>
      <trkpt lat="43.94438" lon="1.89868">
        <ele>224</ele>
        <time>2011-08-17T08:28:43Z</time>
      </trkpt>
      <trkpt lat="43.94439" lon="1.89866">
        <ele>224</ele>
        <time>2011-08-17T08:28:44Z</time>
      </trkpt>
      <trkpt lat="43.9444" lon="1.89863">
        <ele>224</ele>
        <time>2011-08-17T08:28:45Z</time>
      </trkpt>
      <trkpt lat="43.94441" lon="1.8986">
        <ele>225</ele>
        <time>2011-08-17T08:28:46Z</time>
      </trkpt>
      <trkpt lat="43.94442" lon="1.89858">
        <ele>225</ele>
        <time>2011-08-17T08:28:47Z</time>
      </trkpt>
      <trkpt lat="43.94442" lon="1.89856">
        <ele>225</ele>
        <time>2011-08-17T08:28:48Z</time>
      </trkpt>
      <trkpt lat="43.94443" lon="1.89853">
        <ele>225</ele>
        <time>2011-08-17T08:28:49Z</time>
      </trkpt>
      <trkpt lat="43.94444" lon="1.8985">
        <ele>226</ele>
        <time>2011-08-17T08:28:50Z</time>
      </trkpt>
      <trkpt lat="43.94445" lon="1.89848">
        <ele>226</ele>
        <time>2011-08-17T08:28:51Z</time>
      </trkpt>
      <trkpt lat="43.94445" lon="1.89845">
        <ele>226</ele>
        <time>2011-08-17T08:28:52Z</time>
      </trkpt>
      <trkpt lat="43.94446" lon="1.89843">
        <ele>227</ele>
        <time>2011-08-17T08:28:53Z</time>
      </trkpt>
      <trkpt lat="43.94447" lon="1.8984">
        <ele>227</ele>
        <time>2011-08-17T08:28:54Z</time>
      </trkpt>
      <trkpt lat="43.94447" lon="1.89838">
        <ele>227</ele>
        <time>2011-08-17T08:28:55Z</time>
      </trkpt>
      <trkpt lat="43.94447" lon="1.89835">
        <ele>227</ele>
        <time>2011-08-17T08:28:56Z</time>
      </trkpt>
      <trkpt lat="43.94447" lon="1.89833">
        <ele>227</ele>
        <time>2011-08-17T08:28:57Z</time>
      </trkpt>
      <trkpt lat="43.94448" lon="1.8983">
        <ele>227</ele>
        <time>2011-08-17T08:28:58Z</time>
      </trkpt>
      <trkpt lat="43.94448" lon="1.89827">
        <ele>227</ele>
        <time>2011-08-17T08:28:59Z</time>
      </trkpt>
      <trkpt lat="43.94448" lon="1.89824">
        <ele>227</ele>
        <time>2011-08-17T08:29:00Z</time>
      </trkpt>
      <trkpt lat="43.94448" lon="1.89821">
        <ele>227</ele>
        <time>2011-08-17T08:29:01Z</time>
      </trkpt>
      <trkpt lat="43.94448" lon="1.89818">
        <ele>227</ele>
        <time>2011-08-17T08:29:02Z</time>
      </trkpt>
      <trkpt lat="43.94448" lon="1.89815">
        <ele>227</ele>
        <time>2011-08-17T08:29:03Z</time>
      </trkpt>
      <trkpt lat="43.94447" lon="1.89813">
        <ele>227</ele>
        <time>2011-08-17T08:29:04Z</time>
      </trkpt>
      <trkpt lat="43.94447" lon="1.8981">
        <ele>227</ele>
        <time>2011-08-17T08:29:05Z</time>
      </trkpt>
      <trkpt lat="43.94446" lon="1.89807">
        <ele>227</ele>
        <time>2011-08-17T08:29:06Z</time>
      </trkpt>
      <trkpt lat="43.94446" lon="1.89805">
        <ele>227</ele>
        <time>2011-08-17T08:29:07Z</time>
      </trkpt>
      <trkpt lat="43.94445" lon="1.89803">
        <ele>227</ele>
        <time>2011-08-17T08:29:08Z</time>
      </trkpt>
      <trkpt lat="43.94445" lon="1.89801">
        <ele>227</ele>
        <time>2011-08-17T08:29:09Z</time>
      </trkpt>
      <trkpt lat="43.94445" lon="1.89799">
        <ele>227</ele>
        <time>2011-08-17T08:29:10Z</time>
      </trkpt>
      <trkpt lat="43.94445" lon="1.89798">
        <ele>227</ele>
        <time>2011-08-17T08:29:11Z</time>
      </trkpt>
      <trkpt lat="43.94445" lon="1.89796">
        <ele>227</ele>
        <time>2011-08-17T08:29:12Z</time>
      </trkpt>
      <trkpt lat="43.94445" lon="1.89794">
        <ele>227</ele>
        <time>2011-08-17T08:29:13Z</time>
      </trkpt>
      <trkpt lat="43.94445" lon="1.89793">
        <ele>227</ele>
        <time>2011-08-17T08:29:14Z</time>
      </trkpt>
      <trkpt lat="43.94445" lon="1.89791">
        <ele>227</ele>
        <time>2011-08-17T08:29:15Z</time>
      </trkpt>
      <trkpt lat="43.94445" lon="1.89789">
        <ele>227</ele>
        <time>2011-08-17T08:29:16Z</time>
      </trkpt>
      <trkpt lat="43.94446" lon="1.89787">
        <ele>227</ele>
        <time>2011-08-17T08:29:17Z</time>
      </trkpt>
      <trkpt lat="43.94447" lon="1.89785">
        <ele>227</ele>
        <time>2011-08-17T08:29:18Z</time>
      </trkpt>
      <trkpt lat="43.94447" lon="1.89783">
        <ele>227</ele>
        <time>2011-08-17T08:29:19Z</time>
      </trkpt>
      <trkpt lat="43.94447" lon="1.89781">
        <ele>227</ele>
        <time>2011-08-17T08:29:20Z</time>
      </trkpt>
      <trkpt lat="43.94448" lon="1.89779">
        <ele>227</ele>
        <time>2011-08-17T08:29:21Z</time>
      </trkpt>
      <trkpt lat="43.94448" lon="1.89777">
        <ele>226</ele>
        <time>2011-08-17T08:29:22Z</time>
      </trkpt>
      <trkpt lat="43.94448" lon="1.89775">
        <ele>226</ele>
        <time>2011-08-17T08:29:23Z</time>
      </trkpt>
      <trkpt lat="43.94449" lon="1.89773">
        <ele>226</ele>
        <time>2011-08-17T08:29:24Z</time>
      </trkpt>
      <trkpt lat="43.9445" lon="1.89771">
        <ele>226</ele>
        <time>2011-08-17T08:29:25Z</time>
      </trkpt>
      <trkpt lat="43.9445" lon="1.89769">
        <ele>226</ele>
        <time>2011-08-17T08:29:26Z</time>
      </trkpt>
      <trkpt lat="43.94451" lon="1.89767">
        <ele>226</ele>
        <time>2011-08-17T08:29:27Z</time>
      </trkpt>
      <trkpt lat="43.94452" lon="1.89765">
        <ele>226</ele>
        <time>2011-08-17T08:29:28Z</time>
      </trkpt>
      <trkpt lat="43.94452" lon="1.89763">
        <ele>226</ele>
        <time>2011-08-17T08:29:29Z</time>
      </trkpt>
      <trkpt lat="43.94453" lon="1.89761">
        <ele>226</ele>
        <time>2011-08-17T08:29:30Z</time>
      </trkpt>
      <trkpt lat="43.94453" lon="1.8976">
        <ele>226</ele>
        <time>2011-08-17T08:29:31Z</time>
      </trkpt>
      <trkpt lat="43.94454" lon="1.89758">
        <ele>226</ele>
        <time>2011-08-17T08:29:32Z</time>
      </trkpt>
      <trkpt lat="43.94454" lon="1.89756">
        <ele>226</ele>
        <time>2011-08-17T08:29:33Z</time>
      </trkpt>
      <trkpt lat="43.94455" lon="1.89754">
        <ele>226</ele>
        <time>2011-08-17T08:29:34Z</time>
      </trkpt>
      <trkpt lat="43.94456" lon="1.89752">
        <ele>226</ele>
        <time>2011-08-17T08:29:35Z</time>
      </trkpt>
      <trkpt lat="43.94456" lon="1.8975">
        <ele>226</ele>
        <time>2011-08-17T08:29:36Z</time>
      </trkpt>
      <trkpt lat="43.94457" lon="1.89748">
        <ele>226</ele>
        <time>2011-08-17T08:29:37Z</time>
      </trkpt>
      <trkpt lat="43.94458" lon="1.89746">
        <ele>226</ele>
        <time>2011-08-17T08:29:38Z</time>
      </trkpt>
      <trkpt lat="43.94458" lon="1.89744">
        <ele>226</ele>
        <time>2011-08-17T08:29:39Z</time>
      </trkpt>
      <trkpt lat="43.94459" lon="1.89743">
        <ele>226</ele>
        <time>2011-08-17T08:29:40Z</time>
      </trkpt>
      <trkpt lat="43.94459" lon="1.89741">
        <ele>226</ele>
        <time>2011-08-17T08:29:41Z</time>
      </trkpt>
      <trkpt lat="43.9446" lon="1.89739">
        <ele>226</ele>
        <time>2011-08-17T08:29:42Z</time>
      </trkpt>
      <trkpt lat="43.94461" lon="1.89737">
        <ele>226</ele>
        <time>2011-08-17T08:29:43Z</time>
      </trkpt>
      <trkpt lat="43.94461" lon="1.89735">
        <ele>226</ele>
        <time>2011-08-17T08:29:44Z</time>
      </trkpt>
      <trkpt lat="43.94462" lon="1.89734">
        <ele>226</ele>
        <time>2011-08-17T08:29:45Z</time>
      </trkpt>
      <trkpt lat="43.94462" lon="1.89732">
        <ele>226</ele>
        <time>2011-08-17T08:29:46Z</time>
      </trkpt>
      <trkpt lat="43.94463" lon="1.8973">
        <ele>226</ele>
        <time>2011-08-17T08:29:47Z</time>
      </trkpt>
      <trkpt lat="43.94463" lon="1.89728">
        <ele>226</ele>
        <time>2011-08-17T08:29:48Z</time>
      </trkpt>
      <trkpt lat="43.94464" lon="1.89726">
        <ele>226</ele>
        <time>2011-08-17T08:29:49Z</time>
      </trkpt>
      <trkpt lat="43.94464" lon="1.89724">
        <ele>226</ele>
        <time>2011-08-17T08:29:50Z</time>
      </trkpt>
      <trkpt lat="43.94464" lon="1.89722">
        <ele>226</ele>
        <time>2011-08-17T08:29:51Z</time>
      </trkpt>
      <trkpt lat="43.94465" lon="1.8972">
        <ele>226</ele>
        <time>2011-08-17T08:29:52Z</time>
      </trkpt>
      <trkpt lat="43.94465" lon="1.89717">
        <ele>226</ele>
        <time>2011-08-17T08:29:53Z</time>
      </trkpt>
      <trkpt lat="43.94466" lon="1.89715">
        <ele>226</ele>
        <time>2011-08-17T08:29:54Z</time>
      </trkpt>
      <trkpt lat="43.94466" lon="1.89713">
        <ele>226</ele>
        <time>2011-08-17T08:29:55Z</time>
      </trkpt>
      <trkpt lat="43.94467" lon="1.89711">
        <ele>226</ele>
        <time>2011-08-17T08:29:56Z</time>
      </trkpt>
      <trkpt lat="43.94468" lon="1.89709">
        <ele>226</ele>
        <time>2011-08-17T08:29:57Z</time>
      </trkpt>
      <trkpt lat="43.94468" lon="1.89707">
        <ele>226</ele>
        <time>2011-08-17T08:29:58Z</time>
      </trkpt>
      <trkpt lat="43.94469" lon="1.89705">
        <ele>226</ele>
        <time>2011-08-17T08:29:59Z</time>
      </trkpt>
      <trkpt lat="43.9447" lon="1.89703">
        <ele>226</ele>
        <time>2011-08-17T08:30:00Z</time>
      </trkpt>
      <trkpt lat="43.9447" lon="1.89701">
        <ele>226</ele>
        <time>2011-08-17T08:30:01Z</time>
      </trkpt>
      <trkpt lat="43.94471" lon="1.89699">
        <ele>226</ele>
        <time>2011-08-17T08:30:02Z</time>
      </trkpt>
      <trkpt lat="43.94471" lon="1.89696">
        <ele>226</ele>
        <time>2011-08-17T08:30:03Z</time>
      </trkpt>
      <trkpt lat="43.94471" lon="1.89693">
        <ele>226</ele>
        <time>2011-08-17T08:30:04Z</time>
      </trkpt>
      <trkpt lat="43.94472" lon="1.89691">
        <ele>226</ele>
        <time>2011-08-17T08:30:05Z</time>
      </trkpt>
      <trkpt lat="43.94472" lon="1.89689">
        <ele>226</ele>
        <time>2011-08-17T08:30:06Z</time>
      </trkpt>
      <trkpt lat="43.94473" lon="1.89687">
        <ele>226</ele>
        <time>2011-08-17T08:30:07Z</time>
      </trkpt>
      <trkpt lat="43.94473" lon="1.89684">
        <ele>226</ele>
        <time>2011-08-17T08:30:08Z</time>
      </trkpt>
      <trkpt lat="43.94473" lon="1.89682">
        <ele>226</ele>
        <time>2011-08-17T08:30:09Z</time>
      </trkpt>
      <trkpt lat="43.94473" lon="1.8968">
        <ele>226</ele>
        <time>2011-08-17T08:30:10Z</time>
      </trkpt>
      <trkpt lat="43.94474" lon="1.89678">
        <ele>226</ele>
        <time>2011-08-17T08:30:11Z</time>
      </trkpt>
      <trkpt lat="43.94474" lon="1.89676">
        <ele>226</ele>
        <time>2011-08-17T08:30:12Z</time>
      </trkpt>
      <trkpt lat="43.94474" lon="1.89673">
        <ele>226</ele>
        <time>2011-08-17T08:30:13Z</time>
      </trkpt>
      <trkpt lat="43.94474" lon="1.89671">
        <ele>226</ele>
        <time>2011-08-17T08:30:14Z</time>
      </trkpt>
      <trkpt lat="43.94474" lon="1.89669">
        <ele>226</ele>
        <time>2011-08-17T08:30:15Z</time>
      </trkpt>
      <trkpt lat="43.94475" lon="1.89666">
        <ele>226</ele>
        <time>2011-08-17T08:30:16Z</time>
      </trkpt>
      <trkpt lat="43.94475" lon="1.89664">
        <ele>226</ele>
        <time>2011-08-17T08:30:17Z</time>
      </trkpt>
      <trkpt lat="43.94476" lon="1.89662">
        <ele>226</ele>
        <time>2011-08-17T08:30:18Z</time>
      </trkpt>
      <trkpt lat="43.94476" lon="1.89659">
        <ele>226</ele>
        <time>2011-08-17T08:30:19Z</time>
      </trkpt>
      <trkpt lat="43.94476" lon="1.89657">
        <ele>226</ele>
        <time>2011-08-17T08:30:20Z</time>
      </trkpt>
      <trkpt lat="43.94476" lon="1.89654">
        <ele>226</ele>
        <time>2011-08-17T08:30:21Z</time>
      </trkpt>
      <trkpt lat="43.94477" lon="1.89652">
        <ele>226</ele>
        <time>2011-08-17T08:30:22Z</time>
      </trkpt>
      <trkpt lat="43.94477" lon="1.89649">
        <ele>226</ele>
        <time>2011-08-17T08:30:23Z</time>
      </trkpt>
      <trkpt lat="43.94477" lon="1.89646">
        <ele>225</ele>
        <time>2011-08-17T08:30:24Z</time>
      </trkpt>
      <trkpt lat="43.94478" lon="1.89644">
        <ele>225</ele>
        <time>2011-08-17T08:30:25Z</time>
      </trkpt>
      <trkpt lat="43.94478" lon="1.89641">
        <ele>224</ele>
        <time>2011-08-17T08:30:26Z</time>
      </trkpt>
      <trkpt lat="43.94479" lon="1.89638">
        <ele>224</ele>
        <time>2011-08-17T08:30:27Z</time>
      </trkpt>
      <trkpt lat="43.94479" lon="1.89635">
        <ele>224</ele>
        <time>2011-08-17T08:30:28Z</time>
      </trkpt>
      <trkpt lat="43.94479" lon="1.89632">
        <ele>223</ele>
        <time>2011-08-17T08:30:29Z</time>
      </trkpt>
      <trkpt lat="43.9448" lon="1.89629">
        <ele>223</ele>
        <time>2011-08-17T08:30:30Z</time>
      </trkpt>
      <trkpt lat="43.9448" lon="1.89626">
        <ele>223</ele>
        <time>2011-08-17T08:30:31Z</time>
      </trkpt>
      <trkpt lat="43.94481" lon="1.89622">
        <ele>223</ele>
        <time>2011-08-17T08:30:32Z</time>
      </trkpt>
      <trkpt lat="43.94481" lon="1.89619">
        <ele>223</ele>
        <time>2011-08-17T08:30:33Z</time>
      </trkpt>
      <trkpt lat="43.94482" lon="1.89616">
        <ele>222</ele>
        <time>2011-08-17T08:30:34Z</time>
      </trkpt>
      <trkpt lat="43.94483" lon="1.89613">
        <ele>222</ele>
        <time>2011-08-17T08:30:35Z</time>
      </trkpt>
      <trkpt lat="43.94483" lon="1.8961">
        <ele>222</ele>
        <time>2011-08-17T08:30:36Z</time>
      </trkpt>
      <trkpt lat="43.94484" lon="1.89606">
        <ele>222</ele>
        <time>2011-08-17T08:30:37Z</time>
      </trkpt>
      <trkpt lat="43.94484" lon="1.89603">
        <ele>222</ele>
        <time>2011-08-17T08:30:38Z</time>
      </trkpt>
      <trkpt lat="43.94485" lon="1.89599">
        <ele>222</ele>
        <time>2011-08-17T08:30:39Z</time>
      </trkpt>
      <trkpt lat="43.94486" lon="1.89595">
        <ele>222</ele>
        <time>2011-08-17T08:30:40Z</time>
      </trkpt>
      <trkpt lat="43.94487" lon="1.89591">
        <ele>222</ele>
        <time>2011-08-17T08:30:41Z</time>
      </trkpt>
      <trkpt lat="43.94488" lon="1.89587">
        <ele>222</ele>
        <time>2011-08-17T08:30:42Z</time>
      </trkpt>
      <trkpt lat="43.94489" lon="1.89582">
        <ele>222</ele>
        <time>2011-08-17T08:30:43Z</time>
      </trkpt>
      <trkpt lat="43.9449" lon="1.89578">
        <ele>222</ele>
        <time>2011-08-17T08:30:44Z</time>
      </trkpt>
      <trkpt lat="43.94491" lon="1.89573">
        <ele>222</ele>
        <time>2011-08-17T08:30:45Z</time>
      </trkpt>
      <trkpt lat="43.94492" lon="1.89568">
        <ele>222</ele>
        <time>2011-08-17T08:30:46Z</time>
      </trkpt>
      <trkpt lat="43.94494" lon="1.89563">
        <ele>222</ele>
        <time>2011-08-17T08:30:47Z</time>
      </trkpt>
      <trkpt lat="43.94495" lon="1.89558">
        <ele>222</ele>
        <time>2011-08-17T08:30:48Z</time>
      </trkpt>
      <trkpt lat="43.94497" lon="1.89553">
        <ele>222</ele>
        <time>2011-08-17T08:30:49Z</time>
      </trkpt>
      <trkpt lat="43.94499" lon="1.89547">
        <ele>222</ele>
        <time>2011-08-17T08:30:50Z</time>
      </trkpt>
      <trkpt lat="43.945" lon="1.89541">
        <ele>222</ele>
        <time>2011-08-17T08:30:51Z</time>
      </trkpt>
      <trkpt lat="43.94502" lon="1.89535">
        <ele>222</ele>
        <time>2011-08-17T08:30:52Z</time>
      </trkpt>
      <trkpt lat="43.94504" lon="1.8953">
        <ele>222</ele>
        <time>2011-08-17T08:30:53Z</time>
      </trkpt>
      <trkpt lat="43.94506" lon="1.89524">
        <ele>222</ele>
        <time>2011-08-17T08:30:54Z</time>
      </trkpt>
      <trkpt lat="43.94508" lon="1.89517">
        <ele>222</ele>
        <time>2011-08-17T08:30:55Z</time>
      </trkpt>
      <trkpt lat="43.94511" lon="1.8951">
        <ele>222</ele>
        <time>2011-08-17T08:30:56Z</time>
      </trkpt>
      <trkpt lat="43.94513" lon="1.89503">
        <ele>222</ele>
        <time>2011-08-17T08:30:57Z</time>
      </trkpt>
      <trkpt lat="43.94516" lon="1.89495">
        <ele>223</ele>
        <time>2011-08-17T08:30:58Z</time>
      </trkpt>
      <trkpt lat="43.94518" lon="1.89488">
        <ele>223</ele>
        <time>2011-08-17T08:30:59Z</time>
      </trkpt>
      <trkpt lat="43.9452" lon="1.8948">
        <ele>223</ele>
        <time>2011-08-17T08:31:00Z</time>
      </trkpt>
      <trkpt lat="43.94523" lon="1.89472">
        <ele>223</ele>
        <time>2011-08-17T08:31:01Z</time>
      </trkpt>
      <trkpt lat="43.94526" lon="1.89463">
        <ele>223</ele>
        <time>2011-08-17T08:31:02Z</time>
      </trkpt>
      <trkpt lat="43.94529" lon="1.89455">
        <ele>223</ele>
        <time>2011-08-17T08:31:03Z</time>
      </trkpt>
      <trkpt lat="43.94532" lon="1.89446">
        <ele>223</ele>
        <time>2011-08-17T08:31:04Z</time>
      </trkpt>
      <trkpt lat="43.94535" lon="1.89437">
        <ele>223</ele>
        <time>2011-08-17T08:31:05Z</time>
      </trkpt>
      <trkpt lat="43.94537" lon="1.89429">
        <ele>224</ele>
        <time>2011-08-17T08:31:06Z</time>
      </trkpt>
      <trkpt lat="43.9454" lon="1.89421">
        <ele>224</ele>
        <time>2011-08-17T08:31:07Z</time>
      </trkpt>
      <trkpt lat="43.94543" lon="1.89413">
        <ele>224</ele>
        <time>2011-08-17T08:31:08Z</time>
      </trkpt>
      <trkpt lat="43.94546" lon="1.89404">
        <ele>224</ele>
        <time>2011-08-17T08:31:09Z</time>
      </trkpt>
      <trkpt lat="43.94549" lon="1.89396">
        <ele>224</ele>
        <time>2011-08-17T08:31:10Z</time>
      </trkpt>
      <trkpt lat="43.94552" lon="1.89388">
        <ele>224</ele>
        <time>2011-08-17T08:31:11Z</time>
      </trkpt>
      <trkpt lat="43.94554" lon="1.8938">
        <ele>224</ele>
        <time>2011-08-17T08:31:12Z</time>
      </trkpt>
      <trkpt lat="43.94557" lon="1.89372">
        <ele>225</ele>
        <time>2011-08-17T08:31:13Z</time>
      </trkpt>
      <trkpt lat="43.94559" lon="1.89364">
        <ele>225</ele>
        <time>2011-08-17T08:31:14Z</time>
      </trkpt>
      <trkpt lat="43.94562" lon="1.89356">
        <ele>225</ele>
        <time>2011-08-17T08:31:15Z</time>
      </trkpt>
      <trkpt lat="43.94565" lon="1.89349">
        <ele>225</ele>
        <time>2011-08-17T08:31:16Z</time>
      </trkpt>
      <trkpt lat="43.94567" lon="1.89341">
        <ele>225</ele>
        <time>2011-08-17T08:31:17Z</time>
      </trkpt>
      <trkpt lat="43.9457" lon="1.89333">
        <ele>225</ele>
        <time>2011-08-17T08:31:18Z</time>
      </trkpt>
      <trkpt lat="43.94572" lon="1.89325">
        <ele>226</ele>
        <time>2011-08-17T08:31:19Z</time>
      </trkpt>
      <trkpt lat="43.94575" lon="1.89318">
        <ele>226</ele>
        <time>2011-08-17T08:31:20Z</time>
      </trkpt>
      <trkpt lat="43.94578" lon="1.8931">
        <ele>226</ele>
        <time>2011-08-17T08:31:21Z</time>
      </trkpt>
      <trkpt lat="43.9458" lon="1.89303">
        <ele>226</ele>
        <time>2011-08-17T08:31:22Z</time>
      </trkpt>
      <trkpt lat="43.94583" lon="1.89295">
        <ele>227</ele>
        <time>2011-08-17T08:31:23Z</time>
      </trkpt>
      <trkpt lat="43.94586" lon="1.89288">
        <ele>227</ele>
        <time>2011-08-17T08:31:24Z</time>
      </trkpt>
      <trkpt lat="43.94589" lon="1.89283">
        <ele>227</ele>
        <time>2011-08-17T08:31:25Z</time>
      </trkpt>
      <trkpt lat="43.94592" lon="1.89277">
        <ele>227</ele>
        <time>2011-08-17T08:31:26Z</time>
      </trkpt>
      <trkpt lat="43.94594" lon="1.89271">
        <ele>227</ele>
        <time>2011-08-17T08:31:27Z</time>
      </trkpt>
      <trkpt lat="43.94597" lon="1.89266">
        <ele>227</ele>
        <time>2011-08-17T08:31:28Z</time>
      </trkpt>
      <trkpt lat="43.946" lon="1.8926">
        <ele>227</ele>
        <time>2011-08-17T08:31:29Z</time>
      </trkpt>
      <trkpt lat="43.94602" lon="1.89254">
        <ele>227</ele>
        <time>2011-08-17T08:31:30Z</time>
      </trkpt>
      <trkpt lat="43.94605" lon="1.89249">
        <ele>227</ele>
        <time>2011-08-17T08:31:31Z</time>
      </trkpt>
      <trkpt lat="43.94608" lon="1.89243">
        <ele>227</ele>
        <time>2011-08-17T08:31:32Z</time>
      </trkpt>
      <trkpt lat="43.94611" lon="1.89237">
        <ele>227</ele>
        <time>2011-08-17T08:31:33Z</time>
      </trkpt>
      <trkpt lat="43.94613" lon="1.89232">
        <ele>227</ele>
        <time>2011-08-17T08:31:34Z</time>
      </trkpt>
      <trkpt lat="43.94615" lon="1.89226">
        <ele>227</ele>
        <time>2011-08-17T08:31:35Z</time>
      </trkpt>
      <trkpt lat="43.94617" lon="1.89221">
        <ele>227</ele>
        <time>2011-08-17T08:31:36Z</time>
      </trkpt>
      <trkpt lat="43.9462" lon="1.89216">
        <ele>227</ele>
        <time>2011-08-17T08:31:37Z</time>
      </trkpt>
      <trkpt lat="43.94622" lon="1.89211">
        <ele>227</ele>
        <time>2011-08-17T08:31:38Z</time>
      </trkpt>
      <trkpt lat="43.94624" lon="1.89205">
        <ele>227</ele>
        <time>2011-08-17T08:31:39Z</time>
      </trkpt>
      <trkpt lat="43.94627" lon="1.892">
        <ele>227</ele>
        <time>2011-08-17T08:31:40Z</time>
      </trkpt>
      <trkpt lat="43.94629" lon="1.89195">
        <ele>227</ele>
        <time>2011-08-17T08:31:41Z</time>
      </trkpt>
      <trkpt lat="43.94632" lon="1.8919">
        <ele>227</ele>
        <time>2011-08-17T08:31:42Z</time>
      </trkpt>
      <trkpt lat="43.94634" lon="1.89185">
        <ele>227</ele>
        <time>2011-08-17T08:31:43Z</time>
      </trkpt>
      <trkpt lat="43.94636" lon="1.8918">
        <ele>227</ele>
        <time>2011-08-17T08:31:44Z</time>
      </trkpt>
      <trkpt lat="43.94638" lon="1.89175">
        <ele>227</ele>
        <time>2011-08-17T08:31:45Z</time>
      </trkpt>
      <trkpt lat="43.9464" lon="1.8917">
        <ele>227</ele>
        <time>2011-08-17T08:31:46Z</time>
      </trkpt>
      <trkpt lat="43.94642" lon="1.89166">
        <ele>227</ele>
        <time>2011-08-17T08:31:47Z</time>
      </trkpt>
      <trkpt lat="43.94644" lon="1.89161">
        <ele>227</ele>
        <time>2011-08-17T08:31:48Z</time>
      </trkpt>
      <trkpt lat="43.94646" lon="1.89157">
        <ele>227</ele>
        <time>2011-08-17T08:31:49Z</time>
      </trkpt>
      <trkpt lat="43.94647" lon="1.89153">
        <ele>227</ele>
        <time>2011-08-17T08:31:50Z</time>
      </trkpt>
      <trkpt lat="43.94649" lon="1.89148">
        <ele>227</ele>
        <time>2011-08-17T08:31:51Z</time>
      </trkpt>
      <trkpt lat="43.94651" lon="1.89144">
        <ele>227</ele>
        <time>2011-08-17T08:31:52Z</time>
      </trkpt>
      <trkpt lat="43.94653" lon="1.89139">
        <ele>227</ele>
        <time>2011-08-17T08:31:53Z</time>
      </trkpt>
      <trkpt lat="43.94655" lon="1.89134">
        <ele>227</ele>
        <time>2011-08-17T08:31:54Z</time>
      </trkpt>
      <trkpt lat="43.94657" lon="1.89129">
        <ele>227</ele>
        <time>2011-08-17T08:31:55Z</time>
      </trkpt>
      <trkpt lat="43.94658" lon="1.89125">
        <ele>227</ele>
        <time>2011-08-17T08:31:56Z</time>
      </trkpt>
      <trkpt lat="43.94659" lon="1.8912">
        <ele>227</ele>
        <time>2011-08-17T08:31:57Z</time>
      </trkpt>
      <trkpt lat="43.94661" lon="1.89115">
        <ele>227</ele>
        <time>2011-08-17T08:31:58Z</time>
      </trkpt>
      <trkpt lat="43.94662" lon="1.8911">
        <ele>227</ele>
        <time>2011-08-17T08:31:59Z</time>
      </trkpt>
      <trkpt lat="43.94663" lon="1.89105">
        <ele>227</ele>
        <time>2011-08-17T08:32:00Z</time>
      </trkpt>
      <trkpt lat="43.94664" lon="1.891">
        <ele>227</ele>
        <time>2011-08-17T08:32:01Z</time>
      </trkpt>
      <trkpt lat="43.94664" lon="1.89094">
        <ele>227</ele>
        <time>2011-08-17T08:32:02Z</time>
      </trkpt>
      <trkpt lat="43.94665" lon="1.8909">
        <ele>228</ele>
        <time>2011-08-17T08:32:03Z</time>
      </trkpt>
      <trkpt lat="43.94666" lon="1.89085">
        <ele>228</ele>
        <time>2011-08-17T08:32:04Z</time>
      </trkpt>
      <trkpt lat="43.94667" lon="1.8908">
        <ele>228</ele>
        <time>2011-08-17T08:32:05Z</time>
      </trkpt>
      <trkpt lat="43.94668" lon="1.89075">
        <ele>228</ele>
        <time>2011-08-17T08:32:06Z</time>
      </trkpt>
      <trkpt lat="43.94669" lon="1.8907">
        <ele>228</ele>
        <time>2011-08-17T08:32:07Z</time>
      </trkpt>
      <trkpt lat="43.94671" lon="1.89065">
        <ele>228</ele>
        <time>2011-08-17T08:32:08Z</time>
      </trkpt>
      <trkpt lat="43.94672" lon="1.8906">
        <ele>229</ele>
        <time>2011-08-17T08:32:09Z</time>
      </trkpt>
      <trkpt lat="43.94673" lon="1.89055">
        <ele>229</ele>
        <time>2011-08-17T08:32:10Z</time>
      </trkpt>
      <trkpt lat="43.94674" lon="1.89049">
        <ele>230</ele>
        <time>2011-08-17T08:32:11Z</time>
      </trkpt>
      <trkpt lat="43.94675" lon="1.89044">
        <ele>230</ele>
        <time>2011-08-17T08:32:12Z</time>
      </trkpt>
      <trkpt lat="43.94676" lon="1.89039">
        <ele>231</ele>
        <time>2011-08-17T08:32:13Z</time>
      </trkpt>
      <trkpt lat="43.94677" lon="1.89033">
        <ele>231</ele>
        <time>2011-08-17T08:32:14Z</time>
      </trkpt>
      <trkpt lat="43.94678" lon="1.89028">
        <ele>231</ele>
        <time>2011-08-17T08:32:15Z</time>
      </trkpt>
      <trkpt lat="43.94679" lon="1.89023">
        <ele>231</ele>
        <time>2011-08-17T08:32:16Z</time>
      </trkpt>
      <trkpt lat="43.9468" lon="1.89017">
        <ele>232</ele>
        <time>2011-08-17T08:32:17Z</time>
      </trkpt>
      <trkpt lat="43.94681" lon="1.89012">
        <ele>232</ele>
        <time>2011-08-17T08:32:18Z</time>
      </trkpt>
      <trkpt lat="43.94682" lon="1.89007">
        <ele>232</ele>
        <time>2011-08-17T08:32:19Z</time>
      </trkpt>
      <trkpt lat="43.94683" lon="1.89001">
        <ele>232</ele>
        <time>2011-08-17T08:32:20Z</time>
      </trkpt>
      <trkpt lat="43.94684" lon="1.88996">
        <ele>232</ele>
        <time>2011-08-17T08:32:21Z</time>
      </trkpt>
      <trkpt lat="43.94685" lon="1.88991">
        <ele>232</ele>
        <time>2011-08-17T08:32:22Z</time>
      </trkpt>
      <trkpt lat="43.94686" lon="1.88985">
        <ele>232</ele>
        <time>2011-08-17T08:32:23Z</time>
      </trkpt>
      <trkpt lat="43.94687" lon="1.8898">
        <ele>233</ele>
        <time>2011-08-17T08:32:24Z</time>
      </trkpt>
      <trkpt lat="43.94688" lon="1.88974">
        <ele>233</ele>
        <time>2011-08-17T08:32:25Z</time>
      </trkpt>
      <trkpt lat="43.94689" lon="1.88969">
        <ele>233</ele>
        <time>2011-08-17T08:32:26Z</time>
      </trkpt>
      <trkpt lat="43.9469" lon="1.88963">
        <ele>233</ele>
        <time>2011-08-17T08:32:27Z</time>
      </trkpt>
      <trkpt lat="43.94691" lon="1.88957">
        <ele>233</ele>
        <time>2011-08-17T08:32:28Z</time>
      </trkpt>
      <trkpt lat="43.94692" lon="1.88952">
        <ele>233</ele>
        <time>2011-08-17T08:32:29Z</time>
      </trkpt>
      <trkpt lat="43.94693" lon="1.88946">
        <ele>233</ele>
        <time>2011-08-17T08:32:30Z</time>
      </trkpt>
      <trkpt lat="43.94694" lon="1.88941">
        <ele>233</ele>
        <time>2011-08-17T08:32:31Z</time>
      </trkpt>
      <trkpt lat="43.94695" lon="1.88936">
        <ele>233</ele>
        <time>2011-08-17T08:32:32Z</time>
      </trkpt>
      <trkpt lat="43.94696" lon="1.8893">
        <ele>233</ele>
        <time>2011-08-17T08:32:33Z</time>
      </trkpt>
      <trkpt lat="43.94697" lon="1.88925">
        <ele>233</ele>
        <time>2011-08-17T08:32:34Z</time>
      </trkpt>
      <trkpt lat="43.94698" lon="1.8892">
        <ele>233</ele>
        <time>2011-08-17T08:32:35Z</time>
      </trkpt>
      <trkpt lat="43.94698" lon="1.88914">
        <ele>233</ele>
        <time>2011-08-17T08:32:36Z</time>
      </trkpt>
      <trkpt lat="43.94699" lon="1.88909">
        <ele>233</ele>
        <time>2011-08-17T08:32:37Z</time>
      </trkpt>
      <trkpt lat="43.94701" lon="1.88903">
        <ele>233</ele>
        <time>2011-08-17T08:32:38Z</time>
      </trkpt>
      <trkpt lat="43.94701" lon="1.88898">
        <ele>233</ele>
        <time>2011-08-17T08:32:39Z</time>
      </trkpt>
      <trkpt lat="43.94702" lon="1.88892">
        <ele>233</ele>
        <time>2011-08-17T08:32:40Z</time>
      </trkpt>
      <trkpt lat="43.94703" lon="1.88887">
        <ele>233</ele>
        <time>2011-08-17T08:32:41Z</time>
      </trkpt>
      <trkpt lat="43.94704" lon="1.88882">
        <ele>233</ele>
        <time>2011-08-17T08:32:42Z</time>
      </trkpt>
      <trkpt lat="43.94705" lon="1.88876">
        <ele>233</ele>
        <time>2011-08-17T08:32:43Z</time>
      </trkpt>
      <trkpt lat="43.94706" lon="1.8887">
        <ele>233</ele>
        <time>2011-08-17T08:32:44Z</time>
      </trkpt>
      <trkpt lat="43.94707" lon="1.88865">
        <ele>233</ele>
        <time>2011-08-17T08:32:45Z</time>
      </trkpt>
      <trkpt lat="43.94708" lon="1.88859">
        <ele>233</ele>
        <time>2011-08-17T08:32:46Z</time>
      </trkpt>
      <trkpt lat="43.94709" lon="1.88853">
        <ele>233</ele>
        <time>2011-08-17T08:32:47Z</time>
      </trkpt>
      <trkpt lat="43.94711" lon="1.88847">
        <ele>233</ele>
        <time>2011-08-17T08:32:48Z</time>
      </trkpt>
      <trkpt lat="43.94712" lon="1.88841">
        <ele>233</ele>
        <time>2011-08-17T08:32:49Z</time>
      </trkpt>
      <trkpt lat="43.94714" lon="1.88836">
        <ele>233</ele>
        <time>2011-08-17T08:32:50Z</time>
      </trkpt>
      <trkpt lat="43.94715" lon="1.8883">
        <ele>233</ele>
        <time>2011-08-17T08:32:51Z</time>
      </trkpt>
      <trkpt lat="43.94717" lon="1.88824">
        <ele>233</ele>
        <time>2011-08-17T08:32:52Z</time>
      </trkpt>
      <trkpt lat="43.94719" lon="1.88818">
        <ele>233</ele>
        <time>2011-08-17T08:32:53Z</time>
      </trkpt>
      <trkpt lat="43.94721" lon="1.88812">
        <ele>233</ele>
        <time>2011-08-17T08:32:54Z</time>
      </trkpt>
      <trkpt lat="43.94724" lon="1.88806">
        <ele>233</ele>
        <time>2011-08-17T08:32:55Z</time>
      </trkpt>
      <trkpt lat="43.94726" lon="1.88801">
        <ele>233</ele>
        <time>2011-08-17T08:32:56Z</time>
      </trkpt>
      <trkpt lat="43.94728" lon="1.88794">
        <ele>233</ele>
        <time>2011-08-17T08:32:57Z</time>
      </trkpt>
      <trkpt lat="43.9473" lon="1.88788">
        <ele>233</ele>
        <time>2011-08-17T08:32:58Z</time>
      </trkpt>
      <trkpt lat="43.94732" lon="1.88782">
        <ele>233</ele>
        <time>2011-08-17T08:32:59Z</time>
      </trkpt>
      <trkpt lat="43.94734" lon="1.88776">
        <ele>233</ele>
        <time>2011-08-17T08:33:00Z</time>
      </trkpt>
      <trkpt lat="43.94736" lon="1.8877">
        <ele>233</ele>
        <time>2011-08-17T08:33:01Z</time>
      </trkpt>
      <trkpt lat="43.94738" lon="1.88765">
        <ele>233</ele>
        <time>2011-08-17T08:33:02Z</time>
      </trkpt>
      <trkpt lat="43.9474" lon="1.8876">
        <ele>233</ele>
        <time>2011-08-17T08:33:03Z</time>
      </trkpt>
      <trkpt lat="43.94742" lon="1.88756">
        <ele>233</ele>
        <time>2011-08-17T08:33:04Z</time>
      </trkpt>
      <trkpt lat="43.94743" lon="1.88752">
        <ele>233</ele>
        <time>2011-08-17T08:33:05Z</time>
      </trkpt>
      <trkpt lat="43.94744" lon="1.8875">
        <ele>233</ele>
        <time>2011-08-17T08:33:06Z</time>
      </trkpt>
      <trkpt lat="43.94746" lon="1.88747">
        <ele>233</ele>
        <time>2011-08-17T08:33:07Z</time>
      </trkpt>
      <trkpt lat="43.94746" lon="1.88744">
        <ele>233</ele>
        <time>2011-08-17T08:33:08Z</time>
      </trkpt>
      <trkpt lat="43.94747" lon="1.88742">
        <ele>233</ele>
        <time>2011-08-17T08:33:09Z</time>
      </trkpt>
      <trkpt lat="43.94748" lon="1.8874">
        <ele>233</ele>
        <time>2011-08-17T08:33:10Z</time>
      </trkpt>
      <trkpt lat="43.94749" lon="1.88737">
        <ele>233</ele>
        <time>2011-08-17T08:33:11Z</time>
      </trkpt>
      <trkpt lat="43.9475" lon="1.88736">
        <ele>233</ele>
        <time>2011-08-17T08:33:12Z</time>
      </trkpt>
      <trkpt lat="43.94751" lon="1.88734">
        <ele>233</ele>
        <time>2011-08-17T08:33:13Z</time>
      </trkpt>
      <trkpt lat="43.94752" lon="1.88732">
        <ele>233</ele>
        <time>2011-08-17T08:33:14Z</time>
      </trkpt>
      <trkpt lat="43.94753" lon="1.8873">
        <ele>233</ele>
        <time>2011-08-17T08:33:15Z</time>
      </trkpt>
      <trkpt lat="43.94754" lon="1.88728">
        <ele>233</ele>
        <time>2011-08-17T08:33:16Z</time>
      </trkpt>
      <trkpt lat="43.94754" lon="1.88727">
        <ele>233</ele>
        <time>2011-08-17T08:33:17Z</time>
      </trkpt>
      <trkpt lat="43.94755" lon="1.88725">
        <ele>233</ele>
        <time>2011-08-17T08:33:18Z</time>
      </trkpt>
      <trkpt lat="43.94756" lon="1.88723">
        <ele>233</ele>
        <time>2011-08-17T08:33:19Z</time>
      </trkpt>
      <trkpt lat="43.94757" lon="1.88721">
        <ele>233</ele>
        <time>2011-08-17T08:33:20Z</time>
      </trkpt>
      <trkpt lat="43.94758" lon="1.88719">
        <ele>233</ele>
        <time>2011-08-17T08:33:21Z</time>
      </trkpt>
      <trkpt lat="43.94759" lon="1.88717">
        <ele>233</ele>
        <time>2011-08-17T08:33:22Z</time>
      </trkpt>
      <trkpt lat="43.94759" lon="1.88715">
        <ele>233</ele>
        <time>2011-08-17T08:33:23Z</time>
      </trkpt>
      <trkpt lat="43.9476" lon="1.88713">
        <ele>233</ele>
        <time>2011-08-17T08:33:24Z</time>
      </trkpt>
      <trkpt lat="43.94761" lon="1.88711">
        <ele>233</ele>
        <time>2011-08-17T08:33:25Z</time>
      </trkpt>
      <trkpt lat="43.94762" lon="1.88709">
        <ele>233</ele>
        <time>2011-08-17T08:33:26Z</time>
      </trkpt>
      <trkpt lat="43.94763" lon="1.88707">
        <ele>233</ele>
        <time>2011-08-17T08:33:27Z</time>
      </trkpt>
      <trkpt lat="43.94764" lon="1.88705">
        <ele>233</ele>
        <time>2011-08-17T08:33:28Z</time>
      </trkpt>
      <trkpt lat="43.94765" lon="1.88703">
        <ele>233</ele>
        <time>2011-08-17T08:33:29Z</time>
      </trkpt>
      <trkpt lat="43.94766" lon="1.887">
        <ele>233</ele>
        <time>2011-08-17T08:33:30Z</time>
      </trkpt>
      <trkpt lat="43.94767" lon="1.88698">
        <ele>234</ele>
        <time>2011-08-17T08:33:31Z</time>
      </trkpt>
      <trkpt lat="43.94768" lon="1.88696">
        <ele>234</ele>
        <time>2011-08-17T08:33:32Z</time>
      </trkpt>
      <trkpt lat="43.94769" lon="1.88693">
        <ele>235</ele>
        <time>2011-08-17T08:33:33Z</time>
      </trkpt>
      <trkpt lat="43.94769" lon="1.88691">
        <ele>235</ele>
        <time>2011-08-17T08:33:34Z</time>
      </trkpt>
      <trkpt lat="43.9477" lon="1.88689">
        <ele>235</ele>
        <time>2011-08-17T08:33:35Z</time>
      </trkpt>
      <trkpt lat="43.9477" lon="1.88687">
        <ele>235</ele>
        <time>2011-08-17T08:33:36Z</time>
      </trkpt>
      <trkpt lat="43.94771" lon="1.88684">
        <ele>236</ele>
        <time>2011-08-17T08:33:37Z</time>
      </trkpt>
      <trkpt lat="43.94771" lon="1.88681">
        <ele>236</ele>
        <time>2011-08-17T08:33:38Z</time>
      </trkpt>
      <trkpt lat="43.94772" lon="1.88679">
        <ele>236</ele>
        <time>2011-08-17T08:33:39Z</time>
      </trkpt>
      <trkpt lat="43.94773" lon="1.88676">
        <ele>236</ele>
        <time>2011-08-17T08:33:40Z</time>
      </trkpt>
      <trkpt lat="43.94773" lon="1.88673">
        <ele>236</ele>
        <time>2011-08-17T08:33:41Z</time>
      </trkpt>
      <trkpt lat="43.94774" lon="1.88671">
        <ele>236</ele>
        <time>2011-08-17T08:33:42Z</time>
      </trkpt>
      <trkpt lat="43.94775" lon="1.88669">
        <ele>237</ele>
        <time>2011-08-17T08:33:43Z</time>
      </trkpt>
      <trkpt lat="43.94775" lon="1.88667">
        <ele>237</ele>
        <time>2011-08-17T08:33:44Z</time>
      </trkpt>
      <trkpt lat="43.94775" lon="1.88664">
        <ele>237</ele>
        <time>2011-08-17T08:33:45Z</time>
      </trkpt>
      <trkpt lat="43.94775" lon="1.88662">
        <ele>237</ele>
        <time>2011-08-17T08:33:46Z</time>
      </trkpt>
      <trkpt lat="43.94776" lon="1.8866">
        <ele>237</ele>
        <time>2011-08-17T08:33:47Z</time>
      </trkpt>
      <trkpt lat="43.94776" lon="1.88657">
        <ele>237</ele>
        <time>2011-08-17T08:33:48Z</time>
      </trkpt>
      <trkpt lat="43.94777" lon="1.88655">
        <ele>237</ele>
        <time>2011-08-17T08:33:49Z</time>
      </trkpt>
      <trkpt lat="43.94777" lon="1.88653">
        <ele>237</ele>
        <time>2011-08-17T08:33:50Z</time>
      </trkpt>
      <trkpt lat="43.94777" lon="1.8865">
        <ele>237</ele>
        <time>2011-08-17T08:33:51Z</time>
      </trkpt>
      <trkpt lat="43.94778" lon="1.88647">
        <ele>237</ele>
        <time>2011-08-17T08:33:52Z</time>
      </trkpt>
      <trkpt lat="43.94778" lon="1.88645">
        <ele>238</ele>
        <time>2011-08-17T08:33:53Z</time>
      </trkpt>
      <trkpt lat="43.94778" lon="1.88643">
        <ele>238</ele>
        <time>2011-08-17T08:33:54Z</time>
      </trkpt>
      <trkpt lat="43.94778" lon="1.8864">
        <ele>238</ele>
        <time>2011-08-17T08:33:55Z</time>
      </trkpt>
      <trkpt lat="43.94778" lon="1.88638">
        <ele>239</ele>
        <time>2011-08-17T08:33:56Z</time>
      </trkpt>
      <trkpt lat="43.94778" lon="1.88636">
        <ele>239</ele>
        <time>2011-08-17T08:33:57Z</time>
      </trkpt>
      <trkpt lat="43.94778" lon="1.88634">
        <ele>239</ele>
        <time>2011-08-17T08:33:58Z</time>
      </trkpt>
      <trkpt lat="43.94778" lon="1.88632">
        <ele>239</ele>
        <time>2011-08-17T08:33:59Z</time>
      </trkpt>
      <trkpt lat="43.94778" lon="1.8863">
        <ele>239</ele>
        <time>2011-08-17T08:34:00Z</time>
      </trkpt>
      <trkpt lat="43.94778" lon="1.88628">
        <ele>239</ele>
        <time>2011-08-17T08:34:01Z</time>
      </trkpt>
      <trkpt lat="43.94778" lon="1.88627">
        <ele>239</ele>
        <time>2011-08-17T08:34:02Z</time>
      </trkpt>
      <trkpt lat="43.94778" lon="1.88625">
        <ele>239</ele>
        <time>2011-08-17T08:34:03Z</time>
      </trkpt>
      <trkpt lat="43.94778" lon="1.88623">
        <ele>239</ele>
        <time>2011-08-17T08:34:04Z</time>
      </trkpt>
      <trkpt lat="43.94778" lon="1.88622">
        <ele>239</ele>
        <time>2011-08-17T08:34:05Z</time>
      </trkpt>
      <trkpt lat="43.94778" lon="1.8862">
        <ele>239</ele>
        <time>2011-08-17T08:34:06Z</time>
      </trkpt>
      <trkpt lat="43.94778" lon="1.88618">
        <ele>239</ele>
        <time>2011-08-17T08:34:07Z</time>
      </trkpt>
      <trkpt lat="43.94778" lon="1.88616">
        <ele>239</ele>
        <time>2011-08-17T08:34:08Z</time>
      </trkpt>
      <trkpt lat="43.94778" lon="1.88614">
        <ele>239</ele>
        <time>2011-08-17T08:34:09Z</time>
      </trkpt>
      <trkpt lat="43.94779" lon="1.88613">
        <ele>239</ele>
        <time>2011-08-17T08:34:10Z</time>
      </trkpt>
      <trkpt lat="43.94779" lon="1.88611">
        <ele>239</ele>
        <time>2011-08-17T08:34:11Z</time>
      </trkpt>
      <trkpt lat="43.94778" lon="1.88609">
        <ele>239</ele>
        <time>2011-08-17T08:34:12Z</time>
      </trkpt>
      <trkpt lat="43.94778" lon="1.88607">
        <ele>239</ele>
        <time>2011-08-17T08:34:13Z</time>
      </trkpt>
      <trkpt lat="43.94778" lon="1.88605">
        <ele>239</ele>
        <time>2011-08-17T08:34:14Z</time>
      </trkpt>
      <trkpt lat="43.94778" lon="1.88604">
        <ele>239</ele>
        <time>2011-08-17T08:34:15Z</time>
      </trkpt>
      <trkpt lat="43.94778" lon="1.88602">
        <ele>239</ele>
        <time>2011-08-17T08:34:16Z</time>
      </trkpt>
      <trkpt lat="43.94778" lon="1.88601">
        <ele>239</ele>
        <time>2011-08-17T08:34:17Z</time>
      </trkpt>
      <trkpt lat="43.94779" lon="1.88599">
        <ele>239</ele>
        <time>2011-08-17T08:34:18Z</time>
      </trkpt>
      <trkpt lat="43.94779" lon="1.88597">
        <ele>239</ele>
        <time>2011-08-17T08:34:19Z</time>
      </trkpt>
      <trkpt lat="43.94779" lon="1.88595">
        <ele>239</ele>
        <time>2011-08-17T08:34:20Z</time>
      </trkpt>
      <trkpt lat="43.94779" lon="1.88593">
        <ele>239</ele>
        <time>2011-08-17T08:34:21Z</time>
      </trkpt>
      <trkpt lat="43.94779" lon="1.88591">
        <ele>239</ele>
        <time>2011-08-17T08:34:22Z</time>
      </trkpt>
      <trkpt lat="43.94779" lon="1.88589">
        <ele>239</ele>
        <time>2011-08-17T08:34:23Z</time>
      </trkpt>
      <trkpt lat="43.94779" lon="1.88587">
        <ele>239</ele>
        <time>2011-08-17T08:34:24Z</time>
      </trkpt>
      <trkpt lat="43.94779" lon="1.88585">
        <ele>239</ele>
        <time>2011-08-17T08:34:25Z</time>
      </trkpt>
      <trkpt lat="43.94779" lon="1.88583">
        <ele>239</ele>
        <time>2011-08-17T08:34:26Z</time>
      </trkpt>
      <trkpt lat="43.94779" lon="1.88581">
        <ele>240</ele>
        <time>2011-08-17T08:34:27Z</time>
      </trkpt>
      <trkpt lat="43.94779" lon="1.88579">
        <ele>240</ele>
        <time>2011-08-17T08:34:28Z</time>
      </trkpt>
      <trkpt lat="43.94779" lon="1.88577">
        <ele>240</ele>
        <time>2011-08-17T08:34:29Z</time>
      </trkpt>
      <trkpt lat="43.9478" lon="1.88575">
        <ele>240</ele>
        <time>2011-08-17T08:34:30Z</time>
      </trkpt>
      <trkpt lat="43.9478" lon="1.88574">
        <ele>240</ele>
        <time>2011-08-17T08:34:31Z</time>
      </trkpt>
      <trkpt lat="43.9478" lon="1.88572">
        <ele>240</ele>
        <time>2011-08-17T08:34:32Z</time>
      </trkpt>
      <trkpt lat="43.9478" lon="1.8857">
        <ele>241</ele>
        <time>2011-08-17T08:34:33Z</time>
      </trkpt>
      <trkpt lat="43.94781" lon="1.88568">
        <ele>241</ele>
        <time>2011-08-17T08:34:34Z</time>
      </trkpt>
      <trkpt lat="43.94781" lon="1.88566">
        <ele>241</ele>
        <time>2011-08-17T08:34:35Z</time>
      </trkpt>
      <trkpt lat="43.9478" lon="1.88564">
        <ele>241</ele>
        <time>2011-08-17T08:34:36Z</time>
      </trkpt>
      <trkpt lat="43.9478" lon="1.88561">
        <ele>241</ele>
        <time>2011-08-17T08:34:37Z</time>
      </trkpt>
      <trkpt lat="43.9478" lon="1.88559">
        <ele>241</ele>
        <time>2011-08-17T08:34:38Z</time>
      </trkpt>
      <trkpt lat="43.94781" lon="1.88558">
        <ele>241</ele>
        <time>2011-08-17T08:34:39Z</time>
      </trkpt>
      <trkpt lat="43.94781" lon="1.88556">
        <ele>241</ele>
        <time>2011-08-17T08:34:40Z</time>
      </trkpt>
      <trkpt lat="43.94781" lon="1.88554">
        <ele>241</ele>
        <time>2011-08-17T08:34:41Z</time>
      </trkpt>
      <trkpt lat="43.94781" lon="1.88552">
        <ele>241</ele>
        <time>2011-08-17T08:34:42Z</time>
      </trkpt>
      <trkpt lat="43.94781" lon="1.88549">
        <ele>241</ele>
        <time>2011-08-17T08:34:43Z</time>
      </trkpt>
      <trkpt lat="43.94781" lon="1.88547">
        <ele>241</ele>
        <time>2011-08-17T08:34:44Z</time>
      </trkpt>
      <trkpt lat="43.94781" lon="1.88545">
        <ele>241</ele>
        <time>2011-08-17T08:34:45Z</time>
      </trkpt>
      <trkpt lat="43.9478" lon="1.88543">
        <ele>241</ele>
        <time>2011-08-17T08:34:46Z</time>
      </trkpt>
      <trkpt lat="43.9478" lon="1.88541">
        <ele>241</ele>
        <time>2011-08-17T08:34:47Z</time>
      </trkpt>
      <trkpt lat="43.9478" lon="1.88539">
        <ele>241</ele>
        <time>2011-08-17T08:34:48Z</time>
      </trkpt>
      <trkpt lat="43.94781" lon="1.88536">
        <ele>241</ele>
        <time>2011-08-17T08:34:49Z</time>
      </trkpt>
      <trkpt lat="43.9478" lon="1.88534">
        <ele>241</ele>
        <time>2011-08-17T08:34:50Z</time>
      </trkpt>
      <trkpt lat="43.9478" lon="1.88531">
        <ele>241</ele>
        <time>2011-08-17T08:34:51Z</time>
      </trkpt>
      <trkpt lat="43.9478" lon="1.88528">
        <ele>241</ele>
        <time>2011-08-17T08:34:52Z</time>
      </trkpt>
      <trkpt lat="43.9478" lon="1.88525">
        <ele>241</ele>
        <time>2011-08-17T08:34:53Z</time>
      </trkpt>
      <trkpt lat="43.9478" lon="1.88521">
        <ele>241</ele>
        <time>2011-08-17T08:34:54Z</time>
      </trkpt>
      <trkpt lat="43.9478" lon="1.88517">
        <ele>241</ele>
        <time>2011-08-17T08:34:55Z</time>
      </trkpt>
      <trkpt lat="43.9478" lon="1.88513">
        <ele>241</ele>
        <time>2011-08-17T08:34:56Z</time>
      </trkpt>
      <trkpt lat="43.9478" lon="1.88509">
        <ele>241</ele>
        <time>2011-08-17T08:34:57Z</time>
      </trkpt>
      <trkpt lat="43.94781" lon="1.88505">
        <ele>241</ele>
        <time>2011-08-17T08:34:58Z</time>
      </trkpt>
      <trkpt lat="43.94781" lon="1.88502">
        <ele>241</ele>
        <time>2011-08-17T08:34:59Z</time>
      </trkpt>
      <trkpt lat="43.9478" lon="1.88497">
        <ele>241</ele>
        <time>2011-08-17T08:35:00Z</time>
      </trkpt>
      <trkpt lat="43.9478" lon="1.88494">
        <ele>241</ele>
        <time>2011-08-17T08:35:01Z</time>
      </trkpt>
      <trkpt lat="43.9478" lon="1.8849">
        <ele>241</ele>
        <time>2011-08-17T08:35:02Z</time>
      </trkpt>
      <trkpt lat="43.94781" lon="1.88486">
        <ele>241</ele>
        <time>2011-08-17T08:35:03Z</time>
      </trkpt>
      <trkpt lat="43.94781" lon="1.88482">
        <ele>241</ele>
        <time>2011-08-17T08:35:04Z</time>
      </trkpt>
      <trkpt lat="43.94781" lon="1.88479">
        <ele>241</ele>
        <time>2011-08-17T08:35:05Z</time>
      </trkpt>
      <trkpt lat="43.94781" lon="1.88475">
        <ele>241</ele>
        <time>2011-08-17T08:35:06Z</time>
      </trkpt>
      <trkpt lat="43.94781" lon="1.88471">
        <ele>241</ele>
        <time>2011-08-17T08:35:07Z</time>
      </trkpt>
      <trkpt lat="43.94781" lon="1.88468">
        <ele>241</ele>
        <time>2011-08-17T08:35:08Z</time>
      </trkpt>
      <trkpt lat="43.94782" lon="1.88464">
        <ele>242</ele>
        <time>2011-08-17T08:35:09Z</time>
      </trkpt>
      <trkpt lat="43.94782" lon="1.8846">
        <ele>242</ele>
        <time>2011-08-17T08:35:10Z</time>
      </trkpt>
      <trkpt lat="43.94783" lon="1.88456">
        <ele>242</ele>
        <time>2011-08-17T08:35:11Z</time>
      </trkpt>
      <trkpt lat="43.94783" lon="1.88452">
        <ele>242</ele>
        <time>2011-08-17T08:35:12Z</time>
      </trkpt>
      <trkpt lat="43.94784" lon="1.88448">
        <ele>242</ele>
        <time>2011-08-17T08:35:13Z</time>
      </trkpt>
      <trkpt lat="43.94784" lon="1.88444">
        <ele>242</ele>
        <time>2011-08-17T08:35:14Z</time>
      </trkpt>
      <trkpt lat="43.94785" lon="1.88441">
        <ele>242</ele>
        <time>2011-08-17T08:35:15Z</time>
      </trkpt>
      <trkpt lat="43.94785" lon="1.88437">
        <ele>242</ele>
        <time>2011-08-17T08:35:16Z</time>
      </trkpt>
      <trkpt lat="43.94786" lon="1.88433">
        <ele>242</ele>
        <time>2011-08-17T08:35:17Z</time>
      </trkpt>
      <trkpt lat="43.94786" lon="1.88429">
        <ele>242</ele>
        <time>2011-08-17T08:35:18Z</time>
      </trkpt>
      <trkpt lat="43.94786" lon="1.88425">
        <ele>243</ele>
        <time>2011-08-17T08:35:19Z</time>
      </trkpt>
      <trkpt lat="43.94787" lon="1.88421">
        <ele>243</ele>
        <time>2011-08-17T08:35:20Z</time>
      </trkpt>
      <trkpt lat="43.94788" lon="1.88418">
        <ele>243</ele>
        <time>2011-08-17T08:35:21Z</time>
      </trkpt>
      <trkpt lat="43.94788" lon="1.88414">
        <ele>244</ele>
        <time>2011-08-17T08:35:22Z</time>
      </trkpt>
      <trkpt lat="43.94789" lon="1.8841">
        <ele>244</ele>
        <time>2011-08-17T08:35:23Z</time>
      </trkpt>
      <trkpt lat="43.94789" lon="1.88406">
        <ele>244</ele>
        <time>2011-08-17T08:35:24Z</time>
      </trkpt>
      <trkpt lat="43.9479" lon="1.88402">
        <ele>244</ele>
        <time>2011-08-17T08:35:25Z</time>
      </trkpt>
      <trkpt lat="43.94791" lon="1.88399">
        <ele>244</ele>
        <time>2011-08-17T08:35:26Z</time>
      </trkpt>
      <trkpt lat="43.94791" lon="1.88395">
        <ele>245</ele>
        <time>2011-08-17T08:35:27Z</time>
      </trkpt>
      <trkpt lat="43.94792" lon="1.88392">
        <ele>245</ele>
        <time>2011-08-17T08:35:28Z</time>
      </trkpt>
      <trkpt lat="43.94793" lon="1.88388">
        <ele>245</ele>
        <time>2011-08-17T08:35:29Z</time>
      </trkpt>
      <trkpt lat="43.94794" lon="1.88385">
        <ele>245</ele>
        <time>2011-08-17T08:35:30Z</time>
      </trkpt>
      <trkpt lat="43.94795" lon="1.88382">
        <ele>245</ele>
        <time>2011-08-17T08:35:31Z</time>
      </trkpt>
      <trkpt lat="43.94796" lon="1.88379">
        <ele>246</ele>
        <time>2011-08-17T08:35:32Z</time>
      </trkpt>
      <trkpt lat="43.94796" lon="1.88375">
        <ele>246</ele>
        <time>2011-08-17T08:35:33Z</time>
      </trkpt>
      <trkpt lat="43.94797" lon="1.88372">
        <ele>247</ele>
        <time>2011-08-17T08:35:34Z</time>
      </trkpt>
      <trkpt lat="43.94798" lon="1.88369">
        <ele>248</ele>
        <time>2011-08-17T08:35:35Z</time>
      </trkpt>
      <trkpt lat="43.94798" lon="1.88365">
        <ele>248</ele>
        <time>2011-08-17T08:35:36Z</time>
      </trkpt>
      <trkpt lat="43.94798" lon="1.88363">
        <ele>249</ele>
        <time>2011-08-17T08:35:37Z</time>
      </trkpt>
      <trkpt lat="43.94799" lon="1.8836">
        <ele>249</ele>
        <time>2011-08-17T08:35:38Z</time>
      </trkpt>
      <trkpt lat="43.94799" lon="1.88357">
        <ele>250</ele>
        <time>2011-08-17T08:35:39Z</time>
      </trkpt>
      <trkpt lat="43.94799" lon="1.88355">
        <ele>250</ele>
        <time>2011-08-17T08:35:40Z</time>
      </trkpt>
      <trkpt lat="43.948" lon="1.88352">
        <ele>250</ele>
        <time>2011-08-17T08:35:41Z</time>
      </trkpt>
      <trkpt lat="43.948" lon="1.8835">
        <ele>250</ele>
        <time>2011-08-17T08:35:42Z</time>
      </trkpt>
      <trkpt lat="43.948" lon="1.88347">
        <ele>250</ele>
        <time>2011-08-17T08:35:43Z</time>
      </trkpt>
      <trkpt lat="43.948" lon="1.88345">
        <ele>250</ele>
        <time>2011-08-17T08:35:44Z</time>
      </trkpt>
      <trkpt lat="43.948" lon="1.88343">
        <ele>250</ele>
        <time>2011-08-17T08:35:45Z</time>
      </trkpt>
      <trkpt lat="43.948" lon="1.8834">
        <ele>250</ele>
        <time>2011-08-17T08:35:46Z</time>
      </trkpt>
      <trkpt lat="43.94801" lon="1.88337">
        <ele>250</ele>
        <time>2011-08-17T08:35:47Z</time>
      </trkpt>
      <trkpt lat="43.94801" lon="1.88334">
        <ele>250</ele>
        <time>2011-08-17T08:35:48Z</time>
      </trkpt>
      <trkpt lat="43.94801" lon="1.88331">
        <ele>250</ele>
        <time>2011-08-17T08:35:49Z</time>
      </trkpt>
      <trkpt lat="43.94801" lon="1.88328">
        <ele>250</ele>
        <time>2011-08-17T08:35:50Z</time>
      </trkpt>
      <trkpt lat="43.94802" lon="1.88326">
        <ele>250</ele>
        <time>2011-08-17T08:35:51Z</time>
      </trkpt>
      <trkpt lat="43.94803" lon="1.88323">
        <ele>251</ele>
        <time>2011-08-17T08:35:52Z</time>
      </trkpt>
      <trkpt lat="43.94804" lon="1.88321">
        <ele>251</ele>
        <time>2011-08-17T08:35:53Z</time>
      </trkpt>
      <trkpt lat="43.94804" lon="1.88319">
        <ele>251</ele>
        <time>2011-08-17T08:35:54Z</time>
      </trkpt>
      <trkpt lat="43.94805" lon="1.88317">
        <ele>251</ele>
        <time>2011-08-17T08:35:55Z</time>
      </trkpt>
      <trkpt lat="43.94806" lon="1.88314">
        <ele>251</ele>
        <time>2011-08-17T08:35:56Z</time>
      </trkpt>
      <trkpt lat="43.94807" lon="1.88312">
        <ele>251</ele>
        <time>2011-08-17T08:35:57Z</time>
      </trkpt>
      <trkpt lat="43.94807" lon="1.8831">
        <ele>251</ele>
        <time>2011-08-17T08:35:58Z</time>
      </trkpt>
      <trkpt lat="43.94807" lon="1.88307">
        <ele>251</ele>
        <time>2011-08-17T08:35:59Z</time>
      </trkpt>
      <trkpt lat="43.94807" lon="1.88305">
        <ele>251</ele>
        <time>2011-08-17T08:36:00Z</time>
      </trkpt>
      <trkpt lat="43.94808" lon="1.88303">
        <ele>251</ele>
        <time>2011-08-17T08:36:01Z</time>
      </trkpt>
      <trkpt lat="43.94808" lon="1.883">
        <ele>251</ele>
        <time>2011-08-17T08:36:02Z</time>
      </trkpt>
      <trkpt lat="43.94808" lon="1.88297">
        <ele>251</ele>
        <time>2011-08-17T08:36:03Z</time>
      </trkpt>
      <trkpt lat="43.94808" lon="1.88294">
        <ele>251</ele>
        <time>2011-08-17T08:36:04Z</time>
      </trkpt>
      <trkpt lat="43.94808" lon="1.88292">
        <ele>252</ele>
        <time>2011-08-17T08:36:05Z</time>
      </trkpt>
      <trkpt lat="43.94807" lon="1.88289">
        <ele>253</ele>
        <time>2011-08-17T08:36:06Z</time>
      </trkpt>
      <trkpt lat="43.94807" lon="1.88287">
        <ele>253</ele>
        <time>2011-08-17T08:36:07Z</time>
      </trkpt>
      <trkpt lat="43.94807" lon="1.88284">
        <ele>253</ele>
        <time>2011-08-17T08:36:08Z</time>
      </trkpt>
      <trkpt lat="43.94808" lon="1.88282">
        <ele>254</ele>
        <time>2011-08-17T08:36:09Z</time>
      </trkpt>
      <trkpt lat="43.94808" lon="1.8828">
        <ele>254</ele>
        <time>2011-08-17T08:36:10Z</time>
      </trkpt>
      <trkpt lat="43.94808" lon="1.88277">
        <ele>254</ele>
        <time>2011-08-17T08:36:11Z</time>
      </trkpt>
      <trkpt lat="43.94808" lon="1.88275">
        <ele>254</ele>
        <time>2011-08-17T08:36:12Z</time>
      </trkpt>
      <trkpt lat="43.94809" lon="1.88273">
        <ele>254</ele>
        <time>2011-08-17T08:36:13Z</time>
      </trkpt>
      <trkpt lat="43.94809" lon="1.8827">
        <ele>254</ele>
        <time>2011-08-17T08:36:14Z</time>
      </trkpt>
      <trkpt lat="43.94809" lon="1.88268">
        <ele>254</ele>
        <time>2011-08-17T08:36:15Z</time>
      </trkpt>
      <trkpt lat="43.9481" lon="1.88266">
        <ele>254</ele>
        <time>2011-08-17T08:36:16Z</time>
      </trkpt>
      <trkpt lat="43.94812" lon="1.88263">
        <ele>254</ele>
        <time>2011-08-17T08:36:17Z</time>
      </trkpt>
      <trkpt lat="43.94813" lon="1.88261">
        <ele>254</ele>
        <time>2011-08-17T08:36:18Z</time>
      </trkpt>
      <trkpt lat="43.94813" lon="1.88259">
        <ele>254</ele>
        <time>2011-08-17T08:36:19Z</time>
      </trkpt>
      <trkpt lat="43.94814" lon="1.88257">
        <ele>254</ele>
        <time>2011-08-17T08:36:20Z</time>
      </trkpt>
      <trkpt lat="43.94815" lon="1.88254">
        <ele>254</ele>
        <time>2011-08-17T08:36:21Z</time>
      </trkpt>
      <trkpt lat="43.94816" lon="1.88251">
        <ele>254</ele>
        <time>2011-08-17T08:36:22Z</time>
      </trkpt>
      <trkpt lat="43.94817" lon="1.88249">
        <ele>254</ele>
        <time>2011-08-17T08:36:23Z</time>
      </trkpt>
      <trkpt lat="43.94818" lon="1.88247">
        <ele>254</ele>
        <time>2011-08-17T08:36:24Z</time>
      </trkpt>
      <trkpt lat="43.94818" lon="1.88244">
        <ele>254</ele>
        <time>2011-08-17T08:36:25Z</time>
      </trkpt>
      <trkpt lat="43.94818" lon="1.88242">
        <ele>254</ele>
        <time>2011-08-17T08:36:26Z</time>
      </trkpt>
      <trkpt lat="43.94819" lon="1.8824">
        <ele>254</ele>
        <time>2011-08-17T08:36:27Z</time>
      </trkpt>
      <trkpt lat="43.9482" lon="1.88237">
        <ele>255</ele>
        <time>2011-08-17T08:36:28Z</time>
      </trkpt>
      <trkpt lat="43.94821" lon="1.88235">
        <ele>255</ele>
        <time>2011-08-17T08:36:29Z</time>
      </trkpt>
      <trkpt lat="43.94822" lon="1.88233">
        <ele>255</ele>
        <time>2011-08-17T08:36:30Z</time>
      </trkpt>
      <trkpt lat="43.94823" lon="1.8823">
        <ele>256</ele>
        <time>2011-08-17T08:36:31Z</time>
      </trkpt>
      <trkpt lat="43.94825" lon="1.88227">
        <ele>256</ele>
        <time>2011-08-17T08:36:32Z</time>
      </trkpt>
      <trkpt lat="43.94825" lon="1.88225">
        <ele>256</ele>
        <time>2011-08-17T08:36:33Z</time>
      </trkpt>
      <trkpt lat="43.94826" lon="1.88223">
        <ele>256</ele>
        <time>2011-08-17T08:36:34Z</time>
      </trkpt>
      <trkpt lat="43.94828" lon="1.88221">
        <ele>256</ele>
        <time>2011-08-17T08:36:35Z</time>
      </trkpt>
      <trkpt lat="43.94828" lon="1.88219">
        <ele>256</ele>
        <time>2011-08-17T08:36:36Z</time>
      </trkpt>
      <trkpt lat="43.9483" lon="1.88216">
        <ele>256</ele>
        <time>2011-08-17T08:36:37Z</time>
      </trkpt>
      <trkpt lat="43.9483" lon="1.88214">
        <ele>256</ele>
        <time>2011-08-17T08:36:38Z</time>
      </trkpt>
      <trkpt lat="43.94831" lon="1.88213">
        <ele>256</ele>
        <time>2011-08-17T08:36:39Z</time>
      </trkpt>
      <trkpt lat="43.94832" lon="1.8821">
        <ele>256</ele>
        <time>2011-08-17T08:36:40Z</time>
      </trkpt>
      <trkpt lat="43.94833" lon="1.88208">
        <ele>256</ele>
        <time>2011-08-17T08:36:41Z</time>
      </trkpt>
      <trkpt lat="43.94833" lon="1.88206">
        <ele>256</ele>
        <time>2011-08-17T08:36:42Z</time>
      </trkpt>
      <trkpt lat="43.94834" lon="1.88204">
        <ele>256</ele>
        <time>2011-08-17T08:36:43Z</time>
      </trkpt>
      <trkpt lat="43.94835" lon="1.88201">
        <ele>256</ele>
        <time>2011-08-17T08:36:44Z</time>
      </trkpt>
      <trkpt lat="43.94836" lon="1.88199">
        <ele>256</ele>
        <time>2011-08-17T08:36:45Z</time>
      </trkpt>
      <trkpt lat="43.94837" lon="1.88197">
        <ele>256</ele>
        <time>2011-08-17T08:36:46Z</time>
      </trkpt>
      <trkpt lat="43.94839" lon="1.88193">
        <ele>256</ele>
        <time>2011-08-17T08:36:47Z</time>
      </trkpt>
      <trkpt lat="43.9484" lon="1.88191">
        <ele>256</ele>
        <time>2011-08-17T08:36:48Z</time>
      </trkpt>
      <trkpt lat="43.94841" lon="1.88188">
        <ele>257</ele>
        <time>2011-08-17T08:36:49Z</time>
      </trkpt>
      <trkpt lat="43.94843" lon="1.88185">
        <ele>258</ele>
        <time>2011-08-17T08:36:50Z</time>
      </trkpt>
      <trkpt lat="43.94843" lon="1.88183">
        <ele>258</ele>
        <time>2011-08-17T08:36:51Z</time>
      </trkpt>
      <trkpt lat="43.94844" lon="1.8818">
        <ele>259</ele>
        <time>2011-08-17T08:36:52Z</time>
      </trkpt>
      <trkpt lat="43.94845" lon="1.88178">
        <ele>259</ele>
        <time>2011-08-17T08:36:53Z</time>
      </trkpt>
      <trkpt lat="43.94846" lon="1.88175">
        <ele>260</ele>
        <time>2011-08-17T08:36:54Z</time>
      </trkpt>
      <trkpt lat="43.94846" lon="1.88173">
        <ele>260</ele>
        <time>2011-08-17T08:36:55Z</time>
      </trkpt>
      <trkpt lat="43.94847" lon="1.88171">
        <ele>260</ele>
        <time>2011-08-17T08:36:56Z</time>
      </trkpt>
      <trkpt lat="43.94848" lon="1.88168">
        <ele>260</ele>
        <time>2011-08-17T08:36:57Z</time>
      </trkpt>
      <trkpt lat="43.94849" lon="1.88166">
        <ele>260</ele>
        <time>2011-08-17T08:36:58Z</time>
      </trkpt>
      <trkpt lat="43.94851" lon="1.88163">
        <ele>260</ele>
        <time>2011-08-17T08:36:59Z</time>
      </trkpt>
      <trkpt lat="43.94852" lon="1.88161">
        <ele>260</ele>
        <time>2011-08-17T08:37:00Z</time>
      </trkpt>
      <trkpt lat="43.94854" lon="1.88158">
        <ele>261</ele>
        <time>2011-08-17T08:37:01Z</time>
      </trkpt>
      <trkpt lat="43.94855" lon="1.88156">
        <ele>261</ele>
        <time>2011-08-17T08:37:02Z</time>
      </trkpt>
      <trkpt lat="43.94857" lon="1.88153">
        <ele>261</ele>
        <time>2011-08-17T08:37:03Z</time>
      </trkpt>
      <trkpt lat="43.94859" lon="1.88151">
        <ele>262</ele>
        <time>2011-08-17T08:37:04Z</time>
      </trkpt>
      <trkpt lat="43.9486" lon="1.88148">
        <ele>262</ele>
        <time>2011-08-17T08:37:05Z</time>
      </trkpt>
      <trkpt lat="43.94862" lon="1.88146">
        <ele>262</ele>
        <time>2011-08-17T08:37:06Z</time>
      </trkpt>
      <trkpt lat="43.94863" lon="1.88144">
        <ele>263</ele>
        <time>2011-08-17T08:37:07Z</time>
      </trkpt>
      <trkpt lat="43.94865" lon="1.88142">
        <ele>263</ele>
        <time>2011-08-17T08:37:08Z</time>
      </trkpt>
      <trkpt lat="43.94865" lon="1.8814">
        <ele>263</ele>
        <time>2011-08-17T08:37:09Z</time>
      </trkpt>
      <trkpt lat="43.94866" lon="1.88138">
        <ele>263</ele>
        <time>2011-08-17T08:37:10Z</time>
      </trkpt>
      <trkpt lat="43.94867" lon="1.88136">
        <ele>263</ele>
        <time>2011-08-17T08:37:11Z</time>
      </trkpt>
      <trkpt lat="43.94868" lon="1.88134">
        <ele>263</ele>
        <time>2011-08-17T08:37:12Z</time>
      </trkpt>
      <trkpt lat="43.9487" lon="1.88133">
        <ele>263</ele>
        <time>2011-08-17T08:37:13Z</time>
      </trkpt>
      <trkpt lat="43.94871" lon="1.88132">
        <ele>263</ele>
        <time>2011-08-17T08:37:14Z</time>
      </trkpt>
      <trkpt lat="43.94872" lon="1.8813">
        <ele>263</ele>
        <time>2011-08-17T08:37:15Z</time>
      </trkpt>
      <trkpt lat="43.94874" lon="1.88128">
        <ele>263</ele>
        <time>2011-08-17T08:37:16Z</time>
      </trkpt>
      <trkpt lat="43.94875" lon="1.88127">
        <ele>263</ele>
        <time>2011-08-17T08:37:17Z</time>
      </trkpt>
      <trkpt lat="43.94877" lon="1.88125">
        <ele>263</ele>
        <time>2011-08-17T08:37:18Z</time>
      </trkpt>
      <trkpt lat="43.94879" lon="1.88123">
        <ele>263</ele>
        <time>2011-08-17T08:37:19Z</time>
      </trkpt>
      <trkpt lat="43.94881" lon="1.88121">
        <ele>263</ele>
        <time>2011-08-17T08:37:20Z</time>
      </trkpt>
      <trkpt lat="43.94883" lon="1.88119">
        <ele>263</ele>
        <time>2011-08-17T08:37:21Z</time>
      </trkpt>
      <trkpt lat="43.94885" lon="1.88117">
        <ele>263</ele>
        <time>2011-08-17T08:37:22Z</time>
      </trkpt>
      <trkpt lat="43.94887" lon="1.88115">
        <ele>263</ele>
        <time>2011-08-17T08:37:23Z</time>
      </trkpt>
      <trkpt lat="43.94889" lon="1.88113">
        <ele>264</ele>
        <time>2011-08-17T08:37:24Z</time>
      </trkpt>
      <trkpt lat="43.94891" lon="1.88111">
        <ele>264</ele>
        <time>2011-08-17T08:37:25Z</time>
      </trkpt>
      <trkpt lat="43.94892" lon="1.88109">
        <ele>265</ele>
        <time>2011-08-17T08:37:26Z</time>
      </trkpt>
      <trkpt lat="43.94893" lon="1.88107">
        <ele>265</ele>
        <time>2011-08-17T08:37:27Z</time>
      </trkpt>
      <trkpt lat="43.94893" lon="1.88105">
        <ele>265</ele>
        <time>2011-08-17T08:37:28Z</time>
      </trkpt>
      <trkpt lat="43.94894" lon="1.88102">
        <ele>265</ele>
        <time>2011-08-17T08:37:29Z</time>
      </trkpt>
      <trkpt lat="43.94896" lon="1.881">
        <ele>265</ele>
        <time>2011-08-17T08:37:30Z</time>
      </trkpt>
      <trkpt lat="43.94897" lon="1.88098">
        <ele>265</ele>
        <time>2011-08-17T08:37:31Z</time>
      </trkpt>
      <trkpt lat="43.94899" lon="1.88096">
        <ele>265</ele>
        <time>2011-08-17T08:37:32Z</time>
      </trkpt>
      <trkpt lat="43.94901" lon="1.88094">
        <ele>266</ele>
        <time>2011-08-17T08:37:33Z</time>
      </trkpt>
      <trkpt lat="43.94903" lon="1.88093">
        <ele>266</ele>
        <time>2011-08-17T08:37:34Z</time>
      </trkpt>
      <trkpt lat="43.94904" lon="1.8809">
        <ele>266</ele>
        <time>2011-08-17T08:37:35Z</time>
      </trkpt>
      <trkpt lat="43.94905" lon="1.88088">
        <ele>266</ele>
        <time>2011-08-17T08:37:36Z</time>
      </trkpt>
      <trkpt lat="43.94907" lon="1.88086">
        <ele>266</ele>
        <time>2011-08-17T08:37:37Z</time>
      </trkpt>
      <trkpt lat="43.94908" lon="1.88084">
        <ele>266</ele>
        <time>2011-08-17T08:37:38Z</time>
      </trkpt>
      <trkpt lat="43.94909" lon="1.88082">
        <ele>266</ele>
        <time>2011-08-17T08:37:39Z</time>
      </trkpt>
      <trkpt lat="43.9491" lon="1.8808">
        <ele>266</ele>
        <time>2011-08-17T08:37:40Z</time>
      </trkpt>
      <trkpt lat="43.94911" lon="1.88077">
        <ele>266</ele>
        <time>2011-08-17T08:37:41Z</time>
      </trkpt>
      <trkpt lat="43.94912" lon="1.88075">
        <ele>266</ele>
        <time>2011-08-17T08:37:42Z</time>
      </trkpt>
      <trkpt lat="43.94914" lon="1.88073">
        <ele>266</ele>
        <time>2011-08-17T08:37:43Z</time>
      </trkpt>
      <trkpt lat="43.94915" lon="1.88071">
        <ele>266</ele>
        <time>2011-08-17T08:37:44Z</time>
      </trkpt>
      <trkpt lat="43.94916" lon="1.88069">
        <ele>267</ele>
        <time>2011-08-17T08:37:45Z</time>
      </trkpt>
      <trkpt lat="43.94918" lon="1.88067">
        <ele>267</ele>
        <time>2011-08-17T08:37:46Z</time>
      </trkpt>
      <trkpt lat="43.94919" lon="1.88065">
        <ele>267</ele>
        <time>2011-08-17T08:37:47Z</time>
      </trkpt>
      <trkpt lat="43.9492" lon="1.88063">
        <ele>267</ele>
        <time>2011-08-17T08:37:48Z</time>
      </trkpt>
      <trkpt lat="43.94922" lon="1.88061">
        <ele>267</ele>
        <time>2011-08-17T08:37:49Z</time>
      </trkpt>
      <trkpt lat="43.94923" lon="1.8806">
        <ele>267</ele>
        <time>2011-08-17T08:37:50Z</time>
      </trkpt>
      <trkpt lat="43.94925" lon="1.88058">
        <ele>267</ele>
        <time>2011-08-17T08:37:51Z</time>
      </trkpt>
      <trkpt lat="43.94926" lon="1.88056">
        <ele>267</ele>
        <time>2011-08-17T08:37:52Z</time>
      </trkpt>
      <trkpt lat="43.94927" lon="1.88054">
        <ele>267</ele>
        <time>2011-08-17T08:37:53Z</time>
      </trkpt>
      <trkpt lat="43.94928" lon="1.88052">
        <ele>267</ele>
        <time>2011-08-17T08:37:54Z</time>
      </trkpt>
      <trkpt lat="43.94929" lon="1.8805">
        <ele>267</ele>
        <time>2011-08-17T08:37:55Z</time>
      </trkpt>
      <trkpt lat="43.9493" lon="1.88048">
        <ele>267</ele>
        <time>2011-08-17T08:37:56Z</time>
      </trkpt>
      <trkpt lat="43.94931" lon="1.88047">
        <ele>267</ele>
        <time>2011-08-17T08:37:57Z</time>
      </trkpt>
      <trkpt lat="43.94932" lon="1.88045">
        <ele>267</ele>
        <time>2011-08-17T08:37:58Z</time>
      </trkpt>
      <trkpt lat="43.94933" lon="1.88042">
        <ele>267</ele>
        <time>2011-08-17T08:37:59Z</time>
      </trkpt>
      <trkpt lat="43.94934" lon="1.8804">
        <ele>267</ele>
        <time>2011-08-17T08:38:00Z</time>
      </trkpt>
      <trkpt lat="43.94935" lon="1.88039">
        <ele>267</ele>
        <time>2011-08-17T08:38:01Z</time>
      </trkpt>
      <trkpt lat="43.94936" lon="1.88037">
        <ele>267</ele>
        <time>2011-08-17T08:38:02Z</time>
      </trkpt>
      <trkpt lat="43.94937" lon="1.88035">
        <ele>267</ele>
        <time>2011-08-17T08:38:03Z</time>
      </trkpt>
      <trkpt lat="43.94938" lon="1.88033">
        <ele>267</ele>
        <time>2011-08-17T08:38:04Z</time>
      </trkpt>
      <trkpt lat="43.94939" lon="1.88031">
        <ele>267</ele>
        <time>2011-08-17T08:38:05Z</time>
      </trkpt>
      <trkpt lat="43.9494" lon="1.88029">
        <ele>267</ele>
        <time>2011-08-17T08:38:06Z</time>
      </trkpt>
      <trkpt lat="43.94941" lon="1.88028">
        <ele>267</ele>
        <time>2011-08-17T08:38:07Z</time>
      </trkpt>
      <trkpt lat="43.94942" lon="1.88025">
        <ele>267</ele>
        <time>2011-08-17T08:38:08Z</time>
      </trkpt>
      <trkpt lat="43.94944" lon="1.88022">
        <ele>267</ele>
        <time>2011-08-17T08:38:09Z</time>
      </trkpt>
      <trkpt lat="43.94945" lon="1.88019">
        <ele>267</ele>
        <time>2011-08-17T08:38:10Z</time>
      </trkpt>
      <trkpt lat="43.94946" lon="1.88017">
        <ele>267</ele>
        <time>2011-08-17T08:38:11Z</time>
      </trkpt>
      <trkpt lat="43.94947" lon="1.88014">
        <ele>267</ele>
        <time>2011-08-17T08:38:12Z</time>
      </trkpt>
      <trkpt lat="43.94949" lon="1.88012">
        <ele>267</ele>
        <time>2011-08-17T08:38:13Z</time>
      </trkpt>
      <trkpt lat="43.9495" lon="1.8801">
        <ele>267</ele>
        <time>2011-08-17T08:38:14Z</time>
      </trkpt>
      <trkpt lat="43.94951" lon="1.88008">
        <ele>267</ele>
        <time>2011-08-17T08:38:15Z</time>
      </trkpt>
      <trkpt lat="43.94952" lon="1.88006">
        <ele>267</ele>
        <time>2011-08-17T08:38:16Z</time>
      </trkpt>
      <trkpt lat="43.94954" lon="1.88004">
        <ele>267</ele>
        <time>2011-08-17T08:38:17Z</time>
      </trkpt>
      <trkpt lat="43.94955" lon="1.88002">
        <ele>267</ele>
        <time>2011-08-17T08:38:18Z</time>
      </trkpt>
      <trkpt lat="43.94955" lon="1.88">
        <ele>267</ele>
        <time>2011-08-17T08:38:19Z</time>
      </trkpt>
      <trkpt lat="43.94956" lon="1.87997">
        <ele>267</ele>
        <time>2011-08-17T08:38:20Z</time>
      </trkpt>
      <trkpt lat="43.94957" lon="1.87996">
        <ele>267</ele>
        <time>2011-08-17T08:38:21Z</time>
      </trkpt>
      <trkpt lat="43.94959" lon="1.87994">
        <ele>267</ele>
        <time>2011-08-17T08:38:23Z</time>
      </trkpt>
      <trkpt lat="43.9496" lon="1.87992">
        <ele>267</ele>
        <time>2011-08-17T08:38:24Z</time>
      </trkpt>
      <trkpt lat="43.94961" lon="1.8799">
        <ele>267</ele>
        <time>2011-08-17T08:38:25Z</time>
      </trkpt>
      <trkpt lat="43.94962" lon="1.87989">
        <ele>267</ele>
        <time>2011-08-17T08:38:26Z</time>
      </trkpt>
      <trkpt lat="43.94963" lon="1.87987">
        <ele>267</ele>
        <time>2011-08-17T08:38:27Z</time>
      </trkpt>
      <trkpt lat="43.94964" lon="1.87986">
        <ele>267</ele>
        <time>2011-08-17T08:38:28Z</time>
      </trkpt>
      <trkpt lat="43.94966" lon="1.87985">
        <ele>267</ele>
        <time>2011-08-17T08:38:30Z</time>
      </trkpt>
      <trkpt lat="43.94967" lon="1.87985">
        <ele>267</ele>
        <time>2011-08-17T08:38:31Z</time>
      </trkpt>
      <trkpt lat="43.94969" lon="1.87985">
        <ele>267</ele>
        <time>2011-08-17T08:38:32Z</time>
      </trkpt>
      <trkpt lat="43.9497" lon="1.87984">
        <ele>267</ele>
        <time>2011-08-17T08:38:33Z</time>
      </trkpt>
      <trkpt lat="43.9497" lon="1.87983">
        <ele>267</ele>
        <time>2011-08-17T08:38:34Z</time>
      </trkpt>
      <trkpt lat="43.94971" lon="1.87981">
        <ele>267</ele>
        <time>2011-08-17T08:38:35Z</time>
      </trkpt>
      <trkpt lat="43.94971" lon="1.87979">
        <ele>267</ele>
        <time>2011-08-17T08:38:36Z</time>
      </trkpt>
      <trkpt lat="43.9497" lon="1.87979">
        <ele>267</ele>
        <time>2011-08-17T08:38:39Z</time>
      </trkpt>
      <trkpt lat="43.94969" lon="1.87982">
        <ele>267</ele>
        <time>2011-08-17T08:38:41Z</time>
      </trkpt>
      <trkpt lat="43.94968" lon="1.87985">
        <ele>267</ele>
        <time>2011-08-17T08:38:43Z</time>
      </trkpt>
      <trkpt lat="43.94968" lon="1.87987">
        <ele>267</ele>
        <time>2011-08-17T08:38:45Z</time>
      </trkpt>
      <trkpt lat="43.94967" lon="1.8799">
        <ele>267</ele>
        <time>2011-08-17T08:38:47Z</time>
      </trkpt>
      <trkpt lat="43.94967" lon="1.87991">
        <ele>267</ele>
        <time>2011-08-17T08:38:48Z</time>
      </trkpt>
      <trkpt lat="43.94965" lon="1.87989">
        <ele>268</ele>
        <time>2011-08-17T08:38:50Z</time>
      </trkpt>
      <trkpt lat="43.94965" lon="1.87988">
        <ele>268</ele>
        <time>2011-08-17T08:38:51Z</time>
      </trkpt>
      <trkpt lat="43.94967" lon="1.87986">
        <ele>269</ele>
        <time>2011-08-17T08:38:53Z</time>
      </trkpt>
      <trkpt lat="43.94968" lon="1.87985">
        <ele>269</ele>
        <time>2011-08-17T08:38:55Z</time>
      </trkpt>
      <trkpt lat="43.94969" lon="1.87982">
        <ele>270</ele>
        <time>2011-08-17T08:38:57Z</time>
      </trkpt>
      <trkpt lat="43.9497" lon="1.8798">
        <ele>270</ele>
        <time>2011-08-17T08:38:59Z</time>
      </trkpt>
      <trkpt lat="43.94972" lon="1.87979">
        <ele>270</ele>
        <time>2011-08-17T08:39:01Z</time>
      </trkpt>
      <trkpt lat="43.94974" lon="1.87978">
        <ele>270</ele>
        <time>2011-08-17T08:39:02Z</time>
      </trkpt>
      <trkpt lat="43.94975" lon="1.87976">
        <ele>270</ele>
        <time>2011-08-17T08:39:03Z</time>
      </trkpt>
      <trkpt lat="43.94977" lon="1.87974">
        <ele>270</ele>
        <time>2011-08-17T08:39:04Z</time>
      </trkpt>
      <trkpt lat="43.94978" lon="1.87971">
        <ele>270</ele>
        <time>2011-08-17T08:39:05Z</time>
      </trkpt>
      <trkpt lat="43.94981" lon="1.87969">
        <ele>270</ele>
        <time>2011-08-17T08:39:06Z</time>
      </trkpt>
      <trkpt lat="43.94983" lon="1.87966">
        <ele>270</ele>
        <time>2011-08-17T08:39:07Z</time>
      </trkpt>
      <trkpt lat="43.94985" lon="1.87964">
        <ele>270</ele>
        <time>2011-08-17T08:39:08Z</time>
      </trkpt>
      <trkpt lat="43.94987" lon="1.8796">
        <ele>270</ele>
        <time>2011-08-17T08:39:09Z</time>
      </trkpt>
      <trkpt lat="43.94988" lon="1.87957">
        <ele>270</ele>
        <time>2011-08-17T08:39:10Z</time>
      </trkpt>
      <trkpt lat="43.9499" lon="1.87954">
        <ele>270</ele>
        <time>2011-08-17T08:39:11Z</time>
      </trkpt>
      <trkpt lat="43.94992" lon="1.87951">
        <ele>270</ele>
        <time>2011-08-17T08:39:12Z</time>
      </trkpt>
      <trkpt lat="43.94993" lon="1.87949">
        <ele>270</ele>
        <time>2011-08-17T08:39:13Z</time>
      </trkpt>
      <trkpt lat="43.94995" lon="1.87946">
        <ele>270</ele>
        <time>2011-08-17T08:39:14Z</time>
      </trkpt>
      <trkpt lat="43.94996" lon="1.87944">
        <ele>270</ele>
        <time>2011-08-17T08:39:15Z</time>
      </trkpt>
      <trkpt lat="43.94997" lon="1.87941">
        <ele>270</ele>
        <time>2011-08-17T08:39:16Z</time>
      </trkpt>
      <trkpt lat="43.94999" lon="1.87939">
        <ele>270</ele>
        <time>2011-08-17T08:39:17Z</time>
      </trkpt>
      <trkpt lat="43.95001" lon="1.87936">
        <ele>270</ele>
        <time>2011-08-17T08:39:18Z</time>
      </trkpt>
      <trkpt lat="43.95003" lon="1.87934">
        <ele>270</ele>
        <time>2011-08-17T08:39:19Z</time>
      </trkpt>
      <trkpt lat="43.95005" lon="1.87932">
        <ele>270</ele>
        <time>2011-08-17T08:39:20Z</time>
      </trkpt>
      <trkpt lat="43.95008" lon="1.8793">
        <ele>270</ele>
        <time>2011-08-17T08:39:21Z</time>
      </trkpt>
      <trkpt lat="43.9501" lon="1.87929">
        <ele>270</ele>
        <time>2011-08-17T08:39:22Z</time>
      </trkpt>
      <trkpt lat="43.95013" lon="1.87927">
        <ele>270</ele>
        <time>2011-08-17T08:39:23Z</time>
      </trkpt>
      <trkpt lat="43.95015" lon="1.87924">
        <ele>270</ele>
        <time>2011-08-17T08:39:24Z</time>
      </trkpt>
      <trkpt lat="43.95018" lon="1.87922">
        <ele>270</ele>
        <time>2011-08-17T08:39:25Z</time>
      </trkpt>
      <trkpt lat="43.9502" lon="1.8792">
        <ele>270</ele>
        <time>2011-08-17T08:39:26Z</time>
      </trkpt>
      <trkpt lat="43.95022" lon="1.87919">
        <ele>270</ele>
        <time>2011-08-17T08:39:27Z</time>
      </trkpt>
      <trkpt lat="43.95024" lon="1.87917">
        <ele>270</ele>
        <time>2011-08-17T08:39:28Z</time>
      </trkpt>
      <trkpt lat="43.95026" lon="1.87915">
        <ele>270</ele>
        <time>2011-08-17T08:39:29Z</time>
      </trkpt>
      <trkpt lat="43.95029" lon="1.87913">
        <ele>270</ele>
        <time>2011-08-17T08:39:30Z</time>
      </trkpt>
      <trkpt lat="43.95031" lon="1.8791">
        <ele>270</ele>
        <time>2011-08-17T08:39:31Z</time>
      </trkpt>
      <trkpt lat="43.95033" lon="1.87907">
        <ele>270</ele>
        <time>2011-08-17T08:39:32Z</time>
      </trkpt>
      <trkpt lat="43.95035" lon="1.87904">
        <ele>270</ele>
        <time>2011-08-17T08:39:33Z</time>
      </trkpt>
      <trkpt lat="43.95037" lon="1.87902">
        <ele>270</ele>
        <time>2011-08-17T08:39:34Z</time>
      </trkpt>
      <trkpt lat="43.9504" lon="1.87899">
        <ele>270</ele>
        <time>2011-08-17T08:39:35Z</time>
      </trkpt>
      <trkpt lat="43.95042" lon="1.87895">
        <ele>270</ele>
        <time>2011-08-17T08:39:36Z</time>
      </trkpt>
      <trkpt lat="43.95044" lon="1.87892">
        <ele>270</ele>
        <time>2011-08-17T08:39:37Z</time>
      </trkpt>
      <trkpt lat="43.95047" lon="1.87889">
        <ele>270</ele>
        <time>2011-08-17T08:39:38Z</time>
      </trkpt>
      <trkpt lat="43.95049" lon="1.87886">
        <ele>270</ele>
        <time>2011-08-17T08:39:39Z</time>
      </trkpt>
      <trkpt lat="43.95052" lon="1.87883">
        <ele>270</ele>
        <time>2011-08-17T08:39:40Z</time>
      </trkpt>
      <trkpt lat="43.95054" lon="1.8788">
        <ele>270</ele>
        <time>2011-08-17T08:39:41Z</time>
      </trkpt>
      <trkpt lat="43.95056" lon="1.87878">
        <ele>270</ele>
        <time>2011-08-17T08:39:42Z</time>
      </trkpt>
      <trkpt lat="43.95058" lon="1.87874">
        <ele>270</ele>
        <time>2011-08-17T08:39:43Z</time>
      </trkpt>
      <trkpt lat="43.9506" lon="1.87872">
        <ele>270</ele>
        <time>2011-08-17T08:39:44Z</time>
      </trkpt>
      <trkpt lat="43.95063" lon="1.87868">
        <ele>270</ele>
        <time>2011-08-17T08:39:45Z</time>
      </trkpt>
      <trkpt lat="43.95066" lon="1.87865">
        <ele>270</ele>
        <time>2011-08-17T08:39:46Z</time>
      </trkpt>
      <trkpt lat="43.95068" lon="1.87861">
        <ele>270</ele>
        <time>2011-08-17T08:39:47Z</time>
      </trkpt>
      <trkpt lat="43.95071" lon="1.87858">
        <ele>270</ele>
        <time>2011-08-17T08:39:48Z</time>
      </trkpt>
      <trkpt lat="43.95073" lon="1.87855">
        <ele>270</ele>
        <time>2011-08-17T08:39:49Z</time>
      </trkpt>
      <trkpt lat="43.95076" lon="1.87852">
        <ele>270</ele>
        <time>2011-08-17T08:39:50Z</time>
      </trkpt>
      <trkpt lat="43.95078" lon="1.87848">
        <ele>270</ele>
        <time>2011-08-17T08:39:51Z</time>
      </trkpt>
      <trkpt lat="43.9508" lon="1.87843">
        <ele>270</ele>
        <time>2011-08-17T08:39:52Z</time>
      </trkpt>
      <trkpt lat="43.95082" lon="1.87838">
        <ele>270</ele>
        <time>2011-08-17T08:39:53Z</time>
      </trkpt>
      <trkpt lat="43.95084" lon="1.87833">
        <ele>270</ele>
        <time>2011-08-17T08:39:54Z</time>
      </trkpt>
      <trkpt lat="43.95087" lon="1.87828">
        <ele>270</ele>
        <time>2011-08-17T08:39:55Z</time>
      </trkpt>
      <trkpt lat="43.95089" lon="1.87823">
        <ele>270</ele>
        <time>2011-08-17T08:39:56Z</time>
      </trkpt>
      <trkpt lat="43.95091" lon="1.87819">
        <ele>270</ele>
        <time>2011-08-17T08:39:57Z</time>
      </trkpt>
      <trkpt lat="43.95094" lon="1.87814">
        <ele>270</ele>
        <time>2011-08-17T08:39:58Z</time>
      </trkpt>
      <trkpt lat="43.95097" lon="1.87811">
        <ele>270</ele>
        <time>2011-08-17T08:39:59Z</time>
      </trkpt>
      <trkpt lat="43.951" lon="1.87809">
        <ele>270</ele>
        <time>2011-08-17T08:40:00Z</time>
      </trkpt>
      <trkpt lat="43.95103" lon="1.87806">
        <ele>270</ele>
        <time>2011-08-17T08:40:01Z</time>
      </trkpt>
      <trkpt lat="43.95107" lon="1.87804">
        <ele>270</ele>
        <time>2011-08-17T08:40:02Z</time>
      </trkpt>
      <trkpt lat="43.9511" lon="1.87802">
        <ele>270</ele>
        <time>2011-08-17T08:40:03Z</time>
      </trkpt>
      <trkpt lat="43.95114" lon="1.87799">
        <ele>270</ele>
        <time>2011-08-17T08:40:04Z</time>
      </trkpt>
      <trkpt lat="43.95118" lon="1.87796">
        <ele>270</ele>
        <time>2011-08-17T08:40:05Z</time>
      </trkpt>
      <trkpt lat="43.95121" lon="1.87793">
        <ele>270</ele>
        <time>2011-08-17T08:40:06Z</time>
      </trkpt>
      <trkpt lat="43.95125" lon="1.8779">
        <ele>270</ele>
        <time>2011-08-17T08:40:07Z</time>
      </trkpt>
      <trkpt lat="43.95129" lon="1.87786">
        <ele>270</ele>
        <time>2011-08-17T08:40:08Z</time>
      </trkpt>
      <trkpt lat="43.95134" lon="1.87782">
        <ele>270</ele>
        <time>2011-08-17T08:40:09Z</time>
      </trkpt>
      <trkpt lat="43.95138" lon="1.87778">
        <ele>270</ele>
        <time>2011-08-17T08:40:10Z</time>
      </trkpt>
      <trkpt lat="43.95142" lon="1.87773">
        <ele>270</ele>
        <time>2011-08-17T08:40:11Z</time>
      </trkpt>
      <trkpt lat="43.95147" lon="1.87768">
        <ele>270</ele>
        <time>2011-08-17T08:40:12Z</time>
      </trkpt>
      <trkpt lat="43.95151" lon="1.87763">
        <ele>270</ele>
        <time>2011-08-17T08:40:13Z</time>
      </trkpt>
      <trkpt lat="43.95155" lon="1.87757">
        <ele>270</ele>
        <time>2011-08-17T08:40:14Z</time>
      </trkpt>
      <trkpt lat="43.95159" lon="1.87751">
        <ele>270</ele>
        <time>2011-08-17T08:40:15Z</time>
      </trkpt>
      <trkpt lat="43.95163" lon="1.87745">
        <ele>270</ele>
        <time>2011-08-17T08:40:16Z</time>
      </trkpt>
      <trkpt lat="43.95168" lon="1.8774">
        <ele>270</ele>
        <time>2011-08-17T08:40:17Z</time>
      </trkpt>
      <trkpt lat="43.95172" lon="1.87734">
        <ele>270</ele>
        <time>2011-08-17T08:40:18Z</time>
      </trkpt>
      <trkpt lat="43.95176" lon="1.87728">
        <ele>270</ele>
        <time>2011-08-17T08:40:19Z</time>
      </trkpt>
      <trkpt lat="43.95181" lon="1.87722">
        <ele>270</ele>
        <time>2011-08-17T08:40:20Z</time>
      </trkpt>
      <trkpt lat="43.95185" lon="1.87716">
        <ele>270</ele>
        <time>2011-08-17T08:40:21Z</time>
      </trkpt>
      <trkpt lat="43.9519" lon="1.8771">
        <ele>270</ele>
        <time>2011-08-17T08:40:22Z</time>
      </trkpt>
      <trkpt lat="43.95195" lon="1.87704">
        <ele>270</ele>
        <time>2011-08-17T08:40:23Z</time>
      </trkpt>
      <trkpt lat="43.952" lon="1.87697">
        <ele>270</ele>
        <time>2011-08-17T08:40:24Z</time>
      </trkpt>
      <trkpt lat="43.95205" lon="1.87691">
        <ele>270</ele>
        <time>2011-08-17T08:40:25Z</time>
      </trkpt>
      <trkpt lat="43.95209" lon="1.87684">
        <ele>270</ele>
        <time>2011-08-17T08:40:26Z</time>
      </trkpt>
      <trkpt lat="43.95214" lon="1.87678">
        <ele>270</ele>
        <time>2011-08-17T08:40:27Z</time>
      </trkpt>
      <trkpt lat="43.95219" lon="1.87671">
        <ele>270</ele>
        <time>2011-08-17T08:40:28Z</time>
      </trkpt>
      <trkpt lat="43.95224" lon="1.87664">
        <ele>270</ele>
        <time>2011-08-17T08:40:29Z</time>
      </trkpt>
      <trkpt lat="43.95229" lon="1.87658">
        <ele>270</ele>
        <time>2011-08-17T08:40:30Z</time>
      </trkpt>
      <trkpt lat="43.95234" lon="1.87651">
        <ele>270</ele>
        <time>2011-08-17T08:40:31Z</time>
      </trkpt>
      <trkpt lat="43.95239" lon="1.87645">
        <ele>270</ele>
        <time>2011-08-17T08:40:32Z</time>
      </trkpt>
      <trkpt lat="43.95245" lon="1.87638">
        <ele>270</ele>
        <time>2011-08-17T08:40:33Z</time>
      </trkpt>
      <trkpt lat="43.9525" lon="1.87631">
        <ele>270</ele>
        <time>2011-08-17T08:40:34Z</time>
      </trkpt>
      <trkpt lat="43.95255" lon="1.87624">
        <ele>270</ele>
        <time>2011-08-17T08:40:35Z</time>
      </trkpt>
      <trkpt lat="43.9526" lon="1.87618">
        <ele>270</ele>
        <time>2011-08-17T08:40:36Z</time>
      </trkpt>
      <trkpt lat="43.95265" lon="1.87611">
        <ele>270</ele>
        <time>2011-08-17T08:40:37Z</time>
      </trkpt>
      <trkpt lat="43.9527" lon="1.87605">
        <ele>270</ele>
        <time>2011-08-17T08:40:38Z</time>
      </trkpt>
      <trkpt lat="43.95275" lon="1.87598">
        <ele>270</ele>
        <time>2011-08-17T08:40:39Z</time>
      </trkpt>
      <trkpt lat="43.9528" lon="1.87592">
        <ele>270</ele>
        <time>2011-08-17T08:40:40Z</time>
      </trkpt>
      <trkpt lat="43.95285" lon="1.87585">
        <ele>270</ele>
        <time>2011-08-17T08:40:41Z</time>
      </trkpt>
      <trkpt lat="43.9529" lon="1.87579">
        <ele>270</ele>
        <time>2011-08-17T08:40:42Z</time>
      </trkpt>
      <trkpt lat="43.95295" lon="1.87573">
        <ele>270</ele>
        <time>2011-08-17T08:40:43Z</time>
      </trkpt>
      <trkpt lat="43.953" lon="1.87566">
        <ele>270</ele>
        <time>2011-08-17T08:40:44Z</time>
      </trkpt>
      <trkpt lat="43.95305" lon="1.87559">
        <ele>270</ele>
        <time>2011-08-17T08:40:45Z</time>
      </trkpt>
      <trkpt lat="43.9531" lon="1.87552">
        <ele>270</ele>
        <time>2011-08-17T08:40:46Z</time>
      </trkpt>
      <trkpt lat="43.95315" lon="1.87546">
        <ele>270</ele>
        <time>2011-08-17T08:40:47Z</time>
      </trkpt>
      <trkpt lat="43.95321" lon="1.87539">
        <ele>270</ele>
        <time>2011-08-17T08:40:48Z</time>
      </trkpt>
      <trkpt lat="43.95326" lon="1.87532">
        <ele>270</ele>
        <time>2011-08-17T08:40:49Z</time>
      </trkpt>
      <trkpt lat="43.95331" lon="1.87525">
        <ele>270</ele>
        <time>2011-08-17T08:40:50Z</time>
      </trkpt>
      <trkpt lat="43.95336" lon="1.87519">
        <ele>270</ele>
        <time>2011-08-17T08:40:51Z</time>
      </trkpt>
      <trkpt lat="43.95341" lon="1.87512">
        <ele>270</ele>
        <time>2011-08-17T08:40:52Z</time>
      </trkpt>
      <trkpt lat="43.95346" lon="1.87505">
        <ele>270</ele>
        <time>2011-08-17T08:40:53Z</time>
      </trkpt>
      <trkpt lat="43.95351" lon="1.87499">
        <ele>270</ele>
        <time>2011-08-17T08:40:54Z</time>
      </trkpt>
      <trkpt lat="43.95356" lon="1.87492">
        <ele>270</ele>
        <time>2011-08-17T08:40:55Z</time>
      </trkpt>
      <trkpt lat="43.95361" lon="1.87485">
        <ele>270</ele>
        <time>2011-08-17T08:40:56Z</time>
      </trkpt>
      <trkpt lat="43.95366" lon="1.87478">
        <ele>270</ele>
        <time>2011-08-17T08:40:57Z</time>
      </trkpt>
      <trkpt lat="43.95371" lon="1.87471">
        <ele>270</ele>
        <time>2011-08-17T08:40:58Z</time>
      </trkpt>
      <trkpt lat="43.95376" lon="1.87465">
        <ele>270</ele>
        <time>2011-08-17T08:40:59Z</time>
      </trkpt>
      <trkpt lat="43.95381" lon="1.87458">
        <ele>270</ele>
        <time>2011-08-17T08:41:00Z</time>
      </trkpt>
      <trkpt lat="43.95386" lon="1.87452">
        <ele>270</ele>
        <time>2011-08-17T08:41:01Z</time>
      </trkpt>
      <trkpt lat="43.95391" lon="1.87445">
        <ele>270</ele>
        <time>2011-08-17T08:41:02Z</time>
      </trkpt>
      <trkpt lat="43.95395" lon="1.87438">
        <ele>270</ele>
        <time>2011-08-17T08:41:03Z</time>
      </trkpt>
      <trkpt lat="43.954" lon="1.87432">
        <ele>270</ele>
        <time>2011-08-17T08:41:04Z</time>
      </trkpt>
      <trkpt lat="43.95404" lon="1.87426">
        <ele>270</ele>
        <time>2011-08-17T08:41:05Z</time>
      </trkpt>
      <trkpt lat="43.95408" lon="1.87421">
        <ele>270</ele>
        <time>2011-08-17T08:41:06Z</time>
      </trkpt>
      <trkpt lat="43.95412" lon="1.87416">
        <ele>271</ele>
        <time>2011-08-17T08:41:07Z</time>
      </trkpt>
      <trkpt lat="43.95415" lon="1.87411">
        <ele>271</ele>
        <time>2011-08-17T08:41:08Z</time>
      </trkpt>
      <trkpt lat="43.95418" lon="1.87406">
        <ele>271</ele>
        <time>2011-08-17T08:41:09Z</time>
      </trkpt>
      <trkpt lat="43.9542" lon="1.87401">
        <ele>272</ele>
        <time>2011-08-17T08:41:10Z</time>
      </trkpt>
      <trkpt lat="43.95422" lon="1.87397">
        <ele>272</ele>
        <time>2011-08-17T08:41:11Z</time>
      </trkpt>
      <trkpt lat="43.95422" lon="1.87392">
        <ele>272</ele>
        <time>2011-08-17T08:41:12Z</time>
      </trkpt>
      <trkpt lat="43.95422" lon="1.87388">
        <ele>272</ele>
        <time>2011-08-17T08:41:13Z</time>
      </trkpt>
      <trkpt lat="43.95422" lon="1.87384">
        <ele>272</ele>
        <time>2011-08-17T08:41:14Z</time>
      </trkpt>
      <trkpt lat="43.9542" lon="1.8738">
        <ele>272</ele>
        <time>2011-08-17T08:41:15Z</time>
      </trkpt>
      <trkpt lat="43.95418" lon="1.87378">
        <ele>272</ele>
        <time>2011-08-17T08:41:16Z</time>
      </trkpt>
      <trkpt lat="43.95416" lon="1.87376">
        <ele>272</ele>
        <time>2011-08-17T08:41:17Z</time>
      </trkpt>
      <trkpt lat="43.95414" lon="1.87374">
        <ele>272</ele>
        <time>2011-08-17T08:41:18Z</time>
      </trkpt>
      <trkpt lat="43.95412" lon="1.87371">
        <ele>272</ele>
        <time>2011-08-17T08:41:19Z</time>
      </trkpt>
      <trkpt lat="43.95411" lon="1.87369">
        <ele>272</ele>
        <time>2011-08-17T08:41:20Z</time>
      </trkpt>
      <trkpt lat="43.95409" lon="1.87366">
        <ele>272</ele>
        <time>2011-08-17T08:41:21Z</time>
      </trkpt>
      <trkpt lat="43.95408" lon="1.87365">
        <ele>272</ele>
        <time>2011-08-17T08:41:22Z</time>
      </trkpt>
      <trkpt lat="43.95406" lon="1.87363">
        <ele>272</ele>
        <time>2011-08-17T08:41:23Z</time>
      </trkpt>
      <trkpt lat="43.95405" lon="1.87361">
        <ele>272</ele>
        <time>2011-08-17T08:41:24Z</time>
      </trkpt>
      <trkpt lat="43.95404" lon="1.87359">
        <ele>272</ele>
        <time>2011-08-17T08:41:25Z</time>
      </trkpt>
      <trkpt lat="43.95403" lon="1.87358">
        <ele>272</ele>
        <time>2011-08-17T08:41:26Z</time>
      </trkpt>
      <trkpt lat="43.95402" lon="1.87356">
        <ele>272</ele>
        <time>2011-08-17T08:41:27Z</time>
      </trkpt>
      <trkpt lat="43.95401" lon="1.87354">
        <ele>272</ele>
        <time>2011-08-17T08:41:28Z</time>
      </trkpt>
      <trkpt lat="43.954" lon="1.87352">
        <ele>272</ele>
        <time>2011-08-17T08:41:29Z</time>
      </trkpt>
      <trkpt lat="43.95399" lon="1.87351">
        <ele>272</ele>
        <time>2011-08-17T08:41:30Z</time>
      </trkpt>
      <trkpt lat="43.95398" lon="1.87349">
        <ele>272</ele>
        <time>2011-08-17T08:41:31Z</time>
      </trkpt>
      <trkpt lat="43.95397" lon="1.87347">
        <ele>273</ele>
        <time>2011-08-17T08:41:32Z</time>
      </trkpt>
      <trkpt lat="43.95396" lon="1.87345">
        <ele>273</ele>
        <time>2011-08-17T08:41:33Z</time>
      </trkpt>
      <trkpt lat="43.95395" lon="1.87343">
        <ele>273</ele>
        <time>2011-08-17T08:41:34Z</time>
      </trkpt>
      <trkpt lat="43.95393" lon="1.87341">
        <ele>274</ele>
        <time>2011-08-17T08:41:35Z</time>
      </trkpt>
      <trkpt lat="43.95392" lon="1.87338">
        <ele>274</ele>
        <time>2011-08-17T08:41:36Z</time>
      </trkpt>
      <trkpt lat="43.9539" lon="1.87336">
        <ele>274</ele>
        <time>2011-08-17T08:41:37Z</time>
      </trkpt>
      <trkpt lat="43.95389" lon="1.87333">
        <ele>274</ele>
        <time>2011-08-17T08:41:38Z</time>
      </trkpt>
      <trkpt lat="43.95387" lon="1.8733">
        <ele>274</ele>
        <time>2011-08-17T08:41:39Z</time>
      </trkpt>
      <trkpt lat="43.95385" lon="1.87326">
        <ele>274</ele>
        <time>2011-08-17T08:41:40Z</time>
      </trkpt>
      <trkpt lat="43.95383" lon="1.87323">
        <ele>274</ele>
        <time>2011-08-17T08:41:41Z</time>
      </trkpt>
      <trkpt lat="43.95381" lon="1.87319">
        <ele>274</ele>
        <time>2011-08-17T08:41:42Z</time>
      </trkpt>
      <trkpt lat="43.95379" lon="1.87315">
        <ele>274</ele>
        <time>2011-08-17T08:41:43Z</time>
      </trkpt>
      <trkpt lat="43.95376" lon="1.8731">
        <ele>274</ele>
        <time>2011-08-17T08:41:44Z</time>
      </trkpt>
      <trkpt lat="43.95374" lon="1.87305">
        <ele>274</ele>
        <time>2011-08-17T08:41:45Z</time>
      </trkpt>
      <trkpt lat="43.95373" lon="1.873">
        <ele>274</ele>
        <time>2011-08-17T08:41:46Z</time>
      </trkpt>
      <trkpt lat="43.95371" lon="1.87293">
        <ele>274</ele>
        <time>2011-08-17T08:41:47Z</time>
      </trkpt>
      <trkpt lat="43.95371" lon="1.87287">
        <ele>274</ele>
        <time>2011-08-17T08:41:48Z</time>
      </trkpt>
      <trkpt lat="43.95371" lon="1.8728">
        <ele>274</ele>
        <time>2011-08-17T08:41:49Z</time>
      </trkpt>
      <trkpt lat="43.95372" lon="1.87273">
        <ele>274</ele>
        <time>2011-08-17T08:41:50Z</time>
      </trkpt>
      <trkpt lat="43.95372" lon="1.87266">
        <ele>274</ele>
        <time>2011-08-17T08:41:51Z</time>
      </trkpt>
      <trkpt lat="43.95374" lon="1.87259">
        <ele>274</ele>
        <time>2011-08-17T08:41:52Z</time>
      </trkpt>
      <trkpt lat="43.95375" lon="1.87252">
        <ele>274</ele>
        <time>2011-08-17T08:41:53Z</time>
      </trkpt>
      <trkpt lat="43.95377" lon="1.87244">
        <ele>274</ele>
        <time>2011-08-17T08:41:54Z</time>
      </trkpt>
      <trkpt lat="43.95379" lon="1.87236">
        <ele>274</ele>
        <time>2011-08-17T08:41:55Z</time>
      </trkpt>
      <trkpt lat="43.9538" lon="1.87228">
        <ele>274</ele>
        <time>2011-08-17T08:41:56Z</time>
      </trkpt>
      <trkpt lat="43.95383" lon="1.87219">
        <ele>274</ele>
        <time>2011-08-17T08:41:57Z</time>
      </trkpt>
      <trkpt lat="43.95385" lon="1.8721">
        <ele>274</ele>
        <time>2011-08-17T08:41:58Z</time>
      </trkpt>
      <trkpt lat="43.95387" lon="1.872">
        <ele>274</ele>
        <time>2011-08-17T08:41:59Z</time>
      </trkpt>
      <trkpt lat="43.95389" lon="1.87191">
        <ele>274</ele>
        <time>2011-08-17T08:42:00Z</time>
      </trkpt>
      <trkpt lat="43.95391" lon="1.87181">
        <ele>274</ele>
        <time>2011-08-17T08:42:01Z</time>
      </trkpt>
      <trkpt lat="43.95393" lon="1.87171">
        <ele>274</ele>
        <time>2011-08-17T08:42:02Z</time>
      </trkpt>
      <trkpt lat="43.95396" lon="1.87161">
        <ele>274</ele>
        <time>2011-08-17T08:42:03Z</time>
      </trkpt>
      <trkpt lat="43.95398" lon="1.87151">
        <ele>274</ele>
        <time>2011-08-17T08:42:04Z</time>
      </trkpt>
      <trkpt lat="43.954" lon="1.8714">
        <ele>274</ele>
        <time>2011-08-17T08:42:05Z</time>
      </trkpt>
      <trkpt lat="43.95402" lon="1.8713">
        <ele>274</ele>
        <time>2011-08-17T08:42:06Z</time>
      </trkpt>
      <trkpt lat="43.95404" lon="1.8712">
        <ele>274</ele>
        <time>2011-08-17T08:42:07Z</time>
      </trkpt>
      <trkpt lat="43.95406" lon="1.87109">
        <ele>274</ele>
        <time>2011-08-17T08:42:08Z</time>
      </trkpt>
      <trkpt lat="43.95408" lon="1.87099">
        <ele>274</ele>
        <time>2011-08-17T08:42:09Z</time>
      </trkpt>
      <trkpt lat="43.95411" lon="1.87088">
        <ele>274</ele>
        <time>2011-08-17T08:42:10Z</time>
      </trkpt>
      <trkpt lat="43.95413" lon="1.87077">
        <ele>274</ele>
        <time>2011-08-17T08:42:11Z</time>
      </trkpt>
      <trkpt lat="43.95415" lon="1.87067">
        <ele>274</ele>
        <time>2011-08-17T08:42:12Z</time>
      </trkpt>
      <trkpt lat="43.95417" lon="1.87056">
        <ele>274</ele>
        <time>2011-08-17T08:42:13Z</time>
      </trkpt>
      <trkpt lat="43.95419" lon="1.87044">
        <ele>274</ele>
        <time>2011-08-17T08:42:14Z</time>
      </trkpt>
      <trkpt lat="43.95418" lon="1.87033">
        <ele>274</ele>
        <time>2011-08-17T08:42:15Z</time>
      </trkpt>
      <trkpt lat="43.95415" lon="1.87023">
        <ele>274</ele>
        <time>2011-08-17T08:42:16Z</time>
      </trkpt>
      <trkpt lat="43.95409" lon="1.87014">
        <ele>274</ele>
        <time>2011-08-17T08:42:17Z</time>
      </trkpt>
      <trkpt lat="43.95403" lon="1.87007">
        <ele>274</ele>
        <time>2011-08-17T08:42:18Z</time>
      </trkpt>
      <trkpt lat="43.95396" lon="1.87001">
        <ele>274</ele>
        <time>2011-08-17T08:42:19Z</time>
      </trkpt>
      <trkpt lat="43.9539" lon="1.86995">
        <ele>274</ele>
        <time>2011-08-17T08:42:20Z</time>
      </trkpt>
      <trkpt lat="43.95383" lon="1.86989">
        <ele>274</ele>
        <time>2011-08-17T08:42:21Z</time>
      </trkpt>
      <trkpt lat="43.95376" lon="1.86983">
        <ele>274</ele>
        <time>2011-08-17T08:42:22Z</time>
      </trkpt>
      <trkpt lat="43.9537" lon="1.86978">
        <ele>274</ele>
        <time>2011-08-17T08:42:23Z</time>
      </trkpt>
      <trkpt lat="43.95364" lon="1.86972">
        <ele>274</ele>
        <time>2011-08-17T08:42:24Z</time>
      </trkpt>
      <trkpt lat="43.95358" lon="1.86967">
        <ele>274</ele>
        <time>2011-08-17T08:42:25Z</time>
      </trkpt>
      <trkpt lat="43.95352" lon="1.86962">
        <ele>274</ele>
        <time>2011-08-17T08:42:26Z</time>
      </trkpt>
      <trkpt lat="43.95346" lon="1.86957">
        <ele>274</ele>
        <time>2011-08-17T08:42:27Z</time>
      </trkpt>
      <trkpt lat="43.95342" lon="1.86953">
        <ele>274</ele>
        <time>2011-08-17T08:42:28Z</time>
      </trkpt>
      <trkpt lat="43.95337" lon="1.86948">
        <ele>273</ele>
        <time>2011-08-17T08:42:29Z</time>
      </trkpt>
      <trkpt lat="43.95333" lon="1.86943">
        <ele>273</ele>
        <time>2011-08-17T08:42:30Z</time>
      </trkpt>
      <trkpt lat="43.95328" lon="1.86939">
        <ele>273</ele>
        <time>2011-08-17T08:42:31Z</time>
      </trkpt>
      <trkpt lat="43.95324" lon="1.86935">
        <ele>273</ele>
        <time>2011-08-17T08:42:32Z</time>
      </trkpt>
      <trkpt lat="43.95319" lon="1.86931">
        <ele>273</ele>
        <time>2011-08-17T08:42:33Z</time>
      </trkpt>
      <trkpt lat="43.95314" lon="1.86926">
        <ele>273</ele>
        <time>2011-08-17T08:42:34Z</time>
      </trkpt>
      <trkpt lat="43.9531" lon="1.86922">
        <ele>273</ele>
        <time>2011-08-17T08:42:35Z</time>
      </trkpt>
      <trkpt lat="43.95306" lon="1.86918">
        <ele>273</ele>
        <time>2011-08-17T08:42:36Z</time>
      </trkpt>
      <trkpt lat="43.95304" lon="1.86914">
        <ele>273</ele>
        <time>2011-08-17T08:42:37Z</time>
      </trkpt>
      <trkpt lat="43.95304" lon="1.86909">
        <ele>273</ele>
        <time>2011-08-17T08:42:38Z</time>
      </trkpt>
      <trkpt lat="43.95304" lon="1.86905">
        <ele>273</ele>
        <time>2011-08-17T08:42:39Z</time>
      </trkpt>
      <trkpt lat="43.95305" lon="1.86902">
        <ele>273</ele>
        <time>2011-08-17T08:42:40Z</time>
      </trkpt>
      <trkpt lat="43.95306" lon="1.86901">
        <ele>273</ele>
        <time>2011-08-17T08:42:44Z</time>
      </trkpt>
      <trkpt lat="43.95307" lon="1.86904">
        <ele>273</ele>
        <time>2011-08-17T08:42:46Z</time>
      </trkpt>
      <trkpt lat="43.95306" lon="1.86901">
        <ele>273</ele>
        <time>2011-08-17T08:42:55Z</time>
      </trkpt>
      <trkpt lat="43.95306" lon="1.86899">
        <ele>273</ele>
        <time>2011-08-17T08:42:58Z</time>
      </trkpt>
      <trkpt lat="43.95305" lon="1.86897">
        <ele>273</ele>
        <time>2011-08-17T08:42:59Z</time>
      </trkpt>
      <trkpt lat="43.95305" lon="1.86895">
        <ele>273</ele>
        <time>2011-08-17T08:43:00Z</time>
      </trkpt>
      <trkpt lat="43.95305" lon="1.86893">
        <ele>273</ele>
        <time>2011-08-17T08:43:01Z</time>
      </trkpt>
      <trkpt lat="43.95306" lon="1.86891">
        <ele>273</ele>
        <time>2011-08-17T08:43:02Z</time>
      </trkpt>
      <trkpt lat="43.95306" lon="1.86889">
        <ele>273</ele>
        <time>2011-08-17T08:43:03Z</time>
      </trkpt>
      <trkpt lat="43.95306" lon="1.86887">
        <ele>273</ele>
        <time>2011-08-17T08:43:04Z</time>
      </trkpt>
      <trkpt lat="43.95306" lon="1.86883">
        <ele>273</ele>
        <time>2011-08-17T08:43:05Z</time>
      </trkpt>
      <trkpt lat="43.95307" lon="1.8688">
        <ele>273</ele>
        <time>2011-08-17T08:43:06Z</time>
      </trkpt>
      <trkpt lat="43.95308" lon="1.86876">
        <ele>273</ele>
        <time>2011-08-17T08:43:07Z</time>
      </trkpt>
      <trkpt lat="43.9531" lon="1.86872">
        <ele>273</ele>
        <time>2011-08-17T08:43:08Z</time>
      </trkpt>
      <trkpt lat="43.95311" lon="1.86868">
        <ele>273</ele>
        <time>2011-08-17T08:43:09Z</time>
      </trkpt>
      <trkpt lat="43.95313" lon="1.86864">
        <ele>272</ele>
        <time>2011-08-17T08:43:10Z</time>
      </trkpt>
      <trkpt lat="43.95315" lon="1.86861">
        <ele>272</ele>
        <time>2011-08-17T08:43:11Z</time>
      </trkpt>
      <trkpt lat="43.95317" lon="1.86858">
        <ele>271</ele>
        <time>2011-08-17T08:43:12Z</time>
      </trkpt>
      <trkpt lat="43.9532" lon="1.86856">
        <ele>271</ele>
        <time>2011-08-17T08:43:13Z</time>
      </trkpt>
      <trkpt lat="43.95322" lon="1.86855">
        <ele>270</ele>
        <time>2011-08-17T08:43:14Z</time>
      </trkpt>
      <trkpt lat="43.95324" lon="1.86853">
        <ele>270</ele>
        <time>2011-08-17T08:43:15Z</time>
      </trkpt>
      <trkpt lat="43.95326" lon="1.86852">
        <ele>270</ele>
        <time>2011-08-17T08:43:17Z</time>
      </trkpt>
      <trkpt lat="43.95327" lon="1.86851">
        <ele>270</ele>
        <time>2011-08-17T08:43:18Z</time>
      </trkpt>
      <trkpt lat="43.95329" lon="1.86847">
        <ele>270</ele>
        <time>2011-08-17T08:43:24Z</time>
      </trkpt>
      <trkpt lat="43.9533" lon="1.86847">
        <ele>271</ele>
        <time>2011-08-17T08:43:29Z</time>
      </trkpt>
      <trkpt lat="43.95332" lon="1.86845">
        <ele>271</ele>
        <time>2011-08-17T08:43:30Z</time>
      </trkpt>
      <trkpt lat="43.9533" lon="1.86847">
        <ele>274</ele>
        <time>2011-08-17T08:43:36Z</time>
      </trkpt>
      <trkpt lat="43.95329" lon="1.86849">
        <ele>274</ele>
        <time>2011-08-17T08:43:37Z</time>
      </trkpt>
      <trkpt lat="43.95327" lon="1.86851">
        <ele>274</ele>
        <time>2011-08-17T08:43:39Z</time>
      </trkpt>
      <trkpt lat="43.95327" lon="1.86853">
        <ele>274</ele>
        <time>2011-08-17T08:43:40Z</time>
      </trkpt>
      <trkpt lat="43.95326" lon="1.86855">
        <ele>274</ele>
        <time>2011-08-17T08:43:42Z</time>
      </trkpt>
      <trkpt lat="43.95324" lon="1.86853">
        <ele>274</ele>
        <time>2011-08-17T08:43:44Z</time>
      </trkpt>
      <trkpt lat="43.95323" lon="1.8685">
        <ele>272</ele>
        <time>2011-08-17T08:43:50Z</time>
      </trkpt>
      <trkpt lat="43.95325" lon="1.86848">
        <ele>270</ele>
        <time>2011-08-17T08:43:52Z</time>
      </trkpt>
      <trkpt lat="43.95326" lon="1.86847">
        <ele>270</ele>
        <time>2011-08-17T08:43:58Z</time>
      </trkpt>
      <trkpt lat="43.95327" lon="1.86848">
        <ele>269</ele>
        <time>2011-08-17T08:44:01Z</time>
      </trkpt>
      <trkpt lat="43.95329" lon="1.86849">
        <ele>268</ele>
        <time>2011-08-17T08:44:03Z</time>
      </trkpt>
      <trkpt lat="43.95329" lon="1.86851">
        <ele>267</ele>
        <time>2011-08-17T08:44:06Z</time>
      </trkpt>
      <trkpt lat="43.95337" lon="1.86884">
        <ele>273</ele>
        <time>2011-08-17T08:44:08Z</time>
      </trkpt>
      <trkpt lat="43.95337" lon="1.86884">
        <ele>273</ele>
        <time>2011-08-17T08:44:09Z</time>
      </trkpt>
    </trkseg>
  </trk>
</gpx>